<?xml version="1.0" encoding="UTF-8" standalone="no" ?>
<gpx xmlns="http://www.topografix.com/GPX/1/1" xmlns:xsi="http://www.w3.org/2001/XMLSchema-instance" xsi:schemaLocation="http://www.topografix.com/GPX/1/1 http://www.topografix.com/GPX/1/1/gpx.xsd" version="1.1" creator="VisuGPX - https://www.visugpx.com">
  <metadata>
    <name>Vendredi 21 Septembre 2019 - Île d'Yeu - Caillou Blanc - </name>
  </metadata>
  <trk>
    <name><![CDATA[Freestyle]]></name>
    <trkseg>
      <trkpt lat="46.726" lon="-2.35563">
        <ele>6</ele>
        <time>2018-09-21T12:44:58.000Z</time>
      </trkpt>
      <trkpt lat="46.726" lon="-2.35563">
        <ele>6</ele>
        <time>2018-09-21T12:44:59.000Z</time>
      </trkpt>
      <trkpt lat="46.726" lon="-2.35563">
        <ele>6</ele>
        <time>2018-09-21T12:45:00.000Z</time>
      </trkpt>
      <trkpt lat="46.726" lon="-2.35563">
        <ele>6</ele>
        <time>2018-09-21T12:45:01.000Z</time>
      </trkpt>
      <trkpt lat="46.726" lon="-2.35562">
        <ele>6</ele>
        <time>2018-09-21T12:45:02.000Z</time>
      </trkpt>
      <trkpt lat="46.72599" lon="-2.35562">
        <ele>6</ele>
        <time>2018-09-21T12:45:03.000Z</time>
      </trkpt>
      <trkpt lat="46.72599" lon="-2.35561">
        <ele>6</ele>
        <time>2018-09-21T12:45:04.000Z</time>
      </trkpt>
      <trkpt lat="46.72598" lon="-2.35561">
        <ele>6</ele>
        <time>2018-09-21T12:45:05.000Z</time>
      </trkpt>
      <trkpt lat="46.72598" lon="-2.3556">
        <ele>6</ele>
        <time>2018-09-21T12:45:06.000Z</time>
      </trkpt>
      <trkpt lat="46.72597" lon="-2.3556">
        <ele>6</ele>
        <time>2018-09-21T12:45:07.000Z</time>
      </trkpt>
      <trkpt lat="46.72597" lon="-2.35559">
        <ele>6</ele>
        <time>2018-09-21T12:45:08.000Z</time>
      </trkpt>
      <trkpt lat="46.72596" lon="-2.35558">
        <ele>6</ele>
        <time>2018-09-21T12:45:09.000Z</time>
      </trkpt>
      <trkpt lat="46.72596" lon="-2.35558">
        <ele>6</ele>
        <time>2018-09-21T12:45:10.000Z</time>
      </trkpt>
      <trkpt lat="46.72595" lon="-2.35558">
        <ele>6</ele>
        <time>2018-09-21T12:45:11.000Z</time>
      </trkpt>
      <trkpt lat="46.72595" lon="-2.35557">
        <ele>6</ele>
        <time>2018-09-21T12:45:12.000Z</time>
      </trkpt>
      <trkpt lat="46.72595" lon="-2.35557">
        <ele>6</ele>
        <time>2018-09-21T12:45:13.000Z</time>
      </trkpt>
      <trkpt lat="46.72595" lon="-2.35556">
        <ele>6</ele>
        <time>2018-09-21T12:45:14.000Z</time>
      </trkpt>
      <trkpt lat="46.72595" lon="-2.35555">
        <ele>6</ele>
        <time>2018-09-21T12:45:15.000Z</time>
      </trkpt>
      <trkpt lat="46.72595" lon="-2.35555">
        <ele>6</ele>
        <time>2018-09-21T12:45:16.000Z</time>
      </trkpt>
      <trkpt lat="46.72595" lon="-2.35553">
        <ele>6</ele>
        <time>2018-09-21T12:45:17.000Z</time>
      </trkpt>
      <trkpt lat="46.72595" lon="-2.35552">
        <ele>5.9</ele>
        <time>2018-09-21T12:45:18.000Z</time>
      </trkpt>
      <trkpt lat="46.72595" lon="-2.35551">
        <ele>5.9</ele>
        <time>2018-09-21T12:45:19.000Z</time>
      </trkpt>
      <trkpt lat="46.72596" lon="-2.35549">
        <ele>5.9</ele>
        <time>2018-09-21T12:45:20.000Z</time>
      </trkpt>
      <trkpt lat="46.72596" lon="-2.35548">
        <ele>5.9</ele>
        <time>2018-09-21T12:45:21.000Z</time>
      </trkpt>
      <trkpt lat="46.72596" lon="-2.35546">
        <ele>5.9</ele>
        <time>2018-09-21T12:45:22.000Z</time>
      </trkpt>
      <trkpt lat="46.72597" lon="-2.35544">
        <ele>5.9</ele>
        <time>2018-09-21T12:45:23.000Z</time>
      </trkpt>
      <trkpt lat="46.72597" lon="-2.35542">
        <ele>5.9</ele>
        <time>2018-09-21T12:45:24.000Z</time>
      </trkpt>
      <trkpt lat="46.72598" lon="-2.3554">
        <ele>5.9</ele>
        <time>2018-09-21T12:45:25.000Z</time>
      </trkpt>
      <trkpt lat="46.72598" lon="-2.35539">
        <ele>5.9</ele>
        <time>2018-09-21T12:45:26.000Z</time>
      </trkpt>
      <trkpt lat="46.72599" lon="-2.35537">
        <ele>5.9</ele>
        <time>2018-09-21T12:45:27.000Z</time>
      </trkpt>
      <trkpt lat="46.72599" lon="-2.35535">
        <ele>5.9</ele>
        <time>2018-09-21T12:45:28.000Z</time>
      </trkpt>
      <trkpt lat="46.72599" lon="-2.35534">
        <ele>5.9</ele>
        <time>2018-09-21T12:45:29.000Z</time>
      </trkpt>
      <trkpt lat="46.726" lon="-2.35532">
        <ele>5.9</ele>
        <time>2018-09-21T12:45:30.000Z</time>
      </trkpt>
      <trkpt lat="46.726" lon="-2.35531">
        <ele>5.9</ele>
        <time>2018-09-21T12:45:31.000Z</time>
      </trkpt>
      <trkpt lat="46.726" lon="-2.35529">
        <ele>5.9</ele>
        <time>2018-09-21T12:45:32.000Z</time>
      </trkpt>
      <trkpt lat="46.726" lon="-2.35528">
        <ele>5.9</ele>
        <time>2018-09-21T12:45:33.000Z</time>
      </trkpt>
      <trkpt lat="46.72601" lon="-2.35527">
        <ele>5.9</ele>
        <time>2018-09-21T12:45:34.000Z</time>
      </trkpt>
      <trkpt lat="46.72601" lon="-2.35525">
        <ele>5.9</ele>
        <time>2018-09-21T12:45:35.000Z</time>
      </trkpt>
      <trkpt lat="46.72601" lon="-2.35524">
        <ele>5.8</ele>
        <time>2018-09-21T12:45:36.000Z</time>
      </trkpt>
      <trkpt lat="46.72602" lon="-2.35522">
        <ele>5.8</ele>
        <time>2018-09-21T12:45:37.000Z</time>
      </trkpt>
      <trkpt lat="46.72602" lon="-2.35521">
        <ele>5.8</ele>
        <time>2018-09-21T12:45:38.000Z</time>
      </trkpt>
      <trkpt lat="46.72603" lon="-2.3552">
        <ele>5.8</ele>
        <time>2018-09-21T12:45:39.000Z</time>
      </trkpt>
      <trkpt lat="46.72603" lon="-2.35518">
        <ele>5.8</ele>
        <time>2018-09-21T12:45:40.000Z</time>
      </trkpt>
      <trkpt lat="46.72604" lon="-2.35517">
        <ele>5.8</ele>
        <time>2018-09-21T12:45:41.000Z</time>
      </trkpt>
      <trkpt lat="46.72604" lon="-2.35515">
        <ele>5.8</ele>
        <time>2018-09-21T12:45:42.000Z</time>
      </trkpt>
      <trkpt lat="46.72605" lon="-2.35514">
        <ele>5.8</ele>
        <time>2018-09-21T12:45:43.000Z</time>
      </trkpt>
      <trkpt lat="46.72606" lon="-2.35512">
        <ele>5.8</ele>
        <time>2018-09-21T12:45:44.000Z</time>
      </trkpt>
      <trkpt lat="46.72606" lon="-2.35511">
        <ele>5.8</ele>
        <time>2018-09-21T12:45:45.000Z</time>
      </trkpt>
      <trkpt lat="46.72607" lon="-2.35509">
        <ele>5.8</ele>
        <time>2018-09-21T12:45:46.000Z</time>
      </trkpt>
      <trkpt lat="46.72607" lon="-2.35508">
        <ele>5.7</ele>
        <time>2018-09-21T12:45:47.000Z</time>
      </trkpt>
      <trkpt lat="46.72607" lon="-2.35506">
        <ele>5.7</ele>
        <time>2018-09-21T12:45:48.000Z</time>
      </trkpt>
      <trkpt lat="46.72608" lon="-2.35504">
        <ele>5.7</ele>
        <time>2018-09-21T12:45:49.000Z</time>
      </trkpt>
      <trkpt lat="46.72608" lon="-2.35503">
        <ele>5.7</ele>
        <time>2018-09-21T12:45:50.000Z</time>
      </trkpt>
      <trkpt lat="46.72608" lon="-2.35501">
        <ele>5.7</ele>
        <time>2018-09-21T12:45:51.000Z</time>
      </trkpt>
      <trkpt lat="46.72608" lon="-2.355">
        <ele>5.7</ele>
        <time>2018-09-21T12:45:52.000Z</time>
      </trkpt>
      <trkpt lat="46.72609" lon="-2.35498">
        <ele>5.7</ele>
        <time>2018-09-21T12:45:53.000Z</time>
      </trkpt>
      <trkpt lat="46.72609" lon="-2.35497">
        <ele>5.7</ele>
        <time>2018-09-21T12:45:54.000Z</time>
      </trkpt>
      <trkpt lat="46.72609" lon="-2.35495">
        <ele>5.7</ele>
        <time>2018-09-21T12:45:55.000Z</time>
      </trkpt>
      <trkpt lat="46.7261" lon="-2.35494">
        <ele>5.8</ele>
        <time>2018-09-21T12:45:56.000Z</time>
      </trkpt>
      <trkpt lat="46.7261" lon="-2.35492">
        <ele>5.8</ele>
        <time>2018-09-21T12:45:57.000Z</time>
      </trkpt>
      <trkpt lat="46.72611" lon="-2.3549">
        <ele>5.8</ele>
        <time>2018-09-21T12:45:58.000Z</time>
      </trkpt>
      <trkpt lat="46.72611" lon="-2.35489">
        <ele>5.8</ele>
        <time>2018-09-21T12:45:59.000Z</time>
      </trkpt>
      <trkpt lat="46.72611" lon="-2.35487">
        <ele>5.8</ele>
        <time>2018-09-21T12:46:00.000Z</time>
      </trkpt>
      <trkpt lat="46.72612" lon="-2.35485">
        <ele>5.8</ele>
        <time>2018-09-21T12:46:01.000Z</time>
      </trkpt>
      <trkpt lat="46.72612" lon="-2.35484">
        <ele>5.8</ele>
        <time>2018-09-21T12:46:02.000Z</time>
      </trkpt>
      <trkpt lat="46.72613" lon="-2.35482">
        <ele>5.9</ele>
        <time>2018-09-21T12:46:03.000Z</time>
      </trkpt>
      <trkpt lat="46.72613" lon="-2.35481">
        <ele>5.9</ele>
        <time>2018-09-21T12:46:04.000Z</time>
      </trkpt>
      <trkpt lat="46.72613" lon="-2.35479">
        <ele>5.9</ele>
        <time>2018-09-21T12:46:05.000Z</time>
      </trkpt>
      <trkpt lat="46.72613" lon="-2.35477">
        <ele>5.9</ele>
        <time>2018-09-21T12:46:06.000Z</time>
      </trkpt>
      <trkpt lat="46.72614" lon="-2.35476">
        <ele>5.9</ele>
        <time>2018-09-21T12:46:07.000Z</time>
      </trkpt>
      <trkpt lat="46.72614" lon="-2.35474">
        <ele>5.9</ele>
        <time>2018-09-21T12:46:08.000Z</time>
      </trkpt>
      <trkpt lat="46.72614" lon="-2.35473">
        <ele>6</ele>
        <time>2018-09-21T12:46:09.000Z</time>
      </trkpt>
      <trkpt lat="46.72614" lon="-2.35471">
        <ele>6</ele>
        <time>2018-09-21T12:46:10.000Z</time>
      </trkpt>
      <trkpt lat="46.72614" lon="-2.35469">
        <ele>6</ele>
        <time>2018-09-21T12:46:11.000Z</time>
      </trkpt>
      <trkpt lat="46.72614" lon="-2.35468">
        <ele>6</ele>
        <time>2018-09-21T12:46:12.000Z</time>
      </trkpt>
      <trkpt lat="46.72614" lon="-2.35466">
        <ele>6</ele>
        <time>2018-09-21T12:46:13.000Z</time>
      </trkpt>
      <trkpt lat="46.72614" lon="-2.35465">
        <ele>6.1</ele>
        <time>2018-09-21T12:46:14.000Z</time>
      </trkpt>
      <trkpt lat="46.72614" lon="-2.35463">
        <ele>6.1</ele>
        <time>2018-09-21T12:46:15.000Z</time>
      </trkpt>
      <trkpt lat="46.72614" lon="-2.35461">
        <ele>6.1</ele>
        <time>2018-09-21T12:46:16.000Z</time>
      </trkpt>
      <trkpt lat="46.72615" lon="-2.3546">
        <ele>6.1</ele>
        <time>2018-09-21T12:46:17.000Z</time>
      </trkpt>
      <trkpt lat="46.72615" lon="-2.35458">
        <ele>6.1</ele>
        <time>2018-09-21T12:46:18.000Z</time>
      </trkpt>
      <trkpt lat="46.72615" lon="-2.35457">
        <ele>6.1</ele>
        <time>2018-09-21T12:46:19.000Z</time>
      </trkpt>
      <trkpt lat="46.72615" lon="-2.35455">
        <ele>6.2</ele>
        <time>2018-09-21T12:46:20.000Z</time>
      </trkpt>
      <trkpt lat="46.72615" lon="-2.35453">
        <ele>6.2</ele>
        <time>2018-09-21T12:46:21.000Z</time>
      </trkpt>
      <trkpt lat="46.72615" lon="-2.35452">
        <ele>6.2</ele>
        <time>2018-09-21T12:46:22.000Z</time>
      </trkpt>
      <trkpt lat="46.72616" lon="-2.3545">
        <ele>6.2</ele>
        <time>2018-09-21T12:46:23.000Z</time>
      </trkpt>
      <trkpt lat="46.72616" lon="-2.35448">
        <ele>6.2</ele>
        <time>2018-09-21T12:46:24.000Z</time>
      </trkpt>
      <trkpt lat="46.72616" lon="-2.35447">
        <ele>6.2</ele>
        <time>2018-09-21T12:46:25.000Z</time>
      </trkpt>
      <trkpt lat="46.72616" lon="-2.35445">
        <ele>6.3</ele>
        <time>2018-09-21T12:46:26.000Z</time>
      </trkpt>
      <trkpt lat="46.72617" lon="-2.35444">
        <ele>6.3</ele>
        <time>2018-09-21T12:46:27.000Z</time>
      </trkpt>
      <trkpt lat="46.72617" lon="-2.35442">
        <ele>6.3</ele>
        <time>2018-09-21T12:46:28.000Z</time>
      </trkpt>
      <trkpt lat="46.72617" lon="-2.3544">
        <ele>6.3</ele>
        <time>2018-09-21T12:46:29.000Z</time>
      </trkpt>
      <trkpt lat="46.72617" lon="-2.35439">
        <ele>6.3</ele>
        <time>2018-09-21T12:46:30.000Z</time>
      </trkpt>
      <trkpt lat="46.72618" lon="-2.35437">
        <ele>6.3</ele>
        <time>2018-09-21T12:46:31.000Z</time>
      </trkpt>
      <trkpt lat="46.72618" lon="-2.35435">
        <ele>6.4</ele>
        <time>2018-09-21T12:46:32.000Z</time>
      </trkpt>
      <trkpt lat="46.72618" lon="-2.35434">
        <ele>6.4</ele>
        <time>2018-09-21T12:46:33.000Z</time>
      </trkpt>
      <trkpt lat="46.72618" lon="-2.35432">
        <ele>6.4</ele>
        <time>2018-09-21T12:46:34.000Z</time>
      </trkpt>
      <trkpt lat="46.72619" lon="-2.35431">
        <ele>6.4</ele>
        <time>2018-09-21T12:46:35.000Z</time>
      </trkpt>
      <trkpt lat="46.72619" lon="-2.35429">
        <ele>6.4</ele>
        <time>2018-09-21T12:46:36.000Z</time>
      </trkpt>
      <trkpt lat="46.72619" lon="-2.35427">
        <ele>6.4</ele>
        <time>2018-09-21T12:46:37.000Z</time>
      </trkpt>
      <trkpt lat="46.72619" lon="-2.35426">
        <ele>6.5</ele>
        <time>2018-09-21T12:46:38.000Z</time>
      </trkpt>
      <trkpt lat="46.7262" lon="-2.35424">
        <ele>6.5</ele>
        <time>2018-09-21T12:46:39.000Z</time>
      </trkpt>
      <trkpt lat="46.7262" lon="-2.35422">
        <ele>6.5</ele>
        <time>2018-09-21T12:46:40.000Z</time>
      </trkpt>
      <trkpt lat="46.7262" lon="-2.35421">
        <ele>6.5</ele>
        <time>2018-09-21T12:46:41.000Z</time>
      </trkpt>
      <trkpt lat="46.7262" lon="-2.35419">
        <ele>6.5</ele>
        <time>2018-09-21T12:46:42.000Z</time>
      </trkpt>
      <trkpt lat="46.72621" lon="-2.35418">
        <ele>6.5</ele>
        <time>2018-09-21T12:46:43.000Z</time>
      </trkpt>
      <trkpt lat="46.72621" lon="-2.35416">
        <ele>6.6</ele>
        <time>2018-09-21T12:46:44.000Z</time>
      </trkpt>
      <trkpt lat="46.72621" lon="-2.35414">
        <ele>6.5</ele>
        <time>2018-09-21T12:46:45.000Z</time>
      </trkpt>
      <trkpt lat="46.72621" lon="-2.35413">
        <ele>6.5</ele>
        <time>2018-09-21T12:46:46.000Z</time>
      </trkpt>
      <trkpt lat="46.72621" lon="-2.35411">
        <ele>6.5</ele>
        <time>2018-09-21T12:46:47.000Z</time>
      </trkpt>
      <trkpt lat="46.72621" lon="-2.35409">
        <ele>6.5</ele>
        <time>2018-09-21T12:46:48.000Z</time>
      </trkpt>
      <trkpt lat="46.72621" lon="-2.35408">
        <ele>6.5</ele>
        <time>2018-09-21T12:46:49.000Z</time>
      </trkpt>
      <trkpt lat="46.72622" lon="-2.35406">
        <ele>6.5</ele>
        <time>2018-09-21T12:46:50.000Z</time>
      </trkpt>
      <trkpt lat="46.72622" lon="-2.35405">
        <ele>6.5</ele>
        <time>2018-09-21T12:46:51.000Z</time>
      </trkpt>
      <trkpt lat="46.72622" lon="-2.35403">
        <ele>6.5</ele>
        <time>2018-09-21T12:46:52.000Z</time>
      </trkpt>
      <trkpt lat="46.72622" lon="-2.35401">
        <ele>6.5</ele>
        <time>2018-09-21T12:46:53.000Z</time>
      </trkpt>
      <trkpt lat="46.72622" lon="-2.354">
        <ele>6.5</ele>
        <time>2018-09-21T12:46:54.000Z</time>
      </trkpt>
      <trkpt lat="46.72622" lon="-2.35398">
        <ele>6.5</ele>
        <time>2018-09-21T12:46:55.000Z</time>
      </trkpt>
      <trkpt lat="46.72622" lon="-2.35396">
        <ele>6.5</ele>
        <time>2018-09-21T12:46:56.000Z</time>
      </trkpt>
      <trkpt lat="46.72622" lon="-2.35395">
        <ele>6.5</ele>
        <time>2018-09-21T12:46:57.000Z</time>
      </trkpt>
      <trkpt lat="46.72622" lon="-2.35393">
        <ele>6.5</ele>
        <time>2018-09-21T12:46:58.000Z</time>
      </trkpt>
      <trkpt lat="46.72622" lon="-2.35392">
        <ele>6.5</ele>
        <time>2018-09-21T12:46:59.000Z</time>
      </trkpt>
      <trkpt lat="46.72621" lon="-2.3539">
        <ele>6.5</ele>
        <time>2018-09-21T12:47:00.000Z</time>
      </trkpt>
      <trkpt lat="46.72621" lon="-2.35389">
        <ele>6.5</ele>
        <time>2018-09-21T12:47:01.000Z</time>
      </trkpt>
      <trkpt lat="46.72621" lon="-2.35387">
        <ele>6.5</ele>
        <time>2018-09-21T12:47:02.000Z</time>
      </trkpt>
      <trkpt lat="46.72621" lon="-2.35386">
        <ele>6.5</ele>
        <time>2018-09-21T12:47:03.000Z</time>
      </trkpt>
      <trkpt lat="46.72621" lon="-2.35384">
        <ele>6.5</ele>
        <time>2018-09-21T12:47:04.000Z</time>
      </trkpt>
      <trkpt lat="46.72621" lon="-2.35383">
        <ele>6.5</ele>
        <time>2018-09-21T12:47:05.000Z</time>
      </trkpt>
      <trkpt lat="46.72621" lon="-2.35381">
        <ele>6.5</ele>
        <time>2018-09-21T12:47:06.000Z</time>
      </trkpt>
      <trkpt lat="46.72621" lon="-2.3538">
        <ele>6.5</ele>
        <time>2018-09-21T12:47:07.000Z</time>
      </trkpt>
      <trkpt lat="46.72621" lon="-2.35379">
        <ele>6.5</ele>
        <time>2018-09-21T12:47:08.000Z</time>
      </trkpt>
      <trkpt lat="46.72622" lon="-2.35378">
        <ele>6.5</ele>
        <time>2018-09-21T12:47:09.000Z</time>
      </trkpt>
      <trkpt lat="46.72622" lon="-2.35377">
        <ele>6.5</ele>
        <time>2018-09-21T12:47:10.000Z</time>
      </trkpt>
      <trkpt lat="46.72622" lon="-2.35376">
        <ele>6.5</ele>
        <time>2018-09-21T12:47:11.000Z</time>
      </trkpt>
      <trkpt lat="46.72623" lon="-2.35375">
        <ele>6.5</ele>
        <time>2018-09-21T12:47:12.000Z</time>
      </trkpt>
      <trkpt lat="46.72623" lon="-2.35375">
        <ele>6.5</ele>
        <time>2018-09-21T12:47:13.000Z</time>
      </trkpt>
      <trkpt lat="46.72624" lon="-2.35374">
        <ele>6.5</ele>
        <time>2018-09-21T12:47:14.000Z</time>
      </trkpt>
      <trkpt lat="46.72625" lon="-2.35374">
        <ele>6.5</ele>
        <time>2018-09-21T12:47:15.000Z</time>
      </trkpt>
      <trkpt lat="46.72625" lon="-2.35374">
        <ele>6.5</ele>
        <time>2018-09-21T12:47:16.000Z</time>
      </trkpt>
      <trkpt lat="46.72626" lon="-2.35374">
        <ele>6.5</ele>
        <time>2018-09-21T12:47:17.000Z</time>
      </trkpt>
      <trkpt lat="46.72627" lon="-2.35374">
        <ele>6.5</ele>
        <time>2018-09-21T12:47:18.000Z</time>
      </trkpt>
      <trkpt lat="46.72628" lon="-2.35374">
        <ele>6.5</ele>
        <time>2018-09-21T12:47:19.000Z</time>
      </trkpt>
      <trkpt lat="46.72629" lon="-2.35375">
        <ele>6.5</ele>
        <time>2018-09-21T12:47:20.000Z</time>
      </trkpt>
      <trkpt lat="46.72629" lon="-2.35376">
        <ele>6.5</ele>
        <time>2018-09-21T12:47:21.000Z</time>
      </trkpt>
      <trkpt lat="46.7263" lon="-2.35377">
        <ele>6.5</ele>
        <time>2018-09-21T12:47:22.000Z</time>
      </trkpt>
      <trkpt lat="46.72631" lon="-2.35378">
        <ele>6.5</ele>
        <time>2018-09-21T12:47:23.000Z</time>
      </trkpt>
      <trkpt lat="46.72632" lon="-2.35379">
        <ele>6.5</ele>
        <time>2018-09-21T12:47:24.000Z</time>
      </trkpt>
      <trkpt lat="46.72632" lon="-2.3538">
        <ele>6.5</ele>
        <time>2018-09-21T12:47:25.000Z</time>
      </trkpt>
      <trkpt lat="46.72633" lon="-2.35382">
        <ele>6.5</ele>
        <time>2018-09-21T12:47:26.000Z</time>
      </trkpt>
      <trkpt lat="46.72634" lon="-2.35383">
        <ele>6.5</ele>
        <time>2018-09-21T12:47:27.000Z</time>
      </trkpt>
      <trkpt lat="46.72635" lon="-2.35385">
        <ele>6.5</ele>
        <time>2018-09-21T12:47:28.000Z</time>
      </trkpt>
      <trkpt lat="46.72635" lon="-2.35386">
        <ele>6.5</ele>
        <time>2018-09-21T12:47:29.000Z</time>
      </trkpt>
      <trkpt lat="46.72636" lon="-2.35387">
        <ele>6.5</ele>
        <time>2018-09-21T12:47:30.000Z</time>
      </trkpt>
      <trkpt lat="46.72637" lon="-2.35388">
        <ele>6.5</ele>
        <time>2018-09-21T12:47:31.000Z</time>
      </trkpt>
      <trkpt lat="46.72638" lon="-2.35389">
        <ele>6.4</ele>
        <time>2018-09-21T12:47:32.000Z</time>
      </trkpt>
      <trkpt lat="46.72639" lon="-2.3539">
        <ele>6.4</ele>
        <time>2018-09-21T12:47:33.000Z</time>
      </trkpt>
      <trkpt lat="46.7264" lon="-2.35391">
        <ele>6.4</ele>
        <time>2018-09-21T12:47:34.000Z</time>
      </trkpt>
      <trkpt lat="46.72641" lon="-2.35392">
        <ele>6.4</ele>
        <time>2018-09-21T12:47:35.000Z</time>
      </trkpt>
      <trkpt lat="46.72642" lon="-2.35393">
        <ele>6.4</ele>
        <time>2018-09-21T12:47:36.000Z</time>
      </trkpt>
      <trkpt lat="46.72643" lon="-2.35394">
        <ele>6.4</ele>
        <time>2018-09-21T12:47:37.000Z</time>
      </trkpt>
      <trkpt lat="46.72644" lon="-2.35395">
        <ele>6.4</ele>
        <time>2018-09-21T12:47:38.000Z</time>
      </trkpt>
      <trkpt lat="46.72645" lon="-2.35396">
        <ele>6.4</ele>
        <time>2018-09-21T12:47:39.000Z</time>
      </trkpt>
      <trkpt lat="46.72646" lon="-2.35397">
        <ele>6.4</ele>
        <time>2018-09-21T12:47:40.000Z</time>
      </trkpt>
      <trkpt lat="46.72646" lon="-2.35398">
        <ele>6.4</ele>
        <time>2018-09-21T12:47:41.000Z</time>
      </trkpt>
      <trkpt lat="46.72647" lon="-2.35399">
        <ele>6.3</ele>
        <time>2018-09-21T12:47:42.000Z</time>
      </trkpt>
      <trkpt lat="46.72648" lon="-2.35401">
        <ele>6.3</ele>
        <time>2018-09-21T12:47:43.000Z</time>
      </trkpt>
      <trkpt lat="46.72648" lon="-2.35402">
        <ele>6.3</ele>
        <time>2018-09-21T12:47:44.000Z</time>
      </trkpt>
      <trkpt lat="46.72649" lon="-2.35403">
        <ele>6.3</ele>
        <time>2018-09-21T12:47:45.000Z</time>
      </trkpt>
      <trkpt lat="46.7265" lon="-2.35404">
        <ele>6.3</ele>
        <time>2018-09-21T12:47:46.000Z</time>
      </trkpt>
      <trkpt lat="46.7265" lon="-2.35406">
        <ele>6.3</ele>
        <time>2018-09-21T12:47:47.000Z</time>
      </trkpt>
      <trkpt lat="46.72651" lon="-2.35407">
        <ele>6.3</ele>
        <time>2018-09-21T12:47:48.000Z</time>
      </trkpt>
      <trkpt lat="46.72651" lon="-2.35408">
        <ele>6.2</ele>
        <time>2018-09-21T12:47:49.000Z</time>
      </trkpt>
      <trkpt lat="46.72652" lon="-2.3541">
        <ele>6.2</ele>
        <time>2018-09-21T12:47:50.000Z</time>
      </trkpt>
      <trkpt lat="46.72653" lon="-2.35411">
        <ele>6.2</ele>
        <time>2018-09-21T12:47:51.000Z</time>
      </trkpt>
      <trkpt lat="46.72653" lon="-2.35413">
        <ele>6.2</ele>
        <time>2018-09-21T12:47:52.000Z</time>
      </trkpt>
      <trkpt lat="46.72654" lon="-2.35414">
        <ele>6.2</ele>
        <time>2018-09-21T12:47:53.000Z</time>
      </trkpt>
      <trkpt lat="46.72654" lon="-2.35415">
        <ele>6.2</ele>
        <time>2018-09-21T12:47:54.000Z</time>
      </trkpt>
      <trkpt lat="46.72655" lon="-2.35417">
        <ele>6.1</ele>
        <time>2018-09-21T12:47:55.000Z</time>
      </trkpt>
      <trkpt lat="46.72656" lon="-2.35418">
        <ele>6.1</ele>
        <time>2018-09-21T12:47:56.000Z</time>
      </trkpt>
      <trkpt lat="46.72656" lon="-2.3542">
        <ele>6.1</ele>
        <time>2018-09-21T12:47:57.000Z</time>
      </trkpt>
      <trkpt lat="46.72657" lon="-2.35421">
        <ele>6.1</ele>
        <time>2018-09-21T12:47:58.000Z</time>
      </trkpt>
      <trkpt lat="46.72657" lon="-2.35423">
        <ele>6</ele>
        <time>2018-09-21T12:47:59.000Z</time>
      </trkpt>
      <trkpt lat="46.72658" lon="-2.35424">
        <ele>6</ele>
        <time>2018-09-21T12:48:00.000Z</time>
      </trkpt>
      <trkpt lat="46.72659" lon="-2.35425">
        <ele>6</ele>
        <time>2018-09-21T12:48:01.000Z</time>
      </trkpt>
      <trkpt lat="46.72659" lon="-2.35427">
        <ele>6</ele>
        <time>2018-09-21T12:48:02.000Z</time>
      </trkpt>
      <trkpt lat="46.7266" lon="-2.35428">
        <ele>5.9</ele>
        <time>2018-09-21T12:48:03.000Z</time>
      </trkpt>
      <trkpt lat="46.72661" lon="-2.3543">
        <ele>5.9</ele>
        <time>2018-09-21T12:48:04.000Z</time>
      </trkpt>
      <trkpt lat="46.72661" lon="-2.35431">
        <ele>5.9</ele>
        <time>2018-09-21T12:48:05.000Z</time>
      </trkpt>
      <trkpt lat="46.72662" lon="-2.35433">
        <ele>5.9</ele>
        <time>2018-09-21T12:48:06.000Z</time>
      </trkpt>
      <trkpt lat="46.72663" lon="-2.35434">
        <ele>5.8</ele>
        <time>2018-09-21T12:48:07.000Z</time>
      </trkpt>
      <trkpt lat="46.72664" lon="-2.35435">
        <ele>5.8</ele>
        <time>2018-09-21T12:48:08.000Z</time>
      </trkpt>
      <trkpt lat="46.72664" lon="-2.35437">
        <ele>5.8</ele>
        <time>2018-09-21T12:48:09.000Z</time>
      </trkpt>
      <trkpt lat="46.72665" lon="-2.35438">
        <ele>5.8</ele>
        <time>2018-09-21T12:48:10.000Z</time>
      </trkpt>
      <trkpt lat="46.72666" lon="-2.3544">
        <ele>5.7</ele>
        <time>2018-09-21T12:48:11.000Z</time>
      </trkpt>
      <trkpt lat="46.72666" lon="-2.35441">
        <ele>5.7</ele>
        <time>2018-09-21T12:48:12.000Z</time>
      </trkpt>
      <trkpt lat="46.72667" lon="-2.35442">
        <ele>5.7</ele>
        <time>2018-09-21T12:48:13.000Z</time>
      </trkpt>
      <trkpt lat="46.72668" lon="-2.35444">
        <ele>5.7</ele>
        <time>2018-09-21T12:48:14.000Z</time>
      </trkpt>
      <trkpt lat="46.72668" lon="-2.35445">
        <ele>5.6</ele>
        <time>2018-09-21T12:48:15.000Z</time>
      </trkpt>
      <trkpt lat="46.72669" lon="-2.35446">
        <ele>5.6</ele>
        <time>2018-09-21T12:48:16.000Z</time>
      </trkpt>
      <trkpt lat="46.7267" lon="-2.35448">
        <ele>5.6</ele>
        <time>2018-09-21T12:48:17.000Z</time>
      </trkpt>
      <trkpt lat="46.72671" lon="-2.35449">
        <ele>5.6</ele>
        <time>2018-09-21T12:48:18.000Z</time>
      </trkpt>
      <trkpt lat="46.72671" lon="-2.35451">
        <ele>5.6</ele>
        <time>2018-09-21T12:48:19.000Z</time>
      </trkpt>
      <trkpt lat="46.72672" lon="-2.35452">
        <ele>5.5</ele>
        <time>2018-09-21T12:48:20.000Z</time>
      </trkpt>
      <trkpt lat="46.72673" lon="-2.35453">
        <ele>5.5</ele>
        <time>2018-09-21T12:48:21.000Z</time>
      </trkpt>
      <trkpt lat="46.72674" lon="-2.35455">
        <ele>5.5</ele>
        <time>2018-09-21T12:48:22.000Z</time>
      </trkpt>
      <trkpt lat="46.72674" lon="-2.35456">
        <ele>5.5</ele>
        <time>2018-09-21T12:48:23.000Z</time>
      </trkpt>
      <trkpt lat="46.72675" lon="-2.35457">
        <ele>5.5</ele>
        <time>2018-09-21T12:48:24.000Z</time>
      </trkpt>
      <trkpt lat="46.72676" lon="-2.35459">
        <ele>5.4</ele>
        <time>2018-09-21T12:48:25.000Z</time>
      </trkpt>
      <trkpt lat="46.72677" lon="-2.3546">
        <ele>5.4</ele>
        <time>2018-09-21T12:48:26.000Z</time>
      </trkpt>
      <trkpt lat="46.72677" lon="-2.35461">
        <ele>5.4</ele>
        <time>2018-09-21T12:48:27.000Z</time>
      </trkpt>
      <trkpt lat="46.72678" lon="-2.35463">
        <ele>5.4</ele>
        <time>2018-09-21T12:48:28.000Z</time>
      </trkpt>
      <trkpt lat="46.72679" lon="-2.35464">
        <ele>5.4</ele>
        <time>2018-09-21T12:48:29.000Z</time>
      </trkpt>
      <trkpt lat="46.7268" lon="-2.35465">
        <ele>5.4</ele>
        <time>2018-09-21T12:48:30.000Z</time>
      </trkpt>
      <trkpt lat="46.7268" lon="-2.35467">
        <ele>5.3</ele>
        <time>2018-09-21T12:48:31.000Z</time>
      </trkpt>
      <trkpt lat="46.72681" lon="-2.35468">
        <ele>5.3</ele>
        <time>2018-09-21T12:48:32.000Z</time>
      </trkpt>
      <trkpt lat="46.72682" lon="-2.35469">
        <ele>5.3</ele>
        <time>2018-09-21T12:48:33.000Z</time>
      </trkpt>
      <trkpt lat="46.72682" lon="-2.35471">
        <ele>5.3</ele>
        <time>2018-09-21T12:48:34.000Z</time>
      </trkpt>
      <trkpt lat="46.72683" lon="-2.35472">
        <ele>5.3</ele>
        <time>2018-09-21T12:48:35.000Z</time>
      </trkpt>
      <trkpt lat="46.72684" lon="-2.35473">
        <ele>5.3</ele>
        <time>2018-09-21T12:48:36.000Z</time>
      </trkpt>
      <trkpt lat="46.72684" lon="-2.35475">
        <ele>5.2</ele>
        <time>2018-09-21T12:48:37.000Z</time>
      </trkpt>
      <trkpt lat="46.72685" lon="-2.35476">
        <ele>5.2</ele>
        <time>2018-09-21T12:48:38.000Z</time>
      </trkpt>
      <trkpt lat="46.72685" lon="-2.35477">
        <ele>5.2</ele>
        <time>2018-09-21T12:48:39.000Z</time>
      </trkpt>
      <trkpt lat="46.72686" lon="-2.35479">
        <ele>5.2</ele>
        <time>2018-09-21T12:48:40.000Z</time>
      </trkpt>
      <trkpt lat="46.72686" lon="-2.3548">
        <ele>5.2</ele>
        <time>2018-09-21T12:48:41.000Z</time>
      </trkpt>
      <trkpt lat="46.72687" lon="-2.35481">
        <ele>5.2</ele>
        <time>2018-09-21T12:48:42.000Z</time>
      </trkpt>
      <trkpt lat="46.72688" lon="-2.35482">
        <ele>5.2</ele>
        <time>2018-09-21T12:48:43.000Z</time>
      </trkpt>
      <trkpt lat="46.72689" lon="-2.35483">
        <ele>5.2</ele>
        <time>2018-09-21T12:48:44.000Z</time>
      </trkpt>
      <trkpt lat="46.7269" lon="-2.35483">
        <ele>5.1</ele>
        <time>2018-09-21T12:48:45.000Z</time>
      </trkpt>
      <trkpt lat="46.72691" lon="-2.35484">
        <ele>5.1</ele>
        <time>2018-09-21T12:48:46.000Z</time>
      </trkpt>
      <trkpt lat="46.72692" lon="-2.35484">
        <ele>5.1</ele>
        <time>2018-09-21T12:48:47.000Z</time>
      </trkpt>
      <trkpt lat="46.72694" lon="-2.35484">
        <ele>5.1</ele>
        <time>2018-09-21T12:48:48.000Z</time>
      </trkpt>
      <trkpt lat="46.72695" lon="-2.35484">
        <ele>5.1</ele>
        <time>2018-09-21T12:48:49.000Z</time>
      </trkpt>
      <trkpt lat="46.72697" lon="-2.35484">
        <ele>5.1</ele>
        <time>2018-09-21T12:48:50.000Z</time>
      </trkpt>
      <trkpt lat="46.72698" lon="-2.35483">
        <ele>5.1</ele>
        <time>2018-09-21T12:48:51.000Z</time>
      </trkpt>
      <trkpt lat="46.727" lon="-2.35483">
        <ele>5.1</ele>
        <time>2018-09-21T12:48:52.000Z</time>
      </trkpt>
      <trkpt lat="46.72701" lon="-2.35482">
        <ele>5.1</ele>
        <time>2018-09-21T12:48:53.000Z</time>
      </trkpt>
      <trkpt lat="46.72701" lon="-2.35481">
        <ele>5.1</ele>
        <time>2018-09-21T12:48:54.000Z</time>
      </trkpt>
      <trkpt lat="46.72702" lon="-2.3548">
        <ele>5.1</ele>
        <time>2018-09-21T12:48:55.000Z</time>
      </trkpt>
      <trkpt lat="46.72703" lon="-2.35479">
        <ele>5.1</ele>
        <time>2018-09-21T12:48:56.000Z</time>
      </trkpt>
      <trkpt lat="46.72704" lon="-2.35479">
        <ele>5.1</ele>
        <time>2018-09-21T12:48:57.000Z</time>
      </trkpt>
      <trkpt lat="46.72705" lon="-2.35478">
        <ele>5.1</ele>
        <time>2018-09-21T12:48:58.000Z</time>
      </trkpt>
      <trkpt lat="46.72706" lon="-2.35477">
        <ele>5.1</ele>
        <time>2018-09-21T12:48:59.000Z</time>
      </trkpt>
      <trkpt lat="46.72707" lon="-2.35476">
        <ele>5.1</ele>
        <time>2018-09-21T12:49:00.000Z</time>
      </trkpt>
      <trkpt lat="46.72708" lon="-2.35475">
        <ele>5.1</ele>
        <time>2018-09-21T12:49:01.000Z</time>
      </trkpt>
      <trkpt lat="46.72709" lon="-2.35475">
        <ele>5.2</ele>
        <time>2018-09-21T12:49:02.000Z</time>
      </trkpt>
      <trkpt lat="46.7271" lon="-2.35474">
        <ele>5.2</ele>
        <time>2018-09-21T12:49:03.000Z</time>
      </trkpt>
      <trkpt lat="46.72711" lon="-2.35473">
        <ele>5.2</ele>
        <time>2018-09-21T12:49:04.000Z</time>
      </trkpt>
      <trkpt lat="46.72712" lon="-2.35472">
        <ele>5.2</ele>
        <time>2018-09-21T12:49:05.000Z</time>
      </trkpt>
      <trkpt lat="46.72713" lon="-2.35472">
        <ele>5.2</ele>
        <time>2018-09-21T12:49:06.000Z</time>
      </trkpt>
      <trkpt lat="46.72714" lon="-2.35471">
        <ele>5.1</ele>
        <time>2018-09-21T12:49:07.000Z</time>
      </trkpt>
      <trkpt lat="46.72716" lon="-2.3547">
        <ele>5.1</ele>
        <time>2018-09-21T12:49:08.000Z</time>
      </trkpt>
      <trkpt lat="46.72717" lon="-2.35469">
        <ele>5.1</ele>
        <time>2018-09-21T12:49:09.000Z</time>
      </trkpt>
      <trkpt lat="46.72718" lon="-2.35469">
        <ele>5.1</ele>
        <time>2018-09-21T12:49:10.000Z</time>
      </trkpt>
      <trkpt lat="46.72718" lon="-2.35468">
        <ele>5.1</ele>
        <time>2018-09-21T12:49:11.000Z</time>
      </trkpt>
      <trkpt lat="46.72719" lon="-2.35468">
        <ele>5.1</ele>
        <time>2018-09-21T12:49:12.000Z</time>
      </trkpt>
      <trkpt lat="46.7272" lon="-2.35467">
        <ele>5.1</ele>
        <time>2018-09-21T12:49:13.000Z</time>
      </trkpt>
      <trkpt lat="46.7272" lon="-2.35466">
        <ele>5.1</ele>
        <time>2018-09-21T12:49:14.000Z</time>
      </trkpt>
      <trkpt lat="46.72721" lon="-2.35465">
        <ele>5.1</ele>
        <time>2018-09-21T12:49:15.000Z</time>
      </trkpt>
      <trkpt lat="46.72721" lon="-2.35465">
        <ele>5.1</ele>
        <time>2018-09-21T12:49:16.000Z</time>
      </trkpt>
      <trkpt lat="46.72722" lon="-2.35464">
        <ele>5.1</ele>
        <time>2018-09-21T12:49:17.000Z</time>
      </trkpt>
      <trkpt lat="46.72723" lon="-2.35463">
        <ele>5.1</ele>
        <time>2018-09-21T12:49:18.000Z</time>
      </trkpt>
      <trkpt lat="46.72723" lon="-2.35462">
        <ele>5.1</ele>
        <time>2018-09-21T12:49:19.000Z</time>
      </trkpt>
      <trkpt lat="46.72724" lon="-2.35461">
        <ele>5.1</ele>
        <time>2018-09-21T12:49:20.000Z</time>
      </trkpt>
      <trkpt lat="46.72725" lon="-2.3546">
        <ele>5.1</ele>
        <time>2018-09-21T12:49:21.000Z</time>
      </trkpt>
      <trkpt lat="46.72727" lon="-2.35459">
        <ele>5.1</ele>
        <time>2018-09-21T12:49:22.000Z</time>
      </trkpt>
      <trkpt lat="46.72728" lon="-2.35458">
        <ele>5.1</ele>
        <time>2018-09-21T12:49:23.000Z</time>
      </trkpt>
      <trkpt lat="46.72729" lon="-2.35457">
        <ele>5.1</ele>
        <time>2018-09-21T12:49:24.000Z</time>
      </trkpt>
      <trkpt lat="46.7273" lon="-2.35456">
        <ele>5.1</ele>
        <time>2018-09-21T12:49:25.000Z</time>
      </trkpt>
      <trkpt lat="46.72731" lon="-2.35455">
        <ele>5.1</ele>
        <time>2018-09-21T12:49:26.000Z</time>
      </trkpt>
      <trkpt lat="46.72732" lon="-2.35454">
        <ele>5.1</ele>
        <time>2018-09-21T12:49:27.000Z</time>
      </trkpt>
      <trkpt lat="46.72732" lon="-2.35452">
        <ele>5.1</ele>
        <time>2018-09-21T12:49:28.000Z</time>
      </trkpt>
      <trkpt lat="46.72733" lon="-2.35451">
        <ele>5.1</ele>
        <time>2018-09-21T12:49:29.000Z</time>
      </trkpt>
      <trkpt lat="46.72734" lon="-2.3545">
        <ele>5.1</ele>
        <time>2018-09-21T12:49:30.000Z</time>
      </trkpt>
      <trkpt lat="46.72734" lon="-2.35448">
        <ele>5.1</ele>
        <time>2018-09-21T12:49:31.000Z</time>
      </trkpt>
      <trkpt lat="46.72734" lon="-2.35447">
        <ele>5.1</ele>
        <time>2018-09-21T12:49:32.000Z</time>
      </trkpt>
      <trkpt lat="46.72735" lon="-2.35445">
        <ele>5.1</ele>
        <time>2018-09-21T12:49:33.000Z</time>
      </trkpt>
      <trkpt lat="46.72735" lon="-2.35444">
        <ele>5.1</ele>
        <time>2018-09-21T12:49:34.000Z</time>
      </trkpt>
      <trkpt lat="46.72735" lon="-2.35443">
        <ele>5.1</ele>
        <time>2018-09-21T12:49:35.000Z</time>
      </trkpt>
      <trkpt lat="46.72735" lon="-2.35441">
        <ele>5.1</ele>
        <time>2018-09-21T12:49:36.000Z</time>
      </trkpt>
      <trkpt lat="46.72735" lon="-2.3544">
        <ele>5.1</ele>
        <time>2018-09-21T12:49:37.000Z</time>
      </trkpt>
      <trkpt lat="46.72735" lon="-2.35438">
        <ele>5.1</ele>
        <time>2018-09-21T12:49:38.000Z</time>
      </trkpt>
      <trkpt lat="46.72736" lon="-2.35437">
        <ele>5.1</ele>
        <time>2018-09-21T12:49:39.000Z</time>
      </trkpt>
      <trkpt lat="46.72736" lon="-2.35435">
        <ele>5.1</ele>
        <time>2018-09-21T12:49:40.000Z</time>
      </trkpt>
      <trkpt lat="46.72736" lon="-2.35434">
        <ele>5.1</ele>
        <time>2018-09-21T12:49:41.000Z</time>
      </trkpt>
      <trkpt lat="46.72737" lon="-2.35432">
        <ele>5.1</ele>
        <time>2018-09-21T12:49:42.000Z</time>
      </trkpt>
      <trkpt lat="46.72737" lon="-2.35431">
        <ele>5.1</ele>
        <time>2018-09-21T12:49:43.000Z</time>
      </trkpt>
      <trkpt lat="46.72738" lon="-2.3543">
        <ele>5.1</ele>
        <time>2018-09-21T12:49:44.000Z</time>
      </trkpt>
      <trkpt lat="46.72738" lon="-2.35429">
        <ele>5.1</ele>
        <time>2018-09-21T12:49:45.000Z</time>
      </trkpt>
      <trkpt lat="46.72739" lon="-2.35428">
        <ele>5.1</ele>
        <time>2018-09-21T12:49:46.000Z</time>
      </trkpt>
      <trkpt lat="46.7274" lon="-2.35426">
        <ele>5.1</ele>
        <time>2018-09-21T12:49:47.000Z</time>
      </trkpt>
      <trkpt lat="46.72741" lon="-2.35425">
        <ele>5.1</ele>
        <time>2018-09-21T12:49:48.000Z</time>
      </trkpt>
      <trkpt lat="46.72742" lon="-2.35424">
        <ele>5.1</ele>
        <time>2018-09-21T12:49:49.000Z</time>
      </trkpt>
      <trkpt lat="46.72743" lon="-2.35424">
        <ele>5.1</ele>
        <time>2018-09-21T12:49:50.000Z</time>
      </trkpt>
      <trkpt lat="46.72744" lon="-2.35423">
        <ele>5.1</ele>
        <time>2018-09-21T12:49:51.000Z</time>
      </trkpt>
      <trkpt lat="46.72745" lon="-2.35422">
        <ele>5.1</ele>
        <time>2018-09-21T12:49:52.000Z</time>
      </trkpt>
      <trkpt lat="46.72746" lon="-2.35421">
        <ele>5</ele>
        <time>2018-09-21T12:49:53.000Z</time>
      </trkpt>
      <trkpt lat="46.72747" lon="-2.3542">
        <ele>5</ele>
        <time>2018-09-21T12:49:54.000Z</time>
      </trkpt>
      <trkpt lat="46.72748" lon="-2.35419">
        <ele>5</ele>
        <time>2018-09-21T12:49:55.000Z</time>
      </trkpt>
      <trkpt lat="46.72749" lon="-2.35419">
        <ele>5</ele>
        <time>2018-09-21T12:49:56.000Z</time>
      </trkpt>
      <trkpt lat="46.72749" lon="-2.35418">
        <ele>5</ele>
        <time>2018-09-21T12:49:57.000Z</time>
      </trkpt>
      <trkpt lat="46.7275" lon="-2.35417">
        <ele>5</ele>
        <time>2018-09-21T12:49:58.000Z</time>
      </trkpt>
      <trkpt lat="46.72751" lon="-2.35416">
        <ele>4.9</ele>
        <time>2018-09-21T12:49:59.000Z</time>
      </trkpt>
      <trkpt lat="46.72752" lon="-2.35416">
        <ele>4.9</ele>
        <time>2018-09-21T12:50:00.000Z</time>
      </trkpt>
      <trkpt lat="46.72753" lon="-2.35415">
        <ele>4.9</ele>
        <time>2018-09-21T12:50:01.000Z</time>
      </trkpt>
      <trkpt lat="46.72754" lon="-2.35415">
        <ele>4.8</ele>
        <time>2018-09-21T12:50:02.000Z</time>
      </trkpt>
      <trkpt lat="46.72755" lon="-2.35415">
        <ele>4.7</ele>
        <time>2018-09-21T12:50:03.000Z</time>
      </trkpt>
      <trkpt lat="46.72756" lon="-2.35414">
        <ele>4.7</ele>
        <time>2018-09-21T12:50:04.000Z</time>
      </trkpt>
      <trkpt lat="46.72757" lon="-2.35414">
        <ele>4.6</ele>
        <time>2018-09-21T12:50:05.000Z</time>
      </trkpt>
      <trkpt lat="46.72757" lon="-2.35415">
        <ele>4.6</ele>
        <time>2018-09-21T12:50:06.000Z</time>
      </trkpt>
      <trkpt lat="46.72758" lon="-2.35415">
        <ele>4.5</ele>
        <time>2018-09-21T12:50:07.000Z</time>
      </trkpt>
      <trkpt lat="46.72758" lon="-2.35416">
        <ele>4.5</ele>
        <time>2018-09-21T12:50:08.000Z</time>
      </trkpt>
      <trkpt lat="46.72758" lon="-2.35417">
        <ele>4.5</ele>
        <time>2018-09-21T12:50:09.000Z</time>
      </trkpt>
      <trkpt lat="46.72758" lon="-2.35418">
        <ele>4.5</ele>
        <time>2018-09-21T12:50:10.000Z</time>
      </trkpt>
      <trkpt lat="46.72758" lon="-2.35419">
        <ele>4.5</ele>
        <time>2018-09-21T12:50:11.000Z</time>
      </trkpt>
      <trkpt lat="46.72758" lon="-2.35419">
        <ele>4.5</ele>
        <time>2018-09-21T12:50:12.000Z</time>
      </trkpt>
      <trkpt lat="46.72758" lon="-2.3542">
        <ele>4.5</ele>
        <time>2018-09-21T12:50:13.000Z</time>
      </trkpt>
      <trkpt lat="46.72758" lon="-2.3542">
        <ele>4.5</ele>
        <time>2018-09-21T12:50:14.000Z</time>
      </trkpt>
      <trkpt lat="46.72758" lon="-2.35421">
        <ele>4.6</ele>
        <time>2018-09-21T12:50:15.000Z</time>
      </trkpt>
      <trkpt lat="46.72758" lon="-2.35421">
        <ele>4.6</ele>
        <time>2018-09-21T12:50:16.000Z</time>
      </trkpt>
      <trkpt lat="46.72758" lon="-2.35421">
        <ele>4.6</ele>
        <time>2018-09-21T12:50:17.000Z</time>
      </trkpt>
      <trkpt lat="46.72758" lon="-2.35421">
        <ele>4.6</ele>
        <time>2018-09-21T12:50:18.000Z</time>
      </trkpt>
      <trkpt lat="46.72758" lon="-2.35421">
        <ele>4.6</ele>
        <time>2018-09-21T12:50:19.000Z</time>
      </trkpt>
      <trkpt lat="46.72758" lon="-2.35421">
        <ele>4.6</ele>
        <time>2018-09-21T12:50:20.000Z</time>
      </trkpt>
      <trkpt lat="46.72758" lon="-2.35421">
        <ele>4.6</ele>
        <time>2018-09-21T12:50:21.000Z</time>
      </trkpt>
      <trkpt lat="46.72757" lon="-2.35421">
        <ele>4.6</ele>
        <time>2018-09-21T12:50:22.000Z</time>
      </trkpt>
      <trkpt lat="46.72757" lon="-2.35421">
        <ele>4.6</ele>
        <time>2018-09-21T12:50:23.000Z</time>
      </trkpt>
      <trkpt lat="46.72757" lon="-2.35421">
        <ele>4.6</ele>
        <time>2018-09-21T12:50:24.000Z</time>
      </trkpt>
      <trkpt lat="46.72757" lon="-2.35421">
        <ele>4.6</ele>
        <time>2018-09-21T12:50:25.000Z</time>
      </trkpt>
      <trkpt lat="46.72757" lon="-2.3542">
        <ele>4.6</ele>
        <time>2018-09-21T12:50:26.000Z</time>
      </trkpt>
      <trkpt lat="46.72758" lon="-2.35419">
        <ele>4.5</ele>
        <time>2018-09-21T12:50:27.000Z</time>
      </trkpt>
      <trkpt lat="46.72758" lon="-2.35418">
        <ele>4.5</ele>
        <time>2018-09-21T12:50:28.000Z</time>
      </trkpt>
      <trkpt lat="46.72758" lon="-2.35416">
        <ele>4.5</ele>
        <time>2018-09-21T12:50:29.000Z</time>
      </trkpt>
      <trkpt lat="46.72758" lon="-2.35415">
        <ele>4.5</ele>
        <time>2018-09-21T12:50:30.000Z</time>
      </trkpt>
      <trkpt lat="46.72758" lon="-2.35415">
        <ele>4.5</ele>
        <time>2018-09-21T12:50:31.000Z</time>
      </trkpt>
      <trkpt lat="46.72757" lon="-2.35415">
        <ele>4.6</ele>
        <time>2018-09-21T12:50:32.000Z</time>
      </trkpt>
      <trkpt lat="46.72757" lon="-2.35415">
        <ele>4.6</ele>
        <time>2018-09-21T12:50:33.000Z</time>
      </trkpt>
      <trkpt lat="46.72756" lon="-2.35416">
        <ele>4.7</ele>
        <time>2018-09-21T12:50:34.000Z</time>
      </trkpt>
      <trkpt lat="46.72755" lon="-2.35418">
        <ele>4.7</ele>
        <time>2018-09-21T12:50:35.000Z</time>
      </trkpt>
      <trkpt lat="46.72755" lon="-2.35419">
        <ele>4.7</ele>
        <time>2018-09-21T12:50:36.000Z</time>
      </trkpt>
      <trkpt lat="46.72755" lon="-2.35421">
        <ele>4.7</ele>
        <time>2018-09-21T12:50:37.000Z</time>
      </trkpt>
      <trkpt lat="46.72755" lon="-2.35423">
        <ele>4.7</ele>
        <time>2018-09-21T12:50:38.000Z</time>
      </trkpt>
      <trkpt lat="46.72756" lon="-2.35424">
        <ele>4.7</ele>
        <time>2018-09-21T12:50:39.000Z</time>
      </trkpt>
      <trkpt lat="46.72757" lon="-2.35426">
        <ele>4.6</ele>
        <time>2018-09-21T12:50:40.000Z</time>
      </trkpt>
      <trkpt lat="46.72758" lon="-2.35427">
        <ele>4.6</ele>
        <time>2018-09-21T12:50:41.000Z</time>
      </trkpt>
      <trkpt lat="46.72759" lon="-2.35428">
        <ele>4.5</ele>
        <time>2018-09-21T12:50:42.000Z</time>
      </trkpt>
      <trkpt lat="46.72759" lon="-2.35429">
        <ele>4.5</ele>
        <time>2018-09-21T12:50:43.000Z</time>
      </trkpt>
      <trkpt lat="46.7276" lon="-2.3543">
        <ele>4.4</ele>
        <time>2018-09-21T12:50:44.000Z</time>
      </trkpt>
      <trkpt lat="46.72761" lon="-2.35431">
        <ele>4.4</ele>
        <time>2018-09-21T12:50:45.000Z</time>
      </trkpt>
      <trkpt lat="46.72762" lon="-2.35432">
        <ele>4.3</ele>
        <time>2018-09-21T12:50:46.000Z</time>
      </trkpt>
      <trkpt lat="46.72763" lon="-2.35433">
        <ele>4.3</ele>
        <time>2018-09-21T12:50:47.000Z</time>
      </trkpt>
      <trkpt lat="46.72764" lon="-2.35433">
        <ele>4.3</ele>
        <time>2018-09-21T12:50:48.000Z</time>
      </trkpt>
      <trkpt lat="46.72764" lon="-2.35434">
        <ele>4.2</ele>
        <time>2018-09-21T12:50:49.000Z</time>
      </trkpt>
      <trkpt lat="46.72765" lon="-2.35434">
        <ele>4.2</ele>
        <time>2018-09-21T12:50:50.000Z</time>
      </trkpt>
      <trkpt lat="46.72766" lon="-2.35435">
        <ele>4.1</ele>
        <time>2018-09-21T12:50:51.000Z</time>
      </trkpt>
      <trkpt lat="46.72767" lon="-2.35435">
        <ele>4.1</ele>
        <time>2018-09-21T12:50:52.000Z</time>
      </trkpt>
      <trkpt lat="46.72768" lon="-2.35435">
        <ele>4</ele>
        <time>2018-09-21T12:50:53.000Z</time>
      </trkpt>
      <trkpt lat="46.72768" lon="-2.35436">
        <ele>4</ele>
        <time>2018-09-21T12:50:54.000Z</time>
      </trkpt>
      <trkpt lat="46.72769" lon="-2.35436">
        <ele>3.9</ele>
        <time>2018-09-21T12:50:55.000Z</time>
      </trkpt>
      <trkpt lat="46.7277" lon="-2.35436">
        <ele>3.9</ele>
        <time>2018-09-21T12:50:56.000Z</time>
      </trkpt>
      <trkpt lat="46.72771" lon="-2.35436">
        <ele>3.9</ele>
        <time>2018-09-21T12:50:57.000Z</time>
      </trkpt>
      <trkpt lat="46.72772" lon="-2.35437">
        <ele>3.8</ele>
        <time>2018-09-21T12:50:58.000Z</time>
      </trkpt>
      <trkpt lat="46.72773" lon="-2.35437">
        <ele>3.8</ele>
        <time>2018-09-21T12:50:59.000Z</time>
      </trkpt>
      <trkpt lat="46.72773" lon="-2.35437">
        <ele>3.7</ele>
        <time>2018-09-21T12:51:00.000Z</time>
      </trkpt>
      <trkpt lat="46.72774" lon="-2.35437">
        <ele>3.7</ele>
        <time>2018-09-21T12:51:01.000Z</time>
      </trkpt>
      <trkpt lat="46.72775" lon="-2.35438">
        <ele>3.7</ele>
        <time>2018-09-21T12:51:02.000Z</time>
      </trkpt>
      <trkpt lat="46.72776" lon="-2.35438">
        <ele>3.6</ele>
        <time>2018-09-21T12:51:03.000Z</time>
      </trkpt>
      <trkpt lat="46.72776" lon="-2.35439">
        <ele>3.6</ele>
        <time>2018-09-21T12:51:04.000Z</time>
      </trkpt>
      <trkpt lat="46.72777" lon="-2.35439">
        <ele>3.5</ele>
        <time>2018-09-21T12:51:05.000Z</time>
      </trkpt>
      <trkpt lat="46.72778" lon="-2.35439">
        <ele>3.5</ele>
        <time>2018-09-21T12:51:06.000Z</time>
      </trkpt>
      <trkpt lat="46.72779" lon="-2.3544">
        <ele>3.5</ele>
        <time>2018-09-21T12:51:07.000Z</time>
      </trkpt>
      <trkpt lat="46.72779" lon="-2.3544">
        <ele>3.4</ele>
        <time>2018-09-21T12:51:08.000Z</time>
      </trkpt>
      <trkpt lat="46.7278" lon="-2.35441">
        <ele>3.4</ele>
        <time>2018-09-21T12:51:09.000Z</time>
      </trkpt>
      <trkpt lat="46.72781" lon="-2.35442">
        <ele>3.4</ele>
        <time>2018-09-21T12:51:10.000Z</time>
      </trkpt>
      <trkpt lat="46.72782" lon="-2.35442">
        <ele>3.3</ele>
        <time>2018-09-21T12:51:11.000Z</time>
      </trkpt>
      <trkpt lat="46.72782" lon="-2.35443">
        <ele>3.3</ele>
        <time>2018-09-21T12:51:12.000Z</time>
      </trkpt>
      <trkpt lat="46.72783" lon="-2.35444">
        <ele>3.3</ele>
        <time>2018-09-21T12:51:13.000Z</time>
      </trkpt>
      <trkpt lat="46.72784" lon="-2.35444">
        <ele>3.2</ele>
        <time>2018-09-21T12:51:14.000Z</time>
      </trkpt>
      <trkpt lat="46.72784" lon="-2.35445">
        <ele>3.2</ele>
        <time>2018-09-21T12:51:15.000Z</time>
      </trkpt>
      <trkpt lat="46.72785" lon="-2.35446">
        <ele>3.2</ele>
        <time>2018-09-21T12:51:16.000Z</time>
      </trkpt>
      <trkpt lat="46.72786" lon="-2.35447">
        <ele>3.2</ele>
        <time>2018-09-21T12:51:17.000Z</time>
      </trkpt>
      <trkpt lat="46.72787" lon="-2.35448">
        <ele>3.1</ele>
        <time>2018-09-21T12:51:18.000Z</time>
      </trkpt>
      <trkpt lat="46.72787" lon="-2.35449">
        <ele>3.1</ele>
        <time>2018-09-21T12:51:19.000Z</time>
      </trkpt>
      <trkpt lat="46.72788" lon="-2.3545">
        <ele>3.1</ele>
        <time>2018-09-21T12:51:20.000Z</time>
      </trkpt>
      <trkpt lat="46.72789" lon="-2.35452">
        <ele>3.1</ele>
        <time>2018-09-21T12:51:21.000Z</time>
      </trkpt>
      <trkpt lat="46.72789" lon="-2.35453">
        <ele>3</ele>
        <time>2018-09-21T12:51:22.000Z</time>
      </trkpt>
      <trkpt lat="46.7279" lon="-2.35454">
        <ele>3</ele>
        <time>2018-09-21T12:51:23.000Z</time>
      </trkpt>
      <trkpt lat="46.72791" lon="-2.35455">
        <ele>3</ele>
        <time>2018-09-21T12:51:24.000Z</time>
      </trkpt>
      <trkpt lat="46.72792" lon="-2.35456">
        <ele>3</ele>
        <time>2018-09-21T12:51:25.000Z</time>
      </trkpt>
      <trkpt lat="46.72792" lon="-2.35457">
        <ele>3</ele>
        <time>2018-09-21T12:51:26.000Z</time>
      </trkpt>
      <trkpt lat="46.72793" lon="-2.35458">
        <ele>2.9</ele>
        <time>2018-09-21T12:51:27.000Z</time>
      </trkpt>
      <trkpt lat="46.72794" lon="-2.3546">
        <ele>2.9</ele>
        <time>2018-09-21T12:51:28.000Z</time>
      </trkpt>
      <trkpt lat="46.72795" lon="-2.35461">
        <ele>2.9</ele>
        <time>2018-09-21T12:51:29.000Z</time>
      </trkpt>
      <trkpt lat="46.72795" lon="-2.35461">
        <ele>2.9</ele>
        <time>2018-09-21T12:51:30.000Z</time>
      </trkpt>
      <trkpt lat="46.72796" lon="-2.35462">
        <ele>2.8</ele>
        <time>2018-09-21T12:51:31.000Z</time>
      </trkpt>
      <trkpt lat="46.72797" lon="-2.35463">
        <ele>2.8</ele>
        <time>2018-09-21T12:51:32.000Z</time>
      </trkpt>
      <trkpt lat="46.72798" lon="-2.35464">
        <ele>2.8</ele>
        <time>2018-09-21T12:51:33.000Z</time>
      </trkpt>
      <trkpt lat="46.72799" lon="-2.35465">
        <ele>2.8</ele>
        <time>2018-09-21T12:51:34.000Z</time>
      </trkpt>
      <trkpt lat="46.728" lon="-2.35466">
        <ele>2.7</ele>
        <time>2018-09-21T12:51:35.000Z</time>
      </trkpt>
      <trkpt lat="46.728" lon="-2.35467">
        <ele>2.7</ele>
        <time>2018-09-21T12:51:36.000Z</time>
      </trkpt>
      <trkpt lat="46.72801" lon="-2.35468">
        <ele>2.7</ele>
        <time>2018-09-21T12:51:37.000Z</time>
      </trkpt>
      <trkpt lat="46.72802" lon="-2.35469">
        <ele>2.7</ele>
        <time>2018-09-21T12:51:38.000Z</time>
      </trkpt>
      <trkpt lat="46.72803" lon="-2.3547">
        <ele>2.6</ele>
        <time>2018-09-21T12:51:39.000Z</time>
      </trkpt>
      <trkpt lat="46.72804" lon="-2.35471">
        <ele>2.6</ele>
        <time>2018-09-21T12:51:40.000Z</time>
      </trkpt>
      <trkpt lat="46.72804" lon="-2.35472">
        <ele>2.6</ele>
        <time>2018-09-21T12:51:41.000Z</time>
      </trkpt>
      <trkpt lat="46.72805" lon="-2.35473">
        <ele>2.6</ele>
        <time>2018-09-21T12:51:42.000Z</time>
      </trkpt>
      <trkpt lat="46.72806" lon="-2.35474">
        <ele>2.6</ele>
        <time>2018-09-21T12:51:43.000Z</time>
      </trkpt>
      <trkpt lat="46.72807" lon="-2.35476">
        <ele>2.6</ele>
        <time>2018-09-21T12:51:44.000Z</time>
      </trkpt>
      <trkpt lat="46.72807" lon="-2.35477">
        <ele>2.6</ele>
        <time>2018-09-21T12:51:45.000Z</time>
      </trkpt>
      <trkpt lat="46.72808" lon="-2.35478">
        <ele>2.5</ele>
        <time>2018-09-21T12:51:46.000Z</time>
      </trkpt>
      <trkpt lat="46.72809" lon="-2.35479">
        <ele>2.5</ele>
        <time>2018-09-21T12:51:47.000Z</time>
      </trkpt>
      <trkpt lat="46.7281" lon="-2.35481">
        <ele>2.5</ele>
        <time>2018-09-21T12:51:48.000Z</time>
      </trkpt>
      <trkpt lat="46.7281" lon="-2.35482">
        <ele>2.5</ele>
        <time>2018-09-21T12:51:49.000Z</time>
      </trkpt>
      <trkpt lat="46.72811" lon="-2.35483">
        <ele>2.5</ele>
        <time>2018-09-21T12:51:50.000Z</time>
      </trkpt>
      <trkpt lat="46.72812" lon="-2.35484">
        <ele>2.5</ele>
        <time>2018-09-21T12:51:51.000Z</time>
      </trkpt>
      <trkpt lat="46.72813" lon="-2.35485">
        <ele>2.5</ele>
        <time>2018-09-21T12:51:52.000Z</time>
      </trkpt>
      <trkpt lat="46.72813" lon="-2.35487">
        <ele>2.5</ele>
        <time>2018-09-21T12:51:53.000Z</time>
      </trkpt>
      <trkpt lat="46.72814" lon="-2.35488">
        <ele>2.5</ele>
        <time>2018-09-21T12:51:54.000Z</time>
      </trkpt>
      <trkpt lat="46.72815" lon="-2.35489">
        <ele>2.5</ele>
        <time>2018-09-21T12:51:55.000Z</time>
      </trkpt>
      <trkpt lat="46.72816" lon="-2.3549">
        <ele>2.4</ele>
        <time>2018-09-21T12:51:56.000Z</time>
      </trkpt>
      <trkpt lat="46.72816" lon="-2.35491">
        <ele>2.4</ele>
        <time>2018-09-21T12:51:57.000Z</time>
      </trkpt>
      <trkpt lat="46.72817" lon="-2.35492">
        <ele>2.4</ele>
        <time>2018-09-21T12:51:58.000Z</time>
      </trkpt>
      <trkpt lat="46.72818" lon="-2.35493">
        <ele>2.4</ele>
        <time>2018-09-21T12:51:59.000Z</time>
      </trkpt>
      <trkpt lat="46.72819" lon="-2.35494">
        <ele>2.4</ele>
        <time>2018-09-21T12:52:00.000Z</time>
      </trkpt>
      <trkpt lat="46.72819" lon="-2.35495">
        <ele>2.4</ele>
        <time>2018-09-21T12:52:01.000Z</time>
      </trkpt>
      <trkpt lat="46.7282" lon="-2.35496">
        <ele>2.4</ele>
        <time>2018-09-21T12:52:02.000Z</time>
      </trkpt>
      <trkpt lat="46.72821" lon="-2.35497">
        <ele>2.4</ele>
        <time>2018-09-21T12:52:03.000Z</time>
      </trkpt>
      <trkpt lat="46.72822" lon="-2.35498">
        <ele>2.4</ele>
        <time>2018-09-21T12:52:04.000Z</time>
      </trkpt>
      <trkpt lat="46.72822" lon="-2.35499">
        <ele>2.4</ele>
        <time>2018-09-21T12:52:05.000Z</time>
      </trkpt>
      <trkpt lat="46.72823" lon="-2.35499">
        <ele>2.4</ele>
        <time>2018-09-21T12:52:06.000Z</time>
      </trkpt>
      <trkpt lat="46.72824" lon="-2.355">
        <ele>2.3</ele>
        <time>2018-09-21T12:52:07.000Z</time>
      </trkpt>
      <trkpt lat="46.72825" lon="-2.35501">
        <ele>2.3</ele>
        <time>2018-09-21T12:52:08.000Z</time>
      </trkpt>
      <trkpt lat="46.72825" lon="-2.35502">
        <ele>2.3</ele>
        <time>2018-09-21T12:52:09.000Z</time>
      </trkpt>
      <trkpt lat="46.72826" lon="-2.35503">
        <ele>2.3</ele>
        <time>2018-09-21T12:52:10.000Z</time>
      </trkpt>
      <trkpt lat="46.72826" lon="-2.35504">
        <ele>2.3</ele>
        <time>2018-09-21T12:52:11.000Z</time>
      </trkpt>
      <trkpt lat="46.72826" lon="-2.35505">
        <ele>2.3</ele>
        <time>2018-09-21T12:52:12.000Z</time>
      </trkpt>
      <trkpt lat="46.72826" lon="-2.35505">
        <ele>2.3</ele>
        <time>2018-09-21T12:52:13.000Z</time>
      </trkpt>
      <trkpt lat="46.72827" lon="-2.35506">
        <ele>2.3</ele>
        <time>2018-09-21T12:52:14.000Z</time>
      </trkpt>
      <trkpt lat="46.72827" lon="-2.35507">
        <ele>2.3</ele>
        <time>2018-09-21T12:52:15.000Z</time>
      </trkpt>
      <trkpt lat="46.72827" lon="-2.35507">
        <ele>2.3</ele>
        <time>2018-09-21T12:52:16.000Z</time>
      </trkpt>
      <trkpt lat="46.72827" lon="-2.35508">
        <ele>2.3</ele>
        <time>2018-09-21T12:52:17.000Z</time>
      </trkpt>
      <trkpt lat="46.72828" lon="-2.35509">
        <ele>2.3</ele>
        <time>2018-09-21T12:52:18.000Z</time>
      </trkpt>
      <trkpt lat="46.72828" lon="-2.3551">
        <ele>2.3</ele>
        <time>2018-09-21T12:52:19.000Z</time>
      </trkpt>
      <trkpt lat="46.72829" lon="-2.35511">
        <ele>2.3</ele>
        <time>2018-09-21T12:52:20.000Z</time>
      </trkpt>
      <trkpt lat="46.72829" lon="-2.35511">
        <ele>2.3</ele>
        <time>2018-09-21T12:52:21.000Z</time>
      </trkpt>
      <trkpt lat="46.7283" lon="-2.35512">
        <ele>2.3</ele>
        <time>2018-09-21T12:52:22.000Z</time>
      </trkpt>
      <trkpt lat="46.7283" lon="-2.35513">
        <ele>2.3</ele>
        <time>2018-09-21T12:52:23.000Z</time>
      </trkpt>
      <trkpt lat="46.72831" lon="-2.35514">
        <ele>2.3</ele>
        <time>2018-09-21T12:52:24.000Z</time>
      </trkpt>
      <trkpt lat="46.72831" lon="-2.35516">
        <ele>2.3</ele>
        <time>2018-09-21T12:52:25.000Z</time>
      </trkpt>
      <trkpt lat="46.72832" lon="-2.35517">
        <ele>2.3</ele>
        <time>2018-09-21T12:52:26.000Z</time>
      </trkpt>
      <trkpt lat="46.72833" lon="-2.35518">
        <ele>2.2</ele>
        <time>2018-09-21T12:52:27.000Z</time>
      </trkpt>
      <trkpt lat="46.72833" lon="-2.35519">
        <ele>2.2</ele>
        <time>2018-09-21T12:52:28.000Z</time>
      </trkpt>
      <trkpt lat="46.72834" lon="-2.35521">
        <ele>2.2</ele>
        <time>2018-09-21T12:52:29.000Z</time>
      </trkpt>
      <trkpt lat="46.72834" lon="-2.35522">
        <ele>2.2</ele>
        <time>2018-09-21T12:52:30.000Z</time>
      </trkpt>
      <trkpt lat="46.72835" lon="-2.35523">
        <ele>2.2</ele>
        <time>2018-09-21T12:52:31.000Z</time>
      </trkpt>
      <trkpt lat="46.72836" lon="-2.35525">
        <ele>2.2</ele>
        <time>2018-09-21T12:52:32.000Z</time>
      </trkpt>
      <trkpt lat="46.72836" lon="-2.35526">
        <ele>2.2</ele>
        <time>2018-09-21T12:52:33.000Z</time>
      </trkpt>
      <trkpt lat="46.72837" lon="-2.35528">
        <ele>2.2</ele>
        <time>2018-09-21T12:52:34.000Z</time>
      </trkpt>
      <trkpt lat="46.72838" lon="-2.35529">
        <ele>2.2</ele>
        <time>2018-09-21T12:52:35.000Z</time>
      </trkpt>
      <trkpt lat="46.72839" lon="-2.3553">
        <ele>2.2</ele>
        <time>2018-09-21T12:52:36.000Z</time>
      </trkpt>
      <trkpt lat="46.7284" lon="-2.35531">
        <ele>2.2</ele>
        <time>2018-09-21T12:52:37.000Z</time>
      </trkpt>
      <trkpt lat="46.72841" lon="-2.35533">
        <ele>2.2</ele>
        <time>2018-09-21T12:52:38.000Z</time>
      </trkpt>
      <trkpt lat="46.72842" lon="-2.35534">
        <ele>2.2</ele>
        <time>2018-09-21T12:52:39.000Z</time>
      </trkpt>
      <trkpt lat="46.72842" lon="-2.35535">
        <ele>2.2</ele>
        <time>2018-09-21T12:52:40.000Z</time>
      </trkpt>
      <trkpt lat="46.72843" lon="-2.35536">
        <ele>2.1</ele>
        <time>2018-09-21T12:52:41.000Z</time>
      </trkpt>
      <trkpt lat="46.72844" lon="-2.35537">
        <ele>2.1</ele>
        <time>2018-09-21T12:52:42.000Z</time>
      </trkpt>
      <trkpt lat="46.72845" lon="-2.35538">
        <ele>2.1</ele>
        <time>2018-09-21T12:52:43.000Z</time>
      </trkpt>
      <trkpt lat="46.72846" lon="-2.35539">
        <ele>2.1</ele>
        <time>2018-09-21T12:52:44.000Z</time>
      </trkpt>
      <trkpt lat="46.72847" lon="-2.35541">
        <ele>2.1</ele>
        <time>2018-09-21T12:52:45.000Z</time>
      </trkpt>
      <trkpt lat="46.72848" lon="-2.35542">
        <ele>2.1</ele>
        <time>2018-09-21T12:52:46.000Z</time>
      </trkpt>
      <trkpt lat="46.72849" lon="-2.35543">
        <ele>2</ele>
        <time>2018-09-21T12:52:47.000Z</time>
      </trkpt>
      <trkpt lat="46.7285" lon="-2.35544">
        <ele>2</ele>
        <time>2018-09-21T12:52:48.000Z</time>
      </trkpt>
      <trkpt lat="46.72851" lon="-2.35545">
        <ele>2</ele>
        <time>2018-09-21T12:52:49.000Z</time>
      </trkpt>
      <trkpt lat="46.72852" lon="-2.35546">
        <ele>2</ele>
        <time>2018-09-21T12:52:50.000Z</time>
      </trkpt>
      <trkpt lat="46.72853" lon="-2.35547">
        <ele>2</ele>
        <time>2018-09-21T12:52:51.000Z</time>
      </trkpt>
      <trkpt lat="46.72853" lon="-2.35548">
        <ele>2</ele>
        <time>2018-09-21T12:52:52.000Z</time>
      </trkpt>
      <trkpt lat="46.72854" lon="-2.35549">
        <ele>1.9</ele>
        <time>2018-09-21T12:52:53.000Z</time>
      </trkpt>
      <trkpt lat="46.72855" lon="-2.3555">
        <ele>1.9</ele>
        <time>2018-09-21T12:52:54.000Z</time>
      </trkpt>
      <trkpt lat="46.72856" lon="-2.35552">
        <ele>1.9</ele>
        <time>2018-09-21T12:52:55.000Z</time>
      </trkpt>
      <trkpt lat="46.72856" lon="-2.35553">
        <ele>1.9</ele>
        <time>2018-09-21T12:52:56.000Z</time>
      </trkpt>
      <trkpt lat="46.72857" lon="-2.35554">
        <ele>1.9</ele>
        <time>2018-09-21T12:52:57.000Z</time>
      </trkpt>
      <trkpt lat="46.72858" lon="-2.35555">
        <ele>1.9</ele>
        <time>2018-09-21T12:52:58.000Z</time>
      </trkpt>
      <trkpt lat="46.72859" lon="-2.35556">
        <ele>1.9</ele>
        <time>2018-09-21T12:52:59.000Z</time>
      </trkpt>
      <trkpt lat="46.72859" lon="-2.35558">
        <ele>1.9</ele>
        <time>2018-09-21T12:53:00.000Z</time>
      </trkpt>
      <trkpt lat="46.7286" lon="-2.35559">
        <ele>1.8</ele>
        <time>2018-09-21T12:53:01.000Z</time>
      </trkpt>
      <trkpt lat="46.72861" lon="-2.3556">
        <ele>1.8</ele>
        <time>2018-09-21T12:53:02.000Z</time>
      </trkpt>
      <trkpt lat="46.72861" lon="-2.35561">
        <ele>1.8</ele>
        <time>2018-09-21T12:53:03.000Z</time>
      </trkpt>
      <trkpt lat="46.72862" lon="-2.35562">
        <ele>1.8</ele>
        <time>2018-09-21T12:53:04.000Z</time>
      </trkpt>
      <trkpt lat="46.72863" lon="-2.35563">
        <ele>1.8</ele>
        <time>2018-09-21T12:53:05.000Z</time>
      </trkpt>
      <trkpt lat="46.72864" lon="-2.35564">
        <ele>1.8</ele>
        <time>2018-09-21T12:53:06.000Z</time>
      </trkpt>
      <trkpt lat="46.72865" lon="-2.35565">
        <ele>1.7</ele>
        <time>2018-09-21T12:53:07.000Z</time>
      </trkpt>
      <trkpt lat="46.72866" lon="-2.35566">
        <ele>1.7</ele>
        <time>2018-09-21T12:53:08.000Z</time>
      </trkpt>
      <trkpt lat="46.72867" lon="-2.35568">
        <ele>1.7</ele>
        <time>2018-09-21T12:53:09.000Z</time>
      </trkpt>
      <trkpt lat="46.72867" lon="-2.35569">
        <ele>1.7</ele>
        <time>2018-09-21T12:53:10.000Z</time>
      </trkpt>
      <trkpt lat="46.72868" lon="-2.3557">
        <ele>1.6</ele>
        <time>2018-09-21T12:53:11.000Z</time>
      </trkpt>
      <trkpt lat="46.72869" lon="-2.35571">
        <ele>1.6</ele>
        <time>2018-09-21T12:53:12.000Z</time>
      </trkpt>
      <trkpt lat="46.7287" lon="-2.35572">
        <ele>1.6</ele>
        <time>2018-09-21T12:53:13.000Z</time>
      </trkpt>
      <trkpt lat="46.72871" lon="-2.35573">
        <ele>1.6</ele>
        <time>2018-09-21T12:53:14.000Z</time>
      </trkpt>
      <trkpt lat="46.72871" lon="-2.35574">
        <ele>1.6</ele>
        <time>2018-09-21T12:53:15.000Z</time>
      </trkpt>
      <trkpt lat="46.72872" lon="-2.35575">
        <ele>1.5</ele>
        <time>2018-09-21T12:53:16.000Z</time>
      </trkpt>
      <trkpt lat="46.72873" lon="-2.35576">
        <ele>1.5</ele>
        <time>2018-09-21T12:53:17.000Z</time>
      </trkpt>
      <trkpt lat="46.72874" lon="-2.35577">
        <ele>1.5</ele>
        <time>2018-09-21T12:53:18.000Z</time>
      </trkpt>
      <trkpt lat="46.72874" lon="-2.35578">
        <ele>1.5</ele>
        <time>2018-09-21T12:53:19.000Z</time>
      </trkpt>
      <trkpt lat="46.72875" lon="-2.35579">
        <ele>1.5</ele>
        <time>2018-09-21T12:53:20.000Z</time>
      </trkpt>
      <trkpt lat="46.72876" lon="-2.3558">
        <ele>1.5</ele>
        <time>2018-09-21T12:53:21.000Z</time>
      </trkpt>
      <trkpt lat="46.72876" lon="-2.35581">
        <ele>1.4</ele>
        <time>2018-09-21T12:53:22.000Z</time>
      </trkpt>
      <trkpt lat="46.72877" lon="-2.35582">
        <ele>1.4</ele>
        <time>2018-09-21T12:53:23.000Z</time>
      </trkpt>
      <trkpt lat="46.72878" lon="-2.35583">
        <ele>1.4</ele>
        <time>2018-09-21T12:53:24.000Z</time>
      </trkpt>
      <trkpt lat="46.72878" lon="-2.35584">
        <ele>1.4</ele>
        <time>2018-09-21T12:53:25.000Z</time>
      </trkpt>
      <trkpt lat="46.72879" lon="-2.35585">
        <ele>1.4</ele>
        <time>2018-09-21T12:53:26.000Z</time>
      </trkpt>
      <trkpt lat="46.7288" lon="-2.35586">
        <ele>1.4</ele>
        <time>2018-09-21T12:53:27.000Z</time>
      </trkpt>
      <trkpt lat="46.72881" lon="-2.35587">
        <ele>1.3</ele>
        <time>2018-09-21T12:53:28.000Z</time>
      </trkpt>
      <trkpt lat="46.72881" lon="-2.35588">
        <ele>1.3</ele>
        <time>2018-09-21T12:53:29.000Z</time>
      </trkpt>
      <trkpt lat="46.72882" lon="-2.35589">
        <ele>1.3</ele>
        <time>2018-09-21T12:53:30.000Z</time>
      </trkpt>
      <trkpt lat="46.72883" lon="-2.3559">
        <ele>1.3</ele>
        <time>2018-09-21T12:53:31.000Z</time>
      </trkpt>
      <trkpt lat="46.72884" lon="-2.35591">
        <ele>1.3</ele>
        <time>2018-09-21T12:53:32.000Z</time>
      </trkpt>
      <trkpt lat="46.72885" lon="-2.35592">
        <ele>1.3</ele>
        <time>2018-09-21T12:53:33.000Z</time>
      </trkpt>
      <trkpt lat="46.72885" lon="-2.35593">
        <ele>1.3</ele>
        <time>2018-09-21T12:53:34.000Z</time>
      </trkpt>
      <trkpt lat="46.72886" lon="-2.35594">
        <ele>1.3</ele>
        <time>2018-09-21T12:53:35.000Z</time>
      </trkpt>
      <trkpt lat="46.72887" lon="-2.35595">
        <ele>1.2</ele>
        <time>2018-09-21T12:53:36.000Z</time>
      </trkpt>
      <trkpt lat="46.72888" lon="-2.35596">
        <ele>1.2</ele>
        <time>2018-09-21T12:53:37.000Z</time>
      </trkpt>
      <trkpt lat="46.72889" lon="-2.35597">
        <ele>1.2</ele>
        <time>2018-09-21T12:53:38.000Z</time>
      </trkpt>
      <trkpt lat="46.7289" lon="-2.35598">
        <ele>1.2</ele>
        <time>2018-09-21T12:53:39.000Z</time>
      </trkpt>
      <trkpt lat="46.72891" lon="-2.35599">
        <ele>1.2</ele>
        <time>2018-09-21T12:53:40.000Z</time>
      </trkpt>
      <trkpt lat="46.72892" lon="-2.356">
        <ele>1.2</ele>
        <time>2018-09-21T12:53:41.000Z</time>
      </trkpt>
      <trkpt lat="46.72893" lon="-2.35602">
        <ele>1.2</ele>
        <time>2018-09-21T12:53:42.000Z</time>
      </trkpt>
      <trkpt lat="46.72894" lon="-2.35603">
        <ele>1.2</ele>
        <time>2018-09-21T12:53:43.000Z</time>
      </trkpt>
      <trkpt lat="46.72895" lon="-2.35604">
        <ele>1.2</ele>
        <time>2018-09-21T12:53:44.000Z</time>
      </trkpt>
      <trkpt lat="46.72895" lon="-2.35605">
        <ele>1.2</ele>
        <time>2018-09-21T12:53:45.000Z</time>
      </trkpt>
      <trkpt lat="46.72896" lon="-2.35606">
        <ele>1.1</ele>
        <time>2018-09-21T12:53:46.000Z</time>
      </trkpt>
      <trkpt lat="46.72897" lon="-2.35607">
        <ele>1.1</ele>
        <time>2018-09-21T12:53:47.000Z</time>
      </trkpt>
      <trkpt lat="46.72898" lon="-2.35608">
        <ele>1.1</ele>
        <time>2018-09-21T12:53:48.000Z</time>
      </trkpt>
      <trkpt lat="46.72898" lon="-2.35609">
        <ele>1.1</ele>
        <time>2018-09-21T12:53:49.000Z</time>
      </trkpt>
      <trkpt lat="46.72899" lon="-2.3561">
        <ele>1.1</ele>
        <time>2018-09-21T12:53:50.000Z</time>
      </trkpt>
      <trkpt lat="46.72899" lon="-2.35611">
        <ele>1.2</ele>
        <time>2018-09-21T12:53:51.000Z</time>
      </trkpt>
      <trkpt lat="46.729" lon="-2.35612">
        <ele>1.2</ele>
        <time>2018-09-21T12:53:52.000Z</time>
      </trkpt>
      <trkpt lat="46.729" lon="-2.35612">
        <ele>1.2</ele>
        <time>2018-09-21T12:53:53.000Z</time>
      </trkpt>
      <trkpt lat="46.729" lon="-2.35613">
        <ele>1.2</ele>
        <time>2018-09-21T12:53:54.000Z</time>
      </trkpt>
      <trkpt lat="46.729" lon="-2.35613">
        <ele>1.2</ele>
        <time>2018-09-21T12:53:55.000Z</time>
      </trkpt>
      <trkpt lat="46.72901" lon="-2.35614">
        <ele>1.2</ele>
        <time>2018-09-21T12:53:56.000Z</time>
      </trkpt>
      <trkpt lat="46.72901" lon="-2.35614">
        <ele>1.2</ele>
        <time>2018-09-21T12:53:57.000Z</time>
      </trkpt>
      <trkpt lat="46.72901" lon="-2.35614">
        <ele>1.2</ele>
        <time>2018-09-21T12:53:58.000Z</time>
      </trkpt>
      <trkpt lat="46.72901" lon="-2.35615">
        <ele>1.2</ele>
        <time>2018-09-21T12:53:59.000Z</time>
      </trkpt>
      <trkpt lat="46.72902" lon="-2.35615">
        <ele>1.2</ele>
        <time>2018-09-21T12:54:00.000Z</time>
      </trkpt>
      <trkpt lat="46.72902" lon="-2.35616">
        <ele>1.2</ele>
        <time>2018-09-21T12:54:01.000Z</time>
      </trkpt>
      <trkpt lat="46.72903" lon="-2.35617">
        <ele>1.2</ele>
        <time>2018-09-21T12:54:02.000Z</time>
      </trkpt>
      <trkpt lat="46.72903" lon="-2.35618">
        <ele>1.2</ele>
        <time>2018-09-21T12:54:03.000Z</time>
      </trkpt>
      <trkpt lat="46.72904" lon="-2.35619">
        <ele>1.2</ele>
        <time>2018-09-21T12:54:04.000Z</time>
      </trkpt>
      <trkpt lat="46.72905" lon="-2.35621">
        <ele>1.2</ele>
        <time>2018-09-21T12:54:05.000Z</time>
      </trkpt>
      <trkpt lat="46.72906" lon="-2.35622">
        <ele>1.2</ele>
        <time>2018-09-21T12:54:06.000Z</time>
      </trkpt>
      <trkpt lat="46.72907" lon="-2.35624">
        <ele>1.2</ele>
        <time>2018-09-21T12:54:07.000Z</time>
      </trkpt>
      <trkpt lat="46.72908" lon="-2.35625">
        <ele>1.2</ele>
        <time>2018-09-21T12:54:08.000Z</time>
      </trkpt>
      <trkpt lat="46.72909" lon="-2.35626">
        <ele>1.2</ele>
        <time>2018-09-21T12:54:09.000Z</time>
      </trkpt>
      <trkpt lat="46.72909" lon="-2.35628">
        <ele>1.2</ele>
        <time>2018-09-21T12:54:10.000Z</time>
      </trkpt>
      <trkpt lat="46.7291" lon="-2.35629">
        <ele>1.2</ele>
        <time>2018-09-21T12:54:11.000Z</time>
      </trkpt>
      <trkpt lat="46.72911" lon="-2.35631">
        <ele>1.3</ele>
        <time>2018-09-21T12:54:12.000Z</time>
      </trkpt>
      <trkpt lat="46.72912" lon="-2.35632">
        <ele>1.3</ele>
        <time>2018-09-21T12:54:13.000Z</time>
      </trkpt>
      <trkpt lat="46.72913" lon="-2.35633">
        <ele>1.3</ele>
        <time>2018-09-21T12:54:14.000Z</time>
      </trkpt>
      <trkpt lat="46.72914" lon="-2.35634">
        <ele>1.3</ele>
        <time>2018-09-21T12:54:15.000Z</time>
      </trkpt>
      <trkpt lat="46.72915" lon="-2.35636">
        <ele>1.3</ele>
        <time>2018-09-21T12:54:16.000Z</time>
      </trkpt>
      <trkpt lat="46.72915" lon="-2.35637">
        <ele>1.3</ele>
        <time>2018-09-21T12:54:17.000Z</time>
      </trkpt>
      <trkpt lat="46.72916" lon="-2.35638">
        <ele>1.3</ele>
        <time>2018-09-21T12:54:18.000Z</time>
      </trkpt>
      <trkpt lat="46.72917" lon="-2.35639">
        <ele>1.3</ele>
        <time>2018-09-21T12:54:19.000Z</time>
      </trkpt>
      <trkpt lat="46.72917" lon="-2.3564">
        <ele>1.3</ele>
        <time>2018-09-21T12:54:20.000Z</time>
      </trkpt>
      <trkpt lat="46.72918" lon="-2.35641">
        <ele>1.4</ele>
        <time>2018-09-21T12:54:21.000Z</time>
      </trkpt>
      <trkpt lat="46.72919" lon="-2.35642">
        <ele>1.4</ele>
        <time>2018-09-21T12:54:22.000Z</time>
      </trkpt>
      <trkpt lat="46.72919" lon="-2.35643">
        <ele>1.4</ele>
        <time>2018-09-21T12:54:23.000Z</time>
      </trkpt>
      <trkpt lat="46.7292" lon="-2.35644">
        <ele>1.4</ele>
        <time>2018-09-21T12:54:24.000Z</time>
      </trkpt>
      <trkpt lat="46.72921" lon="-2.35645">
        <ele>1.4</ele>
        <time>2018-09-21T12:54:25.000Z</time>
      </trkpt>
      <trkpt lat="46.72921" lon="-2.35645">
        <ele>1.4</ele>
        <time>2018-09-21T12:54:26.000Z</time>
      </trkpt>
      <trkpt lat="46.72922" lon="-2.35646">
        <ele>1.4</ele>
        <time>2018-09-21T12:54:27.000Z</time>
      </trkpt>
      <trkpt lat="46.72922" lon="-2.35647">
        <ele>1.4</ele>
        <time>2018-09-21T12:54:28.000Z</time>
      </trkpt>
      <trkpt lat="46.72923" lon="-2.35648">
        <ele>1.4</ele>
        <time>2018-09-21T12:54:29.000Z</time>
      </trkpt>
      <trkpt lat="46.72924" lon="-2.35648">
        <ele>1.5</ele>
        <time>2018-09-21T12:54:30.000Z</time>
      </trkpt>
      <trkpt lat="46.72924" lon="-2.35649">
        <ele>1.5</ele>
        <time>2018-09-21T12:54:31.000Z</time>
      </trkpt>
      <trkpt lat="46.72925" lon="-2.3565">
        <ele>1.5</ele>
        <time>2018-09-21T12:54:32.000Z</time>
      </trkpt>
      <trkpt lat="46.72925" lon="-2.35651">
        <ele>1.5</ele>
        <time>2018-09-21T12:54:33.000Z</time>
      </trkpt>
      <trkpt lat="46.72926" lon="-2.35651">
        <ele>1.5</ele>
        <time>2018-09-21T12:54:34.000Z</time>
      </trkpt>
      <trkpt lat="46.72926" lon="-2.35652">
        <ele>1.5</ele>
        <time>2018-09-21T12:54:35.000Z</time>
      </trkpt>
      <trkpt lat="46.72926" lon="-2.35653">
        <ele>1.5</ele>
        <time>2018-09-21T12:54:36.000Z</time>
      </trkpt>
      <trkpt lat="46.72927" lon="-2.35654">
        <ele>1.6</ele>
        <time>2018-09-21T12:54:37.000Z</time>
      </trkpt>
      <trkpt lat="46.72928" lon="-2.35655">
        <ele>1.6</ele>
        <time>2018-09-21T12:54:38.000Z</time>
      </trkpt>
      <trkpt lat="46.72928" lon="-2.35656">
        <ele>1.6</ele>
        <time>2018-09-21T12:54:39.000Z</time>
      </trkpt>
      <trkpt lat="46.72929" lon="-2.35657">
        <ele>1.6</ele>
        <time>2018-09-21T12:54:40.000Z</time>
      </trkpt>
      <trkpt lat="46.72929" lon="-2.35658">
        <ele>1.6</ele>
        <time>2018-09-21T12:54:41.000Z</time>
      </trkpt>
      <trkpt lat="46.7293" lon="-2.35659">
        <ele>1.7</ele>
        <time>2018-09-21T12:54:42.000Z</time>
      </trkpt>
      <trkpt lat="46.7293" lon="-2.35661">
        <ele>1.7</ele>
        <time>2018-09-21T12:54:43.000Z</time>
      </trkpt>
      <trkpt lat="46.72931" lon="-2.35662">
        <ele>1.7</ele>
        <time>2018-09-21T12:54:44.000Z</time>
      </trkpt>
      <trkpt lat="46.72931" lon="-2.35663">
        <ele>1.7</ele>
        <time>2018-09-21T12:54:45.000Z</time>
      </trkpt>
      <trkpt lat="46.72932" lon="-2.35664">
        <ele>1.8</ele>
        <time>2018-09-21T12:54:46.000Z</time>
      </trkpt>
      <trkpt lat="46.72932" lon="-2.35665">
        <ele>1.8</ele>
        <time>2018-09-21T12:54:47.000Z</time>
      </trkpt>
      <trkpt lat="46.72933" lon="-2.35666">
        <ele>1.8</ele>
        <time>2018-09-21T12:54:48.000Z</time>
      </trkpt>
      <trkpt lat="46.72933" lon="-2.35667">
        <ele>1.8</ele>
        <time>2018-09-21T12:54:49.000Z</time>
      </trkpt>
      <trkpt lat="46.72933" lon="-2.35668">
        <ele>1.8</ele>
        <time>2018-09-21T12:54:50.000Z</time>
      </trkpt>
      <trkpt lat="46.72934" lon="-2.35669">
        <ele>1.8</ele>
        <time>2018-09-21T12:54:51.000Z</time>
      </trkpt>
      <trkpt lat="46.72934" lon="-2.3567">
        <ele>1.8</ele>
        <time>2018-09-21T12:54:52.000Z</time>
      </trkpt>
      <trkpt lat="46.72934" lon="-2.3567">
        <ele>1.9</ele>
        <time>2018-09-21T12:54:53.000Z</time>
      </trkpt>
      <trkpt lat="46.72935" lon="-2.35671">
        <ele>1.9</ele>
        <time>2018-09-21T12:54:54.000Z</time>
      </trkpt>
      <trkpt lat="46.72935" lon="-2.35672">
        <ele>1.9</ele>
        <time>2018-09-21T12:54:55.000Z</time>
      </trkpt>
      <trkpt lat="46.72935" lon="-2.35673">
        <ele>1.9</ele>
        <time>2018-09-21T12:54:56.000Z</time>
      </trkpt>
      <trkpt lat="46.72936" lon="-2.35675">
        <ele>1.9</ele>
        <time>2018-09-21T12:54:57.000Z</time>
      </trkpt>
      <trkpt lat="46.72936" lon="-2.35676">
        <ele>1.9</ele>
        <time>2018-09-21T12:54:58.000Z</time>
      </trkpt>
      <trkpt lat="46.72936" lon="-2.35677">
        <ele>2</ele>
        <time>2018-09-21T12:54:59.000Z</time>
      </trkpt>
      <trkpt lat="46.72936" lon="-2.35678">
        <ele>2</ele>
        <time>2018-09-21T12:55:00.000Z</time>
      </trkpt>
      <trkpt lat="46.72936" lon="-2.35679">
        <ele>2</ele>
        <time>2018-09-21T12:55:01.000Z</time>
      </trkpt>
      <trkpt lat="46.72937" lon="-2.3568">
        <ele>2</ele>
        <time>2018-09-21T12:55:02.000Z</time>
      </trkpt>
      <trkpt lat="46.72937" lon="-2.35681">
        <ele>2</ele>
        <time>2018-09-21T12:55:03.000Z</time>
      </trkpt>
      <trkpt lat="46.72937" lon="-2.35682">
        <ele>2</ele>
        <time>2018-09-21T12:55:04.000Z</time>
      </trkpt>
      <trkpt lat="46.72937" lon="-2.35683">
        <ele>2</ele>
        <time>2018-09-21T12:55:05.000Z</time>
      </trkpt>
      <trkpt lat="46.72937" lon="-2.35683">
        <ele>2.1</ele>
        <time>2018-09-21T12:55:06.000Z</time>
      </trkpt>
      <trkpt lat="46.72937" lon="-2.35684">
        <ele>2.1</ele>
        <time>2018-09-21T12:55:07.000Z</time>
      </trkpt>
      <trkpt lat="46.72937" lon="-2.35684">
        <ele>2.1</ele>
        <time>2018-09-21T12:55:08.000Z</time>
      </trkpt>
      <trkpt lat="46.72937" lon="-2.35684">
        <ele>2.1</ele>
        <time>2018-09-21T12:55:09.000Z</time>
      </trkpt>
      <trkpt lat="46.72937" lon="-2.35685">
        <ele>2.1</ele>
        <time>2018-09-21T12:55:10.000Z</time>
      </trkpt>
      <trkpt lat="46.72937" lon="-2.35685">
        <ele>2.1</ele>
        <time>2018-09-21T12:55:11.000Z</time>
      </trkpt>
      <trkpt lat="46.72937" lon="-2.35686">
        <ele>2.1</ele>
        <time>2018-09-21T12:55:12.000Z</time>
      </trkpt>
      <trkpt lat="46.72937" lon="-2.35686">
        <ele>2.1</ele>
        <time>2018-09-21T12:55:13.000Z</time>
      </trkpt>
      <trkpt lat="46.72937" lon="-2.35687">
        <ele>2.1</ele>
        <time>2018-09-21T12:55:14.000Z</time>
      </trkpt>
      <trkpt lat="46.72937" lon="-2.35687">
        <ele>2.1</ele>
        <time>2018-09-21T12:55:15.000Z</time>
      </trkpt>
      <trkpt lat="46.72936" lon="-2.35688">
        <ele>2.2</ele>
        <time>2018-09-21T12:55:16.000Z</time>
      </trkpt>
      <trkpt lat="46.72936" lon="-2.35689">
        <ele>2.2</ele>
        <time>2018-09-21T12:55:17.000Z</time>
      </trkpt>
      <trkpt lat="46.72935" lon="-2.3569">
        <ele>2.2</ele>
        <time>2018-09-21T12:55:18.000Z</time>
      </trkpt>
      <trkpt lat="46.72935" lon="-2.35692">
        <ele>2.3</ele>
        <time>2018-09-21T12:55:19.000Z</time>
      </trkpt>
      <trkpt lat="46.72934" lon="-2.35693">
        <ele>2.3</ele>
        <time>2018-09-21T12:55:20.000Z</time>
      </trkpt>
      <trkpt lat="46.72934" lon="-2.35694">
        <ele>2.3</ele>
        <time>2018-09-21T12:55:21.000Z</time>
      </trkpt>
      <trkpt lat="46.72933" lon="-2.35696">
        <ele>2.4</ele>
        <time>2018-09-21T12:55:22.000Z</time>
      </trkpt>
      <trkpt lat="46.72933" lon="-2.35697">
        <ele>2.4</ele>
        <time>2018-09-21T12:55:23.000Z</time>
      </trkpt>
      <trkpt lat="46.72933" lon="-2.35699">
        <ele>2.4</ele>
        <time>2018-09-21T12:55:24.000Z</time>
      </trkpt>
      <trkpt lat="46.72933" lon="-2.357">
        <ele>2.5</ele>
        <time>2018-09-21T12:55:25.000Z</time>
      </trkpt>
      <trkpt lat="46.72933" lon="-2.35702">
        <ele>2.5</ele>
        <time>2018-09-21T12:55:26.000Z</time>
      </trkpt>
      <trkpt lat="46.72934" lon="-2.35703">
        <ele>2.5</ele>
        <time>2018-09-21T12:55:27.000Z</time>
      </trkpt>
      <trkpt lat="46.72934" lon="-2.35705">
        <ele>2.5</ele>
        <time>2018-09-21T12:55:28.000Z</time>
      </trkpt>
      <trkpt lat="46.72935" lon="-2.35706">
        <ele>2.5</ele>
        <time>2018-09-21T12:55:29.000Z</time>
      </trkpt>
      <trkpt lat="46.72936" lon="-2.35708">
        <ele>2.5</ele>
        <time>2018-09-21T12:55:30.000Z</time>
      </trkpt>
      <trkpt lat="46.72936" lon="-2.35709">
        <ele>2.5</ele>
        <time>2018-09-21T12:55:31.000Z</time>
      </trkpt>
      <trkpt lat="46.72937" lon="-2.35711">
        <ele>2.6</ele>
        <time>2018-09-21T12:55:32.000Z</time>
      </trkpt>
      <trkpt lat="46.72938" lon="-2.35712">
        <ele>2.6</ele>
        <time>2018-09-21T12:55:33.000Z</time>
      </trkpt>
      <trkpt lat="46.72939" lon="-2.35714">
        <ele>2.6</ele>
        <time>2018-09-21T12:55:34.000Z</time>
      </trkpt>
      <trkpt lat="46.72939" lon="-2.35715">
        <ele>2.6</ele>
        <time>2018-09-21T12:55:35.000Z</time>
      </trkpt>
      <trkpt lat="46.7294" lon="-2.35717">
        <ele>2.6</ele>
        <time>2018-09-21T12:55:36.000Z</time>
      </trkpt>
      <trkpt lat="46.7294" lon="-2.35719">
        <ele>2.6</ele>
        <time>2018-09-21T12:55:37.000Z</time>
      </trkpt>
      <trkpt lat="46.7294" lon="-2.3572">
        <ele>2.6</ele>
        <time>2018-09-21T12:55:38.000Z</time>
      </trkpt>
      <trkpt lat="46.72941" lon="-2.35722">
        <ele>2.7</ele>
        <time>2018-09-21T12:55:39.000Z</time>
      </trkpt>
      <trkpt lat="46.72941" lon="-2.35723">
        <ele>2.7</ele>
        <time>2018-09-21T12:55:40.000Z</time>
      </trkpt>
      <trkpt lat="46.72941" lon="-2.35725">
        <ele>2.7</ele>
        <time>2018-09-21T12:55:41.000Z</time>
      </trkpt>
      <trkpt lat="46.72941" lon="-2.35727">
        <ele>2.7</ele>
        <time>2018-09-21T12:55:42.000Z</time>
      </trkpt>
      <trkpt lat="46.72942" lon="-2.35728">
        <ele>2.7</ele>
        <time>2018-09-21T12:55:43.000Z</time>
      </trkpt>
      <trkpt lat="46.72942" lon="-2.3573">
        <ele>2.8</ele>
        <time>2018-09-21T12:55:44.000Z</time>
      </trkpt>
      <trkpt lat="46.72942" lon="-2.35731">
        <ele>2.8</ele>
        <time>2018-09-21T12:55:45.000Z</time>
      </trkpt>
      <trkpt lat="46.72942" lon="-2.35733">
        <ele>2.8</ele>
        <time>2018-09-21T12:55:46.000Z</time>
      </trkpt>
      <trkpt lat="46.72943" lon="-2.35734">
        <ele>2.8</ele>
        <time>2018-09-21T12:55:47.000Z</time>
      </trkpt>
      <trkpt lat="46.72943" lon="-2.35736">
        <ele>2.8</ele>
        <time>2018-09-21T12:55:48.000Z</time>
      </trkpt>
      <trkpt lat="46.72943" lon="-2.35737">
        <ele>2.8</ele>
        <time>2018-09-21T12:55:49.000Z</time>
      </trkpt>
      <trkpt lat="46.72944" lon="-2.35739">
        <ele>2.8</ele>
        <time>2018-09-21T12:55:50.000Z</time>
      </trkpt>
      <trkpt lat="46.72944" lon="-2.3574">
        <ele>2.9</ele>
        <time>2018-09-21T12:55:51.000Z</time>
      </trkpt>
      <trkpt lat="46.72945" lon="-2.35742">
        <ele>2.9</ele>
        <time>2018-09-21T12:55:52.000Z</time>
      </trkpt>
      <trkpt lat="46.72945" lon="-2.35743">
        <ele>2.9</ele>
        <time>2018-09-21T12:55:53.000Z</time>
      </trkpt>
      <trkpt lat="46.72945" lon="-2.35745">
        <ele>2.9</ele>
        <time>2018-09-21T12:55:54.000Z</time>
      </trkpt>
      <trkpt lat="46.72946" lon="-2.35746">
        <ele>2.9</ele>
        <time>2018-09-21T12:55:55.000Z</time>
      </trkpt>
      <trkpt lat="46.72946" lon="-2.35747">
        <ele>2.9</ele>
        <time>2018-09-21T12:55:56.000Z</time>
      </trkpt>
      <trkpt lat="46.72947" lon="-2.35749">
        <ele>2.9</ele>
        <time>2018-09-21T12:55:57.000Z</time>
      </trkpt>
      <trkpt lat="46.72947" lon="-2.3575">
        <ele>2.9</ele>
        <time>2018-09-21T12:55:58.000Z</time>
      </trkpt>
      <trkpt lat="46.72948" lon="-2.35752">
        <ele>2.9</ele>
        <time>2018-09-21T12:55:59.000Z</time>
      </trkpt>
      <trkpt lat="46.72948" lon="-2.35753">
        <ele>2.9</ele>
        <time>2018-09-21T12:56:00.000Z</time>
      </trkpt>
      <trkpt lat="46.72949" lon="-2.35754">
        <ele>2.9</ele>
        <time>2018-09-21T12:56:01.000Z</time>
      </trkpt>
      <trkpt lat="46.72949" lon="-2.35756">
        <ele>2.8</ele>
        <time>2018-09-21T12:56:02.000Z</time>
      </trkpt>
      <trkpt lat="46.7295" lon="-2.35757">
        <ele>2.8</ele>
        <time>2018-09-21T12:56:03.000Z</time>
      </trkpt>
      <trkpt lat="46.7295" lon="-2.35758">
        <ele>2.8</ele>
        <time>2018-09-21T12:56:04.000Z</time>
      </trkpt>
      <trkpt lat="46.72951" lon="-2.3576">
        <ele>2.8</ele>
        <time>2018-09-21T12:56:05.000Z</time>
      </trkpt>
      <trkpt lat="46.72951" lon="-2.35761">
        <ele>2.8</ele>
        <time>2018-09-21T12:56:06.000Z</time>
      </trkpt>
      <trkpt lat="46.72952" lon="-2.35762">
        <ele>2.7</ele>
        <time>2018-09-21T12:56:07.000Z</time>
      </trkpt>
      <trkpt lat="46.72952" lon="-2.35764">
        <ele>2.7</ele>
        <time>2018-09-21T12:56:08.000Z</time>
      </trkpt>
      <trkpt lat="46.72953" lon="-2.35765">
        <ele>2.7</ele>
        <time>2018-09-21T12:56:09.000Z</time>
      </trkpt>
      <trkpt lat="46.72954" lon="-2.35766">
        <ele>2.7</ele>
        <time>2018-09-21T12:56:10.000Z</time>
      </trkpt>
      <trkpt lat="46.72954" lon="-2.35768">
        <ele>2.7</ele>
        <time>2018-09-21T12:56:11.000Z</time>
      </trkpt>
      <trkpt lat="46.72955" lon="-2.35769">
        <ele>2.6</ele>
        <time>2018-09-21T12:56:12.000Z</time>
      </trkpt>
      <trkpt lat="46.72955" lon="-2.3577">
        <ele>2.6</ele>
        <time>2018-09-21T12:56:13.000Z</time>
      </trkpt>
      <trkpt lat="46.72956" lon="-2.35772">
        <ele>2.6</ele>
        <time>2018-09-21T12:56:14.000Z</time>
      </trkpt>
      <trkpt lat="46.72956" lon="-2.35773">
        <ele>2.6</ele>
        <time>2018-09-21T12:56:15.000Z</time>
      </trkpt>
      <trkpt lat="46.72957" lon="-2.35775">
        <ele>2.6</ele>
        <time>2018-09-21T12:56:16.000Z</time>
      </trkpt>
      <trkpt lat="46.72957" lon="-2.35776">
        <ele>2.5</ele>
        <time>2018-09-21T12:56:17.000Z</time>
      </trkpt>
      <trkpt lat="46.72958" lon="-2.35778">
        <ele>2.5</ele>
        <time>2018-09-21T12:56:18.000Z</time>
      </trkpt>
      <trkpt lat="46.72958" lon="-2.35779">
        <ele>2.5</ele>
        <time>2018-09-21T12:56:19.000Z</time>
      </trkpt>
      <trkpt lat="46.72959" lon="-2.35781">
        <ele>2.5</ele>
        <time>2018-09-21T12:56:20.000Z</time>
      </trkpt>
      <trkpt lat="46.72959" lon="-2.35782">
        <ele>2.5</ele>
        <time>2018-09-21T12:56:21.000Z</time>
      </trkpt>
      <trkpt lat="46.72959" lon="-2.35784">
        <ele>2.5</ele>
        <time>2018-09-21T12:56:22.000Z</time>
      </trkpt>
      <trkpt lat="46.7296" lon="-2.35785">
        <ele>2.4</ele>
        <time>2018-09-21T12:56:23.000Z</time>
      </trkpt>
      <trkpt lat="46.7296" lon="-2.35787">
        <ele>2.4</ele>
        <time>2018-09-21T12:56:24.000Z</time>
      </trkpt>
      <trkpt lat="46.72961" lon="-2.35788">
        <ele>2.4</ele>
        <time>2018-09-21T12:56:25.000Z</time>
      </trkpt>
      <trkpt lat="46.72961" lon="-2.3579">
        <ele>2.4</ele>
        <time>2018-09-21T12:56:26.000Z</time>
      </trkpt>
      <trkpt lat="46.72962" lon="-2.35791">
        <ele>2.4</ele>
        <time>2018-09-21T12:56:27.000Z</time>
      </trkpt>
      <trkpt lat="46.72962" lon="-2.35793">
        <ele>2.4</ele>
        <time>2018-09-21T12:56:28.000Z</time>
      </trkpt>
      <trkpt lat="46.72963" lon="-2.35795">
        <ele>2.3</ele>
        <time>2018-09-21T12:56:29.000Z</time>
      </trkpt>
      <trkpt lat="46.72963" lon="-2.35796">
        <ele>2.3</ele>
        <time>2018-09-21T12:56:30.000Z</time>
      </trkpt>
      <trkpt lat="46.72964" lon="-2.35798">
        <ele>2.3</ele>
        <time>2018-09-21T12:56:31.000Z</time>
      </trkpt>
      <trkpt lat="46.72964" lon="-2.35799">
        <ele>2.3</ele>
        <time>2018-09-21T12:56:32.000Z</time>
      </trkpt>
      <trkpt lat="46.72965" lon="-2.35801">
        <ele>2.3</ele>
        <time>2018-09-21T12:56:33.000Z</time>
      </trkpt>
      <trkpt lat="46.72965" lon="-2.35803">
        <ele>2.3</ele>
        <time>2018-09-21T12:56:34.000Z</time>
      </trkpt>
      <trkpt lat="46.72965" lon="-2.35804">
        <ele>2.2</ele>
        <time>2018-09-21T12:56:35.000Z</time>
      </trkpt>
      <trkpt lat="46.72966" lon="-2.35806">
        <ele>2.2</ele>
        <time>2018-09-21T12:56:36.000Z</time>
      </trkpt>
      <trkpt lat="46.72966" lon="-2.35807">
        <ele>2.2</ele>
        <time>2018-09-21T12:56:37.000Z</time>
      </trkpt>
      <trkpt lat="46.72967" lon="-2.35809">
        <ele>2.2</ele>
        <time>2018-09-21T12:56:38.000Z</time>
      </trkpt>
      <trkpt lat="46.72967" lon="-2.35811">
        <ele>2.2</ele>
        <time>2018-09-21T12:56:39.000Z</time>
      </trkpt>
      <trkpt lat="46.72967" lon="-2.35812">
        <ele>2.2</ele>
        <time>2018-09-21T12:56:40.000Z</time>
      </trkpt>
      <trkpt lat="46.72968" lon="-2.35814">
        <ele>2.2</ele>
        <time>2018-09-21T12:56:41.000Z</time>
      </trkpt>
      <trkpt lat="46.72968" lon="-2.35815">
        <ele>2.1</ele>
        <time>2018-09-21T12:56:42.000Z</time>
      </trkpt>
      <trkpt lat="46.72969" lon="-2.35817">
        <ele>2.1</ele>
        <time>2018-09-21T12:56:43.000Z</time>
      </trkpt>
      <trkpt lat="46.72969" lon="-2.35818">
        <ele>2.1</ele>
        <time>2018-09-21T12:56:44.000Z</time>
      </trkpt>
      <trkpt lat="46.72969" lon="-2.3582">
        <ele>2.1</ele>
        <time>2018-09-21T12:56:45.000Z</time>
      </trkpt>
      <trkpt lat="46.7297" lon="-2.35822">
        <ele>2.1</ele>
        <time>2018-09-21T12:56:46.000Z</time>
      </trkpt>
      <trkpt lat="46.7297" lon="-2.35823">
        <ele>2.1</ele>
        <time>2018-09-21T12:56:47.000Z</time>
      </trkpt>
      <trkpt lat="46.7297" lon="-2.35825">
        <ele>2.1</ele>
        <time>2018-09-21T12:56:48.000Z</time>
      </trkpt>
      <trkpt lat="46.72971" lon="-2.35826">
        <ele>2.1</ele>
        <time>2018-09-21T12:56:49.000Z</time>
      </trkpt>
      <trkpt lat="46.72971" lon="-2.35828">
        <ele>2</ele>
        <time>2018-09-21T12:56:50.000Z</time>
      </trkpt>
      <trkpt lat="46.72971" lon="-2.35829">
        <ele>2</ele>
        <time>2018-09-21T12:56:51.000Z</time>
      </trkpt>
      <trkpt lat="46.72972" lon="-2.3583">
        <ele>2</ele>
        <time>2018-09-21T12:56:52.000Z</time>
      </trkpt>
      <trkpt lat="46.72972" lon="-2.35832">
        <ele>2</ele>
        <time>2018-09-21T12:56:53.000Z</time>
      </trkpt>
      <trkpt lat="46.72972" lon="-2.35833">
        <ele>2</ele>
        <time>2018-09-21T12:56:54.000Z</time>
      </trkpt>
      <trkpt lat="46.72973" lon="-2.35835">
        <ele>2</ele>
        <time>2018-09-21T12:56:55.000Z</time>
      </trkpt>
      <trkpt lat="46.72973" lon="-2.35836">
        <ele>2</ele>
        <time>2018-09-21T12:56:56.000Z</time>
      </trkpt>
      <trkpt lat="46.72973" lon="-2.35837">
        <ele>1.9</ele>
        <time>2018-09-21T12:56:57.000Z</time>
      </trkpt>
      <trkpt lat="46.72974" lon="-2.35839">
        <ele>1.9</ele>
        <time>2018-09-21T12:56:58.000Z</time>
      </trkpt>
      <trkpt lat="46.72974" lon="-2.3584">
        <ele>1.9</ele>
        <time>2018-09-21T12:56:59.000Z</time>
      </trkpt>
      <trkpt lat="46.72974" lon="-2.35841">
        <ele>1.9</ele>
        <time>2018-09-21T12:57:00.000Z</time>
      </trkpt>
      <trkpt lat="46.72975" lon="-2.35843">
        <ele>1.9</ele>
        <time>2018-09-21T12:57:01.000Z</time>
      </trkpt>
      <trkpt lat="46.72975" lon="-2.35844">
        <ele>1.8</ele>
        <time>2018-09-21T12:57:02.000Z</time>
      </trkpt>
      <trkpt lat="46.72975" lon="-2.35845">
        <ele>1.8</ele>
        <time>2018-09-21T12:57:03.000Z</time>
      </trkpt>
      <trkpt lat="46.72976" lon="-2.35846">
        <ele>1.8</ele>
        <time>2018-09-21T12:57:04.000Z</time>
      </trkpt>
      <trkpt lat="46.72976" lon="-2.35848">
        <ele>1.8</ele>
        <time>2018-09-21T12:57:05.000Z</time>
      </trkpt>
      <trkpt lat="46.72976" lon="-2.35849">
        <ele>1.8</ele>
        <time>2018-09-21T12:57:06.000Z</time>
      </trkpt>
      <trkpt lat="46.72976" lon="-2.3585">
        <ele>1.8</ele>
        <time>2018-09-21T12:57:07.000Z</time>
      </trkpt>
      <trkpt lat="46.72976" lon="-2.35852">
        <ele>1.8</ele>
        <time>2018-09-21T12:57:08.000Z</time>
      </trkpt>
      <trkpt lat="46.72976" lon="-2.35853">
        <ele>1.8</ele>
        <time>2018-09-21T12:57:09.000Z</time>
      </trkpt>
      <trkpt lat="46.72976" lon="-2.35855">
        <ele>1.8</ele>
        <time>2018-09-21T12:57:10.000Z</time>
      </trkpt>
      <trkpt lat="46.72975" lon="-2.35856">
        <ele>1.8</ele>
        <time>2018-09-21T12:57:11.000Z</time>
      </trkpt>
      <trkpt lat="46.72975" lon="-2.35858">
        <ele>1.8</ele>
        <time>2018-09-21T12:57:12.000Z</time>
      </trkpt>
      <trkpt lat="46.72974" lon="-2.35859">
        <ele>1.8</ele>
        <time>2018-09-21T12:57:13.000Z</time>
      </trkpt>
      <trkpt lat="46.72974" lon="-2.35861">
        <ele>1.8</ele>
        <time>2018-09-21T12:57:14.000Z</time>
      </trkpt>
      <trkpt lat="46.72973" lon="-2.35862">
        <ele>1.8</ele>
        <time>2018-09-21T12:57:15.000Z</time>
      </trkpt>
      <trkpt lat="46.72973" lon="-2.35864">
        <ele>1.8</ele>
        <time>2018-09-21T12:57:16.000Z</time>
      </trkpt>
      <trkpt lat="46.72972" lon="-2.35865">
        <ele>1.9</ele>
        <time>2018-09-21T12:57:17.000Z</time>
      </trkpt>
      <trkpt lat="46.72972" lon="-2.35867">
        <ele>1.9</ele>
        <time>2018-09-21T12:57:18.000Z</time>
      </trkpt>
      <trkpt lat="46.72972" lon="-2.35869">
        <ele>1.9</ele>
        <time>2018-09-21T12:57:19.000Z</time>
      </trkpt>
      <trkpt lat="46.72971" lon="-2.3587">
        <ele>1.9</ele>
        <time>2018-09-21T12:57:20.000Z</time>
      </trkpt>
      <trkpt lat="46.72971" lon="-2.35872">
        <ele>1.9</ele>
        <time>2018-09-21T12:57:21.000Z</time>
      </trkpt>
      <trkpt lat="46.7297" lon="-2.35873">
        <ele>1.9</ele>
        <time>2018-09-21T12:57:22.000Z</time>
      </trkpt>
      <trkpt lat="46.7297" lon="-2.35875">
        <ele>1.9</ele>
        <time>2018-09-21T12:57:23.000Z</time>
      </trkpt>
      <trkpt lat="46.7297" lon="-2.35876">
        <ele>1.9</ele>
        <time>2018-09-21T12:57:24.000Z</time>
      </trkpt>
      <trkpt lat="46.7297" lon="-2.35878">
        <ele>2</ele>
        <time>2018-09-21T12:57:25.000Z</time>
      </trkpt>
      <trkpt lat="46.72969" lon="-2.35879">
        <ele>2</ele>
        <time>2018-09-21T12:57:26.000Z</time>
      </trkpt>
      <trkpt lat="46.72969" lon="-2.35881">
        <ele>2</ele>
        <time>2018-09-21T12:57:27.000Z</time>
      </trkpt>
      <trkpt lat="46.72969" lon="-2.35883">
        <ele>2</ele>
        <time>2018-09-21T12:57:28.000Z</time>
      </trkpt>
      <trkpt lat="46.72969" lon="-2.35884">
        <ele>2</ele>
        <time>2018-09-21T12:57:29.000Z</time>
      </trkpt>
      <trkpt lat="46.72969" lon="-2.35886">
        <ele>2</ele>
        <time>2018-09-21T12:57:30.000Z</time>
      </trkpt>
      <trkpt lat="46.72968" lon="-2.35887">
        <ele>2</ele>
        <time>2018-09-21T12:57:31.000Z</time>
      </trkpt>
      <trkpt lat="46.72968" lon="-2.35889">
        <ele>2</ele>
        <time>2018-09-21T12:57:32.000Z</time>
      </trkpt>
      <trkpt lat="46.72968" lon="-2.35891">
        <ele>2</ele>
        <time>2018-09-21T12:57:33.000Z</time>
      </trkpt>
      <trkpt lat="46.72968" lon="-2.35892">
        <ele>2</ele>
        <time>2018-09-21T12:57:34.000Z</time>
      </trkpt>
      <trkpt lat="46.72968" lon="-2.35894">
        <ele>2</ele>
        <time>2018-09-21T12:57:35.000Z</time>
      </trkpt>
      <trkpt lat="46.72967" lon="-2.35896">
        <ele>2</ele>
        <time>2018-09-21T12:57:36.000Z</time>
      </trkpt>
      <trkpt lat="46.72967" lon="-2.35897">
        <ele>2</ele>
        <time>2018-09-21T12:57:37.000Z</time>
      </trkpt>
      <trkpt lat="46.72967" lon="-2.35899">
        <ele>2</ele>
        <time>2018-09-21T12:57:38.000Z</time>
      </trkpt>
      <trkpt lat="46.72967" lon="-2.35901">
        <ele>2</ele>
        <time>2018-09-21T12:57:39.000Z</time>
      </trkpt>
      <trkpt lat="46.72966" lon="-2.35902">
        <ele>2</ele>
        <time>2018-09-21T12:57:40.000Z</time>
      </trkpt>
      <trkpt lat="46.72966" lon="-2.35904">
        <ele>2.1</ele>
        <time>2018-09-21T12:57:41.000Z</time>
      </trkpt>
      <trkpt lat="46.72966" lon="-2.35906">
        <ele>2.1</ele>
        <time>2018-09-21T12:57:42.000Z</time>
      </trkpt>
      <trkpt lat="46.72966" lon="-2.35907">
        <ele>2.1</ele>
        <time>2018-09-21T12:57:43.000Z</time>
      </trkpt>
      <trkpt lat="46.72965" lon="-2.35909">
        <ele>2.1</ele>
        <time>2018-09-21T12:57:44.000Z</time>
      </trkpt>
      <trkpt lat="46.72965" lon="-2.3591">
        <ele>2.1</ele>
        <time>2018-09-21T12:57:45.000Z</time>
      </trkpt>
      <trkpt lat="46.72965" lon="-2.35912">
        <ele>2.1</ele>
        <time>2018-09-21T12:57:46.000Z</time>
      </trkpt>
      <trkpt lat="46.72965" lon="-2.35913">
        <ele>2.1</ele>
        <time>2018-09-21T12:57:47.000Z</time>
      </trkpt>
      <trkpt lat="46.72965" lon="-2.35914">
        <ele>2.1</ele>
        <time>2018-09-21T12:57:48.000Z</time>
      </trkpt>
      <trkpt lat="46.72965" lon="-2.35915">
        <ele>2.1</ele>
        <time>2018-09-21T12:57:49.000Z</time>
      </trkpt>
      <trkpt lat="46.72964" lon="-2.35917">
        <ele>2.1</ele>
        <time>2018-09-21T12:57:50.000Z</time>
      </trkpt>
      <trkpt lat="46.72964" lon="-2.35918">
        <ele>2.1</ele>
        <time>2018-09-21T12:57:51.000Z</time>
      </trkpt>
      <trkpt lat="46.72964" lon="-2.35919">
        <ele>2.2</ele>
        <time>2018-09-21T12:57:52.000Z</time>
      </trkpt>
      <trkpt lat="46.72963" lon="-2.35921">
        <ele>2.2</ele>
        <time>2018-09-21T12:57:53.000Z</time>
      </trkpt>
      <trkpt lat="46.72963" lon="-2.35923">
        <ele>2.2</ele>
        <time>2018-09-21T12:57:54.000Z</time>
      </trkpt>
      <trkpt lat="46.72962" lon="-2.35925">
        <ele>2.2</ele>
        <time>2018-09-21T12:57:55.000Z</time>
      </trkpt>
      <trkpt lat="46.72961" lon="-2.35927">
        <ele>2.2</ele>
        <time>2018-09-21T12:57:56.000Z</time>
      </trkpt>
      <trkpt lat="46.72961" lon="-2.35928">
        <ele>2.2</ele>
        <time>2018-09-21T12:57:57.000Z</time>
      </trkpt>
      <trkpt lat="46.7296" lon="-2.3593">
        <ele>2.3</ele>
        <time>2018-09-21T12:57:58.000Z</time>
      </trkpt>
      <trkpt lat="46.72959" lon="-2.35932">
        <ele>2.3</ele>
        <time>2018-09-21T12:57:59.000Z</time>
      </trkpt>
      <trkpt lat="46.72959" lon="-2.35933">
        <ele>2.3</ele>
        <time>2018-09-21T12:58:00.000Z</time>
      </trkpt>
      <trkpt lat="46.72958" lon="-2.35935">
        <ele>2.3</ele>
        <time>2018-09-21T12:58:01.000Z</time>
      </trkpt>
      <trkpt lat="46.72957" lon="-2.35936">
        <ele>2.3</ele>
        <time>2018-09-21T12:58:02.000Z</time>
      </trkpt>
      <trkpt lat="46.72956" lon="-2.35937">
        <ele>2.4</ele>
        <time>2018-09-21T12:58:03.000Z</time>
      </trkpt>
      <trkpt lat="46.72956" lon="-2.35939">
        <ele>2.4</ele>
        <time>2018-09-21T12:58:04.000Z</time>
      </trkpt>
      <trkpt lat="46.72955" lon="-2.3594">
        <ele>2.4</ele>
        <time>2018-09-21T12:58:05.000Z</time>
      </trkpt>
      <trkpt lat="46.72954" lon="-2.35941">
        <ele>2.4</ele>
        <time>2018-09-21T12:58:06.000Z</time>
      </trkpt>
      <trkpt lat="46.72954" lon="-2.35942">
        <ele>2.4</ele>
        <time>2018-09-21T12:58:07.000Z</time>
      </trkpt>
      <trkpt lat="46.72953" lon="-2.35943">
        <ele>2.5</ele>
        <time>2018-09-21T12:58:08.000Z</time>
      </trkpt>
      <trkpt lat="46.72952" lon="-2.35944">
        <ele>2.5</ele>
        <time>2018-09-21T12:58:09.000Z</time>
      </trkpt>
      <trkpt lat="46.72952" lon="-2.35945">
        <ele>2.5</ele>
        <time>2018-09-21T12:58:10.000Z</time>
      </trkpt>
      <trkpt lat="46.72951" lon="-2.35946">
        <ele>2.5</ele>
        <time>2018-09-21T12:58:11.000Z</time>
      </trkpt>
      <trkpt lat="46.7295" lon="-2.35947">
        <ele>2.5</ele>
        <time>2018-09-21T12:58:12.000Z</time>
      </trkpt>
      <trkpt lat="46.7295" lon="-2.35948">
        <ele>2.6</ele>
        <time>2018-09-21T12:58:13.000Z</time>
      </trkpt>
      <trkpt lat="46.72949" lon="-2.35949">
        <ele>2.6</ele>
        <time>2018-09-21T12:58:14.000Z</time>
      </trkpt>
      <trkpt lat="46.72948" lon="-2.35951">
        <ele>2.6</ele>
        <time>2018-09-21T12:58:15.000Z</time>
      </trkpt>
      <trkpt lat="46.72948" lon="-2.35952">
        <ele>2.6</ele>
        <time>2018-09-21T12:58:16.000Z</time>
      </trkpt>
      <trkpt lat="46.72947" lon="-2.35953">
        <ele>2.6</ele>
        <time>2018-09-21T12:58:17.000Z</time>
      </trkpt>
      <trkpt lat="46.72946" lon="-2.35954">
        <ele>2.7</ele>
        <time>2018-09-21T12:58:18.000Z</time>
      </trkpt>
      <trkpt lat="46.72945" lon="-2.35955">
        <ele>2.7</ele>
        <time>2018-09-21T12:58:19.000Z</time>
      </trkpt>
      <trkpt lat="46.72945" lon="-2.35956">
        <ele>2.7</ele>
        <time>2018-09-21T12:58:20.000Z</time>
      </trkpt>
      <trkpt lat="46.72944" lon="-2.35957">
        <ele>2.7</ele>
        <time>2018-09-21T12:58:21.000Z</time>
      </trkpt>
      <trkpt lat="46.72943" lon="-2.35958">
        <ele>2.7</ele>
        <time>2018-09-21T12:58:22.000Z</time>
      </trkpt>
      <trkpt lat="46.72942" lon="-2.35959">
        <ele>2.8</ele>
        <time>2018-09-21T12:58:23.000Z</time>
      </trkpt>
      <trkpt lat="46.72942" lon="-2.3596">
        <ele>2.8</ele>
        <time>2018-09-21T12:58:24.000Z</time>
      </trkpt>
      <trkpt lat="46.72941" lon="-2.35961">
        <ele>2.8</ele>
        <time>2018-09-21T12:58:25.000Z</time>
      </trkpt>
      <trkpt lat="46.7294" lon="-2.35963">
        <ele>2.8</ele>
        <time>2018-09-21T12:58:26.000Z</time>
      </trkpt>
      <trkpt lat="46.72939" lon="-2.35964">
        <ele>2.8</ele>
        <time>2018-09-21T12:58:27.000Z</time>
      </trkpt>
      <trkpt lat="46.72939" lon="-2.35965">
        <ele>2.8</ele>
        <time>2018-09-21T12:58:28.000Z</time>
      </trkpt>
      <trkpt lat="46.72938" lon="-2.35966">
        <ele>2.9</ele>
        <time>2018-09-21T12:58:29.000Z</time>
      </trkpt>
      <trkpt lat="46.72937" lon="-2.35967">
        <ele>2.9</ele>
        <time>2018-09-21T12:58:30.000Z</time>
      </trkpt>
      <trkpt lat="46.72936" lon="-2.35968">
        <ele>2.9</ele>
        <time>2018-09-21T12:58:31.000Z</time>
      </trkpt>
      <trkpt lat="46.72935" lon="-2.35969">
        <ele>2.9</ele>
        <time>2018-09-21T12:58:32.000Z</time>
      </trkpt>
      <trkpt lat="46.72934" lon="-2.3597">
        <ele>3</ele>
        <time>2018-09-21T12:58:33.000Z</time>
      </trkpt>
      <trkpt lat="46.72933" lon="-2.3597">
        <ele>3</ele>
        <time>2018-09-21T12:58:34.000Z</time>
      </trkpt>
      <trkpt lat="46.72932" lon="-2.35971">
        <ele>3</ele>
        <time>2018-09-21T12:58:35.000Z</time>
      </trkpt>
      <trkpt lat="46.72931" lon="-2.35972">
        <ele>3</ele>
        <time>2018-09-21T12:58:36.000Z</time>
      </trkpt>
      <trkpt lat="46.7293" lon="-2.35973">
        <ele>3.1</ele>
        <time>2018-09-21T12:58:37.000Z</time>
      </trkpt>
      <trkpt lat="46.72929" lon="-2.35974">
        <ele>3.1</ele>
        <time>2018-09-21T12:58:38.000Z</time>
      </trkpt>
      <trkpt lat="46.72929" lon="-2.35975">
        <ele>3.1</ele>
        <time>2018-09-21T12:58:39.000Z</time>
      </trkpt>
      <trkpt lat="46.72928" lon="-2.35975">
        <ele>3.1</ele>
        <time>2018-09-21T12:58:40.000Z</time>
      </trkpt>
      <trkpt lat="46.72927" lon="-2.35976">
        <ele>3.1</ele>
        <time>2018-09-21T12:58:41.000Z</time>
      </trkpt>
      <trkpt lat="46.72926" lon="-2.35977">
        <ele>3.1</ele>
        <time>2018-09-21T12:58:42.000Z</time>
      </trkpt>
      <trkpt lat="46.72926" lon="-2.35978">
        <ele>3.1</ele>
        <time>2018-09-21T12:58:43.000Z</time>
      </trkpt>
      <trkpt lat="46.72926" lon="-2.35979">
        <ele>3.1</ele>
        <time>2018-09-21T12:58:44.000Z</time>
      </trkpt>
      <trkpt lat="46.72925" lon="-2.3598">
        <ele>3.1</ele>
        <time>2018-09-21T12:58:45.000Z</time>
      </trkpt>
      <trkpt lat="46.72925" lon="-2.35981">
        <ele>3.1</ele>
        <time>2018-09-21T12:58:46.000Z</time>
      </trkpt>
      <trkpt lat="46.72925" lon="-2.35982">
        <ele>3.1</ele>
        <time>2018-09-21T12:58:47.000Z</time>
      </trkpt>
      <trkpt lat="46.72925" lon="-2.35983">
        <ele>3.1</ele>
        <time>2018-09-21T12:58:48.000Z</time>
      </trkpt>
      <trkpt lat="46.72924" lon="-2.35984">
        <ele>3.1</ele>
        <time>2018-09-21T12:58:49.000Z</time>
      </trkpt>
      <trkpt lat="46.72924" lon="-2.35985">
        <ele>3.1</ele>
        <time>2018-09-21T12:58:50.000Z</time>
      </trkpt>
      <trkpt lat="46.72923" lon="-2.35985">
        <ele>3.1</ele>
        <time>2018-09-21T12:58:51.000Z</time>
      </trkpt>
      <trkpt lat="46.72922" lon="-2.35986">
        <ele>3.1</ele>
        <time>2018-09-21T12:58:52.000Z</time>
      </trkpt>
      <trkpt lat="46.72921" lon="-2.35986">
        <ele>3.2</ele>
        <time>2018-09-21T12:58:53.000Z</time>
      </trkpt>
      <trkpt lat="46.7292" lon="-2.35987">
        <ele>3.2</ele>
        <time>2018-09-21T12:58:54.000Z</time>
      </trkpt>
      <trkpt lat="46.72919" lon="-2.35988">
        <ele>3.2</ele>
        <time>2018-09-21T12:58:55.000Z</time>
      </trkpt>
      <trkpt lat="46.72918" lon="-2.35989">
        <ele>3.2</ele>
        <time>2018-09-21T12:58:56.000Z</time>
      </trkpt>
      <trkpt lat="46.72917" lon="-2.3599">
        <ele>3.2</ele>
        <time>2018-09-21T12:58:57.000Z</time>
      </trkpt>
      <trkpt lat="46.72916" lon="-2.35991">
        <ele>3.2</ele>
        <time>2018-09-21T12:58:58.000Z</time>
      </trkpt>
      <trkpt lat="46.72916" lon="-2.35992">
        <ele>3.2</ele>
        <time>2018-09-21T12:58:59.000Z</time>
      </trkpt>
      <trkpt lat="46.72915" lon="-2.35993">
        <ele>3.2</ele>
        <time>2018-09-21T12:59:00.000Z</time>
      </trkpt>
      <trkpt lat="46.72914" lon="-2.35994">
        <ele>3.2</ele>
        <time>2018-09-21T12:59:01.000Z</time>
      </trkpt>
      <trkpt lat="46.72913" lon="-2.35996">
        <ele>3.2</ele>
        <time>2018-09-21T12:59:02.000Z</time>
      </trkpt>
      <trkpt lat="46.72912" lon="-2.35997">
        <ele>3.2</ele>
        <time>2018-09-21T12:59:03.000Z</time>
      </trkpt>
      <trkpt lat="46.72911" lon="-2.35998">
        <ele>3.2</ele>
        <time>2018-09-21T12:59:04.000Z</time>
      </trkpt>
      <trkpt lat="46.7291" lon="-2.35999">
        <ele>3.2</ele>
        <time>2018-09-21T12:59:05.000Z</time>
      </trkpt>
      <trkpt lat="46.7291" lon="-2.36">
        <ele>3.3</ele>
        <time>2018-09-21T12:59:06.000Z</time>
      </trkpt>
      <trkpt lat="46.72909" lon="-2.36001">
        <ele>3.3</ele>
        <time>2018-09-21T12:59:07.000Z</time>
      </trkpt>
      <trkpt lat="46.72908" lon="-2.36002">
        <ele>3.3</ele>
        <time>2018-09-21T12:59:08.000Z</time>
      </trkpt>
      <trkpt lat="46.72907" lon="-2.36003">
        <ele>3.3</ele>
        <time>2018-09-21T12:59:09.000Z</time>
      </trkpt>
      <trkpt lat="46.72907" lon="-2.36004">
        <ele>3.3</ele>
        <time>2018-09-21T12:59:10.000Z</time>
      </trkpt>
      <trkpt lat="46.72906" lon="-2.36005">
        <ele>3.3</ele>
        <time>2018-09-21T12:59:11.000Z</time>
      </trkpt>
      <trkpt lat="46.72905" lon="-2.36006">
        <ele>3.3</ele>
        <time>2018-09-21T12:59:12.000Z</time>
      </trkpt>
      <trkpt lat="46.72904" lon="-2.36007">
        <ele>3.4</ele>
        <time>2018-09-21T12:59:13.000Z</time>
      </trkpt>
      <trkpt lat="46.72903" lon="-2.36008">
        <ele>3.4</ele>
        <time>2018-09-21T12:59:14.000Z</time>
      </trkpt>
      <trkpt lat="46.72903" lon="-2.36009">
        <ele>3.4</ele>
        <time>2018-09-21T12:59:15.000Z</time>
      </trkpt>
      <trkpt lat="46.72902" lon="-2.3601">
        <ele>3.4</ele>
        <time>2018-09-21T12:59:16.000Z</time>
      </trkpt>
      <trkpt lat="46.72901" lon="-2.36011">
        <ele>3.4</ele>
        <time>2018-09-21T12:59:17.000Z</time>
      </trkpt>
      <trkpt lat="46.729" lon="-2.36012">
        <ele>3.4</ele>
        <time>2018-09-21T12:59:18.000Z</time>
      </trkpt>
      <trkpt lat="46.729" lon="-2.36013">
        <ele>3.4</ele>
        <time>2018-09-21T12:59:19.000Z</time>
      </trkpt>
      <trkpt lat="46.72899" lon="-2.36014">
        <ele>3.4</ele>
        <time>2018-09-21T12:59:20.000Z</time>
      </trkpt>
      <trkpt lat="46.72898" lon="-2.36016">
        <ele>3.4</ele>
        <time>2018-09-21T12:59:21.000Z</time>
      </trkpt>
      <trkpt lat="46.72898" lon="-2.36017">
        <ele>3.4</ele>
        <time>2018-09-21T12:59:22.000Z</time>
      </trkpt>
      <trkpt lat="46.72898" lon="-2.36018">
        <ele>3.4</ele>
        <time>2018-09-21T12:59:23.000Z</time>
      </trkpt>
      <trkpt lat="46.72897" lon="-2.3602">
        <ele>3.4</ele>
        <time>2018-09-21T12:59:24.000Z</time>
      </trkpt>
      <trkpt lat="46.72897" lon="-2.36021">
        <ele>3.4</ele>
        <time>2018-09-21T12:59:25.000Z</time>
      </trkpt>
      <trkpt lat="46.72897" lon="-2.36023">
        <ele>3.4</ele>
        <time>2018-09-21T12:59:26.000Z</time>
      </trkpt>
      <trkpt lat="46.72897" lon="-2.36025">
        <ele>3.3</ele>
        <time>2018-09-21T12:59:27.000Z</time>
      </trkpt>
      <trkpt lat="46.72898" lon="-2.36026">
        <ele>3.3</ele>
        <time>2018-09-21T12:59:28.000Z</time>
      </trkpt>
      <trkpt lat="46.72898" lon="-2.36028">
        <ele>3.3</ele>
        <time>2018-09-21T12:59:29.000Z</time>
      </trkpt>
      <trkpt lat="46.72898" lon="-2.3603">
        <ele>3.2</ele>
        <time>2018-09-21T12:59:30.000Z</time>
      </trkpt>
      <trkpt lat="46.72898" lon="-2.36031">
        <ele>3.2</ele>
        <time>2018-09-21T12:59:31.000Z</time>
      </trkpt>
      <trkpt lat="46.72899" lon="-2.36033">
        <ele>3.2</ele>
        <time>2018-09-21T12:59:32.000Z</time>
      </trkpt>
      <trkpt lat="46.729" lon="-2.36034">
        <ele>3.1</ele>
        <time>2018-09-21T12:59:33.000Z</time>
      </trkpt>
      <trkpt lat="46.729" lon="-2.36036">
        <ele>3.1</ele>
        <time>2018-09-21T12:59:34.000Z</time>
      </trkpt>
      <trkpt lat="46.72901" lon="-2.36037">
        <ele>3</ele>
        <time>2018-09-21T12:59:35.000Z</time>
      </trkpt>
      <trkpt lat="46.72902" lon="-2.36039">
        <ele>3</ele>
        <time>2018-09-21T12:59:36.000Z</time>
      </trkpt>
      <trkpt lat="46.72902" lon="-2.3604">
        <ele>3</ele>
        <time>2018-09-21T12:59:37.000Z</time>
      </trkpt>
      <trkpt lat="46.72903" lon="-2.36042">
        <ele>2.9</ele>
        <time>2018-09-21T12:59:38.000Z</time>
      </trkpt>
      <trkpt lat="46.72904" lon="-2.36043">
        <ele>2.9</ele>
        <time>2018-09-21T12:59:39.000Z</time>
      </trkpt>
      <trkpt lat="46.72904" lon="-2.36045">
        <ele>2.8</ele>
        <time>2018-09-21T12:59:40.000Z</time>
      </trkpt>
      <trkpt lat="46.72905" lon="-2.36046">
        <ele>2.8</ele>
        <time>2018-09-21T12:59:41.000Z</time>
      </trkpt>
      <trkpt lat="46.72906" lon="-2.36048">
        <ele>2.7</ele>
        <time>2018-09-21T12:59:42.000Z</time>
      </trkpt>
      <trkpt lat="46.72906" lon="-2.36049">
        <ele>2.7</ele>
        <time>2018-09-21T12:59:43.000Z</time>
      </trkpt>
      <trkpt lat="46.72907" lon="-2.36051">
        <ele>2.7</ele>
        <time>2018-09-21T12:59:44.000Z</time>
      </trkpt>
      <trkpt lat="46.72908" lon="-2.36052">
        <ele>2.6</ele>
        <time>2018-09-21T12:59:45.000Z</time>
      </trkpt>
      <trkpt lat="46.72908" lon="-2.36054">
        <ele>2.6</ele>
        <time>2018-09-21T12:59:46.000Z</time>
      </trkpt>
      <trkpt lat="46.72909" lon="-2.36055">
        <ele>2.6</ele>
        <time>2018-09-21T12:59:47.000Z</time>
      </trkpt>
      <trkpt lat="46.72909" lon="-2.36057">
        <ele>2.5</ele>
        <time>2018-09-21T12:59:48.000Z</time>
      </trkpt>
      <trkpt lat="46.7291" lon="-2.36058">
        <ele>2.5</ele>
        <time>2018-09-21T12:59:49.000Z</time>
      </trkpt>
      <trkpt lat="46.7291" lon="-2.3606">
        <ele>2.5</ele>
        <time>2018-09-21T12:59:50.000Z</time>
      </trkpt>
      <trkpt lat="46.72911" lon="-2.36061">
        <ele>2.4</ele>
        <time>2018-09-21T12:59:51.000Z</time>
      </trkpt>
      <trkpt lat="46.72911" lon="-2.36063">
        <ele>2.4</ele>
        <time>2018-09-21T12:59:52.000Z</time>
      </trkpt>
      <trkpt lat="46.72912" lon="-2.36064">
        <ele>2.4</ele>
        <time>2018-09-21T12:59:53.000Z</time>
      </trkpt>
      <trkpt lat="46.72913" lon="-2.36066">
        <ele>2.3</ele>
        <time>2018-09-21T12:59:54.000Z</time>
      </trkpt>
      <trkpt lat="46.72913" lon="-2.36067">
        <ele>2.3</ele>
        <time>2018-09-21T12:59:55.000Z</time>
      </trkpt>
      <trkpt lat="46.72914" lon="-2.36069">
        <ele>2.2</ele>
        <time>2018-09-21T12:59:56.000Z</time>
      </trkpt>
      <trkpt lat="46.72914" lon="-2.3607">
        <ele>2.2</ele>
        <time>2018-09-21T12:59:57.000Z</time>
      </trkpt>
      <trkpt lat="46.72915" lon="-2.36072">
        <ele>2.2</ele>
        <time>2018-09-21T12:59:58.000Z</time>
      </trkpt>
      <trkpt lat="46.72916" lon="-2.36073">
        <ele>2.2</ele>
        <time>2018-09-21T12:59:59.000Z</time>
      </trkpt>
      <trkpt lat="46.72916" lon="-2.36074">
        <ele>2.1</ele>
        <time>2018-09-21T13:00:00.000Z</time>
      </trkpt>
      <trkpt lat="46.72917" lon="-2.36076">
        <ele>2.1</ele>
        <time>2018-09-21T13:00:01.000Z</time>
      </trkpt>
      <trkpt lat="46.72917" lon="-2.36077">
        <ele>2.1</ele>
        <time>2018-09-21T13:00:02.000Z</time>
      </trkpt>
      <trkpt lat="46.72918" lon="-2.36078">
        <ele>2</ele>
        <time>2018-09-21T13:00:03.000Z</time>
      </trkpt>
      <trkpt lat="46.72918" lon="-2.36079">
        <ele>2</ele>
        <time>2018-09-21T13:00:04.000Z</time>
      </trkpt>
      <trkpt lat="46.72919" lon="-2.3608">
        <ele>2</ele>
        <time>2018-09-21T13:00:05.000Z</time>
      </trkpt>
      <trkpt lat="46.72919" lon="-2.36081">
        <ele>2</ele>
        <time>2018-09-21T13:00:06.000Z</time>
      </trkpt>
      <trkpt lat="46.7292" lon="-2.36083">
        <ele>1.9</ele>
        <time>2018-09-21T13:00:07.000Z</time>
      </trkpt>
      <trkpt lat="46.7292" lon="-2.36084">
        <ele>1.9</ele>
        <time>2018-09-21T13:00:08.000Z</time>
      </trkpt>
      <trkpt lat="46.72921" lon="-2.36085">
        <ele>1.9</ele>
        <time>2018-09-21T13:00:09.000Z</time>
      </trkpt>
      <trkpt lat="46.72922" lon="-2.36086">
        <ele>1.9</ele>
        <time>2018-09-21T13:00:10.000Z</time>
      </trkpt>
      <trkpt lat="46.72922" lon="-2.36087">
        <ele>2</ele>
        <time>2018-09-21T13:00:11.000Z</time>
      </trkpt>
      <trkpt lat="46.72923" lon="-2.36088">
        <ele>2</ele>
        <time>2018-09-21T13:00:12.000Z</time>
      </trkpt>
      <trkpt lat="46.72923" lon="-2.36089">
        <ele>2</ele>
        <time>2018-09-21T13:00:13.000Z</time>
      </trkpt>
      <trkpt lat="46.72924" lon="-2.36091">
        <ele>2</ele>
        <time>2018-09-21T13:00:14.000Z</time>
      </trkpt>
      <trkpt lat="46.72925" lon="-2.36092">
        <ele>2</ele>
        <time>2018-09-21T13:00:15.000Z</time>
      </trkpt>
      <trkpt lat="46.72925" lon="-2.36093">
        <ele>2</ele>
        <time>2018-09-21T13:00:16.000Z</time>
      </trkpt>
      <trkpt lat="46.72926" lon="-2.36094">
        <ele>2</ele>
        <time>2018-09-21T13:00:17.000Z</time>
      </trkpt>
      <trkpt lat="46.72927" lon="-2.36095">
        <ele>2.1</ele>
        <time>2018-09-21T13:00:18.000Z</time>
      </trkpt>
      <trkpt lat="46.72928" lon="-2.36096">
        <ele>2.1</ele>
        <time>2018-09-21T13:00:19.000Z</time>
      </trkpt>
      <trkpt lat="46.72928" lon="-2.36097">
        <ele>2.1</ele>
        <time>2018-09-21T13:00:20.000Z</time>
      </trkpt>
      <trkpt lat="46.72929" lon="-2.36099">
        <ele>2.1</ele>
        <time>2018-09-21T13:00:21.000Z</time>
      </trkpt>
      <trkpt lat="46.7293" lon="-2.361">
        <ele>2.1</ele>
        <time>2018-09-21T13:00:22.000Z</time>
      </trkpt>
      <trkpt lat="46.72931" lon="-2.36101">
        <ele>2.1</ele>
        <time>2018-09-21T13:00:23.000Z</time>
      </trkpt>
      <trkpt lat="46.72932" lon="-2.36102">
        <ele>2.1</ele>
        <time>2018-09-21T13:00:24.000Z</time>
      </trkpt>
      <trkpt lat="46.72932" lon="-2.36103">
        <ele>2.2</ele>
        <time>2018-09-21T13:00:25.000Z</time>
      </trkpt>
      <trkpt lat="46.72933" lon="-2.36105">
        <ele>2.2</ele>
        <time>2018-09-21T13:00:26.000Z</time>
      </trkpt>
      <trkpt lat="46.72933" lon="-2.36106">
        <ele>2.2</ele>
        <time>2018-09-21T13:00:27.000Z</time>
      </trkpt>
      <trkpt lat="46.72934" lon="-2.36108">
        <ele>2.2</ele>
        <time>2018-09-21T13:00:28.000Z</time>
      </trkpt>
      <trkpt lat="46.72934" lon="-2.36109">
        <ele>2.3</ele>
        <time>2018-09-21T13:00:29.000Z</time>
      </trkpt>
      <trkpt lat="46.72935" lon="-2.36111">
        <ele>2.3</ele>
        <time>2018-09-21T13:00:30.000Z</time>
      </trkpt>
      <trkpt lat="46.72935" lon="-2.36112">
        <ele>2.3</ele>
        <time>2018-09-21T13:00:31.000Z</time>
      </trkpt>
      <trkpt lat="46.72936" lon="-2.36114">
        <ele>2.4</ele>
        <time>2018-09-21T13:00:32.000Z</time>
      </trkpt>
      <trkpt lat="46.72936" lon="-2.36116">
        <ele>2.4</ele>
        <time>2018-09-21T13:00:33.000Z</time>
      </trkpt>
      <trkpt lat="46.72937" lon="-2.36118">
        <ele>2.4</ele>
        <time>2018-09-21T13:00:34.000Z</time>
      </trkpt>
      <trkpt lat="46.72938" lon="-2.36119">
        <ele>2.5</ele>
        <time>2018-09-21T13:00:35.000Z</time>
      </trkpt>
      <trkpt lat="46.72938" lon="-2.36121">
        <ele>2.5</ele>
        <time>2018-09-21T13:00:36.000Z</time>
      </trkpt>
      <trkpt lat="46.72939" lon="-2.36122">
        <ele>2.5</ele>
        <time>2018-09-21T13:00:37.000Z</time>
      </trkpt>
      <trkpt lat="46.7294" lon="-2.36124">
        <ele>2.6</ele>
        <time>2018-09-21T13:00:38.000Z</time>
      </trkpt>
      <trkpt lat="46.7294" lon="-2.36125">
        <ele>2.6</ele>
        <time>2018-09-21T13:00:39.000Z</time>
      </trkpt>
      <trkpt lat="46.72941" lon="-2.36127">
        <ele>2.6</ele>
        <time>2018-09-21T13:00:40.000Z</time>
      </trkpt>
      <trkpt lat="46.72942" lon="-2.36128">
        <ele>2.6</ele>
        <time>2018-09-21T13:00:41.000Z</time>
      </trkpt>
      <trkpt lat="46.72942" lon="-2.36129">
        <ele>2.7</ele>
        <time>2018-09-21T13:00:42.000Z</time>
      </trkpt>
      <trkpt lat="46.72943" lon="-2.36131">
        <ele>2.7</ele>
        <time>2018-09-21T13:00:43.000Z</time>
      </trkpt>
      <trkpt lat="46.72944" lon="-2.36132">
        <ele>2.7</ele>
        <time>2018-09-21T13:00:44.000Z</time>
      </trkpt>
      <trkpt lat="46.72944" lon="-2.36133">
        <ele>2.7</ele>
        <time>2018-09-21T13:00:45.000Z</time>
      </trkpt>
      <trkpt lat="46.72945" lon="-2.36134">
        <ele>2.8</ele>
        <time>2018-09-21T13:00:46.000Z</time>
      </trkpt>
      <trkpt lat="46.72946" lon="-2.36136">
        <ele>2.8</ele>
        <time>2018-09-21T13:00:47.000Z</time>
      </trkpt>
      <trkpt lat="46.72946" lon="-2.36137">
        <ele>2.8</ele>
        <time>2018-09-21T13:00:48.000Z</time>
      </trkpt>
      <trkpt lat="46.72947" lon="-2.36138">
        <ele>2.8</ele>
        <time>2018-09-21T13:00:49.000Z</time>
      </trkpt>
      <trkpt lat="46.72948" lon="-2.3614">
        <ele>2.9</ele>
        <time>2018-09-21T13:00:50.000Z</time>
      </trkpt>
      <trkpt lat="46.72948" lon="-2.36141">
        <ele>2.9</ele>
        <time>2018-09-21T13:00:51.000Z</time>
      </trkpt>
      <trkpt lat="46.72949" lon="-2.36142">
        <ele>2.9</ele>
        <time>2018-09-21T13:00:52.000Z</time>
      </trkpt>
      <trkpt lat="46.72949" lon="-2.36144">
        <ele>2.9</ele>
        <time>2018-09-21T13:00:53.000Z</time>
      </trkpt>
      <trkpt lat="46.7295" lon="-2.36145">
        <ele>3</ele>
        <time>2018-09-21T13:00:54.000Z</time>
      </trkpt>
      <trkpt lat="46.72951" lon="-2.36146">
        <ele>3</ele>
        <time>2018-09-21T13:00:55.000Z</time>
      </trkpt>
      <trkpt lat="46.72951" lon="-2.36148">
        <ele>3</ele>
        <time>2018-09-21T13:00:56.000Z</time>
      </trkpt>
      <trkpt lat="46.72952" lon="-2.36149">
        <ele>3.1</ele>
        <time>2018-09-21T13:00:57.000Z</time>
      </trkpt>
      <trkpt lat="46.72952" lon="-2.36151">
        <ele>3.1</ele>
        <time>2018-09-21T13:00:58.000Z</time>
      </trkpt>
      <trkpt lat="46.72953" lon="-2.36152">
        <ele>3.1</ele>
        <time>2018-09-21T13:00:59.000Z</time>
      </trkpt>
      <trkpt lat="46.72953" lon="-2.36153">
        <ele>3.2</ele>
        <time>2018-09-21T13:01:00.000Z</time>
      </trkpt>
      <trkpt lat="46.72954" lon="-2.36155">
        <ele>3.2</ele>
        <time>2018-09-21T13:01:01.000Z</time>
      </trkpt>
      <trkpt lat="46.72954" lon="-2.36156">
        <ele>3.2</ele>
        <time>2018-09-21T13:01:02.000Z</time>
      </trkpt>
      <trkpt lat="46.72955" lon="-2.36158">
        <ele>3.3</ele>
        <time>2018-09-21T13:01:03.000Z</time>
      </trkpt>
      <trkpt lat="46.72955" lon="-2.36159">
        <ele>3.3</ele>
        <time>2018-09-21T13:01:04.000Z</time>
      </trkpt>
      <trkpt lat="46.72956" lon="-2.36161">
        <ele>3.3</ele>
        <time>2018-09-21T13:01:05.000Z</time>
      </trkpt>
      <trkpt lat="46.72956" lon="-2.36162">
        <ele>3.4</ele>
        <time>2018-09-21T13:01:06.000Z</time>
      </trkpt>
      <trkpt lat="46.72957" lon="-2.36163">
        <ele>3.4</ele>
        <time>2018-09-21T13:01:07.000Z</time>
      </trkpt>
      <trkpt lat="46.72958" lon="-2.36165">
        <ele>3.5</ele>
        <time>2018-09-21T13:01:08.000Z</time>
      </trkpt>
      <trkpt lat="46.72958" lon="-2.36166">
        <ele>3.5</ele>
        <time>2018-09-21T13:01:09.000Z</time>
      </trkpt>
      <trkpt lat="46.72959" lon="-2.36168">
        <ele>3.5</ele>
        <time>2018-09-21T13:01:10.000Z</time>
      </trkpt>
      <trkpt lat="46.72959" lon="-2.36169">
        <ele>3.6</ele>
        <time>2018-09-21T13:01:11.000Z</time>
      </trkpt>
      <trkpt lat="46.7296" lon="-2.36171">
        <ele>3.6</ele>
        <time>2018-09-21T13:01:12.000Z</time>
      </trkpt>
      <trkpt lat="46.7296" lon="-2.36172">
        <ele>3.6</ele>
        <time>2018-09-21T13:01:13.000Z</time>
      </trkpt>
      <trkpt lat="46.72961" lon="-2.36174">
        <ele>3.7</ele>
        <time>2018-09-21T13:01:14.000Z</time>
      </trkpt>
      <trkpt lat="46.72961" lon="-2.36175">
        <ele>3.7</ele>
        <time>2018-09-21T13:01:15.000Z</time>
      </trkpt>
      <trkpt lat="46.72962" lon="-2.36177">
        <ele>3.8</ele>
        <time>2018-09-21T13:01:16.000Z</time>
      </trkpt>
      <trkpt lat="46.72962" lon="-2.36178">
        <ele>3.8</ele>
        <time>2018-09-21T13:01:17.000Z</time>
      </trkpt>
      <trkpt lat="46.72963" lon="-2.36179">
        <ele>3.8</ele>
        <time>2018-09-21T13:01:18.000Z</time>
      </trkpt>
      <trkpt lat="46.72963" lon="-2.36181">
        <ele>3.9</ele>
        <time>2018-09-21T13:01:19.000Z</time>
      </trkpt>
      <trkpt lat="46.72964" lon="-2.36182">
        <ele>3.9</ele>
        <time>2018-09-21T13:01:20.000Z</time>
      </trkpt>
      <trkpt lat="46.72964" lon="-2.36184">
        <ele>3.9</ele>
        <time>2018-09-21T13:01:21.000Z</time>
      </trkpt>
      <trkpt lat="46.72965" lon="-2.36185">
        <ele>4</ele>
        <time>2018-09-21T13:01:22.000Z</time>
      </trkpt>
      <trkpt lat="46.72965" lon="-2.36186">
        <ele>4</ele>
        <time>2018-09-21T13:01:23.000Z</time>
      </trkpt>
      <trkpt lat="46.72966" lon="-2.36188">
        <ele>4.1</ele>
        <time>2018-09-21T13:01:24.000Z</time>
      </trkpt>
      <trkpt lat="46.72966" lon="-2.36189">
        <ele>4.1</ele>
        <time>2018-09-21T13:01:25.000Z</time>
      </trkpt>
      <trkpt lat="46.72967" lon="-2.3619">
        <ele>4.1</ele>
        <time>2018-09-21T13:01:26.000Z</time>
      </trkpt>
      <trkpt lat="46.72967" lon="-2.36192">
        <ele>4.2</ele>
        <time>2018-09-21T13:01:27.000Z</time>
      </trkpt>
      <trkpt lat="46.72968" lon="-2.36193">
        <ele>4.2</ele>
        <time>2018-09-21T13:01:28.000Z</time>
      </trkpt>
      <trkpt lat="46.72968" lon="-2.36194">
        <ele>4.2</ele>
        <time>2018-09-21T13:01:29.000Z</time>
      </trkpt>
      <trkpt lat="46.72969" lon="-2.36196">
        <ele>4.3</ele>
        <time>2018-09-21T13:01:30.000Z</time>
      </trkpt>
      <trkpt lat="46.72969" lon="-2.36197">
        <ele>4.3</ele>
        <time>2018-09-21T13:01:31.000Z</time>
      </trkpt>
      <trkpt lat="46.72969" lon="-2.36199">
        <ele>4.4</ele>
        <time>2018-09-21T13:01:32.000Z</time>
      </trkpt>
      <trkpt lat="46.7297" lon="-2.36201">
        <ele>4.4</ele>
        <time>2018-09-21T13:01:33.000Z</time>
      </trkpt>
      <trkpt lat="46.7297" lon="-2.36202">
        <ele>4.5</ele>
        <time>2018-09-21T13:01:34.000Z</time>
      </trkpt>
      <trkpt lat="46.72971" lon="-2.36204">
        <ele>4.5</ele>
        <time>2018-09-21T13:01:35.000Z</time>
      </trkpt>
      <trkpt lat="46.72971" lon="-2.36206">
        <ele>4.6</ele>
        <time>2018-09-21T13:01:36.000Z</time>
      </trkpt>
      <trkpt lat="46.72971" lon="-2.36208">
        <ele>4.7</ele>
        <time>2018-09-21T13:01:37.000Z</time>
      </trkpt>
      <trkpt lat="46.72972" lon="-2.3621">
        <ele>4.7</ele>
        <time>2018-09-21T13:01:38.000Z</time>
      </trkpt>
      <trkpt lat="46.72972" lon="-2.36211">
        <ele>4.8</ele>
        <time>2018-09-21T13:01:39.000Z</time>
      </trkpt>
      <trkpt lat="46.72973" lon="-2.36213">
        <ele>4.8</ele>
        <time>2018-09-21T13:01:40.000Z</time>
      </trkpt>
      <trkpt lat="46.72973" lon="-2.36214">
        <ele>4.8</ele>
        <time>2018-09-21T13:01:41.000Z</time>
      </trkpt>
      <trkpt lat="46.72974" lon="-2.36215">
        <ele>4.9</ele>
        <time>2018-09-21T13:01:42.000Z</time>
      </trkpt>
      <trkpt lat="46.72975" lon="-2.36216">
        <ele>4.9</ele>
        <time>2018-09-21T13:01:43.000Z</time>
      </trkpt>
      <trkpt lat="46.72975" lon="-2.36217">
        <ele>4.9</ele>
        <time>2018-09-21T13:01:44.000Z</time>
      </trkpt>
      <trkpt lat="46.72976" lon="-2.36218">
        <ele>5</ele>
        <time>2018-09-21T13:01:45.000Z</time>
      </trkpt>
      <trkpt lat="46.72977" lon="-2.3622">
        <ele>5</ele>
        <time>2018-09-21T13:01:46.000Z</time>
      </trkpt>
      <trkpt lat="46.72977" lon="-2.36221">
        <ele>5</ele>
        <time>2018-09-21T13:01:47.000Z</time>
      </trkpt>
      <trkpt lat="46.72978" lon="-2.36222">
        <ele>5.1</ele>
        <time>2018-09-21T13:01:48.000Z</time>
      </trkpt>
      <trkpt lat="46.72979" lon="-2.36223">
        <ele>5.1</ele>
        <time>2018-09-21T13:01:49.000Z</time>
      </trkpt>
      <trkpt lat="46.7298" lon="-2.36225">
        <ele>5.2</ele>
        <time>2018-09-21T13:01:50.000Z</time>
      </trkpt>
      <trkpt lat="46.7298" lon="-2.36226">
        <ele>5.2</ele>
        <time>2018-09-21T13:01:51.000Z</time>
      </trkpt>
      <trkpt lat="46.72981" lon="-2.36228">
        <ele>5.3</ele>
        <time>2018-09-21T13:01:52.000Z</time>
      </trkpt>
      <trkpt lat="46.72982" lon="-2.36229">
        <ele>5.3</ele>
        <time>2018-09-21T13:01:53.000Z</time>
      </trkpt>
      <trkpt lat="46.72982" lon="-2.3623">
        <ele>5.3</ele>
        <time>2018-09-21T13:01:54.000Z</time>
      </trkpt>
      <trkpt lat="46.72983" lon="-2.36232">
        <ele>5.4</ele>
        <time>2018-09-21T13:01:55.000Z</time>
      </trkpt>
      <trkpt lat="46.72984" lon="-2.36233">
        <ele>5.4</ele>
        <time>2018-09-21T13:01:56.000Z</time>
      </trkpt>
      <trkpt lat="46.72985" lon="-2.36235">
        <ele>5.5</ele>
        <time>2018-09-21T13:01:57.000Z</time>
      </trkpt>
      <trkpt lat="46.72985" lon="-2.36236">
        <ele>5.5</ele>
        <time>2018-09-21T13:01:58.000Z</time>
      </trkpt>
      <trkpt lat="46.72986" lon="-2.36237">
        <ele>5.6</ele>
        <time>2018-09-21T13:01:59.000Z</time>
      </trkpt>
      <trkpt lat="46.72987" lon="-2.36239">
        <ele>5.6</ele>
        <time>2018-09-21T13:02:00.000Z</time>
      </trkpt>
      <trkpt lat="46.72988" lon="-2.3624">
        <ele>5.7</ele>
        <time>2018-09-21T13:02:01.000Z</time>
      </trkpt>
      <trkpt lat="46.72989" lon="-2.36241">
        <ele>5.7</ele>
        <time>2018-09-21T13:02:02.000Z</time>
      </trkpt>
      <trkpt lat="46.72989" lon="-2.36242">
        <ele>5.7</ele>
        <time>2018-09-21T13:02:03.000Z</time>
      </trkpt>
      <trkpt lat="46.7299" lon="-2.36244">
        <ele>5.8</ele>
        <time>2018-09-21T13:02:04.000Z</time>
      </trkpt>
      <trkpt lat="46.72991" lon="-2.36245">
        <ele>5.8</ele>
        <time>2018-09-21T13:02:05.000Z</time>
      </trkpt>
      <trkpt lat="46.72992" lon="-2.36246">
        <ele>5.9</ele>
        <time>2018-09-21T13:02:06.000Z</time>
      </trkpt>
      <trkpt lat="46.72993" lon="-2.36247">
        <ele>5.9</ele>
        <time>2018-09-21T13:02:07.000Z</time>
      </trkpt>
      <trkpt lat="46.72993" lon="-2.36248">
        <ele>5.9</ele>
        <time>2018-09-21T13:02:08.000Z</time>
      </trkpt>
      <trkpt lat="46.72994" lon="-2.3625">
        <ele>6</ele>
        <time>2018-09-21T13:02:09.000Z</time>
      </trkpt>
      <trkpt lat="46.72995" lon="-2.36251">
        <ele>6</ele>
        <time>2018-09-21T13:02:10.000Z</time>
      </trkpt>
      <trkpt lat="46.72996" lon="-2.36252">
        <ele>6</ele>
        <time>2018-09-21T13:02:11.000Z</time>
      </trkpt>
      <trkpt lat="46.72997" lon="-2.36253">
        <ele>6</ele>
        <time>2018-09-21T13:02:12.000Z</time>
      </trkpt>
      <trkpt lat="46.72997" lon="-2.36254">
        <ele>6</ele>
        <time>2018-09-21T13:02:13.000Z</time>
      </trkpt>
      <trkpt lat="46.72998" lon="-2.36255">
        <ele>6</ele>
        <time>2018-09-21T13:02:14.000Z</time>
      </trkpt>
      <trkpt lat="46.72999" lon="-2.36257">
        <ele>6</ele>
        <time>2018-09-21T13:02:15.000Z</time>
      </trkpt>
      <trkpt lat="46.73" lon="-2.36258">
        <ele>6</ele>
        <time>2018-09-21T13:02:16.000Z</time>
      </trkpt>
      <trkpt lat="46.73" lon="-2.36259">
        <ele>6</ele>
        <time>2018-09-21T13:02:17.000Z</time>
      </trkpt>
      <trkpt lat="46.73001" lon="-2.3626">
        <ele>5.9</ele>
        <time>2018-09-21T13:02:18.000Z</time>
      </trkpt>
      <trkpt lat="46.73002" lon="-2.36262">
        <ele>5.9</ele>
        <time>2018-09-21T13:02:19.000Z</time>
      </trkpt>
      <trkpt lat="46.73002" lon="-2.36263">
        <ele>5.8</ele>
        <time>2018-09-21T13:02:20.000Z</time>
      </trkpt>
      <trkpt lat="46.73003" lon="-2.36264">
        <ele>5.8</ele>
        <time>2018-09-21T13:02:21.000Z</time>
      </trkpt>
      <trkpt lat="46.73004" lon="-2.36266">
        <ele>5.8</ele>
        <time>2018-09-21T13:02:22.000Z</time>
      </trkpt>
      <trkpt lat="46.73004" lon="-2.36267">
        <ele>5.7</ele>
        <time>2018-09-21T13:02:23.000Z</time>
      </trkpt>
      <trkpt lat="46.73005" lon="-2.36269">
        <ele>5.7</ele>
        <time>2018-09-21T13:02:24.000Z</time>
      </trkpt>
      <trkpt lat="46.73005" lon="-2.36271">
        <ele>5.6</ele>
        <time>2018-09-21T13:02:25.000Z</time>
      </trkpt>
      <trkpt lat="46.73006" lon="-2.36272">
        <ele>5.6</ele>
        <time>2018-09-21T13:02:26.000Z</time>
      </trkpt>
      <trkpt lat="46.73006" lon="-2.36274">
        <ele>5.6</ele>
        <time>2018-09-21T13:02:27.000Z</time>
      </trkpt>
      <trkpt lat="46.73007" lon="-2.36276">
        <ele>5.5</ele>
        <time>2018-09-21T13:02:28.000Z</time>
      </trkpt>
      <trkpt lat="46.73007" lon="-2.36277">
        <ele>5.5</ele>
        <time>2018-09-21T13:02:29.000Z</time>
      </trkpt>
      <trkpt lat="46.73008" lon="-2.36279">
        <ele>5.5</ele>
        <time>2018-09-21T13:02:30.000Z</time>
      </trkpt>
      <trkpt lat="46.73008" lon="-2.36281">
        <ele>5.4</ele>
        <time>2018-09-21T13:02:31.000Z</time>
      </trkpt>
      <trkpt lat="46.73009" lon="-2.36283">
        <ele>5.4</ele>
        <time>2018-09-21T13:02:32.000Z</time>
      </trkpt>
      <trkpt lat="46.73009" lon="-2.36284">
        <ele>5.4</ele>
        <time>2018-09-21T13:02:33.000Z</time>
      </trkpt>
      <trkpt lat="46.7301" lon="-2.36286">
        <ele>5.4</ele>
        <time>2018-09-21T13:02:34.000Z</time>
      </trkpt>
      <trkpt lat="46.7301" lon="-2.36288">
        <ele>5.3</ele>
        <time>2018-09-21T13:02:35.000Z</time>
      </trkpt>
      <trkpt lat="46.73011" lon="-2.3629">
        <ele>5.3</ele>
        <time>2018-09-21T13:02:36.000Z</time>
      </trkpt>
      <trkpt lat="46.73011" lon="-2.36292">
        <ele>5.3</ele>
        <time>2018-09-21T13:02:37.000Z</time>
      </trkpt>
      <trkpt lat="46.73012" lon="-2.36293">
        <ele>5.2</ele>
        <time>2018-09-21T13:02:38.000Z</time>
      </trkpt>
      <trkpt lat="46.73012" lon="-2.36295">
        <ele>5.2</ele>
        <time>2018-09-21T13:02:39.000Z</time>
      </trkpt>
      <trkpt lat="46.73013" lon="-2.36297">
        <ele>5.2</ele>
        <time>2018-09-21T13:02:40.000Z</time>
      </trkpt>
      <trkpt lat="46.73013" lon="-2.36299">
        <ele>5.1</ele>
        <time>2018-09-21T13:02:41.000Z</time>
      </trkpt>
      <trkpt lat="46.73014" lon="-2.363">
        <ele>5.1</ele>
        <time>2018-09-21T13:02:42.000Z</time>
      </trkpt>
      <trkpt lat="46.73015" lon="-2.36302">
        <ele>5.1</ele>
        <time>2018-09-21T13:02:43.000Z</time>
      </trkpt>
      <trkpt lat="46.73015" lon="-2.36304">
        <ele>5</ele>
        <time>2018-09-21T13:02:44.000Z</time>
      </trkpt>
      <trkpt lat="46.73016" lon="-2.36305">
        <ele>5</ele>
        <time>2018-09-21T13:02:45.000Z</time>
      </trkpt>
      <trkpt lat="46.73016" lon="-2.36307">
        <ele>5</ele>
        <time>2018-09-21T13:02:46.000Z</time>
      </trkpt>
      <trkpt lat="46.73017" lon="-2.36308">
        <ele>4.9</ele>
        <time>2018-09-21T13:02:47.000Z</time>
      </trkpt>
      <trkpt lat="46.73017" lon="-2.3631">
        <ele>4.9</ele>
        <time>2018-09-21T13:02:48.000Z</time>
      </trkpt>
      <trkpt lat="46.73018" lon="-2.36311">
        <ele>4.9</ele>
        <time>2018-09-21T13:02:49.000Z</time>
      </trkpt>
      <trkpt lat="46.73018" lon="-2.36313">
        <ele>4.9</ele>
        <time>2018-09-21T13:02:50.000Z</time>
      </trkpt>
      <trkpt lat="46.73019" lon="-2.36314">
        <ele>4.8</ele>
        <time>2018-09-21T13:02:51.000Z</time>
      </trkpt>
      <trkpt lat="46.73019" lon="-2.36315">
        <ele>4.8</ele>
        <time>2018-09-21T13:02:52.000Z</time>
      </trkpt>
      <trkpt lat="46.73019" lon="-2.36317">
        <ele>4.8</ele>
        <time>2018-09-21T13:02:53.000Z</time>
      </trkpt>
      <trkpt lat="46.7302" lon="-2.36318">
        <ele>4.8</ele>
        <time>2018-09-21T13:02:54.000Z</time>
      </trkpt>
      <trkpt lat="46.7302" lon="-2.36319">
        <ele>4.8</ele>
        <time>2018-09-21T13:02:55.000Z</time>
      </trkpt>
      <trkpt lat="46.7302" lon="-2.3632">
        <ele>4.8</ele>
        <time>2018-09-21T13:02:56.000Z</time>
      </trkpt>
      <trkpt lat="46.73021" lon="-2.36322">
        <ele>4.7</ele>
        <time>2018-09-21T13:02:57.000Z</time>
      </trkpt>
      <trkpt lat="46.73021" lon="-2.36323">
        <ele>4.7</ele>
        <time>2018-09-21T13:02:58.000Z</time>
      </trkpt>
      <trkpt lat="46.73021" lon="-2.36325">
        <ele>4.7</ele>
        <time>2018-09-21T13:02:59.000Z</time>
      </trkpt>
      <trkpt lat="46.73022" lon="-2.36327">
        <ele>4.7</ele>
        <time>2018-09-21T13:03:00.000Z</time>
      </trkpt>
      <trkpt lat="46.73022" lon="-2.36328">
        <ele>4.7</ele>
        <time>2018-09-21T13:03:01.000Z</time>
      </trkpt>
      <trkpt lat="46.73023" lon="-2.3633">
        <ele>4.6</ele>
        <time>2018-09-21T13:03:02.000Z</time>
      </trkpt>
      <trkpt lat="46.73023" lon="-2.36332">
        <ele>4.6</ele>
        <time>2018-09-21T13:03:03.000Z</time>
      </trkpt>
      <trkpt lat="46.73024" lon="-2.36334">
        <ele>4.6</ele>
        <time>2018-09-21T13:03:04.000Z</time>
      </trkpt>
      <trkpt lat="46.73024" lon="-2.36336">
        <ele>4.5</ele>
        <time>2018-09-21T13:03:05.000Z</time>
      </trkpt>
      <trkpt lat="46.73025" lon="-2.36338">
        <ele>4.5</ele>
        <time>2018-09-21T13:03:06.000Z</time>
      </trkpt>
      <trkpt lat="46.73025" lon="-2.3634">
        <ele>4.4</ele>
        <time>2018-09-21T13:03:07.000Z</time>
      </trkpt>
      <trkpt lat="46.73026" lon="-2.36341">
        <ele>4.3</ele>
        <time>2018-09-21T13:03:08.000Z</time>
      </trkpt>
      <trkpt lat="46.73026" lon="-2.36343">
        <ele>4.3</ele>
        <time>2018-09-21T13:03:09.000Z</time>
      </trkpt>
      <trkpt lat="46.73027" lon="-2.36345">
        <ele>4.2</ele>
        <time>2018-09-21T13:03:10.000Z</time>
      </trkpt>
      <trkpt lat="46.73027" lon="-2.36346">
        <ele>4.2</ele>
        <time>2018-09-21T13:03:11.000Z</time>
      </trkpt>
      <trkpt lat="46.73028" lon="-2.36348">
        <ele>4.2</ele>
        <time>2018-09-21T13:03:12.000Z</time>
      </trkpt>
      <trkpt lat="46.73028" lon="-2.36349">
        <ele>4.1</ele>
        <time>2018-09-21T13:03:13.000Z</time>
      </trkpt>
      <trkpt lat="46.73029" lon="-2.3635">
        <ele>4.1</ele>
        <time>2018-09-21T13:03:14.000Z</time>
      </trkpt>
      <trkpt lat="46.73029" lon="-2.36352">
        <ele>4</ele>
        <time>2018-09-21T13:03:15.000Z</time>
      </trkpt>
      <trkpt lat="46.7303" lon="-2.36353">
        <ele>4</ele>
        <time>2018-09-21T13:03:16.000Z</time>
      </trkpt>
      <trkpt lat="46.73031" lon="-2.36354">
        <ele>3.9</ele>
        <time>2018-09-21T13:03:17.000Z</time>
      </trkpt>
      <trkpt lat="46.73031" lon="-2.36355">
        <ele>3.9</ele>
        <time>2018-09-21T13:03:18.000Z</time>
      </trkpt>
      <trkpt lat="46.73032" lon="-2.36357">
        <ele>3.9</ele>
        <time>2018-09-21T13:03:19.000Z</time>
      </trkpt>
      <trkpt lat="46.73032" lon="-2.36358">
        <ele>3.8</ele>
        <time>2018-09-21T13:03:20.000Z</time>
      </trkpt>
      <trkpt lat="46.73033" lon="-2.36359">
        <ele>3.8</ele>
        <time>2018-09-21T13:03:21.000Z</time>
      </trkpt>
      <trkpt lat="46.73034" lon="-2.36361">
        <ele>3.7</ele>
        <time>2018-09-21T13:03:22.000Z</time>
      </trkpt>
      <trkpt lat="46.73034" lon="-2.36362">
        <ele>3.7</ele>
        <time>2018-09-21T13:03:23.000Z</time>
      </trkpt>
      <trkpt lat="46.73035" lon="-2.36363">
        <ele>3.6</ele>
        <time>2018-09-21T13:03:24.000Z</time>
      </trkpt>
      <trkpt lat="46.73036" lon="-2.36365">
        <ele>3.6</ele>
        <time>2018-09-21T13:03:25.000Z</time>
      </trkpt>
      <trkpt lat="46.73036" lon="-2.36366">
        <ele>3.6</ele>
        <time>2018-09-21T13:03:26.000Z</time>
      </trkpt>
      <trkpt lat="46.73037" lon="-2.36368">
        <ele>3.5</ele>
        <time>2018-09-21T13:03:27.000Z</time>
      </trkpt>
      <trkpt lat="46.73037" lon="-2.36369">
        <ele>3.5</ele>
        <time>2018-09-21T13:03:28.000Z</time>
      </trkpt>
      <trkpt lat="46.73038" lon="-2.36371">
        <ele>3.4</ele>
        <time>2018-09-21T13:03:29.000Z</time>
      </trkpt>
      <trkpt lat="46.73039" lon="-2.36372">
        <ele>3.4</ele>
        <time>2018-09-21T13:03:30.000Z</time>
      </trkpt>
      <trkpt lat="46.73039" lon="-2.36374">
        <ele>3.4</ele>
        <time>2018-09-21T13:03:31.000Z</time>
      </trkpt>
      <trkpt lat="46.7304" lon="-2.36376">
        <ele>3.3</ele>
        <time>2018-09-21T13:03:32.000Z</time>
      </trkpt>
      <trkpt lat="46.7304" lon="-2.36377">
        <ele>3.3</ele>
        <time>2018-09-21T13:03:33.000Z</time>
      </trkpt>
      <trkpt lat="46.73041" lon="-2.36379">
        <ele>3.3</ele>
        <time>2018-09-21T13:03:34.000Z</time>
      </trkpt>
      <trkpt lat="46.73041" lon="-2.36381">
        <ele>3.2</ele>
        <time>2018-09-21T13:03:35.000Z</time>
      </trkpt>
      <trkpt lat="46.73042" lon="-2.36382">
        <ele>3.2</ele>
        <time>2018-09-21T13:03:36.000Z</time>
      </trkpt>
      <trkpt lat="46.73042" lon="-2.36384">
        <ele>3.2</ele>
        <time>2018-09-21T13:03:37.000Z</time>
      </trkpt>
      <trkpt lat="46.73042" lon="-2.36386">
        <ele>3.2</ele>
        <time>2018-09-21T13:03:38.000Z</time>
      </trkpt>
      <trkpt lat="46.73042" lon="-2.36388">
        <ele>3.1</ele>
        <time>2018-09-21T13:03:39.000Z</time>
      </trkpt>
      <trkpt lat="46.73043" lon="-2.36389">
        <ele>3.1</ele>
        <time>2018-09-21T13:03:40.000Z</time>
      </trkpt>
      <trkpt lat="46.73043" lon="-2.36391">
        <ele>3.1</ele>
        <time>2018-09-21T13:03:41.000Z</time>
      </trkpt>
      <trkpt lat="46.73043" lon="-2.36393">
        <ele>3.1</ele>
        <time>2018-09-21T13:03:42.000Z</time>
      </trkpt>
      <trkpt lat="46.73043" lon="-2.36395">
        <ele>3.1</ele>
        <time>2018-09-21T13:03:43.000Z</time>
      </trkpt>
      <trkpt lat="46.73044" lon="-2.36396">
        <ele>3.1</ele>
        <time>2018-09-21T13:03:44.000Z</time>
      </trkpt>
      <trkpt lat="46.73044" lon="-2.36398">
        <ele>3</ele>
        <time>2018-09-21T13:03:45.000Z</time>
      </trkpt>
      <trkpt lat="46.73044" lon="-2.364">
        <ele>3</ele>
        <time>2018-09-21T13:03:46.000Z</time>
      </trkpt>
      <trkpt lat="46.73045" lon="-2.36401">
        <ele>3</ele>
        <time>2018-09-21T13:03:47.000Z</time>
      </trkpt>
      <trkpt lat="46.73045" lon="-2.36403">
        <ele>3</ele>
        <time>2018-09-21T13:03:48.000Z</time>
      </trkpt>
      <trkpt lat="46.73046" lon="-2.36404">
        <ele>3</ele>
        <time>2018-09-21T13:03:49.000Z</time>
      </trkpt>
      <trkpt lat="46.73046" lon="-2.36405">
        <ele>2.9</ele>
        <time>2018-09-21T13:03:50.000Z</time>
      </trkpt>
      <trkpt lat="46.73047" lon="-2.36407">
        <ele>2.9</ele>
        <time>2018-09-21T13:03:51.000Z</time>
      </trkpt>
      <trkpt lat="46.73048" lon="-2.36408">
        <ele>2.9</ele>
        <time>2018-09-21T13:03:52.000Z</time>
      </trkpt>
      <trkpt lat="46.73048" lon="-2.3641">
        <ele>2.9</ele>
        <time>2018-09-21T13:03:53.000Z</time>
      </trkpt>
      <trkpt lat="46.73049" lon="-2.36411">
        <ele>2.8</ele>
        <time>2018-09-21T13:03:54.000Z</time>
      </trkpt>
      <trkpt lat="46.7305" lon="-2.36412">
        <ele>2.8</ele>
        <time>2018-09-21T13:03:55.000Z</time>
      </trkpt>
      <trkpt lat="46.73051" lon="-2.36414">
        <ele>2.8</ele>
        <time>2018-09-21T13:03:56.000Z</time>
      </trkpt>
      <trkpt lat="46.73051" lon="-2.36415">
        <ele>2.8</ele>
        <time>2018-09-21T13:03:57.000Z</time>
      </trkpt>
      <trkpt lat="46.73052" lon="-2.36417">
        <ele>2.8</ele>
        <time>2018-09-21T13:03:58.000Z</time>
      </trkpt>
      <trkpt lat="46.73053" lon="-2.36418">
        <ele>2.7</ele>
        <time>2018-09-21T13:03:59.000Z</time>
      </trkpt>
      <trkpt lat="46.73053" lon="-2.3642">
        <ele>2.7</ele>
        <time>2018-09-21T13:04:00.000Z</time>
      </trkpt>
      <trkpt lat="46.73054" lon="-2.36421">
        <ele>2.7</ele>
        <time>2018-09-21T13:04:01.000Z</time>
      </trkpt>
      <trkpt lat="46.73055" lon="-2.36423">
        <ele>2.7</ele>
        <time>2018-09-21T13:04:02.000Z</time>
      </trkpt>
      <trkpt lat="46.73055" lon="-2.36424">
        <ele>2.7</ele>
        <time>2018-09-21T13:04:03.000Z</time>
      </trkpt>
      <trkpt lat="46.73056" lon="-2.36426">
        <ele>2.7</ele>
        <time>2018-09-21T13:04:04.000Z</time>
      </trkpt>
      <trkpt lat="46.73057" lon="-2.36427">
        <ele>2.6</ele>
        <time>2018-09-21T13:04:05.000Z</time>
      </trkpt>
      <trkpt lat="46.73058" lon="-2.36428">
        <ele>2.6</ele>
        <time>2018-09-21T13:04:06.000Z</time>
      </trkpt>
      <trkpt lat="46.73058" lon="-2.3643">
        <ele>2.6</ele>
        <time>2018-09-21T13:04:07.000Z</time>
      </trkpt>
      <trkpt lat="46.73059" lon="-2.36431">
        <ele>2.6</ele>
        <time>2018-09-21T13:04:08.000Z</time>
      </trkpt>
      <trkpt lat="46.7306" lon="-2.36432">
        <ele>2.6</ele>
        <time>2018-09-21T13:04:09.000Z</time>
      </trkpt>
      <trkpt lat="46.73061" lon="-2.36433">
        <ele>2.6</ele>
        <time>2018-09-21T13:04:10.000Z</time>
      </trkpt>
      <trkpt lat="46.73061" lon="-2.36434">
        <ele>2.6</ele>
        <time>2018-09-21T13:04:11.000Z</time>
      </trkpt>
      <trkpt lat="46.73062" lon="-2.36435">
        <ele>2.6</ele>
        <time>2018-09-21T13:04:12.000Z</time>
      </trkpt>
      <trkpt lat="46.73063" lon="-2.36436">
        <ele>2.5</ele>
        <time>2018-09-21T13:04:13.000Z</time>
      </trkpt>
      <trkpt lat="46.73064" lon="-2.36437">
        <ele>2.5</ele>
        <time>2018-09-21T13:04:14.000Z</time>
      </trkpt>
      <trkpt lat="46.73065" lon="-2.36438">
        <ele>2.5</ele>
        <time>2018-09-21T13:04:15.000Z</time>
      </trkpt>
      <trkpt lat="46.73066" lon="-2.36439">
        <ele>2.5</ele>
        <time>2018-09-21T13:04:16.000Z</time>
      </trkpt>
      <trkpt lat="46.73067" lon="-2.3644">
        <ele>2.5</ele>
        <time>2018-09-21T13:04:17.000Z</time>
      </trkpt>
      <trkpt lat="46.73069" lon="-2.36441">
        <ele>2.5</ele>
        <time>2018-09-21T13:04:18.000Z</time>
      </trkpt>
      <trkpt lat="46.73069" lon="-2.36442">
        <ele>2.5</ele>
        <time>2018-09-21T13:04:19.000Z</time>
      </trkpt>
      <trkpt lat="46.7307" lon="-2.36442">
        <ele>2.5</ele>
        <time>2018-09-21T13:04:20.000Z</time>
      </trkpt>
      <trkpt lat="46.73071" lon="-2.36443">
        <ele>2.5</ele>
        <time>2018-09-21T13:04:21.000Z</time>
      </trkpt>
      <trkpt lat="46.73071" lon="-2.36444">
        <ele>2.5</ele>
        <time>2018-09-21T13:04:22.000Z</time>
      </trkpt>
      <trkpt lat="46.73072" lon="-2.36445">
        <ele>2.5</ele>
        <time>2018-09-21T13:04:23.000Z</time>
      </trkpt>
      <trkpt lat="46.73072" lon="-2.36445">
        <ele>2.5</ele>
        <time>2018-09-21T13:04:24.000Z</time>
      </trkpt>
      <trkpt lat="46.73072" lon="-2.36446">
        <ele>2.5</ele>
        <time>2018-09-21T13:04:25.000Z</time>
      </trkpt>
      <trkpt lat="46.73073" lon="-2.36446">
        <ele>2.5</ele>
        <time>2018-09-21T13:04:26.000Z</time>
      </trkpt>
      <trkpt lat="46.73073" lon="-2.36447">
        <ele>2.5</ele>
        <time>2018-09-21T13:04:27.000Z</time>
      </trkpt>
      <trkpt lat="46.73074" lon="-2.36448">
        <ele>2.5</ele>
        <time>2018-09-21T13:04:28.000Z</time>
      </trkpt>
      <trkpt lat="46.73074" lon="-2.36449">
        <ele>2.5</ele>
        <time>2018-09-21T13:04:29.000Z</time>
      </trkpt>
      <trkpt lat="46.73075" lon="-2.36449">
        <ele>2.5</ele>
        <time>2018-09-21T13:04:30.000Z</time>
      </trkpt>
      <trkpt lat="46.73075" lon="-2.3645">
        <ele>2.5</ele>
        <time>2018-09-21T13:04:31.000Z</time>
      </trkpt>
      <trkpt lat="46.73076" lon="-2.36451">
        <ele>2.5</ele>
        <time>2018-09-21T13:04:32.000Z</time>
      </trkpt>
      <trkpt lat="46.73077" lon="-2.36452">
        <ele>2.5</ele>
        <time>2018-09-21T13:04:33.000Z</time>
      </trkpt>
      <trkpt lat="46.73078" lon="-2.36453">
        <ele>2.5</ele>
        <time>2018-09-21T13:04:34.000Z</time>
      </trkpt>
      <trkpt lat="46.73079" lon="-2.36454">
        <ele>2.5</ele>
        <time>2018-09-21T13:04:35.000Z</time>
      </trkpt>
      <trkpt lat="46.73079" lon="-2.36455">
        <ele>2.5</ele>
        <time>2018-09-21T13:04:36.000Z</time>
      </trkpt>
      <trkpt lat="46.7308" lon="-2.36456">
        <ele>2.5</ele>
        <time>2018-09-21T13:04:37.000Z</time>
      </trkpt>
      <trkpt lat="46.73081" lon="-2.36458">
        <ele>2.5</ele>
        <time>2018-09-21T13:04:38.000Z</time>
      </trkpt>
      <trkpt lat="46.73082" lon="-2.36459">
        <ele>2.5</ele>
        <time>2018-09-21T13:04:39.000Z</time>
      </trkpt>
      <trkpt lat="46.73083" lon="-2.3646">
        <ele>2.5</ele>
        <time>2018-09-21T13:04:40.000Z</time>
      </trkpt>
      <trkpt lat="46.73084" lon="-2.36462">
        <ele>2.5</ele>
        <time>2018-09-21T13:04:41.000Z</time>
      </trkpt>
      <trkpt lat="46.73084" lon="-2.36463">
        <ele>2.5</ele>
        <time>2018-09-21T13:04:42.000Z</time>
      </trkpt>
      <trkpt lat="46.73085" lon="-2.36464">
        <ele>2.5</ele>
        <time>2018-09-21T13:04:43.000Z</time>
      </trkpt>
      <trkpt lat="46.73086" lon="-2.36466">
        <ele>2.5</ele>
        <time>2018-09-21T13:04:44.000Z</time>
      </trkpt>
      <trkpt lat="46.73087" lon="-2.36467">
        <ele>2.5</ele>
        <time>2018-09-21T13:04:45.000Z</time>
      </trkpt>
      <trkpt lat="46.73087" lon="-2.36469">
        <ele>2.5</ele>
        <time>2018-09-21T13:04:46.000Z</time>
      </trkpt>
      <trkpt lat="46.73088" lon="-2.3647">
        <ele>2.5</ele>
        <time>2018-09-21T13:04:47.000Z</time>
      </trkpt>
      <trkpt lat="46.73088" lon="-2.36471">
        <ele>2.5</ele>
        <time>2018-09-21T13:04:48.000Z</time>
      </trkpt>
      <trkpt lat="46.73089" lon="-2.36473">
        <ele>2.5</ele>
        <time>2018-09-21T13:04:49.000Z</time>
      </trkpt>
      <trkpt lat="46.73089" lon="-2.36474">
        <ele>2.5</ele>
        <time>2018-09-21T13:04:50.000Z</time>
      </trkpt>
      <trkpt lat="46.7309" lon="-2.36476">
        <ele>2.5</ele>
        <time>2018-09-21T13:04:51.000Z</time>
      </trkpt>
      <trkpt lat="46.7309" lon="-2.36477">
        <ele>2.5</ele>
        <time>2018-09-21T13:04:52.000Z</time>
      </trkpt>
      <trkpt lat="46.7309" lon="-2.36479">
        <ele>2.5</ele>
        <time>2018-09-21T13:04:53.000Z</time>
      </trkpt>
      <trkpt lat="46.7309" lon="-2.3648">
        <ele>2.5</ele>
        <time>2018-09-21T13:04:54.000Z</time>
      </trkpt>
      <trkpt lat="46.73091" lon="-2.36481">
        <ele>2.5</ele>
        <time>2018-09-21T13:04:55.000Z</time>
      </trkpt>
      <trkpt lat="46.73091" lon="-2.36482">
        <ele>2.5</ele>
        <time>2018-09-21T13:04:56.000Z</time>
      </trkpt>
      <trkpt lat="46.73092" lon="-2.36483">
        <ele>2.5</ele>
        <time>2018-09-21T13:04:57.000Z</time>
      </trkpt>
      <trkpt lat="46.73093" lon="-2.36483">
        <ele>2.5</ele>
        <time>2018-09-21T13:04:58.000Z</time>
      </trkpt>
      <trkpt lat="46.73094" lon="-2.36483">
        <ele>2.4</ele>
        <time>2018-09-21T13:04:59.000Z</time>
      </trkpt>
      <trkpt lat="46.73095" lon="-2.36483">
        <ele>2.4</ele>
        <time>2018-09-21T13:05:00.000Z</time>
      </trkpt>
      <trkpt lat="46.73095" lon="-2.36483">
        <ele>2.4</ele>
        <time>2018-09-21T13:05:01.000Z</time>
      </trkpt>
      <trkpt lat="46.73095" lon="-2.36483">
        <ele>2.4</ele>
        <time>2018-09-21T13:05:02.000Z</time>
      </trkpt>
      <trkpt lat="46.73095" lon="-2.36483">
        <ele>2.4</ele>
        <time>2018-09-21T13:05:03.000Z</time>
      </trkpt>
      <trkpt lat="46.73095" lon="-2.36483">
        <ele>2.4</ele>
        <time>2018-09-21T13:05:04.000Z</time>
      </trkpt>
      <trkpt lat="46.73095" lon="-2.36482">
        <ele>2.4</ele>
        <time>2018-09-21T13:05:05.000Z</time>
      </trkpt>
      <trkpt lat="46.73095" lon="-2.36482">
        <ele>2.4</ele>
        <time>2018-09-21T13:05:06.000Z</time>
      </trkpt>
      <trkpt lat="46.73096" lon="-2.36482">
        <ele>2.3</ele>
        <time>2018-09-21T13:05:07.000Z</time>
      </trkpt>
      <trkpt lat="46.73096" lon="-2.36482">
        <ele>2.3</ele>
        <time>2018-09-21T13:05:08.000Z</time>
      </trkpt>
      <trkpt lat="46.73097" lon="-2.36482">
        <ele>2.3</ele>
        <time>2018-09-21T13:05:09.000Z</time>
      </trkpt>
      <trkpt lat="46.73097" lon="-2.36481">
        <ele>2.3</ele>
        <time>2018-09-21T13:05:10.000Z</time>
      </trkpt>
      <trkpt lat="46.73098" lon="-2.36481">
        <ele>2.3</ele>
        <time>2018-09-21T13:05:11.000Z</time>
      </trkpt>
      <trkpt lat="46.73099" lon="-2.36481">
        <ele>2.2</ele>
        <time>2018-09-21T13:05:12.000Z</time>
      </trkpt>
      <trkpt lat="46.73099" lon="-2.36481">
        <ele>2.2</ele>
        <time>2018-09-21T13:05:13.000Z</time>
      </trkpt>
      <trkpt lat="46.731" lon="-2.36481">
        <ele>2.2</ele>
        <time>2018-09-21T13:05:14.000Z</time>
      </trkpt>
      <trkpt lat="46.73101" lon="-2.36481">
        <ele>2.1</ele>
        <time>2018-09-21T13:05:15.000Z</time>
      </trkpt>
      <trkpt lat="46.73102" lon="-2.36482">
        <ele>2.1</ele>
        <time>2018-09-21T13:05:16.000Z</time>
      </trkpt>
      <trkpt lat="46.73103" lon="-2.36482">
        <ele>2.1</ele>
        <time>2018-09-21T13:05:17.000Z</time>
      </trkpt>
      <trkpt lat="46.73103" lon="-2.36482">
        <ele>2.1</ele>
        <time>2018-09-21T13:05:18.000Z</time>
      </trkpt>
      <trkpt lat="46.73104" lon="-2.36482">
        <ele>2</ele>
        <time>2018-09-21T13:05:19.000Z</time>
      </trkpt>
      <trkpt lat="46.73105" lon="-2.36483">
        <ele>2</ele>
        <time>2018-09-21T13:05:20.000Z</time>
      </trkpt>
      <trkpt lat="46.73105" lon="-2.36483">
        <ele>2</ele>
        <time>2018-09-21T13:05:21.000Z</time>
      </trkpt>
      <trkpt lat="46.73106" lon="-2.36484">
        <ele>2</ele>
        <time>2018-09-21T13:05:22.000Z</time>
      </trkpt>
      <trkpt lat="46.73107" lon="-2.36484">
        <ele>2</ele>
        <time>2018-09-21T13:05:23.000Z</time>
      </trkpt>
      <trkpt lat="46.73107" lon="-2.36485">
        <ele>2</ele>
        <time>2018-09-21T13:05:24.000Z</time>
      </trkpt>
      <trkpt lat="46.73108" lon="-2.36485">
        <ele>1.9</ele>
        <time>2018-09-21T13:05:25.000Z</time>
      </trkpt>
      <trkpt lat="46.73108" lon="-2.36486">
        <ele>1.9</ele>
        <time>2018-09-21T13:05:26.000Z</time>
      </trkpt>
      <trkpt lat="46.73109" lon="-2.36486">
        <ele>1.9</ele>
        <time>2018-09-21T13:05:27.000Z</time>
      </trkpt>
      <trkpt lat="46.73109" lon="-2.36487">
        <ele>1.9</ele>
        <time>2018-09-21T13:05:28.000Z</time>
      </trkpt>
      <trkpt lat="46.73109" lon="-2.36487">
        <ele>1.9</ele>
        <time>2018-09-21T13:05:29.000Z</time>
      </trkpt>
      <trkpt lat="46.7311" lon="-2.36488">
        <ele>1.9</ele>
        <time>2018-09-21T13:05:30.000Z</time>
      </trkpt>
      <trkpt lat="46.7311" lon="-2.36488">
        <ele>1.9</ele>
        <time>2018-09-21T13:05:31.000Z</time>
      </trkpt>
      <trkpt lat="46.73111" lon="-2.36489">
        <ele>1.9</ele>
        <time>2018-09-21T13:05:32.000Z</time>
      </trkpt>
      <trkpt lat="46.73112" lon="-2.36489">
        <ele>1.9</ele>
        <time>2018-09-21T13:05:33.000Z</time>
      </trkpt>
      <trkpt lat="46.73112" lon="-2.36489">
        <ele>1.8</ele>
        <time>2018-09-21T13:05:34.000Z</time>
      </trkpt>
      <trkpt lat="46.73113" lon="-2.3649">
        <ele>1.8</ele>
        <time>2018-09-21T13:05:35.000Z</time>
      </trkpt>
      <trkpt lat="46.73113" lon="-2.36491">
        <ele>1.8</ele>
        <time>2018-09-21T13:05:36.000Z</time>
      </trkpt>
      <trkpt lat="46.73114" lon="-2.36492">
        <ele>1.8</ele>
        <time>2018-09-21T13:05:37.000Z</time>
      </trkpt>
      <trkpt lat="46.73115" lon="-2.36493">
        <ele>1.8</ele>
        <time>2018-09-21T13:05:38.000Z</time>
      </trkpt>
      <trkpt lat="46.73116" lon="-2.36494">
        <ele>1.8</ele>
        <time>2018-09-21T13:05:39.000Z</time>
      </trkpt>
      <trkpt lat="46.73116" lon="-2.36495">
        <ele>1.8</ele>
        <time>2018-09-21T13:05:40.000Z</time>
      </trkpt>
      <trkpt lat="46.73117" lon="-2.36496">
        <ele>1.7</ele>
        <time>2018-09-21T13:05:41.000Z</time>
      </trkpt>
      <trkpt lat="46.73118" lon="-2.36498">
        <ele>1.7</ele>
        <time>2018-09-21T13:05:42.000Z</time>
      </trkpt>
      <trkpt lat="46.73118" lon="-2.36499">
        <ele>1.7</ele>
        <time>2018-09-21T13:05:43.000Z</time>
      </trkpt>
      <trkpt lat="46.73119" lon="-2.365">
        <ele>1.7</ele>
        <time>2018-09-21T13:05:44.000Z</time>
      </trkpt>
      <trkpt lat="46.73119" lon="-2.36501">
        <ele>1.7</ele>
        <time>2018-09-21T13:05:45.000Z</time>
      </trkpt>
      <trkpt lat="46.7312" lon="-2.36502">
        <ele>1.7</ele>
        <time>2018-09-21T13:05:46.000Z</time>
      </trkpt>
      <trkpt lat="46.7312" lon="-2.36504">
        <ele>1.7</ele>
        <time>2018-09-21T13:05:47.000Z</time>
      </trkpt>
      <trkpt lat="46.73121" lon="-2.36505">
        <ele>1.7</ele>
        <time>2018-09-21T13:05:48.000Z</time>
      </trkpt>
      <trkpt lat="46.73121" lon="-2.36506">
        <ele>1.7</ele>
        <time>2018-09-21T13:05:49.000Z</time>
      </trkpt>
      <trkpt lat="46.73121" lon="-2.36508">
        <ele>1.7</ele>
        <time>2018-09-21T13:05:50.000Z</time>
      </trkpt>
      <trkpt lat="46.73121" lon="-2.36509">
        <ele>1.7</ele>
        <time>2018-09-21T13:05:51.000Z</time>
      </trkpt>
      <trkpt lat="46.73122" lon="-2.36511">
        <ele>1.7</ele>
        <time>2018-09-21T13:05:52.000Z</time>
      </trkpt>
      <trkpt lat="46.73122" lon="-2.36512">
        <ele>1.7</ele>
        <time>2018-09-21T13:05:53.000Z</time>
      </trkpt>
      <trkpt lat="46.73122" lon="-2.36514">
        <ele>1.7</ele>
        <time>2018-09-21T13:05:54.000Z</time>
      </trkpt>
      <trkpt lat="46.73122" lon="-2.36515">
        <ele>1.7</ele>
        <time>2018-09-21T13:05:55.000Z</time>
      </trkpt>
      <trkpt lat="46.73123" lon="-2.36516">
        <ele>1.7</ele>
        <time>2018-09-21T13:05:56.000Z</time>
      </trkpt>
      <trkpt lat="46.73123" lon="-2.36518">
        <ele>1.7</ele>
        <time>2018-09-21T13:05:57.000Z</time>
      </trkpt>
      <trkpt lat="46.73123" lon="-2.36519">
        <ele>1.7</ele>
        <time>2018-09-21T13:05:58.000Z</time>
      </trkpt>
      <trkpt lat="46.73123" lon="-2.36521">
        <ele>1.7</ele>
        <time>2018-09-21T13:05:59.000Z</time>
      </trkpt>
      <trkpt lat="46.73124" lon="-2.36522">
        <ele>1.7</ele>
        <time>2018-09-21T13:06:00.000Z</time>
      </trkpt>
      <trkpt lat="46.73124" lon="-2.36524">
        <ele>1.7</ele>
        <time>2018-09-21T13:06:01.000Z</time>
      </trkpt>
      <trkpt lat="46.73124" lon="-2.36525">
        <ele>1.7</ele>
        <time>2018-09-21T13:06:02.000Z</time>
      </trkpt>
      <trkpt lat="46.73125" lon="-2.36526">
        <ele>1.7</ele>
        <time>2018-09-21T13:06:03.000Z</time>
      </trkpt>
      <trkpt lat="46.73125" lon="-2.36527">
        <ele>1.7</ele>
        <time>2018-09-21T13:06:04.000Z</time>
      </trkpt>
      <trkpt lat="46.73126" lon="-2.36529">
        <ele>1.6</ele>
        <time>2018-09-21T13:06:05.000Z</time>
      </trkpt>
      <trkpt lat="46.73126" lon="-2.3653">
        <ele>1.6</ele>
        <time>2018-09-21T13:06:06.000Z</time>
      </trkpt>
      <trkpt lat="46.73127" lon="-2.36531">
        <ele>1.6</ele>
        <time>2018-09-21T13:06:07.000Z</time>
      </trkpt>
      <trkpt lat="46.73127" lon="-2.36533">
        <ele>1.6</ele>
        <time>2018-09-21T13:06:08.000Z</time>
      </trkpt>
      <trkpt lat="46.73128" lon="-2.36534">
        <ele>1.6</ele>
        <time>2018-09-21T13:06:09.000Z</time>
      </trkpt>
      <trkpt lat="46.73128" lon="-2.36535">
        <ele>1.6</ele>
        <time>2018-09-21T13:06:10.000Z</time>
      </trkpt>
      <trkpt lat="46.73129" lon="-2.36536">
        <ele>1.6</ele>
        <time>2018-09-21T13:06:11.000Z</time>
      </trkpt>
      <trkpt lat="46.73129" lon="-2.36538">
        <ele>1.6</ele>
        <time>2018-09-21T13:06:12.000Z</time>
      </trkpt>
      <trkpt lat="46.7313" lon="-2.36539">
        <ele>1.6</ele>
        <time>2018-09-21T13:06:13.000Z</time>
      </trkpt>
      <trkpt lat="46.7313" lon="-2.3654">
        <ele>1.6</ele>
        <time>2018-09-21T13:06:14.000Z</time>
      </trkpt>
      <trkpt lat="46.73131" lon="-2.36542">
        <ele>1.6</ele>
        <time>2018-09-21T13:06:15.000Z</time>
      </trkpt>
      <trkpt lat="46.73131" lon="-2.36543">
        <ele>1.6</ele>
        <time>2018-09-21T13:06:16.000Z</time>
      </trkpt>
      <trkpt lat="46.73132" lon="-2.36544">
        <ele>1.6</ele>
        <time>2018-09-21T13:06:17.000Z</time>
      </trkpt>
      <trkpt lat="46.73132" lon="-2.36545">
        <ele>1.6</ele>
        <time>2018-09-21T13:06:18.000Z</time>
      </trkpt>
      <trkpt lat="46.73133" lon="-2.36547">
        <ele>1.5</ele>
        <time>2018-09-21T13:06:19.000Z</time>
      </trkpt>
      <trkpt lat="46.73133" lon="-2.36548">
        <ele>1.5</ele>
        <time>2018-09-21T13:06:20.000Z</time>
      </trkpt>
      <trkpt lat="46.73134" lon="-2.36549">
        <ele>1.5</ele>
        <time>2018-09-21T13:06:21.000Z</time>
      </trkpt>
      <trkpt lat="46.73134" lon="-2.36551">
        <ele>1.5</ele>
        <time>2018-09-21T13:06:22.000Z</time>
      </trkpt>
      <trkpt lat="46.73134" lon="-2.36552">
        <ele>1.5</ele>
        <time>2018-09-21T13:06:23.000Z</time>
      </trkpt>
      <trkpt lat="46.73135" lon="-2.36553">
        <ele>1.5</ele>
        <time>2018-09-21T13:06:24.000Z</time>
      </trkpt>
      <trkpt lat="46.73135" lon="-2.36554">
        <ele>1.5</ele>
        <time>2018-09-21T13:06:25.000Z</time>
      </trkpt>
      <trkpt lat="46.73135" lon="-2.36556">
        <ele>1.6</ele>
        <time>2018-09-21T13:06:26.000Z</time>
      </trkpt>
      <trkpt lat="46.73135" lon="-2.36557">
        <ele>1.6</ele>
        <time>2018-09-21T13:06:27.000Z</time>
      </trkpt>
      <trkpt lat="46.73135" lon="-2.36558">
        <ele>1.6</ele>
        <time>2018-09-21T13:06:28.000Z</time>
      </trkpt>
      <trkpt lat="46.73135" lon="-2.3656">
        <ele>1.6</ele>
        <time>2018-09-21T13:06:29.000Z</time>
      </trkpt>
      <trkpt lat="46.73135" lon="-2.36561">
        <ele>1.6</ele>
        <time>2018-09-21T13:06:30.000Z</time>
      </trkpt>
      <trkpt lat="46.73135" lon="-2.36562">
        <ele>1.6</ele>
        <time>2018-09-21T13:06:31.000Z</time>
      </trkpt>
      <trkpt lat="46.73135" lon="-2.36564">
        <ele>1.6</ele>
        <time>2018-09-21T13:06:32.000Z</time>
      </trkpt>
      <trkpt lat="46.73135" lon="-2.36565">
        <ele>1.6</ele>
        <time>2018-09-21T13:06:33.000Z</time>
      </trkpt>
      <trkpt lat="46.73135" lon="-2.36566">
        <ele>1.6</ele>
        <time>2018-09-21T13:06:34.000Z</time>
      </trkpt>
      <trkpt lat="46.73135" lon="-2.36567">
        <ele>1.6</ele>
        <time>2018-09-21T13:06:35.000Z</time>
      </trkpt>
      <trkpt lat="46.73135" lon="-2.36569">
        <ele>1.7</ele>
        <time>2018-09-21T13:06:36.000Z</time>
      </trkpt>
      <trkpt lat="46.73134" lon="-2.3657">
        <ele>1.7</ele>
        <time>2018-09-21T13:06:37.000Z</time>
      </trkpt>
      <trkpt lat="46.73134" lon="-2.36571">
        <ele>1.7</ele>
        <time>2018-09-21T13:06:38.000Z</time>
      </trkpt>
      <trkpt lat="46.73134" lon="-2.36572">
        <ele>1.7</ele>
        <time>2018-09-21T13:06:39.000Z</time>
      </trkpt>
      <trkpt lat="46.73133" lon="-2.36574">
        <ele>1.7</ele>
        <time>2018-09-21T13:06:40.000Z</time>
      </trkpt>
      <trkpt lat="46.73133" lon="-2.36575">
        <ele>1.7</ele>
        <time>2018-09-21T13:06:41.000Z</time>
      </trkpt>
      <trkpt lat="46.73133" lon="-2.36576">
        <ele>1.8</ele>
        <time>2018-09-21T13:06:42.000Z</time>
      </trkpt>
      <trkpt lat="46.73132" lon="-2.36577">
        <ele>1.8</ele>
        <time>2018-09-21T13:06:43.000Z</time>
      </trkpt>
      <trkpt lat="46.73132" lon="-2.36578">
        <ele>1.8</ele>
        <time>2018-09-21T13:06:44.000Z</time>
      </trkpt>
      <trkpt lat="46.73132" lon="-2.36579">
        <ele>1.8</ele>
        <time>2018-09-21T13:06:45.000Z</time>
      </trkpt>
      <trkpt lat="46.73131" lon="-2.3658">
        <ele>1.8</ele>
        <time>2018-09-21T13:06:46.000Z</time>
      </trkpt>
      <trkpt lat="46.73131" lon="-2.36581">
        <ele>1.8</ele>
        <time>2018-09-21T13:06:47.000Z</time>
      </trkpt>
      <trkpt lat="46.73131" lon="-2.36581">
        <ele>1.9</ele>
        <time>2018-09-21T13:06:48.000Z</time>
      </trkpt>
      <trkpt lat="46.7313" lon="-2.36582">
        <ele>1.9</ele>
        <time>2018-09-21T13:06:49.000Z</time>
      </trkpt>
      <trkpt lat="46.7313" lon="-2.36583">
        <ele>1.9</ele>
        <time>2018-09-21T13:06:50.000Z</time>
      </trkpt>
      <trkpt lat="46.7313" lon="-2.36584">
        <ele>1.9</ele>
        <time>2018-09-21T13:06:51.000Z</time>
      </trkpt>
      <trkpt lat="46.73129" lon="-2.36584">
        <ele>1.9</ele>
        <time>2018-09-21T13:06:52.000Z</time>
      </trkpt>
      <trkpt lat="46.73129" lon="-2.36586">
        <ele>1.9</ele>
        <time>2018-09-21T13:06:53.000Z</time>
      </trkpt>
      <trkpt lat="46.73129" lon="-2.36587">
        <ele>1.9</ele>
        <time>2018-09-21T13:06:54.000Z</time>
      </trkpt>
      <trkpt lat="46.73129" lon="-2.36588">
        <ele>1.9</ele>
        <time>2018-09-21T13:06:55.000Z</time>
      </trkpt>
      <trkpt lat="46.73128" lon="-2.36589">
        <ele>1.9</ele>
        <time>2018-09-21T13:06:56.000Z</time>
      </trkpt>
      <trkpt lat="46.73128" lon="-2.3659">
        <ele>1.9</ele>
        <time>2018-09-21T13:06:57.000Z</time>
      </trkpt>
      <trkpt lat="46.73128" lon="-2.36591">
        <ele>1.9</ele>
        <time>2018-09-21T13:06:58.000Z</time>
      </trkpt>
      <trkpt lat="46.73127" lon="-2.36593">
        <ele>1.9</ele>
        <time>2018-09-21T13:06:59.000Z</time>
      </trkpt>
      <trkpt lat="46.73126" lon="-2.36594">
        <ele>2</ele>
        <time>2018-09-21T13:07:00.000Z</time>
      </trkpt>
      <trkpt lat="46.73126" lon="-2.36595">
        <ele>2</ele>
        <time>2018-09-21T13:07:01.000Z</time>
      </trkpt>
      <trkpt lat="46.73125" lon="-2.36596">
        <ele>2</ele>
        <time>2018-09-21T13:07:02.000Z</time>
      </trkpt>
      <trkpt lat="46.73125" lon="-2.36597">
        <ele>2</ele>
        <time>2018-09-21T13:07:03.000Z</time>
      </trkpt>
      <trkpt lat="46.73124" lon="-2.36598">
        <ele>2</ele>
        <time>2018-09-21T13:07:04.000Z</time>
      </trkpt>
      <trkpt lat="46.73124" lon="-2.366">
        <ele>2</ele>
        <time>2018-09-21T13:07:05.000Z</time>
      </trkpt>
      <trkpt lat="46.73124" lon="-2.36601">
        <ele>2</ele>
        <time>2018-09-21T13:07:06.000Z</time>
      </trkpt>
      <trkpt lat="46.73123" lon="-2.36602">
        <ele>2</ele>
        <time>2018-09-21T13:07:07.000Z</time>
      </trkpt>
      <trkpt lat="46.73123" lon="-2.36603">
        <ele>2.1</ele>
        <time>2018-09-21T13:07:08.000Z</time>
      </trkpt>
      <trkpt lat="46.73123" lon="-2.36604">
        <ele>2.1</ele>
        <time>2018-09-21T13:07:09.000Z</time>
      </trkpt>
      <trkpt lat="46.73123" lon="-2.36605">
        <ele>2.1</ele>
        <time>2018-09-21T13:07:10.000Z</time>
      </trkpt>
      <trkpt lat="46.73123" lon="-2.36606">
        <ele>2.1</ele>
        <time>2018-09-21T13:07:11.000Z</time>
      </trkpt>
      <trkpt lat="46.73123" lon="-2.36607">
        <ele>2.1</ele>
        <time>2018-09-21T13:07:12.000Z</time>
      </trkpt>
      <trkpt lat="46.73123" lon="-2.36608">
        <ele>2</ele>
        <time>2018-09-21T13:07:13.000Z</time>
      </trkpt>
      <trkpt lat="46.73124" lon="-2.36609">
        <ele>2</ele>
        <time>2018-09-21T13:07:14.000Z</time>
      </trkpt>
      <trkpt lat="46.73124" lon="-2.36611">
        <ele>2</ele>
        <time>2018-09-21T13:07:15.000Z</time>
      </trkpt>
      <trkpt lat="46.73124" lon="-2.36612">
        <ele>2</ele>
        <time>2018-09-21T13:07:16.000Z</time>
      </trkpt>
      <trkpt lat="46.73124" lon="-2.36613">
        <ele>2</ele>
        <time>2018-09-21T13:07:17.000Z</time>
      </trkpt>
      <trkpt lat="46.73125" lon="-2.36614">
        <ele>2</ele>
        <time>2018-09-21T13:07:18.000Z</time>
      </trkpt>
      <trkpt lat="46.73125" lon="-2.36615">
        <ele>2</ele>
        <time>2018-09-21T13:07:19.000Z</time>
      </trkpt>
      <trkpt lat="46.73125" lon="-2.36616">
        <ele>2</ele>
        <time>2018-09-21T13:07:20.000Z</time>
      </trkpt>
      <trkpt lat="46.73126" lon="-2.36618">
        <ele>2</ele>
        <time>2018-09-21T13:07:21.000Z</time>
      </trkpt>
      <trkpt lat="46.73126" lon="-2.36619">
        <ele>2</ele>
        <time>2018-09-21T13:07:22.000Z</time>
      </trkpt>
      <trkpt lat="46.73126" lon="-2.3662">
        <ele>2</ele>
        <time>2018-09-21T13:07:23.000Z</time>
      </trkpt>
      <trkpt lat="46.73126" lon="-2.36621">
        <ele>2</ele>
        <time>2018-09-21T13:07:24.000Z</time>
      </trkpt>
      <trkpt lat="46.73127" lon="-2.36623">
        <ele>1.9</ele>
        <time>2018-09-21T13:07:25.000Z</time>
      </trkpt>
      <trkpt lat="46.73127" lon="-2.36624">
        <ele>1.9</ele>
        <time>2018-09-21T13:07:26.000Z</time>
      </trkpt>
      <trkpt lat="46.73127" lon="-2.36626">
        <ele>1.9</ele>
        <time>2018-09-21T13:07:27.000Z</time>
      </trkpt>
      <trkpt lat="46.73127" lon="-2.36627">
        <ele>1.9</ele>
        <time>2018-09-21T13:07:28.000Z</time>
      </trkpt>
      <trkpt lat="46.73127" lon="-2.36628">
        <ele>1.9</ele>
        <time>2018-09-21T13:07:29.000Z</time>
      </trkpt>
      <trkpt lat="46.73127" lon="-2.3663">
        <ele>1.9</ele>
        <time>2018-09-21T13:07:30.000Z</time>
      </trkpt>
      <trkpt lat="46.73127" lon="-2.36631">
        <ele>1.9</ele>
        <time>2018-09-21T13:07:31.000Z</time>
      </trkpt>
      <trkpt lat="46.73127" lon="-2.36633">
        <ele>1.9</ele>
        <time>2018-09-21T13:07:32.000Z</time>
      </trkpt>
      <trkpt lat="46.73127" lon="-2.36634">
        <ele>1.9</ele>
        <time>2018-09-21T13:07:33.000Z</time>
      </trkpt>
      <trkpt lat="46.73127" lon="-2.36636">
        <ele>1.9</ele>
        <time>2018-09-21T13:07:34.000Z</time>
      </trkpt>
      <trkpt lat="46.73126" lon="-2.36637">
        <ele>1.9</ele>
        <time>2018-09-21T13:07:35.000Z</time>
      </trkpt>
      <trkpt lat="46.73126" lon="-2.36638">
        <ele>2</ele>
        <time>2018-09-21T13:07:36.000Z</time>
      </trkpt>
      <trkpt lat="46.73126" lon="-2.3664">
        <ele>2</ele>
        <time>2018-09-21T13:07:37.000Z</time>
      </trkpt>
      <trkpt lat="46.73126" lon="-2.36641">
        <ele>2</ele>
        <time>2018-09-21T13:07:38.000Z</time>
      </trkpt>
      <trkpt lat="46.73126" lon="-2.36643">
        <ele>2</ele>
        <time>2018-09-21T13:07:39.000Z</time>
      </trkpt>
      <trkpt lat="46.73126" lon="-2.36644">
        <ele>2</ele>
        <time>2018-09-21T13:07:40.000Z</time>
      </trkpt>
      <trkpt lat="46.73126" lon="-2.36646">
        <ele>1.9</ele>
        <time>2018-09-21T13:07:41.000Z</time>
      </trkpt>
      <trkpt lat="46.73127" lon="-2.36647">
        <ele>1.9</ele>
        <time>2018-09-21T13:07:42.000Z</time>
      </trkpt>
      <trkpt lat="46.73127" lon="-2.36649">
        <ele>1.9</ele>
        <time>2018-09-21T13:07:43.000Z</time>
      </trkpt>
      <trkpt lat="46.73128" lon="-2.3665">
        <ele>1.9</ele>
        <time>2018-09-21T13:07:44.000Z</time>
      </trkpt>
      <trkpt lat="46.73128" lon="-2.36651">
        <ele>1.9</ele>
        <time>2018-09-21T13:07:45.000Z</time>
      </trkpt>
      <trkpt lat="46.73129" lon="-2.36653">
        <ele>1.8</ele>
        <time>2018-09-21T13:07:46.000Z</time>
      </trkpt>
      <trkpt lat="46.73129" lon="-2.36654">
        <ele>1.8</ele>
        <time>2018-09-21T13:07:47.000Z</time>
      </trkpt>
      <trkpt lat="46.7313" lon="-2.36655">
        <ele>1.8</ele>
        <time>2018-09-21T13:07:48.000Z</time>
      </trkpt>
      <trkpt lat="46.7313" lon="-2.36656">
        <ele>1.8</ele>
        <time>2018-09-21T13:07:49.000Z</time>
      </trkpt>
      <trkpt lat="46.7313" lon="-2.36658">
        <ele>1.8</ele>
        <time>2018-09-21T13:07:50.000Z</time>
      </trkpt>
      <trkpt lat="46.7313" lon="-2.36659">
        <ele>1.8</ele>
        <time>2018-09-21T13:07:51.000Z</time>
      </trkpt>
      <trkpt lat="46.7313" lon="-2.3666">
        <ele>1.8</ele>
        <time>2018-09-21T13:07:52.000Z</time>
      </trkpt>
      <trkpt lat="46.7313" lon="-2.36661">
        <ele>1.8</ele>
        <time>2018-09-21T13:07:53.000Z</time>
      </trkpt>
      <trkpt lat="46.7313" lon="-2.36662">
        <ele>1.8</ele>
        <time>2018-09-21T13:07:54.000Z</time>
      </trkpt>
      <trkpt lat="46.7313" lon="-2.36664">
        <ele>1.8</ele>
        <time>2018-09-21T13:07:55.000Z</time>
      </trkpt>
      <trkpt lat="46.7313" lon="-2.36665">
        <ele>1.8</ele>
        <time>2018-09-21T13:07:56.000Z</time>
      </trkpt>
      <trkpt lat="46.7313" lon="-2.36666">
        <ele>1.8</ele>
        <time>2018-09-21T13:07:57.000Z</time>
      </trkpt>
      <trkpt lat="46.73131" lon="-2.36667">
        <ele>1.7</ele>
        <time>2018-09-21T13:07:58.000Z</time>
      </trkpt>
      <trkpt lat="46.73131" lon="-2.36668">
        <ele>1.7</ele>
        <time>2018-09-21T13:07:59.000Z</time>
      </trkpt>
      <trkpt lat="46.73131" lon="-2.36669">
        <ele>1.7</ele>
        <time>2018-09-21T13:08:00.000Z</time>
      </trkpt>
      <trkpt lat="46.73132" lon="-2.3667">
        <ele>1.7</ele>
        <time>2018-09-21T13:08:01.000Z</time>
      </trkpt>
      <trkpt lat="46.73132" lon="-2.36671">
        <ele>1.7</ele>
        <time>2018-09-21T13:08:02.000Z</time>
      </trkpt>
      <trkpt lat="46.73133" lon="-2.36672">
        <ele>1.7</ele>
        <time>2018-09-21T13:08:03.000Z</time>
      </trkpt>
      <trkpt lat="46.73133" lon="-2.36673">
        <ele>1.7</ele>
        <time>2018-09-21T13:08:04.000Z</time>
      </trkpt>
      <trkpt lat="46.73133" lon="-2.36673">
        <ele>1.7</ele>
        <time>2018-09-21T13:08:05.000Z</time>
      </trkpt>
      <trkpt lat="46.73134" lon="-2.36674">
        <ele>1.7</ele>
        <time>2018-09-21T13:08:06.000Z</time>
      </trkpt>
      <trkpt lat="46.73134" lon="-2.36675">
        <ele>1.7</ele>
        <time>2018-09-21T13:08:07.000Z</time>
      </trkpt>
      <trkpt lat="46.73135" lon="-2.36675">
        <ele>1.7</ele>
        <time>2018-09-21T13:08:08.000Z</time>
      </trkpt>
      <trkpt lat="46.73135" lon="-2.36676">
        <ele>1.6</ele>
        <time>2018-09-21T13:08:09.000Z</time>
      </trkpt>
      <trkpt lat="46.73136" lon="-2.36677">
        <ele>1.6</ele>
        <time>2018-09-21T13:08:10.000Z</time>
      </trkpt>
      <trkpt lat="46.73136" lon="-2.36677">
        <ele>1.6</ele>
        <time>2018-09-21T13:08:11.000Z</time>
      </trkpt>
      <trkpt lat="46.73137" lon="-2.36678">
        <ele>1.6</ele>
        <time>2018-09-21T13:08:12.000Z</time>
      </trkpt>
      <trkpt lat="46.73137" lon="-2.36679">
        <ele>1.6</ele>
        <time>2018-09-21T13:08:13.000Z</time>
      </trkpt>
      <trkpt lat="46.73138" lon="-2.36679">
        <ele>1.6</ele>
        <time>2018-09-21T13:08:14.000Z</time>
      </trkpt>
      <trkpt lat="46.73138" lon="-2.3668">
        <ele>1.6</ele>
        <time>2018-09-21T13:08:15.000Z</time>
      </trkpt>
      <trkpt lat="46.73138" lon="-2.36681">
        <ele>1.6</ele>
        <time>2018-09-21T13:08:16.000Z</time>
      </trkpt>
      <trkpt lat="46.73139" lon="-2.36682">
        <ele>1.6</ele>
        <time>2018-09-21T13:08:17.000Z</time>
      </trkpt>
      <trkpt lat="46.73139" lon="-2.36683">
        <ele>1.6</ele>
        <time>2018-09-21T13:08:18.000Z</time>
      </trkpt>
      <trkpt lat="46.7314" lon="-2.36684">
        <ele>1.6</ele>
        <time>2018-09-21T13:08:19.000Z</time>
      </trkpt>
      <trkpt lat="46.7314" lon="-2.36685">
        <ele>1.6</ele>
        <time>2018-09-21T13:08:20.000Z</time>
      </trkpt>
      <trkpt lat="46.7314" lon="-2.36686">
        <ele>1.6</ele>
        <time>2018-09-21T13:08:21.000Z</time>
      </trkpt>
      <trkpt lat="46.73141" lon="-2.36688">
        <ele>1.6</ele>
        <time>2018-09-21T13:08:22.000Z</time>
      </trkpt>
      <trkpt lat="46.73141" lon="-2.36689">
        <ele>1.6</ele>
        <time>2018-09-21T13:08:23.000Z</time>
      </trkpt>
      <trkpt lat="46.73142" lon="-2.3669">
        <ele>1.6</ele>
        <time>2018-09-21T13:08:24.000Z</time>
      </trkpt>
      <trkpt lat="46.73142" lon="-2.36691">
        <ele>1.6</ele>
        <time>2018-09-21T13:08:25.000Z</time>
      </trkpt>
      <trkpt lat="46.73143" lon="-2.36692">
        <ele>1.6</ele>
        <time>2018-09-21T13:08:26.000Z</time>
      </trkpt>
      <trkpt lat="46.73143" lon="-2.36693">
        <ele>1.6</ele>
        <time>2018-09-21T13:08:27.000Z</time>
      </trkpt>
      <trkpt lat="46.73144" lon="-2.36695">
        <ele>1.6</ele>
        <time>2018-09-21T13:08:28.000Z</time>
      </trkpt>
      <trkpt lat="46.73144" lon="-2.36696">
        <ele>1.6</ele>
        <time>2018-09-21T13:08:29.000Z</time>
      </trkpt>
      <trkpt lat="46.73145" lon="-2.36697">
        <ele>1.6</ele>
        <time>2018-09-21T13:08:30.000Z</time>
      </trkpt>
      <trkpt lat="46.73145" lon="-2.36698">
        <ele>1.6</ele>
        <time>2018-09-21T13:08:31.000Z</time>
      </trkpt>
      <trkpt lat="46.73146" lon="-2.36699">
        <ele>1.6</ele>
        <time>2018-09-21T13:08:32.000Z</time>
      </trkpt>
      <trkpt lat="46.73146" lon="-2.36701">
        <ele>1.6</ele>
        <time>2018-09-21T13:08:33.000Z</time>
      </trkpt>
      <trkpt lat="46.73147" lon="-2.36702">
        <ele>1.6</ele>
        <time>2018-09-21T13:08:34.000Z</time>
      </trkpt>
      <trkpt lat="46.73147" lon="-2.36703">
        <ele>1.6</ele>
        <time>2018-09-21T13:08:35.000Z</time>
      </trkpt>
      <trkpt lat="46.73148" lon="-2.36704">
        <ele>1.6</ele>
        <time>2018-09-21T13:08:36.000Z</time>
      </trkpt>
      <trkpt lat="46.73148" lon="-2.36706">
        <ele>1.6</ele>
        <time>2018-09-21T13:08:37.000Z</time>
      </trkpt>
      <trkpt lat="46.73149" lon="-2.36707">
        <ele>1.6</ele>
        <time>2018-09-21T13:08:38.000Z</time>
      </trkpt>
      <trkpt lat="46.73149" lon="-2.36708">
        <ele>1.6</ele>
        <time>2018-09-21T13:08:39.000Z</time>
      </trkpt>
      <trkpt lat="46.7315" lon="-2.36709">
        <ele>1.6</ele>
        <time>2018-09-21T13:08:40.000Z</time>
      </trkpt>
      <trkpt lat="46.7315" lon="-2.3671">
        <ele>1.6</ele>
        <time>2018-09-21T13:08:41.000Z</time>
      </trkpt>
      <trkpt lat="46.7315" lon="-2.36712">
        <ele>1.7</ele>
        <time>2018-09-21T13:08:42.000Z</time>
      </trkpt>
      <trkpt lat="46.73151" lon="-2.36713">
        <ele>1.7</ele>
        <time>2018-09-21T13:08:43.000Z</time>
      </trkpt>
      <trkpt lat="46.73151" lon="-2.36714">
        <ele>1.7</ele>
        <time>2018-09-21T13:08:44.000Z</time>
      </trkpt>
      <trkpt lat="46.73151" lon="-2.36715">
        <ele>1.7</ele>
        <time>2018-09-21T13:08:45.000Z</time>
      </trkpt>
      <trkpt lat="46.73152" lon="-2.36716">
        <ele>1.7</ele>
        <time>2018-09-21T13:08:46.000Z</time>
      </trkpt>
      <trkpt lat="46.73152" lon="-2.36718">
        <ele>1.7</ele>
        <time>2018-09-21T13:08:47.000Z</time>
      </trkpt>
      <trkpt lat="46.73152" lon="-2.36719">
        <ele>1.7</ele>
        <time>2018-09-21T13:08:48.000Z</time>
      </trkpt>
      <trkpt lat="46.73153" lon="-2.3672">
        <ele>1.7</ele>
        <time>2018-09-21T13:08:49.000Z</time>
      </trkpt>
      <trkpt lat="46.73153" lon="-2.36721">
        <ele>1.8</ele>
        <time>2018-09-21T13:08:50.000Z</time>
      </trkpt>
      <trkpt lat="46.73153" lon="-2.36723">
        <ele>1.8</ele>
        <time>2018-09-21T13:08:51.000Z</time>
      </trkpt>
      <trkpt lat="46.73154" lon="-2.36724">
        <ele>1.8</ele>
        <time>2018-09-21T13:08:52.000Z</time>
      </trkpt>
      <trkpt lat="46.73154" lon="-2.36725">
        <ele>1.8</ele>
        <time>2018-09-21T13:08:53.000Z</time>
      </trkpt>
      <trkpt lat="46.73154" lon="-2.36726">
        <ele>1.8</ele>
        <time>2018-09-21T13:08:54.000Z</time>
      </trkpt>
      <trkpt lat="46.73154" lon="-2.36728">
        <ele>1.8</ele>
        <time>2018-09-21T13:08:55.000Z</time>
      </trkpt>
      <trkpt lat="46.73155" lon="-2.36729">
        <ele>1.9</ele>
        <time>2018-09-21T13:08:56.000Z</time>
      </trkpt>
      <trkpt lat="46.73155" lon="-2.3673">
        <ele>1.9</ele>
        <time>2018-09-21T13:08:57.000Z</time>
      </trkpt>
      <trkpt lat="46.73155" lon="-2.36732">
        <ele>1.9</ele>
        <time>2018-09-21T13:08:58.000Z</time>
      </trkpt>
      <trkpt lat="46.73156" lon="-2.36733">
        <ele>1.9</ele>
        <time>2018-09-21T13:08:59.000Z</time>
      </trkpt>
      <trkpt lat="46.73156" lon="-2.36734">
        <ele>1.9</ele>
        <time>2018-09-21T13:09:00.000Z</time>
      </trkpt>
      <trkpt lat="46.73156" lon="-2.36736">
        <ele>1.9</ele>
        <time>2018-09-21T13:09:01.000Z</time>
      </trkpt>
      <trkpt lat="46.73157" lon="-2.36737">
        <ele>2</ele>
        <time>2018-09-21T13:09:02.000Z</time>
      </trkpt>
      <trkpt lat="46.73157" lon="-2.36739">
        <ele>2</ele>
        <time>2018-09-21T13:09:03.000Z</time>
      </trkpt>
      <trkpt lat="46.73158" lon="-2.3674">
        <ele>2</ele>
        <time>2018-09-21T13:09:04.000Z</time>
      </trkpt>
      <trkpt lat="46.73158" lon="-2.36741">
        <ele>2</ele>
        <time>2018-09-21T13:09:05.000Z</time>
      </trkpt>
      <trkpt lat="46.73159" lon="-2.36743">
        <ele>2</ele>
        <time>2018-09-21T13:09:06.000Z</time>
      </trkpt>
      <trkpt lat="46.73159" lon="-2.36744">
        <ele>2.1</ele>
        <time>2018-09-21T13:09:07.000Z</time>
      </trkpt>
      <trkpt lat="46.73159" lon="-2.36746">
        <ele>2.1</ele>
        <time>2018-09-21T13:09:08.000Z</time>
      </trkpt>
      <trkpt lat="46.7316" lon="-2.36747">
        <ele>2.1</ele>
        <time>2018-09-21T13:09:09.000Z</time>
      </trkpt>
      <trkpt lat="46.73161" lon="-2.36749">
        <ele>2.1</ele>
        <time>2018-09-21T13:09:10.000Z</time>
      </trkpt>
      <trkpt lat="46.73161" lon="-2.3675">
        <ele>2.1</ele>
        <time>2018-09-21T13:09:11.000Z</time>
      </trkpt>
      <trkpt lat="46.73162" lon="-2.36752">
        <ele>2.1</ele>
        <time>2018-09-21T13:09:12.000Z</time>
      </trkpt>
      <trkpt lat="46.73162" lon="-2.36753">
        <ele>2.1</ele>
        <time>2018-09-21T13:09:13.000Z</time>
      </trkpt>
      <trkpt lat="46.73163" lon="-2.36754">
        <ele>2.1</ele>
        <time>2018-09-21T13:09:14.000Z</time>
      </trkpt>
      <trkpt lat="46.73163" lon="-2.36756">
        <ele>2.1</ele>
        <time>2018-09-21T13:09:15.000Z</time>
      </trkpt>
      <trkpt lat="46.73164" lon="-2.36757">
        <ele>2.1</ele>
        <time>2018-09-21T13:09:16.000Z</time>
      </trkpt>
      <trkpt lat="46.73165" lon="-2.36759">
        <ele>2.1</ele>
        <time>2018-09-21T13:09:17.000Z</time>
      </trkpt>
      <trkpt lat="46.73165" lon="-2.3676">
        <ele>2</ele>
        <time>2018-09-21T13:09:18.000Z</time>
      </trkpt>
      <trkpt lat="46.73166" lon="-2.36761">
        <ele>2</ele>
        <time>2018-09-21T13:09:19.000Z</time>
      </trkpt>
      <trkpt lat="46.73167" lon="-2.36762">
        <ele>2</ele>
        <time>2018-09-21T13:09:20.000Z</time>
      </trkpt>
      <trkpt lat="46.73167" lon="-2.36764">
        <ele>2</ele>
        <time>2018-09-21T13:09:21.000Z</time>
      </trkpt>
      <trkpt lat="46.73168" lon="-2.36765">
        <ele>2</ele>
        <time>2018-09-21T13:09:22.000Z</time>
      </trkpt>
      <trkpt lat="46.73169" lon="-2.36766">
        <ele>2</ele>
        <time>2018-09-21T13:09:23.000Z</time>
      </trkpt>
      <trkpt lat="46.73169" lon="-2.36767">
        <ele>2</ele>
        <time>2018-09-21T13:09:24.000Z</time>
      </trkpt>
      <trkpt lat="46.7317" lon="-2.36769">
        <ele>2</ele>
        <time>2018-09-21T13:09:25.000Z</time>
      </trkpt>
      <trkpt lat="46.7317" lon="-2.3677">
        <ele>2</ele>
        <time>2018-09-21T13:09:26.000Z</time>
      </trkpt>
      <trkpt lat="46.73171" lon="-2.36771">
        <ele>2</ele>
        <time>2018-09-21T13:09:27.000Z</time>
      </trkpt>
      <trkpt lat="46.73171" lon="-2.36772">
        <ele>2</ele>
        <time>2018-09-21T13:09:28.000Z</time>
      </trkpt>
      <trkpt lat="46.73171" lon="-2.36774">
        <ele>2</ele>
        <time>2018-09-21T13:09:29.000Z</time>
      </trkpt>
      <trkpt lat="46.73171" lon="-2.36775">
        <ele>2</ele>
        <time>2018-09-21T13:09:30.000Z</time>
      </trkpt>
      <trkpt lat="46.73171" lon="-2.36777">
        <ele>2</ele>
        <time>2018-09-21T13:09:31.000Z</time>
      </trkpt>
      <trkpt lat="46.73171" lon="-2.36778">
        <ele>2</ele>
        <time>2018-09-21T13:09:32.000Z</time>
      </trkpt>
      <trkpt lat="46.7317" lon="-2.36779">
        <ele>2</ele>
        <time>2018-09-21T13:09:33.000Z</time>
      </trkpt>
      <trkpt lat="46.7317" lon="-2.36781">
        <ele>2</ele>
        <time>2018-09-21T13:09:34.000Z</time>
      </trkpt>
      <trkpt lat="46.7317" lon="-2.36782">
        <ele>2</ele>
        <time>2018-09-21T13:09:35.000Z</time>
      </trkpt>
      <trkpt lat="46.7317" lon="-2.36784">
        <ele>2</ele>
        <time>2018-09-21T13:09:36.000Z</time>
      </trkpt>
      <trkpt lat="46.73169" lon="-2.36785">
        <ele>2</ele>
        <time>2018-09-21T13:09:37.000Z</time>
      </trkpt>
      <trkpt lat="46.73169" lon="-2.36787">
        <ele>2</ele>
        <time>2018-09-21T13:09:38.000Z</time>
      </trkpt>
      <trkpt lat="46.73169" lon="-2.36789">
        <ele>2</ele>
        <time>2018-09-21T13:09:39.000Z</time>
      </trkpt>
      <trkpt lat="46.73169" lon="-2.3679">
        <ele>2</ele>
        <time>2018-09-21T13:09:40.000Z</time>
      </trkpt>
      <trkpt lat="46.73169" lon="-2.36792">
        <ele>2</ele>
        <time>2018-09-21T13:09:41.000Z</time>
      </trkpt>
      <trkpt lat="46.73169" lon="-2.36794">
        <ele>2</ele>
        <time>2018-09-21T13:09:42.000Z</time>
      </trkpt>
      <trkpt lat="46.73169" lon="-2.36795">
        <ele>2</ele>
        <time>2018-09-21T13:09:43.000Z</time>
      </trkpt>
      <trkpt lat="46.73169" lon="-2.36797">
        <ele>2</ele>
        <time>2018-09-21T13:09:44.000Z</time>
      </trkpt>
      <trkpt lat="46.73169" lon="-2.36798">
        <ele>2</ele>
        <time>2018-09-21T13:09:45.000Z</time>
      </trkpt>
      <trkpt lat="46.7317" lon="-2.36799">
        <ele>2</ele>
        <time>2018-09-21T13:09:46.000Z</time>
      </trkpt>
      <trkpt lat="46.7317" lon="-2.368">
        <ele>2</ele>
        <time>2018-09-21T13:09:47.000Z</time>
      </trkpt>
      <trkpt lat="46.73171" lon="-2.36801">
        <ele>2</ele>
        <time>2018-09-21T13:09:48.000Z</time>
      </trkpt>
      <trkpt lat="46.73171" lon="-2.36802">
        <ele>2</ele>
        <time>2018-09-21T13:09:49.000Z</time>
      </trkpt>
      <trkpt lat="46.73172" lon="-2.36803">
        <ele>2</ele>
        <time>2018-09-21T13:09:50.000Z</time>
      </trkpt>
      <trkpt lat="46.73172" lon="-2.36804">
        <ele>2</ele>
        <time>2018-09-21T13:09:51.000Z</time>
      </trkpt>
      <trkpt lat="46.73172" lon="-2.36806">
        <ele>2</ele>
        <time>2018-09-21T13:09:52.000Z</time>
      </trkpt>
      <trkpt lat="46.73172" lon="-2.36807">
        <ele>2</ele>
        <time>2018-09-21T13:09:53.000Z</time>
      </trkpt>
      <trkpt lat="46.73171" lon="-2.36809">
        <ele>2</ele>
        <time>2018-09-21T13:09:54.000Z</time>
      </trkpt>
      <trkpt lat="46.73171" lon="-2.3681">
        <ele>2</ele>
        <time>2018-09-21T13:09:55.000Z</time>
      </trkpt>
      <trkpt lat="46.73171" lon="-2.36812">
        <ele>2</ele>
        <time>2018-09-21T13:09:56.000Z</time>
      </trkpt>
      <trkpt lat="46.73171" lon="-2.36813">
        <ele>2</ele>
        <time>2018-09-21T13:09:57.000Z</time>
      </trkpt>
      <trkpt lat="46.73171" lon="-2.36815">
        <ele>2</ele>
        <time>2018-09-21T13:09:58.000Z</time>
      </trkpt>
      <trkpt lat="46.73171" lon="-2.36816">
        <ele>2</ele>
        <time>2018-09-21T13:09:59.000Z</time>
      </trkpt>
      <trkpt lat="46.73172" lon="-2.36818">
        <ele>2</ele>
        <time>2018-09-21T13:10:00.000Z</time>
      </trkpt>
      <trkpt lat="46.73172" lon="-2.36819">
        <ele>2</ele>
        <time>2018-09-21T13:10:01.000Z</time>
      </trkpt>
      <trkpt lat="46.73173" lon="-2.3682">
        <ele>2</ele>
        <time>2018-09-21T13:10:02.000Z</time>
      </trkpt>
      <trkpt lat="46.73173" lon="-2.36821">
        <ele>2</ele>
        <time>2018-09-21T13:10:03.000Z</time>
      </trkpt>
      <trkpt lat="46.73174" lon="-2.36823">
        <ele>2</ele>
        <time>2018-09-21T13:10:04.000Z</time>
      </trkpt>
      <trkpt lat="46.73174" lon="-2.36824">
        <ele>2</ele>
        <time>2018-09-21T13:10:05.000Z</time>
      </trkpt>
      <trkpt lat="46.73174" lon="-2.36825">
        <ele>2</ele>
        <time>2018-09-21T13:10:06.000Z</time>
      </trkpt>
      <trkpt lat="46.73174" lon="-2.36826">
        <ele>2</ele>
        <time>2018-09-21T13:10:07.000Z</time>
      </trkpt>
      <trkpt lat="46.73175" lon="-2.36827">
        <ele>2</ele>
        <time>2018-09-21T13:10:08.000Z</time>
      </trkpt>
      <trkpt lat="46.73175" lon="-2.36829">
        <ele>2</ele>
        <time>2018-09-21T13:10:09.000Z</time>
      </trkpt>
      <trkpt lat="46.73174" lon="-2.3683">
        <ele>2</ele>
        <time>2018-09-21T13:10:10.000Z</time>
      </trkpt>
      <trkpt lat="46.73174" lon="-2.36831">
        <ele>2</ele>
        <time>2018-09-21T13:10:11.000Z</time>
      </trkpt>
      <trkpt lat="46.73174" lon="-2.36832">
        <ele>2</ele>
        <time>2018-09-21T13:10:12.000Z</time>
      </trkpt>
      <trkpt lat="46.73174" lon="-2.36834">
        <ele>2</ele>
        <time>2018-09-21T13:10:13.000Z</time>
      </trkpt>
      <trkpt lat="46.73174" lon="-2.36835">
        <ele>2</ele>
        <time>2018-09-21T13:10:14.000Z</time>
      </trkpt>
      <trkpt lat="46.73174" lon="-2.36836">
        <ele>2</ele>
        <time>2018-09-21T13:10:15.000Z</time>
      </trkpt>
      <trkpt lat="46.73173" lon="-2.36837">
        <ele>2</ele>
        <time>2018-09-21T13:10:16.000Z</time>
      </trkpt>
      <trkpt lat="46.73173" lon="-2.36839">
        <ele>2</ele>
        <time>2018-09-21T13:10:17.000Z</time>
      </trkpt>
      <trkpt lat="46.73173" lon="-2.3684">
        <ele>2</ele>
        <time>2018-09-21T13:10:18.000Z</time>
      </trkpt>
      <trkpt lat="46.73173" lon="-2.36841">
        <ele>2</ele>
        <time>2018-09-21T13:10:19.000Z</time>
      </trkpt>
      <trkpt lat="46.73173" lon="-2.36842">
        <ele>2</ele>
        <time>2018-09-21T13:10:20.000Z</time>
      </trkpt>
      <trkpt lat="46.73173" lon="-2.36843">
        <ele>2</ele>
        <time>2018-09-21T13:10:21.000Z</time>
      </trkpt>
      <trkpt lat="46.73173" lon="-2.36845">
        <ele>2</ele>
        <time>2018-09-21T13:10:22.000Z</time>
      </trkpt>
      <trkpt lat="46.73172" lon="-2.36846">
        <ele>2</ele>
        <time>2018-09-21T13:10:23.000Z</time>
      </trkpt>
      <trkpt lat="46.73172" lon="-2.36847">
        <ele>2</ele>
        <time>2018-09-21T13:10:24.000Z</time>
      </trkpt>
      <trkpt lat="46.73172" lon="-2.36848">
        <ele>2</ele>
        <time>2018-09-21T13:10:25.000Z</time>
      </trkpt>
      <trkpt lat="46.73172" lon="-2.36849">
        <ele>2</ele>
        <time>2018-09-21T13:10:26.000Z</time>
      </trkpt>
      <trkpt lat="46.73172" lon="-2.36851">
        <ele>2</ele>
        <time>2018-09-21T13:10:27.000Z</time>
      </trkpt>
      <trkpt lat="46.73172" lon="-2.36852">
        <ele>2</ele>
        <time>2018-09-21T13:10:28.000Z</time>
      </trkpt>
      <trkpt lat="46.73171" lon="-2.36853">
        <ele>2</ele>
        <time>2018-09-21T13:10:29.000Z</time>
      </trkpt>
      <trkpt lat="46.73171" lon="-2.36854">
        <ele>2</ele>
        <time>2018-09-21T13:10:30.000Z</time>
      </trkpt>
      <trkpt lat="46.73171" lon="-2.36856">
        <ele>2</ele>
        <time>2018-09-21T13:10:31.000Z</time>
      </trkpt>
      <trkpt lat="46.7317" lon="-2.36857">
        <ele>2</ele>
        <time>2018-09-21T13:10:32.000Z</time>
      </trkpt>
      <trkpt lat="46.7317" lon="-2.36858">
        <ele>2</ele>
        <time>2018-09-21T13:10:33.000Z</time>
      </trkpt>
      <trkpt lat="46.7317" lon="-2.36859">
        <ele>2</ele>
        <time>2018-09-21T13:10:34.000Z</time>
      </trkpt>
      <trkpt lat="46.73169" lon="-2.3686">
        <ele>2</ele>
        <time>2018-09-21T13:10:35.000Z</time>
      </trkpt>
      <trkpt lat="46.73169" lon="-2.36861">
        <ele>2</ele>
        <time>2018-09-21T13:10:36.000Z</time>
      </trkpt>
      <trkpt lat="46.73168" lon="-2.36863">
        <ele>2</ele>
        <time>2018-09-21T13:10:37.000Z</time>
      </trkpt>
      <trkpt lat="46.73168" lon="-2.36864">
        <ele>2</ele>
        <time>2018-09-21T13:10:38.000Z</time>
      </trkpt>
      <trkpt lat="46.73167" lon="-2.36865">
        <ele>2</ele>
        <time>2018-09-21T13:10:39.000Z</time>
      </trkpt>
      <trkpt lat="46.73167" lon="-2.36866">
        <ele>2</ele>
        <time>2018-09-21T13:10:40.000Z</time>
      </trkpt>
      <trkpt lat="46.73167" lon="-2.36868">
        <ele>2</ele>
        <time>2018-09-21T13:10:41.000Z</time>
      </trkpt>
      <trkpt lat="46.73166" lon="-2.36869">
        <ele>2.4</ele>
        <time>2018-09-21T13:10:42.000Z</time>
      </trkpt>
      <trkpt lat="46.73166" lon="-2.3687">
        <ele>2.5</ele>
        <time>2018-09-21T13:10:43.000Z</time>
      </trkpt>
      <trkpt lat="46.73166" lon="-2.36872">
        <ele>2.5</ele>
        <time>2018-09-21T13:10:44.000Z</time>
      </trkpt>
      <trkpt lat="46.73166" lon="-2.36873">
        <ele>2.5</ele>
        <time>2018-09-21T13:10:45.000Z</time>
      </trkpt>
      <trkpt lat="46.73166" lon="-2.36874">
        <ele>2.5</ele>
        <time>2018-09-21T13:10:46.000Z</time>
      </trkpt>
      <trkpt lat="46.73166" lon="-2.36876">
        <ele>2.5</ele>
        <time>2018-09-21T13:10:47.000Z</time>
      </trkpt>
      <trkpt lat="46.73166" lon="-2.36877">
        <ele>2.5</ele>
        <time>2018-09-21T13:10:48.000Z</time>
      </trkpt>
      <trkpt lat="46.73167" lon="-2.36879">
        <ele>2.6</ele>
        <time>2018-09-21T13:10:49.000Z</time>
      </trkpt>
      <trkpt lat="46.73167" lon="-2.3688">
        <ele>2.6</ele>
        <time>2018-09-21T13:10:50.000Z</time>
      </trkpt>
      <trkpt lat="46.73167" lon="-2.36882">
        <ele>3</ele>
        <time>2018-09-21T13:10:51.000Z</time>
      </trkpt>
      <trkpt lat="46.73167" lon="-2.36883">
        <ele>3</ele>
        <time>2018-09-21T13:10:52.000Z</time>
      </trkpt>
      <trkpt lat="46.73167" lon="-2.36885">
        <ele>2.6</ele>
        <time>2018-09-21T13:10:53.000Z</time>
      </trkpt>
      <trkpt lat="46.73167" lon="-2.36886">
        <ele>2.6</ele>
        <time>2018-09-21T13:10:54.000Z</time>
      </trkpt>
      <trkpt lat="46.73166" lon="-2.36888">
        <ele>2.7</ele>
        <time>2018-09-21T13:10:55.000Z</time>
      </trkpt>
      <trkpt lat="46.73166" lon="-2.36889">
        <ele>2.7</ele>
        <time>2018-09-21T13:10:56.000Z</time>
      </trkpt>
      <trkpt lat="46.73166" lon="-2.3689">
        <ele>2.7</ele>
        <time>2018-09-21T13:10:57.000Z</time>
      </trkpt>
      <trkpt lat="46.73166" lon="-2.36892">
        <ele>2.7</ele>
        <time>2018-09-21T13:10:58.000Z</time>
      </trkpt>
      <trkpt lat="46.73165" lon="-2.36893">
        <ele>2.8</ele>
        <time>2018-09-21T13:10:59.000Z</time>
      </trkpt>
      <trkpt lat="46.73165" lon="-2.36894">
        <ele>2.8</ele>
        <time>2018-09-21T13:11:00.000Z</time>
      </trkpt>
      <trkpt lat="46.73165" lon="-2.36896">
        <ele>2.8</ele>
        <time>2018-09-21T13:11:01.000Z</time>
      </trkpt>
      <trkpt lat="46.73164" lon="-2.36897">
        <ele>2.8</ele>
        <time>2018-09-21T13:11:02.000Z</time>
      </trkpt>
      <trkpt lat="46.73164" lon="-2.36898">
        <ele>2.9</ele>
        <time>2018-09-21T13:11:03.000Z</time>
      </trkpt>
      <trkpt lat="46.73164" lon="-2.36899">
        <ele>2.9</ele>
        <time>2018-09-21T13:11:04.000Z</time>
      </trkpt>
      <trkpt lat="46.73163" lon="-2.36901">
        <ele>2.9</ele>
        <time>2018-09-21T13:11:05.000Z</time>
      </trkpt>
      <trkpt lat="46.73163" lon="-2.36902">
        <ele>3</ele>
        <time>2018-09-21T13:11:06.000Z</time>
      </trkpt>
      <trkpt lat="46.73163" lon="-2.36903">
        <ele>3</ele>
        <time>2018-09-21T13:11:07.000Z</time>
      </trkpt>
      <trkpt lat="46.73162" lon="-2.36904">
        <ele>3</ele>
        <time>2018-09-21T13:11:08.000Z</time>
      </trkpt>
      <trkpt lat="46.73162" lon="-2.36905">
        <ele>3</ele>
        <time>2018-09-21T13:11:09.000Z</time>
      </trkpt>
      <trkpt lat="46.73162" lon="-2.36906">
        <ele>3</ele>
        <time>2018-09-21T13:11:10.000Z</time>
      </trkpt>
      <trkpt lat="46.73162" lon="-2.36908">
        <ele>3.1</ele>
        <time>2018-09-21T13:11:11.000Z</time>
      </trkpt>
      <trkpt lat="46.73162" lon="-2.36909">
        <ele>3.1</ele>
        <time>2018-09-21T13:11:12.000Z</time>
      </trkpt>
      <trkpt lat="46.73162" lon="-2.3691">
        <ele>3.1</ele>
        <time>2018-09-21T13:11:13.000Z</time>
      </trkpt>
      <trkpt lat="46.73162" lon="-2.36911">
        <ele>3.1</ele>
        <time>2018-09-21T13:11:14.000Z</time>
      </trkpt>
      <trkpt lat="46.73161" lon="-2.36912">
        <ele>3.1</ele>
        <time>2018-09-21T13:11:15.000Z</time>
      </trkpt>
      <trkpt lat="46.73161" lon="-2.36913">
        <ele>3.1</ele>
        <time>2018-09-21T13:11:16.000Z</time>
      </trkpt>
      <trkpt lat="46.73161" lon="-2.36914">
        <ele>3.2</ele>
        <time>2018-09-21T13:11:17.000Z</time>
      </trkpt>
      <trkpt lat="46.73161" lon="-2.36915">
        <ele>3.2</ele>
        <time>2018-09-21T13:11:18.000Z</time>
      </trkpt>
      <trkpt lat="46.73161" lon="-2.36916">
        <ele>3.2</ele>
        <time>2018-09-21T13:11:19.000Z</time>
      </trkpt>
      <trkpt lat="46.7316" lon="-2.36917">
        <ele>3.2</ele>
        <time>2018-09-21T13:11:20.000Z</time>
      </trkpt>
      <trkpt lat="46.7316" lon="-2.36918">
        <ele>3.2</ele>
        <time>2018-09-21T13:11:21.000Z</time>
      </trkpt>
      <trkpt lat="46.7316" lon="-2.36919">
        <ele>3.2</ele>
        <time>2018-09-21T13:11:22.000Z</time>
      </trkpt>
      <trkpt lat="46.7316" lon="-2.3692">
        <ele>3.2</ele>
        <time>2018-09-21T13:11:23.000Z</time>
      </trkpt>
      <trkpt lat="46.73159" lon="-2.36921">
        <ele>3.2</ele>
        <time>2018-09-21T13:11:24.000Z</time>
      </trkpt>
      <trkpt lat="46.73159" lon="-2.36922">
        <ele>3.2</ele>
        <time>2018-09-21T13:11:25.000Z</time>
      </trkpt>
      <trkpt lat="46.73159" lon="-2.36923">
        <ele>3.2</ele>
        <time>2018-09-21T13:11:26.000Z</time>
      </trkpt>
      <trkpt lat="46.73159" lon="-2.36924">
        <ele>3.2</ele>
        <time>2018-09-21T13:11:27.000Z</time>
      </trkpt>
      <trkpt lat="46.73159" lon="-2.36925">
        <ele>3.2</ele>
        <time>2018-09-21T13:11:28.000Z</time>
      </trkpt>
      <trkpt lat="46.73159" lon="-2.36926">
        <ele>3.2</ele>
        <time>2018-09-21T13:11:29.000Z</time>
      </trkpt>
      <trkpt lat="46.73159" lon="-2.36927">
        <ele>3.2</ele>
        <time>2018-09-21T13:11:30.000Z</time>
      </trkpt>
      <trkpt lat="46.73159" lon="-2.36929">
        <ele>3.2</ele>
        <time>2018-09-21T13:11:31.000Z</time>
      </trkpt>
      <trkpt lat="46.73159" lon="-2.3693">
        <ele>3.2</ele>
        <time>2018-09-21T13:11:32.000Z</time>
      </trkpt>
      <trkpt lat="46.73159" lon="-2.36931">
        <ele>3.1</ele>
        <time>2018-09-21T13:11:33.000Z</time>
      </trkpt>
      <trkpt lat="46.73159" lon="-2.36933">
        <ele>3.1</ele>
        <time>2018-09-21T13:11:34.000Z</time>
      </trkpt>
      <trkpt lat="46.73159" lon="-2.36934">
        <ele>3.1</ele>
        <time>2018-09-21T13:11:35.000Z</time>
      </trkpt>
      <trkpt lat="46.73158" lon="-2.36935">
        <ele>3.1</ele>
        <time>2018-09-21T13:11:36.000Z</time>
      </trkpt>
      <trkpt lat="46.73159" lon="-2.36937">
        <ele>3.1</ele>
        <time>2018-09-21T13:11:37.000Z</time>
      </trkpt>
      <trkpt lat="46.73159" lon="-2.36938">
        <ele>3.1</ele>
        <time>2018-09-21T13:11:38.000Z</time>
      </trkpt>
      <trkpt lat="46.73159" lon="-2.36939">
        <ele>3</ele>
        <time>2018-09-21T13:11:39.000Z</time>
      </trkpt>
      <trkpt lat="46.73159" lon="-2.36941">
        <ele>3</ele>
        <time>2018-09-21T13:11:40.000Z</time>
      </trkpt>
      <trkpt lat="46.73159" lon="-2.36942">
        <ele>3</ele>
        <time>2018-09-21T13:11:41.000Z</time>
      </trkpt>
      <trkpt lat="46.73159" lon="-2.36944">
        <ele>3</ele>
        <time>2018-09-21T13:11:42.000Z</time>
      </trkpt>
      <trkpt lat="46.73159" lon="-2.36945">
        <ele>3</ele>
        <time>2018-09-21T13:11:43.000Z</time>
      </trkpt>
      <trkpt lat="46.73159" lon="-2.36946">
        <ele>3</ele>
        <time>2018-09-21T13:11:44.000Z</time>
      </trkpt>
      <trkpt lat="46.73159" lon="-2.36948">
        <ele>2.9</ele>
        <time>2018-09-21T13:11:45.000Z</time>
      </trkpt>
      <trkpt lat="46.73159" lon="-2.36949">
        <ele>2.9</ele>
        <time>2018-09-21T13:11:46.000Z</time>
      </trkpt>
      <trkpt lat="46.73159" lon="-2.36951">
        <ele>2.9</ele>
        <time>2018-09-21T13:11:47.000Z</time>
      </trkpt>
      <trkpt lat="46.7316" lon="-2.36952">
        <ele>2.9</ele>
        <time>2018-09-21T13:11:48.000Z</time>
      </trkpt>
      <trkpt lat="46.7316" lon="-2.36953">
        <ele>2.8</ele>
        <time>2018-09-21T13:11:49.000Z</time>
      </trkpt>
      <trkpt lat="46.7316" lon="-2.36955">
        <ele>2.8</ele>
        <time>2018-09-21T13:11:50.000Z</time>
      </trkpt>
      <trkpt lat="46.7316" lon="-2.36956">
        <ele>2.8</ele>
        <time>2018-09-21T13:11:51.000Z</time>
      </trkpt>
      <trkpt lat="46.73161" lon="-2.36957">
        <ele>2.8</ele>
        <time>2018-09-21T13:11:52.000Z</time>
      </trkpt>
      <trkpt lat="46.73161" lon="-2.36959">
        <ele>2.7</ele>
        <time>2018-09-21T13:11:53.000Z</time>
      </trkpt>
      <trkpt lat="46.73161" lon="-2.3696">
        <ele>2.7</ele>
        <time>2018-09-21T13:11:54.000Z</time>
      </trkpt>
      <trkpt lat="46.73161" lon="-2.36961">
        <ele>2.7</ele>
        <time>2018-09-21T13:11:55.000Z</time>
      </trkpt>
      <trkpt lat="46.73162" lon="-2.36962">
        <ele>2.7</ele>
        <time>2018-09-21T13:11:56.000Z</time>
      </trkpt>
      <trkpt lat="46.73162" lon="-2.36964">
        <ele>2.6</ele>
        <time>2018-09-21T13:11:57.000Z</time>
      </trkpt>
      <trkpt lat="46.73162" lon="-2.36965">
        <ele>2.6</ele>
        <time>2018-09-21T13:11:58.000Z</time>
      </trkpt>
      <trkpt lat="46.73163" lon="-2.36966">
        <ele>2.6</ele>
        <time>2018-09-21T13:11:59.000Z</time>
      </trkpt>
      <trkpt lat="46.73163" lon="-2.36967">
        <ele>2.6</ele>
        <time>2018-09-21T13:12:00.000Z</time>
      </trkpt>
      <trkpt lat="46.73163" lon="-2.36969">
        <ele>2.5</ele>
        <time>2018-09-21T13:12:01.000Z</time>
      </trkpt>
      <trkpt lat="46.73163" lon="-2.3697">
        <ele>2.5</ele>
        <time>2018-09-21T13:12:02.000Z</time>
      </trkpt>
      <trkpt lat="46.73164" lon="-2.36971">
        <ele>2.5</ele>
        <time>2018-09-21T13:12:03.000Z</time>
      </trkpt>
      <trkpt lat="46.73164" lon="-2.36972">
        <ele>2.5</ele>
        <time>2018-09-21T13:12:04.000Z</time>
      </trkpt>
      <trkpt lat="46.73164" lon="-2.36973">
        <ele>2.4</ele>
        <time>2018-09-21T13:12:05.000Z</time>
      </trkpt>
      <trkpt lat="46.73164" lon="-2.36975">
        <ele>2.4</ele>
        <time>2018-09-21T13:12:06.000Z</time>
      </trkpt>
      <trkpt lat="46.73165" lon="-2.36976">
        <ele>2.4</ele>
        <time>2018-09-21T13:12:07.000Z</time>
      </trkpt>
      <trkpt lat="46.73165" lon="-2.36977">
        <ele>2.4</ele>
        <time>2018-09-21T13:12:08.000Z</time>
      </trkpt>
      <trkpt lat="46.73165" lon="-2.36978">
        <ele>2.3</ele>
        <time>2018-09-21T13:12:09.000Z</time>
      </trkpt>
      <trkpt lat="46.73165" lon="-2.36979">
        <ele>2.3</ele>
        <time>2018-09-21T13:12:10.000Z</time>
      </trkpt>
      <trkpt lat="46.73165" lon="-2.36981">
        <ele>2.3</ele>
        <time>2018-09-21T13:12:11.000Z</time>
      </trkpt>
      <trkpt lat="46.73165" lon="-2.36982">
        <ele>2.3</ele>
        <time>2018-09-21T13:12:12.000Z</time>
      </trkpt>
      <trkpt lat="46.73165" lon="-2.36983">
        <ele>2.3</ele>
        <time>2018-09-21T13:12:13.000Z</time>
      </trkpt>
      <trkpt lat="46.73165" lon="-2.36984">
        <ele>2.3</ele>
        <time>2018-09-21T13:12:14.000Z</time>
      </trkpt>
      <trkpt lat="46.73165" lon="-2.36986">
        <ele>2.2</ele>
        <time>2018-09-21T13:12:15.000Z</time>
      </trkpt>
      <trkpt lat="46.73165" lon="-2.36987">
        <ele>2.2</ele>
        <time>2018-09-21T13:12:16.000Z</time>
      </trkpt>
      <trkpt lat="46.73165" lon="-2.36988">
        <ele>2.2</ele>
        <time>2018-09-21T13:12:17.000Z</time>
      </trkpt>
      <trkpt lat="46.73165" lon="-2.36989">
        <ele>2.2</ele>
        <time>2018-09-21T13:12:18.000Z</time>
      </trkpt>
      <trkpt lat="46.73165" lon="-2.36991">
        <ele>2.2</ele>
        <time>2018-09-21T13:12:19.000Z</time>
      </trkpt>
      <trkpt lat="46.73165" lon="-2.36992">
        <ele>2.2</ele>
        <time>2018-09-21T13:12:20.000Z</time>
      </trkpt>
      <trkpt lat="46.73165" lon="-2.36993">
        <ele>2.1</ele>
        <time>2018-09-21T13:12:21.000Z</time>
      </trkpt>
      <trkpt lat="46.73165" lon="-2.36994">
        <ele>2.1</ele>
        <time>2018-09-21T13:12:22.000Z</time>
      </trkpt>
      <trkpt lat="46.73165" lon="-2.36996">
        <ele>2.1</ele>
        <time>2018-09-21T13:12:23.000Z</time>
      </trkpt>
      <trkpt lat="46.73165" lon="-2.36997">
        <ele>2.1</ele>
        <time>2018-09-21T13:12:24.000Z</time>
      </trkpt>
      <trkpt lat="46.73165" lon="-2.36998">
        <ele>2.1</ele>
        <time>2018-09-21T13:12:25.000Z</time>
      </trkpt>
      <trkpt lat="46.73165" lon="-2.37">
        <ele>2.1</ele>
        <time>2018-09-21T13:12:26.000Z</time>
      </trkpt>
      <trkpt lat="46.73165" lon="-2.37001">
        <ele>2.1</ele>
        <time>2018-09-21T13:12:27.000Z</time>
      </trkpt>
      <trkpt lat="46.73166" lon="-2.37002">
        <ele>2.1</ele>
        <time>2018-09-21T13:12:28.000Z</time>
      </trkpt>
      <trkpt lat="46.73166" lon="-2.37004">
        <ele>2.1</ele>
        <time>2018-09-21T13:12:29.000Z</time>
      </trkpt>
      <trkpt lat="46.73166" lon="-2.37005">
        <ele>2.1</ele>
        <time>2018-09-21T13:12:30.000Z</time>
      </trkpt>
      <trkpt lat="46.73166" lon="-2.37006">
        <ele>2.1</ele>
        <time>2018-09-21T13:12:31.000Z</time>
      </trkpt>
      <trkpt lat="46.73166" lon="-2.37007">
        <ele>2.1</ele>
        <time>2018-09-21T13:12:32.000Z</time>
      </trkpt>
      <trkpt lat="46.73166" lon="-2.37009">
        <ele>2.1</ele>
        <time>2018-09-21T13:12:33.000Z</time>
      </trkpt>
      <trkpt lat="46.73166" lon="-2.3701">
        <ele>2.2</ele>
        <time>2018-09-21T13:12:34.000Z</time>
      </trkpt>
      <trkpt lat="46.73166" lon="-2.37011">
        <ele>2.2</ele>
        <time>2018-09-21T13:12:35.000Z</time>
      </trkpt>
      <trkpt lat="46.73166" lon="-2.37012">
        <ele>2.2</ele>
        <time>2018-09-21T13:12:36.000Z</time>
      </trkpt>
      <trkpt lat="46.73165" lon="-2.37013">
        <ele>2.2</ele>
        <time>2018-09-21T13:12:37.000Z</time>
      </trkpt>
      <trkpt lat="46.73165" lon="-2.37014">
        <ele>2.2</ele>
        <time>2018-09-21T13:12:38.000Z</time>
      </trkpt>
      <trkpt lat="46.73165" lon="-2.37015">
        <ele>2.3</ele>
        <time>2018-09-21T13:12:39.000Z</time>
      </trkpt>
      <trkpt lat="46.73165" lon="-2.37016">
        <ele>2.3</ele>
        <time>2018-09-21T13:12:40.000Z</time>
      </trkpt>
      <trkpt lat="46.73164" lon="-2.37017">
        <ele>2.3</ele>
        <time>2018-09-21T13:12:41.000Z</time>
      </trkpt>
      <trkpt lat="46.73164" lon="-2.37018">
        <ele>2.3</ele>
        <time>2018-09-21T13:12:42.000Z</time>
      </trkpt>
      <trkpt lat="46.73163" lon="-2.37018">
        <ele>2.4</ele>
        <time>2018-09-21T13:12:43.000Z</time>
      </trkpt>
      <trkpt lat="46.73163" lon="-2.37019">
        <ele>2.4</ele>
        <time>2018-09-21T13:12:44.000Z</time>
      </trkpt>
      <trkpt lat="46.73162" lon="-2.3702">
        <ele>2.5</ele>
        <time>2018-09-21T13:12:45.000Z</time>
      </trkpt>
      <trkpt lat="46.73161" lon="-2.37021">
        <ele>2.5</ele>
        <time>2018-09-21T13:12:46.000Z</time>
      </trkpt>
      <trkpt lat="46.73161" lon="-2.37022">
        <ele>2.5</ele>
        <time>2018-09-21T13:12:47.000Z</time>
      </trkpt>
      <trkpt lat="46.7316" lon="-2.37023">
        <ele>2.6</ele>
        <time>2018-09-21T13:12:48.000Z</time>
      </trkpt>
      <trkpt lat="46.73159" lon="-2.37024">
        <ele>2.6</ele>
        <time>2018-09-21T13:12:49.000Z</time>
      </trkpt>
      <trkpt lat="46.73158" lon="-2.37025">
        <ele>2.7</ele>
        <time>2018-09-21T13:12:50.000Z</time>
      </trkpt>
      <trkpt lat="46.73158" lon="-2.37026">
        <ele>2.7</ele>
        <time>2018-09-21T13:12:51.000Z</time>
      </trkpt>
      <trkpt lat="46.73157" lon="-2.37027">
        <ele>2.8</ele>
        <time>2018-09-21T13:12:52.000Z</time>
      </trkpt>
      <trkpt lat="46.73156" lon="-2.37029">
        <ele>2.8</ele>
        <time>2018-09-21T13:12:53.000Z</time>
      </trkpt>
      <trkpt lat="46.73155" lon="-2.3703">
        <ele>2.9</ele>
        <time>2018-09-21T13:12:54.000Z</time>
      </trkpt>
      <trkpt lat="46.73155" lon="-2.37031">
        <ele>2.9</ele>
        <time>2018-09-21T13:12:55.000Z</time>
      </trkpt>
      <trkpt lat="46.73154" lon="-2.37033">
        <ele>2.9</ele>
        <time>2018-09-21T13:12:56.000Z</time>
      </trkpt>
      <trkpt lat="46.73153" lon="-2.37034">
        <ele>3</ele>
        <time>2018-09-21T13:12:57.000Z</time>
      </trkpt>
      <trkpt lat="46.73153" lon="-2.37035">
        <ele>3</ele>
        <time>2018-09-21T13:12:58.000Z</time>
      </trkpt>
      <trkpt lat="46.73152" lon="-2.37037">
        <ele>3.1</ele>
        <time>2018-09-21T13:12:59.000Z</time>
      </trkpt>
      <trkpt lat="46.73152" lon="-2.37038">
        <ele>3.1</ele>
        <time>2018-09-21T13:13:00.000Z</time>
      </trkpt>
      <trkpt lat="46.73151" lon="-2.37039">
        <ele>3.1</ele>
        <time>2018-09-21T13:13:01.000Z</time>
      </trkpt>
      <trkpt lat="46.73151" lon="-2.37041">
        <ele>3.2</ele>
        <time>2018-09-21T13:13:02.000Z</time>
      </trkpt>
      <trkpt lat="46.73151" lon="-2.37042">
        <ele>3.2</ele>
        <time>2018-09-21T13:13:03.000Z</time>
      </trkpt>
      <trkpt lat="46.73151" lon="-2.37044">
        <ele>3.2</ele>
        <time>2018-09-21T13:13:04.000Z</time>
      </trkpt>
      <trkpt lat="46.73151" lon="-2.37045">
        <ele>3.2</ele>
        <time>2018-09-21T13:13:05.000Z</time>
      </trkpt>
      <trkpt lat="46.73151" lon="-2.37047">
        <ele>3.2</ele>
        <time>2018-09-21T13:13:06.000Z</time>
      </trkpt>
      <trkpt lat="46.73151" lon="-2.37048">
        <ele>3.2</ele>
        <time>2018-09-21T13:13:07.000Z</time>
      </trkpt>
      <trkpt lat="46.73151" lon="-2.3705">
        <ele>3.2</ele>
        <time>2018-09-21T13:13:08.000Z</time>
      </trkpt>
      <trkpt lat="46.73152" lon="-2.37051">
        <ele>3.2</ele>
        <time>2018-09-21T13:13:09.000Z</time>
      </trkpt>
      <trkpt lat="46.73152" lon="-2.37053">
        <ele>3.2</ele>
        <time>2018-09-21T13:13:10.000Z</time>
      </trkpt>
      <trkpt lat="46.73153" lon="-2.37054">
        <ele>3.2</ele>
        <time>2018-09-21T13:13:11.000Z</time>
      </trkpt>
      <trkpt lat="46.73153" lon="-2.37055">
        <ele>3.2</ele>
        <time>2018-09-21T13:13:12.000Z</time>
      </trkpt>
      <trkpt lat="46.73154" lon="-2.37057">
        <ele>3.2</ele>
        <time>2018-09-21T13:13:13.000Z</time>
      </trkpt>
      <trkpt lat="46.73155" lon="-2.37058">
        <ele>3.2</ele>
        <time>2018-09-21T13:13:14.000Z</time>
      </trkpt>
      <trkpt lat="46.73155" lon="-2.3706">
        <ele>3.2</ele>
        <time>2018-09-21T13:13:15.000Z</time>
      </trkpt>
      <trkpt lat="46.73156" lon="-2.37061">
        <ele>3.2</ele>
        <time>2018-09-21T13:13:16.000Z</time>
      </trkpt>
      <trkpt lat="46.73156" lon="-2.37062">
        <ele>3.2</ele>
        <time>2018-09-21T13:13:17.000Z</time>
      </trkpt>
      <trkpt lat="46.73156" lon="-2.37063">
        <ele>3.2</ele>
        <time>2018-09-21T13:13:18.000Z</time>
      </trkpt>
      <trkpt lat="46.73157" lon="-2.37065">
        <ele>3.2</ele>
        <time>2018-09-21T13:13:19.000Z</time>
      </trkpt>
      <trkpt lat="46.73157" lon="-2.37066">
        <ele>3.2</ele>
        <time>2018-09-21T13:13:20.000Z</time>
      </trkpt>
      <trkpt lat="46.73158" lon="-2.37067">
        <ele>3.2</ele>
        <time>2018-09-21T13:13:21.000Z</time>
      </trkpt>
      <trkpt lat="46.73158" lon="-2.37069">
        <ele>3.2</ele>
        <time>2018-09-21T13:13:22.000Z</time>
      </trkpt>
      <trkpt lat="46.73158" lon="-2.3707">
        <ele>3.2</ele>
        <time>2018-09-21T13:13:23.000Z</time>
      </trkpt>
      <trkpt lat="46.73159" lon="-2.37071">
        <ele>3.2</ele>
        <time>2018-09-21T13:13:24.000Z</time>
      </trkpt>
      <trkpt lat="46.73159" lon="-2.37073">
        <ele>3.2</ele>
        <time>2018-09-21T13:13:25.000Z</time>
      </trkpt>
      <trkpt lat="46.7316" lon="-2.37074">
        <ele>3.2</ele>
        <time>2018-09-21T13:13:26.000Z</time>
      </trkpt>
      <trkpt lat="46.7316" lon="-2.37075">
        <ele>3.1</ele>
        <time>2018-09-21T13:13:27.000Z</time>
      </trkpt>
      <trkpt lat="46.73161" lon="-2.37077">
        <ele>3.1</ele>
        <time>2018-09-21T13:13:28.000Z</time>
      </trkpt>
      <trkpt lat="46.73161" lon="-2.37078">
        <ele>3.1</ele>
        <time>2018-09-21T13:13:29.000Z</time>
      </trkpt>
      <trkpt lat="46.73162" lon="-2.3708">
        <ele>3.1</ele>
        <time>2018-09-21T13:13:30.000Z</time>
      </trkpt>
      <trkpt lat="46.73162" lon="-2.37081">
        <ele>3.1</ele>
        <time>2018-09-21T13:13:31.000Z</time>
      </trkpt>
      <trkpt lat="46.73162" lon="-2.37083">
        <ele>3.1</ele>
        <time>2018-09-21T13:13:32.000Z</time>
      </trkpt>
      <trkpt lat="46.73163" lon="-2.37084">
        <ele>3.2</ele>
        <time>2018-09-21T13:13:33.000Z</time>
      </trkpt>
      <trkpt lat="46.73163" lon="-2.37086">
        <ele>3.2</ele>
        <time>2018-09-21T13:13:34.000Z</time>
      </trkpt>
      <trkpt lat="46.73163" lon="-2.37087">
        <ele>3.2</ele>
        <time>2018-09-21T13:13:35.000Z</time>
      </trkpt>
      <trkpt lat="46.73163" lon="-2.37089">
        <ele>3.2</ele>
        <time>2018-09-21T13:13:36.000Z</time>
      </trkpt>
      <trkpt lat="46.73163" lon="-2.3709">
        <ele>3.3</ele>
        <time>2018-09-21T13:13:37.000Z</time>
      </trkpt>
      <trkpt lat="46.73163" lon="-2.37092">
        <ele>3.3</ele>
        <time>2018-09-21T13:13:38.000Z</time>
      </trkpt>
      <trkpt lat="46.73163" lon="-2.37093">
        <ele>3.3</ele>
        <time>2018-09-21T13:13:39.000Z</time>
      </trkpt>
      <trkpt lat="46.73163" lon="-2.37094">
        <ele>3.4</ele>
        <time>2018-09-21T13:13:40.000Z</time>
      </trkpt>
      <trkpt lat="46.73163" lon="-2.37096">
        <ele>3.4</ele>
        <time>2018-09-21T13:13:41.000Z</time>
      </trkpt>
      <trkpt lat="46.73163" lon="-2.37097">
        <ele>3.5</ele>
        <time>2018-09-21T13:13:42.000Z</time>
      </trkpt>
      <trkpt lat="46.73162" lon="-2.37098">
        <ele>3.5</ele>
        <time>2018-09-21T13:13:43.000Z</time>
      </trkpt>
      <trkpt lat="46.73162" lon="-2.37099">
        <ele>3.5</ele>
        <time>2018-09-21T13:13:44.000Z</time>
      </trkpt>
      <trkpt lat="46.73161" lon="-2.371">
        <ele>3.6</ele>
        <time>2018-09-21T13:13:45.000Z</time>
      </trkpt>
      <trkpt lat="46.7316" lon="-2.37101">
        <ele>3.6</ele>
        <time>2018-09-21T13:13:46.000Z</time>
      </trkpt>
      <trkpt lat="46.7316" lon="-2.37102">
        <ele>3.7</ele>
        <time>2018-09-21T13:13:47.000Z</time>
      </trkpt>
      <trkpt lat="46.73159" lon="-2.37103">
        <ele>3.7</ele>
        <time>2018-09-21T13:13:48.000Z</time>
      </trkpt>
      <trkpt lat="46.73158" lon="-2.37104">
        <ele>3.8</ele>
        <time>2018-09-21T13:13:49.000Z</time>
      </trkpt>
      <trkpt lat="46.73157" lon="-2.37105">
        <ele>3.8</ele>
        <time>2018-09-21T13:13:50.000Z</time>
      </trkpt>
      <trkpt lat="46.73156" lon="-2.37106">
        <ele>3.8</ele>
        <time>2018-09-21T13:13:51.000Z</time>
      </trkpt>
      <trkpt lat="46.73155" lon="-2.37106">
        <ele>3.9</ele>
        <time>2018-09-21T13:13:52.000Z</time>
      </trkpt>
      <trkpt lat="46.73154" lon="-2.37107">
        <ele>3.9</ele>
        <time>2018-09-21T13:13:53.000Z</time>
      </trkpt>
      <trkpt lat="46.73154" lon="-2.37108">
        <ele>4</ele>
        <time>2018-09-21T13:13:54.000Z</time>
      </trkpt>
      <trkpt lat="46.73153" lon="-2.37109">
        <ele>4</ele>
        <time>2018-09-21T13:13:55.000Z</time>
      </trkpt>
      <trkpt lat="46.73152" lon="-2.37111">
        <ele>4.1</ele>
        <time>2018-09-21T13:13:56.000Z</time>
      </trkpt>
      <trkpt lat="46.73151" lon="-2.37112">
        <ele>4.1</ele>
        <time>2018-09-21T13:13:57.000Z</time>
      </trkpt>
      <trkpt lat="46.7315" lon="-2.37113">
        <ele>4.2</ele>
        <time>2018-09-21T13:13:58.000Z</time>
      </trkpt>
      <trkpt lat="46.73149" lon="-2.37114">
        <ele>4.2</ele>
        <time>2018-09-21T13:13:59.000Z</time>
      </trkpt>
      <trkpt lat="46.73148" lon="-2.37115">
        <ele>4.3</ele>
        <time>2018-09-21T13:14:00.000Z</time>
      </trkpt>
      <trkpt lat="46.73147" lon="-2.37116">
        <ele>4.3</ele>
        <time>2018-09-21T13:14:01.000Z</time>
      </trkpt>
      <trkpt lat="46.73146" lon="-2.37117">
        <ele>4.3</ele>
        <time>2018-09-21T13:14:02.000Z</time>
      </trkpt>
      <trkpt lat="46.73146" lon="-2.37118">
        <ele>4.4</ele>
        <time>2018-09-21T13:14:03.000Z</time>
      </trkpt>
      <trkpt lat="46.73145" lon="-2.37118">
        <ele>4.4</ele>
        <time>2018-09-21T13:14:04.000Z</time>
      </trkpt>
      <trkpt lat="46.73144" lon="-2.37119">
        <ele>4.5</ele>
        <time>2018-09-21T13:14:05.000Z</time>
      </trkpt>
      <trkpt lat="46.73143" lon="-2.3712">
        <ele>4.5</ele>
        <time>2018-09-21T13:14:06.000Z</time>
      </trkpt>
      <trkpt lat="46.73142" lon="-2.37121">
        <ele>4.5</ele>
        <time>2018-09-21T13:14:07.000Z</time>
      </trkpt>
      <trkpt lat="46.73141" lon="-2.37121">
        <ele>4.6</ele>
        <time>2018-09-21T13:14:08.000Z</time>
      </trkpt>
      <trkpt lat="46.7314" lon="-2.37122">
        <ele>4.6</ele>
        <time>2018-09-21T13:14:09.000Z</time>
      </trkpt>
      <trkpt lat="46.73139" lon="-2.37123">
        <ele>4.6</ele>
        <time>2018-09-21T13:14:10.000Z</time>
      </trkpt>
      <trkpt lat="46.73139" lon="-2.37124">
        <ele>4.7</ele>
        <time>2018-09-21T13:14:11.000Z</time>
      </trkpt>
      <trkpt lat="46.73138" lon="-2.37125">
        <ele>4.7</ele>
        <time>2018-09-21T13:14:12.000Z</time>
      </trkpt>
      <trkpt lat="46.73137" lon="-2.37126">
        <ele>4.7</ele>
        <time>2018-09-21T13:14:13.000Z</time>
      </trkpt>
      <trkpt lat="46.73136" lon="-2.37127">
        <ele>4.8</ele>
        <time>2018-09-21T13:14:14.000Z</time>
      </trkpt>
      <trkpt lat="46.73136" lon="-2.37129">
        <ele>4.8</ele>
        <time>2018-09-21T13:14:15.000Z</time>
      </trkpt>
      <trkpt lat="46.73135" lon="-2.3713">
        <ele>4.8</ele>
        <time>2018-09-21T13:14:16.000Z</time>
      </trkpt>
      <trkpt lat="46.73134" lon="-2.37131">
        <ele>4.9</ele>
        <time>2018-09-21T13:14:17.000Z</time>
      </trkpt>
      <trkpt lat="46.73134" lon="-2.37133">
        <ele>4.9</ele>
        <time>2018-09-21T13:14:18.000Z</time>
      </trkpt>
      <trkpt lat="46.73133" lon="-2.37134">
        <ele>4.9</ele>
        <time>2018-09-21T13:14:19.000Z</time>
      </trkpt>
      <trkpt lat="46.73133" lon="-2.37136">
        <ele>5</ele>
        <time>2018-09-21T13:14:20.000Z</time>
      </trkpt>
      <trkpt lat="46.73132" lon="-2.37137">
        <ele>5</ele>
        <time>2018-09-21T13:14:21.000Z</time>
      </trkpt>
      <trkpt lat="46.73131" lon="-2.37139">
        <ele>5</ele>
        <time>2018-09-21T13:14:22.000Z</time>
      </trkpt>
      <trkpt lat="46.73131" lon="-2.3714">
        <ele>5.1</ele>
        <time>2018-09-21T13:14:23.000Z</time>
      </trkpt>
      <trkpt lat="46.7313" lon="-2.37141">
        <ele>5.1</ele>
        <time>2018-09-21T13:14:24.000Z</time>
      </trkpt>
      <trkpt lat="46.73129" lon="-2.37142">
        <ele>5.1</ele>
        <time>2018-09-21T13:14:25.000Z</time>
      </trkpt>
      <trkpt lat="46.73129" lon="-2.37144">
        <ele>5.2</ele>
        <time>2018-09-21T13:14:26.000Z</time>
      </trkpt>
      <trkpt lat="46.73128" lon="-2.37145">
        <ele>5.2</ele>
        <time>2018-09-21T13:14:27.000Z</time>
      </trkpt>
      <trkpt lat="46.73127" lon="-2.37146">
        <ele>5.2</ele>
        <time>2018-09-21T13:14:28.000Z</time>
      </trkpt>
      <trkpt lat="46.73127" lon="-2.37147">
        <ele>5.2</ele>
        <time>2018-09-21T13:14:29.000Z</time>
      </trkpt>
      <trkpt lat="46.73126" lon="-2.37148">
        <ele>5.3</ele>
        <time>2018-09-21T13:14:30.000Z</time>
      </trkpt>
      <trkpt lat="46.73125" lon="-2.37149">
        <ele>5.3</ele>
        <time>2018-09-21T13:14:31.000Z</time>
      </trkpt>
      <trkpt lat="46.73124" lon="-2.37151">
        <ele>5.3</ele>
        <time>2018-09-21T13:14:32.000Z</time>
      </trkpt>
      <trkpt lat="46.73124" lon="-2.37152">
        <ele>5.3</ele>
        <time>2018-09-21T13:14:33.000Z</time>
      </trkpt>
      <trkpt lat="46.73123" lon="-2.37153">
        <ele>5.4</ele>
        <time>2018-09-21T13:14:34.000Z</time>
      </trkpt>
      <trkpt lat="46.73122" lon="-2.37154">
        <ele>5.4</ele>
        <time>2018-09-21T13:14:35.000Z</time>
      </trkpt>
      <trkpt lat="46.73122" lon="-2.37155">
        <ele>5.4</ele>
        <time>2018-09-21T13:14:36.000Z</time>
      </trkpt>
      <trkpt lat="46.73121" lon="-2.37156">
        <ele>5.4</ele>
        <time>2018-09-21T13:14:37.000Z</time>
      </trkpt>
      <trkpt lat="46.7312" lon="-2.37158">
        <ele>5.5</ele>
        <time>2018-09-21T13:14:38.000Z</time>
      </trkpt>
      <trkpt lat="46.73119" lon="-2.37159">
        <ele>5.5</ele>
        <time>2018-09-21T13:14:39.000Z</time>
      </trkpt>
      <trkpt lat="46.73119" lon="-2.3716">
        <ele>5.5</ele>
        <time>2018-09-21T13:14:40.000Z</time>
      </trkpt>
      <trkpt lat="46.73118" lon="-2.37161">
        <ele>5.5</ele>
        <time>2018-09-21T13:14:41.000Z</time>
      </trkpt>
      <trkpt lat="46.73117" lon="-2.37163">
        <ele>5.6</ele>
        <time>2018-09-21T13:14:42.000Z</time>
      </trkpt>
      <trkpt lat="46.73117" lon="-2.37164">
        <ele>5.6</ele>
        <time>2018-09-21T13:14:43.000Z</time>
      </trkpt>
      <trkpt lat="46.73116" lon="-2.37165">
        <ele>5.6</ele>
        <time>2018-09-21T13:14:44.000Z</time>
      </trkpt>
      <trkpt lat="46.73116" lon="-2.37167">
        <ele>5.6</ele>
        <time>2018-09-21T13:14:45.000Z</time>
      </trkpt>
      <trkpt lat="46.73115" lon="-2.37168">
        <ele>5.6</ele>
        <time>2018-09-21T13:14:46.000Z</time>
      </trkpt>
      <trkpt lat="46.73115" lon="-2.37169">
        <ele>5.6</ele>
        <time>2018-09-21T13:14:47.000Z</time>
      </trkpt>
      <trkpt lat="46.73114" lon="-2.3717">
        <ele>5.6</ele>
        <time>2018-09-21T13:14:48.000Z</time>
      </trkpt>
      <trkpt lat="46.73113" lon="-2.37171">
        <ele>5.7</ele>
        <time>2018-09-21T13:14:49.000Z</time>
      </trkpt>
      <trkpt lat="46.73113" lon="-2.37172">
        <ele>5.7</ele>
        <time>2018-09-21T13:14:50.000Z</time>
      </trkpt>
      <trkpt lat="46.73112" lon="-2.37174">
        <ele>5.7</ele>
        <time>2018-09-21T13:14:51.000Z</time>
      </trkpt>
      <trkpt lat="46.73112" lon="-2.37175">
        <ele>5.7</ele>
        <time>2018-09-21T13:14:52.000Z</time>
      </trkpt>
      <trkpt lat="46.73111" lon="-2.37176">
        <ele>5.7</ele>
        <time>2018-09-21T13:14:53.000Z</time>
      </trkpt>
      <trkpt lat="46.7311" lon="-2.37178">
        <ele>5.7</ele>
        <time>2018-09-21T13:14:54.000Z</time>
      </trkpt>
      <trkpt lat="46.7311" lon="-2.37179">
        <ele>5.7</ele>
        <time>2018-09-21T13:14:55.000Z</time>
      </trkpt>
      <trkpt lat="46.73109" lon="-2.37181">
        <ele>5.7</ele>
        <time>2018-09-21T13:14:56.000Z</time>
      </trkpt>
      <trkpt lat="46.73109" lon="-2.37182">
        <ele>5.7</ele>
        <time>2018-09-21T13:14:57.000Z</time>
      </trkpt>
      <trkpt lat="46.73108" lon="-2.37183">
        <ele>5.8</ele>
        <time>2018-09-21T13:14:58.000Z</time>
      </trkpt>
      <trkpt lat="46.73108" lon="-2.37184">
        <ele>5.8</ele>
        <time>2018-09-21T13:14:59.000Z</time>
      </trkpt>
      <trkpt lat="46.73107" lon="-2.37186">
        <ele>5.8</ele>
        <time>2018-09-21T13:15:00.000Z</time>
      </trkpt>
      <trkpt lat="46.73107" lon="-2.37187">
        <ele>5.8</ele>
        <time>2018-09-21T13:15:01.000Z</time>
      </trkpt>
      <trkpt lat="46.73106" lon="-2.37188">
        <ele>5.8</ele>
        <time>2018-09-21T13:15:02.000Z</time>
      </trkpt>
      <trkpt lat="46.73106" lon="-2.37189">
        <ele>5.8</ele>
        <time>2018-09-21T13:15:03.000Z</time>
      </trkpt>
      <trkpt lat="46.73105" lon="-2.37191">
        <ele>5.8</ele>
        <time>2018-09-21T13:15:04.000Z</time>
      </trkpt>
      <trkpt lat="46.73104" lon="-2.37192">
        <ele>5.8</ele>
        <time>2018-09-21T13:15:05.000Z</time>
      </trkpt>
      <trkpt lat="46.73104" lon="-2.37193">
        <ele>5.8</ele>
        <time>2018-09-21T13:15:06.000Z</time>
      </trkpt>
      <trkpt lat="46.73103" lon="-2.37194">
        <ele>5.8</ele>
        <time>2018-09-21T13:15:07.000Z</time>
      </trkpt>
      <trkpt lat="46.73102" lon="-2.37196">
        <ele>5.9</ele>
        <time>2018-09-21T13:15:08.000Z</time>
      </trkpt>
      <trkpt lat="46.73102" lon="-2.37197">
        <ele>5.9</ele>
        <time>2018-09-21T13:15:09.000Z</time>
      </trkpt>
      <trkpt lat="46.73101" lon="-2.37198">
        <ele>5.9</ele>
        <time>2018-09-21T13:15:10.000Z</time>
      </trkpt>
      <trkpt lat="46.731" lon="-2.37199">
        <ele>5.9</ele>
        <time>2018-09-21T13:15:11.000Z</time>
      </trkpt>
      <trkpt lat="46.731" lon="-2.37201">
        <ele>5.9</ele>
        <time>2018-09-21T13:15:12.000Z</time>
      </trkpt>
      <trkpt lat="46.73099" lon="-2.37202">
        <ele>5.9</ele>
        <time>2018-09-21T13:15:13.000Z</time>
      </trkpt>
      <trkpt lat="46.73098" lon="-2.37203">
        <ele>5.9</ele>
        <time>2018-09-21T13:15:14.000Z</time>
      </trkpt>
      <trkpt lat="46.73098" lon="-2.37204">
        <ele>5.9</ele>
        <time>2018-09-21T13:15:15.000Z</time>
      </trkpt>
      <trkpt lat="46.73097" lon="-2.37206">
        <ele>5.9</ele>
        <time>2018-09-21T13:15:16.000Z</time>
      </trkpt>
      <trkpt lat="46.73096" lon="-2.37207">
        <ele>5.9</ele>
        <time>2018-09-21T13:15:17.000Z</time>
      </trkpt>
      <trkpt lat="46.73096" lon="-2.37208">
        <ele>5.9</ele>
        <time>2018-09-21T13:15:18.000Z</time>
      </trkpt>
      <trkpt lat="46.73095" lon="-2.37209">
        <ele>5.9</ele>
        <time>2018-09-21T13:15:19.000Z</time>
      </trkpt>
      <trkpt lat="46.73094" lon="-2.37211">
        <ele>5.9</ele>
        <time>2018-09-21T13:15:20.000Z</time>
      </trkpt>
      <trkpt lat="46.73094" lon="-2.37212">
        <ele>5.9</ele>
        <time>2018-09-21T13:15:21.000Z</time>
      </trkpt>
      <trkpt lat="46.73093" lon="-2.37213">
        <ele>5.9</ele>
        <time>2018-09-21T13:15:22.000Z</time>
      </trkpt>
      <trkpt lat="46.73092" lon="-2.37214">
        <ele>6</ele>
        <time>2018-09-21T13:15:23.000Z</time>
      </trkpt>
      <trkpt lat="46.73092" lon="-2.37216">
        <ele>6</ele>
        <time>2018-09-21T13:15:24.000Z</time>
      </trkpt>
      <trkpt lat="46.73091" lon="-2.37217">
        <ele>6</ele>
        <time>2018-09-21T13:15:25.000Z</time>
      </trkpt>
      <trkpt lat="46.73091" lon="-2.37219">
        <ele>6</ele>
        <time>2018-09-21T13:15:26.000Z</time>
      </trkpt>
      <trkpt lat="46.7309" lon="-2.3722">
        <ele>6</ele>
        <time>2018-09-21T13:15:27.000Z</time>
      </trkpt>
      <trkpt lat="46.73089" lon="-2.37222">
        <ele>6</ele>
        <time>2018-09-21T13:15:28.000Z</time>
      </trkpt>
      <trkpt lat="46.73089" lon="-2.37224">
        <ele>6</ele>
        <time>2018-09-21T13:15:29.000Z</time>
      </trkpt>
      <trkpt lat="46.73088" lon="-2.37225">
        <ele>6</ele>
        <time>2018-09-21T13:15:30.000Z</time>
      </trkpt>
      <trkpt lat="46.73088" lon="-2.37227">
        <ele>6</ele>
        <time>2018-09-21T13:15:31.000Z</time>
      </trkpt>
      <trkpt lat="46.73087" lon="-2.37229">
        <ele>6</ele>
        <time>2018-09-21T13:15:32.000Z</time>
      </trkpt>
      <trkpt lat="46.73087" lon="-2.37231">
        <ele>6</ele>
        <time>2018-09-21T13:15:33.000Z</time>
      </trkpt>
      <trkpt lat="46.73086" lon="-2.37232">
        <ele>6</ele>
        <time>2018-09-21T13:15:34.000Z</time>
      </trkpt>
      <trkpt lat="46.73086" lon="-2.37234">
        <ele>6</ele>
        <time>2018-09-21T13:15:35.000Z</time>
      </trkpt>
      <trkpt lat="46.73085" lon="-2.37236">
        <ele>6</ele>
        <time>2018-09-21T13:15:36.000Z</time>
      </trkpt>
      <trkpt lat="46.73084" lon="-2.37238">
        <ele>6</ele>
        <time>2018-09-21T13:15:37.000Z</time>
      </trkpt>
      <trkpt lat="46.73084" lon="-2.37239">
        <ele>6</ele>
        <time>2018-09-21T13:15:38.000Z</time>
      </trkpt>
      <trkpt lat="46.73083" lon="-2.37241">
        <ele>6</ele>
        <time>2018-09-21T13:15:39.000Z</time>
      </trkpt>
      <trkpt lat="46.73083" lon="-2.37242">
        <ele>6</ele>
        <time>2018-09-21T13:15:40.000Z</time>
      </trkpt>
      <trkpt lat="46.73082" lon="-2.37244">
        <ele>6</ele>
        <time>2018-09-21T13:15:41.000Z</time>
      </trkpt>
      <trkpt lat="46.73082" lon="-2.37245">
        <ele>6</ele>
        <time>2018-09-21T13:15:42.000Z</time>
      </trkpt>
      <trkpt lat="46.73081" lon="-2.37247">
        <ele>6.1</ele>
        <time>2018-09-21T13:15:43.000Z</time>
      </trkpt>
      <trkpt lat="46.7308" lon="-2.37248">
        <ele>6.1</ele>
        <time>2018-09-21T13:15:44.000Z</time>
      </trkpt>
      <trkpt lat="46.7308" lon="-2.37249">
        <ele>6.1</ele>
        <time>2018-09-21T13:15:45.000Z</time>
      </trkpt>
      <trkpt lat="46.73079" lon="-2.37251">
        <ele>6.1</ele>
        <time>2018-09-21T13:15:46.000Z</time>
      </trkpt>
      <trkpt lat="46.73078" lon="-2.37252">
        <ele>6.2</ele>
        <time>2018-09-21T13:15:47.000Z</time>
      </trkpt>
      <trkpt lat="46.73078" lon="-2.37253">
        <ele>6.2</ele>
        <time>2018-09-21T13:15:48.000Z</time>
      </trkpt>
      <trkpt lat="46.73077" lon="-2.37254">
        <ele>6.3</ele>
        <time>2018-09-21T13:15:49.000Z</time>
      </trkpt>
      <trkpt lat="46.73076" lon="-2.37256">
        <ele>6.3</ele>
        <time>2018-09-21T13:15:50.000Z</time>
      </trkpt>
      <trkpt lat="46.73076" lon="-2.37257">
        <ele>6.3</ele>
        <time>2018-09-21T13:15:51.000Z</time>
      </trkpt>
      <trkpt lat="46.73075" lon="-2.37258">
        <ele>6.4</ele>
        <time>2018-09-21T13:15:52.000Z</time>
      </trkpt>
      <trkpt lat="46.73075" lon="-2.37259">
        <ele>6.4</ele>
        <time>2018-09-21T13:15:53.000Z</time>
      </trkpt>
      <trkpt lat="46.73074" lon="-2.3726">
        <ele>6.5</ele>
        <time>2018-09-21T13:15:54.000Z</time>
      </trkpt>
      <trkpt lat="46.73073" lon="-2.37261">
        <ele>6.5</ele>
        <time>2018-09-21T13:15:55.000Z</time>
      </trkpt>
      <trkpt lat="46.73073" lon="-2.37262">
        <ele>6.5</ele>
        <time>2018-09-21T13:15:56.000Z</time>
      </trkpt>
      <trkpt lat="46.73072" lon="-2.37263">
        <ele>6.6</ele>
        <time>2018-09-21T13:15:57.000Z</time>
      </trkpt>
      <trkpt lat="46.73072" lon="-2.37265">
        <ele>6.6</ele>
        <time>2018-09-21T13:15:58.000Z</time>
      </trkpt>
      <trkpt lat="46.73071" lon="-2.37266">
        <ele>6.7</ele>
        <time>2018-09-21T13:15:59.000Z</time>
      </trkpt>
      <trkpt lat="46.73071" lon="-2.37267">
        <ele>6.7</ele>
        <time>2018-09-21T13:16:00.000Z</time>
      </trkpt>
      <trkpt lat="46.7307" lon="-2.37268">
        <ele>6.7</ele>
        <time>2018-09-21T13:16:01.000Z</time>
      </trkpt>
      <trkpt lat="46.7307" lon="-2.37269">
        <ele>6.8</ele>
        <time>2018-09-21T13:16:02.000Z</time>
      </trkpt>
      <trkpt lat="46.73069" lon="-2.3727">
        <ele>6.8</ele>
        <time>2018-09-21T13:16:03.000Z</time>
      </trkpt>
      <trkpt lat="46.73069" lon="-2.37271">
        <ele>6.9</ele>
        <time>2018-09-21T13:16:04.000Z</time>
      </trkpt>
      <trkpt lat="46.73068" lon="-2.37272">
        <ele>6.9</ele>
        <time>2018-09-21T13:16:05.000Z</time>
      </trkpt>
      <trkpt lat="46.73067" lon="-2.37273">
        <ele>7</ele>
        <time>2018-09-21T13:16:06.000Z</time>
      </trkpt>
      <trkpt lat="46.73066" lon="-2.37274">
        <ele>7</ele>
        <time>2018-09-21T13:16:07.000Z</time>
      </trkpt>
      <trkpt lat="46.73065" lon="-2.37275">
        <ele>7</ele>
        <time>2018-09-21T13:16:08.000Z</time>
      </trkpt>
      <trkpt lat="46.73064" lon="-2.37276">
        <ele>7.1</ele>
        <time>2018-09-21T13:16:09.000Z</time>
      </trkpt>
      <trkpt lat="46.73063" lon="-2.37277">
        <ele>7.1</ele>
        <time>2018-09-21T13:16:10.000Z</time>
      </trkpt>
      <trkpt lat="46.73062" lon="-2.37278">
        <ele>7.2</ele>
        <time>2018-09-21T13:16:11.000Z</time>
      </trkpt>
      <trkpt lat="46.73061" lon="-2.37278">
        <ele>7.2</ele>
        <time>2018-09-21T13:16:12.000Z</time>
      </trkpt>
      <trkpt lat="46.7306" lon="-2.37279">
        <ele>7.3</ele>
        <time>2018-09-21T13:16:13.000Z</time>
      </trkpt>
      <trkpt lat="46.73059" lon="-2.3728">
        <ele>7.3</ele>
        <time>2018-09-21T13:16:14.000Z</time>
      </trkpt>
      <trkpt lat="46.73058" lon="-2.37281">
        <ele>7.3</ele>
        <time>2018-09-21T13:16:15.000Z</time>
      </trkpt>
      <trkpt lat="46.73057" lon="-2.37281">
        <ele>7.4</ele>
        <time>2018-09-21T13:16:16.000Z</time>
      </trkpt>
      <trkpt lat="46.73056" lon="-2.37282">
        <ele>7.4</ele>
        <time>2018-09-21T13:16:17.000Z</time>
      </trkpt>
      <trkpt lat="46.73054" lon="-2.37282">
        <ele>7.5</ele>
        <time>2018-09-21T13:16:18.000Z</time>
      </trkpt>
      <trkpt lat="46.73053" lon="-2.37283">
        <ele>7.5</ele>
        <time>2018-09-21T13:16:19.000Z</time>
      </trkpt>
      <trkpt lat="46.73052" lon="-2.37284">
        <ele>7.6</ele>
        <time>2018-09-21T13:16:20.000Z</time>
      </trkpt>
      <trkpt lat="46.73051" lon="-2.37284">
        <ele>7.6</ele>
        <time>2018-09-21T13:16:21.000Z</time>
      </trkpt>
      <trkpt lat="46.7305" lon="-2.37285">
        <ele>7.6</ele>
        <time>2018-09-21T13:16:22.000Z</time>
      </trkpt>
      <trkpt lat="46.73049" lon="-2.37285">
        <ele>7.7</ele>
        <time>2018-09-21T13:16:23.000Z</time>
      </trkpt>
      <trkpt lat="46.73047" lon="-2.37286">
        <ele>7.7</ele>
        <time>2018-09-21T13:16:24.000Z</time>
      </trkpt>
      <trkpt lat="46.73046" lon="-2.37286">
        <ele>7.8</ele>
        <time>2018-09-21T13:16:25.000Z</time>
      </trkpt>
      <trkpt lat="46.73045" lon="-2.37287">
        <ele>7.8</ele>
        <time>2018-09-21T13:16:26.000Z</time>
      </trkpt>
      <trkpt lat="46.73044" lon="-2.37287">
        <ele>7.8</ele>
        <time>2018-09-21T13:16:27.000Z</time>
      </trkpt>
      <trkpt lat="46.73043" lon="-2.37288">
        <ele>7.9</ele>
        <time>2018-09-21T13:16:28.000Z</time>
      </trkpt>
      <trkpt lat="46.73042" lon="-2.37288">
        <ele>7.9</ele>
        <time>2018-09-21T13:16:29.000Z</time>
      </trkpt>
      <trkpt lat="46.7304" lon="-2.37289">
        <ele>8</ele>
        <time>2018-09-21T13:16:30.000Z</time>
      </trkpt>
      <trkpt lat="46.73039" lon="-2.37289">
        <ele>8</ele>
        <time>2018-09-21T13:16:31.000Z</time>
      </trkpt>
      <trkpt lat="46.73038" lon="-2.37289">
        <ele>8</ele>
        <time>2018-09-21T13:16:32.000Z</time>
      </trkpt>
      <trkpt lat="46.73037" lon="-2.3729">
        <ele>8.1</ele>
        <time>2018-09-21T13:16:33.000Z</time>
      </trkpt>
      <trkpt lat="46.73036" lon="-2.3729">
        <ele>8.1</ele>
        <time>2018-09-21T13:16:34.000Z</time>
      </trkpt>
      <trkpt lat="46.73035" lon="-2.3729">
        <ele>8.1</ele>
        <time>2018-09-21T13:16:35.000Z</time>
      </trkpt>
      <trkpt lat="46.73034" lon="-2.37291">
        <ele>8.2</ele>
        <time>2018-09-21T13:16:36.000Z</time>
      </trkpt>
      <trkpt lat="46.73033" lon="-2.37291">
        <ele>8.2</ele>
        <time>2018-09-21T13:16:37.000Z</time>
      </trkpt>
      <trkpt lat="46.73031" lon="-2.37292">
        <ele>8.2</ele>
        <time>2018-09-21T13:16:38.000Z</time>
      </trkpt>
      <trkpt lat="46.7303" lon="-2.37292">
        <ele>8.3</ele>
        <time>2018-09-21T13:16:39.000Z</time>
      </trkpt>
      <trkpt lat="46.73029" lon="-2.37293">
        <ele>8.3</ele>
        <time>2018-09-21T13:16:40.000Z</time>
      </trkpt>
      <trkpt lat="46.73028" lon="-2.37293">
        <ele>8.4</ele>
        <time>2018-09-21T13:16:41.000Z</time>
      </trkpt>
      <trkpt lat="46.73027" lon="-2.37294">
        <ele>8.4</ele>
        <time>2018-09-21T13:16:42.000Z</time>
      </trkpt>
      <trkpt lat="46.73026" lon="-2.37294">
        <ele>8.4</ele>
        <time>2018-09-21T13:16:43.000Z</time>
      </trkpt>
      <trkpt lat="46.73025" lon="-2.37295">
        <ele>8.5</ele>
        <time>2018-09-21T13:16:44.000Z</time>
      </trkpt>
      <trkpt lat="46.73024" lon="-2.37296">
        <ele>8.5</ele>
        <time>2018-09-21T13:16:45.000Z</time>
      </trkpt>
      <trkpt lat="46.73023" lon="-2.37297">
        <ele>8.6</ele>
        <time>2018-09-21T13:16:46.000Z</time>
      </trkpt>
      <trkpt lat="46.73022" lon="-2.37297">
        <ele>8.6</ele>
        <time>2018-09-21T13:16:47.000Z</time>
      </trkpt>
      <trkpt lat="46.73021" lon="-2.37298">
        <ele>8.6</ele>
        <time>2018-09-21T13:16:48.000Z</time>
      </trkpt>
      <trkpt lat="46.7302" lon="-2.37299">
        <ele>8.7</ele>
        <time>2018-09-21T13:16:49.000Z</time>
      </trkpt>
      <trkpt lat="46.7302" lon="-2.37299">
        <ele>8.7</ele>
        <time>2018-09-21T13:16:50.000Z</time>
      </trkpt>
      <trkpt lat="46.73019" lon="-2.373">
        <ele>8.8</ele>
        <time>2018-09-21T13:16:51.000Z</time>
      </trkpt>
      <trkpt lat="46.73018" lon="-2.373">
        <ele>8.8</ele>
        <time>2018-09-21T13:16:52.000Z</time>
      </trkpt>
      <trkpt lat="46.73017" lon="-2.37301">
        <ele>8.8</ele>
        <time>2018-09-21T13:16:53.000Z</time>
      </trkpt>
      <trkpt lat="46.73016" lon="-2.37301">
        <ele>8.8</ele>
        <time>2018-09-21T13:16:54.000Z</time>
      </trkpt>
      <trkpt lat="46.73016" lon="-2.37301">
        <ele>8.8</ele>
        <time>2018-09-21T13:16:55.000Z</time>
      </trkpt>
      <trkpt lat="46.73015" lon="-2.37301">
        <ele>8.9</ele>
        <time>2018-09-21T13:16:56.000Z</time>
      </trkpt>
      <trkpt lat="46.73014" lon="-2.373">
        <ele>8.9</ele>
        <time>2018-09-21T13:16:57.000Z</time>
      </trkpt>
      <trkpt lat="46.73013" lon="-2.373">
        <ele>8.9</ele>
        <time>2018-09-21T13:16:58.000Z</time>
      </trkpt>
      <trkpt lat="46.73012" lon="-2.373">
        <ele>8.9</ele>
        <time>2018-09-21T13:16:59.000Z</time>
      </trkpt>
      <trkpt lat="46.73012" lon="-2.373">
        <ele>8.9</ele>
        <time>2018-09-21T13:17:00.000Z</time>
      </trkpt>
      <trkpt lat="46.73011" lon="-2.373">
        <ele>8.9</ele>
        <time>2018-09-21T13:17:01.000Z</time>
      </trkpt>
      <trkpt lat="46.7301" lon="-2.373">
        <ele>9</ele>
        <time>2018-09-21T13:17:02.000Z</time>
      </trkpt>
      <trkpt lat="46.73009" lon="-2.373">
        <ele>9</ele>
        <time>2018-09-21T13:17:03.000Z</time>
      </trkpt>
      <trkpt lat="46.73008" lon="-2.373">
        <ele>9</ele>
        <time>2018-09-21T13:17:04.000Z</time>
      </trkpt>
      <trkpt lat="46.73007" lon="-2.373">
        <ele>9</ele>
        <time>2018-09-21T13:17:05.000Z</time>
      </trkpt>
      <trkpt lat="46.73006" lon="-2.373">
        <ele>9.1</ele>
        <time>2018-09-21T13:17:06.000Z</time>
      </trkpt>
      <trkpt lat="46.73005" lon="-2.37301">
        <ele>9.1</ele>
        <time>2018-09-21T13:17:07.000Z</time>
      </trkpt>
      <trkpt lat="46.73004" lon="-2.37301">
        <ele>9.1</ele>
        <time>2018-09-21T13:17:08.000Z</time>
      </trkpt>
      <trkpt lat="46.73003" lon="-2.37301">
        <ele>9.2</ele>
        <time>2018-09-21T13:17:09.000Z</time>
      </trkpt>
      <trkpt lat="46.73002" lon="-2.37301">
        <ele>9.2</ele>
        <time>2018-09-21T13:17:10.000Z</time>
      </trkpt>
      <trkpt lat="46.73001" lon="-2.37302">
        <ele>9.2</ele>
        <time>2018-09-21T13:17:11.000Z</time>
      </trkpt>
      <trkpt lat="46.73" lon="-2.37302">
        <ele>9.2</ele>
        <time>2018-09-21T13:17:12.000Z</time>
      </trkpt>
      <trkpt lat="46.72999" lon="-2.37302">
        <ele>9.3</ele>
        <time>2018-09-21T13:17:13.000Z</time>
      </trkpt>
      <trkpt lat="46.72997" lon="-2.37302">
        <ele>9.3</ele>
        <time>2018-09-21T13:17:14.000Z</time>
      </trkpt>
      <trkpt lat="46.72996" lon="-2.37302">
        <ele>9.3</ele>
        <time>2018-09-21T13:17:15.000Z</time>
      </trkpt>
      <trkpt lat="46.72995" lon="-2.37302">
        <ele>9.3</ele>
        <time>2018-09-21T13:17:16.000Z</time>
      </trkpt>
      <trkpt lat="46.72994" lon="-2.37303">
        <ele>9.4</ele>
        <time>2018-09-21T13:17:17.000Z</time>
      </trkpt>
      <trkpt lat="46.72993" lon="-2.37303">
        <ele>9.4</ele>
        <time>2018-09-21T13:17:18.000Z</time>
      </trkpt>
      <trkpt lat="46.72992" lon="-2.37303">
        <ele>9.4</ele>
        <time>2018-09-21T13:17:19.000Z</time>
      </trkpt>
      <trkpt lat="46.72991" lon="-2.37303">
        <ele>9.4</ele>
        <time>2018-09-21T13:17:20.000Z</time>
      </trkpt>
      <trkpt lat="46.7299" lon="-2.37304">
        <ele>9.4</ele>
        <time>2018-09-21T13:17:21.000Z</time>
      </trkpt>
      <trkpt lat="46.72989" lon="-2.37304">
        <ele>9.5</ele>
        <time>2018-09-21T13:17:22.000Z</time>
      </trkpt>
      <trkpt lat="46.72989" lon="-2.37305">
        <ele>9.5</ele>
        <time>2018-09-21T13:17:23.000Z</time>
      </trkpt>
      <trkpt lat="46.72988" lon="-2.37305">
        <ele>9.5</ele>
        <time>2018-09-21T13:17:24.000Z</time>
      </trkpt>
      <trkpt lat="46.72987" lon="-2.37306">
        <ele>9.5</ele>
        <time>2018-09-21T13:17:25.000Z</time>
      </trkpt>
      <trkpt lat="46.72987" lon="-2.37306">
        <ele>9.6</ele>
        <time>2018-09-21T13:17:26.000Z</time>
      </trkpt>
      <trkpt lat="46.72986" lon="-2.37307">
        <ele>9.6</ele>
        <time>2018-09-21T13:17:27.000Z</time>
      </trkpt>
      <trkpt lat="46.72986" lon="-2.37308">
        <ele>9.6</ele>
        <time>2018-09-21T13:17:28.000Z</time>
      </trkpt>
      <trkpt lat="46.72986" lon="-2.37309">
        <ele>9.6</ele>
        <time>2018-09-21T13:17:29.000Z</time>
      </trkpt>
      <trkpt lat="46.72986" lon="-2.3731">
        <ele>9.7</ele>
        <time>2018-09-21T13:17:30.000Z</time>
      </trkpt>
      <trkpt lat="46.72986" lon="-2.37311">
        <ele>9.7</ele>
        <time>2018-09-21T13:17:31.000Z</time>
      </trkpt>
      <trkpt lat="46.72986" lon="-2.37312">
        <ele>9.7</ele>
        <time>2018-09-21T13:17:32.000Z</time>
      </trkpt>
      <trkpt lat="46.72986" lon="-2.37313">
        <ele>9.7</ele>
        <time>2018-09-21T13:17:33.000Z</time>
      </trkpt>
      <trkpt lat="46.72986" lon="-2.37314">
        <ele>9.7</ele>
        <time>2018-09-21T13:17:34.000Z</time>
      </trkpt>
      <trkpt lat="46.72987" lon="-2.37315">
        <ele>9.8</ele>
        <time>2018-09-21T13:17:35.000Z</time>
      </trkpt>
      <trkpt lat="46.72987" lon="-2.37316">
        <ele>9.8</ele>
        <time>2018-09-21T13:17:36.000Z</time>
      </trkpt>
      <trkpt lat="46.72988" lon="-2.37317">
        <ele>9.8</ele>
        <time>2018-09-21T13:17:37.000Z</time>
      </trkpt>
      <trkpt lat="46.72988" lon="-2.37318">
        <ele>9.8</ele>
        <time>2018-09-21T13:17:38.000Z</time>
      </trkpt>
      <trkpt lat="46.72988" lon="-2.37319">
        <ele>9.8</ele>
        <time>2018-09-21T13:17:39.000Z</time>
      </trkpt>
      <trkpt lat="46.72989" lon="-2.3732">
        <ele>9.8</ele>
        <time>2018-09-21T13:17:40.000Z</time>
      </trkpt>
      <trkpt lat="46.72989" lon="-2.37321">
        <ele>9.9</ele>
        <time>2018-09-21T13:17:41.000Z</time>
      </trkpt>
      <trkpt lat="46.72989" lon="-2.37322">
        <ele>9.9</ele>
        <time>2018-09-21T13:17:42.000Z</time>
      </trkpt>
      <trkpt lat="46.7299" lon="-2.37324">
        <ele>9.9</ele>
        <time>2018-09-21T13:17:43.000Z</time>
      </trkpt>
      <trkpt lat="46.7299" lon="-2.37325">
        <ele>9.9</ele>
        <time>2018-09-21T13:17:44.000Z</time>
      </trkpt>
      <trkpt lat="46.72991" lon="-2.37326">
        <ele>9.9</ele>
        <time>2018-09-21T13:17:45.000Z</time>
      </trkpt>
      <trkpt lat="46.72991" lon="-2.37327">
        <ele>10</ele>
        <time>2018-09-21T13:17:46.000Z</time>
      </trkpt>
      <trkpt lat="46.72992" lon="-2.37327">
        <ele>10</ele>
        <time>2018-09-21T13:17:47.000Z</time>
      </trkpt>
      <trkpt lat="46.72993" lon="-2.37328">
        <ele>10</ele>
        <time>2018-09-21T13:17:48.000Z</time>
      </trkpt>
      <trkpt lat="46.72994" lon="-2.37328">
        <ele>10</ele>
        <time>2018-09-21T13:17:49.000Z</time>
      </trkpt>
      <trkpt lat="46.72995" lon="-2.37328">
        <ele>9.9</ele>
        <time>2018-09-21T13:17:50.000Z</time>
      </trkpt>
      <trkpt lat="46.72996" lon="-2.37328">
        <ele>9.9</ele>
        <time>2018-09-21T13:17:51.000Z</time>
      </trkpt>
      <trkpt lat="46.72997" lon="-2.37328">
        <ele>9.9</ele>
        <time>2018-09-21T13:17:52.000Z</time>
      </trkpt>
      <trkpt lat="46.72998" lon="-2.37328">
        <ele>9.9</ele>
        <time>2018-09-21T13:17:53.000Z</time>
      </trkpt>
      <trkpt lat="46.72999" lon="-2.37328">
        <ele>9.9</ele>
        <time>2018-09-21T13:17:54.000Z</time>
      </trkpt>
      <trkpt lat="46.73" lon="-2.37327">
        <ele>9.8</ele>
        <time>2018-09-21T13:17:55.000Z</time>
      </trkpt>
      <trkpt lat="46.73002" lon="-2.37327">
        <ele>9.8</ele>
        <time>2018-09-21T13:17:56.000Z</time>
      </trkpt>
      <trkpt lat="46.73003" lon="-2.37327">
        <ele>9.8</ele>
        <time>2018-09-21T13:17:57.000Z</time>
      </trkpt>
      <trkpt lat="46.73004" lon="-2.37327">
        <ele>9.8</ele>
        <time>2018-09-21T13:17:58.000Z</time>
      </trkpt>
      <trkpt lat="46.73005" lon="-2.37328">
        <ele>9.8</ele>
        <time>2018-09-21T13:17:59.000Z</time>
      </trkpt>
      <trkpt lat="46.73005" lon="-2.37328">
        <ele>9.8</ele>
        <time>2018-09-21T13:18:00.000Z</time>
      </trkpt>
      <trkpt lat="46.73006" lon="-2.37329">
        <ele>9.8</ele>
        <time>2018-09-21T13:18:01.000Z</time>
      </trkpt>
      <trkpt lat="46.73007" lon="-2.3733">
        <ele>9.8</ele>
        <time>2018-09-21T13:18:02.000Z</time>
      </trkpt>
      <trkpt lat="46.73007" lon="-2.37332">
        <ele>9.8</ele>
        <time>2018-09-21T13:18:03.000Z</time>
      </trkpt>
      <trkpt lat="46.73008" lon="-2.37333">
        <ele>9.8</ele>
        <time>2018-09-21T13:18:04.000Z</time>
      </trkpt>
      <trkpt lat="46.73008" lon="-2.37334">
        <ele>9.8</ele>
        <time>2018-09-21T13:18:05.000Z</time>
      </trkpt>
      <trkpt lat="46.73009" lon="-2.37336">
        <ele>9.8</ele>
        <time>2018-09-21T13:18:06.000Z</time>
      </trkpt>
      <trkpt lat="46.73009" lon="-2.37337">
        <ele>9.8</ele>
        <time>2018-09-21T13:18:07.000Z</time>
      </trkpt>
      <trkpt lat="46.7301" lon="-2.37339">
        <ele>9.8</ele>
        <time>2018-09-21T13:18:08.000Z</time>
      </trkpt>
      <trkpt lat="46.7301" lon="-2.3734">
        <ele>9.8</ele>
        <time>2018-09-21T13:18:09.000Z</time>
      </trkpt>
      <trkpt lat="46.7301" lon="-2.37342">
        <ele>9.8</ele>
        <time>2018-09-21T13:18:10.000Z</time>
      </trkpt>
      <trkpt lat="46.73011" lon="-2.37343">
        <ele>9.8</ele>
        <time>2018-09-21T13:18:11.000Z</time>
      </trkpt>
      <trkpt lat="46.73011" lon="-2.37345">
        <ele>9.9</ele>
        <time>2018-09-21T13:18:12.000Z</time>
      </trkpt>
      <trkpt lat="46.73011" lon="-2.37346">
        <ele>9.9</ele>
        <time>2018-09-21T13:18:13.000Z</time>
      </trkpt>
      <trkpt lat="46.73012" lon="-2.37347">
        <ele>9.9</ele>
        <time>2018-09-21T13:18:14.000Z</time>
      </trkpt>
      <trkpt lat="46.73012" lon="-2.37349">
        <ele>9.9</ele>
        <time>2018-09-21T13:18:15.000Z</time>
      </trkpt>
      <trkpt lat="46.73012" lon="-2.3735">
        <ele>9.9</ele>
        <time>2018-09-21T13:18:16.000Z</time>
      </trkpt>
      <trkpt lat="46.73012" lon="-2.37351">
        <ele>9.9</ele>
        <time>2018-09-21T13:18:17.000Z</time>
      </trkpt>
      <trkpt lat="46.73013" lon="-2.37353">
        <ele>9.9</ele>
        <time>2018-09-21T13:18:18.000Z</time>
      </trkpt>
      <trkpt lat="46.73013" lon="-2.37354">
        <ele>9.9</ele>
        <time>2018-09-21T13:18:19.000Z</time>
      </trkpt>
      <trkpt lat="46.73013" lon="-2.37355">
        <ele>9.9</ele>
        <time>2018-09-21T13:18:20.000Z</time>
      </trkpt>
      <trkpt lat="46.73013" lon="-2.37357">
        <ele>9.9</ele>
        <time>2018-09-21T13:18:21.000Z</time>
      </trkpt>
      <trkpt lat="46.73014" lon="-2.37358">
        <ele>9.9</ele>
        <time>2018-09-21T13:18:22.000Z</time>
      </trkpt>
      <trkpt lat="46.73014" lon="-2.37359">
        <ele>9.9</ele>
        <time>2018-09-21T13:18:23.000Z</time>
      </trkpt>
      <trkpt lat="46.73014" lon="-2.37361">
        <ele>9.9</ele>
        <time>2018-09-21T13:18:24.000Z</time>
      </trkpt>
      <trkpt lat="46.73014" lon="-2.37362">
        <ele>9.9</ele>
        <time>2018-09-21T13:18:25.000Z</time>
      </trkpt>
      <trkpt lat="46.73015" lon="-2.37364">
        <ele>10</ele>
        <time>2018-09-21T13:18:26.000Z</time>
      </trkpt>
      <trkpt lat="46.73015" lon="-2.37365">
        <ele>10</ele>
        <time>2018-09-21T13:18:27.000Z</time>
      </trkpt>
      <trkpt lat="46.73015" lon="-2.37367">
        <ele>10</ele>
        <time>2018-09-21T13:18:28.000Z</time>
      </trkpt>
      <trkpt lat="46.73015" lon="-2.37368">
        <ele>10</ele>
        <time>2018-09-21T13:18:29.000Z</time>
      </trkpt>
      <trkpt lat="46.73015" lon="-2.3737">
        <ele>10</ele>
        <time>2018-09-21T13:18:30.000Z</time>
      </trkpt>
      <trkpt lat="46.73015" lon="-2.37371">
        <ele>10</ele>
        <time>2018-09-21T13:18:31.000Z</time>
      </trkpt>
      <trkpt lat="46.73015" lon="-2.37373">
        <ele>10</ele>
        <time>2018-09-21T13:18:32.000Z</time>
      </trkpt>
      <trkpt lat="46.73015" lon="-2.37374">
        <ele>10</ele>
        <time>2018-09-21T13:18:33.000Z</time>
      </trkpt>
      <trkpt lat="46.73016" lon="-2.37376">
        <ele>10</ele>
        <time>2018-09-21T13:18:34.000Z</time>
      </trkpt>
      <trkpt lat="46.73016" lon="-2.37377">
        <ele>10.1</ele>
        <time>2018-09-21T13:18:35.000Z</time>
      </trkpt>
      <trkpt lat="46.73016" lon="-2.37379">
        <ele>10.1</ele>
        <time>2018-09-21T13:18:36.000Z</time>
      </trkpt>
      <trkpt lat="46.73016" lon="-2.3738">
        <ele>10.1</ele>
        <time>2018-09-21T13:18:37.000Z</time>
      </trkpt>
      <trkpt lat="46.73017" lon="-2.37381">
        <ele>10</ele>
        <time>2018-09-21T13:18:38.000Z</time>
      </trkpt>
      <trkpt lat="46.73018" lon="-2.37382">
        <ele>10</ele>
        <time>2018-09-21T13:18:39.000Z</time>
      </trkpt>
      <trkpt lat="46.73018" lon="-2.37383">
        <ele>10</ele>
        <time>2018-09-21T13:18:40.000Z</time>
      </trkpt>
      <trkpt lat="46.73019" lon="-2.37384">
        <ele>10</ele>
        <time>2018-09-21T13:18:41.000Z</time>
      </trkpt>
      <trkpt lat="46.7302" lon="-2.37385">
        <ele>10</ele>
        <time>2018-09-21T13:18:42.000Z</time>
      </trkpt>
      <trkpt lat="46.73021" lon="-2.37386">
        <ele>10</ele>
        <time>2018-09-21T13:18:43.000Z</time>
      </trkpt>
      <trkpt lat="46.73021" lon="-2.37387">
        <ele>10</ele>
        <time>2018-09-21T13:18:44.000Z</time>
      </trkpt>
      <trkpt lat="46.73022" lon="-2.37389">
        <ele>10</ele>
        <time>2018-09-21T13:18:45.000Z</time>
      </trkpt>
      <trkpt lat="46.73023" lon="-2.3739">
        <ele>10</ele>
        <time>2018-09-21T13:18:46.000Z</time>
      </trkpt>
      <trkpt lat="46.73023" lon="-2.37392">
        <ele>10</ele>
        <time>2018-09-21T13:18:47.000Z</time>
      </trkpt>
      <trkpt lat="46.73023" lon="-2.37394">
        <ele>10</ele>
        <time>2018-09-21T13:18:48.000Z</time>
      </trkpt>
      <trkpt lat="46.73024" lon="-2.37395">
        <ele>10</ele>
        <time>2018-09-21T13:18:49.000Z</time>
      </trkpt>
      <trkpt lat="46.73024" lon="-2.37397">
        <ele>10</ele>
        <time>2018-09-21T13:18:50.000Z</time>
      </trkpt>
      <trkpt lat="46.73024" lon="-2.37399">
        <ele>10</ele>
        <time>2018-09-21T13:18:51.000Z</time>
      </trkpt>
      <trkpt lat="46.73024" lon="-2.37401">
        <ele>10</ele>
        <time>2018-09-21T13:18:52.000Z</time>
      </trkpt>
      <trkpt lat="46.73025" lon="-2.37402">
        <ele>10</ele>
        <time>2018-09-21T13:18:53.000Z</time>
      </trkpt>
      <trkpt lat="46.73025" lon="-2.37404">
        <ele>10</ele>
        <time>2018-09-21T13:18:54.000Z</time>
      </trkpt>
      <trkpt lat="46.73025" lon="-2.37406">
        <ele>10</ele>
        <time>2018-09-21T13:18:55.000Z</time>
      </trkpt>
      <trkpt lat="46.73025" lon="-2.37407">
        <ele>10</ele>
        <time>2018-09-21T13:18:56.000Z</time>
      </trkpt>
      <trkpt lat="46.73026" lon="-2.37409">
        <ele>10</ele>
        <time>2018-09-21T13:18:57.000Z</time>
      </trkpt>
      <trkpt lat="46.73026" lon="-2.3741">
        <ele>10</ele>
        <time>2018-09-21T13:18:58.000Z</time>
      </trkpt>
      <trkpt lat="46.73026" lon="-2.37412">
        <ele>10</ele>
        <time>2018-09-21T13:18:59.000Z</time>
      </trkpt>
      <trkpt lat="46.73027" lon="-2.37413">
        <ele>10</ele>
        <time>2018-09-21T13:19:00.000Z</time>
      </trkpt>
      <trkpt lat="46.73027" lon="-2.37415">
        <ele>10</ele>
        <time>2018-09-21T13:19:01.000Z</time>
      </trkpt>
      <trkpt lat="46.73028" lon="-2.37416">
        <ele>10</ele>
        <time>2018-09-21T13:19:02.000Z</time>
      </trkpt>
      <trkpt lat="46.73028" lon="-2.37417">
        <ele>10</ele>
        <time>2018-09-21T13:19:03.000Z</time>
      </trkpt>
      <trkpt lat="46.73028" lon="-2.37419">
        <ele>9.9</ele>
        <time>2018-09-21T13:19:04.000Z</time>
      </trkpt>
      <trkpt lat="46.73029" lon="-2.3742">
        <ele>9.9</ele>
        <time>2018-09-21T13:19:05.000Z</time>
      </trkpt>
      <trkpt lat="46.73029" lon="-2.37422">
        <ele>9.9</ele>
        <time>2018-09-21T13:19:06.000Z</time>
      </trkpt>
      <trkpt lat="46.73029" lon="-2.37423">
        <ele>9.8</ele>
        <time>2018-09-21T13:19:07.000Z</time>
      </trkpt>
      <trkpt lat="46.7303" lon="-2.37425">
        <ele>9.8</ele>
        <time>2018-09-21T13:19:08.000Z</time>
      </trkpt>
      <trkpt lat="46.7303" lon="-2.37426">
        <ele>9.8</ele>
        <time>2018-09-21T13:19:09.000Z</time>
      </trkpt>
      <trkpt lat="46.7303" lon="-2.37428">
        <ele>9.7</ele>
        <time>2018-09-21T13:19:10.000Z</time>
      </trkpt>
      <trkpt lat="46.7303" lon="-2.37429">
        <ele>9.7</ele>
        <time>2018-09-21T13:19:11.000Z</time>
      </trkpt>
      <trkpt lat="46.73031" lon="-2.3743">
        <ele>9.7</ele>
        <time>2018-09-21T13:19:12.000Z</time>
      </trkpt>
      <trkpt lat="46.73031" lon="-2.37432">
        <ele>9.6</ele>
        <time>2018-09-21T13:19:13.000Z</time>
      </trkpt>
      <trkpt lat="46.73031" lon="-2.37433">
        <ele>9.6</ele>
        <time>2018-09-21T13:19:14.000Z</time>
      </trkpt>
      <trkpt lat="46.73031" lon="-2.37434">
        <ele>9.6</ele>
        <time>2018-09-21T13:19:15.000Z</time>
      </trkpt>
      <trkpt lat="46.73032" lon="-2.37436">
        <ele>9.5</ele>
        <time>2018-09-21T13:19:16.000Z</time>
      </trkpt>
      <trkpt lat="46.73032" lon="-2.37437">
        <ele>9.5</ele>
        <time>2018-09-21T13:19:17.000Z</time>
      </trkpt>
      <trkpt lat="46.73032" lon="-2.37439">
        <ele>9.5</ele>
        <time>2018-09-21T13:19:18.000Z</time>
      </trkpt>
      <trkpt lat="46.73032" lon="-2.3744">
        <ele>9.5</ele>
        <time>2018-09-21T13:19:19.000Z</time>
      </trkpt>
      <trkpt lat="46.73032" lon="-2.37441">
        <ele>9.4</ele>
        <time>2018-09-21T13:19:20.000Z</time>
      </trkpt>
      <trkpt lat="46.73032" lon="-2.37443">
        <ele>9.4</ele>
        <time>2018-09-21T13:19:21.000Z</time>
      </trkpt>
      <trkpt lat="46.73033" lon="-2.37444">
        <ele>9.4</ele>
        <time>2018-09-21T13:19:22.000Z</time>
      </trkpt>
      <trkpt lat="46.73033" lon="-2.37445">
        <ele>9.3</ele>
        <time>2018-09-21T13:19:23.000Z</time>
      </trkpt>
      <trkpt lat="46.73033" lon="-2.37447">
        <ele>9.3</ele>
        <time>2018-09-21T13:19:24.000Z</time>
      </trkpt>
      <trkpt lat="46.73033" lon="-2.37448">
        <ele>9.3</ele>
        <time>2018-09-21T13:19:25.000Z</time>
      </trkpt>
      <trkpt lat="46.73033" lon="-2.37449">
        <ele>9.3</ele>
        <time>2018-09-21T13:19:26.000Z</time>
      </trkpt>
      <trkpt lat="46.73034" lon="-2.37451">
        <ele>9.2</ele>
        <time>2018-09-21T13:19:27.000Z</time>
      </trkpt>
      <trkpt lat="46.73034" lon="-2.37452">
        <ele>9.2</ele>
        <time>2018-09-21T13:19:28.000Z</time>
      </trkpt>
      <trkpt lat="46.73034" lon="-2.37453">
        <ele>9.2</ele>
        <time>2018-09-21T13:19:29.000Z</time>
      </trkpt>
      <trkpt lat="46.73034" lon="-2.37455">
        <ele>9.1</ele>
        <time>2018-09-21T13:19:30.000Z</time>
      </trkpt>
      <trkpt lat="46.73034" lon="-2.37456">
        <ele>9.1</ele>
        <time>2018-09-21T13:19:31.000Z</time>
      </trkpt>
      <trkpt lat="46.73035" lon="-2.37458">
        <ele>9.1</ele>
        <time>2018-09-21T13:19:32.000Z</time>
      </trkpt>
      <trkpt lat="46.73035" lon="-2.37459">
        <ele>9</ele>
        <time>2018-09-21T13:19:33.000Z</time>
      </trkpt>
      <trkpt lat="46.73035" lon="-2.3746">
        <ele>9</ele>
        <time>2018-09-21T13:19:34.000Z</time>
      </trkpt>
      <trkpt lat="46.73035" lon="-2.37462">
        <ele>9</ele>
        <time>2018-09-21T13:19:35.000Z</time>
      </trkpt>
      <trkpt lat="46.73035" lon="-2.37463">
        <ele>8.9</ele>
        <time>2018-09-21T13:19:36.000Z</time>
      </trkpt>
      <trkpt lat="46.73036" lon="-2.37465">
        <ele>8.9</ele>
        <time>2018-09-21T13:19:37.000Z</time>
      </trkpt>
      <trkpt lat="46.73036" lon="-2.37466">
        <ele>8.9</ele>
        <time>2018-09-21T13:19:38.000Z</time>
      </trkpt>
      <trkpt lat="46.73036" lon="-2.37467">
        <ele>8.8</ele>
        <time>2018-09-21T13:19:39.000Z</time>
      </trkpt>
      <trkpt lat="46.73036" lon="-2.37469">
        <ele>8.8</ele>
        <time>2018-09-21T13:19:40.000Z</time>
      </trkpt>
      <trkpt lat="46.73036" lon="-2.3747">
        <ele>8.8</ele>
        <time>2018-09-21T13:19:41.000Z</time>
      </trkpt>
      <trkpt lat="46.73037" lon="-2.37472">
        <ele>8.7</ele>
        <time>2018-09-21T13:19:42.000Z</time>
      </trkpt>
      <trkpt lat="46.73037" lon="-2.37473">
        <ele>8.7</ele>
        <time>2018-09-21T13:19:43.000Z</time>
      </trkpt>
      <trkpt lat="46.73037" lon="-2.37475">
        <ele>8.7</ele>
        <time>2018-09-21T13:19:44.000Z</time>
      </trkpt>
      <trkpt lat="46.73037" lon="-2.37476">
        <ele>8.6</ele>
        <time>2018-09-21T13:19:45.000Z</time>
      </trkpt>
      <trkpt lat="46.73038" lon="-2.37478">
        <ele>8.6</ele>
        <time>2018-09-21T13:19:46.000Z</time>
      </trkpt>
      <trkpt lat="46.73038" lon="-2.37479">
        <ele>8.6</ele>
        <time>2018-09-21T13:19:47.000Z</time>
      </trkpt>
      <trkpt lat="46.73038" lon="-2.37481">
        <ele>8.5</ele>
        <time>2018-09-21T13:19:48.000Z</time>
      </trkpt>
      <trkpt lat="46.73038" lon="-2.37482">
        <ele>8.5</ele>
        <time>2018-09-21T13:19:49.000Z</time>
      </trkpt>
      <trkpt lat="46.73039" lon="-2.37484">
        <ele>8.4</ele>
        <time>2018-09-21T13:19:50.000Z</time>
      </trkpt>
      <trkpt lat="46.73039" lon="-2.37485">
        <ele>8.4</ele>
        <time>2018-09-21T13:19:51.000Z</time>
      </trkpt>
      <trkpt lat="46.73039" lon="-2.37487">
        <ele>8.4</ele>
        <time>2018-09-21T13:19:52.000Z</time>
      </trkpt>
      <trkpt lat="46.73039" lon="-2.37488">
        <ele>8.3</ele>
        <time>2018-09-21T13:19:53.000Z</time>
      </trkpt>
      <trkpt lat="46.7304" lon="-2.3749">
        <ele>8.3</ele>
        <time>2018-09-21T13:19:54.000Z</time>
      </trkpt>
      <trkpt lat="46.7304" lon="-2.37491">
        <ele>8.2</ele>
        <time>2018-09-21T13:19:55.000Z</time>
      </trkpt>
      <trkpt lat="46.7304" lon="-2.37493">
        <ele>8.2</ele>
        <time>2018-09-21T13:19:56.000Z</time>
      </trkpt>
      <trkpt lat="46.73041" lon="-2.37494">
        <ele>8.2</ele>
        <time>2018-09-21T13:19:57.000Z</time>
      </trkpt>
      <trkpt lat="46.73041" lon="-2.37496">
        <ele>8.1</ele>
        <time>2018-09-21T13:19:58.000Z</time>
      </trkpt>
      <trkpt lat="46.73041" lon="-2.37497">
        <ele>8.1</ele>
        <time>2018-09-21T13:19:59.000Z</time>
      </trkpt>
      <trkpt lat="46.73042" lon="-2.37498">
        <ele>8</ele>
        <time>2018-09-21T13:20:00.000Z</time>
      </trkpt>
      <trkpt lat="46.73042" lon="-2.375">
        <ele>8</ele>
        <time>2018-09-21T13:20:01.000Z</time>
      </trkpt>
      <trkpt lat="46.73043" lon="-2.37501">
        <ele>7.9</ele>
        <time>2018-09-21T13:20:02.000Z</time>
      </trkpt>
      <trkpt lat="46.73043" lon="-2.37503">
        <ele>7.9</ele>
        <time>2018-09-21T13:20:03.000Z</time>
      </trkpt>
      <trkpt lat="46.73044" lon="-2.37504">
        <ele>7.9</ele>
        <time>2018-09-21T13:20:04.000Z</time>
      </trkpt>
      <trkpt lat="46.73044" lon="-2.37505">
        <ele>7.8</ele>
        <time>2018-09-21T13:20:05.000Z</time>
      </trkpt>
      <trkpt lat="46.73045" lon="-2.37507">
        <ele>7.8</ele>
        <time>2018-09-21T13:20:06.000Z</time>
      </trkpt>
      <trkpt lat="46.73045" lon="-2.37508">
        <ele>7.7</ele>
        <time>2018-09-21T13:20:07.000Z</time>
      </trkpt>
      <trkpt lat="46.73046" lon="-2.3751">
        <ele>7.7</ele>
        <time>2018-09-21T13:20:08.000Z</time>
      </trkpt>
      <trkpt lat="46.73046" lon="-2.37511">
        <ele>7.7</ele>
        <time>2018-09-21T13:20:09.000Z</time>
      </trkpt>
      <trkpt lat="46.73047" lon="-2.37513">
        <ele>7.6</ele>
        <time>2018-09-21T13:20:10.000Z</time>
      </trkpt>
      <trkpt lat="46.73047" lon="-2.37514">
        <ele>7.6</ele>
        <time>2018-09-21T13:20:11.000Z</time>
      </trkpt>
      <trkpt lat="46.73047" lon="-2.37515">
        <ele>7.6</ele>
        <time>2018-09-21T13:20:12.000Z</time>
      </trkpt>
      <trkpt lat="46.73048" lon="-2.37517">
        <ele>7.5</ele>
        <time>2018-09-21T13:20:13.000Z</time>
      </trkpt>
      <trkpt lat="46.73048" lon="-2.37518">
        <ele>7.5</ele>
        <time>2018-09-21T13:20:14.000Z</time>
      </trkpt>
      <trkpt lat="46.73049" lon="-2.3752">
        <ele>7.5</ele>
        <time>2018-09-21T13:20:15.000Z</time>
      </trkpt>
      <trkpt lat="46.73049" lon="-2.37521">
        <ele>7.4</ele>
        <time>2018-09-21T13:20:16.000Z</time>
      </trkpt>
      <trkpt lat="46.7305" lon="-2.37522">
        <ele>7.4</ele>
        <time>2018-09-21T13:20:17.000Z</time>
      </trkpt>
      <trkpt lat="46.73051" lon="-2.37523">
        <ele>7.3</ele>
        <time>2018-09-21T13:20:18.000Z</time>
      </trkpt>
      <trkpt lat="46.73052" lon="-2.37524">
        <ele>7.3</ele>
        <time>2018-09-21T13:20:19.000Z</time>
      </trkpt>
      <trkpt lat="46.73053" lon="-2.37525">
        <ele>7.2</ele>
        <time>2018-09-21T13:20:20.000Z</time>
      </trkpt>
      <trkpt lat="46.73054" lon="-2.37526">
        <ele>7.2</ele>
        <time>2018-09-21T13:20:21.000Z</time>
      </trkpt>
      <trkpt lat="46.73055" lon="-2.37526">
        <ele>7.1</ele>
        <time>2018-09-21T13:20:22.000Z</time>
      </trkpt>
      <trkpt lat="46.73056" lon="-2.37527">
        <ele>7.1</ele>
        <time>2018-09-21T13:20:23.000Z</time>
      </trkpt>
      <trkpt lat="46.73057" lon="-2.37527">
        <ele>7</ele>
        <time>2018-09-21T13:20:24.000Z</time>
      </trkpt>
      <trkpt lat="46.73059" lon="-2.37527">
        <ele>7</ele>
        <time>2018-09-21T13:20:25.000Z</time>
      </trkpt>
      <trkpt lat="46.7306" lon="-2.37528">
        <ele>7</ele>
        <time>2018-09-21T13:20:26.000Z</time>
      </trkpt>
      <trkpt lat="46.73061" lon="-2.37528">
        <ele>6.9</ele>
        <time>2018-09-21T13:20:27.000Z</time>
      </trkpt>
      <trkpt lat="46.73062" lon="-2.37528">
        <ele>6.9</ele>
        <time>2018-09-21T13:20:28.000Z</time>
      </trkpt>
      <trkpt lat="46.73063" lon="-2.37528">
        <ele>6.8</ele>
        <time>2018-09-21T13:20:29.000Z</time>
      </trkpt>
      <trkpt lat="46.73064" lon="-2.37529">
        <ele>6.8</ele>
        <time>2018-09-21T13:20:30.000Z</time>
      </trkpt>
      <trkpt lat="46.73065" lon="-2.37529">
        <ele>6.7</ele>
        <time>2018-09-21T13:20:31.000Z</time>
      </trkpt>
      <trkpt lat="46.73066" lon="-2.3753">
        <ele>6.7</ele>
        <time>2018-09-21T13:20:32.000Z</time>
      </trkpt>
      <trkpt lat="46.73068" lon="-2.3753">
        <ele>6.6</ele>
        <time>2018-09-21T13:20:33.000Z</time>
      </trkpt>
      <trkpt lat="46.73069" lon="-2.37531">
        <ele>6.6</ele>
        <time>2018-09-21T13:20:34.000Z</time>
      </trkpt>
      <trkpt lat="46.7307" lon="-2.37531">
        <ele>6.5</ele>
        <time>2018-09-21T13:20:35.000Z</time>
      </trkpt>
      <trkpt lat="46.73071" lon="-2.37532">
        <ele>6.5</ele>
        <time>2018-09-21T13:20:36.000Z</time>
      </trkpt>
      <trkpt lat="46.73072" lon="-2.37533">
        <ele>6.4</ele>
        <time>2018-09-21T13:20:37.000Z</time>
      </trkpt>
      <trkpt lat="46.73073" lon="-2.37533">
        <ele>6.4</ele>
        <time>2018-09-21T13:20:38.000Z</time>
      </trkpt>
      <trkpt lat="46.73075" lon="-2.37534">
        <ele>6.3</ele>
        <time>2018-09-21T13:20:39.000Z</time>
      </trkpt>
      <trkpt lat="46.73076" lon="-2.37534">
        <ele>6.3</ele>
        <time>2018-09-21T13:20:40.000Z</time>
      </trkpt>
      <trkpt lat="46.73077" lon="-2.37535">
        <ele>6.2</ele>
        <time>2018-09-21T13:20:41.000Z</time>
      </trkpt>
      <trkpt lat="46.73078" lon="-2.37535">
        <ele>6.2</ele>
        <time>2018-09-21T13:20:42.000Z</time>
      </trkpt>
      <trkpt lat="46.7308" lon="-2.37536">
        <ele>6.1</ele>
        <time>2018-09-21T13:20:43.000Z</time>
      </trkpt>
      <trkpt lat="46.73081" lon="-2.37536">
        <ele>6.1</ele>
        <time>2018-09-21T13:20:44.000Z</time>
      </trkpt>
      <trkpt lat="46.73082" lon="-2.37537">
        <ele>6.1</ele>
        <time>2018-09-21T13:20:45.000Z</time>
      </trkpt>
      <trkpt lat="46.73083" lon="-2.37537">
        <ele>6</ele>
        <time>2018-09-21T13:20:46.000Z</time>
      </trkpt>
      <trkpt lat="46.73084" lon="-2.37537">
        <ele>6</ele>
        <time>2018-09-21T13:20:47.000Z</time>
      </trkpt>
      <trkpt lat="46.73086" lon="-2.37538">
        <ele>6</ele>
        <time>2018-09-21T13:20:48.000Z</time>
      </trkpt>
      <trkpt lat="46.73087" lon="-2.37538">
        <ele>5.9</ele>
        <time>2018-09-21T13:20:49.000Z</time>
      </trkpt>
      <trkpt lat="46.73088" lon="-2.37538">
        <ele>5.9</ele>
        <time>2018-09-21T13:20:50.000Z</time>
      </trkpt>
      <trkpt lat="46.73089" lon="-2.37539">
        <ele>5.9</ele>
        <time>2018-09-21T13:20:51.000Z</time>
      </trkpt>
      <trkpt lat="46.73091" lon="-2.37539">
        <ele>5.9</ele>
        <time>2018-09-21T13:20:52.000Z</time>
      </trkpt>
      <trkpt lat="46.73092" lon="-2.37539">
        <ele>5.8</ele>
        <time>2018-09-21T13:20:53.000Z</time>
      </trkpt>
      <trkpt lat="46.73093" lon="-2.37539">
        <ele>5.8</ele>
        <time>2018-09-21T13:20:54.000Z</time>
      </trkpt>
      <trkpt lat="46.73094" lon="-2.37539">
        <ele>5.8</ele>
        <time>2018-09-21T13:20:55.000Z</time>
      </trkpt>
      <trkpt lat="46.73096" lon="-2.37539">
        <ele>5.8</ele>
        <time>2018-09-21T13:20:56.000Z</time>
      </trkpt>
      <trkpt lat="46.73097" lon="-2.3754">
        <ele>5.8</ele>
        <time>2018-09-21T13:20:57.000Z</time>
      </trkpt>
      <trkpt lat="46.73098" lon="-2.3754">
        <ele>5.7</ele>
        <time>2018-09-21T13:20:58.000Z</time>
      </trkpt>
      <trkpt lat="46.73099" lon="-2.3754">
        <ele>5.7</ele>
        <time>2018-09-21T13:20:59.000Z</time>
      </trkpt>
      <trkpt lat="46.73101" lon="-2.3754">
        <ele>5.7</ele>
        <time>2018-09-21T13:21:00.000Z</time>
      </trkpt>
      <trkpt lat="46.73102" lon="-2.3754">
        <ele>5.7</ele>
        <time>2018-09-21T13:21:01.000Z</time>
      </trkpt>
      <trkpt lat="46.73103" lon="-2.3754">
        <ele>5.7</ele>
        <time>2018-09-21T13:21:02.000Z</time>
      </trkpt>
      <trkpt lat="46.73104" lon="-2.3754">
        <ele>5.6</ele>
        <time>2018-09-21T13:21:03.000Z</time>
      </trkpt>
      <trkpt lat="46.73105" lon="-2.3754">
        <ele>5.6</ele>
        <time>2018-09-21T13:21:04.000Z</time>
      </trkpt>
      <trkpt lat="46.73106" lon="-2.3754">
        <ele>5.6</ele>
        <time>2018-09-21T13:21:05.000Z</time>
      </trkpt>
      <trkpt lat="46.73108" lon="-2.3754">
        <ele>5.6</ele>
        <time>2018-09-21T13:21:06.000Z</time>
      </trkpt>
      <trkpt lat="46.73109" lon="-2.37541">
        <ele>5.5</ele>
        <time>2018-09-21T13:21:07.000Z</time>
      </trkpt>
      <trkpt lat="46.7311" lon="-2.37541">
        <ele>5.5</ele>
        <time>2018-09-21T13:21:08.000Z</time>
      </trkpt>
      <trkpt lat="46.73111" lon="-2.37541">
        <ele>5.5</ele>
        <time>2018-09-21T13:21:09.000Z</time>
      </trkpt>
      <trkpt lat="46.73112" lon="-2.37541">
        <ele>5.5</ele>
        <time>2018-09-21T13:21:10.000Z</time>
      </trkpt>
      <trkpt lat="46.73113" lon="-2.37541">
        <ele>5.5</ele>
        <time>2018-09-21T13:21:11.000Z</time>
      </trkpt>
      <trkpt lat="46.73114" lon="-2.37541">
        <ele>5.4</ele>
        <time>2018-09-21T13:21:12.000Z</time>
      </trkpt>
      <trkpt lat="46.73116" lon="-2.37541">
        <ele>5.4</ele>
        <time>2018-09-21T13:21:13.000Z</time>
      </trkpt>
      <trkpt lat="46.73117" lon="-2.37541">
        <ele>5.4</ele>
        <time>2018-09-21T13:21:14.000Z</time>
      </trkpt>
      <trkpt lat="46.73118" lon="-2.37542">
        <ele>5.4</ele>
        <time>2018-09-21T13:21:15.000Z</time>
      </trkpt>
      <trkpt lat="46.73119" lon="-2.37542">
        <ele>5.4</ele>
        <time>2018-09-21T13:21:16.000Z</time>
      </trkpt>
      <trkpt lat="46.7312" lon="-2.37542">
        <ele>5.3</ele>
        <time>2018-09-21T13:21:17.000Z</time>
      </trkpt>
      <trkpt lat="46.73121" lon="-2.37542">
        <ele>5.3</ele>
        <time>2018-09-21T13:21:18.000Z</time>
      </trkpt>
      <trkpt lat="46.73123" lon="-2.37543">
        <ele>5.3</ele>
        <time>2018-09-21T13:21:19.000Z</time>
      </trkpt>
      <trkpt lat="46.73124" lon="-2.37543">
        <ele>5.3</ele>
        <time>2018-09-21T13:21:20.000Z</time>
      </trkpt>
      <trkpt lat="46.73125" lon="-2.37543">
        <ele>5.2</ele>
        <time>2018-09-21T13:21:21.000Z</time>
      </trkpt>
      <trkpt lat="46.73126" lon="-2.37544">
        <ele>5.2</ele>
        <time>2018-09-21T13:21:22.000Z</time>
      </trkpt>
      <trkpt lat="46.73127" lon="-2.37544">
        <ele>5.2</ele>
        <time>2018-09-21T13:21:23.000Z</time>
      </trkpt>
      <trkpt lat="46.73129" lon="-2.37544">
        <ele>5.2</ele>
        <time>2018-09-21T13:21:24.000Z</time>
      </trkpt>
      <trkpt lat="46.7313" lon="-2.37545">
        <ele>5.1</ele>
        <time>2018-09-21T13:21:25.000Z</time>
      </trkpt>
      <trkpt lat="46.73131" lon="-2.37545">
        <ele>5.1</ele>
        <time>2018-09-21T13:21:26.000Z</time>
      </trkpt>
      <trkpt lat="46.73132" lon="-2.37545">
        <ele>5.1</ele>
        <time>2018-09-21T13:21:27.000Z</time>
      </trkpt>
      <trkpt lat="46.73133" lon="-2.37546">
        <ele>5.1</ele>
        <time>2018-09-21T13:21:28.000Z</time>
      </trkpt>
      <trkpt lat="46.73135" lon="-2.37546">
        <ele>5</ele>
        <time>2018-09-21T13:21:29.000Z</time>
      </trkpt>
      <trkpt lat="46.73136" lon="-2.37546">
        <ele>5</ele>
        <time>2018-09-21T13:21:30.000Z</time>
      </trkpt>
      <trkpt lat="46.73137" lon="-2.37546">
        <ele>5</ele>
        <time>2018-09-21T13:21:31.000Z</time>
      </trkpt>
      <trkpt lat="46.73138" lon="-2.37546">
        <ele>5</ele>
        <time>2018-09-21T13:21:32.000Z</time>
      </trkpt>
      <trkpt lat="46.73139" lon="-2.37547">
        <ele>5</ele>
        <time>2018-09-21T13:21:33.000Z</time>
      </trkpt>
      <trkpt lat="46.7314" lon="-2.37547">
        <ele>4.9</ele>
        <time>2018-09-21T13:21:34.000Z</time>
      </trkpt>
      <trkpt lat="46.73141" lon="-2.37547">
        <ele>4.9</ele>
        <time>2018-09-21T13:21:35.000Z</time>
      </trkpt>
      <trkpt lat="46.73142" lon="-2.37548">
        <ele>4.9</ele>
        <time>2018-09-21T13:21:36.000Z</time>
      </trkpt>
      <trkpt lat="46.73143" lon="-2.37548">
        <ele>4.9</ele>
        <time>2018-09-21T13:21:37.000Z</time>
      </trkpt>
      <trkpt lat="46.73144" lon="-2.37548">
        <ele>4.9</ele>
        <time>2018-09-21T13:21:38.000Z</time>
      </trkpt>
      <trkpt lat="46.73145" lon="-2.37549">
        <ele>4.8</ele>
        <time>2018-09-21T13:21:39.000Z</time>
      </trkpt>
      <trkpt lat="46.73145" lon="-2.37549">
        <ele>4.8</ele>
        <time>2018-09-21T13:21:40.000Z</time>
      </trkpt>
      <trkpt lat="46.73146" lon="-2.3755">
        <ele>4.8</ele>
        <time>2018-09-21T13:21:41.000Z</time>
      </trkpt>
      <trkpt lat="46.73147" lon="-2.3755">
        <ele>4.8</ele>
        <time>2018-09-21T13:21:42.000Z</time>
      </trkpt>
      <trkpt lat="46.73148" lon="-2.37551">
        <ele>4.8</ele>
        <time>2018-09-21T13:21:43.000Z</time>
      </trkpt>
      <trkpt lat="46.73149" lon="-2.37551">
        <ele>4.7</ele>
        <time>2018-09-21T13:21:44.000Z</time>
      </trkpt>
      <trkpt lat="46.7315" lon="-2.37552">
        <ele>4.7</ele>
        <time>2018-09-21T13:21:45.000Z</time>
      </trkpt>
      <trkpt lat="46.73151" lon="-2.37552">
        <ele>4.7</ele>
        <time>2018-09-21T13:21:46.000Z</time>
      </trkpt>
      <trkpt lat="46.73152" lon="-2.37553">
        <ele>4.7</ele>
        <time>2018-09-21T13:21:47.000Z</time>
      </trkpt>
      <trkpt lat="46.73153" lon="-2.37553">
        <ele>4.6</ele>
        <time>2018-09-21T13:21:48.000Z</time>
      </trkpt>
      <trkpt lat="46.73154" lon="-2.37553">
        <ele>4.6</ele>
        <time>2018-09-21T13:21:49.000Z</time>
      </trkpt>
      <trkpt lat="46.73155" lon="-2.37553">
        <ele>4.6</ele>
        <time>2018-09-21T13:21:50.000Z</time>
      </trkpt>
      <trkpt lat="46.73156" lon="-2.37554">
        <ele>4.6</ele>
        <time>2018-09-21T13:21:51.000Z</time>
      </trkpt>
      <trkpt lat="46.73157" lon="-2.37554">
        <ele>4.5</ele>
        <time>2018-09-21T13:21:52.000Z</time>
      </trkpt>
      <trkpt lat="46.73158" lon="-2.37554">
        <ele>4.5</ele>
        <time>2018-09-21T13:21:53.000Z</time>
      </trkpt>
      <trkpt lat="46.73159" lon="-2.37554">
        <ele>4.5</ele>
        <time>2018-09-21T13:21:54.000Z</time>
      </trkpt>
      <trkpt lat="46.7316" lon="-2.37555">
        <ele>4.5</ele>
        <time>2018-09-21T13:21:55.000Z</time>
      </trkpt>
      <trkpt lat="46.73161" lon="-2.37555">
        <ele>4.4</ele>
        <time>2018-09-21T13:21:56.000Z</time>
      </trkpt>
      <trkpt lat="46.73163" lon="-2.37555">
        <ele>4.4</ele>
        <time>2018-09-21T13:21:57.000Z</time>
      </trkpt>
      <trkpt lat="46.73164" lon="-2.37555">
        <ele>4.4</ele>
        <time>2018-09-21T13:21:58.000Z</time>
      </trkpt>
      <trkpt lat="46.73165" lon="-2.37555">
        <ele>4.4</ele>
        <time>2018-09-21T13:21:59.000Z</time>
      </trkpt>
      <trkpt lat="46.73166" lon="-2.37555">
        <ele>4.3</ele>
        <time>2018-09-21T13:22:00.000Z</time>
      </trkpt>
      <trkpt lat="46.73167" lon="-2.37556">
        <ele>4.3</ele>
        <time>2018-09-21T13:22:01.000Z</time>
      </trkpt>
      <trkpt lat="46.73168" lon="-2.37556">
        <ele>4.3</ele>
        <time>2018-09-21T13:22:02.000Z</time>
      </trkpt>
      <trkpt lat="46.7317" lon="-2.37556">
        <ele>4.3</ele>
        <time>2018-09-21T13:22:03.000Z</time>
      </trkpt>
      <trkpt lat="46.73171" lon="-2.37556">
        <ele>4.3</ele>
        <time>2018-09-21T13:22:04.000Z</time>
      </trkpt>
      <trkpt lat="46.73172" lon="-2.37556">
        <ele>4.3</ele>
        <time>2018-09-21T13:22:05.000Z</time>
      </trkpt>
      <trkpt lat="46.73173" lon="-2.37557">
        <ele>4.3</ele>
        <time>2018-09-21T13:22:06.000Z</time>
      </trkpt>
      <trkpt lat="46.73174" lon="-2.37557">
        <ele>4.3</ele>
        <time>2018-09-21T13:22:07.000Z</time>
      </trkpt>
      <trkpt lat="46.73175" lon="-2.37557">
        <ele>4.2</ele>
        <time>2018-09-21T13:22:08.000Z</time>
      </trkpt>
      <trkpt lat="46.73176" lon="-2.37557">
        <ele>4.2</ele>
        <time>2018-09-21T13:22:09.000Z</time>
      </trkpt>
      <trkpt lat="46.73178" lon="-2.37557">
        <ele>4.2</ele>
        <time>2018-09-21T13:22:10.000Z</time>
      </trkpt>
      <trkpt lat="46.73179" lon="-2.37557">
        <ele>4.2</ele>
        <time>2018-09-21T13:22:11.000Z</time>
      </trkpt>
      <trkpt lat="46.7318" lon="-2.37557">
        <ele>4.2</ele>
        <time>2018-09-21T13:22:12.000Z</time>
      </trkpt>
      <trkpt lat="46.73181" lon="-2.37558">
        <ele>4.2</ele>
        <time>2018-09-21T13:22:13.000Z</time>
      </trkpt>
      <trkpt lat="46.73182" lon="-2.37558">
        <ele>4.2</ele>
        <time>2018-09-21T13:22:14.000Z</time>
      </trkpt>
      <trkpt lat="46.73183" lon="-2.37558">
        <ele>4.2</ele>
        <time>2018-09-21T13:22:15.000Z</time>
      </trkpt>
      <trkpt lat="46.73184" lon="-2.37558">
        <ele>4.2</ele>
        <time>2018-09-21T13:22:16.000Z</time>
      </trkpt>
      <trkpt lat="46.73185" lon="-2.37558">
        <ele>4.1</ele>
        <time>2018-09-21T13:22:17.000Z</time>
      </trkpt>
      <trkpt lat="46.73186" lon="-2.37558">
        <ele>4.1</ele>
        <time>2018-09-21T13:22:18.000Z</time>
      </trkpt>
      <trkpt lat="46.73188" lon="-2.37558">
        <ele>4.1</ele>
        <time>2018-09-21T13:22:19.000Z</time>
      </trkpt>
      <trkpt lat="46.73189" lon="-2.37558">
        <ele>4.1</ele>
        <time>2018-09-21T13:22:20.000Z</time>
      </trkpt>
      <trkpt lat="46.7319" lon="-2.37558">
        <ele>4.1</ele>
        <time>2018-09-21T13:22:21.000Z</time>
      </trkpt>
      <trkpt lat="46.7319" lon="-2.37559">
        <ele>4.1</ele>
        <time>2018-09-21T13:22:22.000Z</time>
      </trkpt>
      <trkpt lat="46.73191" lon="-2.37559">
        <ele>4.1</ele>
        <time>2018-09-21T13:22:23.000Z</time>
      </trkpt>
      <trkpt lat="46.73192" lon="-2.37559">
        <ele>4.1</ele>
        <time>2018-09-21T13:22:24.000Z</time>
      </trkpt>
      <trkpt lat="46.73193" lon="-2.37559">
        <ele>4.1</ele>
        <time>2018-09-21T13:22:25.000Z</time>
      </trkpt>
      <trkpt lat="46.73194" lon="-2.37559">
        <ele>4.1</ele>
        <time>2018-09-21T13:22:26.000Z</time>
      </trkpt>
      <trkpt lat="46.73195" lon="-2.37559">
        <ele>4</ele>
        <time>2018-09-21T13:22:27.000Z</time>
      </trkpt>
      <trkpt lat="46.73196" lon="-2.3756">
        <ele>4</ele>
        <time>2018-09-21T13:22:28.000Z</time>
      </trkpt>
      <trkpt lat="46.73196" lon="-2.3756">
        <ele>4</ele>
        <time>2018-09-21T13:22:29.000Z</time>
      </trkpt>
      <trkpt lat="46.73197" lon="-2.3756">
        <ele>4</ele>
        <time>2018-09-21T13:22:30.000Z</time>
      </trkpt>
      <trkpt lat="46.73198" lon="-2.3756">
        <ele>4</ele>
        <time>2018-09-21T13:22:31.000Z</time>
      </trkpt>
      <trkpt lat="46.73199" lon="-2.37561">
        <ele>4</ele>
        <time>2018-09-21T13:22:32.000Z</time>
      </trkpt>
      <trkpt lat="46.732" lon="-2.37561">
        <ele>4</ele>
        <time>2018-09-21T13:22:33.000Z</time>
      </trkpt>
      <trkpt lat="46.73201" lon="-2.37561">
        <ele>4</ele>
        <time>2018-09-21T13:22:34.000Z</time>
      </trkpt>
      <trkpt lat="46.73201" lon="-2.37561">
        <ele>4</ele>
        <time>2018-09-21T13:22:35.000Z</time>
      </trkpt>
      <trkpt lat="46.73202" lon="-2.37561">
        <ele>4</ele>
        <time>2018-09-21T13:22:36.000Z</time>
      </trkpt>
      <trkpt lat="46.73203" lon="-2.37561">
        <ele>3.9</ele>
        <time>2018-09-21T13:22:37.000Z</time>
      </trkpt>
      <trkpt lat="46.73204" lon="-2.37561">
        <ele>3.9</ele>
        <time>2018-09-21T13:22:38.000Z</time>
      </trkpt>
      <trkpt lat="46.73205" lon="-2.37561">
        <ele>3.9</ele>
        <time>2018-09-21T13:22:39.000Z</time>
      </trkpt>
      <trkpt lat="46.73206" lon="-2.37561">
        <ele>3.9</ele>
        <time>2018-09-21T13:22:40.000Z</time>
      </trkpt>
      <trkpt lat="46.73207" lon="-2.37561">
        <ele>3.9</ele>
        <time>2018-09-21T13:22:41.000Z</time>
      </trkpt>
      <trkpt lat="46.73208" lon="-2.3756">
        <ele>3.9</ele>
        <time>2018-09-21T13:22:42.000Z</time>
      </trkpt>
      <trkpt lat="46.73209" lon="-2.3756">
        <ele>3.9</ele>
        <time>2018-09-21T13:22:43.000Z</time>
      </trkpt>
      <trkpt lat="46.7321" lon="-2.3756">
        <ele>3.9</ele>
        <time>2018-09-21T13:22:44.000Z</time>
      </trkpt>
      <trkpt lat="46.73211" lon="-2.3756">
        <ele>3.9</ele>
        <time>2018-09-21T13:22:45.000Z</time>
      </trkpt>
      <trkpt lat="46.73212" lon="-2.37559">
        <ele>3.9</ele>
        <time>2018-09-21T13:22:46.000Z</time>
      </trkpt>
      <trkpt lat="46.73213" lon="-2.37559">
        <ele>3.9</ele>
        <time>2018-09-21T13:22:47.000Z</time>
      </trkpt>
      <trkpt lat="46.73214" lon="-2.37559">
        <ele>3.9</ele>
        <time>2018-09-21T13:22:48.000Z</time>
      </trkpt>
      <trkpt lat="46.73214" lon="-2.37559">
        <ele>3.9</ele>
        <time>2018-09-21T13:22:49.000Z</time>
      </trkpt>
      <trkpt lat="46.73215" lon="-2.37558">
        <ele>3.9</ele>
        <time>2018-09-21T13:22:50.000Z</time>
      </trkpt>
      <trkpt lat="46.73216" lon="-2.37558">
        <ele>3.9</ele>
        <time>2018-09-21T13:22:51.000Z</time>
      </trkpt>
      <trkpt lat="46.73217" lon="-2.37558">
        <ele>3.9</ele>
        <time>2018-09-21T13:22:52.000Z</time>
      </trkpt>
      <trkpt lat="46.73218" lon="-2.37557">
        <ele>3.9</ele>
        <time>2018-09-21T13:22:53.000Z</time>
      </trkpt>
      <trkpt lat="46.73219" lon="-2.37557">
        <ele>3.9</ele>
        <time>2018-09-21T13:22:54.000Z</time>
      </trkpt>
      <trkpt lat="46.7322" lon="-2.37557">
        <ele>3.9</ele>
        <time>2018-09-21T13:22:55.000Z</time>
      </trkpt>
      <trkpt lat="46.7322" lon="-2.37556">
        <ele>3.9</ele>
        <time>2018-09-21T13:22:56.000Z</time>
      </trkpt>
      <trkpt lat="46.73221" lon="-2.37556">
        <ele>3.9</ele>
        <time>2018-09-21T13:22:57.000Z</time>
      </trkpt>
      <trkpt lat="46.73222" lon="-2.37556">
        <ele>3.9</ele>
        <time>2018-09-21T13:22:58.000Z</time>
      </trkpt>
      <trkpt lat="46.73223" lon="-2.37556">
        <ele>3.9</ele>
        <time>2018-09-21T13:22:59.000Z</time>
      </trkpt>
      <trkpt lat="46.73224" lon="-2.37555">
        <ele>3.9</ele>
        <time>2018-09-21T13:23:00.000Z</time>
      </trkpt>
      <trkpt lat="46.73225" lon="-2.37555">
        <ele>3.9</ele>
        <time>2018-09-21T13:23:01.000Z</time>
      </trkpt>
      <trkpt lat="46.73226" lon="-2.37555">
        <ele>3.9</ele>
        <time>2018-09-21T13:23:02.000Z</time>
      </trkpt>
      <trkpt lat="46.73227" lon="-2.37555">
        <ele>3.9</ele>
        <time>2018-09-21T13:23:03.000Z</time>
      </trkpt>
      <trkpt lat="46.73228" lon="-2.37555">
        <ele>3.9</ele>
        <time>2018-09-21T13:23:04.000Z</time>
      </trkpt>
      <trkpt lat="46.73228" lon="-2.37555">
        <ele>3.8</ele>
        <time>2018-09-21T13:23:05.000Z</time>
      </trkpt>
      <trkpt lat="46.73229" lon="-2.37555">
        <ele>3.8</ele>
        <time>2018-09-21T13:23:06.000Z</time>
      </trkpt>
      <trkpt lat="46.7323" lon="-2.37555">
        <ele>3.8</ele>
        <time>2018-09-21T13:23:07.000Z</time>
      </trkpt>
      <trkpt lat="46.73231" lon="-2.37555">
        <ele>3.8</ele>
        <time>2018-09-21T13:23:08.000Z</time>
      </trkpt>
      <trkpt lat="46.73232" lon="-2.37556">
        <ele>3.8</ele>
        <time>2018-09-21T13:23:09.000Z</time>
      </trkpt>
      <trkpt lat="46.73233" lon="-2.37556">
        <ele>3.8</ele>
        <time>2018-09-21T13:23:10.000Z</time>
      </trkpt>
      <trkpt lat="46.73234" lon="-2.37556">
        <ele>3.8</ele>
        <time>2018-09-21T13:23:11.000Z</time>
      </trkpt>
      <trkpt lat="46.73235" lon="-2.37556">
        <ele>3.8</ele>
        <time>2018-09-21T13:23:12.000Z</time>
      </trkpt>
      <trkpt lat="46.73236" lon="-2.37556">
        <ele>3.8</ele>
        <time>2018-09-21T13:23:13.000Z</time>
      </trkpt>
      <trkpt lat="46.73236" lon="-2.37556">
        <ele>3.8</ele>
        <time>2018-09-21T13:23:14.000Z</time>
      </trkpt>
      <trkpt lat="46.73237" lon="-2.37556">
        <ele>3.8</ele>
        <time>2018-09-21T13:23:15.000Z</time>
      </trkpt>
      <trkpt lat="46.73238" lon="-2.37556">
        <ele>3.8</ele>
        <time>2018-09-21T13:23:16.000Z</time>
      </trkpt>
      <trkpt lat="46.73239" lon="-2.37556">
        <ele>3.7</ele>
        <time>2018-09-21T13:23:17.000Z</time>
      </trkpt>
      <trkpt lat="46.7324" lon="-2.37556">
        <ele>3.7</ele>
        <time>2018-09-21T13:23:18.000Z</time>
      </trkpt>
      <trkpt lat="46.73241" lon="-2.37556">
        <ele>3.7</ele>
        <time>2018-09-21T13:23:19.000Z</time>
      </trkpt>
      <trkpt lat="46.73242" lon="-2.37556">
        <ele>3.7</ele>
        <time>2018-09-21T13:23:20.000Z</time>
      </trkpt>
      <trkpt lat="46.73243" lon="-2.37556">
        <ele>3.7</ele>
        <time>2018-09-21T13:23:21.000Z</time>
      </trkpt>
      <trkpt lat="46.73244" lon="-2.37556">
        <ele>3.7</ele>
        <time>2018-09-21T13:23:22.000Z</time>
      </trkpt>
      <trkpt lat="46.73245" lon="-2.37556">
        <ele>3.7</ele>
        <time>2018-09-21T13:23:23.000Z</time>
      </trkpt>
      <trkpt lat="46.73245" lon="-2.37556">
        <ele>3.7</ele>
        <time>2018-09-21T13:23:24.000Z</time>
      </trkpt>
      <trkpt lat="46.73246" lon="-2.37556">
        <ele>3.7</ele>
        <time>2018-09-21T13:23:25.000Z</time>
      </trkpt>
      <trkpt lat="46.73247" lon="-2.37557">
        <ele>3.7</ele>
        <time>2018-09-21T13:23:26.000Z</time>
      </trkpt>
      <trkpt lat="46.73248" lon="-2.37557">
        <ele>3.7</ele>
        <time>2018-09-21T13:23:27.000Z</time>
      </trkpt>
      <trkpt lat="46.73249" lon="-2.37557">
        <ele>3.6</ele>
        <time>2018-09-21T13:23:28.000Z</time>
      </trkpt>
      <trkpt lat="46.7325" lon="-2.37557">
        <ele>3.6</ele>
        <time>2018-09-21T13:23:29.000Z</time>
      </trkpt>
      <trkpt lat="46.7325" lon="-2.37558">
        <ele>3.6</ele>
        <time>2018-09-21T13:23:30.000Z</time>
      </trkpt>
      <trkpt lat="46.73251" lon="-2.37558">
        <ele>3.5</ele>
        <time>2018-09-21T13:23:31.000Z</time>
      </trkpt>
      <trkpt lat="46.73252" lon="-2.37558">
        <ele>3.5</ele>
        <time>2018-09-21T13:23:32.000Z</time>
      </trkpt>
      <trkpt lat="46.73253" lon="-2.37559">
        <ele>3.4</ele>
        <time>2018-09-21T13:23:33.000Z</time>
      </trkpt>
      <trkpt lat="46.73254" lon="-2.37559">
        <ele>3.4</ele>
        <time>2018-09-21T13:23:34.000Z</time>
      </trkpt>
      <trkpt lat="46.73255" lon="-2.3756">
        <ele>3.3</ele>
        <time>2018-09-21T13:23:35.000Z</time>
      </trkpt>
      <trkpt lat="46.73256" lon="-2.3756">
        <ele>3.2</ele>
        <time>2018-09-21T13:23:36.000Z</time>
      </trkpt>
      <trkpt lat="46.73257" lon="-2.37561">
        <ele>3.2</ele>
        <time>2018-09-21T13:23:37.000Z</time>
      </trkpt>
      <trkpt lat="46.73258" lon="-2.37561">
        <ele>3.1</ele>
        <time>2018-09-21T13:23:38.000Z</time>
      </trkpt>
      <trkpt lat="46.73259" lon="-2.37561">
        <ele>3</ele>
        <time>2018-09-21T13:23:39.000Z</time>
      </trkpt>
      <trkpt lat="46.7326" lon="-2.37562">
        <ele>3</ele>
        <time>2018-09-21T13:23:40.000Z</time>
      </trkpt>
      <trkpt lat="46.73262" lon="-2.37562">
        <ele>2.9</ele>
        <time>2018-09-21T13:23:41.000Z</time>
      </trkpt>
      <trkpt lat="46.73263" lon="-2.37563">
        <ele>2.9</ele>
        <time>2018-09-21T13:23:42.000Z</time>
      </trkpt>
      <trkpt lat="46.73264" lon="-2.37563">
        <ele>2.8</ele>
        <time>2018-09-21T13:23:43.000Z</time>
      </trkpt>
      <trkpt lat="46.73265" lon="-2.37564">
        <ele>2.7</ele>
        <time>2018-09-21T13:23:44.000Z</time>
      </trkpt>
      <trkpt lat="46.73266" lon="-2.37564">
        <ele>2.7</ele>
        <time>2018-09-21T13:23:45.000Z</time>
      </trkpt>
      <trkpt lat="46.73266" lon="-2.37565">
        <ele>2.6</ele>
        <time>2018-09-21T13:23:46.000Z</time>
      </trkpt>
      <trkpt lat="46.73267" lon="-2.37566">
        <ele>2.6</ele>
        <time>2018-09-21T13:23:47.000Z</time>
      </trkpt>
      <trkpt lat="46.73268" lon="-2.37567">
        <ele>2.5</ele>
        <time>2018-09-21T13:23:48.000Z</time>
      </trkpt>
      <trkpt lat="46.73268" lon="-2.37568">
        <ele>2.5</ele>
        <time>2018-09-21T13:23:49.000Z</time>
      </trkpt>
      <trkpt lat="46.73269" lon="-2.37569">
        <ele>2.4</ele>
        <time>2018-09-21T13:23:50.000Z</time>
      </trkpt>
      <trkpt lat="46.73269" lon="-2.37571">
        <ele>2.4</ele>
        <time>2018-09-21T13:23:51.000Z</time>
      </trkpt>
      <trkpt lat="46.73269" lon="-2.37572">
        <ele>2.3</ele>
        <time>2018-09-21T13:23:52.000Z</time>
      </trkpt>
      <trkpt lat="46.73269" lon="-2.37574">
        <ele>2.3</ele>
        <time>2018-09-21T13:23:53.000Z</time>
      </trkpt>
      <trkpt lat="46.73269" lon="-2.37575">
        <ele>2.3</ele>
        <time>2018-09-21T13:23:54.000Z</time>
      </trkpt>
      <trkpt lat="46.73268" lon="-2.37577">
        <ele>2.3</ele>
        <time>2018-09-21T13:23:55.000Z</time>
      </trkpt>
      <trkpt lat="46.73268" lon="-2.37579">
        <ele>2.2</ele>
        <time>2018-09-21T13:23:56.000Z</time>
      </trkpt>
      <trkpt lat="46.73268" lon="-2.3758">
        <ele>2.2</ele>
        <time>2018-09-21T13:23:57.000Z</time>
      </trkpt>
      <trkpt lat="46.73267" lon="-2.37582">
        <ele>2.2</ele>
        <time>2018-09-21T13:23:58.000Z</time>
      </trkpt>
      <trkpt lat="46.73267" lon="-2.37583">
        <ele>2.2</ele>
        <time>2018-09-21T13:23:59.000Z</time>
      </trkpt>
      <trkpt lat="46.73266" lon="-2.37585">
        <ele>2.2</ele>
        <time>2018-09-21T13:24:00.000Z</time>
      </trkpt>
      <trkpt lat="46.73266" lon="-2.37586">
        <ele>2.2</ele>
        <time>2018-09-21T13:24:01.000Z</time>
      </trkpt>
      <trkpt lat="46.73265" lon="-2.37587">
        <ele>2.2</ele>
        <time>2018-09-21T13:24:02.000Z</time>
      </trkpt>
      <trkpt lat="46.73264" lon="-2.37588">
        <ele>2.3</ele>
        <time>2018-09-21T13:24:03.000Z</time>
      </trkpt>
      <trkpt lat="46.73264" lon="-2.37589">
        <ele>2.3</ele>
        <time>2018-09-21T13:24:04.000Z</time>
      </trkpt>
      <trkpt lat="46.73263" lon="-2.3759">
        <ele>2.3</ele>
        <time>2018-09-21T13:24:05.000Z</time>
      </trkpt>
      <trkpt lat="46.73262" lon="-2.37592">
        <ele>2.3</ele>
        <time>2018-09-21T13:24:06.000Z</time>
      </trkpt>
      <trkpt lat="46.73262" lon="-2.37593">
        <ele>2.3</ele>
        <time>2018-09-21T13:24:07.000Z</time>
      </trkpt>
      <trkpt lat="46.73261" lon="-2.37594">
        <ele>2.4</ele>
        <time>2018-09-21T13:24:08.000Z</time>
      </trkpt>
      <trkpt lat="46.7326" lon="-2.37595">
        <ele>2.4</ele>
        <time>2018-09-21T13:24:09.000Z</time>
      </trkpt>
      <trkpt lat="46.73259" lon="-2.37596">
        <ele>2.4</ele>
        <time>2018-09-21T13:24:10.000Z</time>
      </trkpt>
      <trkpt lat="46.73259" lon="-2.37597">
        <ele>2.4</ele>
        <time>2018-09-21T13:24:11.000Z</time>
      </trkpt>
      <trkpt lat="46.73258" lon="-2.37598">
        <ele>2.4</ele>
        <time>2018-09-21T13:24:12.000Z</time>
      </trkpt>
      <trkpt lat="46.73257" lon="-2.37599">
        <ele>2.5</ele>
        <time>2018-09-21T13:24:13.000Z</time>
      </trkpt>
      <trkpt lat="46.73257" lon="-2.37601">
        <ele>2.5</ele>
        <time>2018-09-21T13:24:14.000Z</time>
      </trkpt>
      <trkpt lat="46.73256" lon="-2.37602">
        <ele>2.5</ele>
        <time>2018-09-21T13:24:15.000Z</time>
      </trkpt>
      <trkpt lat="46.73255" lon="-2.37603">
        <ele>2.5</ele>
        <time>2018-09-21T13:24:16.000Z</time>
      </trkpt>
      <trkpt lat="46.73254" lon="-2.37604">
        <ele>2.5</ele>
        <time>2018-09-21T13:24:17.000Z</time>
      </trkpt>
      <trkpt lat="46.73254" lon="-2.37605">
        <ele>2.6</ele>
        <time>2018-09-21T13:24:18.000Z</time>
      </trkpt>
      <trkpt lat="46.73253" lon="-2.37607">
        <ele>2.6</ele>
        <time>2018-09-21T13:24:19.000Z</time>
      </trkpt>
      <trkpt lat="46.73252" lon="-2.37608">
        <ele>2.6</ele>
        <time>2018-09-21T13:24:20.000Z</time>
      </trkpt>
      <trkpt lat="46.73251" lon="-2.37609">
        <ele>2.6</ele>
        <time>2018-09-21T13:24:21.000Z</time>
      </trkpt>
      <trkpt lat="46.7325" lon="-2.3761">
        <ele>2.7</ele>
        <time>2018-09-21T13:24:22.000Z</time>
      </trkpt>
      <trkpt lat="46.73249" lon="-2.37611">
        <ele>2.7</ele>
        <time>2018-09-21T13:24:23.000Z</time>
      </trkpt>
      <trkpt lat="46.73249" lon="-2.37612">
        <ele>2.7</ele>
        <time>2018-09-21T13:24:24.000Z</time>
      </trkpt>
      <trkpt lat="46.73248" lon="-2.37613">
        <ele>2.7</ele>
        <time>2018-09-21T13:24:25.000Z</time>
      </trkpt>
      <trkpt lat="46.73247" lon="-2.37614">
        <ele>2.7</ele>
        <time>2018-09-21T13:24:26.000Z</time>
      </trkpt>
      <trkpt lat="46.73246" lon="-2.37616">
        <ele>2.7</ele>
        <time>2018-09-21T13:24:27.000Z</time>
      </trkpt>
      <trkpt lat="46.73246" lon="-2.37617">
        <ele>2.7</ele>
        <time>2018-09-21T13:24:28.000Z</time>
      </trkpt>
      <trkpt lat="46.73245" lon="-2.37618">
        <ele>2.7</ele>
        <time>2018-09-21T13:24:29.000Z</time>
      </trkpt>
      <trkpt lat="46.73245" lon="-2.37619">
        <ele>2.7</ele>
        <time>2018-09-21T13:24:30.000Z</time>
      </trkpt>
      <trkpt lat="46.73244" lon="-2.37621">
        <ele>2.7</ele>
        <time>2018-09-21T13:24:31.000Z</time>
      </trkpt>
      <trkpt lat="46.73244" lon="-2.37622">
        <ele>2.7</ele>
        <time>2018-09-21T13:24:32.000Z</time>
      </trkpt>
      <trkpt lat="46.73244" lon="-2.37624">
        <ele>2.7</ele>
        <time>2018-09-21T13:24:33.000Z</time>
      </trkpt>
      <trkpt lat="46.73244" lon="-2.37625">
        <ele>2.7</ele>
        <time>2018-09-21T13:24:34.000Z</time>
      </trkpt>
      <trkpt lat="46.73243" lon="-2.37626">
        <ele>2.6</ele>
        <time>2018-09-21T13:24:35.000Z</time>
      </trkpt>
      <trkpt lat="46.73243" lon="-2.37628">
        <ele>2.6</ele>
        <time>2018-09-21T13:24:36.000Z</time>
      </trkpt>
      <trkpt lat="46.73243" lon="-2.37629">
        <ele>2.6</ele>
        <time>2018-09-21T13:24:37.000Z</time>
      </trkpt>
      <trkpt lat="46.73243" lon="-2.37631">
        <ele>2.6</ele>
        <time>2018-09-21T13:24:38.000Z</time>
      </trkpt>
      <trkpt lat="46.73243" lon="-2.37633">
        <ele>2.6</ele>
        <time>2018-09-21T13:24:39.000Z</time>
      </trkpt>
      <trkpt lat="46.73242" lon="-2.37634">
        <ele>2.6</ele>
        <time>2018-09-21T13:24:40.000Z</time>
      </trkpt>
      <trkpt lat="46.73242" lon="-2.37636">
        <ele>2.6</ele>
        <time>2018-09-21T13:24:41.000Z</time>
      </trkpt>
      <trkpt lat="46.73242" lon="-2.37637">
        <ele>2.6</ele>
        <time>2018-09-21T13:24:42.000Z</time>
      </trkpt>
      <trkpt lat="46.73242" lon="-2.37639">
        <ele>2.6</ele>
        <time>2018-09-21T13:24:43.000Z</time>
      </trkpt>
      <trkpt lat="46.73242" lon="-2.3764">
        <ele>2.5</ele>
        <time>2018-09-21T13:24:44.000Z</time>
      </trkpt>
      <trkpt lat="46.73242" lon="-2.37642">
        <ele>2.5</ele>
        <time>2018-09-21T13:24:45.000Z</time>
      </trkpt>
      <trkpt lat="46.73242" lon="-2.37644">
        <ele>2.5</ele>
        <time>2018-09-21T13:24:46.000Z</time>
      </trkpt>
      <trkpt lat="46.73241" lon="-2.37645">
        <ele>2.5</ele>
        <time>2018-09-21T13:24:47.000Z</time>
      </trkpt>
      <trkpt lat="46.73241" lon="-2.37647">
        <ele>2.5</ele>
        <time>2018-09-21T13:24:48.000Z</time>
      </trkpt>
      <trkpt lat="46.73241" lon="-2.37648">
        <ele>2.5</ele>
        <time>2018-09-21T13:24:49.000Z</time>
      </trkpt>
      <trkpt lat="46.73241" lon="-2.3765">
        <ele>2.5</ele>
        <time>2018-09-21T13:24:50.000Z</time>
      </trkpt>
      <trkpt lat="46.7324" lon="-2.37651">
        <ele>2.5</ele>
        <time>2018-09-21T13:24:51.000Z</time>
      </trkpt>
      <trkpt lat="46.7324" lon="-2.37653">
        <ele>2.5</ele>
        <time>2018-09-21T13:24:52.000Z</time>
      </trkpt>
      <trkpt lat="46.7324" lon="-2.37654">
        <ele>2.5</ele>
        <time>2018-09-21T13:24:53.000Z</time>
      </trkpt>
      <trkpt lat="46.73239" lon="-2.37656">
        <ele>2.5</ele>
        <time>2018-09-21T13:24:54.000Z</time>
      </trkpt>
      <trkpt lat="46.73239" lon="-2.37657">
        <ele>2.5</ele>
        <time>2018-09-21T13:24:55.000Z</time>
      </trkpt>
      <trkpt lat="46.73239" lon="-2.37658">
        <ele>2.5</ele>
        <time>2018-09-21T13:24:56.000Z</time>
      </trkpt>
      <trkpt lat="46.73238" lon="-2.3766">
        <ele>2.5</ele>
        <time>2018-09-21T13:24:57.000Z</time>
      </trkpt>
      <trkpt lat="46.73238" lon="-2.37661">
        <ele>2.5</ele>
        <time>2018-09-21T13:24:58.000Z</time>
      </trkpt>
      <trkpt lat="46.73237" lon="-2.37662">
        <ele>2.5</ele>
        <time>2018-09-21T13:24:59.000Z</time>
      </trkpt>
      <trkpt lat="46.73237" lon="-2.37663">
        <ele>2.5</ele>
        <time>2018-09-21T13:25:00.000Z</time>
      </trkpt>
      <trkpt lat="46.73236" lon="-2.37665">
        <ele>2.5</ele>
        <time>2018-09-21T13:25:01.000Z</time>
      </trkpt>
      <trkpt lat="46.73236" lon="-2.37666">
        <ele>2.5</ele>
        <time>2018-09-21T13:25:02.000Z</time>
      </trkpt>
      <trkpt lat="46.73235" lon="-2.37667">
        <ele>2.5</ele>
        <time>2018-09-21T13:25:03.000Z</time>
      </trkpt>
      <trkpt lat="46.73235" lon="-2.37668">
        <ele>2.5</ele>
        <time>2018-09-21T13:25:04.000Z</time>
      </trkpt>
      <trkpt lat="46.73234" lon="-2.37669">
        <ele>2.6</ele>
        <time>2018-09-21T13:25:05.000Z</time>
      </trkpt>
      <trkpt lat="46.73234" lon="-2.37669">
        <ele>2.6</ele>
        <time>2018-09-21T13:25:06.000Z</time>
      </trkpt>
      <trkpt lat="46.73233" lon="-2.3767">
        <ele>2.6</ele>
        <time>2018-09-21T13:25:07.000Z</time>
      </trkpt>
      <trkpt lat="46.73232" lon="-2.37671">
        <ele>2.6</ele>
        <time>2018-09-21T13:25:08.000Z</time>
      </trkpt>
      <trkpt lat="46.73232" lon="-2.37672">
        <ele>2.6</ele>
        <time>2018-09-21T13:25:09.000Z</time>
      </trkpt>
      <trkpt lat="46.73231" lon="-2.37673">
        <ele>2.6</ele>
        <time>2018-09-21T13:25:10.000Z</time>
      </trkpt>
      <trkpt lat="46.7323" lon="-2.37673">
        <ele>2.7</ele>
        <time>2018-09-21T13:25:11.000Z</time>
      </trkpt>
      <trkpt lat="46.7323" lon="-2.37674">
        <ele>2.7</ele>
        <time>2018-09-21T13:25:12.000Z</time>
      </trkpt>
      <trkpt lat="46.73229" lon="-2.37675">
        <ele>2.7</ele>
        <time>2018-09-21T13:25:13.000Z</time>
      </trkpt>
      <trkpt lat="46.73228" lon="-2.37676">
        <ele>2.7</ele>
        <time>2018-09-21T13:25:14.000Z</time>
      </trkpt>
      <trkpt lat="46.73228" lon="-2.37676">
        <ele>2.8</ele>
        <time>2018-09-21T13:25:15.000Z</time>
      </trkpt>
      <trkpt lat="46.73227" lon="-2.37677">
        <ele>2.8</ele>
        <time>2018-09-21T13:25:16.000Z</time>
      </trkpt>
      <trkpt lat="46.73226" lon="-2.37678">
        <ele>2.8</ele>
        <time>2018-09-21T13:25:17.000Z</time>
      </trkpt>
      <trkpt lat="46.73226" lon="-2.37679">
        <ele>2.8</ele>
        <time>2018-09-21T13:25:18.000Z</time>
      </trkpt>
      <trkpt lat="46.73225" lon="-2.3768">
        <ele>2.8</ele>
        <time>2018-09-21T13:25:19.000Z</time>
      </trkpt>
      <trkpt lat="46.73224" lon="-2.37681">
        <ele>2.9</ele>
        <time>2018-09-21T13:25:20.000Z</time>
      </trkpt>
      <trkpt lat="46.73224" lon="-2.37682">
        <ele>2.9</ele>
        <time>2018-09-21T13:25:21.000Z</time>
      </trkpt>
      <trkpt lat="46.73223" lon="-2.37683">
        <ele>2.9</ele>
        <time>2018-09-21T13:25:22.000Z</time>
      </trkpt>
      <trkpt lat="46.73222" lon="-2.37684">
        <ele>2.9</ele>
        <time>2018-09-21T13:25:23.000Z</time>
      </trkpt>
      <trkpt lat="46.73221" lon="-2.37685">
        <ele>3</ele>
        <time>2018-09-21T13:25:24.000Z</time>
      </trkpt>
      <trkpt lat="46.73221" lon="-2.37686">
        <ele>3</ele>
        <time>2018-09-21T13:25:25.000Z</time>
      </trkpt>
      <trkpt lat="46.7322" lon="-2.37688">
        <ele>3</ele>
        <time>2018-09-21T13:25:26.000Z</time>
      </trkpt>
      <trkpt lat="46.73219" lon="-2.37689">
        <ele>3</ele>
        <time>2018-09-21T13:25:27.000Z</time>
      </trkpt>
      <trkpt lat="46.73219" lon="-2.3769">
        <ele>3</ele>
        <time>2018-09-21T13:25:28.000Z</time>
      </trkpt>
      <trkpt lat="46.73219" lon="-2.37691">
        <ele>3.1</ele>
        <time>2018-09-21T13:25:29.000Z</time>
      </trkpt>
      <trkpt lat="46.73219" lon="-2.37692">
        <ele>3</ele>
        <time>2018-09-21T13:25:30.000Z</time>
      </trkpt>
      <trkpt lat="46.73219" lon="-2.37693">
        <ele>3</ele>
        <time>2018-09-21T13:25:31.000Z</time>
      </trkpt>
      <trkpt lat="46.73219" lon="-2.37695">
        <ele>3</ele>
        <time>2018-09-21T13:25:32.000Z</time>
      </trkpt>
      <trkpt lat="46.7322" lon="-2.37696">
        <ele>3</ele>
        <time>2018-09-21T13:25:33.000Z</time>
      </trkpt>
      <trkpt lat="46.7322" lon="-2.37697">
        <ele>3</ele>
        <time>2018-09-21T13:25:34.000Z</time>
      </trkpt>
      <trkpt lat="46.73221" lon="-2.37698">
        <ele>2.9</ele>
        <time>2018-09-21T13:25:35.000Z</time>
      </trkpt>
      <trkpt lat="46.73221" lon="-2.37699">
        <ele>2.9</ele>
        <time>2018-09-21T13:25:36.000Z</time>
      </trkpt>
      <trkpt lat="46.73222" lon="-2.37701">
        <ele>2.9</ele>
        <time>2018-09-21T13:25:37.000Z</time>
      </trkpt>
      <trkpt lat="46.73222" lon="-2.37702">
        <ele>2.9</ele>
        <time>2018-09-21T13:25:38.000Z</time>
      </trkpt>
      <trkpt lat="46.73223" lon="-2.37703">
        <ele>2.8</ele>
        <time>2018-09-21T13:25:39.000Z</time>
      </trkpt>
      <trkpt lat="46.73223" lon="-2.37704">
        <ele>2.8</ele>
        <time>2018-09-21T13:25:40.000Z</time>
      </trkpt>
      <trkpt lat="46.73224" lon="-2.37705">
        <ele>2.8</ele>
        <time>2018-09-21T13:25:41.000Z</time>
      </trkpt>
      <trkpt lat="46.73224" lon="-2.37706">
        <ele>2.7</ele>
        <time>2018-09-21T13:25:42.000Z</time>
      </trkpt>
      <trkpt lat="46.73225" lon="-2.37707">
        <ele>2.7</ele>
        <time>2018-09-21T13:25:43.000Z</time>
      </trkpt>
      <trkpt lat="46.73225" lon="-2.37708">
        <ele>2.7</ele>
        <time>2018-09-21T13:25:44.000Z</time>
      </trkpt>
      <trkpt lat="46.73226" lon="-2.37709">
        <ele>2.7</ele>
        <time>2018-09-21T13:25:45.000Z</time>
      </trkpt>
      <trkpt lat="46.73226" lon="-2.3771">
        <ele>2.6</ele>
        <time>2018-09-21T13:25:46.000Z</time>
      </trkpt>
      <trkpt lat="46.73226" lon="-2.37712">
        <ele>2.6</ele>
        <time>2018-09-21T13:25:47.000Z</time>
      </trkpt>
      <trkpt lat="46.73227" lon="-2.37713">
        <ele>2.6</ele>
        <time>2018-09-21T13:25:48.000Z</time>
      </trkpt>
      <trkpt lat="46.73227" lon="-2.37714">
        <ele>2.6</ele>
        <time>2018-09-21T13:25:49.000Z</time>
      </trkpt>
      <trkpt lat="46.73227" lon="-2.37715">
        <ele>2.6</ele>
        <time>2018-09-21T13:25:50.000Z</time>
      </trkpt>
      <trkpt lat="46.73228" lon="-2.37716">
        <ele>2.5</ele>
        <time>2018-09-21T13:25:51.000Z</time>
      </trkpt>
      <trkpt lat="46.73228" lon="-2.37717">
        <ele>2.5</ele>
        <time>2018-09-21T13:25:52.000Z</time>
      </trkpt>
      <trkpt lat="46.73228" lon="-2.37718">
        <ele>2.5</ele>
        <time>2018-09-21T13:25:53.000Z</time>
      </trkpt>
      <trkpt lat="46.73228" lon="-2.37719">
        <ele>2.5</ele>
        <time>2018-09-21T13:25:54.000Z</time>
      </trkpt>
      <trkpt lat="46.73228" lon="-2.3772">
        <ele>2.5</ele>
        <time>2018-09-21T13:25:55.000Z</time>
      </trkpt>
      <trkpt lat="46.73228" lon="-2.37721">
        <ele>2.5</ele>
        <time>2018-09-21T13:25:56.000Z</time>
      </trkpt>
      <trkpt lat="46.73229" lon="-2.37723">
        <ele>2.4</ele>
        <time>2018-09-21T13:25:57.000Z</time>
      </trkpt>
      <trkpt lat="46.73229" lon="-2.37724">
        <ele>2.4</ele>
        <time>2018-09-21T13:25:58.000Z</time>
      </trkpt>
      <trkpt lat="46.73229" lon="-2.37725">
        <ele>2.4</ele>
        <time>2018-09-21T13:25:59.000Z</time>
      </trkpt>
      <trkpt lat="46.73229" lon="-2.37725">
        <ele>2.4</ele>
        <time>2018-09-21T13:26:00.000Z</time>
      </trkpt>
      <trkpt lat="46.73229" lon="-2.37726">
        <ele>2.4</ele>
        <time>2018-09-21T13:26:01.000Z</time>
      </trkpt>
      <trkpt lat="46.73229" lon="-2.37727">
        <ele>2.4</ele>
        <time>2018-09-21T13:26:02.000Z</time>
      </trkpt>
      <trkpt lat="46.73229" lon="-2.37728">
        <ele>2.4</ele>
        <time>2018-09-21T13:26:03.000Z</time>
      </trkpt>
      <trkpt lat="46.73229" lon="-2.37729">
        <ele>2.4</ele>
        <time>2018-09-21T13:26:04.000Z</time>
      </trkpt>
      <trkpt lat="46.73229" lon="-2.3773">
        <ele>2.4</ele>
        <time>2018-09-21T13:26:05.000Z</time>
      </trkpt>
      <trkpt lat="46.73229" lon="-2.37731">
        <ele>2.4</ele>
        <time>2018-09-21T13:26:06.000Z</time>
      </trkpt>
      <trkpt lat="46.73229" lon="-2.37731">
        <ele>2.4</ele>
        <time>2018-09-21T13:26:07.000Z</time>
      </trkpt>
      <trkpt lat="46.73229" lon="-2.37732">
        <ele>2.4</ele>
        <time>2018-09-21T13:26:08.000Z</time>
      </trkpt>
      <trkpt lat="46.73229" lon="-2.37733">
        <ele>2.4</ele>
        <time>2018-09-21T13:26:09.000Z</time>
      </trkpt>
      <trkpt lat="46.73229" lon="-2.37734">
        <ele>2.4</ele>
        <time>2018-09-21T13:26:10.000Z</time>
      </trkpt>
      <trkpt lat="46.73229" lon="-2.37734">
        <ele>2.4</ele>
        <time>2018-09-21T13:26:11.000Z</time>
      </trkpt>
      <trkpt lat="46.73229" lon="-2.37735">
        <ele>2.4</ele>
        <time>2018-09-21T13:26:12.000Z</time>
      </trkpt>
      <trkpt lat="46.73229" lon="-2.37736">
        <ele>2.4</ele>
        <time>2018-09-21T13:26:13.000Z</time>
      </trkpt>
      <trkpt lat="46.73229" lon="-2.37736">
        <ele>2.4</ele>
        <time>2018-09-21T13:26:14.000Z</time>
      </trkpt>
      <trkpt lat="46.73229" lon="-2.37737">
        <ele>2.4</ele>
        <time>2018-09-21T13:26:15.000Z</time>
      </trkpt>
      <trkpt lat="46.73228" lon="-2.37738">
        <ele>2.4</ele>
        <time>2018-09-21T13:26:16.000Z</time>
      </trkpt>
      <trkpt lat="46.73228" lon="-2.37738">
        <ele>2.4</ele>
        <time>2018-09-21T13:26:17.000Z</time>
      </trkpt>
      <trkpt lat="46.73228" lon="-2.37739">
        <ele>2.4</ele>
        <time>2018-09-21T13:26:18.000Z</time>
      </trkpt>
      <trkpt lat="46.73228" lon="-2.3774">
        <ele>2.4</ele>
        <time>2018-09-21T13:26:19.000Z</time>
      </trkpt>
      <trkpt lat="46.73228" lon="-2.37741">
        <ele>2.4</ele>
        <time>2018-09-21T13:26:20.000Z</time>
      </trkpt>
      <trkpt lat="46.73228" lon="-2.37741">
        <ele>2.4</ele>
        <time>2018-09-21T13:26:21.000Z</time>
      </trkpt>
      <trkpt lat="46.73228" lon="-2.37742">
        <ele>2.4</ele>
        <time>2018-09-21T13:26:22.000Z</time>
      </trkpt>
      <trkpt lat="46.73228" lon="-2.37743">
        <ele>2.4</ele>
        <time>2018-09-21T13:26:23.000Z</time>
      </trkpt>
      <trkpt lat="46.73227" lon="-2.37744">
        <ele>2.4</ele>
        <time>2018-09-21T13:26:24.000Z</time>
      </trkpt>
      <trkpt lat="46.73227" lon="-2.37744">
        <ele>2.4</ele>
        <time>2018-09-21T13:26:25.000Z</time>
      </trkpt>
      <trkpt lat="46.73227" lon="-2.37745">
        <ele>2.4</ele>
        <time>2018-09-21T13:26:26.000Z</time>
      </trkpt>
      <trkpt lat="46.73227" lon="-2.37746">
        <ele>2.4</ele>
        <time>2018-09-21T13:26:27.000Z</time>
      </trkpt>
      <trkpt lat="46.73227" lon="-2.37747">
        <ele>2.4</ele>
        <time>2018-09-21T13:26:28.000Z</time>
      </trkpt>
      <trkpt lat="46.73227" lon="-2.37748">
        <ele>2.4</ele>
        <time>2018-09-21T13:26:29.000Z</time>
      </trkpt>
      <trkpt lat="46.73226" lon="-2.37749">
        <ele>2.4</ele>
        <time>2018-09-21T13:26:30.000Z</time>
      </trkpt>
      <trkpt lat="46.73226" lon="-2.3775">
        <ele>2.4</ele>
        <time>2018-09-21T13:26:31.000Z</time>
      </trkpt>
      <trkpt lat="46.73226" lon="-2.37751">
        <ele>2.5</ele>
        <time>2018-09-21T13:26:32.000Z</time>
      </trkpt>
      <trkpt lat="46.73226" lon="-2.37752">
        <ele>2.5</ele>
        <time>2018-09-21T13:26:33.000Z</time>
      </trkpt>
      <trkpt lat="46.73226" lon="-2.37753">
        <ele>2.5</ele>
        <time>2018-09-21T13:26:34.000Z</time>
      </trkpt>
      <trkpt lat="46.73225" lon="-2.37754">
        <ele>2.5</ele>
        <time>2018-09-21T13:26:35.000Z</time>
      </trkpt>
      <trkpt lat="46.73225" lon="-2.37755">
        <ele>2.6</ele>
        <time>2018-09-21T13:26:36.000Z</time>
      </trkpt>
      <trkpt lat="46.73225" lon="-2.37757">
        <ele>2.6</ele>
        <time>2018-09-21T13:26:37.000Z</time>
      </trkpt>
      <trkpt lat="46.73225" lon="-2.37758">
        <ele>2.6</ele>
        <time>2018-09-21T13:26:38.000Z</time>
      </trkpt>
      <trkpt lat="46.73225" lon="-2.37759">
        <ele>2.6</ele>
        <time>2018-09-21T13:26:39.000Z</time>
      </trkpt>
      <trkpt lat="46.73225" lon="-2.3776">
        <ele>2.7</ele>
        <time>2018-09-21T13:26:40.000Z</time>
      </trkpt>
      <trkpt lat="46.73225" lon="-2.37761">
        <ele>2.7</ele>
        <time>2018-09-21T13:26:41.000Z</time>
      </trkpt>
      <trkpt lat="46.73225" lon="-2.37762">
        <ele>2.7</ele>
        <time>2018-09-21T13:26:42.000Z</time>
      </trkpt>
      <trkpt lat="46.73226" lon="-2.37764">
        <ele>2.7</ele>
        <time>2018-09-21T13:26:43.000Z</time>
      </trkpt>
      <trkpt lat="46.73226" lon="-2.37765">
        <ele>2.7</ele>
        <time>2018-09-21T13:26:44.000Z</time>
      </trkpt>
      <trkpt lat="46.73226" lon="-2.37766">
        <ele>2.7</ele>
        <time>2018-09-21T13:26:45.000Z</time>
      </trkpt>
      <trkpt lat="46.73226" lon="-2.37767">
        <ele>2.7</ele>
        <time>2018-09-21T13:26:46.000Z</time>
      </trkpt>
      <trkpt lat="46.73226" lon="-2.37768">
        <ele>2.7</ele>
        <time>2018-09-21T13:26:47.000Z</time>
      </trkpt>
      <trkpt lat="46.73226" lon="-2.37769">
        <ele>2.8</ele>
        <time>2018-09-21T13:26:48.000Z</time>
      </trkpt>
      <trkpt lat="46.73226" lon="-2.3777">
        <ele>2.8</ele>
        <time>2018-09-21T13:26:49.000Z</time>
      </trkpt>
      <trkpt lat="46.73226" lon="-2.37772">
        <ele>2.8</ele>
        <time>2018-09-21T13:26:50.000Z</time>
      </trkpt>
      <trkpt lat="46.73226" lon="-2.37773">
        <ele>2.8</ele>
        <time>2018-09-21T13:26:51.000Z</time>
      </trkpt>
      <trkpt lat="46.73226" lon="-2.37774">
        <ele>2.9</ele>
        <time>2018-09-21T13:26:52.000Z</time>
      </trkpt>
      <trkpt lat="46.73225" lon="-2.37775">
        <ele>2.9</ele>
        <time>2018-09-21T13:26:53.000Z</time>
      </trkpt>
      <trkpt lat="46.73225" lon="-2.37776">
        <ele>2.9</ele>
        <time>2018-09-21T13:26:54.000Z</time>
      </trkpt>
      <trkpt lat="46.73225" lon="-2.37777">
        <ele>3</ele>
        <time>2018-09-21T13:26:55.000Z</time>
      </trkpt>
      <trkpt lat="46.73225" lon="-2.37779">
        <ele>3</ele>
        <time>2018-09-21T13:26:56.000Z</time>
      </trkpt>
      <trkpt lat="46.73225" lon="-2.3778">
        <ele>3</ele>
        <time>2018-09-21T13:26:57.000Z</time>
      </trkpt>
      <trkpt lat="46.73224" lon="-2.37781">
        <ele>3.1</ele>
        <time>2018-09-21T13:26:58.000Z</time>
      </trkpt>
      <trkpt lat="46.73224" lon="-2.37782">
        <ele>3.1</ele>
        <time>2018-09-21T13:26:59.000Z</time>
      </trkpt>
      <trkpt lat="46.73224" lon="-2.37783">
        <ele>3.1</ele>
        <time>2018-09-21T13:27:00.000Z</time>
      </trkpt>
      <trkpt lat="46.73224" lon="-2.37784">
        <ele>3.1</ele>
        <time>2018-09-21T13:27:01.000Z</time>
      </trkpt>
      <trkpt lat="46.73224" lon="-2.37785">
        <ele>3.1</ele>
        <time>2018-09-21T13:27:02.000Z</time>
      </trkpt>
      <trkpt lat="46.73224" lon="-2.37786">
        <ele>3.2</ele>
        <time>2018-09-21T13:27:03.000Z</time>
      </trkpt>
      <trkpt lat="46.73224" lon="-2.37787">
        <ele>3.2</ele>
        <time>2018-09-21T13:27:04.000Z</time>
      </trkpt>
      <trkpt lat="46.73224" lon="-2.37788">
        <ele>3.2</ele>
        <time>2018-09-21T13:27:05.000Z</time>
      </trkpt>
      <trkpt lat="46.73224" lon="-2.3779">
        <ele>3.2</ele>
        <time>2018-09-21T13:27:06.000Z</time>
      </trkpt>
      <trkpt lat="46.73224" lon="-2.37791">
        <ele>3.2</ele>
        <time>2018-09-21T13:27:07.000Z</time>
      </trkpt>
      <trkpt lat="46.73225" lon="-2.37792">
        <ele>3.2</ele>
        <time>2018-09-21T13:27:08.000Z</time>
      </trkpt>
      <trkpt lat="46.73225" lon="-2.37794">
        <ele>3.2</ele>
        <time>2018-09-21T13:27:09.000Z</time>
      </trkpt>
      <trkpt lat="46.73225" lon="-2.37795">
        <ele>3.3</ele>
        <time>2018-09-21T13:27:10.000Z</time>
      </trkpt>
      <trkpt lat="46.73225" lon="-2.37796">
        <ele>3.3</ele>
        <time>2018-09-21T13:27:11.000Z</time>
      </trkpt>
      <trkpt lat="46.73225" lon="-2.37798">
        <ele>3.3</ele>
        <time>2018-09-21T13:27:12.000Z</time>
      </trkpt>
      <trkpt lat="46.73226" lon="-2.37799">
        <ele>3.3</ele>
        <time>2018-09-21T13:27:13.000Z</time>
      </trkpt>
      <trkpt lat="46.73226" lon="-2.37801">
        <ele>3.3</ele>
        <time>2018-09-21T13:27:14.000Z</time>
      </trkpt>
      <trkpt lat="46.73226" lon="-2.37802">
        <ele>3.3</ele>
        <time>2018-09-21T13:27:15.000Z</time>
      </trkpt>
      <trkpt lat="46.73226" lon="-2.37804">
        <ele>3.4</ele>
        <time>2018-09-21T13:27:16.000Z</time>
      </trkpt>
      <trkpt lat="46.73226" lon="-2.37805">
        <ele>3.4</ele>
        <time>2018-09-21T13:27:17.000Z</time>
      </trkpt>
      <trkpt lat="46.73226" lon="-2.37806">
        <ele>3.4</ele>
        <time>2018-09-21T13:27:18.000Z</time>
      </trkpt>
      <trkpt lat="46.73226" lon="-2.37807">
        <ele>3.4</ele>
        <time>2018-09-21T13:27:19.000Z</time>
      </trkpt>
      <trkpt lat="46.73226" lon="-2.37808">
        <ele>3.4</ele>
        <time>2018-09-21T13:27:20.000Z</time>
      </trkpt>
      <trkpt lat="46.73226" lon="-2.37809">
        <ele>3.4</ele>
        <time>2018-09-21T13:27:21.000Z</time>
      </trkpt>
      <trkpt lat="46.73226" lon="-2.37809">
        <ele>3.5</ele>
        <time>2018-09-21T13:27:22.000Z</time>
      </trkpt>
      <trkpt lat="46.73226" lon="-2.3781">
        <ele>3.5</ele>
        <time>2018-09-21T13:27:23.000Z</time>
      </trkpt>
      <trkpt lat="46.73227" lon="-2.37811">
        <ele>3.5</ele>
        <time>2018-09-21T13:27:24.000Z</time>
      </trkpt>
      <trkpt lat="46.73227" lon="-2.37812">
        <ele>3.5</ele>
        <time>2018-09-21T13:27:25.000Z</time>
      </trkpt>
      <trkpt lat="46.73228" lon="-2.37813">
        <ele>3.5</ele>
        <time>2018-09-21T13:27:26.000Z</time>
      </trkpt>
      <trkpt lat="46.73228" lon="-2.37814">
        <ele>3.5</ele>
        <time>2018-09-21T13:27:27.000Z</time>
      </trkpt>
      <trkpt lat="46.73229" lon="-2.37816">
        <ele>3.4</ele>
        <time>2018-09-21T13:27:28.000Z</time>
      </trkpt>
      <trkpt lat="46.73229" lon="-2.37817">
        <ele>3.4</ele>
        <time>2018-09-21T13:27:29.000Z</time>
      </trkpt>
      <trkpt lat="46.7323" lon="-2.37818">
        <ele>3.4</ele>
        <time>2018-09-21T13:27:30.000Z</time>
      </trkpt>
      <trkpt lat="46.73231" lon="-2.3782">
        <ele>3.5</ele>
        <time>2018-09-21T13:27:31.000Z</time>
      </trkpt>
      <trkpt lat="46.73231" lon="-2.37821">
        <ele>3.5</ele>
        <time>2018-09-21T13:27:32.000Z</time>
      </trkpt>
      <trkpt lat="46.73232" lon="-2.37823">
        <ele>3.5</ele>
        <time>2018-09-21T13:27:33.000Z</time>
      </trkpt>
      <trkpt lat="46.73232" lon="-2.37824">
        <ele>3.5</ele>
        <time>2018-09-21T13:27:34.000Z</time>
      </trkpt>
      <trkpt lat="46.73232" lon="-2.37826">
        <ele>3.5</ele>
        <time>2018-09-21T13:27:35.000Z</time>
      </trkpt>
      <trkpt lat="46.73233" lon="-2.37827">
        <ele>3.5</ele>
        <time>2018-09-21T13:27:36.000Z</time>
      </trkpt>
      <trkpt lat="46.73233" lon="-2.37829">
        <ele>3.5</ele>
        <time>2018-09-21T13:27:37.000Z</time>
      </trkpt>
      <trkpt lat="46.73233" lon="-2.37831">
        <ele>3.6</ele>
        <time>2018-09-21T13:27:38.000Z</time>
      </trkpt>
      <trkpt lat="46.73233" lon="-2.37832">
        <ele>3.6</ele>
        <time>2018-09-21T13:27:39.000Z</time>
      </trkpt>
      <trkpt lat="46.73233" lon="-2.37834">
        <ele>3.6</ele>
        <time>2018-09-21T13:27:40.000Z</time>
      </trkpt>
      <trkpt lat="46.73233" lon="-2.37835">
        <ele>3.6</ele>
        <time>2018-09-21T13:27:41.000Z</time>
      </trkpt>
      <trkpt lat="46.73233" lon="-2.37837">
        <ele>3.6</ele>
        <time>2018-09-21T13:27:42.000Z</time>
      </trkpt>
      <trkpt lat="46.73233" lon="-2.37838">
        <ele>3.6</ele>
        <time>2018-09-21T13:27:43.000Z</time>
      </trkpt>
      <trkpt lat="46.73233" lon="-2.3784">
        <ele>3.6</ele>
        <time>2018-09-21T13:27:44.000Z</time>
      </trkpt>
      <trkpt lat="46.73233" lon="-2.37841">
        <ele>3.6</ele>
        <time>2018-09-21T13:27:45.000Z</time>
      </trkpt>
      <trkpt lat="46.73233" lon="-2.37843">
        <ele>3.6</ele>
        <time>2018-09-21T13:27:46.000Z</time>
      </trkpt>
      <trkpt lat="46.73233" lon="-2.37844">
        <ele>3.6</ele>
        <time>2018-09-21T13:27:47.000Z</time>
      </trkpt>
      <trkpt lat="46.73233" lon="-2.37846">
        <ele>3.6</ele>
        <time>2018-09-21T13:27:48.000Z</time>
      </trkpt>
      <trkpt lat="46.73234" lon="-2.37847">
        <ele>3.6</ele>
        <time>2018-09-21T13:27:49.000Z</time>
      </trkpt>
      <trkpt lat="46.73234" lon="-2.37848">
        <ele>3.6</ele>
        <time>2018-09-21T13:27:50.000Z</time>
      </trkpt>
      <trkpt lat="46.73234" lon="-2.3785">
        <ele>3.6</ele>
        <time>2018-09-21T13:27:51.000Z</time>
      </trkpt>
      <trkpt lat="46.73235" lon="-2.37851">
        <ele>3.6</ele>
        <time>2018-09-21T13:27:52.000Z</time>
      </trkpt>
      <trkpt lat="46.73235" lon="-2.37852">
        <ele>3.5</ele>
        <time>2018-09-21T13:27:53.000Z</time>
      </trkpt>
      <trkpt lat="46.73235" lon="-2.37854">
        <ele>3.5</ele>
        <time>2018-09-21T13:27:54.000Z</time>
      </trkpt>
      <trkpt lat="46.73236" lon="-2.37855">
        <ele>3.5</ele>
        <time>2018-09-21T13:27:55.000Z</time>
      </trkpt>
      <trkpt lat="46.73236" lon="-2.37857">
        <ele>3.5</ele>
        <time>2018-09-21T13:27:56.000Z</time>
      </trkpt>
      <trkpt lat="46.73236" lon="-2.37858">
        <ele>3.5</ele>
        <time>2018-09-21T13:27:57.000Z</time>
      </trkpt>
      <trkpt lat="46.73237" lon="-2.37859">
        <ele>3.5</ele>
        <time>2018-09-21T13:27:58.000Z</time>
      </trkpt>
      <trkpt lat="46.73237" lon="-2.37861">
        <ele>3.5</ele>
        <time>2018-09-21T13:27:59.000Z</time>
      </trkpt>
      <trkpt lat="46.73237" lon="-2.37862">
        <ele>3.5</ele>
        <time>2018-09-21T13:28:00.000Z</time>
      </trkpt>
      <trkpt lat="46.73238" lon="-2.37864">
        <ele>3.4</ele>
        <time>2018-09-21T13:28:01.000Z</time>
      </trkpt>
      <trkpt lat="46.73238" lon="-2.37865">
        <ele>3.4</ele>
        <time>2018-09-21T13:28:02.000Z</time>
      </trkpt>
      <trkpt lat="46.73238" lon="-2.37866">
        <ele>3.4</ele>
        <time>2018-09-21T13:28:03.000Z</time>
      </trkpt>
      <trkpt lat="46.73239" lon="-2.37868">
        <ele>3.4</ele>
        <time>2018-09-21T13:28:04.000Z</time>
      </trkpt>
      <trkpt lat="46.73239" lon="-2.37869">
        <ele>3.4</ele>
        <time>2018-09-21T13:28:05.000Z</time>
      </trkpt>
      <trkpt lat="46.73239" lon="-2.3787">
        <ele>3.4</ele>
        <time>2018-09-21T13:28:06.000Z</time>
      </trkpt>
      <trkpt lat="46.7324" lon="-2.37872">
        <ele>3.4</ele>
        <time>2018-09-21T13:28:07.000Z</time>
      </trkpt>
      <trkpt lat="46.7324" lon="-2.37873">
        <ele>3.4</ele>
        <time>2018-09-21T13:28:08.000Z</time>
      </trkpt>
      <trkpt lat="46.73241" lon="-2.37874">
        <ele>3.3</ele>
        <time>2018-09-21T13:28:09.000Z</time>
      </trkpt>
      <trkpt lat="46.73241" lon="-2.37875">
        <ele>3.3</ele>
        <time>2018-09-21T13:28:10.000Z</time>
      </trkpt>
      <trkpt lat="46.73241" lon="-2.37876">
        <ele>3.3</ele>
        <time>2018-09-21T13:28:11.000Z</time>
      </trkpt>
      <trkpt lat="46.73242" lon="-2.37877">
        <ele>3.3</ele>
        <time>2018-09-21T13:28:12.000Z</time>
      </trkpt>
      <trkpt lat="46.73242" lon="-2.37879">
        <ele>3.3</ele>
        <time>2018-09-21T13:28:13.000Z</time>
      </trkpt>
      <trkpt lat="46.73242" lon="-2.3788">
        <ele>3.3</ele>
        <time>2018-09-21T13:28:14.000Z</time>
      </trkpt>
      <trkpt lat="46.73242" lon="-2.37881">
        <ele>3.3</ele>
        <time>2018-09-21T13:28:15.000Z</time>
      </trkpt>
      <trkpt lat="46.73242" lon="-2.37882">
        <ele>3.3</ele>
        <time>2018-09-21T13:28:16.000Z</time>
      </trkpt>
      <trkpt lat="46.73242" lon="-2.37884">
        <ele>3.3</ele>
        <time>2018-09-21T13:28:17.000Z</time>
      </trkpt>
      <trkpt lat="46.73242" lon="-2.37885">
        <ele>3.3</ele>
        <time>2018-09-21T13:28:18.000Z</time>
      </trkpt>
      <trkpt lat="46.73242" lon="-2.37886">
        <ele>3.3</ele>
        <time>2018-09-21T13:28:19.000Z</time>
      </trkpt>
      <trkpt lat="46.73242" lon="-2.37888">
        <ele>3.3</ele>
        <time>2018-09-21T13:28:20.000Z</time>
      </trkpt>
      <trkpt lat="46.73242" lon="-2.37889">
        <ele>3.3</ele>
        <time>2018-09-21T13:28:21.000Z</time>
      </trkpt>
      <trkpt lat="46.73242" lon="-2.37891">
        <ele>3.3</ele>
        <time>2018-09-21T13:28:22.000Z</time>
      </trkpt>
      <trkpt lat="46.73241" lon="-2.37892">
        <ele>3.3</ele>
        <time>2018-09-21T13:28:23.000Z</time>
      </trkpt>
      <trkpt lat="46.73241" lon="-2.37893">
        <ele>3.3</ele>
        <time>2018-09-21T13:28:24.000Z</time>
      </trkpt>
      <trkpt lat="46.73241" lon="-2.37895">
        <ele>3.3</ele>
        <time>2018-09-21T13:28:25.000Z</time>
      </trkpt>
      <trkpt lat="46.73241" lon="-2.37896">
        <ele>3.3</ele>
        <time>2018-09-21T13:28:26.000Z</time>
      </trkpt>
      <trkpt lat="46.73241" lon="-2.37897">
        <ele>3.3</ele>
        <time>2018-09-21T13:28:27.000Z</time>
      </trkpt>
      <trkpt lat="46.73241" lon="-2.37899">
        <ele>3.3</ele>
        <time>2018-09-21T13:28:28.000Z</time>
      </trkpt>
      <trkpt lat="46.73241" lon="-2.379">
        <ele>3.3</ele>
        <time>2018-09-21T13:28:29.000Z</time>
      </trkpt>
      <trkpt lat="46.73241" lon="-2.37901">
        <ele>3.3</ele>
        <time>2018-09-21T13:28:30.000Z</time>
      </trkpt>
      <trkpt lat="46.73241" lon="-2.37903">
        <ele>3.3</ele>
        <time>2018-09-21T13:28:31.000Z</time>
      </trkpt>
      <trkpt lat="46.7324" lon="-2.37904">
        <ele>3.3</ele>
        <time>2018-09-21T13:28:32.000Z</time>
      </trkpt>
      <trkpt lat="46.7324" lon="-2.37905">
        <ele>3.3</ele>
        <time>2018-09-21T13:28:33.000Z</time>
      </trkpt>
      <trkpt lat="46.7324" lon="-2.37906">
        <ele>3.4</ele>
        <time>2018-09-21T13:28:34.000Z</time>
      </trkpt>
      <trkpt lat="46.7324" lon="-2.37908">
        <ele>3.4</ele>
        <time>2018-09-21T13:28:35.000Z</time>
      </trkpt>
      <trkpt lat="46.7324" lon="-2.37909">
        <ele>3.4</ele>
        <time>2018-09-21T13:28:36.000Z</time>
      </trkpt>
      <trkpt lat="46.7324" lon="-2.3791">
        <ele>3.4</ele>
        <time>2018-09-21T13:28:37.000Z</time>
      </trkpt>
      <trkpt lat="46.7324" lon="-2.37911">
        <ele>3.4</ele>
        <time>2018-09-21T13:28:38.000Z</time>
      </trkpt>
      <trkpt lat="46.7324" lon="-2.37913">
        <ele>3.4</ele>
        <time>2018-09-21T13:28:39.000Z</time>
      </trkpt>
      <trkpt lat="46.73239" lon="-2.37914">
        <ele>3.4</ele>
        <time>2018-09-21T13:28:40.000Z</time>
      </trkpt>
      <trkpt lat="46.73239" lon="-2.37915">
        <ele>3.4</ele>
        <time>2018-09-21T13:28:41.000Z</time>
      </trkpt>
      <trkpt lat="46.73239" lon="-2.37916">
        <ele>3.4</ele>
        <time>2018-09-21T13:28:42.000Z</time>
      </trkpt>
      <trkpt lat="46.73239" lon="-2.37918">
        <ele>3.4</ele>
        <time>2018-09-21T13:28:43.000Z</time>
      </trkpt>
      <trkpt lat="46.73239" lon="-2.37919">
        <ele>3.4</ele>
        <time>2018-09-21T13:28:44.000Z</time>
      </trkpt>
      <trkpt lat="46.73239" lon="-2.3792">
        <ele>3.5</ele>
        <time>2018-09-21T13:28:45.000Z</time>
      </trkpt>
      <trkpt lat="46.73239" lon="-2.37922">
        <ele>3.5</ele>
        <time>2018-09-21T13:28:46.000Z</time>
      </trkpt>
      <trkpt lat="46.73239" lon="-2.37923">
        <ele>3.5</ele>
        <time>2018-09-21T13:28:47.000Z</time>
      </trkpt>
      <trkpt lat="46.73239" lon="-2.37924">
        <ele>3.5</ele>
        <time>2018-09-21T13:28:48.000Z</time>
      </trkpt>
      <trkpt lat="46.73238" lon="-2.37926">
        <ele>3.5</ele>
        <time>2018-09-21T13:28:49.000Z</time>
      </trkpt>
      <trkpt lat="46.73238" lon="-2.37927">
        <ele>3.5</ele>
        <time>2018-09-21T13:28:50.000Z</time>
      </trkpt>
      <trkpt lat="46.73239" lon="-2.37929">
        <ele>3.6</ele>
        <time>2018-09-21T13:28:51.000Z</time>
      </trkpt>
      <trkpt lat="46.73239" lon="-2.3793">
        <ele>3.6</ele>
        <time>2018-09-21T13:28:52.000Z</time>
      </trkpt>
      <trkpt lat="46.73239" lon="-2.37932">
        <ele>3.6</ele>
        <time>2018-09-21T13:28:53.000Z</time>
      </trkpt>
      <trkpt lat="46.73239" lon="-2.37933">
        <ele>3.6</ele>
        <time>2018-09-21T13:28:54.000Z</time>
      </trkpt>
      <trkpt lat="46.73239" lon="-2.37935">
        <ele>3.6</ele>
        <time>2018-09-21T13:28:55.000Z</time>
      </trkpt>
      <trkpt lat="46.73239" lon="-2.37936">
        <ele>3.6</ele>
        <time>2018-09-21T13:28:56.000Z</time>
      </trkpt>
      <trkpt lat="46.73239" lon="-2.37938">
        <ele>3.6</ele>
        <time>2018-09-21T13:28:57.000Z</time>
      </trkpt>
      <trkpt lat="46.7324" lon="-2.37939">
        <ele>3.6</ele>
        <time>2018-09-21T13:28:58.000Z</time>
      </trkpt>
      <trkpt lat="46.7324" lon="-2.37941">
        <ele>3.7</ele>
        <time>2018-09-21T13:28:59.000Z</time>
      </trkpt>
      <trkpt lat="46.7324" lon="-2.37943">
        <ele>3.7</ele>
        <time>2018-09-21T13:29:00.000Z</time>
      </trkpt>
      <trkpt lat="46.7324" lon="-2.37944">
        <ele>3.7</ele>
        <time>2018-09-21T13:29:01.000Z</time>
      </trkpt>
      <trkpt lat="46.73241" lon="-2.37946">
        <ele>3.7</ele>
        <time>2018-09-21T13:29:02.000Z</time>
      </trkpt>
      <trkpt lat="46.73241" lon="-2.37947">
        <ele>3.7</ele>
        <time>2018-09-21T13:29:03.000Z</time>
      </trkpt>
      <trkpt lat="46.73241" lon="-2.37949">
        <ele>3.7</ele>
        <time>2018-09-21T13:29:04.000Z</time>
      </trkpt>
      <trkpt lat="46.73242" lon="-2.3795">
        <ele>3.7</ele>
        <time>2018-09-21T13:29:05.000Z</time>
      </trkpt>
      <trkpt lat="46.73242" lon="-2.37951">
        <ele>3.7</ele>
        <time>2018-09-21T13:29:06.000Z</time>
      </trkpt>
      <trkpt lat="46.73242" lon="-2.37953">
        <ele>3.7</ele>
        <time>2018-09-21T13:29:07.000Z</time>
      </trkpt>
      <trkpt lat="46.73243" lon="-2.37954">
        <ele>3.7</ele>
        <time>2018-09-21T13:29:08.000Z</time>
      </trkpt>
      <trkpt lat="46.73243" lon="-2.37955">
        <ele>3.7</ele>
        <time>2018-09-21T13:29:09.000Z</time>
      </trkpt>
      <trkpt lat="46.73243" lon="-2.37957">
        <ele>3.7</ele>
        <time>2018-09-21T13:29:10.000Z</time>
      </trkpt>
      <trkpt lat="46.73244" lon="-2.37958">
        <ele>3.7</ele>
        <time>2018-09-21T13:29:11.000Z</time>
      </trkpt>
      <trkpt lat="46.73244" lon="-2.37959">
        <ele>3.7</ele>
        <time>2018-09-21T13:29:12.000Z</time>
      </trkpt>
      <trkpt lat="46.73245" lon="-2.3796">
        <ele>3.7</ele>
        <time>2018-09-21T13:29:13.000Z</time>
      </trkpt>
      <trkpt lat="46.73245" lon="-2.37961">
        <ele>3.7</ele>
        <time>2018-09-21T13:29:14.000Z</time>
      </trkpt>
      <trkpt lat="46.73245" lon="-2.37962">
        <ele>3.7</ele>
        <time>2018-09-21T13:29:15.000Z</time>
      </trkpt>
      <trkpt lat="46.73246" lon="-2.37963">
        <ele>3.7</ele>
        <time>2018-09-21T13:29:16.000Z</time>
      </trkpt>
      <trkpt lat="46.73246" lon="-2.37965">
        <ele>3.7</ele>
        <time>2018-09-21T13:29:17.000Z</time>
      </trkpt>
      <trkpt lat="46.73246" lon="-2.37966">
        <ele>3.7</ele>
        <time>2018-09-21T13:29:18.000Z</time>
      </trkpt>
      <trkpt lat="46.73246" lon="-2.37968">
        <ele>3.7</ele>
        <time>2018-09-21T13:29:19.000Z</time>
      </trkpt>
      <trkpt lat="46.73247" lon="-2.37969">
        <ele>3.8</ele>
        <time>2018-09-21T13:29:20.000Z</time>
      </trkpt>
      <trkpt lat="46.73247" lon="-2.37971">
        <ele>3.8</ele>
        <time>2018-09-21T13:29:21.000Z</time>
      </trkpt>
      <trkpt lat="46.73247" lon="-2.37972">
        <ele>3.8</ele>
        <time>2018-09-21T13:29:22.000Z</time>
      </trkpt>
      <trkpt lat="46.73247" lon="-2.37974">
        <ele>3.8</ele>
        <time>2018-09-21T13:29:23.000Z</time>
      </trkpt>
      <trkpt lat="46.73248" lon="-2.37975">
        <ele>3.8</ele>
        <time>2018-09-21T13:29:24.000Z</time>
      </trkpt>
      <trkpt lat="46.73248" lon="-2.37977">
        <ele>3.8</ele>
        <time>2018-09-21T13:29:25.000Z</time>
      </trkpt>
      <trkpt lat="46.73248" lon="-2.37978">
        <ele>3.8</ele>
        <time>2018-09-21T13:29:26.000Z</time>
      </trkpt>
      <trkpt lat="46.73248" lon="-2.37979">
        <ele>3.8</ele>
        <time>2018-09-21T13:29:27.000Z</time>
      </trkpt>
      <trkpt lat="46.73248" lon="-2.37981">
        <ele>3.8</ele>
        <time>2018-09-21T13:29:28.000Z</time>
      </trkpt>
      <trkpt lat="46.73249" lon="-2.37982">
        <ele>3.8</ele>
        <time>2018-09-21T13:29:29.000Z</time>
      </trkpt>
      <trkpt lat="46.73249" lon="-2.37983">
        <ele>3.8</ele>
        <time>2018-09-21T13:29:30.000Z</time>
      </trkpt>
      <trkpt lat="46.73249" lon="-2.37984">
        <ele>3.8</ele>
        <time>2018-09-21T13:29:31.000Z</time>
      </trkpt>
      <trkpt lat="46.73249" lon="-2.37985">
        <ele>3.8</ele>
        <time>2018-09-21T13:29:32.000Z</time>
      </trkpt>
      <trkpt lat="46.7325" lon="-2.37986">
        <ele>3.9</ele>
        <time>2018-09-21T13:29:33.000Z</time>
      </trkpt>
      <trkpt lat="46.7325" lon="-2.37987">
        <ele>3.9</ele>
        <time>2018-09-21T13:29:34.000Z</time>
      </trkpt>
      <trkpt lat="46.7325" lon="-2.37988">
        <ele>4</ele>
        <time>2018-09-21T13:29:35.000Z</time>
      </trkpt>
      <trkpt lat="46.7325" lon="-2.3799">
        <ele>4</ele>
        <time>2018-09-21T13:29:36.000Z</time>
      </trkpt>
      <trkpt lat="46.73251" lon="-2.37991">
        <ele>4</ele>
        <time>2018-09-21T13:29:37.000Z</time>
      </trkpt>
      <trkpt lat="46.73251" lon="-2.37992">
        <ele>4</ele>
        <time>2018-09-21T13:29:38.000Z</time>
      </trkpt>
      <trkpt lat="46.73251" lon="-2.37993">
        <ele>4</ele>
        <time>2018-09-21T13:29:39.000Z</time>
      </trkpt>
      <trkpt lat="46.73251" lon="-2.37994">
        <ele>4</ele>
        <time>2018-09-21T13:29:40.000Z</time>
      </trkpt>
      <trkpt lat="46.73251" lon="-2.37996">
        <ele>4</ele>
        <time>2018-09-21T13:29:41.000Z</time>
      </trkpt>
      <trkpt lat="46.73252" lon="-2.37997">
        <ele>4</ele>
        <time>2018-09-21T13:29:42.000Z</time>
      </trkpt>
      <trkpt lat="46.73252" lon="-2.37998">
        <ele>4</ele>
        <time>2018-09-21T13:29:43.000Z</time>
      </trkpt>
      <trkpt lat="46.73252" lon="-2.38">
        <ele>4</ele>
        <time>2018-09-21T13:29:44.000Z</time>
      </trkpt>
      <trkpt lat="46.73252" lon="-2.38001">
        <ele>3.9</ele>
        <time>2018-09-21T13:29:45.000Z</time>
      </trkpt>
      <trkpt lat="46.73252" lon="-2.38002">
        <ele>3.9</ele>
        <time>2018-09-21T13:29:46.000Z</time>
      </trkpt>
      <trkpt lat="46.73252" lon="-2.38003">
        <ele>3.9</ele>
        <time>2018-09-21T13:29:47.000Z</time>
      </trkpt>
      <trkpt lat="46.73252" lon="-2.38004">
        <ele>3.9</ele>
        <time>2018-09-21T13:29:48.000Z</time>
      </trkpt>
      <trkpt lat="46.73252" lon="-2.38004">
        <ele>3.9</ele>
        <time>2018-09-21T13:29:49.000Z</time>
      </trkpt>
      <trkpt lat="46.73252" lon="-2.38004">
        <ele>3.9</ele>
        <time>2018-09-21T13:29:50.000Z</time>
      </trkpt>
      <trkpt lat="46.73252" lon="-2.38004">
        <ele>3.9</ele>
        <time>2018-09-21T13:29:51.000Z</time>
      </trkpt>
      <trkpt lat="46.73252" lon="-2.38004">
        <ele>3.9</ele>
        <time>2018-09-21T13:29:52.000Z</time>
      </trkpt>
      <trkpt lat="46.73252" lon="-2.38004">
        <ele>3.9</ele>
        <time>2018-09-21T13:29:53.000Z</time>
      </trkpt>
      <trkpt lat="46.73252" lon="-2.38004">
        <ele>3.9</ele>
        <time>2018-09-21T13:29:54.000Z</time>
      </trkpt>
      <trkpt lat="46.73253" lon="-2.38005">
        <ele>3.9</ele>
        <time>2018-09-21T13:29:55.000Z</time>
      </trkpt>
      <trkpt lat="46.73253" lon="-2.38005">
        <ele>3.9</ele>
        <time>2018-09-21T13:29:56.000Z</time>
      </trkpt>
      <trkpt lat="46.73253" lon="-2.38006">
        <ele>3.8</ele>
        <time>2018-09-21T13:29:57.000Z</time>
      </trkpt>
      <trkpt lat="46.73254" lon="-2.38007">
        <ele>3.8</ele>
        <time>2018-09-21T13:29:58.000Z</time>
      </trkpt>
      <trkpt lat="46.73254" lon="-2.38008">
        <ele>3.8</ele>
        <time>2018-09-21T13:29:59.000Z</time>
      </trkpt>
      <trkpt lat="46.73255" lon="-2.38009">
        <ele>3.8</ele>
        <time>2018-09-21T13:30:00.000Z</time>
      </trkpt>
      <trkpt lat="46.73255" lon="-2.3801">
        <ele>3.8</ele>
        <time>2018-09-21T13:30:01.000Z</time>
      </trkpt>
      <trkpt lat="46.73256" lon="-2.38011">
        <ele>3.7</ele>
        <time>2018-09-21T13:30:02.000Z</time>
      </trkpt>
      <trkpt lat="46.73256" lon="-2.38012">
        <ele>3.7</ele>
        <time>2018-09-21T13:30:03.000Z</time>
      </trkpt>
      <trkpt lat="46.73257" lon="-2.38013">
        <ele>3.7</ele>
        <time>2018-09-21T13:30:04.000Z</time>
      </trkpt>
      <trkpt lat="46.73257" lon="-2.38014">
        <ele>3.7</ele>
        <time>2018-09-21T13:30:05.000Z</time>
      </trkpt>
      <trkpt lat="46.73257" lon="-2.38015">
        <ele>3.7</ele>
        <time>2018-09-21T13:30:06.000Z</time>
      </trkpt>
      <trkpt lat="46.73258" lon="-2.38016">
        <ele>3.7</ele>
        <time>2018-09-21T13:30:07.000Z</time>
      </trkpt>
      <trkpt lat="46.73258" lon="-2.38017">
        <ele>3.6</ele>
        <time>2018-09-21T13:30:08.000Z</time>
      </trkpt>
      <trkpt lat="46.73259" lon="-2.38019">
        <ele>3.6</ele>
        <time>2018-09-21T13:30:09.000Z</time>
      </trkpt>
      <trkpt lat="46.73259" lon="-2.3802">
        <ele>3.6</ele>
        <time>2018-09-21T13:30:10.000Z</time>
      </trkpt>
      <trkpt lat="46.7326" lon="-2.38021">
        <ele>3.6</ele>
        <time>2018-09-21T13:30:11.000Z</time>
      </trkpt>
      <trkpt lat="46.7326" lon="-2.38022">
        <ele>3.6</ele>
        <time>2018-09-21T13:30:12.000Z</time>
      </trkpt>
      <trkpt lat="46.7326" lon="-2.38023">
        <ele>3.6</ele>
        <time>2018-09-21T13:30:13.000Z</time>
      </trkpt>
      <trkpt lat="46.73261" lon="-2.38024">
        <ele>3.6</ele>
        <time>2018-09-21T13:30:14.000Z</time>
      </trkpt>
      <trkpt lat="46.73261" lon="-2.38025">
        <ele>3.5</ele>
        <time>2018-09-21T13:30:15.000Z</time>
      </trkpt>
      <trkpt lat="46.73262" lon="-2.38026">
        <ele>3.5</ele>
        <time>2018-09-21T13:30:16.000Z</time>
      </trkpt>
      <trkpt lat="46.73262" lon="-2.38027">
        <ele>3.5</ele>
        <time>2018-09-21T13:30:17.000Z</time>
      </trkpt>
      <trkpt lat="46.73263" lon="-2.38029">
        <ele>3.5</ele>
        <time>2018-09-21T13:30:18.000Z</time>
      </trkpt>
      <trkpt lat="46.73263" lon="-2.3803">
        <ele>3.5</ele>
        <time>2018-09-21T13:30:19.000Z</time>
      </trkpt>
      <trkpt lat="46.73264" lon="-2.38031">
        <ele>3.5</ele>
        <time>2018-09-21T13:30:20.000Z</time>
      </trkpt>
      <trkpt lat="46.73264" lon="-2.38032">
        <ele>3.5</ele>
        <time>2018-09-21T13:30:21.000Z</time>
      </trkpt>
      <trkpt lat="46.73264" lon="-2.38033">
        <ele>3.4</ele>
        <time>2018-09-21T13:30:22.000Z</time>
      </trkpt>
      <trkpt lat="46.73265" lon="-2.38034">
        <ele>3.4</ele>
        <time>2018-09-21T13:30:23.000Z</time>
      </trkpt>
      <trkpt lat="46.73265" lon="-2.38035">
        <ele>3.4</ele>
        <time>2018-09-21T13:30:24.000Z</time>
      </trkpt>
      <trkpt lat="46.73266" lon="-2.38036">
        <ele>3.4</ele>
        <time>2018-09-21T13:30:25.000Z</time>
      </trkpt>
      <trkpt lat="46.73266" lon="-2.38037">
        <ele>3.4</ele>
        <time>2018-09-21T13:30:26.000Z</time>
      </trkpt>
      <trkpt lat="46.73267" lon="-2.38038">
        <ele>3.4</ele>
        <time>2018-09-21T13:30:27.000Z</time>
      </trkpt>
      <trkpt lat="46.73268" lon="-2.38039">
        <ele>3.4</ele>
        <time>2018-09-21T13:30:28.000Z</time>
      </trkpt>
      <trkpt lat="46.73268" lon="-2.3804">
        <ele>3.3</ele>
        <time>2018-09-21T13:30:29.000Z</time>
      </trkpt>
      <trkpt lat="46.73269" lon="-2.38041">
        <ele>3.3</ele>
        <time>2018-09-21T13:30:30.000Z</time>
      </trkpt>
      <trkpt lat="46.73269" lon="-2.38042">
        <ele>3.3</ele>
        <time>2018-09-21T13:30:31.000Z</time>
      </trkpt>
      <trkpt lat="46.7327" lon="-2.38043">
        <ele>3.3</ele>
        <time>2018-09-21T13:30:32.000Z</time>
      </trkpt>
      <trkpt lat="46.7327" lon="-2.38044">
        <ele>3.3</ele>
        <time>2018-09-21T13:30:33.000Z</time>
      </trkpt>
      <trkpt lat="46.73271" lon="-2.38045">
        <ele>3.3</ele>
        <time>2018-09-21T13:30:34.000Z</time>
      </trkpt>
      <trkpt lat="46.73272" lon="-2.38047">
        <ele>3.3</ele>
        <time>2018-09-21T13:30:35.000Z</time>
      </trkpt>
      <trkpt lat="46.73272" lon="-2.38048">
        <ele>3.2</ele>
        <time>2018-09-21T13:30:36.000Z</time>
      </trkpt>
      <trkpt lat="46.73273" lon="-2.38049">
        <ele>3.2</ele>
        <time>2018-09-21T13:30:37.000Z</time>
      </trkpt>
      <trkpt lat="46.73273" lon="-2.3805">
        <ele>3.2</ele>
        <time>2018-09-21T13:30:38.000Z</time>
      </trkpt>
      <trkpt lat="46.73274" lon="-2.38051">
        <ele>3.2</ele>
        <time>2018-09-21T13:30:39.000Z</time>
      </trkpt>
      <trkpt lat="46.73275" lon="-2.38053">
        <ele>3.2</ele>
        <time>2018-09-21T13:30:40.000Z</time>
      </trkpt>
      <trkpt lat="46.73275" lon="-2.38054">
        <ele>3.2</ele>
        <time>2018-09-21T13:30:41.000Z</time>
      </trkpt>
      <trkpt lat="46.73276" lon="-2.38055">
        <ele>3.2</ele>
        <time>2018-09-21T13:30:42.000Z</time>
      </trkpt>
      <trkpt lat="46.73277" lon="-2.38056">
        <ele>3.2</ele>
        <time>2018-09-21T13:30:43.000Z</time>
      </trkpt>
      <trkpt lat="46.73277" lon="-2.38057">
        <ele>3.1</ele>
        <time>2018-09-21T13:30:44.000Z</time>
      </trkpt>
      <trkpt lat="46.73278" lon="-2.38059">
        <ele>3.1</ele>
        <time>2018-09-21T13:30:45.000Z</time>
      </trkpt>
      <trkpt lat="46.73279" lon="-2.3806">
        <ele>3.1</ele>
        <time>2018-09-21T13:30:46.000Z</time>
      </trkpt>
      <trkpt lat="46.73279" lon="-2.38061">
        <ele>3.1</ele>
        <time>2018-09-21T13:30:47.000Z</time>
      </trkpt>
      <trkpt lat="46.7328" lon="-2.38062">
        <ele>3.1</ele>
        <time>2018-09-21T13:30:48.000Z</time>
      </trkpt>
      <trkpt lat="46.73281" lon="-2.38063">
        <ele>3.1</ele>
        <time>2018-09-21T13:30:49.000Z</time>
      </trkpt>
      <trkpt lat="46.73281" lon="-2.38064">
        <ele>3.1</ele>
        <time>2018-09-21T13:30:50.000Z</time>
      </trkpt>
      <trkpt lat="46.73282" lon="-2.38065">
        <ele>3.1</ele>
        <time>2018-09-21T13:30:51.000Z</time>
      </trkpt>
      <trkpt lat="46.73283" lon="-2.38067">
        <ele>3.1</ele>
        <time>2018-09-21T13:30:52.000Z</time>
      </trkpt>
      <trkpt lat="46.73283" lon="-2.38068">
        <ele>3</ele>
        <time>2018-09-21T13:30:53.000Z</time>
      </trkpt>
      <trkpt lat="46.73284" lon="-2.38069">
        <ele>3</ele>
        <time>2018-09-21T13:30:54.000Z</time>
      </trkpt>
      <trkpt lat="46.73285" lon="-2.3807">
        <ele>3</ele>
        <time>2018-09-21T13:30:55.000Z</time>
      </trkpt>
      <trkpt lat="46.73285" lon="-2.38071">
        <ele>3</ele>
        <time>2018-09-21T13:30:56.000Z</time>
      </trkpt>
      <trkpt lat="46.73286" lon="-2.38072">
        <ele>3</ele>
        <time>2018-09-21T13:30:57.000Z</time>
      </trkpt>
      <trkpt lat="46.73287" lon="-2.38074">
        <ele>3</ele>
        <time>2018-09-21T13:30:58.000Z</time>
      </trkpt>
      <trkpt lat="46.73287" lon="-2.38075">
        <ele>3</ele>
        <time>2018-09-21T13:30:59.000Z</time>
      </trkpt>
      <trkpt lat="46.73288" lon="-2.38076">
        <ele>3</ele>
        <time>2018-09-21T13:31:00.000Z</time>
      </trkpt>
      <trkpt lat="46.73288" lon="-2.38078">
        <ele>3</ele>
        <time>2018-09-21T13:31:01.000Z</time>
      </trkpt>
      <trkpt lat="46.73289" lon="-2.38079">
        <ele>3</ele>
        <time>2018-09-21T13:31:02.000Z</time>
      </trkpt>
      <trkpt lat="46.7329" lon="-2.3808">
        <ele>3</ele>
        <time>2018-09-21T13:31:03.000Z</time>
      </trkpt>
      <trkpt lat="46.7329" lon="-2.38082">
        <ele>3</ele>
        <time>2018-09-21T13:31:04.000Z</time>
      </trkpt>
      <trkpt lat="46.73291" lon="-2.38083">
        <ele>3</ele>
        <time>2018-09-21T13:31:05.000Z</time>
      </trkpt>
      <trkpt lat="46.73291" lon="-2.38084">
        <ele>3</ele>
        <time>2018-09-21T13:31:06.000Z</time>
      </trkpt>
      <trkpt lat="46.73292" lon="-2.38086">
        <ele>3</ele>
        <time>2018-09-21T13:31:07.000Z</time>
      </trkpt>
      <trkpt lat="46.73292" lon="-2.38087">
        <ele>3</ele>
        <time>2018-09-21T13:31:08.000Z</time>
      </trkpt>
      <trkpt lat="46.73293" lon="-2.38088">
        <ele>3</ele>
        <time>2018-09-21T13:31:09.000Z</time>
      </trkpt>
      <trkpt lat="46.73293" lon="-2.3809">
        <ele>3</ele>
        <time>2018-09-21T13:31:10.000Z</time>
      </trkpt>
      <trkpt lat="46.73294" lon="-2.38091">
        <ele>3</ele>
        <time>2018-09-21T13:31:11.000Z</time>
      </trkpt>
      <trkpt lat="46.73295" lon="-2.38092">
        <ele>3</ele>
        <time>2018-09-21T13:31:12.000Z</time>
      </trkpt>
      <trkpt lat="46.73295" lon="-2.38093">
        <ele>3</ele>
        <time>2018-09-21T13:31:13.000Z</time>
      </trkpt>
      <trkpt lat="46.73296" lon="-2.38094">
        <ele>3</ele>
        <time>2018-09-21T13:31:14.000Z</time>
      </trkpt>
      <trkpt lat="46.73296" lon="-2.38096">
        <ele>3</ele>
        <time>2018-09-21T13:31:15.000Z</time>
      </trkpt>
      <trkpt lat="46.73297" lon="-2.38097">
        <ele>3</ele>
        <time>2018-09-21T13:31:16.000Z</time>
      </trkpt>
      <trkpt lat="46.73297" lon="-2.38098">
        <ele>3</ele>
        <time>2018-09-21T13:31:17.000Z</time>
      </trkpt>
      <trkpt lat="46.73298" lon="-2.38099">
        <ele>3</ele>
        <time>2018-09-21T13:31:18.000Z</time>
      </trkpt>
      <trkpt lat="46.73299" lon="-2.381">
        <ele>3</ele>
        <time>2018-09-21T13:31:19.000Z</time>
      </trkpt>
      <trkpt lat="46.73299" lon="-2.38102">
        <ele>3</ele>
        <time>2018-09-21T13:31:20.000Z</time>
      </trkpt>
      <trkpt lat="46.733" lon="-2.38103">
        <ele>3</ele>
        <time>2018-09-21T13:31:21.000Z</time>
      </trkpt>
      <trkpt lat="46.73301" lon="-2.38104">
        <ele>3</ele>
        <time>2018-09-21T13:31:22.000Z</time>
      </trkpt>
      <trkpt lat="46.73301" lon="-2.38105">
        <ele>3</ele>
        <time>2018-09-21T13:31:23.000Z</time>
      </trkpt>
      <trkpt lat="46.73302" lon="-2.38107">
        <ele>3</ele>
        <time>2018-09-21T13:31:24.000Z</time>
      </trkpt>
      <trkpt lat="46.73303" lon="-2.38108">
        <ele>3</ele>
        <time>2018-09-21T13:31:25.000Z</time>
      </trkpt>
      <trkpt lat="46.73303" lon="-2.38109">
        <ele>3</ele>
        <time>2018-09-21T13:31:26.000Z</time>
      </trkpt>
      <trkpt lat="46.73304" lon="-2.3811">
        <ele>3</ele>
        <time>2018-09-21T13:31:27.000Z</time>
      </trkpt>
      <trkpt lat="46.73305" lon="-2.38112">
        <ele>3</ele>
        <time>2018-09-21T13:31:28.000Z</time>
      </trkpt>
      <trkpt lat="46.73306" lon="-2.38113">
        <ele>3</ele>
        <time>2018-09-21T13:31:29.000Z</time>
      </trkpt>
      <trkpt lat="46.73306" lon="-2.38114">
        <ele>3</ele>
        <time>2018-09-21T13:31:30.000Z</time>
      </trkpt>
      <trkpt lat="46.73307" lon="-2.38115">
        <ele>3</ele>
        <time>2018-09-21T13:31:31.000Z</time>
      </trkpt>
      <trkpt lat="46.73308" lon="-2.38117">
        <ele>3</ele>
        <time>2018-09-21T13:31:32.000Z</time>
      </trkpt>
      <trkpt lat="46.73308" lon="-2.38118">
        <ele>3</ele>
        <time>2018-09-21T13:31:33.000Z</time>
      </trkpt>
      <trkpt lat="46.73309" lon="-2.38119">
        <ele>3</ele>
        <time>2018-09-21T13:31:34.000Z</time>
      </trkpt>
      <trkpt lat="46.7331" lon="-2.38119">
        <ele>3</ele>
        <time>2018-09-21T13:31:35.000Z</time>
      </trkpt>
      <trkpt lat="46.7331" lon="-2.3812">
        <ele>3</ele>
        <time>2018-09-21T13:31:36.000Z</time>
      </trkpt>
      <trkpt lat="46.73311" lon="-2.38121">
        <ele>3</ele>
        <time>2018-09-21T13:31:37.000Z</time>
      </trkpt>
      <trkpt lat="46.73312" lon="-2.38122">
        <ele>3</ele>
        <time>2018-09-21T13:31:38.000Z</time>
      </trkpt>
      <trkpt lat="46.73312" lon="-2.38123">
        <ele>3</ele>
        <time>2018-09-21T13:31:39.000Z</time>
      </trkpt>
      <trkpt lat="46.73313" lon="-2.38124">
        <ele>3</ele>
        <time>2018-09-21T13:31:40.000Z</time>
      </trkpt>
      <trkpt lat="46.73313" lon="-2.38125">
        <ele>3</ele>
        <time>2018-09-21T13:31:41.000Z</time>
      </trkpt>
      <trkpt lat="46.73314" lon="-2.38126">
        <ele>3</ele>
        <time>2018-09-21T13:31:42.000Z</time>
      </trkpt>
      <trkpt lat="46.73314" lon="-2.38127">
        <ele>3</ele>
        <time>2018-09-21T13:31:43.000Z</time>
      </trkpt>
      <trkpt lat="46.73315" lon="-2.38129">
        <ele>3</ele>
        <time>2018-09-21T13:31:44.000Z</time>
      </trkpt>
      <trkpt lat="46.73315" lon="-2.38131">
        <ele>3</ele>
        <time>2018-09-21T13:31:45.000Z</time>
      </trkpt>
      <trkpt lat="46.73315" lon="-2.38132">
        <ele>3</ele>
        <time>2018-09-21T13:31:46.000Z</time>
      </trkpt>
      <trkpt lat="46.73316" lon="-2.38134">
        <ele>3</ele>
        <time>2018-09-21T13:31:47.000Z</time>
      </trkpt>
      <trkpt lat="46.73316" lon="-2.38136">
        <ele>3</ele>
        <time>2018-09-21T13:31:48.000Z</time>
      </trkpt>
      <trkpt lat="46.73316" lon="-2.38137">
        <ele>3.1</ele>
        <time>2018-09-21T13:31:49.000Z</time>
      </trkpt>
      <trkpt lat="46.73317" lon="-2.38139">
        <ele>3.1</ele>
        <time>2018-09-21T13:31:50.000Z</time>
      </trkpt>
      <trkpt lat="46.73317" lon="-2.3814">
        <ele>3.1</ele>
        <time>2018-09-21T13:31:51.000Z</time>
      </trkpt>
      <trkpt lat="46.73318" lon="-2.38141">
        <ele>3.1</ele>
        <time>2018-09-21T13:31:52.000Z</time>
      </trkpt>
      <trkpt lat="46.73318" lon="-2.38143">
        <ele>3.1</ele>
        <time>2018-09-21T13:31:53.000Z</time>
      </trkpt>
      <trkpt lat="46.73319" lon="-2.38144">
        <ele>3.1</ele>
        <time>2018-09-21T13:31:54.000Z</time>
      </trkpt>
      <trkpt lat="46.73319" lon="-2.38145">
        <ele>3.1</ele>
        <time>2018-09-21T13:31:55.000Z</time>
      </trkpt>
      <trkpt lat="46.73319" lon="-2.38147">
        <ele>3.1</ele>
        <time>2018-09-21T13:31:56.000Z</time>
      </trkpt>
      <trkpt lat="46.7332" lon="-2.38148">
        <ele>3.1</ele>
        <time>2018-09-21T13:31:57.000Z</time>
      </trkpt>
      <trkpt lat="46.7332" lon="-2.3815">
        <ele>3.1</ele>
        <time>2018-09-21T13:31:58.000Z</time>
      </trkpt>
      <trkpt lat="46.7332" lon="-2.38151">
        <ele>3.1</ele>
        <time>2018-09-21T13:31:59.000Z</time>
      </trkpt>
      <trkpt lat="46.73321" lon="-2.38153">
        <ele>3.1</ele>
        <time>2018-09-21T13:32:00.000Z</time>
      </trkpt>
      <trkpt lat="46.73321" lon="-2.38155">
        <ele>3.2</ele>
        <time>2018-09-21T13:32:01.000Z</time>
      </trkpt>
      <trkpt lat="46.73321" lon="-2.38156">
        <ele>3.2</ele>
        <time>2018-09-21T13:32:02.000Z</time>
      </trkpt>
      <trkpt lat="46.73322" lon="-2.38158">
        <ele>3.2</ele>
        <time>2018-09-21T13:32:03.000Z</time>
      </trkpt>
      <trkpt lat="46.73322" lon="-2.38159">
        <ele>3.2</ele>
        <time>2018-09-21T13:32:04.000Z</time>
      </trkpt>
      <trkpt lat="46.73322" lon="-2.38161">
        <ele>3.2</ele>
        <time>2018-09-21T13:32:05.000Z</time>
      </trkpt>
      <trkpt lat="46.73322" lon="-2.38162">
        <ele>3.2</ele>
        <time>2018-09-21T13:32:06.000Z</time>
      </trkpt>
      <trkpt lat="46.73322" lon="-2.38164">
        <ele>3.2</ele>
        <time>2018-09-21T13:32:07.000Z</time>
      </trkpt>
      <trkpt lat="46.73322" lon="-2.38165">
        <ele>3.3</ele>
        <time>2018-09-21T13:32:08.000Z</time>
      </trkpt>
      <trkpt lat="46.73322" lon="-2.38166">
        <ele>3.3</ele>
        <time>2018-09-21T13:32:09.000Z</time>
      </trkpt>
      <trkpt lat="46.73322" lon="-2.38168">
        <ele>3.3</ele>
        <time>2018-09-21T13:32:10.000Z</time>
      </trkpt>
      <trkpt lat="46.73322" lon="-2.38169">
        <ele>3.3</ele>
        <time>2018-09-21T13:32:11.000Z</time>
      </trkpt>
      <trkpt lat="46.73321" lon="-2.38171">
        <ele>3.2</ele>
        <time>2018-09-21T13:32:12.000Z</time>
      </trkpt>
      <trkpt lat="46.73321" lon="-2.38172">
        <ele>3.2</ele>
        <time>2018-09-21T13:32:13.000Z</time>
      </trkpt>
      <trkpt lat="46.73321" lon="-2.38173">
        <ele>3.2</ele>
        <time>2018-09-21T13:32:14.000Z</time>
      </trkpt>
      <trkpt lat="46.73321" lon="-2.38174">
        <ele>3.2</ele>
        <time>2018-09-21T13:32:15.000Z</time>
      </trkpt>
      <trkpt lat="46.7332" lon="-2.38176">
        <ele>3.2</ele>
        <time>2018-09-21T13:32:16.000Z</time>
      </trkpt>
      <trkpt lat="46.7332" lon="-2.38177">
        <ele>3.2</ele>
        <time>2018-09-21T13:32:17.000Z</time>
      </trkpt>
      <trkpt lat="46.7332" lon="-2.38178">
        <ele>3.2</ele>
        <time>2018-09-21T13:32:18.000Z</time>
      </trkpt>
      <trkpt lat="46.73319" lon="-2.38179">
        <ele>3.2</ele>
        <time>2018-09-21T13:32:19.000Z</time>
      </trkpt>
      <trkpt lat="46.73319" lon="-2.38181">
        <ele>3.2</ele>
        <time>2018-09-21T13:32:20.000Z</time>
      </trkpt>
      <trkpt lat="46.73319" lon="-2.38182">
        <ele>3.2</ele>
        <time>2018-09-21T13:32:21.000Z</time>
      </trkpt>
      <trkpt lat="46.73318" lon="-2.38183">
        <ele>3.2</ele>
        <time>2018-09-21T13:32:22.000Z</time>
      </trkpt>
      <trkpt lat="46.73318" lon="-2.38184">
        <ele>3.2</ele>
        <time>2018-09-21T13:32:23.000Z</time>
      </trkpt>
      <trkpt lat="46.73318" lon="-2.38185">
        <ele>3.2</ele>
        <time>2018-09-21T13:32:24.000Z</time>
      </trkpt>
      <trkpt lat="46.73317" lon="-2.38187">
        <ele>3.2</ele>
        <time>2018-09-21T13:32:25.000Z</time>
      </trkpt>
      <trkpt lat="46.73317" lon="-2.38188">
        <ele>3.2</ele>
        <time>2018-09-21T13:32:26.000Z</time>
      </trkpt>
      <trkpt lat="46.73316" lon="-2.38189">
        <ele>3.1</ele>
        <time>2018-09-21T13:32:27.000Z</time>
      </trkpt>
      <trkpt lat="46.73316" lon="-2.3819">
        <ele>3.1</ele>
        <time>2018-09-21T13:32:28.000Z</time>
      </trkpt>
      <trkpt lat="46.73315" lon="-2.38191">
        <ele>3.1</ele>
        <time>2018-09-21T13:32:29.000Z</time>
      </trkpt>
      <trkpt lat="46.73315" lon="-2.38192">
        <ele>3.1</ele>
        <time>2018-09-21T13:32:30.000Z</time>
      </trkpt>
      <trkpt lat="46.73314" lon="-2.38193">
        <ele>3.1</ele>
        <time>2018-09-21T13:32:31.000Z</time>
      </trkpt>
      <trkpt lat="46.73314" lon="-2.38194">
        <ele>3.1</ele>
        <time>2018-09-21T13:32:32.000Z</time>
      </trkpt>
      <trkpt lat="46.73313" lon="-2.38195">
        <ele>3.1</ele>
        <time>2018-09-21T13:32:33.000Z</time>
      </trkpt>
      <trkpt lat="46.73312" lon="-2.38196">
        <ele>3.2</ele>
        <time>2018-09-21T13:32:34.000Z</time>
      </trkpt>
      <trkpt lat="46.73312" lon="-2.38197">
        <ele>3.2</ele>
        <time>2018-09-21T13:32:35.000Z</time>
      </trkpt>
      <trkpt lat="46.73311" lon="-2.38198">
        <ele>3.2</ele>
        <time>2018-09-21T13:32:36.000Z</time>
      </trkpt>
      <trkpt lat="46.7331" lon="-2.38199">
        <ele>3.2</ele>
        <time>2018-09-21T13:32:37.000Z</time>
      </trkpt>
      <trkpt lat="46.7331" lon="-2.382">
        <ele>3.2</ele>
        <time>2018-09-21T13:32:38.000Z</time>
      </trkpt>
      <trkpt lat="46.73309" lon="-2.38201">
        <ele>3.2</ele>
        <time>2018-09-21T13:32:39.000Z</time>
      </trkpt>
      <trkpt lat="46.73308" lon="-2.38202">
        <ele>3.2</ele>
        <time>2018-09-21T13:32:40.000Z</time>
      </trkpt>
      <trkpt lat="46.73308" lon="-2.38203">
        <ele>3.2</ele>
        <time>2018-09-21T13:32:41.000Z</time>
      </trkpt>
      <trkpt lat="46.73307" lon="-2.38204">
        <ele>3.2</ele>
        <time>2018-09-21T13:32:42.000Z</time>
      </trkpt>
      <trkpt lat="46.73306" lon="-2.38205">
        <ele>3.2</ele>
        <time>2018-09-21T13:32:43.000Z</time>
      </trkpt>
      <trkpt lat="46.73305" lon="-2.38206">
        <ele>3.2</ele>
        <time>2018-09-21T13:32:44.000Z</time>
      </trkpt>
      <trkpt lat="46.73304" lon="-2.38207">
        <ele>3.2</ele>
        <time>2018-09-21T13:32:45.000Z</time>
      </trkpt>
      <trkpt lat="46.73304" lon="-2.38208">
        <ele>3.2</ele>
        <time>2018-09-21T13:32:46.000Z</time>
      </trkpt>
      <trkpt lat="46.73303" lon="-2.38209">
        <ele>3.2</ele>
        <time>2018-09-21T13:32:47.000Z</time>
      </trkpt>
      <trkpt lat="46.73302" lon="-2.3821">
        <ele>3.2</ele>
        <time>2018-09-21T13:32:48.000Z</time>
      </trkpt>
      <trkpt lat="46.73302" lon="-2.38211">
        <ele>3.2</ele>
        <time>2018-09-21T13:32:49.000Z</time>
      </trkpt>
      <trkpt lat="46.73301" lon="-2.38212">
        <ele>3.2</ele>
        <time>2018-09-21T13:32:50.000Z</time>
      </trkpt>
      <trkpt lat="46.733" lon="-2.38213">
        <ele>3.2</ele>
        <time>2018-09-21T13:32:51.000Z</time>
      </trkpt>
      <trkpt lat="46.733" lon="-2.38213">
        <ele>3.2</ele>
        <time>2018-09-21T13:32:52.000Z</time>
      </trkpt>
      <trkpt lat="46.73299" lon="-2.38214">
        <ele>3.2</ele>
        <time>2018-09-21T13:32:53.000Z</time>
      </trkpt>
      <trkpt lat="46.73299" lon="-2.38215">
        <ele>3.2</ele>
        <time>2018-09-21T13:32:54.000Z</time>
      </trkpt>
      <trkpt lat="46.73299" lon="-2.38215">
        <ele>3.2</ele>
        <time>2018-09-21T13:32:55.000Z</time>
      </trkpt>
      <trkpt lat="46.73299" lon="-2.38216">
        <ele>3.2</ele>
        <time>2018-09-21T13:32:56.000Z</time>
      </trkpt>
      <trkpt lat="46.73298" lon="-2.38216">
        <ele>3.2</ele>
        <time>2018-09-21T13:32:57.000Z</time>
      </trkpt>
      <trkpt lat="46.73298" lon="-2.38216">
        <ele>3.2</ele>
        <time>2018-09-21T13:32:58.000Z</time>
      </trkpt>
      <trkpt lat="46.73298" lon="-2.38217">
        <ele>3.2</ele>
        <time>2018-09-21T13:32:59.000Z</time>
      </trkpt>
      <trkpt lat="46.73298" lon="-2.38217">
        <ele>3.3</ele>
        <time>2018-09-21T13:33:00.000Z</time>
      </trkpt>
      <trkpt lat="46.73297" lon="-2.38218">
        <ele>3.3</ele>
        <time>2018-09-21T13:33:01.000Z</time>
      </trkpt>
      <trkpt lat="46.73296" lon="-2.38219">
        <ele>3.3</ele>
        <time>2018-09-21T13:33:02.000Z</time>
      </trkpt>
      <trkpt lat="46.73295" lon="-2.3822">
        <ele>3.3</ele>
        <time>2018-09-21T13:33:03.000Z</time>
      </trkpt>
      <trkpt lat="46.73294" lon="-2.3822">
        <ele>3.3</ele>
        <time>2018-09-21T13:33:04.000Z</time>
      </trkpt>
      <trkpt lat="46.73294" lon="-2.38221">
        <ele>3.3</ele>
        <time>2018-09-21T13:33:05.000Z</time>
      </trkpt>
      <trkpt lat="46.73292" lon="-2.38222">
        <ele>3.3</ele>
        <time>2018-09-21T13:33:06.000Z</time>
      </trkpt>
      <trkpt lat="46.73291" lon="-2.38223">
        <ele>3.3</ele>
        <time>2018-09-21T13:33:07.000Z</time>
      </trkpt>
      <trkpt lat="46.7329" lon="-2.38224">
        <ele>3.3</ele>
        <time>2018-09-21T13:33:08.000Z</time>
      </trkpt>
      <trkpt lat="46.73289" lon="-2.38225">
        <ele>3.3</ele>
        <time>2018-09-21T13:33:09.000Z</time>
      </trkpt>
      <trkpt lat="46.73289" lon="-2.38226">
        <ele>3.4</ele>
        <time>2018-09-21T13:33:10.000Z</time>
      </trkpt>
      <trkpt lat="46.73288" lon="-2.38227">
        <ele>3.4</ele>
        <time>2018-09-21T13:33:11.000Z</time>
      </trkpt>
      <trkpt lat="46.73287" lon="-2.38228">
        <ele>3.4</ele>
        <time>2018-09-21T13:33:12.000Z</time>
      </trkpt>
      <trkpt lat="46.73286" lon="-2.38229">
        <ele>3.4</ele>
        <time>2018-09-21T13:33:13.000Z</time>
      </trkpt>
      <trkpt lat="46.73285" lon="-2.3823">
        <ele>3.4</ele>
        <time>2018-09-21T13:33:14.000Z</time>
      </trkpt>
      <trkpt lat="46.73285" lon="-2.38232">
        <ele>3.4</ele>
        <time>2018-09-21T13:33:15.000Z</time>
      </trkpt>
      <trkpt lat="46.73284" lon="-2.38233">
        <ele>3.4</ele>
        <time>2018-09-21T13:33:16.000Z</time>
      </trkpt>
      <trkpt lat="46.73283" lon="-2.38234">
        <ele>3.4</ele>
        <time>2018-09-21T13:33:17.000Z</time>
      </trkpt>
      <trkpt lat="46.73283" lon="-2.38235">
        <ele>3.4</ele>
        <time>2018-09-21T13:33:18.000Z</time>
      </trkpt>
      <trkpt lat="46.73282" lon="-2.38236">
        <ele>3.4</ele>
        <time>2018-09-21T13:33:19.000Z</time>
      </trkpt>
      <trkpt lat="46.73281" lon="-2.38238">
        <ele>3.4</ele>
        <time>2018-09-21T13:33:20.000Z</time>
      </trkpt>
      <trkpt lat="46.7328" lon="-2.38239">
        <ele>3.4</ele>
        <time>2018-09-21T13:33:21.000Z</time>
      </trkpt>
      <trkpt lat="46.7328" lon="-2.3824">
        <ele>3.4</ele>
        <time>2018-09-21T13:33:22.000Z</time>
      </trkpt>
      <trkpt lat="46.73279" lon="-2.38242">
        <ele>3.4</ele>
        <time>2018-09-21T13:33:23.000Z</time>
      </trkpt>
      <trkpt lat="46.73278" lon="-2.38243">
        <ele>3.4</ele>
        <time>2018-09-21T13:33:24.000Z</time>
      </trkpt>
      <trkpt lat="46.73277" lon="-2.38244">
        <ele>3.4</ele>
        <time>2018-09-21T13:33:25.000Z</time>
      </trkpt>
      <trkpt lat="46.73276" lon="-2.38245">
        <ele>3.4</ele>
        <time>2018-09-21T13:33:26.000Z</time>
      </trkpt>
      <trkpt lat="46.73276" lon="-2.38246">
        <ele>3.4</ele>
        <time>2018-09-21T13:33:27.000Z</time>
      </trkpt>
      <trkpt lat="46.73275" lon="-2.38248">
        <ele>3.4</ele>
        <time>2018-09-21T13:33:28.000Z</time>
      </trkpt>
      <trkpt lat="46.73274" lon="-2.38248">
        <ele>3.4</ele>
        <time>2018-09-21T13:33:29.000Z</time>
      </trkpt>
      <trkpt lat="46.73273" lon="-2.38249">
        <ele>3.5</ele>
        <time>2018-09-21T13:33:30.000Z</time>
      </trkpt>
      <trkpt lat="46.73272" lon="-2.3825">
        <ele>3.5</ele>
        <time>2018-09-21T13:33:31.000Z</time>
      </trkpt>
      <trkpt lat="46.73272" lon="-2.38251">
        <ele>3.4</ele>
        <time>2018-09-21T13:33:32.000Z</time>
      </trkpt>
      <trkpt lat="46.73271" lon="-2.38252">
        <ele>3.4</ele>
        <time>2018-09-21T13:33:33.000Z</time>
      </trkpt>
      <trkpt lat="46.7327" lon="-2.38253">
        <ele>3.4</ele>
        <time>2018-09-21T13:33:34.000Z</time>
      </trkpt>
      <trkpt lat="46.7327" lon="-2.38254">
        <ele>3.3</ele>
        <time>2018-09-21T13:33:35.000Z</time>
      </trkpt>
      <trkpt lat="46.73269" lon="-2.38255">
        <ele>3.3</ele>
        <time>2018-09-21T13:33:36.000Z</time>
      </trkpt>
      <trkpt lat="46.73269" lon="-2.38256">
        <ele>3.3</ele>
        <time>2018-09-21T13:33:37.000Z</time>
      </trkpt>
      <trkpt lat="46.73268" lon="-2.38257">
        <ele>3.2</ele>
        <time>2018-09-21T13:33:38.000Z</time>
      </trkpt>
      <trkpt lat="46.73267" lon="-2.38258">
        <ele>3.2</ele>
        <time>2018-09-21T13:33:39.000Z</time>
      </trkpt>
      <trkpt lat="46.73267" lon="-2.38259">
        <ele>3.2</ele>
        <time>2018-09-21T13:33:40.000Z</time>
      </trkpt>
      <trkpt lat="46.73266" lon="-2.3826">
        <ele>3.2</ele>
        <time>2018-09-21T13:33:41.000Z</time>
      </trkpt>
      <trkpt lat="46.73266" lon="-2.3826">
        <ele>3.2</ele>
        <time>2018-09-21T13:33:42.000Z</time>
      </trkpt>
      <trkpt lat="46.73265" lon="-2.38261">
        <ele>3.1</ele>
        <time>2018-09-21T13:33:43.000Z</time>
      </trkpt>
      <trkpt lat="46.73264" lon="-2.38261">
        <ele>3.1</ele>
        <time>2018-09-21T13:33:44.000Z</time>
      </trkpt>
      <trkpt lat="46.73264" lon="-2.38262">
        <ele>3.1</ele>
        <time>2018-09-21T13:33:45.000Z</time>
      </trkpt>
      <trkpt lat="46.73263" lon="-2.38262">
        <ele>3.1</ele>
        <time>2018-09-21T13:33:46.000Z</time>
      </trkpt>
      <trkpt lat="46.73262" lon="-2.38262">
        <ele>3.1</ele>
        <time>2018-09-21T13:33:47.000Z</time>
      </trkpt>
      <trkpt lat="46.73261" lon="-2.38262">
        <ele>3.2</ele>
        <time>2018-09-21T13:33:48.000Z</time>
      </trkpt>
      <trkpt lat="46.7326" lon="-2.38262">
        <ele>3.2</ele>
        <time>2018-09-21T13:33:49.000Z</time>
      </trkpt>
      <trkpt lat="46.73259" lon="-2.38262">
        <ele>3.2</ele>
        <time>2018-09-21T13:33:50.000Z</time>
      </trkpt>
      <trkpt lat="46.73258" lon="-2.38262">
        <ele>3.2</ele>
        <time>2018-09-21T13:33:51.000Z</time>
      </trkpt>
      <trkpt lat="46.73257" lon="-2.38262">
        <ele>3.3</ele>
        <time>2018-09-21T13:33:52.000Z</time>
      </trkpt>
      <trkpt lat="46.73256" lon="-2.38262">
        <ele>3.3</ele>
        <time>2018-09-21T13:33:53.000Z</time>
      </trkpt>
      <trkpt lat="46.73255" lon="-2.38262">
        <ele>3.3</ele>
        <time>2018-09-21T13:33:54.000Z</time>
      </trkpt>
      <trkpt lat="46.73254" lon="-2.38262">
        <ele>3.3</ele>
        <time>2018-09-21T13:33:55.000Z</time>
      </trkpt>
      <trkpt lat="46.73252" lon="-2.38262">
        <ele>3.4</ele>
        <time>2018-09-21T13:33:56.000Z</time>
      </trkpt>
      <trkpt lat="46.73251" lon="-2.38262">
        <ele>3.4</ele>
        <time>2018-09-21T13:33:57.000Z</time>
      </trkpt>
      <trkpt lat="46.7325" lon="-2.38263">
        <ele>3.4</ele>
        <time>2018-09-21T13:33:58.000Z</time>
      </trkpt>
      <trkpt lat="46.73249" lon="-2.38263">
        <ele>3.4</ele>
        <time>2018-09-21T13:33:59.000Z</time>
      </trkpt>
      <trkpt lat="46.73248" lon="-2.38263">
        <ele>3.4</ele>
        <time>2018-09-21T13:34:00.000Z</time>
      </trkpt>
      <trkpt lat="46.73247" lon="-2.38264">
        <ele>3.4</ele>
        <time>2018-09-21T13:34:01.000Z</time>
      </trkpt>
      <trkpt lat="46.73246" lon="-2.38264">
        <ele>3.4</ele>
        <time>2018-09-21T13:34:02.000Z</time>
      </trkpt>
      <trkpt lat="46.73245" lon="-2.38264">
        <ele>3.5</ele>
        <time>2018-09-21T13:34:03.000Z</time>
      </trkpt>
      <trkpt lat="46.73244" lon="-2.38265">
        <ele>3.5</ele>
        <time>2018-09-21T13:34:04.000Z</time>
      </trkpt>
      <trkpt lat="46.73243" lon="-2.38265">
        <ele>3.5</ele>
        <time>2018-09-21T13:34:05.000Z</time>
      </trkpt>
      <trkpt lat="46.73242" lon="-2.38266">
        <ele>3.5</ele>
        <time>2018-09-21T13:34:06.000Z</time>
      </trkpt>
      <trkpt lat="46.73241" lon="-2.38266">
        <ele>3.5</ele>
        <time>2018-09-21T13:34:07.000Z</time>
      </trkpt>
      <trkpt lat="46.7324" lon="-2.38267">
        <ele>3.5</ele>
        <time>2018-09-21T13:34:08.000Z</time>
      </trkpt>
      <trkpt lat="46.73239" lon="-2.38268">
        <ele>3.5</ele>
        <time>2018-09-21T13:34:09.000Z</time>
      </trkpt>
      <trkpt lat="46.73238" lon="-2.38268">
        <ele>3.5</ele>
        <time>2018-09-21T13:34:10.000Z</time>
      </trkpt>
      <trkpt lat="46.73237" lon="-2.38269">
        <ele>3.5</ele>
        <time>2018-09-21T13:34:11.000Z</time>
      </trkpt>
      <trkpt lat="46.73236" lon="-2.38269">
        <ele>3.5</ele>
        <time>2018-09-21T13:34:12.000Z</time>
      </trkpt>
      <trkpt lat="46.73235" lon="-2.3827">
        <ele>3.5</ele>
        <time>2018-09-21T13:34:13.000Z</time>
      </trkpt>
      <trkpt lat="46.73234" lon="-2.38271">
        <ele>3.5</ele>
        <time>2018-09-21T13:34:14.000Z</time>
      </trkpt>
      <trkpt lat="46.73234" lon="-2.38272">
        <ele>3.5</ele>
        <time>2018-09-21T13:34:15.000Z</time>
      </trkpt>
      <trkpt lat="46.73233" lon="-2.38272">
        <ele>3.5</ele>
        <time>2018-09-21T13:34:16.000Z</time>
      </trkpt>
      <trkpt lat="46.73232" lon="-2.38273">
        <ele>3.4</ele>
        <time>2018-09-21T13:34:17.000Z</time>
      </trkpt>
      <trkpt lat="46.73231" lon="-2.38274">
        <ele>3.4</ele>
        <time>2018-09-21T13:34:18.000Z</time>
      </trkpt>
      <trkpt lat="46.7323" lon="-2.38275">
        <ele>3.4</ele>
        <time>2018-09-21T13:34:19.000Z</time>
      </trkpt>
      <trkpt lat="46.7323" lon="-2.38276">
        <ele>3.4</ele>
        <time>2018-09-21T13:34:20.000Z</time>
      </trkpt>
      <trkpt lat="46.73229" lon="-2.38277">
        <ele>3.4</ele>
        <time>2018-09-21T13:34:21.000Z</time>
      </trkpt>
      <trkpt lat="46.73228" lon="-2.38277">
        <ele>3.4</ele>
        <time>2018-09-21T13:34:22.000Z</time>
      </trkpt>
      <trkpt lat="46.73228" lon="-2.38278">
        <ele>3.4</ele>
        <time>2018-09-21T13:34:23.000Z</time>
      </trkpt>
      <trkpt lat="46.73227" lon="-2.38279">
        <ele>3.4</ele>
        <time>2018-09-21T13:34:24.000Z</time>
      </trkpt>
      <trkpt lat="46.73226" lon="-2.3828">
        <ele>3.4</ele>
        <time>2018-09-21T13:34:25.000Z</time>
      </trkpt>
      <trkpt lat="46.73225" lon="-2.3828">
        <ele>3.4</ele>
        <time>2018-09-21T13:34:26.000Z</time>
      </trkpt>
      <trkpt lat="46.73224" lon="-2.38281">
        <ele>3.4</ele>
        <time>2018-09-21T13:34:27.000Z</time>
      </trkpt>
      <trkpt lat="46.73223" lon="-2.38281">
        <ele>3.4</ele>
        <time>2018-09-21T13:34:28.000Z</time>
      </trkpt>
      <trkpt lat="46.73222" lon="-2.38282">
        <ele>3.4</ele>
        <time>2018-09-21T13:34:29.000Z</time>
      </trkpt>
      <trkpt lat="46.73221" lon="-2.38282">
        <ele>3.4</ele>
        <time>2018-09-21T13:34:30.000Z</time>
      </trkpt>
      <trkpt lat="46.7322" lon="-2.38283">
        <ele>3.4</ele>
        <time>2018-09-21T13:34:31.000Z</time>
      </trkpt>
      <trkpt lat="46.73219" lon="-2.38283">
        <ele>3.4</ele>
        <time>2018-09-21T13:34:32.000Z</time>
      </trkpt>
      <trkpt lat="46.73218" lon="-2.38283">
        <ele>3.5</ele>
        <time>2018-09-21T13:34:33.000Z</time>
      </trkpt>
      <trkpt lat="46.73217" lon="-2.38284">
        <ele>3.5</ele>
        <time>2018-09-21T13:34:34.000Z</time>
      </trkpt>
      <trkpt lat="46.73217" lon="-2.38284">
        <ele>3.5</ele>
        <time>2018-09-21T13:34:35.000Z</time>
      </trkpt>
      <trkpt lat="46.73216" lon="-2.38284">
        <ele>3.5</ele>
        <time>2018-09-21T13:34:36.000Z</time>
      </trkpt>
      <trkpt lat="46.73215" lon="-2.38284">
        <ele>3.5</ele>
        <time>2018-09-21T13:34:37.000Z</time>
      </trkpt>
      <trkpt lat="46.73214" lon="-2.38285">
        <ele>3.6</ele>
        <time>2018-09-21T13:34:38.000Z</time>
      </trkpt>
      <trkpt lat="46.73213" lon="-2.38285">
        <ele>3.6</ele>
        <time>2018-09-21T13:34:39.000Z</time>
      </trkpt>
      <trkpt lat="46.73212" lon="-2.38285">
        <ele>3.6</ele>
        <time>2018-09-21T13:34:40.000Z</time>
      </trkpt>
      <trkpt lat="46.73211" lon="-2.38286">
        <ele>3.6</ele>
        <time>2018-09-21T13:34:41.000Z</time>
      </trkpt>
      <trkpt lat="46.7321" lon="-2.38286">
        <ele>3.7</ele>
        <time>2018-09-21T13:34:42.000Z</time>
      </trkpt>
      <trkpt lat="46.73209" lon="-2.38286">
        <ele>3.7</ele>
        <time>2018-09-21T13:34:43.000Z</time>
      </trkpt>
      <trkpt lat="46.73208" lon="-2.38287">
        <ele>3.7</ele>
        <time>2018-09-21T13:34:44.000Z</time>
      </trkpt>
      <trkpt lat="46.73207" lon="-2.38288">
        <ele>3.7</ele>
        <time>2018-09-21T13:34:45.000Z</time>
      </trkpt>
      <trkpt lat="46.73206" lon="-2.38288">
        <ele>3.7</ele>
        <time>2018-09-21T13:34:46.000Z</time>
      </trkpt>
      <trkpt lat="46.73205" lon="-2.38289">
        <ele>3.7</ele>
        <time>2018-09-21T13:34:47.000Z</time>
      </trkpt>
      <trkpt lat="46.73204" lon="-2.3829">
        <ele>3.7</ele>
        <time>2018-09-21T13:34:48.000Z</time>
      </trkpt>
      <trkpt lat="46.73203" lon="-2.38291">
        <ele>3.8</ele>
        <time>2018-09-21T13:34:49.000Z</time>
      </trkpt>
      <trkpt lat="46.73201" lon="-2.38291">
        <ele>3.8</ele>
        <time>2018-09-21T13:34:50.000Z</time>
      </trkpt>
      <trkpt lat="46.732" lon="-2.38292">
        <ele>3.8</ele>
        <time>2018-09-21T13:34:51.000Z</time>
      </trkpt>
      <trkpt lat="46.73199" lon="-2.38293">
        <ele>3.8</ele>
        <time>2018-09-21T13:34:52.000Z</time>
      </trkpt>
      <trkpt lat="46.73198" lon="-2.38294">
        <ele>3.8</ele>
        <time>2018-09-21T13:34:53.000Z</time>
      </trkpt>
      <trkpt lat="46.73198" lon="-2.38294">
        <ele>3.8</ele>
        <time>2018-09-21T13:34:54.000Z</time>
      </trkpt>
      <trkpt lat="46.73197" lon="-2.38295">
        <ele>3.8</ele>
        <time>2018-09-21T13:34:55.000Z</time>
      </trkpt>
      <trkpt lat="46.73196" lon="-2.38295">
        <ele>3.8</ele>
        <time>2018-09-21T13:34:56.000Z</time>
      </trkpt>
      <trkpt lat="46.73195" lon="-2.38296">
        <ele>3.8</ele>
        <time>2018-09-21T13:34:57.000Z</time>
      </trkpt>
      <trkpt lat="46.73194" lon="-2.38296">
        <ele>3.9</ele>
        <time>2018-09-21T13:34:58.000Z</time>
      </trkpt>
      <trkpt lat="46.73194" lon="-2.38297">
        <ele>3.9</ele>
        <time>2018-09-21T13:34:59.000Z</time>
      </trkpt>
      <trkpt lat="46.73193" lon="-2.38297">
        <ele>3.9</ele>
        <time>2018-09-21T13:35:00.000Z</time>
      </trkpt>
      <trkpt lat="46.73192" lon="-2.38298">
        <ele>3.9</ele>
        <time>2018-09-21T13:35:01.000Z</time>
      </trkpt>
      <trkpt lat="46.73191" lon="-2.38298">
        <ele>3.9</ele>
        <time>2018-09-21T13:35:02.000Z</time>
      </trkpt>
      <trkpt lat="46.73191" lon="-2.38299">
        <ele>3.9</ele>
        <time>2018-09-21T13:35:03.000Z</time>
      </trkpt>
      <trkpt lat="46.7319" lon="-2.383">
        <ele>3.9</ele>
        <time>2018-09-21T13:35:04.000Z</time>
      </trkpt>
      <trkpt lat="46.73189" lon="-2.383">
        <ele>3.9</ele>
        <time>2018-09-21T13:35:05.000Z</time>
      </trkpt>
      <trkpt lat="46.73188" lon="-2.38301">
        <ele>3.9</ele>
        <time>2018-09-21T13:35:06.000Z</time>
      </trkpt>
      <trkpt lat="46.73187" lon="-2.38302">
        <ele>3.9</ele>
        <time>2018-09-21T13:35:07.000Z</time>
      </trkpt>
      <trkpt lat="46.73187" lon="-2.38303">
        <ele>4</ele>
        <time>2018-09-21T13:35:08.000Z</time>
      </trkpt>
      <trkpt lat="46.73186" lon="-2.38303">
        <ele>4</ele>
        <time>2018-09-21T13:35:09.000Z</time>
      </trkpt>
      <trkpt lat="46.73185" lon="-2.38304">
        <ele>4</ele>
        <time>2018-09-21T13:35:10.000Z</time>
      </trkpt>
      <trkpt lat="46.73184" lon="-2.38305">
        <ele>4</ele>
        <time>2018-09-21T13:35:11.000Z</time>
      </trkpt>
      <trkpt lat="46.73183" lon="-2.38306">
        <ele>4</ele>
        <time>2018-09-21T13:35:12.000Z</time>
      </trkpt>
      <trkpt lat="46.73182" lon="-2.38307">
        <ele>4</ele>
        <time>2018-09-21T13:35:13.000Z</time>
      </trkpt>
      <trkpt lat="46.73182" lon="-2.38308">
        <ele>4</ele>
        <time>2018-09-21T13:35:14.000Z</time>
      </trkpt>
      <trkpt lat="46.73181" lon="-2.38308">
        <ele>4</ele>
        <time>2018-09-21T13:35:15.000Z</time>
      </trkpt>
      <trkpt lat="46.7318" lon="-2.38309">
        <ele>4</ele>
        <time>2018-09-21T13:35:16.000Z</time>
      </trkpt>
      <trkpt lat="46.73179" lon="-2.3831">
        <ele>4</ele>
        <time>2018-09-21T13:35:17.000Z</time>
      </trkpt>
      <trkpt lat="46.73178" lon="-2.38311">
        <ele>4.1</ele>
        <time>2018-09-21T13:35:18.000Z</time>
      </trkpt>
      <trkpt lat="46.73178" lon="-2.38311">
        <ele>4.1</ele>
        <time>2018-09-21T13:35:19.000Z</time>
      </trkpt>
      <trkpt lat="46.73177" lon="-2.38312">
        <ele>4.1</ele>
        <time>2018-09-21T13:35:20.000Z</time>
      </trkpt>
      <trkpt lat="46.73176" lon="-2.38313">
        <ele>4.1</ele>
        <time>2018-09-21T13:35:21.000Z</time>
      </trkpt>
      <trkpt lat="46.73175" lon="-2.38314">
        <ele>4.1</ele>
        <time>2018-09-21T13:35:22.000Z</time>
      </trkpt>
      <trkpt lat="46.73174" lon="-2.38314">
        <ele>4.1</ele>
        <time>2018-09-21T13:35:23.000Z</time>
      </trkpt>
      <trkpt lat="46.73174" lon="-2.38315">
        <ele>4.1</ele>
        <time>2018-09-21T13:35:24.000Z</time>
      </trkpt>
      <trkpt lat="46.73173" lon="-2.38316">
        <ele>4.2</ele>
        <time>2018-09-21T13:35:25.000Z</time>
      </trkpt>
      <trkpt lat="46.73172" lon="-2.38317">
        <ele>4.2</ele>
        <time>2018-09-21T13:35:26.000Z</time>
      </trkpt>
      <trkpt lat="46.73171" lon="-2.38317">
        <ele>4.2</ele>
        <time>2018-09-21T13:35:27.000Z</time>
      </trkpt>
      <trkpt lat="46.7317" lon="-2.38318">
        <ele>4.2</ele>
        <time>2018-09-21T13:35:28.000Z</time>
      </trkpt>
      <trkpt lat="46.7317" lon="-2.38319">
        <ele>4.2</ele>
        <time>2018-09-21T13:35:29.000Z</time>
      </trkpt>
      <trkpt lat="46.73169" lon="-2.3832">
        <ele>4.2</ele>
        <time>2018-09-21T13:35:30.000Z</time>
      </trkpt>
      <trkpt lat="46.73168" lon="-2.38321">
        <ele>4.3</ele>
        <time>2018-09-21T13:35:31.000Z</time>
      </trkpt>
      <trkpt lat="46.73167" lon="-2.38321">
        <ele>4.3</ele>
        <time>2018-09-21T13:35:32.000Z</time>
      </trkpt>
      <trkpt lat="46.73166" lon="-2.38322">
        <ele>4.3</ele>
        <time>2018-09-21T13:35:33.000Z</time>
      </trkpt>
      <trkpt lat="46.73165" lon="-2.38323">
        <ele>4.3</ele>
        <time>2018-09-21T13:35:34.000Z</time>
      </trkpt>
      <trkpt lat="46.73165" lon="-2.38324">
        <ele>4.3</ele>
        <time>2018-09-21T13:35:35.000Z</time>
      </trkpt>
      <trkpt lat="46.73164" lon="-2.38325">
        <ele>4.2</ele>
        <time>2018-09-21T13:35:36.000Z</time>
      </trkpt>
      <trkpt lat="46.73163" lon="-2.38325">
        <ele>4.2</ele>
        <time>2018-09-21T13:35:37.000Z</time>
      </trkpt>
      <trkpt lat="46.73162" lon="-2.38326">
        <ele>4.2</ele>
        <time>2018-09-21T13:35:38.000Z</time>
      </trkpt>
      <trkpt lat="46.73161" lon="-2.38327">
        <ele>4.2</ele>
        <time>2018-09-21T13:35:39.000Z</time>
      </trkpt>
      <trkpt lat="46.73161" lon="-2.38328">
        <ele>4.2</ele>
        <time>2018-09-21T13:35:40.000Z</time>
      </trkpt>
      <trkpt lat="46.7316" lon="-2.38329">
        <ele>4.2</ele>
        <time>2018-09-21T13:35:41.000Z</time>
      </trkpt>
      <trkpt lat="46.73159" lon="-2.3833">
        <ele>4.2</ele>
        <time>2018-09-21T13:35:42.000Z</time>
      </trkpt>
      <trkpt lat="46.73158" lon="-2.38331">
        <ele>4.2</ele>
        <time>2018-09-21T13:35:43.000Z</time>
      </trkpt>
      <trkpt lat="46.73157" lon="-2.38332">
        <ele>4.2</ele>
        <time>2018-09-21T13:35:44.000Z</time>
      </trkpt>
      <trkpt lat="46.73156" lon="-2.38333">
        <ele>4.1</ele>
        <time>2018-09-21T13:35:45.000Z</time>
      </trkpt>
      <trkpt lat="46.73155" lon="-2.38334">
        <ele>4.1</ele>
        <time>2018-09-21T13:35:46.000Z</time>
      </trkpt>
      <trkpt lat="46.73155" lon="-2.38335">
        <ele>4.1</ele>
        <time>2018-09-21T13:35:47.000Z</time>
      </trkpt>
      <trkpt lat="46.73154" lon="-2.38336">
        <ele>4.1</ele>
        <time>2018-09-21T13:35:48.000Z</time>
      </trkpt>
      <trkpt lat="46.73153" lon="-2.38337">
        <ele>4</ele>
        <time>2018-09-21T13:35:49.000Z</time>
      </trkpt>
      <trkpt lat="46.73152" lon="-2.38338">
        <ele>4</ele>
        <time>2018-09-21T13:35:50.000Z</time>
      </trkpt>
      <trkpt lat="46.73151" lon="-2.38339">
        <ele>3.9</ele>
        <time>2018-09-21T13:35:51.000Z</time>
      </trkpt>
      <trkpt lat="46.7315" lon="-2.3834">
        <ele>3.9</ele>
        <time>2018-09-21T13:35:52.000Z</time>
      </trkpt>
      <trkpt lat="46.73149" lon="-2.38341">
        <ele>3.9</ele>
        <time>2018-09-21T13:35:53.000Z</time>
      </trkpt>
      <trkpt lat="46.73148" lon="-2.38342">
        <ele>3.8</ele>
        <time>2018-09-21T13:35:54.000Z</time>
      </trkpt>
      <trkpt lat="46.73147" lon="-2.38343">
        <ele>3.8</ele>
        <time>2018-09-21T13:35:55.000Z</time>
      </trkpt>
      <trkpt lat="46.73147" lon="-2.38344">
        <ele>3.7</ele>
        <time>2018-09-21T13:35:56.000Z</time>
      </trkpt>
      <trkpt lat="46.73146" lon="-2.38345">
        <ele>3.7</ele>
        <time>2018-09-21T13:35:57.000Z</time>
      </trkpt>
      <trkpt lat="46.73145" lon="-2.38346">
        <ele>3.7</ele>
        <time>2018-09-21T13:35:58.000Z</time>
      </trkpt>
      <trkpt lat="46.73144" lon="-2.38347">
        <ele>3.6</ele>
        <time>2018-09-21T13:35:59.000Z</time>
      </trkpt>
      <trkpt lat="46.73143" lon="-2.38348">
        <ele>3.6</ele>
        <time>2018-09-21T13:36:00.000Z</time>
      </trkpt>
      <trkpt lat="46.73142" lon="-2.38348">
        <ele>3.6</ele>
        <time>2018-09-21T13:36:01.000Z</time>
      </trkpt>
      <trkpt lat="46.73141" lon="-2.38349">
        <ele>3.5</ele>
        <time>2018-09-21T13:36:02.000Z</time>
      </trkpt>
      <trkpt lat="46.7314" lon="-2.3835">
        <ele>3.5</ele>
        <time>2018-09-21T13:36:03.000Z</time>
      </trkpt>
      <trkpt lat="46.73139" lon="-2.38351">
        <ele>3.5</ele>
        <time>2018-09-21T13:36:04.000Z</time>
      </trkpt>
      <trkpt lat="46.73138" lon="-2.38352">
        <ele>3.5</ele>
        <time>2018-09-21T13:36:05.000Z</time>
      </trkpt>
      <trkpt lat="46.73137" lon="-2.38353">
        <ele>3.4</ele>
        <time>2018-09-21T13:36:06.000Z</time>
      </trkpt>
      <trkpt lat="46.73136" lon="-2.38353">
        <ele>3.4</ele>
        <time>2018-09-21T13:36:07.000Z</time>
      </trkpt>
      <trkpt lat="46.73135" lon="-2.38354">
        <ele>3.4</ele>
        <time>2018-09-21T13:36:08.000Z</time>
      </trkpt>
      <trkpt lat="46.73134" lon="-2.38355">
        <ele>3.4</ele>
        <time>2018-09-21T13:36:09.000Z</time>
      </trkpt>
      <trkpt lat="46.73133" lon="-2.38355">
        <ele>3.3</ele>
        <time>2018-09-21T13:36:10.000Z</time>
      </trkpt>
      <trkpt lat="46.73132" lon="-2.38356">
        <ele>3.3</ele>
        <time>2018-09-21T13:36:11.000Z</time>
      </trkpt>
      <trkpt lat="46.73131" lon="-2.38356">
        <ele>3.3</ele>
        <time>2018-09-21T13:36:12.000Z</time>
      </trkpt>
      <trkpt lat="46.7313" lon="-2.38357">
        <ele>3.3</ele>
        <time>2018-09-21T13:36:13.000Z</time>
      </trkpt>
      <trkpt lat="46.73129" lon="-2.38357">
        <ele>3.3</ele>
        <time>2018-09-21T13:36:14.000Z</time>
      </trkpt>
      <trkpt lat="46.73128" lon="-2.38358">
        <ele>3.3</ele>
        <time>2018-09-21T13:36:15.000Z</time>
      </trkpt>
      <trkpt lat="46.73127" lon="-2.38358">
        <ele>3.3</ele>
        <time>2018-09-21T13:36:16.000Z</time>
      </trkpt>
      <trkpt lat="46.73126" lon="-2.38359">
        <ele>3.3</ele>
        <time>2018-09-21T13:36:17.000Z</time>
      </trkpt>
      <trkpt lat="46.73125" lon="-2.38359">
        <ele>3.3</ele>
        <time>2018-09-21T13:36:18.000Z</time>
      </trkpt>
      <trkpt lat="46.73124" lon="-2.38359">
        <ele>3.3</ele>
        <time>2018-09-21T13:36:19.000Z</time>
      </trkpt>
      <trkpt lat="46.73124" lon="-2.38359">
        <ele>3.3</ele>
        <time>2018-09-21T13:36:20.000Z</time>
      </trkpt>
      <trkpt lat="46.73123" lon="-2.3836">
        <ele>3.3</ele>
        <time>2018-09-21T13:36:21.000Z</time>
      </trkpt>
      <trkpt lat="46.73122" lon="-2.3836">
        <ele>3.3</ele>
        <time>2018-09-21T13:36:22.000Z</time>
      </trkpt>
      <trkpt lat="46.73121" lon="-2.3836">
        <ele>3.3</ele>
        <time>2018-09-21T13:36:23.000Z</time>
      </trkpt>
      <trkpt lat="46.7312" lon="-2.3836">
        <ele>3.3</ele>
        <time>2018-09-21T13:36:24.000Z</time>
      </trkpt>
      <trkpt lat="46.7312" lon="-2.3836">
        <ele>3.3</ele>
        <time>2018-09-21T13:36:25.000Z</time>
      </trkpt>
      <trkpt lat="46.73119" lon="-2.3836">
        <ele>3.3</ele>
        <time>2018-09-21T13:36:26.000Z</time>
      </trkpt>
      <trkpt lat="46.73118" lon="-2.3836">
        <ele>3.3</ele>
        <time>2018-09-21T13:36:27.000Z</time>
      </trkpt>
      <trkpt lat="46.73117" lon="-2.3836">
        <ele>3.3</ele>
        <time>2018-09-21T13:36:28.000Z</time>
      </trkpt>
      <trkpt lat="46.73116" lon="-2.3836">
        <ele>3.3</ele>
        <time>2018-09-21T13:36:29.000Z</time>
      </trkpt>
      <trkpt lat="46.73115" lon="-2.3836">
        <ele>3.3</ele>
        <time>2018-09-21T13:36:30.000Z</time>
      </trkpt>
      <trkpt lat="46.73114" lon="-2.3836">
        <ele>3.4</ele>
        <time>2018-09-21T13:36:31.000Z</time>
      </trkpt>
      <trkpt lat="46.73113" lon="-2.3836">
        <ele>3.4</ele>
        <time>2018-09-21T13:36:32.000Z</time>
      </trkpt>
      <trkpt lat="46.73112" lon="-2.38359">
        <ele>3.4</ele>
        <time>2018-09-21T13:36:33.000Z</time>
      </trkpt>
      <trkpt lat="46.73111" lon="-2.38359">
        <ele>3.4</ele>
        <time>2018-09-21T13:36:34.000Z</time>
      </trkpt>
      <trkpt lat="46.7311" lon="-2.38359">
        <ele>3.5</ele>
        <time>2018-09-21T13:36:35.000Z</time>
      </trkpt>
      <trkpt lat="46.73109" lon="-2.38359">
        <ele>3.5</ele>
        <time>2018-09-21T13:36:36.000Z</time>
      </trkpt>
      <trkpt lat="46.73108" lon="-2.38358">
        <ele>3.5</ele>
        <time>2018-09-21T13:36:37.000Z</time>
      </trkpt>
      <trkpt lat="46.73107" lon="-2.38358">
        <ele>3.5</ele>
        <time>2018-09-21T13:36:38.000Z</time>
      </trkpt>
      <trkpt lat="46.73106" lon="-2.38357">
        <ele>3.6</ele>
        <time>2018-09-21T13:36:39.000Z</time>
      </trkpt>
      <trkpt lat="46.73105" lon="-2.38357">
        <ele>3.6</ele>
        <time>2018-09-21T13:36:40.000Z</time>
      </trkpt>
      <trkpt lat="46.73104" lon="-2.38357">
        <ele>3.6</ele>
        <time>2018-09-21T13:36:41.000Z</time>
      </trkpt>
      <trkpt lat="46.73103" lon="-2.38356">
        <ele>3.7</ele>
        <time>2018-09-21T13:36:42.000Z</time>
      </trkpt>
      <trkpt lat="46.73102" lon="-2.38356">
        <ele>3.7</ele>
        <time>2018-09-21T13:36:43.000Z</time>
      </trkpt>
      <trkpt lat="46.73101" lon="-2.38356">
        <ele>3.7</ele>
        <time>2018-09-21T13:36:44.000Z</time>
      </trkpt>
      <trkpt lat="46.73101" lon="-2.38355">
        <ele>3.7</ele>
        <time>2018-09-21T13:36:45.000Z</time>
      </trkpt>
      <trkpt lat="46.731" lon="-2.38355">
        <ele>3.8</ele>
        <time>2018-09-21T13:36:46.000Z</time>
      </trkpt>
      <trkpt lat="46.73099" lon="-2.38355">
        <ele>3.8</ele>
        <time>2018-09-21T13:36:47.000Z</time>
      </trkpt>
      <trkpt lat="46.73098" lon="-2.38354">
        <ele>3.8</ele>
        <time>2018-09-21T13:36:48.000Z</time>
      </trkpt>
      <trkpt lat="46.73097" lon="-2.38354">
        <ele>3.8</ele>
        <time>2018-09-21T13:36:49.000Z</time>
      </trkpt>
      <trkpt lat="46.73096" lon="-2.38354">
        <ele>3.9</ele>
        <time>2018-09-21T13:36:50.000Z</time>
      </trkpt>
      <trkpt lat="46.73095" lon="-2.38354">
        <ele>3.9</ele>
        <time>2018-09-21T13:36:51.000Z</time>
      </trkpt>
      <trkpt lat="46.73094" lon="-2.38354">
        <ele>3.9</ele>
        <time>2018-09-21T13:36:52.000Z</time>
      </trkpt>
      <trkpt lat="46.73093" lon="-2.38353">
        <ele>3.9</ele>
        <time>2018-09-21T13:36:53.000Z</time>
      </trkpt>
      <trkpt lat="46.73092" lon="-2.38353">
        <ele>3.9</ele>
        <time>2018-09-21T13:36:54.000Z</time>
      </trkpt>
      <trkpt lat="46.73092" lon="-2.38353">
        <ele>4</ele>
        <time>2018-09-21T13:36:55.000Z</time>
      </trkpt>
      <trkpt lat="46.73091" lon="-2.38353">
        <ele>4</ele>
        <time>2018-09-21T13:36:56.000Z</time>
      </trkpt>
      <trkpt lat="46.7309" lon="-2.38353">
        <ele>4</ele>
        <time>2018-09-21T13:36:57.000Z</time>
      </trkpt>
      <trkpt lat="46.73089" lon="-2.38353">
        <ele>4</ele>
        <time>2018-09-21T13:36:58.000Z</time>
      </trkpt>
      <trkpt lat="46.73088" lon="-2.38353">
        <ele>4</ele>
        <time>2018-09-21T13:36:59.000Z</time>
      </trkpt>
      <trkpt lat="46.73087" lon="-2.38352">
        <ele>4</ele>
        <time>2018-09-21T13:37:00.000Z</time>
      </trkpt>
      <trkpt lat="46.73086" lon="-2.38352">
        <ele>4.1</ele>
        <time>2018-09-21T13:37:01.000Z</time>
      </trkpt>
      <trkpt lat="46.73085" lon="-2.38352">
        <ele>4.1</ele>
        <time>2018-09-21T13:37:02.000Z</time>
      </trkpt>
      <trkpt lat="46.73084" lon="-2.38352">
        <ele>4.1</ele>
        <time>2018-09-21T13:37:03.000Z</time>
      </trkpt>
      <trkpt lat="46.73083" lon="-2.38352">
        <ele>4.1</ele>
        <time>2018-09-21T13:37:04.000Z</time>
      </trkpt>
      <trkpt lat="46.73082" lon="-2.38352">
        <ele>4.2</ele>
        <time>2018-09-21T13:37:05.000Z</time>
      </trkpt>
      <trkpt lat="46.73081" lon="-2.38351">
        <ele>4.2</ele>
        <time>2018-09-21T13:37:06.000Z</time>
      </trkpt>
      <trkpt lat="46.7308" lon="-2.38351">
        <ele>4.3</ele>
        <time>2018-09-21T13:37:07.000Z</time>
      </trkpt>
      <trkpt lat="46.73079" lon="-2.38351">
        <ele>4.3</ele>
        <time>2018-09-21T13:37:08.000Z</time>
      </trkpt>
      <trkpt lat="46.73078" lon="-2.38351">
        <ele>4.4</ele>
        <time>2018-09-21T13:37:09.000Z</time>
      </trkpt>
      <trkpt lat="46.73077" lon="-2.38351">
        <ele>4.4</ele>
        <time>2018-09-21T13:37:10.000Z</time>
      </trkpt>
      <trkpt lat="46.73076" lon="-2.38351">
        <ele>4.5</ele>
        <time>2018-09-21T13:37:11.000Z</time>
      </trkpt>
      <trkpt lat="46.73075" lon="-2.3835">
        <ele>4.5</ele>
        <time>2018-09-21T13:37:12.000Z</time>
      </trkpt>
      <trkpt lat="46.73074" lon="-2.3835">
        <ele>4.6</ele>
        <time>2018-09-21T13:37:13.000Z</time>
      </trkpt>
      <trkpt lat="46.73073" lon="-2.3835">
        <ele>4.6</ele>
        <time>2018-09-21T13:37:14.000Z</time>
      </trkpt>
      <trkpt lat="46.73072" lon="-2.3835">
        <ele>4.7</ele>
        <time>2018-09-21T13:37:15.000Z</time>
      </trkpt>
      <trkpt lat="46.73071" lon="-2.3835">
        <ele>4.7</ele>
        <time>2018-09-21T13:37:16.000Z</time>
      </trkpt>
      <trkpt lat="46.7307" lon="-2.38349">
        <ele>4.8</ele>
        <time>2018-09-21T13:37:17.000Z</time>
      </trkpt>
      <trkpt lat="46.73069" lon="-2.38349">
        <ele>4.8</ele>
        <time>2018-09-21T13:37:18.000Z</time>
      </trkpt>
      <trkpt lat="46.73068" lon="-2.38349">
        <ele>4.9</ele>
        <time>2018-09-21T13:37:19.000Z</time>
      </trkpt>
      <trkpt lat="46.73067" lon="-2.38349">
        <ele>4.9</ele>
        <time>2018-09-21T13:37:20.000Z</time>
      </trkpt>
      <trkpt lat="46.73067" lon="-2.38349">
        <ele>4.9</ele>
        <time>2018-09-21T13:37:21.000Z</time>
      </trkpt>
      <trkpt lat="46.73066" lon="-2.38349">
        <ele>5</ele>
        <time>2018-09-21T13:37:22.000Z</time>
      </trkpt>
      <trkpt lat="46.73065" lon="-2.38348">
        <ele>5</ele>
        <time>2018-09-21T13:37:23.000Z</time>
      </trkpt>
      <trkpt lat="46.73064" lon="-2.38348">
        <ele>5.1</ele>
        <time>2018-09-21T13:37:24.000Z</time>
      </trkpt>
      <trkpt lat="46.73063" lon="-2.38348">
        <ele>5.1</ele>
        <time>2018-09-21T13:37:25.000Z</time>
      </trkpt>
      <trkpt lat="46.73062" lon="-2.38348">
        <ele>5.2</ele>
        <time>2018-09-21T13:37:26.000Z</time>
      </trkpt>
      <trkpt lat="46.73061" lon="-2.38348">
        <ele>5.2</ele>
        <time>2018-09-21T13:37:27.000Z</time>
      </trkpt>
      <trkpt lat="46.7306" lon="-2.38348">
        <ele>5.3</ele>
        <time>2018-09-21T13:37:28.000Z</time>
      </trkpt>
      <trkpt lat="46.73059" lon="-2.38348">
        <ele>5.3</ele>
        <time>2018-09-21T13:37:29.000Z</time>
      </trkpt>
      <trkpt lat="46.73058" lon="-2.38348">
        <ele>5.3</ele>
        <time>2018-09-21T13:37:30.000Z</time>
      </trkpt>
      <trkpt lat="46.73057" lon="-2.38348">
        <ele>5.4</ele>
        <time>2018-09-21T13:37:31.000Z</time>
      </trkpt>
      <trkpt lat="46.73056" lon="-2.38348">
        <ele>5.4</ele>
        <time>2018-09-21T13:37:32.000Z</time>
      </trkpt>
      <trkpt lat="46.73055" lon="-2.38349">
        <ele>5.4</ele>
        <time>2018-09-21T13:37:33.000Z</time>
      </trkpt>
      <trkpt lat="46.73054" lon="-2.38349">
        <ele>5.4</ele>
        <time>2018-09-21T13:37:34.000Z</time>
      </trkpt>
      <trkpt lat="46.73053" lon="-2.38349">
        <ele>5.5</ele>
        <time>2018-09-21T13:37:35.000Z</time>
      </trkpt>
      <trkpt lat="46.73052" lon="-2.3835">
        <ele>5.5</ele>
        <time>2018-09-21T13:37:36.000Z</time>
      </trkpt>
      <trkpt lat="46.73051" lon="-2.3835">
        <ele>5.5</ele>
        <time>2018-09-21T13:37:37.000Z</time>
      </trkpt>
      <trkpt lat="46.73051" lon="-2.38351">
        <ele>5.5</ele>
        <time>2018-09-21T13:37:38.000Z</time>
      </trkpt>
      <trkpt lat="46.7305" lon="-2.38352">
        <ele>5.5</ele>
        <time>2018-09-21T13:37:39.000Z</time>
      </trkpt>
      <trkpt lat="46.73049" lon="-2.38353">
        <ele>5.5</ele>
        <time>2018-09-21T13:37:40.000Z</time>
      </trkpt>
      <trkpt lat="46.73048" lon="-2.38353">
        <ele>5.5</ele>
        <time>2018-09-21T13:37:41.000Z</time>
      </trkpt>
      <trkpt lat="46.73047" lon="-2.38354">
        <ele>5.5</ele>
        <time>2018-09-21T13:37:42.000Z</time>
      </trkpt>
      <trkpt lat="46.73047" lon="-2.38355">
        <ele>5.5</ele>
        <time>2018-09-21T13:37:43.000Z</time>
      </trkpt>
      <trkpt lat="46.73046" lon="-2.38356">
        <ele>5.5</ele>
        <time>2018-09-21T13:37:44.000Z</time>
      </trkpt>
      <trkpt lat="46.73045" lon="-2.38357">
        <ele>5.5</ele>
        <time>2018-09-21T13:37:45.000Z</time>
      </trkpt>
      <trkpt lat="46.73045" lon="-2.38358">
        <ele>5.5</ele>
        <time>2018-09-21T13:37:46.000Z</time>
      </trkpt>
      <trkpt lat="46.73044" lon="-2.38359">
        <ele>5.5</ele>
        <time>2018-09-21T13:37:47.000Z</time>
      </trkpt>
      <trkpt lat="46.73043" lon="-2.3836">
        <ele>5.5</ele>
        <time>2018-09-21T13:37:48.000Z</time>
      </trkpt>
      <trkpt lat="46.73042" lon="-2.38361">
        <ele>5.5</ele>
        <time>2018-09-21T13:37:49.000Z</time>
      </trkpt>
      <trkpt lat="46.73042" lon="-2.38362">
        <ele>5.5</ele>
        <time>2018-09-21T13:37:50.000Z</time>
      </trkpt>
      <trkpt lat="46.73041" lon="-2.38363">
        <ele>5.5</ele>
        <time>2018-09-21T13:37:51.000Z</time>
      </trkpt>
      <trkpt lat="46.7304" lon="-2.38364">
        <ele>5.5</ele>
        <time>2018-09-21T13:37:52.000Z</time>
      </trkpt>
      <trkpt lat="46.7304" lon="-2.38365">
        <ele>5.4</ele>
        <time>2018-09-21T13:37:53.000Z</time>
      </trkpt>
      <trkpt lat="46.73039" lon="-2.38367">
        <ele>5.4</ele>
        <time>2018-09-21T13:37:54.000Z</time>
      </trkpt>
      <trkpt lat="46.73038" lon="-2.38368">
        <ele>5.4</ele>
        <time>2018-09-21T13:37:55.000Z</time>
      </trkpt>
      <trkpt lat="46.73038" lon="-2.38369">
        <ele>5.4</ele>
        <time>2018-09-21T13:37:56.000Z</time>
      </trkpt>
      <trkpt lat="46.73037" lon="-2.3837">
        <ele>5.4</ele>
        <time>2018-09-21T13:37:57.000Z</time>
      </trkpt>
      <trkpt lat="46.73037" lon="-2.38371">
        <ele>5.4</ele>
        <time>2018-09-21T13:37:58.000Z</time>
      </trkpt>
      <trkpt lat="46.73036" lon="-2.38372">
        <ele>5.4</ele>
        <time>2018-09-21T13:37:59.000Z</time>
      </trkpt>
      <trkpt lat="46.73036" lon="-2.38372">
        <ele>5.4</ele>
        <time>2018-09-21T13:38:00.000Z</time>
      </trkpt>
      <trkpt lat="46.73036" lon="-2.38372">
        <ele>5.4</ele>
        <time>2018-09-21T13:38:01.000Z</time>
      </trkpt>
      <trkpt lat="46.73037" lon="-2.38372">
        <ele>5.4</ele>
        <time>2018-09-21T13:38:02.000Z</time>
      </trkpt>
      <trkpt lat="46.73037" lon="-2.38372">
        <ele>5.4</ele>
        <time>2018-09-21T13:38:03.000Z</time>
      </trkpt>
      <trkpt lat="46.73037" lon="-2.38371">
        <ele>5.4</ele>
        <time>2018-09-21T13:38:04.000Z</time>
      </trkpt>
      <trkpt lat="46.73037" lon="-2.38371">
        <ele>5.4</ele>
        <time>2018-09-21T13:38:05.000Z</time>
      </trkpt>
      <trkpt lat="46.73037" lon="-2.38371">
        <ele>5.4</ele>
        <time>2018-09-21T13:38:06.000Z</time>
      </trkpt>
      <trkpt lat="46.73037" lon="-2.38371">
        <ele>5.4</ele>
        <time>2018-09-21T13:38:07.000Z</time>
      </trkpt>
      <trkpt lat="46.73037" lon="-2.38371">
        <ele>5.4</ele>
        <time>2018-09-21T13:38:08.000Z</time>
      </trkpt>
      <trkpt lat="46.73037" lon="-2.38371">
        <ele>5.4</ele>
        <time>2018-09-21T13:38:09.000Z</time>
      </trkpt>
      <trkpt lat="46.73037" lon="-2.38371">
        <ele>5.4</ele>
        <time>2018-09-21T13:38:10.000Z</time>
      </trkpt>
      <trkpt lat="46.73037" lon="-2.38371">
        <ele>5.4</ele>
        <time>2018-09-21T13:38:11.000Z</time>
      </trkpt>
      <trkpt lat="46.73037" lon="-2.38371">
        <ele>5.4</ele>
        <time>2018-09-21T13:38:12.000Z</time>
      </trkpt>
      <trkpt lat="46.73037" lon="-2.38372">
        <ele>5.4</ele>
        <time>2018-09-21T13:38:13.000Z</time>
      </trkpt>
      <trkpt lat="46.73036" lon="-2.38372">
        <ele>5.3</ele>
        <time>2018-09-21T13:38:14.000Z</time>
      </trkpt>
      <trkpt lat="46.73036" lon="-2.38373">
        <ele>5.3</ele>
        <time>2018-09-21T13:38:15.000Z</time>
      </trkpt>
      <trkpt lat="46.73035" lon="-2.38374">
        <ele>5.3</ele>
        <time>2018-09-21T13:38:16.000Z</time>
      </trkpt>
      <trkpt lat="46.73035" lon="-2.38375">
        <ele>5.3</ele>
        <time>2018-09-21T13:38:17.000Z</time>
      </trkpt>
      <trkpt lat="46.73034" lon="-2.38376">
        <ele>5.3</ele>
        <time>2018-09-21T13:38:18.000Z</time>
      </trkpt>
      <trkpt lat="46.73033" lon="-2.38378">
        <ele>5.3</ele>
        <time>2018-09-21T13:38:19.000Z</time>
      </trkpt>
      <trkpt lat="46.73033" lon="-2.38379">
        <ele>5.3</ele>
        <time>2018-09-21T13:38:20.000Z</time>
      </trkpt>
      <trkpt lat="46.73032" lon="-2.3838">
        <ele>5.3</ele>
        <time>2018-09-21T13:38:21.000Z</time>
      </trkpt>
      <trkpt lat="46.73031" lon="-2.38381">
        <ele>5.3</ele>
        <time>2018-09-21T13:38:22.000Z</time>
      </trkpt>
      <trkpt lat="46.7303" lon="-2.38383">
        <ele>5.3</ele>
        <time>2018-09-21T13:38:23.000Z</time>
      </trkpt>
      <trkpt lat="46.7303" lon="-2.38384">
        <ele>5.3</ele>
        <time>2018-09-21T13:38:24.000Z</time>
      </trkpt>
      <trkpt lat="46.73029" lon="-2.38385">
        <ele>5.3</ele>
        <time>2018-09-21T13:38:25.000Z</time>
      </trkpt>
      <trkpt lat="46.73028" lon="-2.38387">
        <ele>5.3</ele>
        <time>2018-09-21T13:38:26.000Z</time>
      </trkpt>
      <trkpt lat="46.73027" lon="-2.38388">
        <ele>5.3</ele>
        <time>2018-09-21T13:38:27.000Z</time>
      </trkpt>
      <trkpt lat="46.73027" lon="-2.38389">
        <ele>5.3</ele>
        <time>2018-09-21T13:38:28.000Z</time>
      </trkpt>
      <trkpt lat="46.73026" lon="-2.3839">
        <ele>5.3</ele>
        <time>2018-09-21T13:38:29.000Z</time>
      </trkpt>
      <trkpt lat="46.73025" lon="-2.38391">
        <ele>5.3</ele>
        <time>2018-09-21T13:38:30.000Z</time>
      </trkpt>
      <trkpt lat="46.73025" lon="-2.38393">
        <ele>5.3</ele>
        <time>2018-09-21T13:38:31.000Z</time>
      </trkpt>
      <trkpt lat="46.73024" lon="-2.38394">
        <ele>5.3</ele>
        <time>2018-09-21T13:38:32.000Z</time>
      </trkpt>
      <trkpt lat="46.73024" lon="-2.38395">
        <ele>5.3</ele>
        <time>2018-09-21T13:38:33.000Z</time>
      </trkpt>
      <trkpt lat="46.73023" lon="-2.38396">
        <ele>5.2</ele>
        <time>2018-09-21T13:38:34.000Z</time>
      </trkpt>
      <trkpt lat="46.73023" lon="-2.38398">
        <ele>5.2</ele>
        <time>2018-09-21T13:38:35.000Z</time>
      </trkpt>
      <trkpt lat="46.73023" lon="-2.38399">
        <ele>5.2</ele>
        <time>2018-09-21T13:38:36.000Z</time>
      </trkpt>
      <trkpt lat="46.73022" lon="-2.384">
        <ele>5.2</ele>
        <time>2018-09-21T13:38:37.000Z</time>
      </trkpt>
      <trkpt lat="46.73022" lon="-2.38401">
        <ele>5.1</ele>
        <time>2018-09-21T13:38:38.000Z</time>
      </trkpt>
      <trkpt lat="46.73022" lon="-2.38403">
        <ele>5.1</ele>
        <time>2018-09-21T13:38:39.000Z</time>
      </trkpt>
      <trkpt lat="46.73021" lon="-2.38404">
        <ele>5.1</ele>
        <time>2018-09-21T13:38:40.000Z</time>
      </trkpt>
      <trkpt lat="46.73021" lon="-2.38406">
        <ele>5.1</ele>
        <time>2018-09-21T13:38:41.000Z</time>
      </trkpt>
      <trkpt lat="46.73021" lon="-2.38408">
        <ele>5</ele>
        <time>2018-09-21T13:38:42.000Z</time>
      </trkpt>
      <trkpt lat="46.7302" lon="-2.38409">
        <ele>5</ele>
        <time>2018-09-21T13:38:43.000Z</time>
      </trkpt>
      <trkpt lat="46.7302" lon="-2.38411">
        <ele>5</ele>
        <time>2018-09-21T13:38:44.000Z</time>
      </trkpt>
      <trkpt lat="46.73019" lon="-2.38413">
        <ele>5</ele>
        <time>2018-09-21T13:38:45.000Z</time>
      </trkpt>
      <trkpt lat="46.73019" lon="-2.38415">
        <ele>4.9</ele>
        <time>2018-09-21T13:38:46.000Z</time>
      </trkpt>
      <trkpt lat="46.73018" lon="-2.38416">
        <ele>4.9</ele>
        <time>2018-09-21T13:38:47.000Z</time>
      </trkpt>
      <trkpt lat="46.73018" lon="-2.38418">
        <ele>4.9</ele>
        <time>2018-09-21T13:38:48.000Z</time>
      </trkpt>
      <trkpt lat="46.73017" lon="-2.3842">
        <ele>5</ele>
        <time>2018-09-21T13:38:49.000Z</time>
      </trkpt>
      <trkpt lat="46.73017" lon="-2.38422">
        <ele>5</ele>
        <time>2018-09-21T13:38:50.000Z</time>
      </trkpt>
      <trkpt lat="46.73016" lon="-2.38423">
        <ele>5</ele>
        <time>2018-09-21T13:38:51.000Z</time>
      </trkpt>
      <trkpt lat="46.73016" lon="-2.38425">
        <ele>5</ele>
        <time>2018-09-21T13:38:52.000Z</time>
      </trkpt>
      <trkpt lat="46.73015" lon="-2.38426">
        <ele>5.1</ele>
        <time>2018-09-21T13:38:53.000Z</time>
      </trkpt>
      <trkpt lat="46.73015" lon="-2.38428">
        <ele>5.1</ele>
        <time>2018-09-21T13:38:54.000Z</time>
      </trkpt>
      <trkpt lat="46.73014" lon="-2.38429">
        <ele>5.1</ele>
        <time>2018-09-21T13:38:55.000Z</time>
      </trkpt>
      <trkpt lat="46.73014" lon="-2.3843">
        <ele>5.2</ele>
        <time>2018-09-21T13:38:56.000Z</time>
      </trkpt>
      <trkpt lat="46.73013" lon="-2.38432">
        <ele>5.2</ele>
        <time>2018-09-21T13:38:57.000Z</time>
      </trkpt>
      <trkpt lat="46.73012" lon="-2.38433">
        <ele>5.2</ele>
        <time>2018-09-21T13:38:58.000Z</time>
      </trkpt>
      <trkpt lat="46.73012" lon="-2.38435">
        <ele>5.3</ele>
        <time>2018-09-21T13:38:59.000Z</time>
      </trkpt>
      <trkpt lat="46.73011" lon="-2.38436">
        <ele>5.3</ele>
        <time>2018-09-21T13:39:00.000Z</time>
      </trkpt>
      <trkpt lat="46.73011" lon="-2.38437">
        <ele>5.3</ele>
        <time>2018-09-21T13:39:01.000Z</time>
      </trkpt>
      <trkpt lat="46.7301" lon="-2.38439">
        <ele>5.4</ele>
        <time>2018-09-21T13:39:02.000Z</time>
      </trkpt>
      <trkpt lat="46.73009" lon="-2.3844">
        <ele>5.4</ele>
        <time>2018-09-21T13:39:03.000Z</time>
      </trkpt>
      <trkpt lat="46.73009" lon="-2.38441">
        <ele>5.4</ele>
        <time>2018-09-21T13:39:04.000Z</time>
      </trkpt>
      <trkpt lat="46.73008" lon="-2.38442">
        <ele>5.5</ele>
        <time>2018-09-21T13:39:05.000Z</time>
      </trkpt>
      <trkpt lat="46.73008" lon="-2.38444">
        <ele>5.5</ele>
        <time>2018-09-21T13:39:06.000Z</time>
      </trkpt>
      <trkpt lat="46.73007" lon="-2.38445">
        <ele>5.6</ele>
        <time>2018-09-21T13:39:07.000Z</time>
      </trkpt>
      <trkpt lat="46.73006" lon="-2.38446">
        <ele>5.6</ele>
        <time>2018-09-21T13:39:08.000Z</time>
      </trkpt>
      <trkpt lat="46.73006" lon="-2.38448">
        <ele>5.6</ele>
        <time>2018-09-21T13:39:09.000Z</time>
      </trkpt>
      <trkpt lat="46.73005" lon="-2.38449">
        <ele>5.7</ele>
        <time>2018-09-21T13:39:10.000Z</time>
      </trkpt>
      <trkpt lat="46.73004" lon="-2.3845">
        <ele>5.7</ele>
        <time>2018-09-21T13:39:11.000Z</time>
      </trkpt>
      <trkpt lat="46.73004" lon="-2.38451">
        <ele>5.8</ele>
        <time>2018-09-21T13:39:12.000Z</time>
      </trkpt>
      <trkpt lat="46.73003" lon="-2.38453">
        <ele>5.8</ele>
        <time>2018-09-21T13:39:13.000Z</time>
      </trkpt>
      <trkpt lat="46.73002" lon="-2.38454">
        <ele>5.9</ele>
        <time>2018-09-21T13:39:14.000Z</time>
      </trkpt>
      <trkpt lat="46.73002" lon="-2.38455">
        <ele>5.9</ele>
        <time>2018-09-21T13:39:15.000Z</time>
      </trkpt>
      <trkpt lat="46.73001" lon="-2.38456">
        <ele>5.9</ele>
        <time>2018-09-21T13:39:16.000Z</time>
      </trkpt>
      <trkpt lat="46.73" lon="-2.38457">
        <ele>6</ele>
        <time>2018-09-21T13:39:17.000Z</time>
      </trkpt>
      <trkpt lat="46.73" lon="-2.38458">
        <ele>6</ele>
        <time>2018-09-21T13:39:18.000Z</time>
      </trkpt>
      <trkpt lat="46.72999" lon="-2.38459">
        <ele>6</ele>
        <time>2018-09-21T13:39:19.000Z</time>
      </trkpt>
      <trkpt lat="46.72998" lon="-2.3846">
        <ele>6</ele>
        <time>2018-09-21T13:39:20.000Z</time>
      </trkpt>
      <trkpt lat="46.72998" lon="-2.38462">
        <ele>6</ele>
        <time>2018-09-21T13:39:21.000Z</time>
      </trkpt>
      <trkpt lat="46.72997" lon="-2.38463">
        <ele>6.1</ele>
        <time>2018-09-21T13:39:22.000Z</time>
      </trkpt>
      <trkpt lat="46.72996" lon="-2.38464">
        <ele>6.1</ele>
        <time>2018-09-21T13:39:23.000Z</time>
      </trkpt>
      <trkpt lat="46.72995" lon="-2.38465">
        <ele>6.1</ele>
        <time>2018-09-21T13:39:24.000Z</time>
      </trkpt>
      <trkpt lat="46.72995" lon="-2.38466">
        <ele>6.1</ele>
        <time>2018-09-21T13:39:25.000Z</time>
      </trkpt>
      <trkpt lat="46.72994" lon="-2.38467">
        <ele>6.1</ele>
        <time>2018-09-21T13:39:26.000Z</time>
      </trkpt>
      <trkpt lat="46.72993" lon="-2.38467">
        <ele>6.1</ele>
        <time>2018-09-21T13:39:27.000Z</time>
      </trkpt>
      <trkpt lat="46.72992" lon="-2.38468">
        <ele>6.1</ele>
        <time>2018-09-21T13:39:28.000Z</time>
      </trkpt>
      <trkpt lat="46.72992" lon="-2.38469">
        <ele>6.1</ele>
        <time>2018-09-21T13:39:29.000Z</time>
      </trkpt>
      <trkpt lat="46.72991" lon="-2.3847">
        <ele>6.1</ele>
        <time>2018-09-21T13:39:30.000Z</time>
      </trkpt>
      <trkpt lat="46.7299" lon="-2.38471">
        <ele>6.2</ele>
        <time>2018-09-21T13:39:31.000Z</time>
      </trkpt>
      <trkpt lat="46.72989" lon="-2.38472">
        <ele>6.2</ele>
        <time>2018-09-21T13:39:32.000Z</time>
      </trkpt>
      <trkpt lat="46.72989" lon="-2.38473">
        <ele>6.2</ele>
        <time>2018-09-21T13:39:33.000Z</time>
      </trkpt>
      <trkpt lat="46.72988" lon="-2.38474">
        <ele>6.2</ele>
        <time>2018-09-21T13:39:34.000Z</time>
      </trkpt>
      <trkpt lat="46.72987" lon="-2.38475">
        <ele>6.2</ele>
        <time>2018-09-21T13:39:35.000Z</time>
      </trkpt>
      <trkpt lat="46.72987" lon="-2.38476">
        <ele>6.2</ele>
        <time>2018-09-21T13:39:36.000Z</time>
      </trkpt>
      <trkpt lat="46.72986" lon="-2.38477">
        <ele>6.2</ele>
        <time>2018-09-21T13:39:37.000Z</time>
      </trkpt>
      <trkpt lat="46.72986" lon="-2.38478">
        <ele>6.2</ele>
        <time>2018-09-21T13:39:38.000Z</time>
      </trkpt>
      <trkpt lat="46.72986" lon="-2.38479">
        <ele>6.2</ele>
        <time>2018-09-21T13:39:39.000Z</time>
      </trkpt>
      <trkpt lat="46.72986" lon="-2.3848">
        <ele>6.2</ele>
        <time>2018-09-21T13:39:40.000Z</time>
      </trkpt>
      <trkpt lat="46.72986" lon="-2.3848">
        <ele>6.2</ele>
        <time>2018-09-21T13:39:41.000Z</time>
      </trkpt>
      <trkpt lat="46.72986" lon="-2.38481">
        <ele>6.2</ele>
        <time>2018-09-21T13:39:42.000Z</time>
      </trkpt>
      <trkpt lat="46.72986" lon="-2.38482">
        <ele>6.2</ele>
        <time>2018-09-21T13:39:43.000Z</time>
      </trkpt>
      <trkpt lat="46.72986" lon="-2.38483">
        <ele>6.2</ele>
        <time>2018-09-21T13:39:44.000Z</time>
      </trkpt>
      <trkpt lat="46.72986" lon="-2.38484">
        <ele>6.2</ele>
        <time>2018-09-21T13:39:45.000Z</time>
      </trkpt>
      <trkpt lat="46.72986" lon="-2.38485">
        <ele>6.2</ele>
        <time>2018-09-21T13:39:46.000Z</time>
      </trkpt>
      <trkpt lat="46.72986" lon="-2.38487">
        <ele>6.2</ele>
        <time>2018-09-21T13:39:47.000Z</time>
      </trkpt>
      <trkpt lat="46.72987" lon="-2.38488">
        <ele>6.2</ele>
        <time>2018-09-21T13:39:48.000Z</time>
      </trkpt>
      <trkpt lat="46.72987" lon="-2.38489">
        <ele>6.2</ele>
        <time>2018-09-21T13:39:49.000Z</time>
      </trkpt>
      <trkpt lat="46.72987" lon="-2.38491">
        <ele>6.2</ele>
        <time>2018-09-21T13:39:50.000Z</time>
      </trkpt>
      <trkpt lat="46.72987" lon="-2.38492">
        <ele>6.2</ele>
        <time>2018-09-21T13:39:51.000Z</time>
      </trkpt>
      <trkpt lat="46.72987" lon="-2.38494">
        <ele>6.2</ele>
        <time>2018-09-21T13:39:52.000Z</time>
      </trkpt>
      <trkpt lat="46.72986" lon="-2.38496">
        <ele>6.2</ele>
        <time>2018-09-21T13:39:53.000Z</time>
      </trkpt>
      <trkpt lat="46.72986" lon="-2.38497">
        <ele>6.2</ele>
        <time>2018-09-21T13:39:54.000Z</time>
      </trkpt>
      <trkpt lat="46.72986" lon="-2.38499">
        <ele>6.2</ele>
        <time>2018-09-21T13:39:55.000Z</time>
      </trkpt>
      <trkpt lat="46.72986" lon="-2.38501">
        <ele>6.2</ele>
        <time>2018-09-21T13:39:56.000Z</time>
      </trkpt>
      <trkpt lat="46.72986" lon="-2.38502">
        <ele>6.1</ele>
        <time>2018-09-21T13:39:57.000Z</time>
      </trkpt>
      <trkpt lat="46.72986" lon="-2.38504">
        <ele>6.1</ele>
        <time>2018-09-21T13:39:58.000Z</time>
      </trkpt>
      <trkpt lat="46.72986" lon="-2.38506">
        <ele>6.1</ele>
        <time>2018-09-21T13:39:59.000Z</time>
      </trkpt>
      <trkpt lat="46.72986" lon="-2.38507">
        <ele>6.1</ele>
        <time>2018-09-21T13:40:00.000Z</time>
      </trkpt>
      <trkpt lat="46.72986" lon="-2.38509">
        <ele>6.1</ele>
        <time>2018-09-21T13:40:01.000Z</time>
      </trkpt>
      <trkpt lat="46.72986" lon="-2.38511">
        <ele>6.1</ele>
        <time>2018-09-21T13:40:02.000Z</time>
      </trkpt>
      <trkpt lat="46.72986" lon="-2.38512">
        <ele>6</ele>
        <time>2018-09-21T13:40:03.000Z</time>
      </trkpt>
      <trkpt lat="46.72986" lon="-2.38514">
        <ele>6</ele>
        <time>2018-09-21T13:40:04.000Z</time>
      </trkpt>
      <trkpt lat="46.72986" lon="-2.38516">
        <ele>6</ele>
        <time>2018-09-21T13:40:05.000Z</time>
      </trkpt>
      <trkpt lat="46.72986" lon="-2.38517">
        <ele>6</ele>
        <time>2018-09-21T13:40:06.000Z</time>
      </trkpt>
      <trkpt lat="46.72986" lon="-2.38519">
        <ele>6</ele>
        <time>2018-09-21T13:40:07.000Z</time>
      </trkpt>
      <trkpt lat="46.72986" lon="-2.3852">
        <ele>6</ele>
        <time>2018-09-21T13:40:08.000Z</time>
      </trkpt>
      <trkpt lat="46.72986" lon="-2.38522">
        <ele>5.9</ele>
        <time>2018-09-21T13:40:09.000Z</time>
      </trkpt>
      <trkpt lat="46.72986" lon="-2.38523">
        <ele>5.9</ele>
        <time>2018-09-21T13:40:10.000Z</time>
      </trkpt>
      <trkpt lat="46.72986" lon="-2.38525">
        <ele>5.9</ele>
        <time>2018-09-21T13:40:11.000Z</time>
      </trkpt>
      <trkpt lat="46.72987" lon="-2.38526">
        <ele>5.9</ele>
        <time>2018-09-21T13:40:12.000Z</time>
      </trkpt>
      <trkpt lat="46.72987" lon="-2.38528">
        <ele>5.9</ele>
        <time>2018-09-21T13:40:13.000Z</time>
      </trkpt>
      <trkpt lat="46.72987" lon="-2.38529">
        <ele>5.9</ele>
        <time>2018-09-21T13:40:14.000Z</time>
      </trkpt>
      <trkpt lat="46.72987" lon="-2.3853">
        <ele>5.9</ele>
        <time>2018-09-21T13:40:15.000Z</time>
      </trkpt>
      <trkpt lat="46.72987" lon="-2.38532">
        <ele>5.8</ele>
        <time>2018-09-21T13:40:16.000Z</time>
      </trkpt>
      <trkpt lat="46.72987" lon="-2.38533">
        <ele>5.8</ele>
        <time>2018-09-21T13:40:17.000Z</time>
      </trkpt>
      <trkpt lat="46.72987" lon="-2.38535">
        <ele>5.8</ele>
        <time>2018-09-21T13:40:18.000Z</time>
      </trkpt>
      <trkpt lat="46.72987" lon="-2.38536">
        <ele>5.8</ele>
        <time>2018-09-21T13:40:19.000Z</time>
      </trkpt>
      <trkpt lat="46.72987" lon="-2.38537">
        <ele>5.8</ele>
        <time>2018-09-21T13:40:20.000Z</time>
      </trkpt>
      <trkpt lat="46.72988" lon="-2.38539">
        <ele>5.8</ele>
        <time>2018-09-21T13:40:21.000Z</time>
      </trkpt>
      <trkpt lat="46.72988" lon="-2.3854">
        <ele>5.7</ele>
        <time>2018-09-21T13:40:22.000Z</time>
      </trkpt>
      <trkpt lat="46.72988" lon="-2.38541">
        <ele>5.7</ele>
        <time>2018-09-21T13:40:23.000Z</time>
      </trkpt>
      <trkpt lat="46.72988" lon="-2.38543">
        <ele>5.7</ele>
        <time>2018-09-21T13:40:24.000Z</time>
      </trkpt>
      <trkpt lat="46.72988" lon="-2.38544">
        <ele>5.7</ele>
        <time>2018-09-21T13:40:25.000Z</time>
      </trkpt>
      <trkpt lat="46.72989" lon="-2.38546">
        <ele>5.7</ele>
        <time>2018-09-21T13:40:26.000Z</time>
      </trkpt>
      <trkpt lat="46.72989" lon="-2.38547">
        <ele>5.6</ele>
        <time>2018-09-21T13:40:27.000Z</time>
      </trkpt>
      <trkpt lat="46.72989" lon="-2.38549">
        <ele>5.6</ele>
        <time>2018-09-21T13:40:28.000Z</time>
      </trkpt>
      <trkpt lat="46.72989" lon="-2.3855">
        <ele>5.6</ele>
        <time>2018-09-21T13:40:29.000Z</time>
      </trkpt>
      <trkpt lat="46.7299" lon="-2.38552">
        <ele>5.6</ele>
        <time>2018-09-21T13:40:30.000Z</time>
      </trkpt>
      <trkpt lat="46.7299" lon="-2.38553">
        <ele>5.6</ele>
        <time>2018-09-21T13:40:31.000Z</time>
      </trkpt>
      <trkpt lat="46.7299" lon="-2.38555">
        <ele>5.5</ele>
        <time>2018-09-21T13:40:32.000Z</time>
      </trkpt>
      <trkpt lat="46.7299" lon="-2.38557">
        <ele>5.5</ele>
        <time>2018-09-21T13:40:33.000Z</time>
      </trkpt>
      <trkpt lat="46.72991" lon="-2.38558">
        <ele>5.5</ele>
        <time>2018-09-21T13:40:34.000Z</time>
      </trkpt>
      <trkpt lat="46.72991" lon="-2.3856">
        <ele>5.5</ele>
        <time>2018-09-21T13:40:35.000Z</time>
      </trkpt>
      <trkpt lat="46.72991" lon="-2.38562">
        <ele>5.4</ele>
        <time>2018-09-21T13:40:36.000Z</time>
      </trkpt>
      <trkpt lat="46.72992" lon="-2.38564">
        <ele>5.4</ele>
        <time>2018-09-21T13:40:37.000Z</time>
      </trkpt>
      <trkpt lat="46.72992" lon="-2.38565">
        <ele>5.4</ele>
        <time>2018-09-21T13:40:38.000Z</time>
      </trkpt>
      <trkpt lat="46.72992" lon="-2.38567">
        <ele>5.4</ele>
        <time>2018-09-21T13:40:39.000Z</time>
      </trkpt>
      <trkpt lat="46.72992" lon="-2.38569">
        <ele>5.4</ele>
        <time>2018-09-21T13:40:40.000Z</time>
      </trkpt>
      <trkpt lat="46.72992" lon="-2.3857">
        <ele>5.3</ele>
        <time>2018-09-21T13:40:41.000Z</time>
      </trkpt>
      <trkpt lat="46.72992" lon="-2.38572">
        <ele>5.3</ele>
        <time>2018-09-21T13:40:42.000Z</time>
      </trkpt>
      <trkpt lat="46.72992" lon="-2.38573">
        <ele>5.3</ele>
        <time>2018-09-21T13:40:43.000Z</time>
      </trkpt>
      <trkpt lat="46.72992" lon="-2.38573">
        <ele>5.3</ele>
        <time>2018-09-21T13:40:44.000Z</time>
      </trkpt>
      <trkpt lat="46.72992" lon="-2.38573">
        <ele>5.3</ele>
        <time>2018-09-21T13:40:45.000Z</time>
      </trkpt>
      <trkpt lat="46.72992" lon="-2.38573">
        <ele>5.3</ele>
        <time>2018-09-21T13:40:46.000Z</time>
      </trkpt>
      <trkpt lat="46.72992" lon="-2.38573">
        <ele>5.3</ele>
        <time>2018-09-21T13:40:47.000Z</time>
      </trkpt>
      <trkpt lat="46.72992" lon="-2.38573">
        <ele>5.3</ele>
        <time>2018-09-21T13:40:48.000Z</time>
      </trkpt>
      <trkpt lat="46.72992" lon="-2.38574">
        <ele>5.3</ele>
        <time>2018-09-21T13:40:49.000Z</time>
      </trkpt>
      <trkpt lat="46.72991" lon="-2.38576">
        <ele>5.3</ele>
        <time>2018-09-21T13:40:50.000Z</time>
      </trkpt>
      <trkpt lat="46.72991" lon="-2.38577">
        <ele>5.3</ele>
        <time>2018-09-21T13:40:51.000Z</time>
      </trkpt>
      <trkpt lat="46.72991" lon="-2.38579">
        <ele>5.3</ele>
        <time>2018-09-21T13:40:52.000Z</time>
      </trkpt>
      <trkpt lat="46.72991" lon="-2.38581">
        <ele>5.3</ele>
        <time>2018-09-21T13:40:53.000Z</time>
      </trkpt>
      <trkpt lat="46.7299" lon="-2.38582">
        <ele>5.3</ele>
        <time>2018-09-21T13:40:54.000Z</time>
      </trkpt>
      <trkpt lat="46.7299" lon="-2.38584">
        <ele>5.2</ele>
        <time>2018-09-21T13:40:55.000Z</time>
      </trkpt>
      <trkpt lat="46.72989" lon="-2.38585">
        <ele>5.2</ele>
        <time>2018-09-21T13:40:56.000Z</time>
      </trkpt>
      <trkpt lat="46.72989" lon="-2.38587">
        <ele>5.2</ele>
        <time>2018-09-21T13:40:57.000Z</time>
      </trkpt>
      <trkpt lat="46.72988" lon="-2.38588">
        <ele>5.1</ele>
        <time>2018-09-21T13:40:58.000Z</time>
      </trkpt>
      <trkpt lat="46.72988" lon="-2.3859">
        <ele>5.1</ele>
        <time>2018-09-21T13:40:59.000Z</time>
      </trkpt>
      <trkpt lat="46.72987" lon="-2.38591">
        <ele>5</ele>
        <time>2018-09-21T13:41:00.000Z</time>
      </trkpt>
      <trkpt lat="46.72987" lon="-2.38593">
        <ele>5</ele>
        <time>2018-09-21T13:41:01.000Z</time>
      </trkpt>
      <trkpt lat="46.72987" lon="-2.38594">
        <ele>5</ele>
        <time>2018-09-21T13:41:02.000Z</time>
      </trkpt>
      <trkpt lat="46.72986" lon="-2.38596">
        <ele>4.9</ele>
        <time>2018-09-21T13:41:03.000Z</time>
      </trkpt>
      <trkpt lat="46.72986" lon="-2.38597">
        <ele>4.9</ele>
        <time>2018-09-21T13:41:04.000Z</time>
      </trkpt>
      <trkpt lat="46.72985" lon="-2.38599">
        <ele>4.8</ele>
        <time>2018-09-21T13:41:05.000Z</time>
      </trkpt>
      <trkpt lat="46.72985" lon="-2.38601">
        <ele>4.8</ele>
        <time>2018-09-21T13:41:06.000Z</time>
      </trkpt>
      <trkpt lat="46.72985" lon="-2.38602">
        <ele>4.7</ele>
        <time>2018-09-21T13:41:07.000Z</time>
      </trkpt>
      <trkpt lat="46.72984" lon="-2.38604">
        <ele>4.7</ele>
        <time>2018-09-21T13:41:08.000Z</time>
      </trkpt>
      <trkpt lat="46.72984" lon="-2.38605">
        <ele>4.6</ele>
        <time>2018-09-21T13:41:09.000Z</time>
      </trkpt>
      <trkpt lat="46.72984" lon="-2.38607">
        <ele>4.6</ele>
        <time>2018-09-21T13:41:10.000Z</time>
      </trkpt>
      <trkpt lat="46.72983" lon="-2.38608">
        <ele>4.6</ele>
        <time>2018-09-21T13:41:11.000Z</time>
      </trkpt>
      <trkpt lat="46.72983" lon="-2.3861">
        <ele>4.5</ele>
        <time>2018-09-21T13:41:12.000Z</time>
      </trkpt>
      <trkpt lat="46.72983" lon="-2.38611">
        <ele>4.5</ele>
        <time>2018-09-21T13:41:13.000Z</time>
      </trkpt>
      <trkpt lat="46.72983" lon="-2.38613">
        <ele>4.4</ele>
        <time>2018-09-21T13:41:14.000Z</time>
      </trkpt>
      <trkpt lat="46.72982" lon="-2.38614">
        <ele>4.4</ele>
        <time>2018-09-21T13:41:15.000Z</time>
      </trkpt>
      <trkpt lat="46.72982" lon="-2.38615">
        <ele>4.4</ele>
        <time>2018-09-21T13:41:16.000Z</time>
      </trkpt>
      <trkpt lat="46.72982" lon="-2.38617">
        <ele>4.3</ele>
        <time>2018-09-21T13:41:17.000Z</time>
      </trkpt>
      <trkpt lat="46.72981" lon="-2.38618">
        <ele>4.3</ele>
        <time>2018-09-21T13:41:18.000Z</time>
      </trkpt>
      <trkpt lat="46.72981" lon="-2.3862">
        <ele>4.3</ele>
        <time>2018-09-21T13:41:19.000Z</time>
      </trkpt>
      <trkpt lat="46.7298" lon="-2.38621">
        <ele>4.2</ele>
        <time>2018-09-21T13:41:20.000Z</time>
      </trkpt>
      <trkpt lat="46.7298" lon="-2.38623">
        <ele>4.2</ele>
        <time>2018-09-21T13:41:21.000Z</time>
      </trkpt>
      <trkpt lat="46.7298" lon="-2.38624">
        <ele>4.1</ele>
        <time>2018-09-21T13:41:22.000Z</time>
      </trkpt>
      <trkpt lat="46.72979" lon="-2.38626">
        <ele>4.1</ele>
        <time>2018-09-21T13:41:23.000Z</time>
      </trkpt>
      <trkpt lat="46.72978" lon="-2.38627">
        <ele>4.1</ele>
        <time>2018-09-21T13:41:24.000Z</time>
      </trkpt>
      <trkpt lat="46.72978" lon="-2.38629">
        <ele>4</ele>
        <time>2018-09-21T13:41:25.000Z</time>
      </trkpt>
      <trkpt lat="46.72977" lon="-2.38631">
        <ele>4</ele>
        <time>2018-09-21T13:41:26.000Z</time>
      </trkpt>
      <trkpt lat="46.72977" lon="-2.38632">
        <ele>4</ele>
        <time>2018-09-21T13:41:27.000Z</time>
      </trkpt>
      <trkpt lat="46.72976" lon="-2.38634">
        <ele>3.9</ele>
        <time>2018-09-21T13:41:28.000Z</time>
      </trkpt>
      <trkpt lat="46.72976" lon="-2.38636">
        <ele>3.9</ele>
        <time>2018-09-21T13:41:29.000Z</time>
      </trkpt>
      <trkpt lat="46.72975" lon="-2.38637">
        <ele>3.9</ele>
        <time>2018-09-21T13:41:30.000Z</time>
      </trkpt>
      <trkpt lat="46.72975" lon="-2.38639">
        <ele>3.8</ele>
        <time>2018-09-21T13:41:31.000Z</time>
      </trkpt>
      <trkpt lat="46.72974" lon="-2.38641">
        <ele>3.8</ele>
        <time>2018-09-21T13:41:32.000Z</time>
      </trkpt>
      <trkpt lat="46.72974" lon="-2.38642">
        <ele>3.7</ele>
        <time>2018-09-21T13:41:33.000Z</time>
      </trkpt>
      <trkpt lat="46.72973" lon="-2.38644">
        <ele>3.7</ele>
        <time>2018-09-21T13:41:34.000Z</time>
      </trkpt>
      <trkpt lat="46.72973" lon="-2.38646">
        <ele>3.7</ele>
        <time>2018-09-21T13:41:35.000Z</time>
      </trkpt>
      <trkpt lat="46.72972" lon="-2.38647">
        <ele>3.6</ele>
        <time>2018-09-21T13:41:36.000Z</time>
      </trkpt>
      <trkpt lat="46.72972" lon="-2.38649">
        <ele>3.6</ele>
        <time>2018-09-21T13:41:37.000Z</time>
      </trkpt>
      <trkpt lat="46.72971" lon="-2.3865">
        <ele>3.6</ele>
        <time>2018-09-21T13:41:38.000Z</time>
      </trkpt>
      <trkpt lat="46.72971" lon="-2.38652">
        <ele>3.5</ele>
        <time>2018-09-21T13:41:39.000Z</time>
      </trkpt>
      <trkpt lat="46.72971" lon="-2.38653">
        <ele>3.5</ele>
        <time>2018-09-21T13:41:40.000Z</time>
      </trkpt>
      <trkpt lat="46.7297" lon="-2.38655">
        <ele>3.5</ele>
        <time>2018-09-21T13:41:41.000Z</time>
      </trkpt>
      <trkpt lat="46.7297" lon="-2.38656">
        <ele>3.4</ele>
        <time>2018-09-21T13:41:42.000Z</time>
      </trkpt>
      <trkpt lat="46.72969" lon="-2.38657">
        <ele>3.4</ele>
        <time>2018-09-21T13:41:43.000Z</time>
      </trkpt>
      <trkpt lat="46.72969" lon="-2.38658">
        <ele>3.4</ele>
        <time>2018-09-21T13:41:44.000Z</time>
      </trkpt>
      <trkpt lat="46.72968" lon="-2.38659">
        <ele>3.4</ele>
        <time>2018-09-21T13:41:45.000Z</time>
      </trkpt>
      <trkpt lat="46.72968" lon="-2.3866">
        <ele>3.4</ele>
        <time>2018-09-21T13:41:46.000Z</time>
      </trkpt>
      <trkpt lat="46.72967" lon="-2.38661">
        <ele>3.4</ele>
        <time>2018-09-21T13:41:47.000Z</time>
      </trkpt>
      <trkpt lat="46.72966" lon="-2.38662">
        <ele>3.3</ele>
        <time>2018-09-21T13:41:48.000Z</time>
      </trkpt>
      <trkpt lat="46.72966" lon="-2.38663">
        <ele>3.3</ele>
        <time>2018-09-21T13:41:49.000Z</time>
      </trkpt>
      <trkpt lat="46.72965" lon="-2.38664">
        <ele>3.3</ele>
        <time>2018-09-21T13:41:50.000Z</time>
      </trkpt>
      <trkpt lat="46.72965" lon="-2.38666">
        <ele>3.3</ele>
        <time>2018-09-21T13:41:51.000Z</time>
      </trkpt>
      <trkpt lat="46.72964" lon="-2.38667">
        <ele>3.3</ele>
        <time>2018-09-21T13:41:52.000Z</time>
      </trkpt>
      <trkpt lat="46.72963" lon="-2.38668">
        <ele>3.3</ele>
        <time>2018-09-21T13:41:53.000Z</time>
      </trkpt>
      <trkpt lat="46.72963" lon="-2.38669">
        <ele>3.3</ele>
        <time>2018-09-21T13:41:54.000Z</time>
      </trkpt>
      <trkpt lat="46.72962" lon="-2.3867">
        <ele>3.2</ele>
        <time>2018-09-21T13:41:55.000Z</time>
      </trkpt>
      <trkpt lat="46.72961" lon="-2.38671">
        <ele>3.2</ele>
        <time>2018-09-21T13:41:56.000Z</time>
      </trkpt>
      <trkpt lat="46.7296" lon="-2.38672">
        <ele>3.2</ele>
        <time>2018-09-21T13:41:57.000Z</time>
      </trkpt>
      <trkpt lat="46.7296" lon="-2.38673">
        <ele>3.2</ele>
        <time>2018-09-21T13:41:58.000Z</time>
      </trkpt>
      <trkpt lat="46.72959" lon="-2.38674">
        <ele>3.1</ele>
        <time>2018-09-21T13:41:59.000Z</time>
      </trkpt>
      <trkpt lat="46.72958" lon="-2.38675">
        <ele>3.1</ele>
        <time>2018-09-21T13:42:00.000Z</time>
      </trkpt>
      <trkpt lat="46.72957" lon="-2.38676">
        <ele>3.1</ele>
        <time>2018-09-21T13:42:01.000Z</time>
      </trkpt>
      <trkpt lat="46.72956" lon="-2.38677">
        <ele>3.1</ele>
        <time>2018-09-21T13:42:02.000Z</time>
      </trkpt>
      <trkpt lat="46.72956" lon="-2.38678">
        <ele>3</ele>
        <time>2018-09-21T13:42:03.000Z</time>
      </trkpt>
      <trkpt lat="46.72955" lon="-2.38679">
        <ele>3</ele>
        <time>2018-09-21T13:42:04.000Z</time>
      </trkpt>
      <trkpt lat="46.72954" lon="-2.3868">
        <ele>3</ele>
        <time>2018-09-21T13:42:05.000Z</time>
      </trkpt>
      <trkpt lat="46.72953" lon="-2.38681">
        <ele>3</ele>
        <time>2018-09-21T13:42:06.000Z</time>
      </trkpt>
      <trkpt lat="46.72952" lon="-2.38682">
        <ele>3</ele>
        <time>2018-09-21T13:42:07.000Z</time>
      </trkpt>
      <trkpt lat="46.72951" lon="-2.38682">
        <ele>3</ele>
        <time>2018-09-21T13:42:08.000Z</time>
      </trkpt>
      <trkpt lat="46.72951" lon="-2.38683">
        <ele>3</ele>
        <time>2018-09-21T13:42:09.000Z</time>
      </trkpt>
      <trkpt lat="46.7295" lon="-2.38684">
        <ele>2.9</ele>
        <time>2018-09-21T13:42:10.000Z</time>
      </trkpt>
      <trkpt lat="46.72949" lon="-2.38684">
        <ele>2.9</ele>
        <time>2018-09-21T13:42:11.000Z</time>
      </trkpt>
      <trkpt lat="46.72948" lon="-2.38685">
        <ele>2.9</ele>
        <time>2018-09-21T13:42:12.000Z</time>
      </trkpt>
      <trkpt lat="46.72947" lon="-2.38686">
        <ele>2.9</ele>
        <time>2018-09-21T13:42:13.000Z</time>
      </trkpt>
      <trkpt lat="46.72946" lon="-2.38686">
        <ele>2.9</ele>
        <time>2018-09-21T13:42:14.000Z</time>
      </trkpt>
      <trkpt lat="46.72946" lon="-2.38687">
        <ele>2.9</ele>
        <time>2018-09-21T13:42:15.000Z</time>
      </trkpt>
      <trkpt lat="46.72945" lon="-2.38687">
        <ele>2.9</ele>
        <time>2018-09-21T13:42:16.000Z</time>
      </trkpt>
      <trkpt lat="46.72944" lon="-2.38688">
        <ele>2.9</ele>
        <time>2018-09-21T13:42:17.000Z</time>
      </trkpt>
      <trkpt lat="46.72943" lon="-2.38688">
        <ele>2.9</ele>
        <time>2018-09-21T13:42:18.000Z</time>
      </trkpt>
      <trkpt lat="46.72942" lon="-2.38689">
        <ele>2.9</ele>
        <time>2018-09-21T13:42:19.000Z</time>
      </trkpt>
      <trkpt lat="46.72941" lon="-2.38689">
        <ele>2.9</ele>
        <time>2018-09-21T13:42:20.000Z</time>
      </trkpt>
      <trkpt lat="46.7294" lon="-2.3869">
        <ele>2.9</ele>
        <time>2018-09-21T13:42:21.000Z</time>
      </trkpt>
      <trkpt lat="46.7294" lon="-2.3869">
        <ele>2.9</ele>
        <time>2018-09-21T13:42:22.000Z</time>
      </trkpt>
      <trkpt lat="46.72939" lon="-2.38691">
        <ele>2.9</ele>
        <time>2018-09-21T13:42:23.000Z</time>
      </trkpt>
      <trkpt lat="46.72938" lon="-2.38691">
        <ele>2.9</ele>
        <time>2018-09-21T13:42:24.000Z</time>
      </trkpt>
      <trkpt lat="46.72937" lon="-2.38692">
        <ele>2.9</ele>
        <time>2018-09-21T13:42:25.000Z</time>
      </trkpt>
      <trkpt lat="46.72936" lon="-2.38692">
        <ele>2.9</ele>
        <time>2018-09-21T13:42:26.000Z</time>
      </trkpt>
      <trkpt lat="46.72935" lon="-2.38693">
        <ele>2.9</ele>
        <time>2018-09-21T13:42:27.000Z</time>
      </trkpt>
      <trkpt lat="46.72934" lon="-2.38693">
        <ele>2.9</ele>
        <time>2018-09-21T13:42:28.000Z</time>
      </trkpt>
      <trkpt lat="46.72933" lon="-2.38694">
        <ele>2.9</ele>
        <time>2018-09-21T13:42:29.000Z</time>
      </trkpt>
      <trkpt lat="46.72932" lon="-2.38694">
        <ele>2.9</ele>
        <time>2018-09-21T13:42:30.000Z</time>
      </trkpt>
      <trkpt lat="46.72931" lon="-2.38695">
        <ele>2.9</ele>
        <time>2018-09-21T13:42:31.000Z</time>
      </trkpt>
      <trkpt lat="46.7293" lon="-2.38696">
        <ele>2.9</ele>
        <time>2018-09-21T13:42:32.000Z</time>
      </trkpt>
      <trkpt lat="46.72929" lon="-2.38696">
        <ele>2.9</ele>
        <time>2018-09-21T13:42:33.000Z</time>
      </trkpt>
      <trkpt lat="46.72928" lon="-2.38697">
        <ele>2.9</ele>
        <time>2018-09-21T13:42:34.000Z</time>
      </trkpt>
      <trkpt lat="46.72927" lon="-2.38697">
        <ele>2.9</ele>
        <time>2018-09-21T13:42:35.000Z</time>
      </trkpt>
      <trkpt lat="46.72926" lon="-2.38697">
        <ele>2.9</ele>
        <time>2018-09-21T13:42:36.000Z</time>
      </trkpt>
      <trkpt lat="46.72925" lon="-2.38698">
        <ele>2.9</ele>
        <time>2018-09-21T13:42:37.000Z</time>
      </trkpt>
      <trkpt lat="46.72924" lon="-2.38698">
        <ele>2.9</ele>
        <time>2018-09-21T13:42:38.000Z</time>
      </trkpt>
      <trkpt lat="46.72923" lon="-2.38698">
        <ele>2.9</ele>
        <time>2018-09-21T13:42:39.000Z</time>
      </trkpt>
      <trkpt lat="46.72922" lon="-2.38698">
        <ele>3</ele>
        <time>2018-09-21T13:42:40.000Z</time>
      </trkpt>
      <trkpt lat="46.72921" lon="-2.38699">
        <ele>3</ele>
        <time>2018-09-21T13:42:41.000Z</time>
      </trkpt>
      <trkpt lat="46.7292" lon="-2.38699">
        <ele>3</ele>
        <time>2018-09-21T13:42:42.000Z</time>
      </trkpt>
      <trkpt lat="46.72919" lon="-2.38699">
        <ele>3</ele>
        <time>2018-09-21T13:42:43.000Z</time>
      </trkpt>
      <trkpt lat="46.72918" lon="-2.38699">
        <ele>3</ele>
        <time>2018-09-21T13:42:44.000Z</time>
      </trkpt>
      <trkpt lat="46.72917" lon="-2.387">
        <ele>3</ele>
        <time>2018-09-21T13:42:45.000Z</time>
      </trkpt>
      <trkpt lat="46.72916" lon="-2.387">
        <ele>3</ele>
        <time>2018-09-21T13:42:46.000Z</time>
      </trkpt>
      <trkpt lat="46.72915" lon="-2.38701">
        <ele>2.9</ele>
        <time>2018-09-21T13:42:47.000Z</time>
      </trkpt>
      <trkpt lat="46.72914" lon="-2.38701">
        <ele>2.9</ele>
        <time>2018-09-21T13:42:48.000Z</time>
      </trkpt>
      <trkpt lat="46.72913" lon="-2.38702">
        <ele>2.8</ele>
        <time>2018-09-21T13:42:49.000Z</time>
      </trkpt>
      <trkpt lat="46.72912" lon="-2.38702">
        <ele>2.8</ele>
        <time>2018-09-21T13:42:50.000Z</time>
      </trkpt>
      <trkpt lat="46.7291" lon="-2.38703">
        <ele>2.7</ele>
        <time>2018-09-21T13:42:51.000Z</time>
      </trkpt>
      <trkpt lat="46.72909" lon="-2.38704">
        <ele>2.7</ele>
        <time>2018-09-21T13:42:52.000Z</time>
      </trkpt>
      <trkpt lat="46.72908" lon="-2.38704">
        <ele>2.6</ele>
        <time>2018-09-21T13:42:53.000Z</time>
      </trkpt>
      <trkpt lat="46.72907" lon="-2.38705">
        <ele>2.6</ele>
        <time>2018-09-21T13:42:54.000Z</time>
      </trkpt>
      <trkpt lat="46.72906" lon="-2.38705">
        <ele>2.6</ele>
        <time>2018-09-21T13:42:55.000Z</time>
      </trkpt>
      <trkpt lat="46.72905" lon="-2.38705">
        <ele>2.5</ele>
        <time>2018-09-21T13:42:56.000Z</time>
      </trkpt>
      <trkpt lat="46.72904" lon="-2.38705">
        <ele>2.5</ele>
        <time>2018-09-21T13:42:57.000Z</time>
      </trkpt>
      <trkpt lat="46.72903" lon="-2.38705">
        <ele>2.5</ele>
        <time>2018-09-21T13:42:58.000Z</time>
      </trkpt>
      <trkpt lat="46.72902" lon="-2.38705">
        <ele>2.5</ele>
        <time>2018-09-21T13:42:59.000Z</time>
      </trkpt>
      <trkpt lat="46.72901" lon="-2.38705">
        <ele>2.5</ele>
        <time>2018-09-21T13:43:00.000Z</time>
      </trkpt>
      <trkpt lat="46.729" lon="-2.38705">
        <ele>2.5</ele>
        <time>2018-09-21T13:43:01.000Z</time>
      </trkpt>
      <trkpt lat="46.72899" lon="-2.38704">
        <ele>2.5</ele>
        <time>2018-09-21T13:43:02.000Z</time>
      </trkpt>
      <trkpt lat="46.72898" lon="-2.38704">
        <ele>2.5</ele>
        <time>2018-09-21T13:43:03.000Z</time>
      </trkpt>
      <trkpt lat="46.72897" lon="-2.38703">
        <ele>2.5</ele>
        <time>2018-09-21T13:43:04.000Z</time>
      </trkpt>
      <trkpt lat="46.72897" lon="-2.38703">
        <ele>2.6</ele>
        <time>2018-09-21T13:43:05.000Z</time>
      </trkpt>
      <trkpt lat="46.72896" lon="-2.38703">
        <ele>2.6</ele>
        <time>2018-09-21T13:43:06.000Z</time>
      </trkpt>
      <trkpt lat="46.72895" lon="-2.38702">
        <ele>2.6</ele>
        <time>2018-09-21T13:43:07.000Z</time>
      </trkpt>
      <trkpt lat="46.72894" lon="-2.38702">
        <ele>2.6</ele>
        <time>2018-09-21T13:43:08.000Z</time>
      </trkpt>
      <trkpt lat="46.72893" lon="-2.38701">
        <ele>2.6</ele>
        <time>2018-09-21T13:43:09.000Z</time>
      </trkpt>
      <trkpt lat="46.72893" lon="-2.38701">
        <ele>2.6</ele>
        <time>2018-09-21T13:43:10.000Z</time>
      </trkpt>
      <trkpt lat="46.72892" lon="-2.38701">
        <ele>2.6</ele>
        <time>2018-09-21T13:43:11.000Z</time>
      </trkpt>
      <trkpt lat="46.72891" lon="-2.387">
        <ele>2.6</ele>
        <time>2018-09-21T13:43:12.000Z</time>
      </trkpt>
      <trkpt lat="46.7289" lon="-2.387">
        <ele>2.6</ele>
        <time>2018-09-21T13:43:13.000Z</time>
      </trkpt>
      <trkpt lat="46.72889" lon="-2.387">
        <ele>2.6</ele>
        <time>2018-09-21T13:43:14.000Z</time>
      </trkpt>
      <trkpt lat="46.72888" lon="-2.387">
        <ele>2.6</ele>
        <time>2018-09-21T13:43:15.000Z</time>
      </trkpt>
      <trkpt lat="46.72888" lon="-2.38699">
        <ele>2.6</ele>
        <time>2018-09-21T13:43:16.000Z</time>
      </trkpt>
      <trkpt lat="46.72887" lon="-2.38699">
        <ele>2.6</ele>
        <time>2018-09-21T13:43:17.000Z</time>
      </trkpt>
      <trkpt lat="46.72886" lon="-2.38699">
        <ele>2.6</ele>
        <time>2018-09-21T13:43:18.000Z</time>
      </trkpt>
      <trkpt lat="46.72885" lon="-2.38698">
        <ele>2.6</ele>
        <time>2018-09-21T13:43:19.000Z</time>
      </trkpt>
      <trkpt lat="46.72884" lon="-2.38698">
        <ele>2.7</ele>
        <time>2018-09-21T13:43:20.000Z</time>
      </trkpt>
      <trkpt lat="46.72883" lon="-2.38697">
        <ele>2.7</ele>
        <time>2018-09-21T13:43:21.000Z</time>
      </trkpt>
      <trkpt lat="46.72882" lon="-2.38697">
        <ele>2.7</ele>
        <time>2018-09-21T13:43:22.000Z</time>
      </trkpt>
      <trkpt lat="46.72881" lon="-2.38696">
        <ele>2.7</ele>
        <time>2018-09-21T13:43:23.000Z</time>
      </trkpt>
      <trkpt lat="46.7288" lon="-2.38696">
        <ele>2.7</ele>
        <time>2018-09-21T13:43:24.000Z</time>
      </trkpt>
      <trkpt lat="46.72879" lon="-2.38695">
        <ele>2.7</ele>
        <time>2018-09-21T13:43:25.000Z</time>
      </trkpt>
      <trkpt lat="46.72878" lon="-2.38694">
        <ele>2.7</ele>
        <time>2018-09-21T13:43:26.000Z</time>
      </trkpt>
      <trkpt lat="46.72877" lon="-2.38693">
        <ele>2.8</ele>
        <time>2018-09-21T13:43:27.000Z</time>
      </trkpt>
      <trkpt lat="46.72877" lon="-2.38693">
        <ele>2.8</ele>
        <time>2018-09-21T13:43:28.000Z</time>
      </trkpt>
      <trkpt lat="46.72876" lon="-2.38692">
        <ele>2.8</ele>
        <time>2018-09-21T13:43:29.000Z</time>
      </trkpt>
      <trkpt lat="46.72875" lon="-2.38691">
        <ele>2.8</ele>
        <time>2018-09-21T13:43:30.000Z</time>
      </trkpt>
      <trkpt lat="46.72874" lon="-2.3869">
        <ele>2.8</ele>
        <time>2018-09-21T13:43:31.000Z</time>
      </trkpt>
      <trkpt lat="46.72873" lon="-2.38689">
        <ele>2.9</ele>
        <time>2018-09-21T13:43:32.000Z</time>
      </trkpt>
      <trkpt lat="46.72872" lon="-2.38689">
        <ele>2.9</ele>
        <time>2018-09-21T13:43:33.000Z</time>
      </trkpt>
      <trkpt lat="46.72871" lon="-2.38688">
        <ele>2.9</ele>
        <time>2018-09-21T13:43:34.000Z</time>
      </trkpt>
      <trkpt lat="46.7287" lon="-2.38687">
        <ele>2.9</ele>
        <time>2018-09-21T13:43:35.000Z</time>
      </trkpt>
      <trkpt lat="46.72869" lon="-2.38686">
        <ele>3</ele>
        <time>2018-09-21T13:43:36.000Z</time>
      </trkpt>
      <trkpt lat="46.72868" lon="-2.38685">
        <ele>3</ele>
        <time>2018-09-21T13:43:37.000Z</time>
      </trkpt>
      <trkpt lat="46.72867" lon="-2.38685">
        <ele>3</ele>
        <time>2018-09-21T13:43:38.000Z</time>
      </trkpt>
      <trkpt lat="46.72866" lon="-2.38684">
        <ele>3</ele>
        <time>2018-09-21T13:43:39.000Z</time>
      </trkpt>
      <trkpt lat="46.72865" lon="-2.38683">
        <ele>3</ele>
        <time>2018-09-21T13:43:40.000Z</time>
      </trkpt>
      <trkpt lat="46.72864" lon="-2.38682">
        <ele>3</ele>
        <time>2018-09-21T13:43:41.000Z</time>
      </trkpt>
      <trkpt lat="46.72863" lon="-2.38681">
        <ele>3.1</ele>
        <time>2018-09-21T13:43:42.000Z</time>
      </trkpt>
      <trkpt lat="46.72863" lon="-2.38681">
        <ele>3.1</ele>
        <time>2018-09-21T13:43:43.000Z</time>
      </trkpt>
      <trkpt lat="46.72862" lon="-2.3868">
        <ele>3.1</ele>
        <time>2018-09-21T13:43:44.000Z</time>
      </trkpt>
      <trkpt lat="46.72861" lon="-2.38679">
        <ele>3.1</ele>
        <time>2018-09-21T13:43:45.000Z</time>
      </trkpt>
      <trkpt lat="46.7286" lon="-2.38678">
        <ele>3.1</ele>
        <time>2018-09-21T13:43:46.000Z</time>
      </trkpt>
      <trkpt lat="46.72859" lon="-2.38677">
        <ele>3.2</ele>
        <time>2018-09-21T13:43:47.000Z</time>
      </trkpt>
      <trkpt lat="46.72859" lon="-2.38677">
        <ele>3.2</ele>
        <time>2018-09-21T13:43:48.000Z</time>
      </trkpt>
      <trkpt lat="46.72858" lon="-2.38676">
        <ele>3.2</ele>
        <time>2018-09-21T13:43:49.000Z</time>
      </trkpt>
      <trkpt lat="46.72857" lon="-2.38675">
        <ele>3.2</ele>
        <time>2018-09-21T13:43:50.000Z</time>
      </trkpt>
      <trkpt lat="46.72856" lon="-2.38674">
        <ele>3.2</ele>
        <time>2018-09-21T13:43:51.000Z</time>
      </trkpt>
      <trkpt lat="46.72855" lon="-2.38674">
        <ele>3.2</ele>
        <time>2018-09-21T13:43:52.000Z</time>
      </trkpt>
      <trkpt lat="46.72855" lon="-2.38673">
        <ele>3.3</ele>
        <time>2018-09-21T13:43:53.000Z</time>
      </trkpt>
      <trkpt lat="46.72854" lon="-2.38672">
        <ele>3.3</ele>
        <time>2018-09-21T13:43:54.000Z</time>
      </trkpt>
      <trkpt lat="46.72853" lon="-2.38671">
        <ele>3.3</ele>
        <time>2018-09-21T13:43:55.000Z</time>
      </trkpt>
      <trkpt lat="46.72852" lon="-2.38671">
        <ele>3.3</ele>
        <time>2018-09-21T13:43:56.000Z</time>
      </trkpt>
      <trkpt lat="46.72851" lon="-2.3867">
        <ele>3.3</ele>
        <time>2018-09-21T13:43:57.000Z</time>
      </trkpt>
      <trkpt lat="46.7285" lon="-2.3867">
        <ele>3.3</ele>
        <time>2018-09-21T13:43:58.000Z</time>
      </trkpt>
      <trkpt lat="46.72849" lon="-2.38669">
        <ele>3.3</ele>
        <time>2018-09-21T13:43:59.000Z</time>
      </trkpt>
      <trkpt lat="46.72849" lon="-2.38668">
        <ele>3.3</ele>
        <time>2018-09-21T13:44:00.000Z</time>
      </trkpt>
      <trkpt lat="46.72848" lon="-2.38668">
        <ele>3.3</ele>
        <time>2018-09-21T13:44:01.000Z</time>
      </trkpt>
      <trkpt lat="46.72847" lon="-2.38668">
        <ele>3.3</ele>
        <time>2018-09-21T13:44:02.000Z</time>
      </trkpt>
      <trkpt lat="46.72846" lon="-2.38667">
        <ele>3.3</ele>
        <time>2018-09-21T13:44:03.000Z</time>
      </trkpt>
      <trkpt lat="46.72845" lon="-2.38667">
        <ele>3.3</ele>
        <time>2018-09-21T13:44:04.000Z</time>
      </trkpt>
      <trkpt lat="46.72844" lon="-2.38667">
        <ele>3.2</ele>
        <time>2018-09-21T13:44:05.000Z</time>
      </trkpt>
      <trkpt lat="46.72843" lon="-2.38667">
        <ele>3.2</ele>
        <time>2018-09-21T13:44:06.000Z</time>
      </trkpt>
      <trkpt lat="46.72842" lon="-2.38667">
        <ele>3.2</ele>
        <time>2018-09-21T13:44:07.000Z</time>
      </trkpt>
      <trkpt lat="46.72841" lon="-2.38666">
        <ele>3.2</ele>
        <time>2018-09-21T13:44:08.000Z</time>
      </trkpt>
      <trkpt lat="46.7284" lon="-2.38666">
        <ele>3.2</ele>
        <time>2018-09-21T13:44:09.000Z</time>
      </trkpt>
      <trkpt lat="46.72839" lon="-2.38666">
        <ele>3.1</ele>
        <time>2018-09-21T13:44:10.000Z</time>
      </trkpt>
      <trkpt lat="46.72838" lon="-2.38666">
        <ele>3.1</ele>
        <time>2018-09-21T13:44:11.000Z</time>
      </trkpt>
      <trkpt lat="46.72837" lon="-2.38666">
        <ele>3.1</ele>
        <time>2018-09-21T13:44:12.000Z</time>
      </trkpt>
      <trkpt lat="46.72836" lon="-2.38666">
        <ele>3.1</ele>
        <time>2018-09-21T13:44:13.000Z</time>
      </trkpt>
      <trkpt lat="46.72835" lon="-2.38666">
        <ele>3</ele>
        <time>2018-09-21T13:44:14.000Z</time>
      </trkpt>
      <trkpt lat="46.72834" lon="-2.38666">
        <ele>3</ele>
        <time>2018-09-21T13:44:15.000Z</time>
      </trkpt>
      <trkpt lat="46.72833" lon="-2.38666">
        <ele>3</ele>
        <time>2018-09-21T13:44:16.000Z</time>
      </trkpt>
      <trkpt lat="46.72832" lon="-2.38666">
        <ele>3</ele>
        <time>2018-09-21T13:44:17.000Z</time>
      </trkpt>
      <trkpt lat="46.72831" lon="-2.38666">
        <ele>3</ele>
        <time>2018-09-21T13:44:18.000Z</time>
      </trkpt>
      <trkpt lat="46.7283" lon="-2.38666">
        <ele>3</ele>
        <time>2018-09-21T13:44:19.000Z</time>
      </trkpt>
      <trkpt lat="46.72829" lon="-2.38666">
        <ele>3</ele>
        <time>2018-09-21T13:44:20.000Z</time>
      </trkpt>
      <trkpt lat="46.72828" lon="-2.38666">
        <ele>3</ele>
        <time>2018-09-21T13:44:21.000Z</time>
      </trkpt>
      <trkpt lat="46.72826" lon="-2.38665">
        <ele>3</ele>
        <time>2018-09-21T13:44:22.000Z</time>
      </trkpt>
      <trkpt lat="46.72825" lon="-2.38665">
        <ele>3</ele>
        <time>2018-09-21T13:44:23.000Z</time>
      </trkpt>
      <trkpt lat="46.72824" lon="-2.38664">
        <ele>3.1</ele>
        <time>2018-09-21T13:44:24.000Z</time>
      </trkpt>
      <trkpt lat="46.72823" lon="-2.38664">
        <ele>3.1</ele>
        <time>2018-09-21T13:44:25.000Z</time>
      </trkpt>
      <trkpt lat="46.72822" lon="-2.38664">
        <ele>3.1</ele>
        <time>2018-09-21T13:44:26.000Z</time>
      </trkpt>
      <trkpt lat="46.72821" lon="-2.38663">
        <ele>3.1</ele>
        <time>2018-09-21T13:44:27.000Z</time>
      </trkpt>
      <trkpt lat="46.7282" lon="-2.38662">
        <ele>3.1</ele>
        <time>2018-09-21T13:44:28.000Z</time>
      </trkpt>
      <trkpt lat="46.72819" lon="-2.38662">
        <ele>3.1</ele>
        <time>2018-09-21T13:44:29.000Z</time>
      </trkpt>
      <trkpt lat="46.72818" lon="-2.38661">
        <ele>3.1</ele>
        <time>2018-09-21T13:44:30.000Z</time>
      </trkpt>
      <trkpt lat="46.72817" lon="-2.38661">
        <ele>3.1</ele>
        <time>2018-09-21T13:44:31.000Z</time>
      </trkpt>
      <trkpt lat="46.72816" lon="-2.3866">
        <ele>3.1</ele>
        <time>2018-09-21T13:44:32.000Z</time>
      </trkpt>
      <trkpt lat="46.72815" lon="-2.38659">
        <ele>3.2</ele>
        <time>2018-09-21T13:44:33.000Z</time>
      </trkpt>
      <trkpt lat="46.72814" lon="-2.38659">
        <ele>3.2</ele>
        <time>2018-09-21T13:44:34.000Z</time>
      </trkpt>
      <trkpt lat="46.72813" lon="-2.38658">
        <ele>3.2</ele>
        <time>2018-09-21T13:44:35.000Z</time>
      </trkpt>
      <trkpt lat="46.72813" lon="-2.38657">
        <ele>3.2</ele>
        <time>2018-09-21T13:44:36.000Z</time>
      </trkpt>
      <trkpt lat="46.72812" lon="-2.38656">
        <ele>3.2</ele>
        <time>2018-09-21T13:44:37.000Z</time>
      </trkpt>
      <trkpt lat="46.72811" lon="-2.38655">
        <ele>3.2</ele>
        <time>2018-09-21T13:44:38.000Z</time>
      </trkpt>
      <trkpt lat="46.7281" lon="-2.38654">
        <ele>3.3</ele>
        <time>2018-09-21T13:44:39.000Z</time>
      </trkpt>
      <trkpt lat="46.72809" lon="-2.38654">
        <ele>3.3</ele>
        <time>2018-09-21T13:44:40.000Z</time>
      </trkpt>
      <trkpt lat="46.72808" lon="-2.38653">
        <ele>3.3</ele>
        <time>2018-09-21T13:44:41.000Z</time>
      </trkpt>
      <trkpt lat="46.72807" lon="-2.38652">
        <ele>3.3</ele>
        <time>2018-09-21T13:44:42.000Z</time>
      </trkpt>
      <trkpt lat="46.72806" lon="-2.3865">
        <ele>3.3</ele>
        <time>2018-09-21T13:44:43.000Z</time>
      </trkpt>
      <trkpt lat="46.72805" lon="-2.38649">
        <ele>3.3</ele>
        <time>2018-09-21T13:44:44.000Z</time>
      </trkpt>
      <trkpt lat="46.72804" lon="-2.38648">
        <ele>3.4</ele>
        <time>2018-09-21T13:44:45.000Z</time>
      </trkpt>
      <trkpt lat="46.72803" lon="-2.38647">
        <ele>3.4</ele>
        <time>2018-09-21T13:44:46.000Z</time>
      </trkpt>
      <trkpt lat="46.72802" lon="-2.38646">
        <ele>3.4</ele>
        <time>2018-09-21T13:44:47.000Z</time>
      </trkpt>
      <trkpt lat="46.72801" lon="-2.38645">
        <ele>3.4</ele>
        <time>2018-09-21T13:44:48.000Z</time>
      </trkpt>
      <trkpt lat="46.728" lon="-2.38644">
        <ele>3.4</ele>
        <time>2018-09-21T13:44:49.000Z</time>
      </trkpt>
      <trkpt lat="46.72799" lon="-2.38643">
        <ele>3.4</ele>
        <time>2018-09-21T13:44:50.000Z</time>
      </trkpt>
      <trkpt lat="46.72798" lon="-2.38643">
        <ele>3.5</ele>
        <time>2018-09-21T13:44:51.000Z</time>
      </trkpt>
      <trkpt lat="46.72797" lon="-2.38642">
        <ele>3.5</ele>
        <time>2018-09-21T13:44:52.000Z</time>
      </trkpt>
      <trkpt lat="46.72797" lon="-2.38641">
        <ele>3.5</ele>
        <time>2018-09-21T13:44:53.000Z</time>
      </trkpt>
      <trkpt lat="46.72796" lon="-2.3864">
        <ele>3.5</ele>
        <time>2018-09-21T13:44:54.000Z</time>
      </trkpt>
      <trkpt lat="46.72795" lon="-2.3864">
        <ele>3.5</ele>
        <time>2018-09-21T13:44:55.000Z</time>
      </trkpt>
      <trkpt lat="46.72794" lon="-2.38639">
        <ele>3.5</ele>
        <time>2018-09-21T13:44:56.000Z</time>
      </trkpt>
      <trkpt lat="46.72793" lon="-2.38639">
        <ele>3.5</ele>
        <time>2018-09-21T13:44:57.000Z</time>
      </trkpt>
      <trkpt lat="46.72793" lon="-2.38638">
        <ele>3.5</ele>
        <time>2018-09-21T13:44:58.000Z</time>
      </trkpt>
      <trkpt lat="46.72792" lon="-2.38638">
        <ele>3.5</ele>
        <time>2018-09-21T13:44:59.000Z</time>
      </trkpt>
      <trkpt lat="46.72791" lon="-2.38638">
        <ele>3.5</ele>
        <time>2018-09-21T13:45:00.000Z</time>
      </trkpt>
      <trkpt lat="46.7279" lon="-2.38637">
        <ele>3.5</ele>
        <time>2018-09-21T13:45:01.000Z</time>
      </trkpt>
      <trkpt lat="46.72789" lon="-2.38637">
        <ele>3.5</ele>
        <time>2018-09-21T13:45:02.000Z</time>
      </trkpt>
      <trkpt lat="46.72788" lon="-2.38637">
        <ele>3.5</ele>
        <time>2018-09-21T13:45:03.000Z</time>
      </trkpt>
      <trkpt lat="46.72787" lon="-2.38637">
        <ele>3.5</ele>
        <time>2018-09-21T13:45:04.000Z</time>
      </trkpt>
      <trkpt lat="46.72786" lon="-2.38636">
        <ele>3.5</ele>
        <time>2018-09-21T13:45:05.000Z</time>
      </trkpt>
      <trkpt lat="46.72785" lon="-2.38636">
        <ele>3.5</ele>
        <time>2018-09-21T13:45:06.000Z</time>
      </trkpt>
      <trkpt lat="46.72784" lon="-2.38636">
        <ele>3.5</ele>
        <time>2018-09-21T13:45:07.000Z</time>
      </trkpt>
      <trkpt lat="46.72783" lon="-2.38636">
        <ele>3.5</ele>
        <time>2018-09-21T13:45:08.000Z</time>
      </trkpt>
      <trkpt lat="46.72782" lon="-2.38636">
        <ele>3.5</ele>
        <time>2018-09-21T13:45:09.000Z</time>
      </trkpt>
      <trkpt lat="46.72781" lon="-2.38636">
        <ele>3.5</ele>
        <time>2018-09-21T13:45:10.000Z</time>
      </trkpt>
      <trkpt lat="46.7278" lon="-2.38636">
        <ele>3.5</ele>
        <time>2018-09-21T13:45:11.000Z</time>
      </trkpt>
      <trkpt lat="46.72779" lon="-2.38636">
        <ele>3.5</ele>
        <time>2018-09-21T13:45:12.000Z</time>
      </trkpt>
      <trkpt lat="46.72778" lon="-2.38636">
        <ele>3.5</ele>
        <time>2018-09-21T13:45:13.000Z</time>
      </trkpt>
      <trkpt lat="46.72777" lon="-2.38636">
        <ele>3.5</ele>
        <time>2018-09-21T13:45:14.000Z</time>
      </trkpt>
      <trkpt lat="46.72776" lon="-2.38636">
        <ele>3.5</ele>
        <time>2018-09-21T13:45:15.000Z</time>
      </trkpt>
      <trkpt lat="46.72775" lon="-2.38636">
        <ele>3.5</ele>
        <time>2018-09-21T13:45:16.000Z</time>
      </trkpt>
      <trkpt lat="46.72774" lon="-2.38637">
        <ele>3.5</ele>
        <time>2018-09-21T13:45:17.000Z</time>
      </trkpt>
      <trkpt lat="46.72773" lon="-2.38637">
        <ele>3.5</ele>
        <time>2018-09-21T13:45:18.000Z</time>
      </trkpt>
      <trkpt lat="46.72772" lon="-2.38637">
        <ele>3.5</ele>
        <time>2018-09-21T13:45:19.000Z</time>
      </trkpt>
      <trkpt lat="46.72771" lon="-2.38637">
        <ele>3.4</ele>
        <time>2018-09-21T13:45:20.000Z</time>
      </trkpt>
      <trkpt lat="46.7277" lon="-2.38637">
        <ele>3.4</ele>
        <time>2018-09-21T13:45:21.000Z</time>
      </trkpt>
      <trkpt lat="46.72769" lon="-2.38637">
        <ele>3.4</ele>
        <time>2018-09-21T13:45:22.000Z</time>
      </trkpt>
      <trkpt lat="46.72768" lon="-2.38637">
        <ele>3.4</ele>
        <time>2018-09-21T13:45:23.000Z</time>
      </trkpt>
      <trkpt lat="46.72767" lon="-2.38637">
        <ele>3.4</ele>
        <time>2018-09-21T13:45:24.000Z</time>
      </trkpt>
      <trkpt lat="46.72766" lon="-2.38637">
        <ele>3.4</ele>
        <time>2018-09-21T13:45:25.000Z</time>
      </trkpt>
      <trkpt lat="46.72765" lon="-2.38637">
        <ele>3.4</ele>
        <time>2018-09-21T13:45:26.000Z</time>
      </trkpt>
      <trkpt lat="46.72764" lon="-2.38637">
        <ele>3.4</ele>
        <time>2018-09-21T13:45:27.000Z</time>
      </trkpt>
      <trkpt lat="46.72763" lon="-2.38637">
        <ele>3.4</ele>
        <time>2018-09-21T13:45:28.000Z</time>
      </trkpt>
      <trkpt lat="46.72762" lon="-2.38637">
        <ele>3.4</ele>
        <time>2018-09-21T13:45:29.000Z</time>
      </trkpt>
      <trkpt lat="46.72762" lon="-2.38637">
        <ele>3.4</ele>
        <time>2018-09-21T13:45:30.000Z</time>
      </trkpt>
      <trkpt lat="46.72761" lon="-2.38636">
        <ele>3.4</ele>
        <time>2018-09-21T13:45:31.000Z</time>
      </trkpt>
      <trkpt lat="46.7276" lon="-2.38636">
        <ele>3.4</ele>
        <time>2018-09-21T13:45:32.000Z</time>
      </trkpt>
      <trkpt lat="46.72759" lon="-2.38636">
        <ele>3.4</ele>
        <time>2018-09-21T13:45:33.000Z</time>
      </trkpt>
      <trkpt lat="46.72758" lon="-2.38636">
        <ele>3.4</ele>
        <time>2018-09-21T13:45:34.000Z</time>
      </trkpt>
      <trkpt lat="46.72757" lon="-2.38636">
        <ele>3.4</ele>
        <time>2018-09-21T13:45:35.000Z</time>
      </trkpt>
      <trkpt lat="46.72756" lon="-2.38635">
        <ele>3.4</ele>
        <time>2018-09-21T13:45:36.000Z</time>
      </trkpt>
      <trkpt lat="46.72755" lon="-2.38635">
        <ele>3.4</ele>
        <time>2018-09-21T13:45:37.000Z</time>
      </trkpt>
      <trkpt lat="46.72754" lon="-2.38635">
        <ele>3.4</ele>
        <time>2018-09-21T13:45:38.000Z</time>
      </trkpt>
      <trkpt lat="46.72753" lon="-2.38635">
        <ele>3.4</ele>
        <time>2018-09-21T13:45:39.000Z</time>
      </trkpt>
      <trkpt lat="46.72753" lon="-2.38634">
        <ele>3.4</ele>
        <time>2018-09-21T13:45:40.000Z</time>
      </trkpt>
      <trkpt lat="46.72752" lon="-2.38634">
        <ele>3.4</ele>
        <time>2018-09-21T13:45:41.000Z</time>
      </trkpt>
      <trkpt lat="46.72751" lon="-2.38633">
        <ele>3.4</ele>
        <time>2018-09-21T13:45:42.000Z</time>
      </trkpt>
      <trkpt lat="46.7275" lon="-2.38633">
        <ele>3.4</ele>
        <time>2018-09-21T13:45:43.000Z</time>
      </trkpt>
      <trkpt lat="46.72749" lon="-2.38633">
        <ele>3.4</ele>
        <time>2018-09-21T13:45:44.000Z</time>
      </trkpt>
      <trkpt lat="46.72748" lon="-2.38632">
        <ele>3.4</ele>
        <time>2018-09-21T13:45:45.000Z</time>
      </trkpt>
      <trkpt lat="46.72747" lon="-2.38632">
        <ele>3.4</ele>
        <time>2018-09-21T13:45:46.000Z</time>
      </trkpt>
      <trkpt lat="46.72747" lon="-2.38632">
        <ele>3.5</ele>
        <time>2018-09-21T13:45:47.000Z</time>
      </trkpt>
      <trkpt lat="46.72746" lon="-2.38631">
        <ele>3.5</ele>
        <time>2018-09-21T13:45:48.000Z</time>
      </trkpt>
      <trkpt lat="46.72745" lon="-2.38631">
        <ele>3.5</ele>
        <time>2018-09-21T13:45:49.000Z</time>
      </trkpt>
      <trkpt lat="46.72744" lon="-2.38631">
        <ele>3.5</ele>
        <time>2018-09-21T13:45:50.000Z</time>
      </trkpt>
      <trkpt lat="46.72744" lon="-2.38631">
        <ele>3.5</ele>
        <time>2018-09-21T13:45:51.000Z</time>
      </trkpt>
      <trkpt lat="46.72743" lon="-2.3863">
        <ele>3.5</ele>
        <time>2018-09-21T13:45:52.000Z</time>
      </trkpt>
      <trkpt lat="46.72742" lon="-2.3863">
        <ele>3.5</ele>
        <time>2018-09-21T13:45:53.000Z</time>
      </trkpt>
      <trkpt lat="46.72741" lon="-2.3863">
        <ele>3.5</ele>
        <time>2018-09-21T13:45:54.000Z</time>
      </trkpt>
      <trkpt lat="46.72741" lon="-2.3863">
        <ele>3.6</ele>
        <time>2018-09-21T13:45:55.000Z</time>
      </trkpt>
      <trkpt lat="46.7274" lon="-2.3863">
        <ele>3.6</ele>
        <time>2018-09-21T13:45:56.000Z</time>
      </trkpt>
      <trkpt lat="46.72739" lon="-2.3863">
        <ele>3.6</ele>
        <time>2018-09-21T13:45:57.000Z</time>
      </trkpt>
      <trkpt lat="46.72738" lon="-2.3863">
        <ele>3.6</ele>
        <time>2018-09-21T13:45:58.000Z</time>
      </trkpt>
      <trkpt lat="46.72737" lon="-2.3863">
        <ele>3.6</ele>
        <time>2018-09-21T13:45:59.000Z</time>
      </trkpt>
      <trkpt lat="46.72736" lon="-2.3863">
        <ele>3.6</ele>
        <time>2018-09-21T13:46:00.000Z</time>
      </trkpt>
      <trkpt lat="46.72736" lon="-2.3863">
        <ele>3.6</ele>
        <time>2018-09-21T13:46:01.000Z</time>
      </trkpt>
      <trkpt lat="46.72735" lon="-2.38631">
        <ele>3.6</ele>
        <time>2018-09-21T13:46:02.000Z</time>
      </trkpt>
      <trkpt lat="46.72734" lon="-2.38631">
        <ele>3.6</ele>
        <time>2018-09-21T13:46:03.000Z</time>
      </trkpt>
      <trkpt lat="46.72733" lon="-2.38631">
        <ele>3.6</ele>
        <time>2018-09-21T13:46:04.000Z</time>
      </trkpt>
      <trkpt lat="46.72732" lon="-2.38631">
        <ele>3.6</ele>
        <time>2018-09-21T13:46:05.000Z</time>
      </trkpt>
      <trkpt lat="46.72731" lon="-2.38632">
        <ele>3.6</ele>
        <time>2018-09-21T13:46:06.000Z</time>
      </trkpt>
      <trkpt lat="46.7273" lon="-2.38632">
        <ele>3.7</ele>
        <time>2018-09-21T13:46:07.000Z</time>
      </trkpt>
      <trkpt lat="46.72729" lon="-2.38633">
        <ele>3.7</ele>
        <time>2018-09-21T13:46:08.000Z</time>
      </trkpt>
      <trkpt lat="46.72728" lon="-2.38633">
        <ele>3.7</ele>
        <time>2018-09-21T13:46:09.000Z</time>
      </trkpt>
      <trkpt lat="46.72727" lon="-2.38634">
        <ele>3.7</ele>
        <time>2018-09-21T13:46:10.000Z</time>
      </trkpt>
      <trkpt lat="46.72727" lon="-2.38634">
        <ele>3.7</ele>
        <time>2018-09-21T13:46:11.000Z</time>
      </trkpt>
      <trkpt lat="46.72726" lon="-2.38635">
        <ele>3.7</ele>
        <time>2018-09-21T13:46:12.000Z</time>
      </trkpt>
      <trkpt lat="46.72725" lon="-2.38635">
        <ele>3.7</ele>
        <time>2018-09-21T13:46:13.000Z</time>
      </trkpt>
      <trkpt lat="46.72724" lon="-2.38636">
        <ele>3.7</ele>
        <time>2018-09-21T13:46:14.000Z</time>
      </trkpt>
      <trkpt lat="46.72723" lon="-2.38637">
        <ele>3.7</ele>
        <time>2018-09-21T13:46:15.000Z</time>
      </trkpt>
      <trkpt lat="46.72723" lon="-2.38637">
        <ele>3.7</ele>
        <time>2018-09-21T13:46:16.000Z</time>
      </trkpt>
      <trkpt lat="46.72722" lon="-2.38638">
        <ele>3.7</ele>
        <time>2018-09-21T13:46:17.000Z</time>
      </trkpt>
      <trkpt lat="46.72721" lon="-2.38639">
        <ele>3.7</ele>
        <time>2018-09-21T13:46:18.000Z</time>
      </trkpt>
      <trkpt lat="46.7272" lon="-2.3864">
        <ele>3.7</ele>
        <time>2018-09-21T13:46:19.000Z</time>
      </trkpt>
      <trkpt lat="46.7272" lon="-2.3864">
        <ele>3.7</ele>
        <time>2018-09-21T13:46:20.000Z</time>
      </trkpt>
      <trkpt lat="46.72719" lon="-2.38641">
        <ele>3.7</ele>
        <time>2018-09-21T13:46:21.000Z</time>
      </trkpt>
      <trkpt lat="46.72718" lon="-2.38642">
        <ele>3.7</ele>
        <time>2018-09-21T13:46:22.000Z</time>
      </trkpt>
      <trkpt lat="46.72718" lon="-2.38643">
        <ele>3.7</ele>
        <time>2018-09-21T13:46:23.000Z</time>
      </trkpt>
      <trkpt lat="46.72717" lon="-2.38644">
        <ele>3.7</ele>
        <time>2018-09-21T13:46:24.000Z</time>
      </trkpt>
      <trkpt lat="46.72716" lon="-2.38644">
        <ele>3.7</ele>
        <time>2018-09-21T13:46:25.000Z</time>
      </trkpt>
      <trkpt lat="46.72715" lon="-2.38645">
        <ele>3.7</ele>
        <time>2018-09-21T13:46:26.000Z</time>
      </trkpt>
      <trkpt lat="46.72715" lon="-2.38646">
        <ele>3.7</ele>
        <time>2018-09-21T13:46:27.000Z</time>
      </trkpt>
      <trkpt lat="46.72714" lon="-2.38647">
        <ele>3.7</ele>
        <time>2018-09-21T13:46:28.000Z</time>
      </trkpt>
      <trkpt lat="46.72713" lon="-2.38648">
        <ele>3.7</ele>
        <time>2018-09-21T13:46:29.000Z</time>
      </trkpt>
      <trkpt lat="46.72713" lon="-2.38648">
        <ele>3.7</ele>
        <time>2018-09-21T13:46:30.000Z</time>
      </trkpt>
      <trkpt lat="46.72712" lon="-2.38649">
        <ele>3.7</ele>
        <time>2018-09-21T13:46:31.000Z</time>
      </trkpt>
      <trkpt lat="46.72711" lon="-2.3865">
        <ele>3.7</ele>
        <time>2018-09-21T13:46:32.000Z</time>
      </trkpt>
      <trkpt lat="46.7271" lon="-2.38651">
        <ele>3.7</ele>
        <time>2018-09-21T13:46:33.000Z</time>
      </trkpt>
      <trkpt lat="46.7271" lon="-2.38652">
        <ele>3.7</ele>
        <time>2018-09-21T13:46:34.000Z</time>
      </trkpt>
      <trkpt lat="46.72709" lon="-2.38653">
        <ele>3.7</ele>
        <time>2018-09-21T13:46:35.000Z</time>
      </trkpt>
      <trkpt lat="46.72708" lon="-2.38654">
        <ele>3.6</ele>
        <time>2018-09-21T13:46:36.000Z</time>
      </trkpt>
      <trkpt lat="46.72708" lon="-2.38655">
        <ele>3.6</ele>
        <time>2018-09-21T13:46:37.000Z</time>
      </trkpt>
      <trkpt lat="46.72707" lon="-2.38657">
        <ele>3.6</ele>
        <time>2018-09-21T13:46:38.000Z</time>
      </trkpt>
      <trkpt lat="46.72706" lon="-2.38658">
        <ele>3.6</ele>
        <time>2018-09-21T13:46:39.000Z</time>
      </trkpt>
      <trkpt lat="46.72706" lon="-2.38659">
        <ele>3.6</ele>
        <time>2018-09-21T13:46:40.000Z</time>
      </trkpt>
      <trkpt lat="46.72705" lon="-2.3866">
        <ele>3.6</ele>
        <time>2018-09-21T13:46:41.000Z</time>
      </trkpt>
      <trkpt lat="46.72705" lon="-2.38661">
        <ele>3.6</ele>
        <time>2018-09-21T13:46:42.000Z</time>
      </trkpt>
      <trkpt lat="46.72704" lon="-2.38662">
        <ele>3.6</ele>
        <time>2018-09-21T13:46:43.000Z</time>
      </trkpt>
      <trkpt lat="46.72703" lon="-2.38664">
        <ele>3.6</ele>
        <time>2018-09-21T13:46:44.000Z</time>
      </trkpt>
      <trkpt lat="46.72703" lon="-2.38665">
        <ele>3.6</ele>
        <time>2018-09-21T13:46:45.000Z</time>
      </trkpt>
      <trkpt lat="46.72702" lon="-2.38666">
        <ele>3.6</ele>
        <time>2018-09-21T13:46:46.000Z</time>
      </trkpt>
      <trkpt lat="46.72701" lon="-2.38667">
        <ele>3.6</ele>
        <time>2018-09-21T13:46:47.000Z</time>
      </trkpt>
      <trkpt lat="46.72701" lon="-2.38668">
        <ele>3.6</ele>
        <time>2018-09-21T13:46:48.000Z</time>
      </trkpt>
      <trkpt lat="46.727" lon="-2.38669">
        <ele>3.6</ele>
        <time>2018-09-21T13:46:49.000Z</time>
      </trkpt>
      <trkpt lat="46.727" lon="-2.3867">
        <ele>3.6</ele>
        <time>2018-09-21T13:46:50.000Z</time>
      </trkpt>
      <trkpt lat="46.72699" lon="-2.38672">
        <ele>3.6</ele>
        <time>2018-09-21T13:46:51.000Z</time>
      </trkpt>
      <trkpt lat="46.72698" lon="-2.38673">
        <ele>3.6</ele>
        <time>2018-09-21T13:46:52.000Z</time>
      </trkpt>
      <trkpt lat="46.72698" lon="-2.38674">
        <ele>3.6</ele>
        <time>2018-09-21T13:46:53.000Z</time>
      </trkpt>
      <trkpt lat="46.72697" lon="-2.38675">
        <ele>3.6</ele>
        <time>2018-09-21T13:46:54.000Z</time>
      </trkpt>
      <trkpt lat="46.72697" lon="-2.38676">
        <ele>3.6</ele>
        <time>2018-09-21T13:46:55.000Z</time>
      </trkpt>
      <trkpt lat="46.72696" lon="-2.38678">
        <ele>3.6</ele>
        <time>2018-09-21T13:46:56.000Z</time>
      </trkpt>
      <trkpt lat="46.72696" lon="-2.38679">
        <ele>3.6</ele>
        <time>2018-09-21T13:46:57.000Z</time>
      </trkpt>
      <trkpt lat="46.72695" lon="-2.3868">
        <ele>3.7</ele>
        <time>2018-09-21T13:46:58.000Z</time>
      </trkpt>
      <trkpt lat="46.72695" lon="-2.38682">
        <ele>3.7</ele>
        <time>2018-09-21T13:46:59.000Z</time>
      </trkpt>
      <trkpt lat="46.72694" lon="-2.38683">
        <ele>3.7</ele>
        <time>2018-09-21T13:47:00.000Z</time>
      </trkpt>
      <trkpt lat="46.72694" lon="-2.38684">
        <ele>3.7</ele>
        <time>2018-09-21T13:47:01.000Z</time>
      </trkpt>
      <trkpt lat="46.72694" lon="-2.38686">
        <ele>3.7</ele>
        <time>2018-09-21T13:47:02.000Z</time>
      </trkpt>
      <trkpt lat="46.72693" lon="-2.38687">
        <ele>3.7</ele>
        <time>2018-09-21T13:47:03.000Z</time>
      </trkpt>
      <trkpt lat="46.72693" lon="-2.38689">
        <ele>3.7</ele>
        <time>2018-09-21T13:47:04.000Z</time>
      </trkpt>
      <trkpt lat="46.72693" lon="-2.3869">
        <ele>3.7</ele>
        <time>2018-09-21T13:47:05.000Z</time>
      </trkpt>
      <trkpt lat="46.72693" lon="-2.38692">
        <ele>3.7</ele>
        <time>2018-09-21T13:47:06.000Z</time>
      </trkpt>
      <trkpt lat="46.72693" lon="-2.38694">
        <ele>3.7</ele>
        <time>2018-09-21T13:47:07.000Z</time>
      </trkpt>
      <trkpt lat="46.72693" lon="-2.38695">
        <ele>3.7</ele>
        <time>2018-09-21T13:47:08.000Z</time>
      </trkpt>
      <trkpt lat="46.72693" lon="-2.38697">
        <ele>3.7</ele>
        <time>2018-09-21T13:47:09.000Z</time>
      </trkpt>
      <trkpt lat="46.72693" lon="-2.38698">
        <ele>3.7</ele>
        <time>2018-09-21T13:47:10.000Z</time>
      </trkpt>
      <trkpt lat="46.72693" lon="-2.387">
        <ele>3.7</ele>
        <time>2018-09-21T13:47:11.000Z</time>
      </trkpt>
      <trkpt lat="46.72693" lon="-2.38702">
        <ele>3.7</ele>
        <time>2018-09-21T13:47:12.000Z</time>
      </trkpt>
      <trkpt lat="46.72693" lon="-2.38703">
        <ele>3.7</ele>
        <time>2018-09-21T13:47:13.000Z</time>
      </trkpt>
      <trkpt lat="46.72693" lon="-2.38705">
        <ele>3.7</ele>
        <time>2018-09-21T13:47:14.000Z</time>
      </trkpt>
      <trkpt lat="46.72693" lon="-2.38706">
        <ele>3.7</ele>
        <time>2018-09-21T13:47:15.000Z</time>
      </trkpt>
      <trkpt lat="46.72693" lon="-2.38708">
        <ele>3.7</ele>
        <time>2018-09-21T13:47:16.000Z</time>
      </trkpt>
      <trkpt lat="46.72694" lon="-2.38709">
        <ele>3.7</ele>
        <time>2018-09-21T13:47:17.000Z</time>
      </trkpt>
      <trkpt lat="46.72694" lon="-2.38711">
        <ele>3.7</ele>
        <time>2018-09-21T13:47:18.000Z</time>
      </trkpt>
      <trkpt lat="46.72694" lon="-2.38712">
        <ele>3.7</ele>
        <time>2018-09-21T13:47:19.000Z</time>
      </trkpt>
      <trkpt lat="46.72695" lon="-2.38714">
        <ele>3.7</ele>
        <time>2018-09-21T13:47:20.000Z</time>
      </trkpt>
      <trkpt lat="46.72695" lon="-2.38715">
        <ele>3.6</ele>
        <time>2018-09-21T13:47:21.000Z</time>
      </trkpt>
      <trkpt lat="46.72695" lon="-2.38716">
        <ele>3.6</ele>
        <time>2018-09-21T13:47:22.000Z</time>
      </trkpt>
      <trkpt lat="46.72696" lon="-2.38717">
        <ele>3.6</ele>
        <time>2018-09-21T13:47:23.000Z</time>
      </trkpt>
      <trkpt lat="46.72696" lon="-2.38719">
        <ele>3.6</ele>
        <time>2018-09-21T13:47:24.000Z</time>
      </trkpt>
      <trkpt lat="46.72697" lon="-2.3872">
        <ele>3.6</ele>
        <time>2018-09-21T13:47:25.000Z</time>
      </trkpt>
      <trkpt lat="46.72697" lon="-2.38721">
        <ele>3.6</ele>
        <time>2018-09-21T13:47:26.000Z</time>
      </trkpt>
      <trkpt lat="46.72698" lon="-2.38722">
        <ele>3.5</ele>
        <time>2018-09-21T13:47:27.000Z</time>
      </trkpt>
      <trkpt lat="46.72698" lon="-2.38723">
        <ele>3.5</ele>
        <time>2018-09-21T13:47:28.000Z</time>
      </trkpt>
      <trkpt lat="46.72699" lon="-2.38724">
        <ele>3.5</ele>
        <time>2018-09-21T13:47:29.000Z</time>
      </trkpt>
      <trkpt lat="46.72699" lon="-2.38725">
        <ele>3.5</ele>
        <time>2018-09-21T13:47:30.000Z</time>
      </trkpt>
      <trkpt lat="46.72699" lon="-2.38726">
        <ele>3.5</ele>
        <time>2018-09-21T13:47:31.000Z</time>
      </trkpt>
      <trkpt lat="46.727" lon="-2.38727">
        <ele>3.5</ele>
        <time>2018-09-21T13:47:32.000Z</time>
      </trkpt>
      <trkpt lat="46.727" lon="-2.38729">
        <ele>3.5</ele>
        <time>2018-09-21T13:47:33.000Z</time>
      </trkpt>
      <trkpt lat="46.727" lon="-2.3873">
        <ele>3.4</ele>
        <time>2018-09-21T13:47:34.000Z</time>
      </trkpt>
      <trkpt lat="46.72701" lon="-2.38731">
        <ele>3.4</ele>
        <time>2018-09-21T13:47:35.000Z</time>
      </trkpt>
      <trkpt lat="46.72701" lon="-2.38732">
        <ele>3.4</ele>
        <time>2018-09-21T13:47:36.000Z</time>
      </trkpt>
      <trkpt lat="46.72701" lon="-2.38733">
        <ele>3.4</ele>
        <time>2018-09-21T13:47:37.000Z</time>
      </trkpt>
      <trkpt lat="46.72701" lon="-2.38735">
        <ele>3.4</ele>
        <time>2018-09-21T13:47:38.000Z</time>
      </trkpt>
      <trkpt lat="46.72701" lon="-2.38736">
        <ele>3.4</ele>
        <time>2018-09-21T13:47:39.000Z</time>
      </trkpt>
      <trkpt lat="46.72701" lon="-2.38737">
        <ele>3.4</ele>
        <time>2018-09-21T13:47:40.000Z</time>
      </trkpt>
      <trkpt lat="46.72701" lon="-2.38739">
        <ele>3.4</ele>
        <time>2018-09-21T13:47:41.000Z</time>
      </trkpt>
      <trkpt lat="46.72702" lon="-2.3874">
        <ele>3.4</ele>
        <time>2018-09-21T13:47:42.000Z</time>
      </trkpt>
      <trkpt lat="46.72702" lon="-2.38742">
        <ele>3.4</ele>
        <time>2018-09-21T13:47:43.000Z</time>
      </trkpt>
      <trkpt lat="46.72702" lon="-2.38744">
        <ele>3.3</ele>
        <time>2018-09-21T13:47:44.000Z</time>
      </trkpt>
      <trkpt lat="46.72702" lon="-2.38745">
        <ele>3.3</ele>
        <time>2018-09-21T13:47:45.000Z</time>
      </trkpt>
      <trkpt lat="46.72702" lon="-2.38747">
        <ele>3.3</ele>
        <time>2018-09-21T13:47:46.000Z</time>
      </trkpt>
      <trkpt lat="46.72702" lon="-2.38748">
        <ele>3.3</ele>
        <time>2018-09-21T13:47:47.000Z</time>
      </trkpt>
      <trkpt lat="46.72702" lon="-2.38749">
        <ele>3.3</ele>
        <time>2018-09-21T13:47:48.000Z</time>
      </trkpt>
      <trkpt lat="46.72701" lon="-2.3875">
        <ele>3.3</ele>
        <time>2018-09-21T13:47:49.000Z</time>
      </trkpt>
      <trkpt lat="46.72701" lon="-2.38751">
        <ele>3.3</ele>
        <time>2018-09-21T13:47:50.000Z</time>
      </trkpt>
      <trkpt lat="46.72701" lon="-2.38752">
        <ele>3.3</ele>
        <time>2018-09-21T13:47:51.000Z</time>
      </trkpt>
      <trkpt lat="46.72701" lon="-2.38752">
        <ele>3.3</ele>
        <time>2018-09-21T13:47:52.000Z</time>
      </trkpt>
      <trkpt lat="46.72701" lon="-2.38753">
        <ele>3.3</ele>
        <time>2018-09-21T13:47:53.000Z</time>
      </trkpt>
      <trkpt lat="46.72701" lon="-2.38753">
        <ele>3.3</ele>
        <time>2018-09-21T13:47:54.000Z</time>
      </trkpt>
      <trkpt lat="46.72701" lon="-2.38753">
        <ele>3.3</ele>
        <time>2018-09-21T13:47:55.000Z</time>
      </trkpt>
      <trkpt lat="46.72701" lon="-2.38754">
        <ele>3.3</ele>
        <time>2018-09-21T13:47:56.000Z</time>
      </trkpt>
      <trkpt lat="46.72701" lon="-2.38754">
        <ele>3.4</ele>
        <time>2018-09-21T13:47:57.000Z</time>
      </trkpt>
      <trkpt lat="46.72701" lon="-2.38754">
        <ele>3.4</ele>
        <time>2018-09-21T13:47:58.000Z</time>
      </trkpt>
      <trkpt lat="46.72701" lon="-2.38754">
        <ele>3.4</ele>
        <time>2018-09-21T13:47:59.000Z</time>
      </trkpt>
      <trkpt lat="46.72701" lon="-2.38755">
        <ele>3.4</ele>
        <time>2018-09-21T13:48:00.000Z</time>
      </trkpt>
      <trkpt lat="46.72701" lon="-2.38755">
        <ele>3.4</ele>
        <time>2018-09-21T13:48:01.000Z</time>
      </trkpt>
      <trkpt lat="46.72701" lon="-2.38756">
        <ele>3.3</ele>
        <time>2018-09-21T13:48:02.000Z</time>
      </trkpt>
      <trkpt lat="46.72701" lon="-2.38756">
        <ele>3.3</ele>
        <time>2018-09-21T13:48:03.000Z</time>
      </trkpt>
      <trkpt lat="46.72701" lon="-2.38757">
        <ele>3.3</ele>
        <time>2018-09-21T13:48:04.000Z</time>
      </trkpt>
      <trkpt lat="46.72702" lon="-2.38758">
        <ele>3.3</ele>
        <time>2018-09-21T13:48:05.000Z</time>
      </trkpt>
      <trkpt lat="46.72702" lon="-2.38758">
        <ele>3.3</ele>
        <time>2018-09-21T13:48:06.000Z</time>
      </trkpt>
      <trkpt lat="46.72702" lon="-2.38759">
        <ele>3.3</ele>
        <time>2018-09-21T13:48:07.000Z</time>
      </trkpt>
      <trkpt lat="46.72702" lon="-2.3876">
        <ele>3.3</ele>
        <time>2018-09-21T13:48:08.000Z</time>
      </trkpt>
      <trkpt lat="46.72702" lon="-2.38761">
        <ele>3.4</ele>
        <time>2018-09-21T13:48:09.000Z</time>
      </trkpt>
      <trkpt lat="46.72702" lon="-2.38763">
        <ele>3.4</ele>
        <time>2018-09-21T13:48:10.000Z</time>
      </trkpt>
      <trkpt lat="46.72701" lon="-2.38764">
        <ele>3.4</ele>
        <time>2018-09-21T13:48:11.000Z</time>
      </trkpt>
      <trkpt lat="46.72701" lon="-2.38765">
        <ele>3.4</ele>
        <time>2018-09-21T13:48:12.000Z</time>
      </trkpt>
      <trkpt lat="46.72701" lon="-2.38766">
        <ele>3.4</ele>
        <time>2018-09-21T13:48:13.000Z</time>
      </trkpt>
      <trkpt lat="46.72701" lon="-2.38768">
        <ele>3.4</ele>
        <time>2018-09-21T13:48:14.000Z</time>
      </trkpt>
      <trkpt lat="46.72701" lon="-2.38769">
        <ele>3.4</ele>
        <time>2018-09-21T13:48:15.000Z</time>
      </trkpt>
      <trkpt lat="46.72701" lon="-2.3877">
        <ele>3.4</ele>
        <time>2018-09-21T13:48:16.000Z</time>
      </trkpt>
      <trkpt lat="46.72701" lon="-2.38771">
        <ele>3.4</ele>
        <time>2018-09-21T13:48:17.000Z</time>
      </trkpt>
      <trkpt lat="46.72701" lon="-2.38772">
        <ele>3.4</ele>
        <time>2018-09-21T13:48:18.000Z</time>
      </trkpt>
      <trkpt lat="46.72701" lon="-2.38772">
        <ele>3.4</ele>
        <time>2018-09-21T13:48:19.000Z</time>
      </trkpt>
      <trkpt lat="46.72701" lon="-2.38773">
        <ele>3.4</ele>
        <time>2018-09-21T13:48:20.000Z</time>
      </trkpt>
      <trkpt lat="46.72701" lon="-2.38773">
        <ele>3.4</ele>
        <time>2018-09-21T13:48:21.000Z</time>
      </trkpt>
      <trkpt lat="46.72701" lon="-2.38774">
        <ele>3.4</ele>
        <time>2018-09-21T13:48:22.000Z</time>
      </trkpt>
      <trkpt lat="46.72701" lon="-2.38774">
        <ele>3.4</ele>
        <time>2018-09-21T13:48:23.000Z</time>
      </trkpt>
      <trkpt lat="46.72701" lon="-2.38775">
        <ele>3.4</ele>
        <time>2018-09-21T13:48:24.000Z</time>
      </trkpt>
      <trkpt lat="46.72701" lon="-2.38776">
        <ele>3.4</ele>
        <time>2018-09-21T13:48:25.000Z</time>
      </trkpt>
      <trkpt lat="46.72701" lon="-2.38777">
        <ele>3.4</ele>
        <time>2018-09-21T13:48:26.000Z</time>
      </trkpt>
      <trkpt lat="46.72701" lon="-2.38778">
        <ele>3.4</ele>
        <time>2018-09-21T13:48:27.000Z</time>
      </trkpt>
      <trkpt lat="46.72701" lon="-2.38778">
        <ele>3.4</ele>
        <time>2018-09-21T13:48:28.000Z</time>
      </trkpt>
      <trkpt lat="46.727" lon="-2.38779">
        <ele>3.5</ele>
        <time>2018-09-21T13:48:29.000Z</time>
      </trkpt>
      <trkpt lat="46.727" lon="-2.3878">
        <ele>3.5</ele>
        <time>2018-09-21T13:48:30.000Z</time>
      </trkpt>
      <trkpt lat="46.72699" lon="-2.3878">
        <ele>3.5</ele>
        <time>2018-09-21T13:48:31.000Z</time>
      </trkpt>
      <trkpt lat="46.72699" lon="-2.38781">
        <ele>3.5</ele>
        <time>2018-09-21T13:48:32.000Z</time>
      </trkpt>
      <trkpt lat="46.72699" lon="-2.38781">
        <ele>3.6</ele>
        <time>2018-09-21T13:48:33.000Z</time>
      </trkpt>
      <trkpt lat="46.72698" lon="-2.38782">
        <ele>3.6</ele>
        <time>2018-09-21T13:48:34.000Z</time>
      </trkpt>
      <trkpt lat="46.72698" lon="-2.38783">
        <ele>3.6</ele>
        <time>2018-09-21T13:48:35.000Z</time>
      </trkpt>
      <trkpt lat="46.72698" lon="-2.38783">
        <ele>3.6</ele>
        <time>2018-09-21T13:48:36.000Z</time>
      </trkpt>
      <trkpt lat="46.72697" lon="-2.38784">
        <ele>3.6</ele>
        <time>2018-09-21T13:48:37.000Z</time>
      </trkpt>
      <trkpt lat="46.72697" lon="-2.38785">
        <ele>3.7</ele>
        <time>2018-09-21T13:48:38.000Z</time>
      </trkpt>
      <trkpt lat="46.72697" lon="-2.38785">
        <ele>3.7</ele>
        <time>2018-09-21T13:48:39.000Z</time>
      </trkpt>
      <trkpt lat="46.72697" lon="-2.38786">
        <ele>3.7</ele>
        <time>2018-09-21T13:48:40.000Z</time>
      </trkpt>
      <trkpt lat="46.72697" lon="-2.38787">
        <ele>3.7</ele>
        <time>2018-09-21T13:48:41.000Z</time>
      </trkpt>
      <trkpt lat="46.72697" lon="-2.38788">
        <ele>3.7</ele>
        <time>2018-09-21T13:48:42.000Z</time>
      </trkpt>
      <trkpt lat="46.72697" lon="-2.38789">
        <ele>3.7</ele>
        <time>2018-09-21T13:48:43.000Z</time>
      </trkpt>
      <trkpt lat="46.72697" lon="-2.38789">
        <ele>3.7</ele>
        <time>2018-09-21T13:48:44.000Z</time>
      </trkpt>
      <trkpt lat="46.72697" lon="-2.3879">
        <ele>3.7</ele>
        <time>2018-09-21T13:48:45.000Z</time>
      </trkpt>
      <trkpt lat="46.72697" lon="-2.38791">
        <ele>3.7</ele>
        <time>2018-09-21T13:48:46.000Z</time>
      </trkpt>
      <trkpt lat="46.72697" lon="-2.38791">
        <ele>3.7</ele>
        <time>2018-09-21T13:48:47.000Z</time>
      </trkpt>
      <trkpt lat="46.72697" lon="-2.38792">
        <ele>3.7</ele>
        <time>2018-09-21T13:48:48.000Z</time>
      </trkpt>
      <trkpt lat="46.72697" lon="-2.38792">
        <ele>3.7</ele>
        <time>2018-09-21T13:48:49.000Z</time>
      </trkpt>
      <trkpt lat="46.72697" lon="-2.38793">
        <ele>3.7</ele>
        <time>2018-09-21T13:48:50.000Z</time>
      </trkpt>
      <trkpt lat="46.72697" lon="-2.38794">
        <ele>3.7</ele>
        <time>2018-09-21T13:48:51.000Z</time>
      </trkpt>
      <trkpt lat="46.72697" lon="-2.38794">
        <ele>3.7</ele>
        <time>2018-09-21T13:48:52.000Z</time>
      </trkpt>
      <trkpt lat="46.72697" lon="-2.38795">
        <ele>3.7</ele>
        <time>2018-09-21T13:48:53.000Z</time>
      </trkpt>
      <trkpt lat="46.72697" lon="-2.38795">
        <ele>3.7</ele>
        <time>2018-09-21T13:48:54.000Z</time>
      </trkpt>
      <trkpt lat="46.72697" lon="-2.38796">
        <ele>3.7</ele>
        <time>2018-09-21T13:48:55.000Z</time>
      </trkpt>
      <trkpt lat="46.72697" lon="-2.38797">
        <ele>3.7</ele>
        <time>2018-09-21T13:48:56.000Z</time>
      </trkpt>
      <trkpt lat="46.72697" lon="-2.38798">
        <ele>3.7</ele>
        <time>2018-09-21T13:48:57.000Z</time>
      </trkpt>
      <trkpt lat="46.72697" lon="-2.38799">
        <ele>3.7</ele>
        <time>2018-09-21T13:48:58.000Z</time>
      </trkpt>
      <trkpt lat="46.72696" lon="-2.388">
        <ele>3.7</ele>
        <time>2018-09-21T13:48:59.000Z</time>
      </trkpt>
      <trkpt lat="46.72696" lon="-2.38801">
        <ele>3.8</ele>
        <time>2018-09-21T13:49:00.000Z</time>
      </trkpt>
      <trkpt lat="46.72696" lon="-2.38802">
        <ele>3.8</ele>
        <time>2018-09-21T13:49:01.000Z</time>
      </trkpt>
      <trkpt lat="46.72696" lon="-2.38803">
        <ele>3.8</ele>
        <time>2018-09-21T13:49:02.000Z</time>
      </trkpt>
      <trkpt lat="46.72696" lon="-2.38804">
        <ele>3.8</ele>
        <time>2018-09-21T13:49:03.000Z</time>
      </trkpt>
      <trkpt lat="46.72696" lon="-2.38805">
        <ele>3.8</ele>
        <time>2018-09-21T13:49:04.000Z</time>
      </trkpt>
      <trkpt lat="46.72695" lon="-2.38806">
        <ele>3.8</ele>
        <time>2018-09-21T13:49:05.000Z</time>
      </trkpt>
      <trkpt lat="46.72695" lon="-2.38808">
        <ele>3.8</ele>
        <time>2018-09-21T13:49:06.000Z</time>
      </trkpt>
      <trkpt lat="46.72695" lon="-2.38809">
        <ele>3.9</ele>
        <time>2018-09-21T13:49:07.000Z</time>
      </trkpt>
      <trkpt lat="46.72695" lon="-2.3881">
        <ele>3.9</ele>
        <time>2018-09-21T13:49:08.000Z</time>
      </trkpt>
      <trkpt lat="46.72695" lon="-2.38811">
        <ele>3.9</ele>
        <time>2018-09-21T13:49:09.000Z</time>
      </trkpt>
      <trkpt lat="46.72695" lon="-2.38812">
        <ele>3.9</ele>
        <time>2018-09-21T13:49:10.000Z</time>
      </trkpt>
      <trkpt lat="46.72694" lon="-2.38813">
        <ele>3.9</ele>
        <time>2018-09-21T13:49:11.000Z</time>
      </trkpt>
      <trkpt lat="46.72694" lon="-2.38814">
        <ele>3.9</ele>
        <time>2018-09-21T13:49:12.000Z</time>
      </trkpt>
      <trkpt lat="46.72694" lon="-2.38816">
        <ele>4</ele>
        <time>2018-09-21T13:49:13.000Z</time>
      </trkpt>
      <trkpt lat="46.72694" lon="-2.38817">
        <ele>4</ele>
        <time>2018-09-21T13:49:14.000Z</time>
      </trkpt>
      <trkpt lat="46.72693" lon="-2.38818">
        <ele>4</ele>
        <time>2018-09-21T13:49:15.000Z</time>
      </trkpt>
      <trkpt lat="46.72693" lon="-2.38819">
        <ele>4</ele>
        <time>2018-09-21T13:49:16.000Z</time>
      </trkpt>
      <trkpt lat="46.72693" lon="-2.3882">
        <ele>4.1</ele>
        <time>2018-09-21T13:49:17.000Z</time>
      </trkpt>
      <trkpt lat="46.72692" lon="-2.38822">
        <ele>4.1</ele>
        <time>2018-09-21T13:49:18.000Z</time>
      </trkpt>
      <trkpt lat="46.72692" lon="-2.38823">
        <ele>4.1</ele>
        <time>2018-09-21T13:49:19.000Z</time>
      </trkpt>
      <trkpt lat="46.72691" lon="-2.38824">
        <ele>4.2</ele>
        <time>2018-09-21T13:49:20.000Z</time>
      </trkpt>
      <trkpt lat="46.72691" lon="-2.38826">
        <ele>4.2</ele>
        <time>2018-09-21T13:49:21.000Z</time>
      </trkpt>
      <trkpt lat="46.72691" lon="-2.38827">
        <ele>4.2</ele>
        <time>2018-09-21T13:49:22.000Z</time>
      </trkpt>
      <trkpt lat="46.72691" lon="-2.38828">
        <ele>4.3</ele>
        <time>2018-09-21T13:49:23.000Z</time>
      </trkpt>
      <trkpt lat="46.7269" lon="-2.38829">
        <ele>4.3</ele>
        <time>2018-09-21T13:49:24.000Z</time>
      </trkpt>
      <trkpt lat="46.7269" lon="-2.38831">
        <ele>4.3</ele>
        <time>2018-09-21T13:49:25.000Z</time>
      </trkpt>
      <trkpt lat="46.7269" lon="-2.38832">
        <ele>4.3</ele>
        <time>2018-09-21T13:49:26.000Z</time>
      </trkpt>
      <trkpt lat="46.7269" lon="-2.38833">
        <ele>4.3</ele>
        <time>2018-09-21T13:49:27.000Z</time>
      </trkpt>
      <trkpt lat="46.7269" lon="-2.38834">
        <ele>4.3</ele>
        <time>2018-09-21T13:49:28.000Z</time>
      </trkpt>
      <trkpt lat="46.7269" lon="-2.38836">
        <ele>4.3</ele>
        <time>2018-09-21T13:49:29.000Z</time>
      </trkpt>
      <trkpt lat="46.72691" lon="-2.38837">
        <ele>4.3</ele>
        <time>2018-09-21T13:49:30.000Z</time>
      </trkpt>
      <trkpt lat="46.72691" lon="-2.38838">
        <ele>4.3</ele>
        <time>2018-09-21T13:49:31.000Z</time>
      </trkpt>
      <trkpt lat="46.72691" lon="-2.38839">
        <ele>4.3</ele>
        <time>2018-09-21T13:49:32.000Z</time>
      </trkpt>
      <trkpt lat="46.72692" lon="-2.3884">
        <ele>4.3</ele>
        <time>2018-09-21T13:49:33.000Z</time>
      </trkpt>
      <trkpt lat="46.72692" lon="-2.38841">
        <ele>4.3</ele>
        <time>2018-09-21T13:49:34.000Z</time>
      </trkpt>
      <trkpt lat="46.72693" lon="-2.38842">
        <ele>4.3</ele>
        <time>2018-09-21T13:49:35.000Z</time>
      </trkpt>
      <trkpt lat="46.72693" lon="-2.38843">
        <ele>4.3</ele>
        <time>2018-09-21T13:49:36.000Z</time>
      </trkpt>
      <trkpt lat="46.72694" lon="-2.38844">
        <ele>4.2</ele>
        <time>2018-09-21T13:49:37.000Z</time>
      </trkpt>
      <trkpt lat="46.72694" lon="-2.38845">
        <ele>4.2</ele>
        <time>2018-09-21T13:49:38.000Z</time>
      </trkpt>
      <trkpt lat="46.72695" lon="-2.38847">
        <ele>4.2</ele>
        <time>2018-09-21T13:49:39.000Z</time>
      </trkpt>
      <trkpt lat="46.72695" lon="-2.38848">
        <ele>4.2</ele>
        <time>2018-09-21T13:49:40.000Z</time>
      </trkpt>
      <trkpt lat="46.72696" lon="-2.38849">
        <ele>4.1</ele>
        <time>2018-09-21T13:49:41.000Z</time>
      </trkpt>
      <trkpt lat="46.72697" lon="-2.3885">
        <ele>4.1</ele>
        <time>2018-09-21T13:49:42.000Z</time>
      </trkpt>
      <trkpt lat="46.72697" lon="-2.38851">
        <ele>4.1</ele>
        <time>2018-09-21T13:49:43.000Z</time>
      </trkpt>
      <trkpt lat="46.72698" lon="-2.38852">
        <ele>4.1</ele>
        <time>2018-09-21T13:49:44.000Z</time>
      </trkpt>
      <trkpt lat="46.72699" lon="-2.38853">
        <ele>4</ele>
        <time>2018-09-21T13:49:45.000Z</time>
      </trkpt>
      <trkpt lat="46.72699" lon="-2.38854">
        <ele>4</ele>
        <time>2018-09-21T13:49:46.000Z</time>
      </trkpt>
      <trkpt lat="46.727" lon="-2.38854">
        <ele>4</ele>
        <time>2018-09-21T13:49:47.000Z</time>
      </trkpt>
      <trkpt lat="46.72701" lon="-2.38855">
        <ele>3.9</ele>
        <time>2018-09-21T13:49:48.000Z</time>
      </trkpt>
      <trkpt lat="46.72701" lon="-2.38856">
        <ele>3.9</ele>
        <time>2018-09-21T13:49:49.000Z</time>
      </trkpt>
      <trkpt lat="46.72702" lon="-2.38857">
        <ele>3.9</ele>
        <time>2018-09-21T13:49:50.000Z</time>
      </trkpt>
      <trkpt lat="46.72703" lon="-2.38858">
        <ele>3.8</ele>
        <time>2018-09-21T13:49:51.000Z</time>
      </trkpt>
      <trkpt lat="46.72703" lon="-2.38859">
        <ele>3.8</ele>
        <time>2018-09-21T13:49:52.000Z</time>
      </trkpt>
      <trkpt lat="46.72704" lon="-2.3886">
        <ele>3.8</ele>
        <time>2018-09-21T13:49:53.000Z</time>
      </trkpt>
      <trkpt lat="46.72704" lon="-2.38861">
        <ele>3.8</ele>
        <time>2018-09-21T13:49:54.000Z</time>
      </trkpt>
      <trkpt lat="46.72705" lon="-2.38862">
        <ele>3.7</ele>
        <time>2018-09-21T13:49:55.000Z</time>
      </trkpt>
      <trkpt lat="46.72706" lon="-2.38863">
        <ele>3.7</ele>
        <time>2018-09-21T13:49:56.000Z</time>
      </trkpt>
      <trkpt lat="46.72706" lon="-2.38864">
        <ele>3.7</ele>
        <time>2018-09-21T13:49:57.000Z</time>
      </trkpt>
      <trkpt lat="46.72707" lon="-2.38865">
        <ele>3.7</ele>
        <time>2018-09-21T13:49:58.000Z</time>
      </trkpt>
      <trkpt lat="46.72708" lon="-2.38866">
        <ele>3.6</ele>
        <time>2018-09-21T13:49:59.000Z</time>
      </trkpt>
      <trkpt lat="46.72708" lon="-2.38867">
        <ele>3.6</ele>
        <time>2018-09-21T13:50:00.000Z</time>
      </trkpt>
      <trkpt lat="46.72709" lon="-2.38868">
        <ele>3.6</ele>
        <time>2018-09-21T13:50:01.000Z</time>
      </trkpt>
      <trkpt lat="46.7271" lon="-2.38869">
        <ele>3.6</ele>
        <time>2018-09-21T13:50:02.000Z</time>
      </trkpt>
      <trkpt lat="46.7271" lon="-2.3887">
        <ele>3.5</ele>
        <time>2018-09-21T13:50:03.000Z</time>
      </trkpt>
      <trkpt lat="46.72711" lon="-2.38871">
        <ele>3.5</ele>
        <time>2018-09-21T13:50:04.000Z</time>
      </trkpt>
      <trkpt lat="46.72712" lon="-2.38872">
        <ele>3.5</ele>
        <time>2018-09-21T13:50:05.000Z</time>
      </trkpt>
      <trkpt lat="46.72712" lon="-2.38873">
        <ele>3.5</ele>
        <time>2018-09-21T13:50:06.000Z</time>
      </trkpt>
      <trkpt lat="46.72713" lon="-2.38874">
        <ele>3.5</ele>
        <time>2018-09-21T13:50:07.000Z</time>
      </trkpt>
      <trkpt lat="46.72713" lon="-2.38876">
        <ele>3.4</ele>
        <time>2018-09-21T13:50:08.000Z</time>
      </trkpt>
      <trkpt lat="46.72714" lon="-2.38877">
        <ele>3.4</ele>
        <time>2018-09-21T13:50:09.000Z</time>
      </trkpt>
      <trkpt lat="46.72714" lon="-2.38878">
        <ele>3.4</ele>
        <time>2018-09-21T13:50:10.000Z</time>
      </trkpt>
      <trkpt lat="46.72715" lon="-2.38879">
        <ele>3.4</ele>
        <time>2018-09-21T13:50:11.000Z</time>
      </trkpt>
      <trkpt lat="46.72715" lon="-2.3888">
        <ele>3.4</ele>
        <time>2018-09-21T13:50:12.000Z</time>
      </trkpt>
      <trkpt lat="46.72716" lon="-2.38881">
        <ele>3.4</ele>
        <time>2018-09-21T13:50:13.000Z</time>
      </trkpt>
      <trkpt lat="46.72716" lon="-2.38883">
        <ele>3.4</ele>
        <time>2018-09-21T13:50:14.000Z</time>
      </trkpt>
      <trkpt lat="46.72717" lon="-2.38884">
        <ele>3.4</ele>
        <time>2018-09-21T13:50:15.000Z</time>
      </trkpt>
      <trkpt lat="46.72717" lon="-2.38885">
        <ele>3.4</ele>
        <time>2018-09-21T13:50:16.000Z</time>
      </trkpt>
      <trkpt lat="46.72717" lon="-2.38886">
        <ele>3.4</ele>
        <time>2018-09-21T13:50:17.000Z</time>
      </trkpt>
      <trkpt lat="46.72717" lon="-2.38887">
        <ele>3.4</ele>
        <time>2018-09-21T13:50:18.000Z</time>
      </trkpt>
      <trkpt lat="46.72718" lon="-2.38889">
        <ele>3.4</ele>
        <time>2018-09-21T13:50:19.000Z</time>
      </trkpt>
      <trkpt lat="46.72718" lon="-2.3889">
        <ele>3.4</ele>
        <time>2018-09-21T13:50:20.000Z</time>
      </trkpt>
      <trkpt lat="46.72718" lon="-2.38891">
        <ele>3.4</ele>
        <time>2018-09-21T13:50:21.000Z</time>
      </trkpt>
      <trkpt lat="46.72718" lon="-2.38892">
        <ele>3.4</ele>
        <time>2018-09-21T13:50:22.000Z</time>
      </trkpt>
      <trkpt lat="46.72718" lon="-2.38894">
        <ele>3.5</ele>
        <time>2018-09-21T13:50:23.000Z</time>
      </trkpt>
      <trkpt lat="46.72718" lon="-2.38895">
        <ele>3.5</ele>
        <time>2018-09-21T13:50:24.000Z</time>
      </trkpt>
      <trkpt lat="46.72718" lon="-2.38896">
        <ele>3.5</ele>
        <time>2018-09-21T13:50:25.000Z</time>
      </trkpt>
      <trkpt lat="46.72718" lon="-2.38897">
        <ele>3.5</ele>
        <time>2018-09-21T13:50:26.000Z</time>
      </trkpt>
      <trkpt lat="46.72718" lon="-2.38898">
        <ele>3.6</ele>
        <time>2018-09-21T13:50:27.000Z</time>
      </trkpt>
      <trkpt lat="46.72717" lon="-2.38899">
        <ele>3.6</ele>
        <time>2018-09-21T13:50:28.000Z</time>
      </trkpt>
      <trkpt lat="46.72717" lon="-2.389">
        <ele>3.7</ele>
        <time>2018-09-21T13:50:29.000Z</time>
      </trkpt>
      <trkpt lat="46.72716" lon="-2.38901">
        <ele>3.7</ele>
        <time>2018-09-21T13:50:30.000Z</time>
      </trkpt>
      <trkpt lat="46.72715" lon="-2.38901">
        <ele>3.8</ele>
        <time>2018-09-21T13:50:31.000Z</time>
      </trkpt>
      <trkpt lat="46.72715" lon="-2.38902">
        <ele>3.9</ele>
        <time>2018-09-21T13:50:32.000Z</time>
      </trkpt>
      <trkpt lat="46.72714" lon="-2.38903">
        <ele>3.9</ele>
        <time>2018-09-21T13:50:33.000Z</time>
      </trkpt>
      <trkpt lat="46.72713" lon="-2.38903">
        <ele>4</ele>
        <time>2018-09-21T13:50:34.000Z</time>
      </trkpt>
      <trkpt lat="46.72712" lon="-2.38904">
        <ele>4</ele>
        <time>2018-09-21T13:50:35.000Z</time>
      </trkpt>
      <trkpt lat="46.72712" lon="-2.38905">
        <ele>4.1</ele>
        <time>2018-09-21T13:50:36.000Z</time>
      </trkpt>
      <trkpt lat="46.72711" lon="-2.38906">
        <ele>4.1</ele>
        <time>2018-09-21T13:50:37.000Z</time>
      </trkpt>
      <trkpt lat="46.72711" lon="-2.38908">
        <ele>4.2</ele>
        <time>2018-09-21T13:50:38.000Z</time>
      </trkpt>
      <trkpt lat="46.72711" lon="-2.38909">
        <ele>4.2</ele>
        <time>2018-09-21T13:50:39.000Z</time>
      </trkpt>
      <trkpt lat="46.72711" lon="-2.3891">
        <ele>4.3</ele>
        <time>2018-09-21T13:50:40.000Z</time>
      </trkpt>
      <trkpt lat="46.72711" lon="-2.38912">
        <ele>4.3</ele>
        <time>2018-09-21T13:50:41.000Z</time>
      </trkpt>
      <trkpt lat="46.72711" lon="-2.38913">
        <ele>4.3</ele>
        <time>2018-09-21T13:50:42.000Z</time>
      </trkpt>
      <trkpt lat="46.72711" lon="-2.38914">
        <ele>4.3</ele>
        <time>2018-09-21T13:50:43.000Z</time>
      </trkpt>
      <trkpt lat="46.72712" lon="-2.38916">
        <ele>4.3</ele>
        <time>2018-09-21T13:50:44.000Z</time>
      </trkpt>
      <trkpt lat="46.72712" lon="-2.38917">
        <ele>4.3</ele>
        <time>2018-09-21T13:50:45.000Z</time>
      </trkpt>
      <trkpt lat="46.72713" lon="-2.38919">
        <ele>4.2</ele>
        <time>2018-09-21T13:50:46.000Z</time>
      </trkpt>
      <trkpt lat="46.72713" lon="-2.3892">
        <ele>4.2</ele>
        <time>2018-09-21T13:50:47.000Z</time>
      </trkpt>
      <trkpt lat="46.72714" lon="-2.38921">
        <ele>4.1</ele>
        <time>2018-09-21T13:50:48.000Z</time>
      </trkpt>
      <trkpt lat="46.72714" lon="-2.38923">
        <ele>4.1</ele>
        <time>2018-09-21T13:50:49.000Z</time>
      </trkpt>
      <trkpt lat="46.72715" lon="-2.38924">
        <ele>4</ele>
        <time>2018-09-21T13:50:50.000Z</time>
      </trkpt>
      <trkpt lat="46.72715" lon="-2.38925">
        <ele>4</ele>
        <time>2018-09-21T13:50:51.000Z</time>
      </trkpt>
      <trkpt lat="46.72716" lon="-2.38927">
        <ele>3.9</ele>
        <time>2018-09-21T13:50:52.000Z</time>
      </trkpt>
      <trkpt lat="46.72717" lon="-2.38928">
        <ele>3.9</ele>
        <time>2018-09-21T13:50:53.000Z</time>
      </trkpt>
      <trkpt lat="46.72717" lon="-2.38929">
        <ele>3.8</ele>
        <time>2018-09-21T13:50:54.000Z</time>
      </trkpt>
      <trkpt lat="46.72718" lon="-2.3893">
        <ele>3.8</ele>
        <time>2018-09-21T13:50:55.000Z</time>
      </trkpt>
      <trkpt lat="46.72718" lon="-2.38932">
        <ele>3.7</ele>
        <time>2018-09-21T13:50:56.000Z</time>
      </trkpt>
      <trkpt lat="46.72719" lon="-2.38933">
        <ele>3.7</ele>
        <time>2018-09-21T13:50:57.000Z</time>
      </trkpt>
      <trkpt lat="46.72719" lon="-2.38934">
        <ele>3.7</ele>
        <time>2018-09-21T13:50:58.000Z</time>
      </trkpt>
      <trkpt lat="46.72719" lon="-2.38935">
        <ele>3.6</ele>
        <time>2018-09-21T13:50:59.000Z</time>
      </trkpt>
      <trkpt lat="46.7272" lon="-2.38937">
        <ele>3.6</ele>
        <time>2018-09-21T13:51:00.000Z</time>
      </trkpt>
      <trkpt lat="46.7272" lon="-2.38938">
        <ele>3.5</ele>
        <time>2018-09-21T13:51:01.000Z</time>
      </trkpt>
      <trkpt lat="46.7272" lon="-2.3894">
        <ele>3.5</ele>
        <time>2018-09-21T13:51:02.000Z</time>
      </trkpt>
      <trkpt lat="46.72721" lon="-2.38941">
        <ele>3.5</ele>
        <time>2018-09-21T13:51:03.000Z</time>
      </trkpt>
      <trkpt lat="46.72721" lon="-2.38942">
        <ele>3.4</ele>
        <time>2018-09-21T13:51:04.000Z</time>
      </trkpt>
      <trkpt lat="46.72721" lon="-2.38944">
        <ele>3.4</ele>
        <time>2018-09-21T13:51:05.000Z</time>
      </trkpt>
      <trkpt lat="46.72722" lon="-2.38945">
        <ele>3.4</ele>
        <time>2018-09-21T13:51:06.000Z</time>
      </trkpt>
      <trkpt lat="46.72722" lon="-2.38947">
        <ele>3.3</ele>
        <time>2018-09-21T13:51:07.000Z</time>
      </trkpt>
      <trkpt lat="46.72722" lon="-2.38948">
        <ele>3.3</ele>
        <time>2018-09-21T13:51:08.000Z</time>
      </trkpt>
      <trkpt lat="46.72722" lon="-2.3895">
        <ele>3.3</ele>
        <time>2018-09-21T13:51:09.000Z</time>
      </trkpt>
      <trkpt lat="46.72722" lon="-2.38951">
        <ele>3.2</ele>
        <time>2018-09-21T13:51:10.000Z</time>
      </trkpt>
      <trkpt lat="46.72723" lon="-2.38953">
        <ele>3.2</ele>
        <time>2018-09-21T13:51:11.000Z</time>
      </trkpt>
      <trkpt lat="46.72723" lon="-2.38954">
        <ele>3.2</ele>
        <time>2018-09-21T13:51:12.000Z</time>
      </trkpt>
      <trkpt lat="46.72723" lon="-2.38956">
        <ele>3.2</ele>
        <time>2018-09-21T13:51:13.000Z</time>
      </trkpt>
      <trkpt lat="46.72723" lon="-2.38957">
        <ele>3.2</ele>
        <time>2018-09-21T13:51:14.000Z</time>
      </trkpt>
      <trkpt lat="46.72723" lon="-2.38958">
        <ele>3.1</ele>
        <time>2018-09-21T13:51:15.000Z</time>
      </trkpt>
      <trkpt lat="46.72723" lon="-2.3896">
        <ele>3.1</ele>
        <time>2018-09-21T13:51:16.000Z</time>
      </trkpt>
      <trkpt lat="46.72723" lon="-2.38961">
        <ele>3.1</ele>
        <time>2018-09-21T13:51:17.000Z</time>
      </trkpt>
      <trkpt lat="46.72723" lon="-2.38962">
        <ele>3.1</ele>
        <time>2018-09-21T13:51:18.000Z</time>
      </trkpt>
      <trkpt lat="46.72723" lon="-2.38964">
        <ele>3.1</ele>
        <time>2018-09-21T13:51:19.000Z</time>
      </trkpt>
      <trkpt lat="46.72722" lon="-2.38965">
        <ele>3.1</ele>
        <time>2018-09-21T13:51:20.000Z</time>
      </trkpt>
      <trkpt lat="46.72722" lon="-2.38966">
        <ele>3.1</ele>
        <time>2018-09-21T13:51:21.000Z</time>
      </trkpt>
      <trkpt lat="46.72722" lon="-2.38967">
        <ele>3.1</ele>
        <time>2018-09-21T13:51:22.000Z</time>
      </trkpt>
      <trkpt lat="46.72722" lon="-2.38968">
        <ele>3.1</ele>
        <time>2018-09-21T13:51:23.000Z</time>
      </trkpt>
      <trkpt lat="46.72721" lon="-2.38968">
        <ele>3.1</ele>
        <time>2018-09-21T13:51:24.000Z</time>
      </trkpt>
      <trkpt lat="46.72721" lon="-2.38969">
        <ele>3.1</ele>
        <time>2018-09-21T13:51:25.000Z</time>
      </trkpt>
      <trkpt lat="46.72721" lon="-2.3897">
        <ele>3.1</ele>
        <time>2018-09-21T13:51:26.000Z</time>
      </trkpt>
      <trkpt lat="46.7272" lon="-2.38971">
        <ele>3.1</ele>
        <time>2018-09-21T13:51:27.000Z</time>
      </trkpt>
      <trkpt lat="46.7272" lon="-2.38972">
        <ele>3.2</ele>
        <time>2018-09-21T13:51:28.000Z</time>
      </trkpt>
      <trkpt lat="46.72719" lon="-2.38973">
        <ele>3.2</ele>
        <time>2018-09-21T13:51:29.000Z</time>
      </trkpt>
      <trkpt lat="46.72718" lon="-2.38975">
        <ele>3.2</ele>
        <time>2018-09-21T13:51:30.000Z</time>
      </trkpt>
      <trkpt lat="46.72718" lon="-2.38976">
        <ele>3.2</ele>
        <time>2018-09-21T13:51:31.000Z</time>
      </trkpt>
      <trkpt lat="46.72717" lon="-2.38978">
        <ele>3.2</ele>
        <time>2018-09-21T13:51:32.000Z</time>
      </trkpt>
      <trkpt lat="46.72716" lon="-2.3898">
        <ele>3.3</ele>
        <time>2018-09-21T13:51:33.000Z</time>
      </trkpt>
      <trkpt lat="46.72716" lon="-2.38981">
        <ele>3.3</ele>
        <time>2018-09-21T13:51:34.000Z</time>
      </trkpt>
      <trkpt lat="46.72715" lon="-2.38983">
        <ele>3.3</ele>
        <time>2018-09-21T13:51:35.000Z</time>
      </trkpt>
      <trkpt lat="46.72715" lon="-2.38985">
        <ele>3.3</ele>
        <time>2018-09-21T13:51:36.000Z</time>
      </trkpt>
      <trkpt lat="46.72714" lon="-2.38987">
        <ele>3.3</ele>
        <time>2018-09-21T13:51:37.000Z</time>
      </trkpt>
      <trkpt lat="46.72714" lon="-2.38988">
        <ele>3.3</ele>
        <time>2018-09-21T13:51:38.000Z</time>
      </trkpt>
      <trkpt lat="46.72713" lon="-2.3899">
        <ele>3.3</ele>
        <time>2018-09-21T13:51:39.000Z</time>
      </trkpt>
      <trkpt lat="46.72713" lon="-2.38992">
        <ele>3.3</ele>
        <time>2018-09-21T13:51:40.000Z</time>
      </trkpt>
      <trkpt lat="46.72712" lon="-2.38993">
        <ele>3.3</ele>
        <time>2018-09-21T13:51:41.000Z</time>
      </trkpt>
      <trkpt lat="46.72712" lon="-2.38995">
        <ele>3.3</ele>
        <time>2018-09-21T13:51:42.000Z</time>
      </trkpt>
      <trkpt lat="46.72712" lon="-2.38997">
        <ele>3.3</ele>
        <time>2018-09-21T13:51:43.000Z</time>
      </trkpt>
      <trkpt lat="46.72711" lon="-2.38998">
        <ele>3.3</ele>
        <time>2018-09-21T13:51:44.000Z</time>
      </trkpt>
      <trkpt lat="46.72711" lon="-2.39">
        <ele>3.3</ele>
        <time>2018-09-21T13:51:45.000Z</time>
      </trkpt>
      <trkpt lat="46.72711" lon="-2.39001">
        <ele>3.4</ele>
        <time>2018-09-21T13:51:46.000Z</time>
      </trkpt>
      <trkpt lat="46.72711" lon="-2.39003">
        <ele>3.4</ele>
        <time>2018-09-21T13:51:47.000Z</time>
      </trkpt>
      <trkpt lat="46.7271" lon="-2.39004">
        <ele>3.4</ele>
        <time>2018-09-21T13:51:48.000Z</time>
      </trkpt>
      <trkpt lat="46.7271" lon="-2.39006">
        <ele>3.4</ele>
        <time>2018-09-21T13:51:49.000Z</time>
      </trkpt>
      <trkpt lat="46.7271" lon="-2.39007">
        <ele>3.4</ele>
        <time>2018-09-21T13:51:50.000Z</time>
      </trkpt>
      <trkpt lat="46.7271" lon="-2.39009">
        <ele>3.4</ele>
        <time>2018-09-21T13:51:51.000Z</time>
      </trkpt>
      <trkpt lat="46.72709" lon="-2.3901">
        <ele>3.4</ele>
        <time>2018-09-21T13:51:52.000Z</time>
      </trkpt>
      <trkpt lat="46.72709" lon="-2.39012">
        <ele>3.5</ele>
        <time>2018-09-21T13:51:53.000Z</time>
      </trkpt>
      <trkpt lat="46.72709" lon="-2.39013">
        <ele>3.5</ele>
        <time>2018-09-21T13:51:54.000Z</time>
      </trkpt>
      <trkpt lat="46.72709" lon="-2.39015">
        <ele>3.5</ele>
        <time>2018-09-21T13:51:55.000Z</time>
      </trkpt>
      <trkpt lat="46.72708" lon="-2.39016">
        <ele>3.5</ele>
        <time>2018-09-21T13:51:56.000Z</time>
      </trkpt>
      <trkpt lat="46.72708" lon="-2.39018">
        <ele>3.5</ele>
        <time>2018-09-21T13:51:57.000Z</time>
      </trkpt>
      <trkpt lat="46.72708" lon="-2.39019">
        <ele>3.5</ele>
        <time>2018-09-21T13:51:58.000Z</time>
      </trkpt>
      <trkpt lat="46.72707" lon="-2.3902">
        <ele>3.6</ele>
        <time>2018-09-21T13:51:59.000Z</time>
      </trkpt>
      <trkpt lat="46.72707" lon="-2.39022">
        <ele>3.6</ele>
        <time>2018-09-21T13:52:00.000Z</time>
      </trkpt>
      <trkpt lat="46.72707" lon="-2.39023">
        <ele>3.6</ele>
        <time>2018-09-21T13:52:01.000Z</time>
      </trkpt>
      <trkpt lat="46.72707" lon="-2.39025">
        <ele>3.6</ele>
        <time>2018-09-21T13:52:02.000Z</time>
      </trkpt>
      <trkpt lat="46.72706" lon="-2.39026">
        <ele>3.7</ele>
        <time>2018-09-21T13:52:03.000Z</time>
      </trkpt>
      <trkpt lat="46.72706" lon="-2.39028">
        <ele>3.7</ele>
        <time>2018-09-21T13:52:04.000Z</time>
      </trkpt>
      <trkpt lat="46.72705" lon="-2.39029">
        <ele>3.7</ele>
        <time>2018-09-21T13:52:05.000Z</time>
      </trkpt>
      <trkpt lat="46.72705" lon="-2.39031">
        <ele>3.7</ele>
        <time>2018-09-21T13:52:06.000Z</time>
      </trkpt>
      <trkpt lat="46.72705" lon="-2.39032">
        <ele>3.8</ele>
        <time>2018-09-21T13:52:07.000Z</time>
      </trkpt>
      <trkpt lat="46.72704" lon="-2.39033">
        <ele>3.8</ele>
        <time>2018-09-21T13:52:08.000Z</time>
      </trkpt>
      <trkpt lat="46.72704" lon="-2.39035">
        <ele>3.8</ele>
        <time>2018-09-21T13:52:09.000Z</time>
      </trkpt>
      <trkpt lat="46.72704" lon="-2.39036">
        <ele>3.8</ele>
        <time>2018-09-21T13:52:10.000Z</time>
      </trkpt>
      <trkpt lat="46.72703" lon="-2.39038">
        <ele>3.9</ele>
        <time>2018-09-21T13:52:11.000Z</time>
      </trkpt>
      <trkpt lat="46.72703" lon="-2.39039">
        <ele>3.9</ele>
        <time>2018-09-21T13:52:12.000Z</time>
      </trkpt>
      <trkpt lat="46.72703" lon="-2.3904">
        <ele>3.9</ele>
        <time>2018-09-21T13:52:13.000Z</time>
      </trkpt>
      <trkpt lat="46.72702" lon="-2.39042">
        <ele>3.9</ele>
        <time>2018-09-21T13:52:14.000Z</time>
      </trkpt>
      <trkpt lat="46.72702" lon="-2.39043">
        <ele>4</ele>
        <time>2018-09-21T13:52:15.000Z</time>
      </trkpt>
      <trkpt lat="46.72702" lon="-2.39045">
        <ele>4</ele>
        <time>2018-09-21T13:52:16.000Z</time>
      </trkpt>
      <trkpt lat="46.72701" lon="-2.39046">
        <ele>4</ele>
        <time>2018-09-21T13:52:17.000Z</time>
      </trkpt>
      <trkpt lat="46.72701" lon="-2.39047">
        <ele>4</ele>
        <time>2018-09-21T13:52:18.000Z</time>
      </trkpt>
      <trkpt lat="46.72701" lon="-2.39049">
        <ele>4.1</ele>
        <time>2018-09-21T13:52:19.000Z</time>
      </trkpt>
      <trkpt lat="46.727" lon="-2.3905">
        <ele>4.1</ele>
        <time>2018-09-21T13:52:20.000Z</time>
      </trkpt>
      <trkpt lat="46.727" lon="-2.39051">
        <ele>4.1</ele>
        <time>2018-09-21T13:52:21.000Z</time>
      </trkpt>
      <trkpt lat="46.727" lon="-2.39053">
        <ele>4.1</ele>
        <time>2018-09-21T13:52:22.000Z</time>
      </trkpt>
      <trkpt lat="46.72699" lon="-2.39054">
        <ele>4.2</ele>
        <time>2018-09-21T13:52:23.000Z</time>
      </trkpt>
      <trkpt lat="46.72699" lon="-2.39056">
        <ele>4.2</ele>
        <time>2018-09-21T13:52:24.000Z</time>
      </trkpt>
      <trkpt lat="46.72699" lon="-2.39057">
        <ele>4.2</ele>
        <time>2018-09-21T13:52:25.000Z</time>
      </trkpt>
      <trkpt lat="46.72699" lon="-2.39058">
        <ele>4.2</ele>
        <time>2018-09-21T13:52:26.000Z</time>
      </trkpt>
      <trkpt lat="46.72698" lon="-2.39059">
        <ele>4.3</ele>
        <time>2018-09-21T13:52:27.000Z</time>
      </trkpt>
      <trkpt lat="46.72698" lon="-2.39061">
        <ele>4.3</ele>
        <time>2018-09-21T13:52:28.000Z</time>
      </trkpt>
      <trkpt lat="46.72698" lon="-2.39062">
        <ele>4.3</ele>
        <time>2018-09-21T13:52:29.000Z</time>
      </trkpt>
      <trkpt lat="46.72698" lon="-2.39063">
        <ele>4.3</ele>
        <time>2018-09-21T13:52:30.000Z</time>
      </trkpt>
      <trkpt lat="46.72698" lon="-2.39065">
        <ele>4.3</ele>
        <time>2018-09-21T13:52:31.000Z</time>
      </trkpt>
      <trkpt lat="46.72698" lon="-2.39066">
        <ele>4.3</ele>
        <time>2018-09-21T13:52:32.000Z</time>
      </trkpt>
      <trkpt lat="46.72698" lon="-2.39067">
        <ele>4.4</ele>
        <time>2018-09-21T13:52:33.000Z</time>
      </trkpt>
      <trkpt lat="46.72697" lon="-2.39068">
        <ele>4.4</ele>
        <time>2018-09-21T13:52:34.000Z</time>
      </trkpt>
      <trkpt lat="46.72697" lon="-2.3907">
        <ele>4.4</ele>
        <time>2018-09-21T13:52:35.000Z</time>
      </trkpt>
      <trkpt lat="46.72697" lon="-2.39071">
        <ele>4.4</ele>
        <time>2018-09-21T13:52:36.000Z</time>
      </trkpt>
      <trkpt lat="46.72697" lon="-2.39072">
        <ele>4.4</ele>
        <time>2018-09-21T13:52:37.000Z</time>
      </trkpt>
      <trkpt lat="46.72697" lon="-2.39073">
        <ele>4.4</ele>
        <time>2018-09-21T13:52:38.000Z</time>
      </trkpt>
      <trkpt lat="46.72697" lon="-2.39075">
        <ele>4.4</ele>
        <time>2018-09-21T13:52:39.000Z</time>
      </trkpt>
      <trkpt lat="46.72697" lon="-2.39076">
        <ele>4.4</ele>
        <time>2018-09-21T13:52:40.000Z</time>
      </trkpt>
      <trkpt lat="46.72697" lon="-2.39077">
        <ele>4.4</ele>
        <time>2018-09-21T13:52:41.000Z</time>
      </trkpt>
      <trkpt lat="46.72697" lon="-2.39078">
        <ele>4.4</ele>
        <time>2018-09-21T13:52:42.000Z</time>
      </trkpt>
      <trkpt lat="46.72697" lon="-2.3908">
        <ele>4.4</ele>
        <time>2018-09-21T13:52:43.000Z</time>
      </trkpt>
      <trkpt lat="46.72697" lon="-2.39081">
        <ele>4.4</ele>
        <time>2018-09-21T13:52:44.000Z</time>
      </trkpt>
      <trkpt lat="46.72697" lon="-2.39082">
        <ele>4.4</ele>
        <time>2018-09-21T13:52:45.000Z</time>
      </trkpt>
      <trkpt lat="46.72697" lon="-2.39084">
        <ele>4.5</ele>
        <time>2018-09-21T13:52:46.000Z</time>
      </trkpt>
      <trkpt lat="46.72697" lon="-2.39085">
        <ele>4.4</ele>
        <time>2018-09-21T13:52:47.000Z</time>
      </trkpt>
      <trkpt lat="46.72697" lon="-2.39086">
        <ele>4.4</ele>
        <time>2018-09-21T13:52:48.000Z</time>
      </trkpt>
      <trkpt lat="46.72697" lon="-2.39087">
        <ele>4.5</ele>
        <time>2018-09-21T13:52:49.000Z</time>
      </trkpt>
      <trkpt lat="46.72696" lon="-2.39089">
        <ele>4.5</ele>
        <time>2018-09-21T13:52:50.000Z</time>
      </trkpt>
      <trkpt lat="46.72696" lon="-2.3909">
        <ele>4.5</ele>
        <time>2018-09-21T13:52:51.000Z</time>
      </trkpt>
      <trkpt lat="46.72696" lon="-2.39092">
        <ele>4.5</ele>
        <time>2018-09-21T13:52:52.000Z</time>
      </trkpt>
      <trkpt lat="46.72696" lon="-2.39093">
        <ele>4.5</ele>
        <time>2018-09-21T13:52:53.000Z</time>
      </trkpt>
      <trkpt lat="46.72695" lon="-2.39094">
        <ele>4.5</ele>
        <time>2018-09-21T13:52:54.000Z</time>
      </trkpt>
      <trkpt lat="46.72695" lon="-2.39096">
        <ele>4.5</ele>
        <time>2018-09-21T13:52:55.000Z</time>
      </trkpt>
      <trkpt lat="46.72694" lon="-2.39097">
        <ele>4.6</ele>
        <time>2018-09-21T13:52:56.000Z</time>
      </trkpt>
      <trkpt lat="46.72694" lon="-2.39099">
        <ele>4.6</ele>
        <time>2018-09-21T13:52:57.000Z</time>
      </trkpt>
      <trkpt lat="46.72694" lon="-2.391">
        <ele>4.6</ele>
        <time>2018-09-21T13:52:58.000Z</time>
      </trkpt>
      <trkpt lat="46.72693" lon="-2.39101">
        <ele>4.6</ele>
        <time>2018-09-21T13:52:59.000Z</time>
      </trkpt>
      <trkpt lat="46.72693" lon="-2.39103">
        <ele>4.7</ele>
        <time>2018-09-21T13:53:00.000Z</time>
      </trkpt>
      <trkpt lat="46.72692" lon="-2.39104">
        <ele>4.7</ele>
        <time>2018-09-21T13:53:01.000Z</time>
      </trkpt>
      <trkpt lat="46.72692" lon="-2.39105">
        <ele>4.7</ele>
        <time>2018-09-21T13:53:02.000Z</time>
      </trkpt>
      <trkpt lat="46.72691" lon="-2.39107">
        <ele>4.8</ele>
        <time>2018-09-21T13:53:03.000Z</time>
      </trkpt>
      <trkpt lat="46.72691" lon="-2.39108">
        <ele>4.8</ele>
        <time>2018-09-21T13:53:04.000Z</time>
      </trkpt>
      <trkpt lat="46.7269" lon="-2.39109">
        <ele>4.8</ele>
        <time>2018-09-21T13:53:05.000Z</time>
      </trkpt>
      <trkpt lat="46.7269" lon="-2.3911">
        <ele>4.8</ele>
        <time>2018-09-21T13:53:06.000Z</time>
      </trkpt>
      <trkpt lat="46.72689" lon="-2.39111">
        <ele>4.9</ele>
        <time>2018-09-21T13:53:07.000Z</time>
      </trkpt>
      <trkpt lat="46.72689" lon="-2.39112">
        <ele>4.9</ele>
        <time>2018-09-21T13:53:08.000Z</time>
      </trkpt>
      <trkpt lat="46.72688" lon="-2.39113">
        <ele>4.9</ele>
        <time>2018-09-21T13:53:09.000Z</time>
      </trkpt>
      <trkpt lat="46.72688" lon="-2.39114">
        <ele>4.9</ele>
        <time>2018-09-21T13:53:10.000Z</time>
      </trkpt>
      <trkpt lat="46.72687" lon="-2.39115">
        <ele>5</ele>
        <time>2018-09-21T13:53:11.000Z</time>
      </trkpt>
      <trkpt lat="46.72687" lon="-2.39116">
        <ele>5</ele>
        <time>2018-09-21T13:53:12.000Z</time>
      </trkpt>
      <trkpt lat="46.72686" lon="-2.39117">
        <ele>5</ele>
        <time>2018-09-21T13:53:13.000Z</time>
      </trkpt>
      <trkpt lat="46.72686" lon="-2.39118">
        <ele>5.1</ele>
        <time>2018-09-21T13:53:14.000Z</time>
      </trkpt>
      <trkpt lat="46.72685" lon="-2.3912">
        <ele>5.1</ele>
        <time>2018-09-21T13:53:15.000Z</time>
      </trkpt>
      <trkpt lat="46.72685" lon="-2.39121">
        <ele>5.1</ele>
        <time>2018-09-21T13:53:16.000Z</time>
      </trkpt>
      <trkpt lat="46.72685" lon="-2.39123">
        <ele>5.1</ele>
        <time>2018-09-21T13:53:17.000Z</time>
      </trkpt>
      <trkpt lat="46.72685" lon="-2.39124">
        <ele>5.1</ele>
        <time>2018-09-21T13:53:18.000Z</time>
      </trkpt>
      <trkpt lat="46.72685" lon="-2.39126">
        <ele>5.1</ele>
        <time>2018-09-21T13:53:19.000Z</time>
      </trkpt>
      <trkpt lat="46.72685" lon="-2.39128">
        <ele>5</ele>
        <time>2018-09-21T13:53:20.000Z</time>
      </trkpt>
      <trkpt lat="46.72685" lon="-2.3913">
        <ele>5</ele>
        <time>2018-09-21T13:53:21.000Z</time>
      </trkpt>
      <trkpt lat="46.72685" lon="-2.39131">
        <ele>5</ele>
        <time>2018-09-21T13:53:22.000Z</time>
      </trkpt>
      <trkpt lat="46.72685" lon="-2.39133">
        <ele>5</ele>
        <time>2018-09-21T13:53:23.000Z</time>
      </trkpt>
      <trkpt lat="46.72685" lon="-2.39135">
        <ele>5</ele>
        <time>2018-09-21T13:53:24.000Z</time>
      </trkpt>
      <trkpt lat="46.72685" lon="-2.39136">
        <ele>5</ele>
        <time>2018-09-21T13:53:25.000Z</time>
      </trkpt>
      <trkpt lat="46.72684" lon="-2.39138">
        <ele>5</ele>
        <time>2018-09-21T13:53:26.000Z</time>
      </trkpt>
      <trkpt lat="46.72684" lon="-2.39139">
        <ele>5</ele>
        <time>2018-09-21T13:53:27.000Z</time>
      </trkpt>
      <trkpt lat="46.72684" lon="-2.39141">
        <ele>5</ele>
        <time>2018-09-21T13:53:28.000Z</time>
      </trkpt>
      <trkpt lat="46.72684" lon="-2.39142">
        <ele>5</ele>
        <time>2018-09-21T13:53:29.000Z</time>
      </trkpt>
      <trkpt lat="46.72683" lon="-2.39143">
        <ele>5</ele>
        <time>2018-09-21T13:53:30.000Z</time>
      </trkpt>
      <trkpt lat="46.72683" lon="-2.39145">
        <ele>5</ele>
        <time>2018-09-21T13:53:31.000Z</time>
      </trkpt>
      <trkpt lat="46.72683" lon="-2.39146">
        <ele>5</ele>
        <time>2018-09-21T13:53:32.000Z</time>
      </trkpt>
      <trkpt lat="46.72683" lon="-2.39147">
        <ele>5</ele>
        <time>2018-09-21T13:53:33.000Z</time>
      </trkpt>
      <trkpt lat="46.72683" lon="-2.39149">
        <ele>5</ele>
        <time>2018-09-21T13:53:34.000Z</time>
      </trkpt>
      <trkpt lat="46.72683" lon="-2.3915">
        <ele>5</ele>
        <time>2018-09-21T13:53:35.000Z</time>
      </trkpt>
      <trkpt lat="46.72683" lon="-2.39152">
        <ele>5</ele>
        <time>2018-09-21T13:53:36.000Z</time>
      </trkpt>
      <trkpt lat="46.72683" lon="-2.39153">
        <ele>5</ele>
        <time>2018-09-21T13:53:37.000Z</time>
      </trkpt>
      <trkpt lat="46.72683" lon="-2.39155">
        <ele>5</ele>
        <time>2018-09-21T13:53:38.000Z</time>
      </trkpt>
      <trkpt lat="46.72683" lon="-2.39156">
        <ele>4.9</ele>
        <time>2018-09-21T13:53:39.000Z</time>
      </trkpt>
      <trkpt lat="46.72683" lon="-2.39158">
        <ele>4.9</ele>
        <time>2018-09-21T13:53:40.000Z</time>
      </trkpt>
      <trkpt lat="46.72683" lon="-2.3916">
        <ele>4.9</ele>
        <time>2018-09-21T13:53:41.000Z</time>
      </trkpt>
      <trkpt lat="46.72683" lon="-2.39161">
        <ele>4.9</ele>
        <time>2018-09-21T13:53:42.000Z</time>
      </trkpt>
      <trkpt lat="46.72683" lon="-2.39163">
        <ele>4.8</ele>
        <time>2018-09-21T13:53:43.000Z</time>
      </trkpt>
      <trkpt lat="46.72684" lon="-2.39165">
        <ele>4.8</ele>
        <time>2018-09-21T13:53:44.000Z</time>
      </trkpt>
      <trkpt lat="46.72684" lon="-2.39166">
        <ele>4.8</ele>
        <time>2018-09-21T13:53:45.000Z</time>
      </trkpt>
      <trkpt lat="46.72684" lon="-2.39168">
        <ele>4.8</ele>
        <time>2018-09-21T13:53:46.000Z</time>
      </trkpt>
      <trkpt lat="46.72684" lon="-2.39169">
        <ele>4.7</ele>
        <time>2018-09-21T13:53:47.000Z</time>
      </trkpt>
      <trkpt lat="46.72684" lon="-2.39171">
        <ele>4.7</ele>
        <time>2018-09-21T13:53:48.000Z</time>
      </trkpt>
      <trkpt lat="46.72684" lon="-2.39173">
        <ele>4.6</ele>
        <time>2018-09-21T13:53:49.000Z</time>
      </trkpt>
      <trkpt lat="46.72684" lon="-2.39174">
        <ele>4.6</ele>
        <time>2018-09-21T13:53:50.000Z</time>
      </trkpt>
      <trkpt lat="46.72684" lon="-2.39176">
        <ele>4.6</ele>
        <time>2018-09-21T13:53:51.000Z</time>
      </trkpt>
      <trkpt lat="46.72684" lon="-2.39177">
        <ele>4.5</ele>
        <time>2018-09-21T13:53:52.000Z</time>
      </trkpt>
      <trkpt lat="46.72684" lon="-2.39179">
        <ele>4.5</ele>
        <time>2018-09-21T13:53:53.000Z</time>
      </trkpt>
      <trkpt lat="46.72684" lon="-2.39181">
        <ele>4.5</ele>
        <time>2018-09-21T13:53:54.000Z</time>
      </trkpt>
      <trkpt lat="46.72684" lon="-2.39182">
        <ele>4.5</ele>
        <time>2018-09-21T13:53:55.000Z</time>
      </trkpt>
      <trkpt lat="46.72684" lon="-2.39184">
        <ele>4.4</ele>
        <time>2018-09-21T13:53:56.000Z</time>
      </trkpt>
      <trkpt lat="46.72684" lon="-2.39185">
        <ele>4.4</ele>
        <time>2018-09-21T13:53:57.000Z</time>
      </trkpt>
      <trkpt lat="46.72684" lon="-2.39187">
        <ele>4.4</ele>
        <time>2018-09-21T13:53:58.000Z</time>
      </trkpt>
      <trkpt lat="46.72684" lon="-2.39188">
        <ele>4.4</ele>
        <time>2018-09-21T13:53:59.000Z</time>
      </trkpt>
      <trkpt lat="46.72684" lon="-2.3919">
        <ele>4.3</ele>
        <time>2018-09-21T13:54:00.000Z</time>
      </trkpt>
      <trkpt lat="46.72683" lon="-2.39191">
        <ele>4.3</ele>
        <time>2018-09-21T13:54:01.000Z</time>
      </trkpt>
      <trkpt lat="46.72683" lon="-2.39193">
        <ele>4.3</ele>
        <time>2018-09-21T13:54:02.000Z</time>
      </trkpt>
      <trkpt lat="46.72683" lon="-2.39194">
        <ele>4.3</ele>
        <time>2018-09-21T13:54:03.000Z</time>
      </trkpt>
      <trkpt lat="46.72683" lon="-2.39195">
        <ele>4.3</ele>
        <time>2018-09-21T13:54:04.000Z</time>
      </trkpt>
      <trkpt lat="46.72683" lon="-2.39197">
        <ele>4.3</ele>
        <time>2018-09-21T13:54:05.000Z</time>
      </trkpt>
      <trkpt lat="46.72682" lon="-2.39198">
        <ele>4.3</ele>
        <time>2018-09-21T13:54:06.000Z</time>
      </trkpt>
      <trkpt lat="46.72682" lon="-2.392">
        <ele>4.2</ele>
        <time>2018-09-21T13:54:07.000Z</time>
      </trkpt>
      <trkpt lat="46.72682" lon="-2.39201">
        <ele>4.2</ele>
        <time>2018-09-21T13:54:08.000Z</time>
      </trkpt>
      <trkpt lat="46.72682" lon="-2.39203">
        <ele>4.2</ele>
        <time>2018-09-21T13:54:09.000Z</time>
      </trkpt>
      <trkpt lat="46.72681" lon="-2.39204">
        <ele>4.2</ele>
        <time>2018-09-21T13:54:10.000Z</time>
      </trkpt>
      <trkpt lat="46.72681" lon="-2.39205">
        <ele>4.2</ele>
        <time>2018-09-21T13:54:11.000Z</time>
      </trkpt>
      <trkpt lat="46.72681" lon="-2.39207">
        <ele>4.2</ele>
        <time>2018-09-21T13:54:12.000Z</time>
      </trkpt>
      <trkpt lat="46.72681" lon="-2.39208">
        <ele>4.2</ele>
        <time>2018-09-21T13:54:13.000Z</time>
      </trkpt>
      <trkpt lat="46.7268" lon="-2.39209">
        <ele>4.2</ele>
        <time>2018-09-21T13:54:14.000Z</time>
      </trkpt>
      <trkpt lat="46.7268" lon="-2.39211">
        <ele>4.2</ele>
        <time>2018-09-21T13:54:15.000Z</time>
      </trkpt>
      <trkpt lat="46.7268" lon="-2.39212">
        <ele>4.1</ele>
        <time>2018-09-21T13:54:16.000Z</time>
      </trkpt>
      <trkpt lat="46.72679" lon="-2.39213">
        <ele>4.1</ele>
        <time>2018-09-21T13:54:17.000Z</time>
      </trkpt>
      <trkpt lat="46.72679" lon="-2.39215">
        <ele>4.1</ele>
        <time>2018-09-21T13:54:18.000Z</time>
      </trkpt>
      <trkpt lat="46.72679" lon="-2.39216">
        <ele>4.1</ele>
        <time>2018-09-21T13:54:19.000Z</time>
      </trkpt>
      <trkpt lat="46.72678" lon="-2.39217">
        <ele>4.1</ele>
        <time>2018-09-21T13:54:20.000Z</time>
      </trkpt>
      <trkpt lat="46.72678" lon="-2.39219">
        <ele>4.1</ele>
        <time>2018-09-21T13:54:21.000Z</time>
      </trkpt>
      <trkpt lat="46.72677" lon="-2.3922">
        <ele>4.1</ele>
        <time>2018-09-21T13:54:22.000Z</time>
      </trkpt>
      <trkpt lat="46.72677" lon="-2.39221">
        <ele>4.1</ele>
        <time>2018-09-21T13:54:23.000Z</time>
      </trkpt>
      <trkpt lat="46.72676" lon="-2.39223">
        <ele>4.1</ele>
        <time>2018-09-21T13:54:24.000Z</time>
      </trkpt>
      <trkpt lat="46.72676" lon="-2.39224">
        <ele>4.1</ele>
        <time>2018-09-21T13:54:25.000Z</time>
      </trkpt>
      <trkpt lat="46.72675" lon="-2.39225">
        <ele>4.1</ele>
        <time>2018-09-21T13:54:26.000Z</time>
      </trkpt>
      <trkpt lat="46.72675" lon="-2.39227">
        <ele>4.1</ele>
        <time>2018-09-21T13:54:27.000Z</time>
      </trkpt>
      <trkpt lat="46.72674" lon="-2.39228">
        <ele>4.1</ele>
        <time>2018-09-21T13:54:28.000Z</time>
      </trkpt>
      <trkpt lat="46.72674" lon="-2.39229">
        <ele>4.1</ele>
        <time>2018-09-21T13:54:29.000Z</time>
      </trkpt>
      <trkpt lat="46.72673" lon="-2.39231">
        <ele>4.1</ele>
        <time>2018-09-21T13:54:30.000Z</time>
      </trkpt>
      <trkpt lat="46.72672" lon="-2.39232">
        <ele>4.1</ele>
        <time>2018-09-21T13:54:31.000Z</time>
      </trkpt>
      <trkpt lat="46.72672" lon="-2.39234">
        <ele>4.1</ele>
        <time>2018-09-21T13:54:32.000Z</time>
      </trkpt>
      <trkpt lat="46.72671" lon="-2.39235">
        <ele>4.1</ele>
        <time>2018-09-21T13:54:33.000Z</time>
      </trkpt>
      <trkpt lat="46.7267" lon="-2.39236">
        <ele>4.1</ele>
        <time>2018-09-21T13:54:34.000Z</time>
      </trkpt>
      <trkpt lat="46.7267" lon="-2.39238">
        <ele>4.2</ele>
        <time>2018-09-21T13:54:35.000Z</time>
      </trkpt>
      <trkpt lat="46.72669" lon="-2.39239">
        <ele>4.2</ele>
        <time>2018-09-21T13:54:36.000Z</time>
      </trkpt>
      <trkpt lat="46.72668" lon="-2.3924">
        <ele>4.2</ele>
        <time>2018-09-21T13:54:37.000Z</time>
      </trkpt>
      <trkpt lat="46.72667" lon="-2.39242">
        <ele>4.2</ele>
        <time>2018-09-21T13:54:38.000Z</time>
      </trkpt>
      <trkpt lat="46.72667" lon="-2.39243">
        <ele>4.2</ele>
        <time>2018-09-21T13:54:39.000Z</time>
      </trkpt>
      <trkpt lat="46.72666" lon="-2.39244">
        <ele>4.2</ele>
        <time>2018-09-21T13:54:40.000Z</time>
      </trkpt>
      <trkpt lat="46.72665" lon="-2.39246">
        <ele>4.2</ele>
        <time>2018-09-21T13:54:41.000Z</time>
      </trkpt>
      <trkpt lat="46.72665" lon="-2.39247">
        <ele>4.2</ele>
        <time>2018-09-21T13:54:42.000Z</time>
      </trkpt>
      <trkpt lat="46.72664" lon="-2.39248">
        <ele>4.2</ele>
        <time>2018-09-21T13:54:43.000Z</time>
      </trkpt>
      <trkpt lat="46.72664" lon="-2.3925">
        <ele>4.2</ele>
        <time>2018-09-21T13:54:44.000Z</time>
      </trkpt>
      <trkpt lat="46.72663" lon="-2.39251">
        <ele>4.2</ele>
        <time>2018-09-21T13:54:45.000Z</time>
      </trkpt>
      <trkpt lat="46.72662" lon="-2.39252">
        <ele>4.2</ele>
        <time>2018-09-21T13:54:46.000Z</time>
      </trkpt>
      <trkpt lat="46.72662" lon="-2.39253">
        <ele>4.2</ele>
        <time>2018-09-21T13:54:47.000Z</time>
      </trkpt>
      <trkpt lat="46.72661" lon="-2.39255">
        <ele>4.2</ele>
        <time>2018-09-21T13:54:48.000Z</time>
      </trkpt>
      <trkpt lat="46.72661" lon="-2.39256">
        <ele>4.2</ele>
        <time>2018-09-21T13:54:49.000Z</time>
      </trkpt>
      <trkpt lat="46.7266" lon="-2.39257">
        <ele>4.2</ele>
        <time>2018-09-21T13:54:50.000Z</time>
      </trkpt>
      <trkpt lat="46.7266" lon="-2.39259">
        <ele>4.2</ele>
        <time>2018-09-21T13:54:51.000Z</time>
      </trkpt>
      <trkpt lat="46.72659" lon="-2.3926">
        <ele>4.2</ele>
        <time>2018-09-21T13:54:52.000Z</time>
      </trkpt>
      <trkpt lat="46.72659" lon="-2.39261">
        <ele>4.2</ele>
        <time>2018-09-21T13:54:53.000Z</time>
      </trkpt>
      <trkpt lat="46.72658" lon="-2.39263">
        <ele>4.2</ele>
        <time>2018-09-21T13:54:54.000Z</time>
      </trkpt>
      <trkpt lat="46.72658" lon="-2.39264">
        <ele>4.2</ele>
        <time>2018-09-21T13:54:55.000Z</time>
      </trkpt>
      <trkpt lat="46.72658" lon="-2.39266">
        <ele>4.2</ele>
        <time>2018-09-21T13:54:56.000Z</time>
      </trkpt>
      <trkpt lat="46.72657" lon="-2.39267">
        <ele>4.2</ele>
        <time>2018-09-21T13:54:57.000Z</time>
      </trkpt>
      <trkpt lat="46.72657" lon="-2.39269">
        <ele>4.2</ele>
        <time>2018-09-21T13:54:58.000Z</time>
      </trkpt>
      <trkpt lat="46.72656" lon="-2.39271">
        <ele>4.1</ele>
        <time>2018-09-21T13:54:59.000Z</time>
      </trkpt>
      <trkpt lat="46.72656" lon="-2.39272">
        <ele>4.1</ele>
        <time>2018-09-21T13:55:00.000Z</time>
      </trkpt>
      <trkpt lat="46.72655" lon="-2.39274">
        <ele>4.1</ele>
        <time>2018-09-21T13:55:01.000Z</time>
      </trkpt>
      <trkpt lat="46.72655" lon="-2.39276">
        <ele>4.1</ele>
        <time>2018-09-21T13:55:02.000Z</time>
      </trkpt>
      <trkpt lat="46.72654" lon="-2.39277">
        <ele>4.1</ele>
        <time>2018-09-21T13:55:03.000Z</time>
      </trkpt>
      <trkpt lat="46.72654" lon="-2.39279">
        <ele>4.1</ele>
        <time>2018-09-21T13:55:04.000Z</time>
      </trkpt>
      <trkpt lat="46.72653" lon="-2.39281">
        <ele>4.1</ele>
        <time>2018-09-21T13:55:05.000Z</time>
      </trkpt>
      <trkpt lat="46.72653" lon="-2.39282">
        <ele>4.1</ele>
        <time>2018-09-21T13:55:06.000Z</time>
      </trkpt>
      <trkpt lat="46.72652" lon="-2.39284">
        <ele>4</ele>
        <time>2018-09-21T13:55:07.000Z</time>
      </trkpt>
      <trkpt lat="46.72652" lon="-2.39285">
        <ele>4</ele>
        <time>2018-09-21T13:55:08.000Z</time>
      </trkpt>
      <trkpt lat="46.72652" lon="-2.39287">
        <ele>4</ele>
        <time>2018-09-21T13:55:09.000Z</time>
      </trkpt>
      <trkpt lat="46.72652" lon="-2.39288">
        <ele>4</ele>
        <time>2018-09-21T13:55:10.000Z</time>
      </trkpt>
      <trkpt lat="46.72652" lon="-2.39289">
        <ele>4</ele>
        <time>2018-09-21T13:55:11.000Z</time>
      </trkpt>
      <trkpt lat="46.72651" lon="-2.3929">
        <ele>3.9</ele>
        <time>2018-09-21T13:55:12.000Z</time>
      </trkpt>
      <trkpt lat="46.72651" lon="-2.39292">
        <ele>3.9</ele>
        <time>2018-09-21T13:55:13.000Z</time>
      </trkpt>
      <trkpt lat="46.72651" lon="-2.39293">
        <ele>3.9</ele>
        <time>2018-09-21T13:55:14.000Z</time>
      </trkpt>
      <trkpt lat="46.72651" lon="-2.39294">
        <ele>3.9</ele>
        <time>2018-09-21T13:55:15.000Z</time>
      </trkpt>
      <trkpt lat="46.72651" lon="-2.39295">
        <ele>3.9</ele>
        <time>2018-09-21T13:55:16.000Z</time>
      </trkpt>
      <trkpt lat="46.72651" lon="-2.39296">
        <ele>3.9</ele>
        <time>2018-09-21T13:55:17.000Z</time>
      </trkpt>
      <trkpt lat="46.7265" lon="-2.39297">
        <ele>3.8</ele>
        <time>2018-09-21T13:55:18.000Z</time>
      </trkpt>
      <trkpt lat="46.7265" lon="-2.39298">
        <ele>3.8</ele>
        <time>2018-09-21T13:55:19.000Z</time>
      </trkpt>
      <trkpt lat="46.7265" lon="-2.393">
        <ele>3.8</ele>
        <time>2018-09-21T13:55:20.000Z</time>
      </trkpt>
      <trkpt lat="46.72649" lon="-2.39301">
        <ele>3.8</ele>
        <time>2018-09-21T13:55:21.000Z</time>
      </trkpt>
      <trkpt lat="46.72649" lon="-2.39302">
        <ele>3.8</ele>
        <time>2018-09-21T13:55:22.000Z</time>
      </trkpt>
      <trkpt lat="46.72648" lon="-2.39304">
        <ele>3.8</ele>
        <time>2018-09-21T13:55:23.000Z</time>
      </trkpt>
      <trkpt lat="46.72648" lon="-2.39305">
        <ele>3.8</ele>
        <time>2018-09-21T13:55:24.000Z</time>
      </trkpt>
      <trkpt lat="46.72647" lon="-2.39306">
        <ele>3.8</ele>
        <time>2018-09-21T13:55:25.000Z</time>
      </trkpt>
      <trkpt lat="46.72647" lon="-2.39308">
        <ele>3.8</ele>
        <time>2018-09-21T13:55:26.000Z</time>
      </trkpt>
      <trkpt lat="46.72646" lon="-2.39309">
        <ele>3.8</ele>
        <time>2018-09-21T13:55:27.000Z</time>
      </trkpt>
      <trkpt lat="46.72645" lon="-2.3931">
        <ele>3.8</ele>
        <time>2018-09-21T13:55:28.000Z</time>
      </trkpt>
      <trkpt lat="46.72645" lon="-2.39312">
        <ele>3.8</ele>
        <time>2018-09-21T13:55:29.000Z</time>
      </trkpt>
      <trkpt lat="46.72644" lon="-2.39313">
        <ele>3.8</ele>
        <time>2018-09-21T13:55:30.000Z</time>
      </trkpt>
      <trkpt lat="46.72643" lon="-2.39315">
        <ele>3.8</ele>
        <time>2018-09-21T13:55:31.000Z</time>
      </trkpt>
      <trkpt lat="46.72643" lon="-2.39316">
        <ele>3.9</ele>
        <time>2018-09-21T13:55:32.000Z</time>
      </trkpt>
      <trkpt lat="46.72642" lon="-2.39317">
        <ele>3.9</ele>
        <time>2018-09-21T13:55:33.000Z</time>
      </trkpt>
      <trkpt lat="46.72641" lon="-2.39319">
        <ele>3.9</ele>
        <time>2018-09-21T13:55:34.000Z</time>
      </trkpt>
      <trkpt lat="46.72641" lon="-2.3932">
        <ele>3.9</ele>
        <time>2018-09-21T13:55:35.000Z</time>
      </trkpt>
      <trkpt lat="46.7264" lon="-2.39322">
        <ele>3.9</ele>
        <time>2018-09-21T13:55:36.000Z</time>
      </trkpt>
      <trkpt lat="46.72639" lon="-2.39323">
        <ele>3.9</ele>
        <time>2018-09-21T13:55:37.000Z</time>
      </trkpt>
      <trkpt lat="46.72638" lon="-2.39325">
        <ele>3.9</ele>
        <time>2018-09-21T13:55:38.000Z</time>
      </trkpt>
      <trkpt lat="46.72638" lon="-2.39326">
        <ele>3.9</ele>
        <time>2018-09-21T13:55:39.000Z</time>
      </trkpt>
      <trkpt lat="46.72637" lon="-2.39327">
        <ele>3.9</ele>
        <time>2018-09-21T13:55:40.000Z</time>
      </trkpt>
      <trkpt lat="46.72636" lon="-2.39329">
        <ele>3.9</ele>
        <time>2018-09-21T13:55:41.000Z</time>
      </trkpt>
      <trkpt lat="46.72636" lon="-2.3933">
        <ele>3.9</ele>
        <time>2018-09-21T13:55:42.000Z</time>
      </trkpt>
      <trkpt lat="46.72635" lon="-2.39331">
        <ele>3.9</ele>
        <time>2018-09-21T13:55:43.000Z</time>
      </trkpt>
      <trkpt lat="46.72635" lon="-2.39333">
        <ele>3.9</ele>
        <time>2018-09-21T13:55:44.000Z</time>
      </trkpt>
      <trkpt lat="46.72634" lon="-2.39334">
        <ele>3.9</ele>
        <time>2018-09-21T13:55:45.000Z</time>
      </trkpt>
      <trkpt lat="46.72634" lon="-2.39335">
        <ele>4</ele>
        <time>2018-09-21T13:55:46.000Z</time>
      </trkpt>
      <trkpt lat="46.72633" lon="-2.39337">
        <ele>4</ele>
        <time>2018-09-21T13:55:47.000Z</time>
      </trkpt>
      <trkpt lat="46.72633" lon="-2.39338">
        <ele>4</ele>
        <time>2018-09-21T13:55:48.000Z</time>
      </trkpt>
      <trkpt lat="46.72632" lon="-2.39339">
        <ele>4</ele>
        <time>2018-09-21T13:55:49.000Z</time>
      </trkpt>
      <trkpt lat="46.72632" lon="-2.3934">
        <ele>4</ele>
        <time>2018-09-21T13:55:50.000Z</time>
      </trkpt>
      <trkpt lat="46.72632" lon="-2.39342">
        <ele>4</ele>
        <time>2018-09-21T13:55:51.000Z</time>
      </trkpt>
      <trkpt lat="46.72631" lon="-2.39343">
        <ele>4</ele>
        <time>2018-09-21T13:55:52.000Z</time>
      </trkpt>
      <trkpt lat="46.72631" lon="-2.39344">
        <ele>4</ele>
        <time>2018-09-21T13:55:53.000Z</time>
      </trkpt>
      <trkpt lat="46.72631" lon="-2.39346">
        <ele>4</ele>
        <time>2018-09-21T13:55:54.000Z</time>
      </trkpt>
      <trkpt lat="46.72631" lon="-2.39347">
        <ele>4</ele>
        <time>2018-09-21T13:55:55.000Z</time>
      </trkpt>
      <trkpt lat="46.7263" lon="-2.39349">
        <ele>4</ele>
        <time>2018-09-21T13:55:56.000Z</time>
      </trkpt>
      <trkpt lat="46.7263" lon="-2.3935">
        <ele>4</ele>
        <time>2018-09-21T13:55:57.000Z</time>
      </trkpt>
      <trkpt lat="46.7263" lon="-2.39351">
        <ele>4</ele>
        <time>2018-09-21T13:55:58.000Z</time>
      </trkpt>
      <trkpt lat="46.7263" lon="-2.39353">
        <ele>4</ele>
        <time>2018-09-21T13:55:59.000Z</time>
      </trkpt>
      <trkpt lat="46.72629" lon="-2.39354">
        <ele>4</ele>
        <time>2018-09-21T13:56:00.000Z</time>
      </trkpt>
      <trkpt lat="46.72629" lon="-2.39355">
        <ele>4</ele>
        <time>2018-09-21T13:56:01.000Z</time>
      </trkpt>
      <trkpt lat="46.72629" lon="-2.39357">
        <ele>4</ele>
        <time>2018-09-21T13:56:02.000Z</time>
      </trkpt>
      <trkpt lat="46.72628" lon="-2.39358">
        <ele>4</ele>
        <time>2018-09-21T13:56:03.000Z</time>
      </trkpt>
      <trkpt lat="46.72628" lon="-2.39359">
        <ele>4</ele>
        <time>2018-09-21T13:56:04.000Z</time>
      </trkpt>
      <trkpt lat="46.72627" lon="-2.39361">
        <ele>4</ele>
        <time>2018-09-21T13:56:05.000Z</time>
      </trkpt>
      <trkpt lat="46.72627" lon="-2.39362">
        <ele>4</ele>
        <time>2018-09-21T13:56:06.000Z</time>
      </trkpt>
      <trkpt lat="46.72626" lon="-2.39363">
        <ele>4.1</ele>
        <time>2018-09-21T13:56:07.000Z</time>
      </trkpt>
      <trkpt lat="46.72626" lon="-2.39365">
        <ele>4.1</ele>
        <time>2018-09-21T13:56:08.000Z</time>
      </trkpt>
      <trkpt lat="46.72625" lon="-2.39366">
        <ele>4.1</ele>
        <time>2018-09-21T13:56:09.000Z</time>
      </trkpt>
      <trkpt lat="46.72625" lon="-2.39367">
        <ele>4.1</ele>
        <time>2018-09-21T13:56:10.000Z</time>
      </trkpt>
      <trkpt lat="46.72625" lon="-2.39369">
        <ele>4.1</ele>
        <time>2018-09-21T13:56:11.000Z</time>
      </trkpt>
      <trkpt lat="46.72625" lon="-2.3937">
        <ele>4.1</ele>
        <time>2018-09-21T13:56:12.000Z</time>
      </trkpt>
      <trkpt lat="46.72624" lon="-2.39371">
        <ele>4.1</ele>
        <time>2018-09-21T13:56:13.000Z</time>
      </trkpt>
      <trkpt lat="46.72624" lon="-2.39372">
        <ele>4.1</ele>
        <time>2018-09-21T13:56:14.000Z</time>
      </trkpt>
      <trkpt lat="46.72624" lon="-2.39374">
        <ele>4.1</ele>
        <time>2018-09-21T13:56:15.000Z</time>
      </trkpt>
      <trkpt lat="46.72624" lon="-2.39375">
        <ele>4.1</ele>
        <time>2018-09-21T13:56:16.000Z</time>
      </trkpt>
      <trkpt lat="46.72624" lon="-2.39376">
        <ele>4.1</ele>
        <time>2018-09-21T13:56:17.000Z</time>
      </trkpt>
      <trkpt lat="46.72624" lon="-2.39377">
        <ele>4</ele>
        <time>2018-09-21T13:56:18.000Z</time>
      </trkpt>
      <trkpt lat="46.72624" lon="-2.39378">
        <ele>4</ele>
        <time>2018-09-21T13:56:19.000Z</time>
      </trkpt>
      <trkpt lat="46.72624" lon="-2.39379">
        <ele>4</ele>
        <time>2018-09-21T13:56:20.000Z</time>
      </trkpt>
      <trkpt lat="46.72624" lon="-2.3938">
        <ele>4</ele>
        <time>2018-09-21T13:56:21.000Z</time>
      </trkpt>
      <trkpt lat="46.72624" lon="-2.3938">
        <ele>4</ele>
        <time>2018-09-21T13:56:22.000Z</time>
      </trkpt>
      <trkpt lat="46.72624" lon="-2.39381">
        <ele>4</ele>
        <time>2018-09-21T13:56:23.000Z</time>
      </trkpt>
      <trkpt lat="46.72624" lon="-2.39381">
        <ele>4</ele>
        <time>2018-09-21T13:56:24.000Z</time>
      </trkpt>
      <trkpt lat="46.72624" lon="-2.39382">
        <ele>4</ele>
        <time>2018-09-21T13:56:25.000Z</time>
      </trkpt>
      <trkpt lat="46.72624" lon="-2.39382">
        <ele>4</ele>
        <time>2018-09-21T13:56:26.000Z</time>
      </trkpt>
      <trkpt lat="46.72624" lon="-2.39382">
        <ele>4</ele>
        <time>2018-09-21T13:56:27.000Z</time>
      </trkpt>
      <trkpt lat="46.72624" lon="-2.39383">
        <ele>4</ele>
        <time>2018-09-21T13:56:28.000Z</time>
      </trkpt>
      <trkpt lat="46.72624" lon="-2.39383">
        <ele>4</ele>
        <time>2018-09-21T13:56:29.000Z</time>
      </trkpt>
      <trkpt lat="46.72624" lon="-2.39383">
        <ele>4</ele>
        <time>2018-09-21T13:56:30.000Z</time>
      </trkpt>
      <trkpt lat="46.72624" lon="-2.39383">
        <ele>4</ele>
        <time>2018-09-21T13:56:31.000Z</time>
      </trkpt>
      <trkpt lat="46.72624" lon="-2.39383">
        <ele>4</ele>
        <time>2018-09-21T13:56:32.000Z</time>
      </trkpt>
      <trkpt lat="46.72624" lon="-2.39383">
        <ele>4</ele>
        <time>2018-09-21T13:56:33.000Z</time>
      </trkpt>
      <trkpt lat="46.72624" lon="-2.39383">
        <ele>4</ele>
        <time>2018-09-21T13:56:34.000Z</time>
      </trkpt>
      <trkpt lat="46.72624" lon="-2.39383">
        <ele>4</ele>
        <time>2018-09-21T13:56:35.000Z</time>
      </trkpt>
      <trkpt lat="46.72624" lon="-2.39383">
        <ele>4</ele>
        <time>2018-09-21T13:56:36.000Z</time>
      </trkpt>
      <trkpt lat="46.72624" lon="-2.39383">
        <ele>4</ele>
        <time>2018-09-21T13:56:37.000Z</time>
      </trkpt>
      <trkpt lat="46.72624" lon="-2.39383">
        <ele>4</ele>
        <time>2018-09-21T13:56:38.000Z</time>
      </trkpt>
      <trkpt lat="46.72624" lon="-2.39383">
        <ele>4</ele>
        <time>2018-09-21T13:56:39.000Z</time>
      </trkpt>
      <trkpt lat="46.72624" lon="-2.39383">
        <ele>4</ele>
        <time>2018-09-21T13:56:40.000Z</time>
      </trkpt>
      <trkpt lat="46.72624" lon="-2.39383">
        <ele>4</ele>
        <time>2018-09-21T13:56:41.000Z</time>
      </trkpt>
      <trkpt lat="46.72624" lon="-2.39383">
        <ele>4</ele>
        <time>2018-09-21T13:56:42.000Z</time>
      </trkpt>
      <trkpt lat="46.72624" lon="-2.39383">
        <ele>4</ele>
        <time>2018-09-21T13:56:43.000Z</time>
      </trkpt>
      <trkpt lat="46.72624" lon="-2.39383">
        <ele>4</ele>
        <time>2018-09-21T13:56:44.000Z</time>
      </trkpt>
      <trkpt lat="46.72624" lon="-2.39383">
        <ele>4</ele>
        <time>2018-09-21T13:56:45.000Z</time>
      </trkpt>
      <trkpt lat="46.72624" lon="-2.39383">
        <ele>4</ele>
        <time>2018-09-21T13:56:46.000Z</time>
      </trkpt>
      <trkpt lat="46.72624" lon="-2.39383">
        <ele>4</ele>
        <time>2018-09-21T13:56:47.000Z</time>
      </trkpt>
      <trkpt lat="46.72624" lon="-2.39383">
        <ele>4</ele>
        <time>2018-09-21T13:56:48.000Z</time>
      </trkpt>
      <trkpt lat="46.72624" lon="-2.39383">
        <ele>4</ele>
        <time>2018-09-21T13:56:49.000Z</time>
      </trkpt>
      <trkpt lat="46.72624" lon="-2.39383">
        <ele>4</ele>
        <time>2018-09-21T13:56:50.000Z</time>
      </trkpt>
      <trkpt lat="46.72624" lon="-2.39383">
        <ele>4</ele>
        <time>2018-09-21T13:56:51.000Z</time>
      </trkpt>
      <trkpt lat="46.72624" lon="-2.39383">
        <ele>4</ele>
        <time>2018-09-21T13:56:52.000Z</time>
      </trkpt>
      <trkpt lat="46.72624" lon="-2.39383">
        <ele>4</ele>
        <time>2018-09-21T13:56:53.000Z</time>
      </trkpt>
      <trkpt lat="46.72624" lon="-2.39383">
        <ele>4</ele>
        <time>2018-09-21T13:56:54.000Z</time>
      </trkpt>
      <trkpt lat="46.72624" lon="-2.39383">
        <ele>4</ele>
        <time>2018-09-21T13:56:55.000Z</time>
      </trkpt>
      <trkpt lat="46.72624" lon="-2.39383">
        <ele>4</ele>
        <time>2018-09-21T13:56:56.000Z</time>
      </trkpt>
      <trkpt lat="46.72624" lon="-2.39383">
        <ele>4</ele>
        <time>2018-09-21T13:56:57.000Z</time>
      </trkpt>
      <trkpt lat="46.72624" lon="-2.39383">
        <ele>4</ele>
        <time>2018-09-21T13:56:58.000Z</time>
      </trkpt>
      <trkpt lat="46.72624" lon="-2.39383">
        <ele>4</ele>
        <time>2018-09-21T13:56:59.000Z</time>
      </trkpt>
      <trkpt lat="46.72624" lon="-2.39383">
        <ele>4</ele>
        <time>2018-09-21T13:57:00.000Z</time>
      </trkpt>
      <trkpt lat="46.72624" lon="-2.39383">
        <ele>4</ele>
        <time>2018-09-21T13:57:01.000Z</time>
      </trkpt>
      <trkpt lat="46.72624" lon="-2.39383">
        <ele>4</ele>
        <time>2018-09-21T13:57:02.000Z</time>
      </trkpt>
      <trkpt lat="46.72624" lon="-2.39383">
        <ele>4</ele>
        <time>2018-09-21T13:57:03.000Z</time>
      </trkpt>
      <trkpt lat="46.72624" lon="-2.39383">
        <ele>4</ele>
        <time>2018-09-21T13:57:04.000Z</time>
      </trkpt>
      <trkpt lat="46.72624" lon="-2.39383">
        <ele>4</ele>
        <time>2018-09-21T13:57:05.000Z</time>
      </trkpt>
      <trkpt lat="46.72624" lon="-2.39383">
        <ele>4</ele>
        <time>2018-09-21T13:57:06.000Z</time>
      </trkpt>
      <trkpt lat="46.72624" lon="-2.39383">
        <ele>4</ele>
        <time>2018-09-21T13:57:07.000Z</time>
      </trkpt>
      <trkpt lat="46.72624" lon="-2.39383">
        <ele>4</ele>
        <time>2018-09-21T13:57:08.000Z</time>
      </trkpt>
      <trkpt lat="46.72624" lon="-2.39383">
        <ele>4</ele>
        <time>2018-09-21T13:57:09.000Z</time>
      </trkpt>
      <trkpt lat="46.72624" lon="-2.39383">
        <ele>4</ele>
        <time>2018-09-21T13:57:10.000Z</time>
      </trkpt>
      <trkpt lat="46.72624" lon="-2.39383">
        <ele>4</ele>
        <time>2018-09-21T13:57:11.000Z</time>
      </trkpt>
      <trkpt lat="46.72624" lon="-2.39383">
        <ele>4</ele>
        <time>2018-09-21T13:57:12.000Z</time>
      </trkpt>
      <trkpt lat="46.72624" lon="-2.39383">
        <ele>4</ele>
        <time>2018-09-21T13:57:13.000Z</time>
      </trkpt>
      <trkpt lat="46.72624" lon="-2.39383">
        <ele>4</ele>
        <time>2018-09-21T13:57:14.000Z</time>
      </trkpt>
      <trkpt lat="46.72624" lon="-2.39383">
        <ele>4</ele>
        <time>2018-09-21T13:57:15.000Z</time>
      </trkpt>
      <trkpt lat="46.72624" lon="-2.39383">
        <ele>4</ele>
        <time>2018-09-21T13:57:16.000Z</time>
      </trkpt>
      <trkpt lat="46.72624" lon="-2.39383">
        <ele>4</ele>
        <time>2018-09-21T13:57:17.000Z</time>
      </trkpt>
      <trkpt lat="46.72624" lon="-2.39383">
        <ele>4</ele>
        <time>2018-09-21T13:57:18.000Z</time>
      </trkpt>
      <trkpt lat="46.72624" lon="-2.39383">
        <ele>4</ele>
        <time>2018-09-21T13:57:19.000Z</time>
      </trkpt>
      <trkpt lat="46.72624" lon="-2.39384">
        <ele>4</ele>
        <time>2018-09-21T13:57:20.000Z</time>
      </trkpt>
      <trkpt lat="46.72624" lon="-2.39384">
        <ele>4</ele>
        <time>2018-09-21T13:57:21.000Z</time>
      </trkpt>
      <trkpt lat="46.72624" lon="-2.39384">
        <ele>4</ele>
        <time>2018-09-21T13:57:22.000Z</time>
      </trkpt>
      <trkpt lat="46.72624" lon="-2.39385">
        <ele>4</ele>
        <time>2018-09-21T13:57:23.000Z</time>
      </trkpt>
      <trkpt lat="46.72624" lon="-2.39385">
        <ele>4</ele>
        <time>2018-09-21T13:57:24.000Z</time>
      </trkpt>
      <trkpt lat="46.72623" lon="-2.39385">
        <ele>4</ele>
        <time>2018-09-21T13:57:25.000Z</time>
      </trkpt>
      <trkpt lat="46.72623" lon="-2.39386">
        <ele>4</ele>
        <time>2018-09-21T13:57:26.000Z</time>
      </trkpt>
      <trkpt lat="46.72623" lon="-2.39387">
        <ele>4</ele>
        <time>2018-09-21T13:57:27.000Z</time>
      </trkpt>
      <trkpt lat="46.72622" lon="-2.39388">
        <ele>4</ele>
        <time>2018-09-21T13:57:28.000Z</time>
      </trkpt>
      <trkpt lat="46.72622" lon="-2.39389">
        <ele>4</ele>
        <time>2018-09-21T13:57:29.000Z</time>
      </trkpt>
      <trkpt lat="46.72621" lon="-2.3939">
        <ele>4</ele>
        <time>2018-09-21T13:57:30.000Z</time>
      </trkpt>
      <trkpt lat="46.72621" lon="-2.39391">
        <ele>4.1</ele>
        <time>2018-09-21T13:57:31.000Z</time>
      </trkpt>
      <trkpt lat="46.7262" lon="-2.39392">
        <ele>4.1</ele>
        <time>2018-09-21T13:57:32.000Z</time>
      </trkpt>
      <trkpt lat="46.72619" lon="-2.39393">
        <ele>4.1</ele>
        <time>2018-09-21T13:57:33.000Z</time>
      </trkpt>
      <trkpt lat="46.72619" lon="-2.39394">
        <ele>4.1</ele>
        <time>2018-09-21T13:57:34.000Z</time>
      </trkpt>
      <trkpt lat="46.72618" lon="-2.39395">
        <ele>4.2</ele>
        <time>2018-09-21T13:57:35.000Z</time>
      </trkpt>
      <trkpt lat="46.72618" lon="-2.39396">
        <ele>4.2</ele>
        <time>2018-09-21T13:57:36.000Z</time>
      </trkpt>
      <trkpt lat="46.72617" lon="-2.39398">
        <ele>4.2</ele>
        <time>2018-09-21T13:57:37.000Z</time>
      </trkpt>
      <trkpt lat="46.72617" lon="-2.39399">
        <ele>4.2</ele>
        <time>2018-09-21T13:57:38.000Z</time>
      </trkpt>
      <trkpt lat="46.72616" lon="-2.394">
        <ele>4.2</ele>
        <time>2018-09-21T13:57:39.000Z</time>
      </trkpt>
      <trkpt lat="46.72616" lon="-2.39401">
        <ele>4.2</ele>
        <time>2018-09-21T13:57:40.000Z</time>
      </trkpt>
      <trkpt lat="46.72616" lon="-2.39402">
        <ele>4.2</ele>
        <time>2018-09-21T13:57:41.000Z</time>
      </trkpt>
      <trkpt lat="46.72615" lon="-2.39403">
        <ele>4.2</ele>
        <time>2018-09-21T13:57:42.000Z</time>
      </trkpt>
      <trkpt lat="46.72615" lon="-2.39404">
        <ele>4.2</ele>
        <time>2018-09-21T13:57:43.000Z</time>
      </trkpt>
      <trkpt lat="46.72615" lon="-2.39405">
        <ele>4.2</ele>
        <time>2018-09-21T13:57:44.000Z</time>
      </trkpt>
      <trkpt lat="46.72615" lon="-2.39407">
        <ele>4.2</ele>
        <time>2018-09-21T13:57:45.000Z</time>
      </trkpt>
      <trkpt lat="46.72615" lon="-2.39408">
        <ele>4.2</ele>
        <time>2018-09-21T13:57:46.000Z</time>
      </trkpt>
      <trkpt lat="46.72615" lon="-2.39409">
        <ele>4.2</ele>
        <time>2018-09-21T13:57:47.000Z</time>
      </trkpt>
      <trkpt lat="46.72615" lon="-2.39411">
        <ele>4.2</ele>
        <time>2018-09-21T13:57:48.000Z</time>
      </trkpt>
      <trkpt lat="46.72615" lon="-2.39412">
        <ele>4.2</ele>
        <time>2018-09-21T13:57:49.000Z</time>
      </trkpt>
      <trkpt lat="46.72615" lon="-2.39414">
        <ele>4.1</ele>
        <time>2018-09-21T13:57:50.000Z</time>
      </trkpt>
      <trkpt lat="46.72615" lon="-2.39415">
        <ele>4.1</ele>
        <time>2018-09-21T13:57:51.000Z</time>
      </trkpt>
      <trkpt lat="46.72615" lon="-2.39416">
        <ele>4.1</ele>
        <time>2018-09-21T13:57:52.000Z</time>
      </trkpt>
      <trkpt lat="46.72615" lon="-2.39418">
        <ele>4.1</ele>
        <time>2018-09-21T13:57:53.000Z</time>
      </trkpt>
      <trkpt lat="46.72615" lon="-2.39419">
        <ele>4.1</ele>
        <time>2018-09-21T13:57:54.000Z</time>
      </trkpt>
      <trkpt lat="46.72615" lon="-2.39421">
        <ele>4.1</ele>
        <time>2018-09-21T13:57:55.000Z</time>
      </trkpt>
      <trkpt lat="46.72615" lon="-2.39422">
        <ele>4.1</ele>
        <time>2018-09-21T13:57:56.000Z</time>
      </trkpt>
      <trkpt lat="46.72614" lon="-2.39424">
        <ele>4.1</ele>
        <time>2018-09-21T13:57:57.000Z</time>
      </trkpt>
      <trkpt lat="46.72614" lon="-2.39425">
        <ele>4.1</ele>
        <time>2018-09-21T13:57:58.000Z</time>
      </trkpt>
      <trkpt lat="46.72614" lon="-2.39426">
        <ele>4</ele>
        <time>2018-09-21T13:57:59.000Z</time>
      </trkpt>
      <trkpt lat="46.72614" lon="-2.39428">
        <ele>4.1</ele>
        <time>2018-09-21T13:58:00.000Z</time>
      </trkpt>
      <trkpt lat="46.72613" lon="-2.39429">
        <ele>4.1</ele>
        <time>2018-09-21T13:58:01.000Z</time>
      </trkpt>
      <trkpt lat="46.72613" lon="-2.39431">
        <ele>4.1</ele>
        <time>2018-09-21T13:58:02.000Z</time>
      </trkpt>
      <trkpt lat="46.72613" lon="-2.39432">
        <ele>4.1</ele>
        <time>2018-09-21T13:58:03.000Z</time>
      </trkpt>
      <trkpt lat="46.72612" lon="-2.39433">
        <ele>4.1</ele>
        <time>2018-09-21T13:58:04.000Z</time>
      </trkpt>
      <trkpt lat="46.72612" lon="-2.39435">
        <ele>4.1</ele>
        <time>2018-09-21T13:58:05.000Z</time>
      </trkpt>
      <trkpt lat="46.72612" lon="-2.39436">
        <ele>4.1</ele>
        <time>2018-09-21T13:58:06.000Z</time>
      </trkpt>
      <trkpt lat="46.72612" lon="-2.39438">
        <ele>4.1</ele>
        <time>2018-09-21T13:58:07.000Z</time>
      </trkpt>
      <trkpt lat="46.72612" lon="-2.39439">
        <ele>4</ele>
        <time>2018-09-21T13:58:08.000Z</time>
      </trkpt>
      <trkpt lat="46.72611" lon="-2.39441">
        <ele>4</ele>
        <time>2018-09-21T13:58:09.000Z</time>
      </trkpt>
      <trkpt lat="46.72611" lon="-2.39442">
        <ele>4</ele>
        <time>2018-09-21T13:58:10.000Z</time>
      </trkpt>
      <trkpt lat="46.72611" lon="-2.39444">
        <ele>4</ele>
        <time>2018-09-21T13:58:11.000Z</time>
      </trkpt>
      <trkpt lat="46.72611" lon="-2.39446">
        <ele>4</ele>
        <time>2018-09-21T13:58:12.000Z</time>
      </trkpt>
      <trkpt lat="46.72611" lon="-2.39447">
        <ele>4</ele>
        <time>2018-09-21T13:58:13.000Z</time>
      </trkpt>
      <trkpt lat="46.7261" lon="-2.39449">
        <ele>4</ele>
        <time>2018-09-21T13:58:14.000Z</time>
      </trkpt>
      <trkpt lat="46.7261" lon="-2.39451">
        <ele>4</ele>
        <time>2018-09-21T13:58:15.000Z</time>
      </trkpt>
      <trkpt lat="46.7261" lon="-2.39452">
        <ele>4</ele>
        <time>2018-09-21T13:58:16.000Z</time>
      </trkpt>
      <trkpt lat="46.7261" lon="-2.39454">
        <ele>4</ele>
        <time>2018-09-21T13:58:17.000Z</time>
      </trkpt>
      <trkpt lat="46.7261" lon="-2.39456">
        <ele>4</ele>
        <time>2018-09-21T13:58:18.000Z</time>
      </trkpt>
      <trkpt lat="46.72609" lon="-2.39457">
        <ele>4</ele>
        <time>2018-09-21T13:58:19.000Z</time>
      </trkpt>
      <trkpt lat="46.72609" lon="-2.39459">
        <ele>4</ele>
        <time>2018-09-21T13:58:20.000Z</time>
      </trkpt>
      <trkpt lat="46.72609" lon="-2.39461">
        <ele>3.9</ele>
        <time>2018-09-21T13:58:21.000Z</time>
      </trkpt>
      <trkpt lat="46.72608" lon="-2.39462">
        <ele>3.9</ele>
        <time>2018-09-21T13:58:22.000Z</time>
      </trkpt>
      <trkpt lat="46.72608" lon="-2.39464">
        <ele>3.9</ele>
        <time>2018-09-21T13:58:23.000Z</time>
      </trkpt>
      <trkpt lat="46.72608" lon="-2.39465">
        <ele>4</ele>
        <time>2018-09-21T13:58:24.000Z</time>
      </trkpt>
      <trkpt lat="46.72607" lon="-2.39466">
        <ele>4</ele>
        <time>2018-09-21T13:58:25.000Z</time>
      </trkpt>
      <trkpt lat="46.72607" lon="-2.39468">
        <ele>4</ele>
        <time>2018-09-21T13:58:26.000Z</time>
      </trkpt>
      <trkpt lat="46.72607" lon="-2.39469">
        <ele>4</ele>
        <time>2018-09-21T13:58:27.000Z</time>
      </trkpt>
      <trkpt lat="46.72606" lon="-2.3947">
        <ele>4</ele>
        <time>2018-09-21T13:58:28.000Z</time>
      </trkpt>
      <trkpt lat="46.72606" lon="-2.39471">
        <ele>4</ele>
        <time>2018-09-21T13:58:29.000Z</time>
      </trkpt>
      <trkpt lat="46.72605" lon="-2.39472">
        <ele>4</ele>
        <time>2018-09-21T13:58:30.000Z</time>
      </trkpt>
      <trkpt lat="46.72605" lon="-2.39473">
        <ele>4</ele>
        <time>2018-09-21T13:58:31.000Z</time>
      </trkpt>
      <trkpt lat="46.72604" lon="-2.39474">
        <ele>4.1</ele>
        <time>2018-09-21T13:58:32.000Z</time>
      </trkpt>
      <trkpt lat="46.72604" lon="-2.39475">
        <ele>4.1</ele>
        <time>2018-09-21T13:58:33.000Z</time>
      </trkpt>
      <trkpt lat="46.72604" lon="-2.39477">
        <ele>4.1</ele>
        <time>2018-09-21T13:58:34.000Z</time>
      </trkpt>
      <trkpt lat="46.72603" lon="-2.39478">
        <ele>4.1</ele>
        <time>2018-09-21T13:58:35.000Z</time>
      </trkpt>
      <trkpt lat="46.72603" lon="-2.39479">
        <ele>4.1</ele>
        <time>2018-09-21T13:58:36.000Z</time>
      </trkpt>
      <trkpt lat="46.72602" lon="-2.3948">
        <ele>4.1</ele>
        <time>2018-09-21T13:58:37.000Z</time>
      </trkpt>
      <trkpt lat="46.72602" lon="-2.39482">
        <ele>4.1</ele>
        <time>2018-09-21T13:58:38.000Z</time>
      </trkpt>
      <trkpt lat="46.72602" lon="-2.39483">
        <ele>4.1</ele>
        <time>2018-09-21T13:58:39.000Z</time>
      </trkpt>
      <trkpt lat="46.72601" lon="-2.39485">
        <ele>4.1</ele>
        <time>2018-09-21T13:58:40.000Z</time>
      </trkpt>
      <trkpt lat="46.72601" lon="-2.39486">
        <ele>4.1</ele>
        <time>2018-09-21T13:58:41.000Z</time>
      </trkpt>
      <trkpt lat="46.72601" lon="-2.39487">
        <ele>4.1</ele>
        <time>2018-09-21T13:58:42.000Z</time>
      </trkpt>
      <trkpt lat="46.726" lon="-2.39489">
        <ele>4.1</ele>
        <time>2018-09-21T13:58:43.000Z</time>
      </trkpt>
      <trkpt lat="46.726" lon="-2.3949">
        <ele>4.1</ele>
        <time>2018-09-21T13:58:44.000Z</time>
      </trkpt>
      <trkpt lat="46.726" lon="-2.39492">
        <ele>4.1</ele>
        <time>2018-09-21T13:58:45.000Z</time>
      </trkpt>
      <trkpt lat="46.726" lon="-2.39494">
        <ele>4.1</ele>
        <time>2018-09-21T13:58:46.000Z</time>
      </trkpt>
      <trkpt lat="46.72599" lon="-2.39495">
        <ele>4.1</ele>
        <time>2018-09-21T13:58:47.000Z</time>
      </trkpt>
      <trkpt lat="46.72599" lon="-2.39497">
        <ele>4.1</ele>
        <time>2018-09-21T13:58:48.000Z</time>
      </trkpt>
      <trkpt lat="46.72599" lon="-2.39498">
        <ele>4.1</ele>
        <time>2018-09-21T13:58:49.000Z</time>
      </trkpt>
      <trkpt lat="46.72599" lon="-2.395">
        <ele>4.1</ele>
        <time>2018-09-21T13:58:50.000Z</time>
      </trkpt>
      <trkpt lat="46.72598" lon="-2.39501">
        <ele>4.1</ele>
        <time>2018-09-21T13:58:51.000Z</time>
      </trkpt>
      <trkpt lat="46.72598" lon="-2.39502">
        <ele>4</ele>
        <time>2018-09-21T13:58:52.000Z</time>
      </trkpt>
      <trkpt lat="46.72598" lon="-2.39504">
        <ele>4</ele>
        <time>2018-09-21T13:58:53.000Z</time>
      </trkpt>
      <trkpt lat="46.72597" lon="-2.39505">
        <ele>4</ele>
        <time>2018-09-21T13:58:54.000Z</time>
      </trkpt>
      <trkpt lat="46.72597" lon="-2.39506">
        <ele>3.9</ele>
        <time>2018-09-21T13:58:55.000Z</time>
      </trkpt>
      <trkpt lat="46.72596" lon="-2.39508">
        <ele>3.9</ele>
        <time>2018-09-21T13:58:56.000Z</time>
      </trkpt>
      <trkpt lat="46.72596" lon="-2.39509">
        <ele>3.9</ele>
        <time>2018-09-21T13:58:57.000Z</time>
      </trkpt>
      <trkpt lat="46.72595" lon="-2.3951">
        <ele>3.9</ele>
        <time>2018-09-21T13:58:58.000Z</time>
      </trkpt>
      <trkpt lat="46.72595" lon="-2.39511">
        <ele>3.8</ele>
        <time>2018-09-21T13:58:59.000Z</time>
      </trkpt>
      <trkpt lat="46.72594" lon="-2.39512">
        <ele>3.8</ele>
        <time>2018-09-21T13:59:00.000Z</time>
      </trkpt>
      <trkpt lat="46.72593" lon="-2.39513">
        <ele>3.8</ele>
        <time>2018-09-21T13:59:01.000Z</time>
      </trkpt>
      <trkpt lat="46.72593" lon="-2.39514">
        <ele>3.8</ele>
        <time>2018-09-21T13:59:02.000Z</time>
      </trkpt>
      <trkpt lat="46.72592" lon="-2.39516">
        <ele>3.8</ele>
        <time>2018-09-21T13:59:03.000Z</time>
      </trkpt>
      <trkpt lat="46.72591" lon="-2.39517">
        <ele>3.8</ele>
        <time>2018-09-21T13:59:04.000Z</time>
      </trkpt>
      <trkpt lat="46.72591" lon="-2.39518">
        <ele>3.8</ele>
        <time>2018-09-21T13:59:05.000Z</time>
      </trkpt>
      <trkpt lat="46.7259" lon="-2.39519">
        <ele>3.8</ele>
        <time>2018-09-21T13:59:06.000Z</time>
      </trkpt>
      <trkpt lat="46.72589" lon="-2.39519">
        <ele>3.8</ele>
        <time>2018-09-21T13:59:07.000Z</time>
      </trkpt>
      <trkpt lat="46.72589" lon="-2.3952">
        <ele>3.7</ele>
        <time>2018-09-21T13:59:08.000Z</time>
      </trkpt>
      <trkpt lat="46.72588" lon="-2.39521">
        <ele>3.7</ele>
        <time>2018-09-21T13:59:09.000Z</time>
      </trkpt>
      <trkpt lat="46.72587" lon="-2.39522">
        <ele>3.7</ele>
        <time>2018-09-21T13:59:10.000Z</time>
      </trkpt>
      <trkpt lat="46.72587" lon="-2.39523">
        <ele>3.7</ele>
        <time>2018-09-21T13:59:11.000Z</time>
      </trkpt>
      <trkpt lat="46.72586" lon="-2.39524">
        <ele>3.7</ele>
        <time>2018-09-21T13:59:12.000Z</time>
      </trkpt>
      <trkpt lat="46.72585" lon="-2.39525">
        <ele>3.7</ele>
        <time>2018-09-21T13:59:13.000Z</time>
      </trkpt>
      <trkpt lat="46.72584" lon="-2.39526">
        <ele>3.7</ele>
        <time>2018-09-21T13:59:14.000Z</time>
      </trkpt>
      <trkpt lat="46.72584" lon="-2.39527">
        <ele>3.7</ele>
        <time>2018-09-21T13:59:15.000Z</time>
      </trkpt>
      <trkpt lat="46.72583" lon="-2.39528">
        <ele>3.7</ele>
        <time>2018-09-21T13:59:16.000Z</time>
      </trkpt>
      <trkpt lat="46.72582" lon="-2.39529">
        <ele>3.6</ele>
        <time>2018-09-21T13:59:17.000Z</time>
      </trkpt>
      <trkpt lat="46.72582" lon="-2.3953">
        <ele>3.6</ele>
        <time>2018-09-21T13:59:18.000Z</time>
      </trkpt>
      <trkpt lat="46.72581" lon="-2.39531">
        <ele>3.6</ele>
        <time>2018-09-21T13:59:19.000Z</time>
      </trkpt>
      <trkpt lat="46.7258" lon="-2.39532">
        <ele>3.6</ele>
        <time>2018-09-21T13:59:20.000Z</time>
      </trkpt>
      <trkpt lat="46.7258" lon="-2.39533">
        <ele>3.5</ele>
        <time>2018-09-21T13:59:21.000Z</time>
      </trkpt>
      <trkpt lat="46.72579" lon="-2.39533">
        <ele>3.5</ele>
        <time>2018-09-21T13:59:22.000Z</time>
      </trkpt>
      <trkpt lat="46.72578" lon="-2.39534">
        <ele>3.5</ele>
        <time>2018-09-21T13:59:23.000Z</time>
      </trkpt>
      <trkpt lat="46.72578" lon="-2.39535">
        <ele>3.4</ele>
        <time>2018-09-21T13:59:24.000Z</time>
      </trkpt>
      <trkpt lat="46.72577" lon="-2.39536">
        <ele>3.4</ele>
        <time>2018-09-21T13:59:25.000Z</time>
      </trkpt>
      <trkpt lat="46.72577" lon="-2.39537">
        <ele>3.4</ele>
        <time>2018-09-21T13:59:26.000Z</time>
      </trkpt>
      <trkpt lat="46.72576" lon="-2.39538">
        <ele>3.3</ele>
        <time>2018-09-21T13:59:27.000Z</time>
      </trkpt>
      <trkpt lat="46.72576" lon="-2.3954">
        <ele>3.3</ele>
        <time>2018-09-21T13:59:28.000Z</time>
      </trkpt>
      <trkpt lat="46.72575" lon="-2.39541">
        <ele>3.2</ele>
        <time>2018-09-21T13:59:29.000Z</time>
      </trkpt>
      <trkpt lat="46.72575" lon="-2.39542">
        <ele>3.2</ele>
        <time>2018-09-21T13:59:30.000Z</time>
      </trkpt>
      <trkpt lat="46.72575" lon="-2.39543">
        <ele>3.2</ele>
        <time>2018-09-21T13:59:31.000Z</time>
      </trkpt>
      <trkpt lat="46.72574" lon="-2.39544">
        <ele>3.1</ele>
        <time>2018-09-21T13:59:32.000Z</time>
      </trkpt>
      <trkpt lat="46.72574" lon="-2.39545">
        <ele>3.1</ele>
        <time>2018-09-21T13:59:33.000Z</time>
      </trkpt>
      <trkpt lat="46.72574" lon="-2.39546">
        <ele>3</ele>
        <time>2018-09-21T13:59:34.000Z</time>
      </trkpt>
      <trkpt lat="46.72574" lon="-2.39547">
        <ele>3</ele>
        <time>2018-09-21T13:59:35.000Z</time>
      </trkpt>
      <trkpt lat="46.72573" lon="-2.39548">
        <ele>2.9</ele>
        <time>2018-09-21T13:59:36.000Z</time>
      </trkpt>
      <trkpt lat="46.72573" lon="-2.3955">
        <ele>2.9</ele>
        <time>2018-09-21T13:59:37.000Z</time>
      </trkpt>
      <trkpt lat="46.72573" lon="-2.39551">
        <ele>2.9</ele>
        <time>2018-09-21T13:59:38.000Z</time>
      </trkpt>
      <trkpt lat="46.72572" lon="-2.39552">
        <ele>2.8</ele>
        <time>2018-09-21T13:59:39.000Z</time>
      </trkpt>
      <trkpt lat="46.72572" lon="-2.39553">
        <ele>2.8</ele>
        <time>2018-09-21T13:59:40.000Z</time>
      </trkpt>
      <trkpt lat="46.72572" lon="-2.39554">
        <ele>2.8</ele>
        <time>2018-09-21T13:59:41.000Z</time>
      </trkpt>
      <trkpt lat="46.72571" lon="-2.39554">
        <ele>2.7</ele>
        <time>2018-09-21T13:59:42.000Z</time>
      </trkpt>
      <trkpt lat="46.72571" lon="-2.39555">
        <ele>2.7</ele>
        <time>2018-09-21T13:59:43.000Z</time>
      </trkpt>
      <trkpt lat="46.7257" lon="-2.39556">
        <ele>2.7</ele>
        <time>2018-09-21T13:59:44.000Z</time>
      </trkpt>
      <trkpt lat="46.72569" lon="-2.39557">
        <ele>2.7</ele>
        <time>2018-09-21T13:59:45.000Z</time>
      </trkpt>
      <trkpt lat="46.72569" lon="-2.39558">
        <ele>2.6</ele>
        <time>2018-09-21T13:59:46.000Z</time>
      </trkpt>
      <trkpt lat="46.72568" lon="-2.39559">
        <ele>2.6</ele>
        <time>2018-09-21T13:59:47.000Z</time>
      </trkpt>
      <trkpt lat="46.72568" lon="-2.3956">
        <ele>2.6</ele>
        <time>2018-09-21T13:59:48.000Z</time>
      </trkpt>
      <trkpt lat="46.72567" lon="-2.3956">
        <ele>2.6</ele>
        <time>2018-09-21T13:59:49.000Z</time>
      </trkpt>
      <trkpt lat="46.72567" lon="-2.39561">
        <ele>2.5</ele>
        <time>2018-09-21T13:59:50.000Z</time>
      </trkpt>
      <trkpt lat="46.72567" lon="-2.39562">
        <ele>2.5</ele>
        <time>2018-09-21T13:59:51.000Z</time>
      </trkpt>
      <trkpt lat="46.72566" lon="-2.39563">
        <ele>2.5</ele>
        <time>2018-09-21T13:59:52.000Z</time>
      </trkpt>
      <trkpt lat="46.72566" lon="-2.39564">
        <ele>2.5</ele>
        <time>2018-09-21T13:59:53.000Z</time>
      </trkpt>
      <trkpt lat="46.72566" lon="-2.39565">
        <ele>2.4</ele>
        <time>2018-09-21T13:59:54.000Z</time>
      </trkpt>
      <trkpt lat="46.72566" lon="-2.39566">
        <ele>2.4</ele>
        <time>2018-09-21T13:59:55.000Z</time>
      </trkpt>
      <trkpt lat="46.72566" lon="-2.39567">
        <ele>2.3</ele>
        <time>2018-09-21T13:59:56.000Z</time>
      </trkpt>
      <trkpt lat="46.72566" lon="-2.39568">
        <ele>2.3</ele>
        <time>2018-09-21T13:59:57.000Z</time>
      </trkpt>
      <trkpt lat="46.72566" lon="-2.39569">
        <ele>2.2</ele>
        <time>2018-09-21T13:59:58.000Z</time>
      </trkpt>
      <trkpt lat="46.72567" lon="-2.3957">
        <ele>2.2</ele>
        <time>2018-09-21T13:59:59.000Z</time>
      </trkpt>
      <trkpt lat="46.72567" lon="-2.39571">
        <ele>2.1</ele>
        <time>2018-09-21T14:00:00.000Z</time>
      </trkpt>
      <trkpt lat="46.72567" lon="-2.39572">
        <ele>2.1</ele>
        <time>2018-09-21T14:00:01.000Z</time>
      </trkpt>
      <trkpt lat="46.72568" lon="-2.39573">
        <ele>2</ele>
        <time>2018-09-21T14:00:02.000Z</time>
      </trkpt>
      <trkpt lat="46.72568" lon="-2.39574">
        <ele>2</ele>
        <time>2018-09-21T14:00:03.000Z</time>
      </trkpt>
      <trkpt lat="46.72568" lon="-2.39575">
        <ele>1.9</ele>
        <time>2018-09-21T14:00:04.000Z</time>
      </trkpt>
      <trkpt lat="46.72569" lon="-2.39576">
        <ele>1.8</ele>
        <time>2018-09-21T14:00:05.000Z</time>
      </trkpt>
      <trkpt lat="46.72569" lon="-2.39577">
        <ele>1.8</ele>
        <time>2018-09-21T14:00:06.000Z</time>
      </trkpt>
      <trkpt lat="46.72569" lon="-2.39579">
        <ele>1.7</ele>
        <time>2018-09-21T14:00:07.000Z</time>
      </trkpt>
      <trkpt lat="46.72569" lon="-2.3958">
        <ele>1.7</ele>
        <time>2018-09-21T14:00:08.000Z</time>
      </trkpt>
      <trkpt lat="46.72569" lon="-2.39582">
        <ele>1.6</ele>
        <time>2018-09-21T14:00:09.000Z</time>
      </trkpt>
      <trkpt lat="46.72569" lon="-2.39583">
        <ele>1.5</ele>
        <time>2018-09-21T14:00:10.000Z</time>
      </trkpt>
      <trkpt lat="46.72569" lon="-2.39585">
        <ele>1.5</ele>
        <time>2018-09-21T14:00:11.000Z</time>
      </trkpt>
      <trkpt lat="46.72568" lon="-2.39586">
        <ele>1.5</ele>
        <time>2018-09-21T14:00:12.000Z</time>
      </trkpt>
      <trkpt lat="46.72568" lon="-2.39587">
        <ele>1.6</ele>
        <time>2018-09-21T14:00:13.000Z</time>
      </trkpt>
      <trkpt lat="46.72568" lon="-2.39588">
        <ele>1.6</ele>
        <time>2018-09-21T14:00:14.000Z</time>
      </trkpt>
      <trkpt lat="46.72568" lon="-2.39588">
        <ele>1.6</ele>
        <time>2018-09-21T14:00:15.000Z</time>
      </trkpt>
      <trkpt lat="46.72568" lon="-2.39588">
        <ele>1.6</ele>
        <time>2018-09-21T14:00:16.000Z</time>
      </trkpt>
      <trkpt lat="46.72568" lon="-2.39588">
        <ele>1.6</ele>
        <time>2018-09-21T14:00:17.000Z</time>
      </trkpt>
      <trkpt lat="46.72568" lon="-2.39588">
        <ele>1.6</ele>
        <time>2018-09-21T14:00:18.000Z</time>
      </trkpt>
      <trkpt lat="46.72568" lon="-2.39588">
        <ele>1.6</ele>
        <time>2018-09-21T14:00:19.000Z</time>
      </trkpt>
      <trkpt lat="46.72568" lon="-2.39588">
        <ele>1.6</ele>
        <time>2018-09-21T14:00:20.000Z</time>
      </trkpt>
      <trkpt lat="46.72568" lon="-2.39589">
        <ele>1.6</ele>
        <time>2018-09-21T14:00:21.000Z</time>
      </trkpt>
      <trkpt lat="46.72568" lon="-2.39589">
        <ele>1.6</ele>
        <time>2018-09-21T14:00:22.000Z</time>
      </trkpt>
      <trkpt lat="46.72568" lon="-2.39589">
        <ele>1.6</ele>
        <time>2018-09-21T14:00:23.000Z</time>
      </trkpt>
      <trkpt lat="46.72568" lon="-2.39589">
        <ele>1.6</ele>
        <time>2018-09-21T14:00:24.000Z</time>
      </trkpt>
      <trkpt lat="46.72568" lon="-2.39589">
        <ele>1.6</ele>
        <time>2018-09-21T14:00:25.000Z</time>
      </trkpt>
      <trkpt lat="46.72568" lon="-2.39589">
        <ele>1.6</ele>
        <time>2018-09-21T14:00:26.000Z</time>
      </trkpt>
      <trkpt lat="46.72568" lon="-2.39589">
        <ele>1.6</ele>
        <time>2018-09-21T14:00:27.000Z</time>
      </trkpt>
      <trkpt lat="46.72568" lon="-2.39589">
        <ele>1.6</ele>
        <time>2018-09-21T14:00:28.000Z</time>
      </trkpt>
      <trkpt lat="46.72568" lon="-2.39589">
        <ele>1.6</ele>
        <time>2018-09-21T14:00:29.000Z</time>
      </trkpt>
      <trkpt lat="46.72568" lon="-2.39588">
        <ele>1.6</ele>
        <time>2018-09-21T14:00:30.000Z</time>
      </trkpt>
      <trkpt lat="46.72568" lon="-2.39588">
        <ele>1.6</ele>
        <time>2018-09-21T14:00:31.000Z</time>
      </trkpt>
      <trkpt lat="46.72568" lon="-2.39589">
        <ele>1.6</ele>
        <time>2018-09-21T14:00:32.000Z</time>
      </trkpt>
      <trkpt lat="46.72568" lon="-2.39589">
        <ele>1.6</ele>
        <time>2018-09-21T14:00:33.000Z</time>
      </trkpt>
      <trkpt lat="46.72568" lon="-2.39589">
        <ele>1.6</ele>
        <time>2018-09-21T14:00:34.000Z</time>
      </trkpt>
      <trkpt lat="46.72568" lon="-2.39589">
        <ele>1.6</ele>
        <time>2018-09-21T14:00:35.000Z</time>
      </trkpt>
      <trkpt lat="46.72567" lon="-2.3959">
        <ele>1.6</ele>
        <time>2018-09-21T14:00:36.000Z</time>
      </trkpt>
      <trkpt lat="46.72567" lon="-2.3959">
        <ele>1.6</ele>
        <time>2018-09-21T14:00:37.000Z</time>
      </trkpt>
      <trkpt lat="46.72567" lon="-2.39591">
        <ele>1.6</ele>
        <time>2018-09-21T14:00:38.000Z</time>
      </trkpt>
      <trkpt lat="46.72567" lon="-2.39591">
        <ele>1.6</ele>
        <time>2018-09-21T14:00:39.000Z</time>
      </trkpt>
      <trkpt lat="46.72566" lon="-2.39592">
        <ele>1.6</ele>
        <time>2018-09-21T14:00:40.000Z</time>
      </trkpt>
      <trkpt lat="46.72566" lon="-2.39593">
        <ele>1.6</ele>
        <time>2018-09-21T14:00:41.000Z</time>
      </trkpt>
      <trkpt lat="46.72566" lon="-2.39594">
        <ele>1.6</ele>
        <time>2018-09-21T14:00:42.000Z</time>
      </trkpt>
      <trkpt lat="46.72565" lon="-2.39594">
        <ele>1.7</ele>
        <time>2018-09-21T14:00:43.000Z</time>
      </trkpt>
      <trkpt lat="46.72565" lon="-2.39595">
        <ele>1.7</ele>
        <time>2018-09-21T14:00:44.000Z</time>
      </trkpt>
      <trkpt lat="46.72565" lon="-2.39595">
        <ele>1.7</ele>
        <time>2018-09-21T14:00:45.000Z</time>
      </trkpt>
      <trkpt lat="46.72565" lon="-2.39596">
        <ele>1.7</ele>
        <time>2018-09-21T14:00:47.000Z</time>
      </trkpt>
      <trkpt lat="46.72565" lon="-2.39596">
        <ele>1.7</ele>
        <time>2018-09-21T14:00:48.000Z</time>
      </trkpt>
      <trkpt lat="46.72564" lon="-2.39596">
        <ele>1.7</ele>
        <time>2018-09-21T14:00:49.000Z</time>
      </trkpt>
      <trkpt lat="46.72564" lon="-2.39596">
        <ele>1.7</ele>
        <time>2018-09-21T14:00:50.000Z</time>
      </trkpt>
      <trkpt lat="46.72564" lon="-2.39596">
        <ele>1.7</ele>
        <time>2018-09-21T14:00:51.000Z</time>
      </trkpt>
      <trkpt lat="46.72564" lon="-2.39597">
        <ele>1.7</ele>
        <time>2018-09-21T14:00:52.000Z</time>
      </trkpt>
      <trkpt lat="46.72564" lon="-2.39597">
        <ele>1.7</ele>
        <time>2018-09-21T14:00:53.000Z</time>
      </trkpt>
      <trkpt lat="46.72564" lon="-2.39597">
        <ele>1.7</ele>
        <time>2018-09-21T14:00:54.000Z</time>
      </trkpt>
      <trkpt lat="46.72564" lon="-2.39597">
        <ele>1.7</ele>
        <time>2018-09-21T14:00:55.000Z</time>
      </trkpt>
      <trkpt lat="46.72564" lon="-2.39597">
        <ele>1.7</ele>
        <time>2018-09-21T14:00:56.000Z</time>
      </trkpt>
      <trkpt lat="46.72564" lon="-2.39597">
        <ele>1.7</ele>
        <time>2018-09-21T14:00:57.000Z</time>
      </trkpt>
      <trkpt lat="46.72564" lon="-2.39598">
        <ele>1.7</ele>
        <time>2018-09-21T14:00:58.000Z</time>
      </trkpt>
      <trkpt lat="46.72564" lon="-2.396">
        <ele>1.7</ele>
        <time>2018-09-21T14:00:59.000Z</time>
      </trkpt>
      <trkpt lat="46.72564" lon="-2.39601">
        <ele>1.7</ele>
        <time>2018-09-21T14:02:49.000Z</time>
      </trkpt>
      <trkpt lat="46.72563" lon="-2.39602">
        <ele>1.7</ele>
        <time>2018-09-21T14:02:50.000Z</time>
      </trkpt>
      <trkpt lat="46.72563" lon="-2.39603">
        <ele>1.7</ele>
        <time>2018-09-21T14:02:51.000Z</time>
      </trkpt>
      <trkpt lat="46.72563" lon="-2.39604">
        <ele>1.7</ele>
        <time>2018-09-21T14:02:52.000Z</time>
      </trkpt>
      <trkpt lat="46.72562" lon="-2.39605">
        <ele>1.8</ele>
        <time>2018-09-21T14:02:53.000Z</time>
      </trkpt>
      <trkpt lat="46.72562" lon="-2.39605">
        <ele>1.8</ele>
        <time>2018-09-21T14:02:54.000Z</time>
      </trkpt>
      <trkpt lat="46.72561" lon="-2.39606">
        <ele>1.8</ele>
        <time>2018-09-21T14:02:55.000Z</time>
      </trkpt>
      <trkpt lat="46.72561" lon="-2.39606">
        <ele>1.8</ele>
        <time>2018-09-21T14:02:56.000Z</time>
      </trkpt>
      <trkpt lat="46.7256" lon="-2.39607">
        <ele>1.8</ele>
        <time>2018-09-21T14:02:57.000Z</time>
      </trkpt>
      <trkpt lat="46.72559" lon="-2.39608">
        <ele>1.9</ele>
        <time>2018-09-21T14:02:58.000Z</time>
      </trkpt>
      <trkpt lat="46.72558" lon="-2.39609">
        <ele>1.9</ele>
        <time>2018-09-21T14:02:59.000Z</time>
      </trkpt>
      <trkpt lat="46.72558" lon="-2.39609">
        <ele>1.9</ele>
        <time>2018-09-21T14:03:00.000Z</time>
      </trkpt>
      <trkpt lat="46.72557" lon="-2.3961">
        <ele>1.9</ele>
        <time>2018-09-21T14:03:01.000Z</time>
      </trkpt>
      <trkpt lat="46.72556" lon="-2.39611">
        <ele>2</ele>
        <time>2018-09-21T14:03:02.000Z</time>
      </trkpt>
      <trkpt lat="46.72556" lon="-2.39612">
        <ele>2</ele>
        <time>2018-09-21T14:03:03.000Z</time>
      </trkpt>
      <trkpt lat="46.72556" lon="-2.39612">
        <ele>2</ele>
        <time>2018-09-21T14:03:04.000Z</time>
      </trkpt>
      <trkpt lat="46.72555" lon="-2.39613">
        <ele>2</ele>
        <time>2018-09-21T14:03:05.000Z</time>
      </trkpt>
      <trkpt lat="46.72555" lon="-2.39613">
        <ele>2</ele>
        <time>2018-09-21T14:03:06.000Z</time>
      </trkpt>
      <trkpt lat="46.72555" lon="-2.39613">
        <ele>2</ele>
        <time>2018-09-21T14:03:07.000Z</time>
      </trkpt>
      <trkpt lat="46.72555" lon="-2.39614">
        <ele>2</ele>
        <time>2018-09-21T14:03:08.000Z</time>
      </trkpt>
      <trkpt lat="46.72555" lon="-2.39614">
        <ele>2</ele>
        <time>2018-09-21T14:03:09.000Z</time>
      </trkpt>
      <trkpt lat="46.72556" lon="-2.39614">
        <ele>2</ele>
        <time>2018-09-21T14:03:10.000Z</time>
      </trkpt>
      <trkpt lat="46.72556" lon="-2.39614">
        <ele>2</ele>
        <time>2018-09-21T14:03:11.000Z</time>
      </trkpt>
      <trkpt lat="46.72556" lon="-2.39614">
        <ele>2</ele>
        <time>2018-09-21T14:03:12.000Z</time>
      </trkpt>
      <trkpt lat="46.72556" lon="-2.39614">
        <ele>2</ele>
        <time>2018-09-21T14:03:13.000Z</time>
      </trkpt>
      <trkpt lat="46.72556" lon="-2.39614">
        <ele>2</ele>
        <time>2018-09-21T14:03:14.000Z</time>
      </trkpt>
      <trkpt lat="46.72556" lon="-2.39614">
        <ele>2</ele>
        <time>2018-09-21T14:03:15.000Z</time>
      </trkpt>
      <trkpt lat="46.72556" lon="-2.39614">
        <ele>2</ele>
        <time>2018-09-21T14:03:16.000Z</time>
      </trkpt>
      <trkpt lat="46.72556" lon="-2.39614">
        <ele>2</ele>
        <time>2018-09-21T14:03:17.000Z</time>
      </trkpt>
      <trkpt lat="46.72556" lon="-2.39614">
        <ele>2</ele>
        <time>2018-09-21T14:03:18.000Z</time>
      </trkpt>
      <trkpt lat="46.72556" lon="-2.39614">
        <ele>2</ele>
        <time>2018-09-21T14:03:19.000Z</time>
      </trkpt>
      <trkpt lat="46.72556" lon="-2.39614">
        <ele>2</ele>
        <time>2018-09-21T14:03:20.000Z</time>
      </trkpt>
      <trkpt lat="46.72556" lon="-2.39614">
        <ele>2</ele>
        <time>2018-09-21T14:03:21.000Z</time>
      </trkpt>
      <trkpt lat="46.72556" lon="-2.39614">
        <ele>2</ele>
        <time>2018-09-21T14:03:22.000Z</time>
      </trkpt>
      <trkpt lat="46.72556" lon="-2.39614">
        <ele>2</ele>
        <time>2018-09-21T14:03:23.000Z</time>
      </trkpt>
      <trkpt lat="46.72556" lon="-2.39614">
        <ele>2</ele>
        <time>2018-09-21T14:03:24.000Z</time>
      </trkpt>
      <trkpt lat="46.72556" lon="-2.39614">
        <ele>2</ele>
        <time>2018-09-21T14:03:25.000Z</time>
      </trkpt>
      <trkpt lat="46.72556" lon="-2.39614">
        <ele>2</ele>
        <time>2018-09-21T14:03:26.000Z</time>
      </trkpt>
      <trkpt lat="46.72555" lon="-2.39614">
        <ele>2</ele>
        <time>2018-09-21T14:03:27.000Z</time>
      </trkpt>
      <trkpt lat="46.72555" lon="-2.39615">
        <ele>2</ele>
        <time>2018-09-21T14:03:28.000Z</time>
      </trkpt>
      <trkpt lat="46.72555" lon="-2.39616">
        <ele>2</ele>
        <time>2018-09-21T14:03:29.000Z</time>
      </trkpt>
      <trkpt lat="46.72555" lon="-2.39617">
        <ele>2</ele>
        <time>2018-09-21T14:03:30.000Z</time>
      </trkpt>
      <trkpt lat="46.72554" lon="-2.39618">
        <ele>2</ele>
        <time>2018-09-21T14:03:31.000Z</time>
      </trkpt>
      <trkpt lat="46.72554" lon="-2.39619">
        <ele>2.1</ele>
        <time>2018-09-21T14:03:32.000Z</time>
      </trkpt>
      <trkpt lat="46.72553" lon="-2.3962">
        <ele>2.1</ele>
        <time>2018-09-21T14:03:33.000Z</time>
      </trkpt>
      <trkpt lat="46.72553" lon="-2.3962">
        <ele>2.1</ele>
        <time>2018-09-21T14:03:34.000Z</time>
      </trkpt>
      <trkpt lat="46.72552" lon="-2.39621">
        <ele>2.1</ele>
        <time>2018-09-21T14:03:35.000Z</time>
      </trkpt>
      <trkpt lat="46.72552" lon="-2.39622">
        <ele>2.1</ele>
        <time>2018-09-21T14:03:36.000Z</time>
      </trkpt>
      <trkpt lat="46.72551" lon="-2.39622">
        <ele>2.2</ele>
        <time>2018-09-21T14:03:37.000Z</time>
      </trkpt>
      <trkpt lat="46.7255" lon="-2.39622">
        <ele>2.2</ele>
        <time>2018-09-21T14:03:38.000Z</time>
      </trkpt>
      <trkpt lat="46.7255" lon="-2.39623">
        <ele>2.2</ele>
        <time>2018-09-21T14:03:39.000Z</time>
      </trkpt>
      <trkpt lat="46.72549" lon="-2.39623">
        <ele>2.2</ele>
        <time>2018-09-21T14:03:40.000Z</time>
      </trkpt>
      <trkpt lat="46.72548" lon="-2.39623">
        <ele>2.3</ele>
        <time>2018-09-21T14:03:41.000Z</time>
      </trkpt>
      <trkpt lat="46.72547" lon="-2.39623">
        <ele>2.3</ele>
        <time>2018-09-21T14:03:42.000Z</time>
      </trkpt>
      <trkpt lat="46.72547" lon="-2.39623">
        <ele>2.3</ele>
        <time>2018-09-21T14:03:43.000Z</time>
      </trkpt>
      <trkpt lat="46.72546" lon="-2.39623">
        <ele>2.4</ele>
        <time>2018-09-21T14:03:44.000Z</time>
      </trkpt>
      <trkpt lat="46.72545" lon="-2.39623">
        <ele>2.4</ele>
        <time>2018-09-21T14:03:45.000Z</time>
      </trkpt>
      <trkpt lat="46.72544" lon="-2.39623">
        <ele>2.4</ele>
        <time>2018-09-21T14:03:46.000Z</time>
      </trkpt>
      <trkpt lat="46.72543" lon="-2.39623">
        <ele>2.4</ele>
        <time>2018-09-21T14:03:47.000Z</time>
      </trkpt>
      <trkpt lat="46.72543" lon="-2.39623">
        <ele>2.5</ele>
        <time>2018-09-21T14:03:48.000Z</time>
      </trkpt>
      <trkpt lat="46.72542" lon="-2.39624">
        <ele>2.5</ele>
        <time>2018-09-21T14:03:49.000Z</time>
      </trkpt>
      <trkpt lat="46.72541" lon="-2.39625">
        <ele>2.5</ele>
        <time>2018-09-21T14:03:50.000Z</time>
      </trkpt>
      <trkpt lat="46.72541" lon="-2.39626">
        <ele>2.5</ele>
        <time>2018-09-21T14:03:51.000Z</time>
      </trkpt>
      <trkpt lat="46.7254" lon="-2.39627">
        <ele>2.6</ele>
        <time>2018-09-21T14:03:52.000Z</time>
      </trkpt>
      <trkpt lat="46.72539" lon="-2.39628">
        <ele>2.6</ele>
        <time>2018-09-21T14:03:53.000Z</time>
      </trkpt>
      <trkpt lat="46.72539" lon="-2.39629">
        <ele>2.6</ele>
        <time>2018-09-21T14:03:54.000Z</time>
      </trkpt>
      <trkpt lat="46.72538" lon="-2.3963">
        <ele>2.6</ele>
        <time>2018-09-21T14:03:55.000Z</time>
      </trkpt>
      <trkpt lat="46.72538" lon="-2.39631">
        <ele>2.6</ele>
        <time>2018-09-21T14:03:56.000Z</time>
      </trkpt>
      <trkpt lat="46.72538" lon="-2.39633">
        <ele>2.6</ele>
        <time>2018-09-21T14:03:57.000Z</time>
      </trkpt>
      <trkpt lat="46.72537" lon="-2.39634">
        <ele>2.7</ele>
        <time>2018-09-21T14:03:58.000Z</time>
      </trkpt>
      <trkpt lat="46.72537" lon="-2.39635">
        <ele>2.7</ele>
        <time>2018-09-21T14:03:59.000Z</time>
      </trkpt>
      <trkpt lat="46.72537" lon="-2.39636">
        <ele>2.7</ele>
        <time>2018-09-21T14:04:00.000Z</time>
      </trkpt>
      <trkpt lat="46.72536" lon="-2.39637">
        <ele>2.7</ele>
        <time>2018-09-21T14:04:01.000Z</time>
      </trkpt>
      <trkpt lat="46.72536" lon="-2.39638">
        <ele>2.7</ele>
        <time>2018-09-21T14:04:02.000Z</time>
      </trkpt>
      <trkpt lat="46.72536" lon="-2.39639">
        <ele>2.7</ele>
        <time>2018-09-21T14:04:03.000Z</time>
      </trkpt>
      <trkpt lat="46.72535" lon="-2.3964">
        <ele>2.7</ele>
        <time>2018-09-21T14:04:04.000Z</time>
      </trkpt>
      <trkpt lat="46.72535" lon="-2.39641">
        <ele>2.7</ele>
        <time>2018-09-21T14:04:05.000Z</time>
      </trkpt>
      <trkpt lat="46.72535" lon="-2.39641">
        <ele>2.7</ele>
        <time>2018-09-21T14:04:06.000Z</time>
      </trkpt>
      <trkpt lat="46.72535" lon="-2.39642">
        <ele>2.8</ele>
        <time>2018-09-21T14:04:07.000Z</time>
      </trkpt>
      <trkpt lat="46.72535" lon="-2.39643">
        <ele>2.8</ele>
        <time>2018-09-21T14:04:08.000Z</time>
      </trkpt>
      <trkpt lat="46.72535" lon="-2.39644">
        <ele>2.8</ele>
        <time>2018-09-21T14:04:09.000Z</time>
      </trkpt>
      <trkpt lat="46.72535" lon="-2.39645">
        <ele>2.8</ele>
        <time>2018-09-21T14:04:10.000Z</time>
      </trkpt>
      <trkpt lat="46.72535" lon="-2.39646">
        <ele>2.8</ele>
        <time>2018-09-21T14:04:11.000Z</time>
      </trkpt>
      <trkpt lat="46.72535" lon="-2.39646">
        <ele>2.7</ele>
        <time>2018-09-21T14:04:12.000Z</time>
      </trkpt>
      <trkpt lat="46.72535" lon="-2.39647">
        <ele>2.7</ele>
        <time>2018-09-21T14:04:13.000Z</time>
      </trkpt>
      <trkpt lat="46.72535" lon="-2.39648">
        <ele>2.7</ele>
        <time>2018-09-21T14:04:14.000Z</time>
      </trkpt>
      <trkpt lat="46.72535" lon="-2.39649">
        <ele>2.7</ele>
        <time>2018-09-21T14:04:15.000Z</time>
      </trkpt>
      <trkpt lat="46.72535" lon="-2.3965">
        <ele>2.8</ele>
        <time>2018-09-21T14:04:16.000Z</time>
      </trkpt>
      <trkpt lat="46.72534" lon="-2.39651">
        <ele>2.8</ele>
        <time>2018-09-21T14:04:17.000Z</time>
      </trkpt>
      <trkpt lat="46.72534" lon="-2.39652">
        <ele>2.8</ele>
        <time>2018-09-21T14:04:18.000Z</time>
      </trkpt>
      <trkpt lat="46.72534" lon="-2.39653">
        <ele>2.8</ele>
        <time>2018-09-21T14:04:19.000Z</time>
      </trkpt>
      <trkpt lat="46.72533" lon="-2.39655">
        <ele>2.8</ele>
        <time>2018-09-21T14:04:20.000Z</time>
      </trkpt>
      <trkpt lat="46.72533" lon="-2.39656">
        <ele>2.8</ele>
        <time>2018-09-21T14:04:21.000Z</time>
      </trkpt>
      <trkpt lat="46.72533" lon="-2.39657">
        <ele>2.8</ele>
        <time>2018-09-21T14:04:22.000Z</time>
      </trkpt>
      <trkpt lat="46.72532" lon="-2.39659">
        <ele>2.8</ele>
        <time>2018-09-21T14:04:23.000Z</time>
      </trkpt>
      <trkpt lat="46.72532" lon="-2.3966">
        <ele>2.9</ele>
        <time>2018-09-21T14:04:24.000Z</time>
      </trkpt>
      <trkpt lat="46.72532" lon="-2.39662">
        <ele>2.9</ele>
        <time>2018-09-21T14:04:25.000Z</time>
      </trkpt>
      <trkpt lat="46.72532" lon="-2.39663">
        <ele>2.9</ele>
        <time>2018-09-21T14:04:26.000Z</time>
      </trkpt>
      <trkpt lat="46.72531" lon="-2.39665">
        <ele>2.9</ele>
        <time>2018-09-21T14:04:27.000Z</time>
      </trkpt>
      <trkpt lat="46.72531" lon="-2.39667">
        <ele>2.9</ele>
        <time>2018-09-21T14:04:28.000Z</time>
      </trkpt>
      <trkpt lat="46.72531" lon="-2.39668">
        <ele>2.9</ele>
        <time>2018-09-21T14:04:29.000Z</time>
      </trkpt>
      <trkpt lat="46.72531" lon="-2.3967">
        <ele>2.9</ele>
        <time>2018-09-21T14:04:30.000Z</time>
      </trkpt>
      <trkpt lat="46.72532" lon="-2.39671">
        <ele>2.8</ele>
        <time>2018-09-21T14:04:31.000Z</time>
      </trkpt>
      <trkpt lat="46.72532" lon="-2.39672">
        <ele>2.8</ele>
        <time>2018-09-21T14:04:32.000Z</time>
      </trkpt>
      <trkpt lat="46.72532" lon="-2.39674">
        <ele>2.8</ele>
        <time>2018-09-21T14:04:33.000Z</time>
      </trkpt>
      <trkpt lat="46.72532" lon="-2.39675">
        <ele>2.8</ele>
        <time>2018-09-21T14:04:34.000Z</time>
      </trkpt>
      <trkpt lat="46.72532" lon="-2.39676">
        <ele>2.8</ele>
        <time>2018-09-21T14:04:35.000Z</time>
      </trkpt>
      <trkpt lat="46.72533" lon="-2.39678">
        <ele>2.8</ele>
        <time>2018-09-21T14:04:36.000Z</time>
      </trkpt>
      <trkpt lat="46.72533" lon="-2.39679">
        <ele>2.8</ele>
        <time>2018-09-21T14:04:37.000Z</time>
      </trkpt>
      <trkpt lat="46.72533" lon="-2.3968">
        <ele>2.7</ele>
        <time>2018-09-21T14:04:38.000Z</time>
      </trkpt>
      <trkpt lat="46.72534" lon="-2.39681">
        <ele>2.7</ele>
        <time>2018-09-21T14:04:39.000Z</time>
      </trkpt>
      <trkpt lat="46.72534" lon="-2.39683">
        <ele>2.7</ele>
        <time>2018-09-21T14:04:40.000Z</time>
      </trkpt>
      <trkpt lat="46.72534" lon="-2.39684">
        <ele>2.7</ele>
        <time>2018-09-21T14:04:41.000Z</time>
      </trkpt>
      <trkpt lat="46.72535" lon="-2.39685">
        <ele>2.7</ele>
        <time>2018-09-21T14:04:42.000Z</time>
      </trkpt>
      <trkpt lat="46.72535" lon="-2.39686">
        <ele>2.6</ele>
        <time>2018-09-21T14:04:43.000Z</time>
      </trkpt>
      <trkpt lat="46.72535" lon="-2.39688">
        <ele>2.6</ele>
        <time>2018-09-21T14:04:44.000Z</time>
      </trkpt>
      <trkpt lat="46.72536" lon="-2.39689">
        <ele>2.6</ele>
        <time>2018-09-21T14:04:45.000Z</time>
      </trkpt>
      <trkpt lat="46.72536" lon="-2.3969">
        <ele>2.6</ele>
        <time>2018-09-21T14:04:46.000Z</time>
      </trkpt>
      <trkpt lat="46.72536" lon="-2.39691">
        <ele>2.6</ele>
        <time>2018-09-21T14:04:47.000Z</time>
      </trkpt>
      <trkpt lat="46.72536" lon="-2.39693">
        <ele>2.6</ele>
        <time>2018-09-21T14:04:48.000Z</time>
      </trkpt>
      <trkpt lat="46.72537" lon="-2.39694">
        <ele>2.5</ele>
        <time>2018-09-21T14:04:49.000Z</time>
      </trkpt>
      <trkpt lat="46.72537" lon="-2.39695">
        <ele>2.5</ele>
        <time>2018-09-21T14:04:50.000Z</time>
      </trkpt>
      <trkpt lat="46.72537" lon="-2.39697">
        <ele>2.5</ele>
        <time>2018-09-21T14:04:51.000Z</time>
      </trkpt>
      <trkpt lat="46.72537" lon="-2.39698">
        <ele>2.5</ele>
        <time>2018-09-21T14:04:52.000Z</time>
      </trkpt>
      <trkpt lat="46.72537" lon="-2.39699">
        <ele>2.5</ele>
        <time>2018-09-21T14:04:53.000Z</time>
      </trkpt>
      <trkpt lat="46.72538" lon="-2.39701">
        <ele>2.5</ele>
        <time>2018-09-21T14:04:54.000Z</time>
      </trkpt>
      <trkpt lat="46.72538" lon="-2.39702">
        <ele>2.4</ele>
        <time>2018-09-21T14:04:55.000Z</time>
      </trkpt>
      <trkpt lat="46.72538" lon="-2.39703">
        <ele>2.4</ele>
        <time>2018-09-21T14:04:56.000Z</time>
      </trkpt>
      <trkpt lat="46.72539" lon="-2.39705">
        <ele>2.4</ele>
        <time>2018-09-21T14:04:57.000Z</time>
      </trkpt>
      <trkpt lat="46.72539" lon="-2.39706">
        <ele>2.4</ele>
        <time>2018-09-21T14:04:58.000Z</time>
      </trkpt>
      <trkpt lat="46.7254" lon="-2.39707">
        <ele>2.3</ele>
        <time>2018-09-21T14:04:59.000Z</time>
      </trkpt>
      <trkpt lat="46.72541" lon="-2.39708">
        <ele>2.3</ele>
        <time>2018-09-21T14:05:00.000Z</time>
      </trkpt>
      <trkpt lat="46.72541" lon="-2.3971">
        <ele>2.3</ele>
        <time>2018-09-21T14:05:01.000Z</time>
      </trkpt>
      <trkpt lat="46.72542" lon="-2.39711">
        <ele>2.2</ele>
        <time>2018-09-21T14:05:02.000Z</time>
      </trkpt>
      <trkpt lat="46.72543" lon="-2.39712">
        <ele>2.2</ele>
        <time>2018-09-21T14:05:03.000Z</time>
      </trkpt>
      <trkpt lat="46.72544" lon="-2.39713">
        <ele>2.1</ele>
        <time>2018-09-21T14:05:04.000Z</time>
      </trkpt>
      <trkpt lat="46.72544" lon="-2.39714">
        <ele>2.1</ele>
        <time>2018-09-21T14:05:05.000Z</time>
      </trkpt>
      <trkpt lat="46.72545" lon="-2.39716">
        <ele>2.1</ele>
        <time>2018-09-21T14:05:06.000Z</time>
      </trkpt>
      <trkpt lat="46.72546" lon="-2.39717">
        <ele>2</ele>
        <time>2018-09-21T14:05:07.000Z</time>
      </trkpt>
      <trkpt lat="46.72546" lon="-2.39718">
        <ele>2</ele>
        <time>2018-09-21T14:05:08.000Z</time>
      </trkpt>
      <trkpt lat="46.72547" lon="-2.39719">
        <ele>2</ele>
        <time>2018-09-21T14:05:09.000Z</time>
      </trkpt>
      <trkpt lat="46.72547" lon="-2.3972">
        <ele>1.9</ele>
        <time>2018-09-21T14:05:10.000Z</time>
      </trkpt>
      <trkpt lat="46.72548" lon="-2.39722">
        <ele>1.9</ele>
        <time>2018-09-21T14:05:11.000Z</time>
      </trkpt>
      <trkpt lat="46.72548" lon="-2.39723">
        <ele>1.9</ele>
        <time>2018-09-21T14:05:12.000Z</time>
      </trkpt>
      <trkpt lat="46.72548" lon="-2.39724">
        <ele>1.9</ele>
        <time>2018-09-21T14:05:13.000Z</time>
      </trkpt>
      <trkpt lat="46.72549" lon="-2.39725">
        <ele>1.8</ele>
        <time>2018-09-21T14:05:14.000Z</time>
      </trkpt>
      <trkpt lat="46.72549" lon="-2.39726">
        <ele>1.8</ele>
        <time>2018-09-21T14:05:15.000Z</time>
      </trkpt>
      <trkpt lat="46.72549" lon="-2.39728">
        <ele>1.8</ele>
        <time>2018-09-21T14:05:16.000Z</time>
      </trkpt>
      <trkpt lat="46.72549" lon="-2.39729">
        <ele>1.8</ele>
        <time>2018-09-21T14:05:17.000Z</time>
      </trkpt>
      <trkpt lat="46.7255" lon="-2.39729">
        <ele>1.8</ele>
        <time>2018-09-21T14:05:18.000Z</time>
      </trkpt>
      <trkpt lat="46.7255" lon="-2.3973">
        <ele>1.7</ele>
        <time>2018-09-21T14:05:19.000Z</time>
      </trkpt>
      <trkpt lat="46.7255" lon="-2.39731">
        <ele>1.7</ele>
        <time>2018-09-21T14:05:20.000Z</time>
      </trkpt>
      <trkpt lat="46.72551" lon="-2.39732">
        <ele>1.7</ele>
        <time>2018-09-21T14:05:21.000Z</time>
      </trkpt>
      <trkpt lat="46.72551" lon="-2.39733">
        <ele>1.7</ele>
        <time>2018-09-21T14:05:22.000Z</time>
      </trkpt>
      <trkpt lat="46.72551" lon="-2.39734">
        <ele>1.7</ele>
        <time>2018-09-21T14:05:23.000Z</time>
      </trkpt>
      <trkpt lat="46.72551" lon="-2.39735">
        <ele>1.6</ele>
        <time>2018-09-21T14:05:24.000Z</time>
      </trkpt>
      <trkpt lat="46.72552" lon="-2.39736">
        <ele>1.6</ele>
        <time>2018-09-21T14:05:25.000Z</time>
      </trkpt>
      <trkpt lat="46.72552" lon="-2.39737">
        <ele>1.6</ele>
        <time>2018-09-21T14:05:26.000Z</time>
      </trkpt>
      <trkpt lat="46.72552" lon="-2.39739">
        <ele>1.6</ele>
        <time>2018-09-21T14:05:27.000Z</time>
      </trkpt>
      <trkpt lat="46.72552" lon="-2.39741">
        <ele>1.6</ele>
        <time>2018-09-21T14:05:28.000Z</time>
      </trkpt>
      <trkpt lat="46.72553" lon="-2.39742">
        <ele>1.5</ele>
        <time>2018-09-21T14:05:29.000Z</time>
      </trkpt>
      <trkpt lat="46.72553" lon="-2.39744">
        <ele>1.5</ele>
        <time>2018-09-21T14:05:30.000Z</time>
      </trkpt>
      <trkpt lat="46.72553" lon="-2.39746">
        <ele>1.5</ele>
        <time>2018-09-21T14:05:31.000Z</time>
      </trkpt>
      <trkpt lat="46.72553" lon="-2.39747">
        <ele>1.5</ele>
        <time>2018-09-21T14:05:32.000Z</time>
      </trkpt>
      <trkpt lat="46.72554" lon="-2.39748">
        <ele>1.4</ele>
        <time>2018-09-21T14:05:33.000Z</time>
      </trkpt>
      <trkpt lat="46.72554" lon="-2.39749">
        <ele>1.4</ele>
        <time>2018-09-21T14:05:34.000Z</time>
      </trkpt>
      <trkpt lat="46.72554" lon="-2.3975">
        <ele>1.4</ele>
        <time>2018-09-21T14:05:35.000Z</time>
      </trkpt>
      <trkpt lat="46.72555" lon="-2.39751">
        <ele>1.4</ele>
        <time>2018-09-21T14:05:36.000Z</time>
      </trkpt>
      <trkpt lat="46.72555" lon="-2.39753">
        <ele>1.4</ele>
        <time>2018-09-21T14:05:37.000Z</time>
      </trkpt>
      <trkpt lat="46.72556" lon="-2.39754">
        <ele>1.4</ele>
        <time>2018-09-21T14:05:38.000Z</time>
      </trkpt>
      <trkpt lat="46.72556" lon="-2.39756">
        <ele>1.4</ele>
        <time>2018-09-21T14:05:39.000Z</time>
      </trkpt>
      <trkpt lat="46.72557" lon="-2.39757">
        <ele>1.4</ele>
        <time>2018-09-21T14:05:40.000Z</time>
      </trkpt>
      <trkpt lat="46.72557" lon="-2.39758">
        <ele>1.4</ele>
        <time>2018-09-21T14:05:41.000Z</time>
      </trkpt>
      <trkpt lat="46.72557" lon="-2.39758">
        <ele>1.4</ele>
        <time>2018-09-21T14:05:42.000Z</time>
      </trkpt>
      <trkpt lat="46.72557" lon="-2.39759">
        <ele>1.4</ele>
        <time>2018-09-21T14:05:43.000Z</time>
      </trkpt>
      <trkpt lat="46.72557" lon="-2.39759">
        <ele>1.4</ele>
        <time>2018-09-21T14:05:44.000Z</time>
      </trkpt>
      <trkpt lat="46.72557" lon="-2.39759">
        <ele>1.4</ele>
        <time>2018-09-21T14:05:45.000Z</time>
      </trkpt>
      <trkpt lat="46.72557" lon="-2.39758">
        <ele>1.4</ele>
        <time>2018-09-21T14:05:46.000Z</time>
      </trkpt>
      <trkpt lat="46.72558" lon="-2.39758">
        <ele>1.4</ele>
        <time>2018-09-21T14:05:47.000Z</time>
      </trkpt>
      <trkpt lat="46.72558" lon="-2.39758">
        <ele>1.4</ele>
        <time>2018-09-21T14:05:48.000Z</time>
      </trkpt>
      <trkpt lat="46.72558" lon="-2.39758">
        <ele>1.4</ele>
        <time>2018-09-21T14:05:49.000Z</time>
      </trkpt>
      <trkpt lat="46.72558" lon="-2.39759">
        <ele>1.4</ele>
        <time>2018-09-21T14:05:50.000Z</time>
      </trkpt>
      <trkpt lat="46.72558" lon="-2.3976">
        <ele>1.4</ele>
        <time>2018-09-21T14:05:51.000Z</time>
      </trkpt>
      <trkpt lat="46.72558" lon="-2.39762">
        <ele>1.5</ele>
        <time>2018-09-21T14:05:52.000Z</time>
      </trkpt>
      <trkpt lat="46.72558" lon="-2.39764">
        <ele>1.5</ele>
        <time>2018-09-21T14:05:53.000Z</time>
      </trkpt>
      <trkpt lat="46.72558" lon="-2.39766">
        <ele>1.6</ele>
        <time>2018-09-21T14:05:54.000Z</time>
      </trkpt>
      <trkpt lat="46.72558" lon="-2.39768">
        <ele>1.6</ele>
        <time>2018-09-21T14:05:55.000Z</time>
      </trkpt>
      <trkpt lat="46.72558" lon="-2.3977">
        <ele>1.6</ele>
        <time>2018-09-21T14:05:56.000Z</time>
      </trkpt>
      <trkpt lat="46.72558" lon="-2.39771">
        <ele>1.6</ele>
        <time>2018-09-21T14:05:57.000Z</time>
      </trkpt>
      <trkpt lat="46.72559" lon="-2.39773">
        <ele>1.7</ele>
        <time>2018-09-21T14:05:58.000Z</time>
      </trkpt>
      <trkpt lat="46.72559" lon="-2.39774">
        <ele>1.7</ele>
        <time>2018-09-21T14:05:59.000Z</time>
      </trkpt>
      <trkpt lat="46.72559" lon="-2.39775">
        <ele>1.7</ele>
        <time>2018-09-21T14:06:00.000Z</time>
      </trkpt>
      <trkpt lat="46.7256" lon="-2.39776">
        <ele>1.7</ele>
        <time>2018-09-21T14:06:01.000Z</time>
      </trkpt>
      <trkpt lat="46.7256" lon="-2.39777">
        <ele>1.7</ele>
        <time>2018-09-21T14:06:02.000Z</time>
      </trkpt>
      <trkpt lat="46.7256" lon="-2.39778">
        <ele>1.7</ele>
        <time>2018-09-21T14:06:03.000Z</time>
      </trkpt>
      <trkpt lat="46.72561" lon="-2.39779">
        <ele>1.7</ele>
        <time>2018-09-21T14:06:04.000Z</time>
      </trkpt>
      <trkpt lat="46.72561" lon="-2.3978">
        <ele>1.7</ele>
        <time>2018-09-21T14:06:05.000Z</time>
      </trkpt>
      <trkpt lat="46.72561" lon="-2.39782">
        <ele>1.7</ele>
        <time>2018-09-21T14:06:06.000Z</time>
      </trkpt>
      <trkpt lat="46.72562" lon="-2.39783">
        <ele>1.7</ele>
        <time>2018-09-21T14:06:07.000Z</time>
      </trkpt>
      <trkpt lat="46.72562" lon="-2.39784">
        <ele>1.7</ele>
        <time>2018-09-21T14:06:08.000Z</time>
      </trkpt>
      <trkpt lat="46.72562" lon="-2.39785">
        <ele>1.7</ele>
        <time>2018-09-21T14:06:09.000Z</time>
      </trkpt>
      <trkpt lat="46.72563" lon="-2.39786">
        <ele>1.7</ele>
        <time>2018-09-21T14:06:10.000Z</time>
      </trkpt>
      <trkpt lat="46.72563" lon="-2.39788">
        <ele>1.8</ele>
        <time>2018-09-21T14:06:11.000Z</time>
      </trkpt>
      <trkpt lat="46.72564" lon="-2.39789">
        <ele>1.8</ele>
        <time>2018-09-21T14:06:12.000Z</time>
      </trkpt>
      <trkpt lat="46.72564" lon="-2.3979">
        <ele>1.8</ele>
        <time>2018-09-21T14:06:13.000Z</time>
      </trkpt>
      <trkpt lat="46.72565" lon="-2.39791">
        <ele>1.8</ele>
        <time>2018-09-21T14:06:14.000Z</time>
      </trkpt>
      <trkpt lat="46.72565" lon="-2.39792">
        <ele>1.8</ele>
        <time>2018-09-21T14:06:15.000Z</time>
      </trkpt>
      <trkpt lat="46.72565" lon="-2.39794">
        <ele>1.8</ele>
        <time>2018-09-21T14:06:16.000Z</time>
      </trkpt>
      <trkpt lat="46.72566" lon="-2.39795">
        <ele>1.8</ele>
        <time>2018-09-21T14:06:17.000Z</time>
      </trkpt>
      <trkpt lat="46.72566" lon="-2.39796">
        <ele>1.8</ele>
        <time>2018-09-21T14:06:18.000Z</time>
      </trkpt>
      <trkpt lat="46.72566" lon="-2.39797">
        <ele>1.8</ele>
        <time>2018-09-21T14:06:19.000Z</time>
      </trkpt>
      <trkpt lat="46.72567" lon="-2.39798">
        <ele>1.9</ele>
        <time>2018-09-21T14:06:20.000Z</time>
      </trkpt>
      <trkpt lat="46.72567" lon="-2.398">
        <ele>1.9</ele>
        <time>2018-09-21T14:06:21.000Z</time>
      </trkpt>
      <trkpt lat="46.72567" lon="-2.39801">
        <ele>1.9</ele>
        <time>2018-09-21T14:06:22.000Z</time>
      </trkpt>
      <trkpt lat="46.72567" lon="-2.39802">
        <ele>1.9</ele>
        <time>2018-09-21T14:06:23.000Z</time>
      </trkpt>
      <trkpt lat="46.72567" lon="-2.39804">
        <ele>1.9</ele>
        <time>2018-09-21T14:06:24.000Z</time>
      </trkpt>
      <trkpt lat="46.72567" lon="-2.39805">
        <ele>2</ele>
        <time>2018-09-21T14:06:25.000Z</time>
      </trkpt>
      <trkpt lat="46.72567" lon="-2.39806">
        <ele>2</ele>
        <time>2018-09-21T14:06:26.000Z</time>
      </trkpt>
      <trkpt lat="46.72567" lon="-2.39808">
        <ele>2</ele>
        <time>2018-09-21T14:06:27.000Z</time>
      </trkpt>
      <trkpt lat="46.72567" lon="-2.39809">
        <ele>2</ele>
        <time>2018-09-21T14:06:28.000Z</time>
      </trkpt>
      <trkpt lat="46.72567" lon="-2.3981">
        <ele>2.1</ele>
        <time>2018-09-21T14:06:29.000Z</time>
      </trkpt>
      <trkpt lat="46.72568" lon="-2.39812">
        <ele>2.1</ele>
        <time>2018-09-21T14:06:30.000Z</time>
      </trkpt>
      <trkpt lat="46.72568" lon="-2.39813">
        <ele>2.1</ele>
        <time>2018-09-21T14:06:31.000Z</time>
      </trkpt>
      <trkpt lat="46.72568" lon="-2.39814">
        <ele>2.1</ele>
        <time>2018-09-21T14:06:32.000Z</time>
      </trkpt>
      <trkpt lat="46.72568" lon="-2.39815">
        <ele>2.2</ele>
        <time>2018-09-21T14:06:33.000Z</time>
      </trkpt>
      <trkpt lat="46.72568" lon="-2.39816">
        <ele>2.2</ele>
        <time>2018-09-21T14:06:34.000Z</time>
      </trkpt>
      <trkpt lat="46.72569" lon="-2.39818">
        <ele>2.2</ele>
        <time>2018-09-21T14:06:35.000Z</time>
      </trkpt>
      <trkpt lat="46.72569" lon="-2.39819">
        <ele>2.2</ele>
        <time>2018-09-21T14:06:36.000Z</time>
      </trkpt>
      <trkpt lat="46.7257" lon="-2.3982">
        <ele>2.2</ele>
        <time>2018-09-21T14:06:37.000Z</time>
      </trkpt>
      <trkpt lat="46.7257" lon="-2.39821">
        <ele>2.2</ele>
        <time>2018-09-21T14:06:38.000Z</time>
      </trkpt>
      <trkpt lat="46.72571" lon="-2.39822">
        <ele>2.2</ele>
        <time>2018-09-21T14:06:39.000Z</time>
      </trkpt>
      <trkpt lat="46.72571" lon="-2.39824">
        <ele>2.2</ele>
        <time>2018-09-21T14:06:40.000Z</time>
      </trkpt>
      <trkpt lat="46.72571" lon="-2.39825">
        <ele>2.2</ele>
        <time>2018-09-21T14:06:41.000Z</time>
      </trkpt>
      <trkpt lat="46.72572" lon="-2.39826">
        <ele>2.3</ele>
        <time>2018-09-21T14:06:42.000Z</time>
      </trkpt>
      <trkpt lat="46.72572" lon="-2.39828">
        <ele>2.3</ele>
        <time>2018-09-21T14:06:43.000Z</time>
      </trkpt>
      <trkpt lat="46.72572" lon="-2.3983">
        <ele>2.3</ele>
        <time>2018-09-21T14:06:44.000Z</time>
      </trkpt>
      <trkpt lat="46.72573" lon="-2.39832">
        <ele>2.3</ele>
        <time>2018-09-21T14:06:45.000Z</time>
      </trkpt>
      <trkpt lat="46.72573" lon="-2.39833">
        <ele>2.4</ele>
        <time>2018-09-21T14:06:46.000Z</time>
      </trkpt>
      <trkpt lat="46.72573" lon="-2.39835">
        <ele>2.4</ele>
        <time>2018-09-21T14:06:47.000Z</time>
      </trkpt>
      <trkpt lat="46.72574" lon="-2.39836">
        <ele>2.4</ele>
        <time>2018-09-21T14:06:48.000Z</time>
      </trkpt>
      <trkpt lat="46.72574" lon="-2.39837">
        <ele>2.4</ele>
        <time>2018-09-21T14:06:49.000Z</time>
      </trkpt>
      <trkpt lat="46.72575" lon="-2.39838">
        <ele>2.4</ele>
        <time>2018-09-21T14:06:50.000Z</time>
      </trkpt>
      <trkpt lat="46.72576" lon="-2.39839">
        <ele>2.4</ele>
        <time>2018-09-21T14:06:51.000Z</time>
      </trkpt>
      <trkpt lat="46.72576" lon="-2.39839">
        <ele>2.4</ele>
        <time>2018-09-21T14:06:52.000Z</time>
      </trkpt>
      <trkpt lat="46.72577" lon="-2.3984">
        <ele>2.4</ele>
        <time>2018-09-21T14:06:53.000Z</time>
      </trkpt>
      <trkpt lat="46.72577" lon="-2.39841">
        <ele>2.4</ele>
        <time>2018-09-21T14:06:54.000Z</time>
      </trkpt>
      <trkpt lat="46.72578" lon="-2.39843">
        <ele>2.4</ele>
        <time>2018-09-21T14:06:55.000Z</time>
      </trkpt>
      <trkpt lat="46.72578" lon="-2.39844">
        <ele>2.4</ele>
        <time>2018-09-21T14:06:56.000Z</time>
      </trkpt>
      <trkpt lat="46.72578" lon="-2.39845">
        <ele>2.4</ele>
        <time>2018-09-21T14:06:57.000Z</time>
      </trkpt>
      <trkpt lat="46.72578" lon="-2.39846">
        <ele>2.5</ele>
        <time>2018-09-21T14:06:58.000Z</time>
      </trkpt>
      <trkpt lat="46.72579" lon="-2.39848">
        <ele>2.5</ele>
        <time>2018-09-21T14:06:59.000Z</time>
      </trkpt>
      <trkpt lat="46.72579" lon="-2.39849">
        <ele>2.5</ele>
        <time>2018-09-21T14:07:00.000Z</time>
      </trkpt>
      <trkpt lat="46.72579" lon="-2.39851">
        <ele>2.5</ele>
        <time>2018-09-21T14:07:01.000Z</time>
      </trkpt>
      <trkpt lat="46.72579" lon="-2.39852">
        <ele>2.6</ele>
        <time>2018-09-21T14:07:02.000Z</time>
      </trkpt>
      <trkpt lat="46.72579" lon="-2.39853">
        <ele>2.6</ele>
        <time>2018-09-21T14:07:03.000Z</time>
      </trkpt>
      <trkpt lat="46.7258" lon="-2.39855">
        <ele>2.6</ele>
        <time>2018-09-21T14:07:04.000Z</time>
      </trkpt>
      <trkpt lat="46.7258" lon="-2.39856">
        <ele>2.6</ele>
        <time>2018-09-21T14:07:05.000Z</time>
      </trkpt>
      <trkpt lat="46.7258" lon="-2.39857">
        <ele>2.7</ele>
        <time>2018-09-21T14:07:06.000Z</time>
      </trkpt>
      <trkpt lat="46.7258" lon="-2.39859">
        <ele>2.7</ele>
        <time>2018-09-21T14:07:07.000Z</time>
      </trkpt>
      <trkpt lat="46.72581" lon="-2.3986">
        <ele>2.7</ele>
        <time>2018-09-21T14:07:08.000Z</time>
      </trkpt>
      <trkpt lat="46.72581" lon="-2.39861">
        <ele>2.7</ele>
        <time>2018-09-21T14:07:09.000Z</time>
      </trkpt>
      <trkpt lat="46.72581" lon="-2.39863">
        <ele>2.8</ele>
        <time>2018-09-21T14:07:10.000Z</time>
      </trkpt>
      <trkpt lat="46.72581" lon="-2.39864">
        <ele>2.8</ele>
        <time>2018-09-21T14:07:11.000Z</time>
      </trkpt>
      <trkpt lat="46.72581" lon="-2.39866">
        <ele>2.8</ele>
        <time>2018-09-21T14:07:12.000Z</time>
      </trkpt>
      <trkpt lat="46.7258" lon="-2.39867">
        <ele>2.9</ele>
        <time>2018-09-21T14:07:13.000Z</time>
      </trkpt>
      <trkpt lat="46.7258" lon="-2.39868">
        <ele>2.9</ele>
        <time>2018-09-21T14:07:14.000Z</time>
      </trkpt>
      <trkpt lat="46.7258" lon="-2.3987">
        <ele>2.9</ele>
        <time>2018-09-21T14:07:15.000Z</time>
      </trkpt>
      <trkpt lat="46.72579" lon="-2.39871">
        <ele>3</ele>
        <time>2018-09-21T14:07:16.000Z</time>
      </trkpt>
      <trkpt lat="46.72579" lon="-2.39872">
        <ele>3</ele>
        <time>2018-09-21T14:07:17.000Z</time>
      </trkpt>
      <trkpt lat="46.72578" lon="-2.39874">
        <ele>3.1</ele>
        <time>2018-09-21T14:07:18.000Z</time>
      </trkpt>
      <trkpt lat="46.72578" lon="-2.39875">
        <ele>3.1</ele>
        <time>2018-09-21T14:07:19.000Z</time>
      </trkpt>
      <trkpt lat="46.72577" lon="-2.39876">
        <ele>3.1</ele>
        <time>2018-09-21T14:07:20.000Z</time>
      </trkpt>
      <trkpt lat="46.72577" lon="-2.39878">
        <ele>3.2</ele>
        <time>2018-09-21T14:07:21.000Z</time>
      </trkpt>
      <trkpt lat="46.72577" lon="-2.39879">
        <ele>3.2</ele>
        <time>2018-09-21T14:07:22.000Z</time>
      </trkpt>
      <trkpt lat="46.72576" lon="-2.3988">
        <ele>3.2</ele>
        <time>2018-09-21T14:07:23.000Z</time>
      </trkpt>
      <trkpt lat="46.72576" lon="-2.39881">
        <ele>3.3</ele>
        <time>2018-09-21T14:07:24.000Z</time>
      </trkpt>
      <trkpt lat="46.72575" lon="-2.39882">
        <ele>3.3</ele>
        <time>2018-09-21T14:07:25.000Z</time>
      </trkpt>
      <trkpt lat="46.72575" lon="-2.39884">
        <ele>3.3</ele>
        <time>2018-09-21T14:07:26.000Z</time>
      </trkpt>
      <trkpt lat="46.72574" lon="-2.39885">
        <ele>3.4</ele>
        <time>2018-09-21T14:07:27.000Z</time>
      </trkpt>
      <trkpt lat="46.72574" lon="-2.39886">
        <ele>3.4</ele>
        <time>2018-09-21T14:07:28.000Z</time>
      </trkpt>
      <trkpt lat="46.72573" lon="-2.39887">
        <ele>3.4</ele>
        <time>2018-09-21T14:07:29.000Z</time>
      </trkpt>
      <trkpt lat="46.72573" lon="-2.39888">
        <ele>3.4</ele>
        <time>2018-09-21T14:07:30.000Z</time>
      </trkpt>
      <trkpt lat="46.72573" lon="-2.39889">
        <ele>3.5</ele>
        <time>2018-09-21T14:07:31.000Z</time>
      </trkpt>
      <trkpt lat="46.72572" lon="-2.3989">
        <ele>3.5</ele>
        <time>2018-09-21T14:07:32.000Z</time>
      </trkpt>
      <trkpt lat="46.72572" lon="-2.39892">
        <ele>3.5</ele>
        <time>2018-09-21T14:07:33.000Z</time>
      </trkpt>
      <trkpt lat="46.72571" lon="-2.39893">
        <ele>3.5</ele>
        <time>2018-09-21T14:07:34.000Z</time>
      </trkpt>
      <trkpt lat="46.72571" lon="-2.39894">
        <ele>3.6</ele>
        <time>2018-09-21T14:07:35.000Z</time>
      </trkpt>
      <trkpt lat="46.7257" lon="-2.39895">
        <ele>3.6</ele>
        <time>2018-09-21T14:07:36.000Z</time>
      </trkpt>
      <trkpt lat="46.7257" lon="-2.39896">
        <ele>3.6</ele>
        <time>2018-09-21T14:07:37.000Z</time>
      </trkpt>
      <trkpt lat="46.72569" lon="-2.39897">
        <ele>3.6</ele>
        <time>2018-09-21T14:07:38.000Z</time>
      </trkpt>
      <trkpt lat="46.72568" lon="-2.39898">
        <ele>3.7</ele>
        <time>2018-09-21T14:07:39.000Z</time>
      </trkpt>
      <trkpt lat="46.72568" lon="-2.39899">
        <ele>3.7</ele>
        <time>2018-09-21T14:07:40.000Z</time>
      </trkpt>
      <trkpt lat="46.72567" lon="-2.399">
        <ele>3.7</ele>
        <time>2018-09-21T14:07:41.000Z</time>
      </trkpt>
      <trkpt lat="46.72567" lon="-2.39901">
        <ele>3.7</ele>
        <time>2018-09-21T14:07:42.000Z</time>
      </trkpt>
      <trkpt lat="46.72566" lon="-2.39902">
        <ele>3.8</ele>
        <time>2018-09-21T14:07:43.000Z</time>
      </trkpt>
      <trkpt lat="46.72565" lon="-2.39903">
        <ele>3.8</ele>
        <time>2018-09-21T14:07:44.000Z</time>
      </trkpt>
      <trkpt lat="46.72565" lon="-2.39904">
        <ele>3.8</ele>
        <time>2018-09-21T14:07:45.000Z</time>
      </trkpt>
      <trkpt lat="46.72564" lon="-2.39905">
        <ele>3.8</ele>
        <time>2018-09-21T14:07:46.000Z</time>
      </trkpt>
      <trkpt lat="46.72563" lon="-2.39906">
        <ele>3.8</ele>
        <time>2018-09-21T14:07:47.000Z</time>
      </trkpt>
      <trkpt lat="46.72563" lon="-2.39907">
        <ele>3.8</ele>
        <time>2018-09-21T14:07:48.000Z</time>
      </trkpt>
      <trkpt lat="46.72562" lon="-2.39908">
        <ele>3.9</ele>
        <time>2018-09-21T14:07:49.000Z</time>
      </trkpt>
      <trkpt lat="46.72562" lon="-2.39909">
        <ele>3.9</ele>
        <time>2018-09-21T14:07:50.000Z</time>
      </trkpt>
      <trkpt lat="46.72561" lon="-2.3991">
        <ele>3.9</ele>
        <time>2018-09-21T14:07:51.000Z</time>
      </trkpt>
      <trkpt lat="46.72561" lon="-2.39911">
        <ele>3.9</ele>
        <time>2018-09-21T14:07:52.000Z</time>
      </trkpt>
      <trkpt lat="46.7256" lon="-2.39912">
        <ele>3.9</ele>
        <time>2018-09-21T14:07:53.000Z</time>
      </trkpt>
      <trkpt lat="46.7256" lon="-2.39913">
        <ele>3.9</ele>
        <time>2018-09-21T14:07:54.000Z</time>
      </trkpt>
      <trkpt lat="46.72559" lon="-2.39914">
        <ele>4</ele>
        <time>2018-09-21T14:07:55.000Z</time>
      </trkpt>
      <trkpt lat="46.72559" lon="-2.39915">
        <ele>4</ele>
        <time>2018-09-21T14:07:56.000Z</time>
      </trkpt>
      <trkpt lat="46.72558" lon="-2.39916">
        <ele>4</ele>
        <time>2018-09-21T14:07:57.000Z</time>
      </trkpt>
      <trkpt lat="46.72558" lon="-2.39917">
        <ele>4</ele>
        <time>2018-09-21T14:07:58.000Z</time>
      </trkpt>
      <trkpt lat="46.72558" lon="-2.39918">
        <ele>4</ele>
        <time>2018-09-21T14:07:59.000Z</time>
      </trkpt>
      <trkpt lat="46.72557" lon="-2.39919">
        <ele>3.9</ele>
        <time>2018-09-21T14:08:00.000Z</time>
      </trkpt>
      <trkpt lat="46.72557" lon="-2.3992">
        <ele>3.9</ele>
        <time>2018-09-21T14:08:01.000Z</time>
      </trkpt>
      <trkpt lat="46.72556" lon="-2.39921">
        <ele>3.9</ele>
        <time>2018-09-21T14:08:02.000Z</time>
      </trkpt>
      <trkpt lat="46.72556" lon="-2.39922">
        <ele>3.8</ele>
        <time>2018-09-21T14:08:03.000Z</time>
      </trkpt>
      <trkpt lat="46.72556" lon="-2.39923">
        <ele>3.8</ele>
        <time>2018-09-21T14:08:04.000Z</time>
      </trkpt>
      <trkpt lat="46.72555" lon="-2.39925">
        <ele>3.8</ele>
        <time>2018-09-21T14:08:05.000Z</time>
      </trkpt>
      <trkpt lat="46.72555" lon="-2.39926">
        <ele>3.7</ele>
        <time>2018-09-21T14:08:06.000Z</time>
      </trkpt>
      <trkpt lat="46.72555" lon="-2.39927">
        <ele>3.7</ele>
        <time>2018-09-21T14:08:07.000Z</time>
      </trkpt>
      <trkpt lat="46.72554" lon="-2.39928">
        <ele>3.7</ele>
        <time>2018-09-21T14:08:08.000Z</time>
      </trkpt>
      <trkpt lat="46.72554" lon="-2.39929">
        <ele>3.7</ele>
        <time>2018-09-21T14:08:09.000Z</time>
      </trkpt>
      <trkpt lat="46.72554" lon="-2.3993">
        <ele>3.6</ele>
        <time>2018-09-21T14:08:10.000Z</time>
      </trkpt>
      <trkpt lat="46.72554" lon="-2.39931">
        <ele>3.6</ele>
        <time>2018-09-21T14:08:11.000Z</time>
      </trkpt>
      <trkpt lat="46.72553" lon="-2.39932">
        <ele>3.6</ele>
        <time>2018-09-21T14:08:12.000Z</time>
      </trkpt>
      <trkpt lat="46.72553" lon="-2.39933">
        <ele>3.5</ele>
        <time>2018-09-21T14:08:13.000Z</time>
      </trkpt>
      <trkpt lat="46.72553" lon="-2.39934">
        <ele>3.5</ele>
        <time>2018-09-21T14:08:14.000Z</time>
      </trkpt>
      <trkpt lat="46.72553" lon="-2.39935">
        <ele>3.5</ele>
        <time>2018-09-21T14:08:15.000Z</time>
      </trkpt>
      <trkpt lat="46.72553" lon="-2.39935">
        <ele>3.5</ele>
        <time>2018-09-21T14:08:16.000Z</time>
      </trkpt>
      <trkpt lat="46.72553" lon="-2.39936">
        <ele>3.4</ele>
        <time>2018-09-21T14:08:17.000Z</time>
      </trkpt>
      <trkpt lat="46.72553" lon="-2.39937">
        <ele>3.4</ele>
        <time>2018-09-21T14:08:18.000Z</time>
      </trkpt>
      <trkpt lat="46.72553" lon="-2.39938">
        <ele>3.4</ele>
        <time>2018-09-21T14:08:19.000Z</time>
      </trkpt>
      <trkpt lat="46.72553" lon="-2.39938">
        <ele>3.4</ele>
        <time>2018-09-21T14:08:20.000Z</time>
      </trkpt>
      <trkpt lat="46.72553" lon="-2.39939">
        <ele>3.4</ele>
        <time>2018-09-21T14:08:21.000Z</time>
      </trkpt>
      <trkpt lat="46.72552" lon="-2.39939">
        <ele>3.4</ele>
        <time>2018-09-21T14:08:22.000Z</time>
      </trkpt>
      <trkpt lat="46.72552" lon="-2.3994">
        <ele>3.3</ele>
        <time>2018-09-21T14:08:23.000Z</time>
      </trkpt>
      <trkpt lat="46.72553" lon="-2.39939">
        <ele>3.4</ele>
        <time>2018-09-21T14:08:24.000Z</time>
      </trkpt>
      <trkpt lat="46.72553" lon="-2.39937">
        <ele>3.4</ele>
        <time>2018-09-21T14:31:12.000Z</time>
      </trkpt>
      <trkpt lat="46.72553" lon="-2.39935">
        <ele>3.5</ele>
        <time>2018-09-21T14:31:13.000Z</time>
      </trkpt>
      <trkpt lat="46.72554" lon="-2.39932">
        <ele>3.6</ele>
        <time>2018-09-21T14:31:14.000Z</time>
      </trkpt>
      <trkpt lat="46.72555" lon="-2.39931">
        <ele>3.6</ele>
        <time>2018-09-21T14:31:15.000Z</time>
      </trkpt>
      <trkpt lat="46.72555" lon="-2.39929">
        <ele>3.6</ele>
        <time>2018-09-21T14:31:16.000Z</time>
      </trkpt>
      <trkpt lat="46.72555" lon="-2.39928">
        <ele>3.7</ele>
        <time>2018-09-21T14:31:17.000Z</time>
      </trkpt>
      <trkpt lat="46.72556" lon="-2.39927">
        <ele>3.7</ele>
        <time>2018-09-21T14:31:18.000Z</time>
      </trkpt>
      <trkpt lat="46.72556" lon="-2.39926">
        <ele>3.8</ele>
        <time>2018-09-21T14:31:19.000Z</time>
      </trkpt>
      <trkpt lat="46.72556" lon="-2.39924">
        <ele>3.8</ele>
        <time>2018-09-21T14:31:20.000Z</time>
      </trkpt>
      <trkpt lat="46.72556" lon="-2.39922">
        <ele>3.8</ele>
        <time>2018-09-21T14:31:21.000Z</time>
      </trkpt>
      <trkpt lat="46.72556" lon="-2.39921">
        <ele>3.9</ele>
        <time>2018-09-21T14:31:22.000Z</time>
      </trkpt>
      <trkpt lat="46.72556" lon="-2.39919">
        <ele>3.9</ele>
        <time>2018-09-21T14:31:23.000Z</time>
      </trkpt>
      <trkpt lat="46.72557" lon="-2.39918">
        <ele>4</ele>
        <time>2018-09-21T14:31:24.000Z</time>
      </trkpt>
      <trkpt lat="46.72557" lon="-2.39917">
        <ele>4</ele>
        <time>2018-09-21T14:31:25.000Z</time>
      </trkpt>
      <trkpt lat="46.72557" lon="-2.39916">
        <ele>4</ele>
        <time>2018-09-21T14:31:26.000Z</time>
      </trkpt>
      <trkpt lat="46.72558" lon="-2.39915">
        <ele>4</ele>
        <time>2018-09-21T14:31:27.000Z</time>
      </trkpt>
      <trkpt lat="46.72558" lon="-2.39914">
        <ele>4</ele>
        <time>2018-09-21T14:31:28.000Z</time>
      </trkpt>
      <trkpt lat="46.72559" lon="-2.39913">
        <ele>4</ele>
        <time>2018-09-21T14:31:29.000Z</time>
      </trkpt>
      <trkpt lat="46.72559" lon="-2.39913">
        <ele>3.9</ele>
        <time>2018-09-21T14:31:30.000Z</time>
      </trkpt>
      <trkpt lat="46.7256" lon="-2.39912">
        <ele>3.9</ele>
        <time>2018-09-21T14:31:31.000Z</time>
      </trkpt>
      <trkpt lat="46.72561" lon="-2.39911">
        <ele>3.9</ele>
        <time>2018-09-21T14:31:32.000Z</time>
      </trkpt>
      <trkpt lat="46.72561" lon="-2.39911">
        <ele>3.9</ele>
        <time>2018-09-21T14:31:33.000Z</time>
      </trkpt>
      <trkpt lat="46.72562" lon="-2.3991">
        <ele>3.9</ele>
        <time>2018-09-21T14:31:34.000Z</time>
      </trkpt>
      <trkpt lat="46.72563" lon="-2.3991">
        <ele>3.9</ele>
        <time>2018-09-21T14:31:35.000Z</time>
      </trkpt>
      <trkpt lat="46.72563" lon="-2.39909">
        <ele>3.9</ele>
        <time>2018-09-21T14:31:36.000Z</time>
      </trkpt>
      <trkpt lat="46.72564" lon="-2.39908">
        <ele>3.9</ele>
        <time>2018-09-21T14:31:37.000Z</time>
      </trkpt>
      <trkpt lat="46.72565" lon="-2.39908">
        <ele>3.9</ele>
        <time>2018-09-21T14:31:38.000Z</time>
      </trkpt>
      <trkpt lat="46.72565" lon="-2.39907">
        <ele>3.8</ele>
        <time>2018-09-21T14:31:39.000Z</time>
      </trkpt>
      <trkpt lat="46.72566" lon="-2.39906">
        <ele>3.8</ele>
        <time>2018-09-21T14:31:40.000Z</time>
      </trkpt>
      <trkpt lat="46.72567" lon="-2.39905">
        <ele>3.8</ele>
        <time>2018-09-21T14:31:41.000Z</time>
      </trkpt>
      <trkpt lat="46.72567" lon="-2.39905">
        <ele>3.8</ele>
        <time>2018-09-21T14:31:42.000Z</time>
      </trkpt>
      <trkpt lat="46.72568" lon="-2.39903">
        <ele>3.8</ele>
        <time>2018-09-21T14:31:43.000Z</time>
      </trkpt>
      <trkpt lat="46.72568" lon="-2.39902">
        <ele>3.7</ele>
        <time>2018-09-21T14:31:44.000Z</time>
      </trkpt>
      <trkpt lat="46.72569" lon="-2.39901">
        <ele>3.7</ele>
        <time>2018-09-21T14:31:45.000Z</time>
      </trkpt>
      <trkpt lat="46.72569" lon="-2.399">
        <ele>3.7</ele>
        <time>2018-09-21T14:31:46.000Z</time>
      </trkpt>
      <trkpt lat="46.7257" lon="-2.39899">
        <ele>3.7</ele>
        <time>2018-09-21T14:31:47.000Z</time>
      </trkpt>
      <trkpt lat="46.7257" lon="-2.39897">
        <ele>3.6</ele>
        <time>2018-09-21T14:31:48.000Z</time>
      </trkpt>
      <trkpt lat="46.7257" lon="-2.39896">
        <ele>3.6</ele>
        <time>2018-09-21T14:31:49.000Z</time>
      </trkpt>
      <trkpt lat="46.72571" lon="-2.39895">
        <ele>3.6</ele>
        <time>2018-09-21T14:31:50.000Z</time>
      </trkpt>
      <trkpt lat="46.72571" lon="-2.39893">
        <ele>3.6</ele>
        <time>2018-09-21T14:31:51.000Z</time>
      </trkpt>
      <trkpt lat="46.72572" lon="-2.39892">
        <ele>3.5</ele>
        <time>2018-09-21T14:31:52.000Z</time>
      </trkpt>
      <trkpt lat="46.72572" lon="-2.39891">
        <ele>3.5</ele>
        <time>2018-09-21T14:31:53.000Z</time>
      </trkpt>
      <trkpt lat="46.72573" lon="-2.3989">
        <ele>3.5</ele>
        <time>2018-09-21T14:31:54.000Z</time>
      </trkpt>
      <trkpt lat="46.72573" lon="-2.39888">
        <ele>3.4</ele>
        <time>2018-09-21T14:31:55.000Z</time>
      </trkpt>
      <trkpt lat="46.72574" lon="-2.39887">
        <ele>3.4</ele>
        <time>2018-09-21T14:31:56.000Z</time>
      </trkpt>
      <trkpt lat="46.72574" lon="-2.39886">
        <ele>3.4</ele>
        <time>2018-09-21T14:31:57.000Z</time>
      </trkpt>
      <trkpt lat="46.72575" lon="-2.39885">
        <ele>3.4</ele>
        <time>2018-09-21T14:31:58.000Z</time>
      </trkpt>
      <trkpt lat="46.72575" lon="-2.39884">
        <ele>3.3</ele>
        <time>2018-09-21T14:31:59.000Z</time>
      </trkpt>
      <trkpt lat="46.72576" lon="-2.39883">
        <ele>3.3</ele>
        <time>2018-09-21T14:32:00.000Z</time>
      </trkpt>
      <trkpt lat="46.72576" lon="-2.39882">
        <ele>3.3</ele>
        <time>2018-09-21T14:32:01.000Z</time>
      </trkpt>
      <trkpt lat="46.72576" lon="-2.39881">
        <ele>3.3</ele>
        <time>2018-09-21T14:32:02.000Z</time>
      </trkpt>
      <trkpt lat="46.72577" lon="-2.3988">
        <ele>3.2</ele>
        <time>2018-09-21T14:32:03.000Z</time>
      </trkpt>
      <trkpt lat="46.72577" lon="-2.39879">
        <ele>3.2</ele>
        <time>2018-09-21T14:32:04.000Z</time>
      </trkpt>
      <trkpt lat="46.72577" lon="-2.39878">
        <ele>3.2</ele>
        <time>2018-09-21T14:32:05.000Z</time>
      </trkpt>
      <trkpt lat="46.72578" lon="-2.39877">
        <ele>3.1</ele>
        <time>2018-09-21T14:32:06.000Z</time>
      </trkpt>
      <trkpt lat="46.72578" lon="-2.39876">
        <ele>3.1</ele>
        <time>2018-09-21T14:32:07.000Z</time>
      </trkpt>
      <trkpt lat="46.72578" lon="-2.39874">
        <ele>3.1</ele>
        <time>2018-09-21T14:32:08.000Z</time>
      </trkpt>
      <trkpt lat="46.72578" lon="-2.39873">
        <ele>3</ele>
        <time>2018-09-21T14:32:09.000Z</time>
      </trkpt>
      <trkpt lat="46.72578" lon="-2.39871">
        <ele>3</ele>
        <time>2018-09-21T14:32:10.000Z</time>
      </trkpt>
      <trkpt lat="46.72579" lon="-2.3987">
        <ele>3</ele>
        <time>2018-09-21T14:32:11.000Z</time>
      </trkpt>
      <trkpt lat="46.72579" lon="-2.39869">
        <ele>2.9</ele>
        <time>2018-09-21T14:32:12.000Z</time>
      </trkpt>
      <trkpt lat="46.72579" lon="-2.39868">
        <ele>2.9</ele>
        <time>2018-09-21T14:32:13.000Z</time>
      </trkpt>
      <trkpt lat="46.72579" lon="-2.39866">
        <ele>2.9</ele>
        <time>2018-09-21T14:32:14.000Z</time>
      </trkpt>
      <trkpt lat="46.72578" lon="-2.39865">
        <ele>2.9</ele>
        <time>2018-09-21T14:32:15.000Z</time>
      </trkpt>
      <trkpt lat="46.72578" lon="-2.39864">
        <ele>2.9</ele>
        <time>2018-09-21T14:32:16.000Z</time>
      </trkpt>
      <trkpt lat="46.72578" lon="-2.39863">
        <ele>2.8</ele>
        <time>2018-09-21T14:32:17.000Z</time>
      </trkpt>
      <trkpt lat="46.72578" lon="-2.39862">
        <ele>2.8</ele>
        <time>2018-09-21T14:32:18.000Z</time>
      </trkpt>
      <trkpt lat="46.72578" lon="-2.3986">
        <ele>2.8</ele>
        <time>2018-09-21T14:32:19.000Z</time>
      </trkpt>
      <trkpt lat="46.72578" lon="-2.39859">
        <ele>2.7</ele>
        <time>2018-09-21T14:32:20.000Z</time>
      </trkpt>
      <trkpt lat="46.72578" lon="-2.39857">
        <ele>2.7</ele>
        <time>2018-09-21T14:32:21.000Z</time>
      </trkpt>
      <trkpt lat="46.72578" lon="-2.39856">
        <ele>2.7</ele>
        <time>2018-09-21T14:32:22.000Z</time>
      </trkpt>
      <trkpt lat="46.72578" lon="-2.39854">
        <ele>2.6</ele>
        <time>2018-09-21T14:32:23.000Z</time>
      </trkpt>
      <trkpt lat="46.72578" lon="-2.39852">
        <ele>2.6</ele>
        <time>2018-09-21T14:32:24.000Z</time>
      </trkpt>
      <trkpt lat="46.72578" lon="-2.39851">
        <ele>2.6</ele>
        <time>2018-09-21T14:32:25.000Z</time>
      </trkpt>
      <trkpt lat="46.72578" lon="-2.39849">
        <ele>2.5</ele>
        <time>2018-09-21T14:32:26.000Z</time>
      </trkpt>
      <trkpt lat="46.72578" lon="-2.39848">
        <ele>2.5</ele>
        <time>2018-09-21T14:32:27.000Z</time>
      </trkpt>
      <trkpt lat="46.72577" lon="-2.39846">
        <ele>2.5</ele>
        <time>2018-09-21T14:32:28.000Z</time>
      </trkpt>
      <trkpt lat="46.72577" lon="-2.39844">
        <ele>2.5</ele>
        <time>2018-09-21T14:32:29.000Z</time>
      </trkpt>
      <trkpt lat="46.72576" lon="-2.39843">
        <ele>2.5</ele>
        <time>2018-09-21T14:32:30.000Z</time>
      </trkpt>
      <trkpt lat="46.72576" lon="-2.39842">
        <ele>2.4</ele>
        <time>2018-09-21T14:32:31.000Z</time>
      </trkpt>
      <trkpt lat="46.72575" lon="-2.3984">
        <ele>2.4</ele>
        <time>2018-09-21T14:32:32.000Z</time>
      </trkpt>
      <trkpt lat="46.72575" lon="-2.39839">
        <ele>2.4</ele>
        <time>2018-09-21T14:32:33.000Z</time>
      </trkpt>
      <trkpt lat="46.72574" lon="-2.39838">
        <ele>2.4</ele>
        <time>2018-09-21T14:32:34.000Z</time>
      </trkpt>
      <trkpt lat="46.72574" lon="-2.39837">
        <ele>2.4</ele>
        <time>2018-09-21T14:32:35.000Z</time>
      </trkpt>
      <trkpt lat="46.72574" lon="-2.39836">
        <ele>2.4</ele>
        <time>2018-09-21T14:32:36.000Z</time>
      </trkpt>
      <trkpt lat="46.72574" lon="-2.39835">
        <ele>2.4</ele>
        <time>2018-09-21T14:32:37.000Z</time>
      </trkpt>
      <trkpt lat="46.72574" lon="-2.39835">
        <ele>2.4</ele>
        <time>2018-09-21T14:32:38.000Z</time>
      </trkpt>
      <trkpt lat="46.72573" lon="-2.39834">
        <ele>2.4</ele>
        <time>2018-09-21T14:32:39.000Z</time>
      </trkpt>
      <trkpt lat="46.72573" lon="-2.39834">
        <ele>2.4</ele>
        <time>2018-09-21T14:32:40.000Z</time>
      </trkpt>
      <trkpt lat="46.72573" lon="-2.39834">
        <ele>2.4</ele>
        <time>2018-09-21T14:32:41.000Z</time>
      </trkpt>
      <trkpt lat="46.72573" lon="-2.39834">
        <ele>2.4</ele>
        <time>2018-09-21T14:32:42.000Z</time>
      </trkpt>
      <trkpt lat="46.72573" lon="-2.39834">
        <ele>2.4</ele>
        <time>2018-09-21T14:32:43.000Z</time>
      </trkpt>
      <trkpt lat="46.72573" lon="-2.39834">
        <ele>2.4</ele>
        <time>2018-09-21T14:32:44.000Z</time>
      </trkpt>
      <trkpt lat="46.72573" lon="-2.39834">
        <ele>2.4</ele>
        <time>2018-09-21T14:32:45.000Z</time>
      </trkpt>
      <trkpt lat="46.72573" lon="-2.39834">
        <ele>2.4</ele>
        <time>2018-09-21T14:32:46.000Z</time>
      </trkpt>
      <trkpt lat="46.72573" lon="-2.39833">
        <ele>2.4</ele>
        <time>2018-09-21T14:32:47.000Z</time>
      </trkpt>
      <trkpt lat="46.72573" lon="-2.39833">
        <ele>2.4</ele>
        <time>2018-09-21T14:32:48.000Z</time>
      </trkpt>
      <trkpt lat="46.72573" lon="-2.39832">
        <ele>2.3</ele>
        <time>2018-09-21T14:32:49.000Z</time>
      </trkpt>
      <trkpt lat="46.72573" lon="-2.39831">
        <ele>2.3</ele>
        <time>2018-09-21T14:32:50.000Z</time>
      </trkpt>
      <trkpt lat="46.72573" lon="-2.3983">
        <ele>2.3</ele>
        <time>2018-09-21T14:32:51.000Z</time>
      </trkpt>
      <trkpt lat="46.72573" lon="-2.39829">
        <ele>2.3</ele>
        <time>2018-09-21T14:32:52.000Z</time>
      </trkpt>
      <trkpt lat="46.72573" lon="-2.39829">
        <ele>2.3</ele>
        <time>2018-09-21T14:32:53.000Z</time>
      </trkpt>
      <trkpt lat="46.72573" lon="-2.39829">
        <ele>2.3</ele>
        <time>2018-09-21T14:32:54.000Z</time>
      </trkpt>
      <trkpt lat="46.72573" lon="-2.39829">
        <ele>2.3</ele>
        <time>2018-09-21T14:32:55.000Z</time>
      </trkpt>
      <trkpt lat="46.72573" lon="-2.39829">
        <ele>2.3</ele>
        <time>2018-09-21T14:32:56.000Z</time>
      </trkpt>
      <trkpt lat="46.72573" lon="-2.39828">
        <ele>2.3</ele>
        <time>2018-09-21T14:32:57.000Z</time>
      </trkpt>
      <trkpt lat="46.72573" lon="-2.39827">
        <ele>2.3</ele>
        <time>2018-09-21T14:32:58.000Z</time>
      </trkpt>
      <trkpt lat="46.72573" lon="-2.39826">
        <ele>2.2</ele>
        <time>2018-09-21T14:32:59.000Z</time>
      </trkpt>
      <trkpt lat="46.72572" lon="-2.39825">
        <ele>2.2</ele>
        <time>2018-09-21T14:33:00.000Z</time>
      </trkpt>
      <trkpt lat="46.72572" lon="-2.39823">
        <ele>2.2</ele>
        <time>2018-09-21T14:33:01.000Z</time>
      </trkpt>
      <trkpt lat="46.72572" lon="-2.39822">
        <ele>2.2</ele>
        <time>2018-09-21T14:33:02.000Z</time>
      </trkpt>
      <trkpt lat="46.72571" lon="-2.39821">
        <ele>2.2</ele>
        <time>2018-09-21T14:33:03.000Z</time>
      </trkpt>
      <trkpt lat="46.72571" lon="-2.3982">
        <ele>2.2</ele>
        <time>2018-09-21T14:33:04.000Z</time>
      </trkpt>
      <trkpt lat="46.7257" lon="-2.39819">
        <ele>2.2</ele>
        <time>2018-09-21T14:33:05.000Z</time>
      </trkpt>
      <trkpt lat="46.7257" lon="-2.39818">
        <ele>2.2</ele>
        <time>2018-09-21T14:33:06.000Z</time>
      </trkpt>
      <trkpt lat="46.72569" lon="-2.39817">
        <ele>2.2</ele>
        <time>2018-09-21T14:33:07.000Z</time>
      </trkpt>
      <trkpt lat="46.72569" lon="-2.39817">
        <ele>2.2</ele>
        <time>2018-09-21T14:33:08.000Z</time>
      </trkpt>
      <trkpt lat="46.72569" lon="-2.39816">
        <ele>2.1</ele>
        <time>2018-09-21T14:33:09.000Z</time>
      </trkpt>
      <trkpt lat="46.72568" lon="-2.39815">
        <ele>2.1</ele>
        <time>2018-09-21T14:33:10.000Z</time>
      </trkpt>
      <trkpt lat="46.72568" lon="-2.39814">
        <ele>2.1</ele>
        <time>2018-09-21T14:33:11.000Z</time>
      </trkpt>
      <trkpt lat="46.72568" lon="-2.39813">
        <ele>2.1</ele>
        <time>2018-09-21T14:33:12.000Z</time>
      </trkpt>
      <trkpt lat="46.72568" lon="-2.39812">
        <ele>2.1</ele>
        <time>2018-09-21T14:33:13.000Z</time>
      </trkpt>
      <trkpt lat="46.72568" lon="-2.39811">
        <ele>2</ele>
        <time>2018-09-21T14:33:14.000Z</time>
      </trkpt>
      <trkpt lat="46.72568" lon="-2.39809">
        <ele>2</ele>
        <time>2018-09-21T14:33:15.000Z</time>
      </trkpt>
      <trkpt lat="46.72568" lon="-2.39808">
        <ele>2</ele>
        <time>2018-09-21T14:33:16.000Z</time>
      </trkpt>
      <trkpt lat="46.72568" lon="-2.39806">
        <ele>1.9</ele>
        <time>2018-09-21T14:33:17.000Z</time>
      </trkpt>
      <trkpt lat="46.72568" lon="-2.39805">
        <ele>1.9</ele>
        <time>2018-09-21T14:33:18.000Z</time>
      </trkpt>
      <trkpt lat="46.72568" lon="-2.39803">
        <ele>1.9</ele>
        <time>2018-09-21T14:33:19.000Z</time>
      </trkpt>
      <trkpt lat="46.72568" lon="-2.39802">
        <ele>1.9</ele>
        <time>2018-09-21T14:33:20.000Z</time>
      </trkpt>
      <trkpt lat="46.72568" lon="-2.398">
        <ele>1.8</ele>
        <time>2018-09-21T14:33:21.000Z</time>
      </trkpt>
      <trkpt lat="46.72568" lon="-2.39799">
        <ele>1.8</ele>
        <time>2018-09-21T14:33:22.000Z</time>
      </trkpt>
      <trkpt lat="46.72568" lon="-2.39797">
        <ele>1.8</ele>
        <time>2018-09-21T14:33:23.000Z</time>
      </trkpt>
      <trkpt lat="46.72568" lon="-2.39796">
        <ele>1.7</ele>
        <time>2018-09-21T14:33:24.000Z</time>
      </trkpt>
      <trkpt lat="46.72568" lon="-2.39795">
        <ele>1.7</ele>
        <time>2018-09-21T14:33:25.000Z</time>
      </trkpt>
      <trkpt lat="46.72568" lon="-2.39793">
        <ele>1.7</ele>
        <time>2018-09-21T14:33:26.000Z</time>
      </trkpt>
      <trkpt lat="46.72567" lon="-2.39792">
        <ele>1.7</ele>
        <time>2018-09-21T14:33:27.000Z</time>
      </trkpt>
      <trkpt lat="46.72567" lon="-2.3979">
        <ele>1.7</ele>
        <time>2018-09-21T14:33:28.000Z</time>
      </trkpt>
      <trkpt lat="46.72567" lon="-2.39789">
        <ele>1.6</ele>
        <time>2018-09-21T14:33:29.000Z</time>
      </trkpt>
      <trkpt lat="46.72566" lon="-2.39788">
        <ele>1.6</ele>
        <time>2018-09-21T14:33:30.000Z</time>
      </trkpt>
      <trkpt lat="46.72566" lon="-2.39786">
        <ele>1.6</ele>
        <time>2018-09-21T14:33:31.000Z</time>
      </trkpt>
      <trkpt lat="46.72566" lon="-2.39785">
        <ele>1.6</ele>
        <time>2018-09-21T14:33:32.000Z</time>
      </trkpt>
      <trkpt lat="46.72565" lon="-2.39783">
        <ele>1.6</ele>
        <time>2018-09-21T14:33:33.000Z</time>
      </trkpt>
      <trkpt lat="46.72565" lon="-2.39782">
        <ele>1.6</ele>
        <time>2018-09-21T14:33:34.000Z</time>
      </trkpt>
      <trkpt lat="46.72565" lon="-2.3978">
        <ele>1.5</ele>
        <time>2018-09-21T14:33:35.000Z</time>
      </trkpt>
      <trkpt lat="46.72564" lon="-2.39779">
        <ele>1.5</ele>
        <time>2018-09-21T14:33:36.000Z</time>
      </trkpt>
      <trkpt lat="46.72564" lon="-2.39777">
        <ele>1.5</ele>
        <time>2018-09-21T14:33:37.000Z</time>
      </trkpt>
      <trkpt lat="46.72563" lon="-2.39775">
        <ele>1.5</ele>
        <time>2018-09-21T14:33:38.000Z</time>
      </trkpt>
      <trkpt lat="46.72563" lon="-2.39774">
        <ele>1.5</ele>
        <time>2018-09-21T14:33:39.000Z</time>
      </trkpt>
      <trkpt lat="46.72563" lon="-2.39772">
        <ele>1.5</ele>
        <time>2018-09-21T14:33:40.000Z</time>
      </trkpt>
      <trkpt lat="46.72562" lon="-2.39771">
        <ele>1.5</ele>
        <time>2018-09-21T14:33:41.000Z</time>
      </trkpt>
      <trkpt lat="46.72562" lon="-2.39769">
        <ele>1.4</ele>
        <time>2018-09-21T14:33:42.000Z</time>
      </trkpt>
      <trkpt lat="46.72562" lon="-2.39768">
        <ele>1.4</ele>
        <time>2018-09-21T14:33:43.000Z</time>
      </trkpt>
      <trkpt lat="46.72561" lon="-2.39767">
        <ele>1.4</ele>
        <time>2018-09-21T14:33:44.000Z</time>
      </trkpt>
      <trkpt lat="46.72561" lon="-2.39766">
        <ele>1.4</ele>
        <time>2018-09-21T14:33:45.000Z</time>
      </trkpt>
      <trkpt lat="46.72561" lon="-2.39766">
        <ele>1.4</ele>
        <time>2018-09-21T14:33:46.000Z</time>
      </trkpt>
      <trkpt lat="46.72561" lon="-2.39765">
        <ele>1.4</ele>
        <time>2018-09-21T14:33:47.000Z</time>
      </trkpt>
      <trkpt lat="46.72561" lon="-2.39764">
        <ele>1.4</ele>
        <time>2018-09-21T14:33:48.000Z</time>
      </trkpt>
      <trkpt lat="46.72561" lon="-2.39764">
        <ele>1.4</ele>
        <time>2018-09-21T14:33:49.000Z</time>
      </trkpt>
      <trkpt lat="46.72561" lon="-2.39763">
        <ele>1.4</ele>
        <time>2018-09-21T14:33:50.000Z</time>
      </trkpt>
      <trkpt lat="46.7256" lon="-2.39763">
        <ele>1.4</ele>
        <time>2018-09-21T14:33:51.000Z</time>
      </trkpt>
      <trkpt lat="46.7256" lon="-2.39762">
        <ele>1.4</ele>
        <time>2018-09-21T14:33:52.000Z</time>
      </trkpt>
      <trkpt lat="46.72559" lon="-2.39761">
        <ele>1.4</ele>
        <time>2018-09-21T14:33:53.000Z</time>
      </trkpt>
      <trkpt lat="46.72559" lon="-2.3976">
        <ele>1.4</ele>
        <time>2018-09-21T14:33:54.000Z</time>
      </trkpt>
      <trkpt lat="46.72559" lon="-2.39759">
        <ele>1.4</ele>
        <time>2018-09-21T14:33:55.000Z</time>
      </trkpt>
      <trkpt lat="46.72558" lon="-2.39757">
        <ele>1.4</ele>
        <time>2018-09-21T14:33:56.000Z</time>
      </trkpt>
      <trkpt lat="46.72558" lon="-2.39756">
        <ele>1.4</ele>
        <time>2018-09-21T14:33:57.000Z</time>
      </trkpt>
      <trkpt lat="46.72557" lon="-2.39755">
        <ele>1.3</ele>
        <time>2018-09-21T14:33:58.000Z</time>
      </trkpt>
      <trkpt lat="46.72557" lon="-2.39753">
        <ele>1.3</ele>
        <time>2018-09-21T14:33:59.000Z</time>
      </trkpt>
      <trkpt lat="46.72557" lon="-2.39752">
        <ele>1.3</ele>
        <time>2018-09-21T14:34:00.000Z</time>
      </trkpt>
      <trkpt lat="46.72556" lon="-2.3975">
        <ele>1.3</ele>
        <time>2018-09-21T14:34:01.000Z</time>
      </trkpt>
      <trkpt lat="46.72556" lon="-2.39749">
        <ele>1.3</ele>
        <time>2018-09-21T14:34:02.000Z</time>
      </trkpt>
      <trkpt lat="46.72555" lon="-2.39747">
        <ele>1.4</ele>
        <time>2018-09-21T14:34:03.000Z</time>
      </trkpt>
      <trkpt lat="46.72555" lon="-2.39746">
        <ele>1.4</ele>
        <time>2018-09-21T14:34:04.000Z</time>
      </trkpt>
      <trkpt lat="46.72554" lon="-2.39745">
        <ele>1.4</ele>
        <time>2018-09-21T14:34:05.000Z</time>
      </trkpt>
      <trkpt lat="46.72554" lon="-2.39743">
        <ele>1.5</ele>
        <time>2018-09-21T14:34:06.000Z</time>
      </trkpt>
      <trkpt lat="46.72554" lon="-2.39742">
        <ele>1.5</ele>
        <time>2018-09-21T14:34:07.000Z</time>
      </trkpt>
      <trkpt lat="46.72553" lon="-2.39741">
        <ele>1.5</ele>
        <time>2018-09-21T14:34:08.000Z</time>
      </trkpt>
      <trkpt lat="46.72553" lon="-2.3974">
        <ele>1.5</ele>
        <time>2018-09-21T14:34:09.000Z</time>
      </trkpt>
      <trkpt lat="46.72552" lon="-2.39739">
        <ele>1.6</ele>
        <time>2018-09-21T14:34:10.000Z</time>
      </trkpt>
      <trkpt lat="46.72552" lon="-2.39738">
        <ele>1.6</ele>
        <time>2018-09-21T14:34:11.000Z</time>
      </trkpt>
      <trkpt lat="46.72552" lon="-2.39736">
        <ele>1.6</ele>
        <time>2018-09-21T14:34:12.000Z</time>
      </trkpt>
      <trkpt lat="46.72551" lon="-2.39735">
        <ele>1.6</ele>
        <time>2018-09-21T14:34:13.000Z</time>
      </trkpt>
      <trkpt lat="46.72551" lon="-2.39734">
        <ele>1.7</ele>
        <time>2018-09-21T14:34:14.000Z</time>
      </trkpt>
      <trkpt lat="46.72551" lon="-2.39733">
        <ele>1.7</ele>
        <time>2018-09-21T14:34:15.000Z</time>
      </trkpt>
      <trkpt lat="46.7255" lon="-2.39732">
        <ele>1.7</ele>
        <time>2018-09-21T14:34:16.000Z</time>
      </trkpt>
      <trkpt lat="46.7255" lon="-2.3973">
        <ele>1.7</ele>
        <time>2018-09-21T14:34:17.000Z</time>
      </trkpt>
      <trkpt lat="46.7255" lon="-2.39729">
        <ele>1.8</ele>
        <time>2018-09-21T14:34:18.000Z</time>
      </trkpt>
      <trkpt lat="46.7255" lon="-2.39728">
        <ele>1.8</ele>
        <time>2018-09-21T14:34:19.000Z</time>
      </trkpt>
      <trkpt lat="46.72549" lon="-2.39727">
        <ele>1.8</ele>
        <time>2018-09-21T14:34:20.000Z</time>
      </trkpt>
      <trkpt lat="46.72549" lon="-2.39725">
        <ele>1.8</ele>
        <time>2018-09-21T14:34:21.000Z</time>
      </trkpt>
      <trkpt lat="46.72549" lon="-2.39724">
        <ele>1.9</ele>
        <time>2018-09-21T14:34:22.000Z</time>
      </trkpt>
      <trkpt lat="46.72548" lon="-2.39723">
        <ele>1.9</ele>
        <time>2018-09-21T14:34:23.000Z</time>
      </trkpt>
      <trkpt lat="46.72548" lon="-2.39721">
        <ele>1.9</ele>
        <time>2018-09-21T14:34:24.000Z</time>
      </trkpt>
      <trkpt lat="46.72547" lon="-2.3972">
        <ele>1.9</ele>
        <time>2018-09-21T14:34:25.000Z</time>
      </trkpt>
      <trkpt lat="46.72547" lon="-2.39718">
        <ele>2</ele>
        <time>2018-09-21T14:34:26.000Z</time>
      </trkpt>
      <trkpt lat="46.72547" lon="-2.39717">
        <ele>2</ele>
        <time>2018-09-21T14:34:27.000Z</time>
      </trkpt>
      <trkpt lat="46.72546" lon="-2.39715">
        <ele>2</ele>
        <time>2018-09-21T14:34:28.000Z</time>
      </trkpt>
      <trkpt lat="46.72546" lon="-2.39714">
        <ele>2</ele>
        <time>2018-09-21T14:34:29.000Z</time>
      </trkpt>
      <trkpt lat="46.72545" lon="-2.39713">
        <ele>2.1</ele>
        <time>2018-09-21T14:34:30.000Z</time>
      </trkpt>
      <trkpt lat="46.72545" lon="-2.39711">
        <ele>2.1</ele>
        <time>2018-09-21T14:34:31.000Z</time>
      </trkpt>
      <trkpt lat="46.72544" lon="-2.3971">
        <ele>2.1</ele>
        <time>2018-09-21T14:34:32.000Z</time>
      </trkpt>
      <trkpt lat="46.72544" lon="-2.39709">
        <ele>2.2</ele>
        <time>2018-09-21T14:34:33.000Z</time>
      </trkpt>
      <trkpt lat="46.72543" lon="-2.39708">
        <ele>2.2</ele>
        <time>2018-09-21T14:34:34.000Z</time>
      </trkpt>
      <trkpt lat="46.72542" lon="-2.39707">
        <ele>2.2</ele>
        <time>2018-09-21T14:34:35.000Z</time>
      </trkpt>
      <trkpt lat="46.72542" lon="-2.39706">
        <ele>2.3</ele>
        <time>2018-09-21T14:34:36.000Z</time>
      </trkpt>
      <trkpt lat="46.72541" lon="-2.39705">
        <ele>2.3</ele>
        <time>2018-09-21T14:34:37.000Z</time>
      </trkpt>
      <trkpt lat="46.72541" lon="-2.39704">
        <ele>2.3</ele>
        <time>2018-09-21T14:34:38.000Z</time>
      </trkpt>
      <trkpt lat="46.7254" lon="-2.39703">
        <ele>2.3</ele>
        <time>2018-09-21T14:34:39.000Z</time>
      </trkpt>
      <trkpt lat="46.7254" lon="-2.39701">
        <ele>2.4</ele>
        <time>2018-09-21T14:34:40.000Z</time>
      </trkpt>
      <trkpt lat="46.72539" lon="-2.397">
        <ele>2.4</ele>
        <time>2018-09-21T14:34:41.000Z</time>
      </trkpt>
      <trkpt lat="46.72539" lon="-2.39699">
        <ele>2.4</ele>
        <time>2018-09-21T14:34:42.000Z</time>
      </trkpt>
      <trkpt lat="46.72539" lon="-2.39698">
        <ele>2.4</ele>
        <time>2018-09-21T14:34:43.000Z</time>
      </trkpt>
      <trkpt lat="46.72538" lon="-2.39696">
        <ele>2.5</ele>
        <time>2018-09-21T14:34:44.000Z</time>
      </trkpt>
      <trkpt lat="46.72538" lon="-2.39695">
        <ele>2.5</ele>
        <time>2018-09-21T14:34:45.000Z</time>
      </trkpt>
      <trkpt lat="46.72538" lon="-2.39694">
        <ele>2.5</ele>
        <time>2018-09-21T14:34:46.000Z</time>
      </trkpt>
      <trkpt lat="46.72538" lon="-2.39692">
        <ele>2.5</ele>
        <time>2018-09-21T14:34:47.000Z</time>
      </trkpt>
      <trkpt lat="46.72538" lon="-2.39691">
        <ele>2.5</ele>
        <time>2018-09-21T14:34:48.000Z</time>
      </trkpt>
      <trkpt lat="46.72538" lon="-2.39689">
        <ele>2.5</ele>
        <time>2018-09-21T14:34:49.000Z</time>
      </trkpt>
      <trkpt lat="46.72537" lon="-2.39688">
        <ele>2.5</ele>
        <time>2018-09-21T14:34:50.000Z</time>
      </trkpt>
      <trkpt lat="46.72537" lon="-2.39686">
        <ele>2.6</ele>
        <time>2018-09-21T14:34:51.000Z</time>
      </trkpt>
      <trkpt lat="46.72537" lon="-2.39685">
        <ele>2.6</ele>
        <time>2018-09-21T14:34:52.000Z</time>
      </trkpt>
      <trkpt lat="46.72537" lon="-2.39683">
        <ele>2.6</ele>
        <time>2018-09-21T14:34:53.000Z</time>
      </trkpt>
      <trkpt lat="46.72536" lon="-2.39682">
        <ele>2.6</ele>
        <time>2018-09-21T14:34:54.000Z</time>
      </trkpt>
      <trkpt lat="46.72536" lon="-2.3968">
        <ele>2.6</ele>
        <time>2018-09-21T14:34:55.000Z</time>
      </trkpt>
      <trkpt lat="46.72536" lon="-2.39679">
        <ele>2.6</ele>
        <time>2018-09-21T14:34:56.000Z</time>
      </trkpt>
      <trkpt lat="46.72536" lon="-2.39678">
        <ele>2.7</ele>
        <time>2018-09-21T14:34:57.000Z</time>
      </trkpt>
      <trkpt lat="46.72535" lon="-2.39676">
        <ele>2.7</ele>
        <time>2018-09-21T14:34:58.000Z</time>
      </trkpt>
      <trkpt lat="46.72535" lon="-2.39675">
        <ele>2.7</ele>
        <time>2018-09-21T14:34:59.000Z</time>
      </trkpt>
      <trkpt lat="46.72535" lon="-2.39674">
        <ele>2.7</ele>
        <time>2018-09-21T14:35:00.000Z</time>
      </trkpt>
      <trkpt lat="46.72535" lon="-2.39673">
        <ele>2.7</ele>
        <time>2018-09-21T14:35:01.000Z</time>
      </trkpt>
      <trkpt lat="46.72535" lon="-2.39672">
        <ele>2.7</ele>
        <time>2018-09-21T14:35:02.000Z</time>
      </trkpt>
      <trkpt lat="46.72535" lon="-2.39671">
        <ele>2.7</ele>
        <time>2018-09-21T14:35:03.000Z</time>
      </trkpt>
      <trkpt lat="46.72535" lon="-2.3967">
        <ele>2.7</ele>
        <time>2018-09-21T14:35:04.000Z</time>
      </trkpt>
      <trkpt lat="46.72535" lon="-2.39669">
        <ele>2.7</ele>
        <time>2018-09-21T14:35:05.000Z</time>
      </trkpt>
      <trkpt lat="46.72535" lon="-2.39668">
        <ele>2.7</ele>
        <time>2018-09-21T14:35:06.000Z</time>
      </trkpt>
      <trkpt lat="46.72535" lon="-2.39667">
        <ele>2.7</ele>
        <time>2018-09-21T14:35:07.000Z</time>
      </trkpt>
      <trkpt lat="46.72535" lon="-2.39666">
        <ele>2.7</ele>
        <time>2018-09-21T14:35:08.000Z</time>
      </trkpt>
      <trkpt lat="46.72535" lon="-2.39665">
        <ele>2.7</ele>
        <time>2018-09-21T14:35:09.000Z</time>
      </trkpt>
      <trkpt lat="46.72535" lon="-2.39664">
        <ele>2.7</ele>
        <time>2018-09-21T14:35:10.000Z</time>
      </trkpt>
      <trkpt lat="46.72535" lon="-2.39663">
        <ele>2.7</ele>
        <time>2018-09-21T14:35:11.000Z</time>
      </trkpt>
      <trkpt lat="46.72535" lon="-2.39662">
        <ele>2.7</ele>
        <time>2018-09-21T14:35:12.000Z</time>
      </trkpt>
      <trkpt lat="46.72535" lon="-2.39661">
        <ele>2.7</ele>
        <time>2018-09-21T14:35:13.000Z</time>
      </trkpt>
      <trkpt lat="46.72535" lon="-2.39659">
        <ele>2.7</ele>
        <time>2018-09-21T14:35:14.000Z</time>
      </trkpt>
      <trkpt lat="46.72535" lon="-2.39658">
        <ele>2.7</ele>
        <time>2018-09-21T14:35:15.000Z</time>
      </trkpt>
      <trkpt lat="46.72535" lon="-2.39656">
        <ele>2.7</ele>
        <time>2018-09-21T14:35:16.000Z</time>
      </trkpt>
      <trkpt lat="46.72535" lon="-2.39655">
        <ele>2.7</ele>
        <time>2018-09-21T14:35:17.000Z</time>
      </trkpt>
      <trkpt lat="46.72535" lon="-2.39653">
        <ele>2.7</ele>
        <time>2018-09-21T14:35:18.000Z</time>
      </trkpt>
      <trkpt lat="46.72535" lon="-2.39652">
        <ele>2.7</ele>
        <time>2018-09-21T14:35:19.000Z</time>
      </trkpt>
      <trkpt lat="46.72535" lon="-2.39651">
        <ele>2.7</ele>
        <time>2018-09-21T14:35:20.000Z</time>
      </trkpt>
      <trkpt lat="46.72536" lon="-2.39649">
        <ele>2.7</ele>
        <time>2018-09-21T14:35:21.000Z</time>
      </trkpt>
      <trkpt lat="46.72536" lon="-2.39648">
        <ele>2.7</ele>
        <time>2018-09-21T14:35:22.000Z</time>
      </trkpt>
      <trkpt lat="46.72536" lon="-2.39647">
        <ele>2.7</ele>
        <time>2018-09-21T14:35:23.000Z</time>
      </trkpt>
      <trkpt lat="46.72536" lon="-2.39646">
        <ele>2.7</ele>
        <time>2018-09-21T14:35:24.000Z</time>
      </trkpt>
      <trkpt lat="46.72537" lon="-2.39645">
        <ele>2.7</ele>
        <time>2018-09-21T14:35:25.000Z</time>
      </trkpt>
      <trkpt lat="46.72537" lon="-2.39643">
        <ele>2.7</ele>
        <time>2018-09-21T14:35:26.000Z</time>
      </trkpt>
      <trkpt lat="46.72537" lon="-2.39642">
        <ele>2.7</ele>
        <time>2018-09-21T14:35:27.000Z</time>
      </trkpt>
      <trkpt lat="46.72538" lon="-2.39641">
        <ele>2.7</ele>
        <time>2018-09-21T14:35:28.000Z</time>
      </trkpt>
      <trkpt lat="46.72538" lon="-2.3964">
        <ele>2.6</ele>
        <time>2018-09-21T14:35:29.000Z</time>
      </trkpt>
      <trkpt lat="46.72538" lon="-2.39639">
        <ele>2.6</ele>
        <time>2018-09-21T14:35:30.000Z</time>
      </trkpt>
      <trkpt lat="46.72539" lon="-2.39638">
        <ele>2.6</ele>
        <time>2018-09-21T14:35:31.000Z</time>
      </trkpt>
      <trkpt lat="46.72539" lon="-2.39637">
        <ele>2.6</ele>
        <time>2018-09-21T14:35:32.000Z</time>
      </trkpt>
      <trkpt lat="46.72539" lon="-2.39635">
        <ele>2.6</ele>
        <time>2018-09-21T14:35:33.000Z</time>
      </trkpt>
      <trkpt lat="46.7254" lon="-2.39634">
        <ele>2.6</ele>
        <time>2018-09-21T14:35:34.000Z</time>
      </trkpt>
      <trkpt lat="46.7254" lon="-2.39633">
        <ele>2.6</ele>
        <time>2018-09-21T14:35:35.000Z</time>
      </trkpt>
      <trkpt lat="46.7254" lon="-2.39632">
        <ele>2.5</ele>
        <time>2018-09-21T14:35:36.000Z</time>
      </trkpt>
      <trkpt lat="46.72541" lon="-2.39631">
        <ele>2.5</ele>
        <time>2018-09-21T14:35:37.000Z</time>
      </trkpt>
      <trkpt lat="46.72541" lon="-2.39629">
        <ele>2.5</ele>
        <time>2018-09-21T14:35:38.000Z</time>
      </trkpt>
      <trkpt lat="46.72541" lon="-2.39628">
        <ele>2.5</ele>
        <time>2018-09-21T14:35:39.000Z</time>
      </trkpt>
      <trkpt lat="46.72542" lon="-2.39627">
        <ele>2.5</ele>
        <time>2018-09-21T14:35:40.000Z</time>
      </trkpt>
      <trkpt lat="46.72542" lon="-2.39626">
        <ele>2.5</ele>
        <time>2018-09-21T14:35:41.000Z</time>
      </trkpt>
      <trkpt lat="46.72543" lon="-2.39625">
        <ele>2.5</ele>
        <time>2018-09-21T14:35:42.000Z</time>
      </trkpt>
      <trkpt lat="46.72543" lon="-2.39624">
        <ele>2.4</ele>
        <time>2018-09-21T14:35:43.000Z</time>
      </trkpt>
      <trkpt lat="46.72544" lon="-2.39623">
        <ele>2.4</ele>
        <time>2018-09-21T14:35:44.000Z</time>
      </trkpt>
      <trkpt lat="46.72544" lon="-2.39621">
        <ele>2.4</ele>
        <time>2018-09-21T14:35:45.000Z</time>
      </trkpt>
      <trkpt lat="46.72545" lon="-2.3962">
        <ele>2.4</ele>
        <time>2018-09-21T14:35:46.000Z</time>
      </trkpt>
      <trkpt lat="46.72545" lon="-2.3962">
        <ele>2.4</ele>
        <time>2018-09-21T14:35:47.000Z</time>
      </trkpt>
      <trkpt lat="46.72546" lon="-2.39619">
        <ele>2.3</ele>
        <time>2018-09-21T14:35:48.000Z</time>
      </trkpt>
      <trkpt lat="46.72547" lon="-2.39618">
        <ele>2.3</ele>
        <time>2018-09-21T14:35:49.000Z</time>
      </trkpt>
      <trkpt lat="46.72547" lon="-2.39617">
        <ele>2.3</ele>
        <time>2018-09-21T14:35:50.000Z</time>
      </trkpt>
      <trkpt lat="46.72548" lon="-2.39616">
        <ele>2.3</ele>
        <time>2018-09-21T14:35:51.000Z</time>
      </trkpt>
      <trkpt lat="46.72549" lon="-2.39615">
        <ele>2.3</ele>
        <time>2018-09-21T14:35:52.000Z</time>
      </trkpt>
      <trkpt lat="46.72549" lon="-2.39615">
        <ele>2.2</ele>
        <time>2018-09-21T14:35:53.000Z</time>
      </trkpt>
      <trkpt lat="46.7255" lon="-2.39614">
        <ele>2.2</ele>
        <time>2018-09-21T14:35:54.000Z</time>
      </trkpt>
      <trkpt lat="46.72551" lon="-2.39614">
        <ele>2.2</ele>
        <time>2018-09-21T14:35:55.000Z</time>
      </trkpt>
      <trkpt lat="46.72551" lon="-2.39613">
        <ele>2.1</ele>
        <time>2018-09-21T14:35:56.000Z</time>
      </trkpt>
      <trkpt lat="46.72552" lon="-2.39613">
        <ele>2.1</ele>
        <time>2018-09-21T14:35:57.000Z</time>
      </trkpt>
      <trkpt lat="46.72553" lon="-2.39612">
        <ele>2.1</ele>
        <time>2018-09-21T14:35:58.000Z</time>
      </trkpt>
      <trkpt lat="46.72553" lon="-2.39612">
        <ele>2.1</ele>
        <time>2018-09-21T14:35:59.000Z</time>
      </trkpt>
      <trkpt lat="46.72554" lon="-2.39612">
        <ele>2.1</ele>
        <time>2018-09-21T14:36:00.000Z</time>
      </trkpt>
      <trkpt lat="46.72555" lon="-2.39611">
        <ele>2</ele>
        <time>2018-09-21T14:36:01.000Z</time>
      </trkpt>
      <trkpt lat="46.72555" lon="-2.39611">
        <ele>2</ele>
        <time>2018-09-21T14:36:02.000Z</time>
      </trkpt>
      <trkpt lat="46.72556" lon="-2.39611">
        <ele>2</ele>
        <time>2018-09-21T14:36:03.000Z</time>
      </trkpt>
      <trkpt lat="46.72556" lon="-2.39611">
        <ele>2</ele>
        <time>2018-09-21T14:36:04.000Z</time>
      </trkpt>
      <trkpt lat="46.72557" lon="-2.3961">
        <ele>2</ele>
        <time>2018-09-21T14:36:05.000Z</time>
      </trkpt>
      <trkpt lat="46.72557" lon="-2.3961">
        <ele>1.9</ele>
        <time>2018-09-21T14:36:06.000Z</time>
      </trkpt>
      <trkpt lat="46.72558" lon="-2.39609">
        <ele>1.9</ele>
        <time>2018-09-21T14:36:07.000Z</time>
      </trkpt>
      <trkpt lat="46.72558" lon="-2.39609">
        <ele>1.9</ele>
        <time>2018-09-21T14:36:08.000Z</time>
      </trkpt>
      <trkpt lat="46.72559" lon="-2.39608">
        <ele>1.9</ele>
        <time>2018-09-21T14:36:09.000Z</time>
      </trkpt>
      <trkpt lat="46.72559" lon="-2.39608">
        <ele>1.9</ele>
        <time>2018-09-21T14:36:10.000Z</time>
      </trkpt>
      <trkpt lat="46.7256" lon="-2.39607">
        <ele>1.8</ele>
        <time>2018-09-21T14:36:11.000Z</time>
      </trkpt>
      <trkpt lat="46.7256" lon="-2.39606">
        <ele>1.8</ele>
        <time>2018-09-21T14:36:12.000Z</time>
      </trkpt>
      <trkpt lat="46.72561" lon="-2.39605">
        <ele>1.8</ele>
        <time>2018-09-21T14:36:13.000Z</time>
      </trkpt>
      <trkpt lat="46.72561" lon="-2.39604">
        <ele>1.8</ele>
        <time>2018-09-21T14:36:14.000Z</time>
      </trkpt>
      <trkpt lat="46.72562" lon="-2.39603">
        <ele>1.8</ele>
        <time>2018-09-21T14:36:15.000Z</time>
      </trkpt>
      <trkpt lat="46.72562" lon="-2.39603">
        <ele>1.8</ele>
        <time>2018-09-21T14:36:16.000Z</time>
      </trkpt>
      <trkpt lat="46.72563" lon="-2.39602">
        <ele>1.7</ele>
        <time>2018-09-21T14:36:17.000Z</time>
      </trkpt>
      <trkpt lat="46.72563" lon="-2.39601">
        <ele>1.7</ele>
        <time>2018-09-21T14:36:18.000Z</time>
      </trkpt>
      <trkpt lat="46.72563" lon="-2.396">
        <ele>1.7</ele>
        <time>2018-09-21T14:36:19.000Z</time>
      </trkpt>
      <trkpt lat="46.72564" lon="-2.396">
        <ele>1.7</ele>
        <time>2018-09-21T14:36:20.000Z</time>
      </trkpt>
      <trkpt lat="46.72564" lon="-2.39599">
        <ele>1.7</ele>
        <time>2018-09-21T14:36:21.000Z</time>
      </trkpt>
      <trkpt lat="46.72565" lon="-2.39599">
        <ele>1.7</ele>
        <time>2018-09-21T14:36:22.000Z</time>
      </trkpt>
      <trkpt lat="46.72565" lon="-2.39598">
        <ele>1.7</ele>
        <time>2018-09-21T14:36:23.000Z</time>
      </trkpt>
      <trkpt lat="46.72566" lon="-2.39597">
        <ele>1.6</ele>
        <time>2018-09-21T14:36:24.000Z</time>
      </trkpt>
      <trkpt lat="46.72566" lon="-2.39597">
        <ele>1.6</ele>
        <time>2018-09-21T14:36:25.000Z</time>
      </trkpt>
      <trkpt lat="46.72566" lon="-2.39596">
        <ele>1.6</ele>
        <time>2018-09-21T14:36:26.000Z</time>
      </trkpt>
      <trkpt lat="46.72567" lon="-2.39595">
        <ele>1.6</ele>
        <time>2018-09-21T14:36:27.000Z</time>
      </trkpt>
      <trkpt lat="46.72567" lon="-2.39594">
        <ele>1.6</ele>
        <time>2018-09-21T14:36:28.000Z</time>
      </trkpt>
      <trkpt lat="46.72568" lon="-2.39593">
        <ele>1.6</ele>
        <time>2018-09-21T14:36:29.000Z</time>
      </trkpt>
      <trkpt lat="46.72568" lon="-2.39592">
        <ele>1.6</ele>
        <time>2018-09-21T14:36:30.000Z</time>
      </trkpt>
      <trkpt lat="46.72568" lon="-2.39591">
        <ele>1.5</ele>
        <time>2018-09-21T14:36:31.000Z</time>
      </trkpt>
      <trkpt lat="46.72569" lon="-2.3959">
        <ele>1.5</ele>
        <time>2018-09-21T14:36:32.000Z</time>
      </trkpt>
      <trkpt lat="46.72569" lon="-2.39589">
        <ele>1.5</ele>
        <time>2018-09-21T14:36:33.000Z</time>
      </trkpt>
      <trkpt lat="46.72569" lon="-2.39588">
        <ele>1.5</ele>
        <time>2018-09-21T14:36:34.000Z</time>
      </trkpt>
      <trkpt lat="46.72569" lon="-2.39587">
        <ele>1.5</ele>
        <time>2018-09-21T14:36:35.000Z</time>
      </trkpt>
      <trkpt lat="46.72569" lon="-2.39586">
        <ele>1.5</ele>
        <time>2018-09-21T14:36:36.000Z</time>
      </trkpt>
      <trkpt lat="46.7257" lon="-2.39585">
        <ele>1.5</ele>
        <time>2018-09-21T14:36:37.000Z</time>
      </trkpt>
      <trkpt lat="46.7257" lon="-2.39584">
        <ele>1.5</ele>
        <time>2018-09-21T14:36:38.000Z</time>
      </trkpt>
      <trkpt lat="46.7257" lon="-2.39583">
        <ele>1.5</ele>
        <time>2018-09-21T14:36:39.000Z</time>
      </trkpt>
      <trkpt lat="46.7257" lon="-2.39582">
        <ele>1.6</ele>
        <time>2018-09-21T14:36:40.000Z</time>
      </trkpt>
      <trkpt lat="46.7257" lon="-2.3958">
        <ele>1.6</ele>
        <time>2018-09-21T14:36:41.000Z</time>
      </trkpt>
      <trkpt lat="46.7257" lon="-2.39579">
        <ele>1.7</ele>
        <time>2018-09-21T14:36:42.000Z</time>
      </trkpt>
      <trkpt lat="46.7257" lon="-2.39578">
        <ele>1.7</ele>
        <time>2018-09-21T14:36:43.000Z</time>
      </trkpt>
      <trkpt lat="46.72569" lon="-2.39577">
        <ele>1.8</ele>
        <time>2018-09-21T14:36:44.000Z</time>
      </trkpt>
      <trkpt lat="46.72569" lon="-2.39576">
        <ele>1.8</ele>
        <time>2018-09-21T14:36:45.000Z</time>
      </trkpt>
      <trkpt lat="46.72569" lon="-2.39575">
        <ele>1.9</ele>
        <time>2018-09-21T14:36:46.000Z</time>
      </trkpt>
      <trkpt lat="46.72569" lon="-2.39574">
        <ele>1.9</ele>
        <time>2018-09-21T14:36:47.000Z</time>
      </trkpt>
      <trkpt lat="46.72568" lon="-2.39573">
        <ele>2</ele>
        <time>2018-09-21T14:36:48.000Z</time>
      </trkpt>
      <trkpt lat="46.72568" lon="-2.39572">
        <ele>2.1</ele>
        <time>2018-09-21T14:36:49.000Z</time>
      </trkpt>
      <trkpt lat="46.72568" lon="-2.39571">
        <ele>2.1</ele>
        <time>2018-09-21T14:36:50.000Z</time>
      </trkpt>
      <trkpt lat="46.72568" lon="-2.3957">
        <ele>2.2</ele>
        <time>2018-09-21T14:36:51.000Z</time>
      </trkpt>
      <trkpt lat="46.72567" lon="-2.39568">
        <ele>2.2</ele>
        <time>2018-09-21T14:36:52.000Z</time>
      </trkpt>
      <trkpt lat="46.72567" lon="-2.39567">
        <ele>2.3</ele>
        <time>2018-09-21T14:36:53.000Z</time>
      </trkpt>
      <trkpt lat="46.72567" lon="-2.39566">
        <ele>2.3</ele>
        <time>2018-09-21T14:36:54.000Z</time>
      </trkpt>
      <trkpt lat="46.72567" lon="-2.39565">
        <ele>2.4</ele>
        <time>2018-09-21T14:36:55.000Z</time>
      </trkpt>
      <trkpt lat="46.72567" lon="-2.39564">
        <ele>2.4</ele>
        <time>2018-09-21T14:36:56.000Z</time>
      </trkpt>
      <trkpt lat="46.72568" lon="-2.39563">
        <ele>2.5</ele>
        <time>2018-09-21T14:36:57.000Z</time>
      </trkpt>
      <trkpt lat="46.72568" lon="-2.39562">
        <ele>2.5</ele>
        <time>2018-09-21T14:36:58.000Z</time>
      </trkpt>
      <trkpt lat="46.72568" lon="-2.39561">
        <ele>2.5</ele>
        <time>2018-09-21T14:36:59.000Z</time>
      </trkpt>
      <trkpt lat="46.72569" lon="-2.3956">
        <ele>2.6</ele>
        <time>2018-09-21T14:37:00.000Z</time>
      </trkpt>
      <trkpt lat="46.7257" lon="-2.39559">
        <ele>2.6</ele>
        <time>2018-09-21T14:37:01.000Z</time>
      </trkpt>
      <trkpt lat="46.7257" lon="-2.39558">
        <ele>2.6</ele>
        <time>2018-09-21T14:37:02.000Z</time>
      </trkpt>
      <trkpt lat="46.72571" lon="-2.39557">
        <ele>2.6</ele>
        <time>2018-09-21T14:37:03.000Z</time>
      </trkpt>
      <trkpt lat="46.72572" lon="-2.39556">
        <ele>2.7</ele>
        <time>2018-09-21T14:37:04.000Z</time>
      </trkpt>
      <trkpt lat="46.72572" lon="-2.39555">
        <ele>2.7</ele>
        <time>2018-09-21T14:37:05.000Z</time>
      </trkpt>
      <trkpt lat="46.72573" lon="-2.39554">
        <ele>2.7</ele>
        <time>2018-09-21T14:37:06.000Z</time>
      </trkpt>
      <trkpt lat="46.72574" lon="-2.39553">
        <ele>2.7</ele>
        <time>2018-09-21T14:37:07.000Z</time>
      </trkpt>
      <trkpt lat="46.72574" lon="-2.39553">
        <ele>2.7</ele>
        <time>2018-09-21T14:37:08.000Z</time>
      </trkpt>
      <trkpt lat="46.72575" lon="-2.39552">
        <ele>2.7</ele>
        <time>2018-09-21T14:37:09.000Z</time>
      </trkpt>
      <trkpt lat="46.72576" lon="-2.39551">
        <ele>2.8</ele>
        <time>2018-09-21T14:37:10.000Z</time>
      </trkpt>
      <trkpt lat="46.72576" lon="-2.3955">
        <ele>2.8</ele>
        <time>2018-09-21T14:37:11.000Z</time>
      </trkpt>
      <trkpt lat="46.72577" lon="-2.3955">
        <ele>2.8</ele>
        <time>2018-09-21T14:37:12.000Z</time>
      </trkpt>
      <trkpt lat="46.72577" lon="-2.39549">
        <ele>2.8</ele>
        <time>2018-09-21T14:37:13.000Z</time>
      </trkpt>
      <trkpt lat="46.72578" lon="-2.39548">
        <ele>2.8</ele>
        <time>2018-09-21T14:37:14.000Z</time>
      </trkpt>
      <trkpt lat="46.72578" lon="-2.39547">
        <ele>2.9</ele>
        <time>2018-09-21T14:37:15.000Z</time>
      </trkpt>
      <trkpt lat="46.72578" lon="-2.39547">
        <ele>2.9</ele>
        <time>2018-09-21T14:37:16.000Z</time>
      </trkpt>
      <trkpt lat="46.72578" lon="-2.39546">
        <ele>2.9</ele>
        <time>2018-09-21T14:37:17.000Z</time>
      </trkpt>
      <trkpt lat="46.72578" lon="-2.39545">
        <ele>3</ele>
        <time>2018-09-21T14:37:18.000Z</time>
      </trkpt>
      <trkpt lat="46.72579" lon="-2.39544">
        <ele>3</ele>
        <time>2018-09-21T14:37:19.000Z</time>
      </trkpt>
      <trkpt lat="46.72579" lon="-2.39543">
        <ele>3</ele>
        <time>2018-09-21T14:37:20.000Z</time>
      </trkpt>
      <trkpt lat="46.72579" lon="-2.39542">
        <ele>3.1</ele>
        <time>2018-09-21T14:37:21.000Z</time>
      </trkpt>
      <trkpt lat="46.72579" lon="-2.39541">
        <ele>3.1</ele>
        <time>2018-09-21T14:37:22.000Z</time>
      </trkpt>
      <trkpt lat="46.72579" lon="-2.3954">
        <ele>3.2</ele>
        <time>2018-09-21T14:37:23.000Z</time>
      </trkpt>
      <trkpt lat="46.72579" lon="-2.3954">
        <ele>3.2</ele>
        <time>2018-09-21T14:37:24.000Z</time>
      </trkpt>
      <trkpt lat="46.7258" lon="-2.39539">
        <ele>3.2</ele>
        <time>2018-09-21T14:37:25.000Z</time>
      </trkpt>
      <trkpt lat="46.7258" lon="-2.39538">
        <ele>3.3</ele>
        <time>2018-09-21T14:37:26.000Z</time>
      </trkpt>
      <trkpt lat="46.7258" lon="-2.39537">
        <ele>3.3</ele>
        <time>2018-09-21T14:37:27.000Z</time>
      </trkpt>
      <trkpt lat="46.72581" lon="-2.39536">
        <ele>3.4</ele>
        <time>2018-09-21T14:37:28.000Z</time>
      </trkpt>
      <trkpt lat="46.72581" lon="-2.39535">
        <ele>3.4</ele>
        <time>2018-09-21T14:37:29.000Z</time>
      </trkpt>
      <trkpt lat="46.72581" lon="-2.39534">
        <ele>3.4</ele>
        <time>2018-09-21T14:37:30.000Z</time>
      </trkpt>
      <trkpt lat="46.72582" lon="-2.39533">
        <ele>3.5</ele>
        <time>2018-09-21T14:37:31.000Z</time>
      </trkpt>
      <trkpt lat="46.72582" lon="-2.39531">
        <ele>3.5</ele>
        <time>2018-09-21T14:37:32.000Z</time>
      </trkpt>
      <trkpt lat="46.72583" lon="-2.3953">
        <ele>3.5</ele>
        <time>2018-09-21T14:37:33.000Z</time>
      </trkpt>
      <trkpt lat="46.72583" lon="-2.39529">
        <ele>3.6</ele>
        <time>2018-09-21T14:37:34.000Z</time>
      </trkpt>
      <trkpt lat="46.72584" lon="-2.39528">
        <ele>3.6</ele>
        <time>2018-09-21T14:37:35.000Z</time>
      </trkpt>
      <trkpt lat="46.72585" lon="-2.39528">
        <ele>3.6</ele>
        <time>2018-09-21T14:37:36.000Z</time>
      </trkpt>
      <trkpt lat="46.72585" lon="-2.39527">
        <ele>3.6</ele>
        <time>2018-09-21T14:37:37.000Z</time>
      </trkpt>
      <trkpt lat="46.72586" lon="-2.39526">
        <ele>3.7</ele>
        <time>2018-09-21T14:37:38.000Z</time>
      </trkpt>
      <trkpt lat="46.72586" lon="-2.39525">
        <ele>3.7</ele>
        <time>2018-09-21T14:37:39.000Z</time>
      </trkpt>
      <trkpt lat="46.72587" lon="-2.39524">
        <ele>3.7</ele>
        <time>2018-09-21T14:37:40.000Z</time>
      </trkpt>
      <trkpt lat="46.72588" lon="-2.39523">
        <ele>3.7</ele>
        <time>2018-09-21T14:37:41.000Z</time>
      </trkpt>
      <trkpt lat="46.72588" lon="-2.39522">
        <ele>3.7</ele>
        <time>2018-09-21T14:37:42.000Z</time>
      </trkpt>
      <trkpt lat="46.72589" lon="-2.39521">
        <ele>3.7</ele>
        <time>2018-09-21T14:37:43.000Z</time>
      </trkpt>
      <trkpt lat="46.7259" lon="-2.3952">
        <ele>3.7</ele>
        <time>2018-09-21T14:37:44.000Z</time>
      </trkpt>
      <trkpt lat="46.7259" lon="-2.39519">
        <ele>3.7</ele>
        <time>2018-09-21T14:37:45.000Z</time>
      </trkpt>
      <trkpt lat="46.72591" lon="-2.39518">
        <ele>3.8</ele>
        <time>2018-09-21T14:37:46.000Z</time>
      </trkpt>
      <trkpt lat="46.72591" lon="-2.39517">
        <ele>3.8</ele>
        <time>2018-09-21T14:37:47.000Z</time>
      </trkpt>
      <trkpt lat="46.72592" lon="-2.39516">
        <ele>3.8</ele>
        <time>2018-09-21T14:37:48.000Z</time>
      </trkpt>
      <trkpt lat="46.72592" lon="-2.39516">
        <ele>3.8</ele>
        <time>2018-09-21T14:37:49.000Z</time>
      </trkpt>
      <trkpt lat="46.72593" lon="-2.39515">
        <ele>3.8</ele>
        <time>2018-09-21T14:37:50.000Z</time>
      </trkpt>
      <trkpt lat="46.72593" lon="-2.39514">
        <ele>3.8</ele>
        <time>2018-09-21T14:37:51.000Z</time>
      </trkpt>
      <trkpt lat="46.72593" lon="-2.39514">
        <ele>3.8</ele>
        <time>2018-09-21T14:37:52.000Z</time>
      </trkpt>
      <trkpt lat="46.72593" lon="-2.39514">
        <ele>3.8</ele>
        <time>2018-09-21T14:37:53.000Z</time>
      </trkpt>
      <trkpt lat="46.72592" lon="-2.39514">
        <ele>3.9</ele>
        <time>2018-09-21T14:37:54.000Z</time>
      </trkpt>
      <trkpt lat="46.72592" lon="-2.39513">
        <ele>3.9</ele>
        <time>2018-09-21T14:37:55.000Z</time>
      </trkpt>
      <trkpt lat="46.72592" lon="-2.39513">
        <ele>3.9</ele>
        <time>2018-09-21T14:37:56.000Z</time>
      </trkpt>
      <trkpt lat="46.72592" lon="-2.39512">
        <ele>4</ele>
        <time>2018-09-21T14:37:57.000Z</time>
      </trkpt>
      <trkpt lat="46.72592" lon="-2.39511">
        <ele>4</ele>
        <time>2018-09-21T14:37:58.000Z</time>
      </trkpt>
      <trkpt lat="46.72592" lon="-2.3951">
        <ele>4.1</ele>
        <time>2018-09-21T14:37:59.000Z</time>
      </trkpt>
      <trkpt lat="46.72592" lon="-2.3951">
        <ele>4.1</ele>
        <time>2018-09-21T14:38:00.000Z</time>
      </trkpt>
      <trkpt lat="46.72592" lon="-2.3951">
        <ele>4.1</ele>
        <time>2018-09-21T14:38:01.000Z</time>
      </trkpt>
      <trkpt lat="46.72592" lon="-2.3951">
        <ele>4.1</ele>
        <time>2018-09-21T14:38:02.000Z</time>
      </trkpt>
      <trkpt lat="46.72592" lon="-2.39509">
        <ele>4.1</ele>
        <time>2018-09-21T14:38:03.000Z</time>
      </trkpt>
      <trkpt lat="46.72592" lon="-2.39509">
        <ele>4.1</ele>
        <time>2018-09-21T14:38:04.000Z</time>
      </trkpt>
      <trkpt lat="46.72592" lon="-2.39509">
        <ele>4.1</ele>
        <time>2018-09-21T14:38:05.000Z</time>
      </trkpt>
      <trkpt lat="46.72592" lon="-2.39508">
        <ele>4.1</ele>
        <time>2018-09-21T14:38:06.000Z</time>
      </trkpt>
      <trkpt lat="46.72593" lon="-2.39507">
        <ele>4.1</ele>
        <time>2018-09-21T14:38:07.000Z</time>
      </trkpt>
      <trkpt lat="46.72593" lon="-2.39506">
        <ele>4.1</ele>
        <time>2018-09-21T14:38:08.000Z</time>
      </trkpt>
      <trkpt lat="46.72594" lon="-2.39505">
        <ele>4.1</ele>
        <time>2018-09-21T14:38:09.000Z</time>
      </trkpt>
      <trkpt lat="46.72595" lon="-2.39504">
        <ele>4.2</ele>
        <time>2018-09-21T14:38:10.000Z</time>
      </trkpt>
      <trkpt lat="46.72595" lon="-2.39503">
        <ele>4.2</ele>
        <time>2018-09-21T14:38:11.000Z</time>
      </trkpt>
      <trkpt lat="46.72596" lon="-2.39501">
        <ele>4.2</ele>
        <time>2018-09-21T14:38:12.000Z</time>
      </trkpt>
      <trkpt lat="46.72596" lon="-2.395">
        <ele>4.2</ele>
        <time>2018-09-21T14:38:13.000Z</time>
      </trkpt>
      <trkpt lat="46.72597" lon="-2.39499">
        <ele>4.2</ele>
        <time>2018-09-21T14:38:14.000Z</time>
      </trkpt>
      <trkpt lat="46.72597" lon="-2.39498">
        <ele>4.2</ele>
        <time>2018-09-21T14:38:15.000Z</time>
      </trkpt>
      <trkpt lat="46.72597" lon="-2.39497">
        <ele>4.2</ele>
        <time>2018-09-21T14:38:16.000Z</time>
      </trkpt>
      <trkpt lat="46.72598" lon="-2.39496">
        <ele>4.2</ele>
        <time>2018-09-21T14:38:17.000Z</time>
      </trkpt>
      <trkpt lat="46.72598" lon="-2.39495">
        <ele>4.2</ele>
        <time>2018-09-21T14:38:18.000Z</time>
      </trkpt>
      <trkpt lat="46.72599" lon="-2.39493">
        <ele>4.2</ele>
        <time>2018-09-21T14:38:19.000Z</time>
      </trkpt>
      <trkpt lat="46.72599" lon="-2.39492">
        <ele>4.2</ele>
        <time>2018-09-21T14:38:20.000Z</time>
      </trkpt>
      <trkpt lat="46.72599" lon="-2.39491">
        <ele>4.1</ele>
        <time>2018-09-21T14:38:21.000Z</time>
      </trkpt>
      <trkpt lat="46.726" lon="-2.3949">
        <ele>4.1</ele>
        <time>2018-09-21T14:38:22.000Z</time>
      </trkpt>
      <trkpt lat="46.726" lon="-2.39489">
        <ele>4.1</ele>
        <time>2018-09-21T14:38:23.000Z</time>
      </trkpt>
      <trkpt lat="46.72601" lon="-2.39488">
        <ele>4.1</ele>
        <time>2018-09-21T14:38:24.000Z</time>
      </trkpt>
      <trkpt lat="46.72601" lon="-2.39487">
        <ele>4.1</ele>
        <time>2018-09-21T14:38:25.000Z</time>
      </trkpt>
      <trkpt lat="46.72602" lon="-2.39485">
        <ele>4.1</ele>
        <time>2018-09-21T14:38:26.000Z</time>
      </trkpt>
      <trkpt lat="46.72602" lon="-2.39484">
        <ele>4</ele>
        <time>2018-09-21T14:38:27.000Z</time>
      </trkpt>
      <trkpt lat="46.72603" lon="-2.39483">
        <ele>4</ele>
        <time>2018-09-21T14:38:28.000Z</time>
      </trkpt>
      <trkpt lat="46.72603" lon="-2.39482">
        <ele>4</ele>
        <time>2018-09-21T14:38:29.000Z</time>
      </trkpt>
      <trkpt lat="46.72604" lon="-2.39481">
        <ele>4</ele>
        <time>2018-09-21T14:38:30.000Z</time>
      </trkpt>
      <trkpt lat="46.72605" lon="-2.3948">
        <ele>4</ele>
        <time>2018-09-21T14:38:31.000Z</time>
      </trkpt>
      <trkpt lat="46.72605" lon="-2.39479">
        <ele>4</ele>
        <time>2018-09-21T14:38:32.000Z</time>
      </trkpt>
      <trkpt lat="46.72606" lon="-2.39478">
        <ele>3.9</ele>
        <time>2018-09-21T14:38:33.000Z</time>
      </trkpt>
      <trkpt lat="46.72606" lon="-2.39476">
        <ele>3.9</ele>
        <time>2018-09-21T14:38:34.000Z</time>
      </trkpt>
      <trkpt lat="46.72607" lon="-2.39475">
        <ele>3.9</ele>
        <time>2018-09-21T14:38:35.000Z</time>
      </trkpt>
      <trkpt lat="46.72607" lon="-2.39474">
        <ele>3.9</ele>
        <time>2018-09-21T14:38:36.000Z</time>
      </trkpt>
      <trkpt lat="46.72607" lon="-2.39473">
        <ele>3.9</ele>
        <time>2018-09-21T14:38:37.000Z</time>
      </trkpt>
      <trkpt lat="46.72608" lon="-2.39472">
        <ele>3.9</ele>
        <time>2018-09-21T14:38:38.000Z</time>
      </trkpt>
      <trkpt lat="46.72608" lon="-2.39471">
        <ele>3.9</ele>
        <time>2018-09-21T14:38:39.000Z</time>
      </trkpt>
      <trkpt lat="46.72609" lon="-2.3947">
        <ele>3.8</ele>
        <time>2018-09-21T14:38:40.000Z</time>
      </trkpt>
      <trkpt lat="46.72609" lon="-2.39469">
        <ele>3.8</ele>
        <time>2018-09-21T14:38:41.000Z</time>
      </trkpt>
      <trkpt lat="46.7261" lon="-2.39467">
        <ele>3.8</ele>
        <time>2018-09-21T14:38:42.000Z</time>
      </trkpt>
      <trkpt lat="46.7261" lon="-2.39466">
        <ele>3.8</ele>
        <time>2018-09-21T14:38:43.000Z</time>
      </trkpt>
      <trkpt lat="46.7261" lon="-2.39465">
        <ele>3.8</ele>
        <time>2018-09-21T14:38:44.000Z</time>
      </trkpt>
      <trkpt lat="46.72611" lon="-2.39464">
        <ele>3.8</ele>
        <time>2018-09-21T14:38:45.000Z</time>
      </trkpt>
      <trkpt lat="46.72611" lon="-2.39463">
        <ele>3.8</ele>
        <time>2018-09-21T14:38:46.000Z</time>
      </trkpt>
      <trkpt lat="46.72611" lon="-2.39462">
        <ele>3.8</ele>
        <time>2018-09-21T14:38:47.000Z</time>
      </trkpt>
      <trkpt lat="46.72612" lon="-2.3946">
        <ele>3.8</ele>
        <time>2018-09-21T14:38:48.000Z</time>
      </trkpt>
      <trkpt lat="46.72612" lon="-2.39459">
        <ele>3.8</ele>
        <time>2018-09-21T14:38:49.000Z</time>
      </trkpt>
      <trkpt lat="46.72612" lon="-2.39458">
        <ele>3.8</ele>
        <time>2018-09-21T14:38:50.000Z</time>
      </trkpt>
      <trkpt lat="46.72612" lon="-2.39457">
        <ele>3.8</ele>
        <time>2018-09-21T14:38:51.000Z</time>
      </trkpt>
      <trkpt lat="46.72613" lon="-2.39456">
        <ele>3.8</ele>
        <time>2018-09-21T14:38:52.000Z</time>
      </trkpt>
      <trkpt lat="46.72613" lon="-2.39454">
        <ele>3.8</ele>
        <time>2018-09-21T14:38:53.000Z</time>
      </trkpt>
      <trkpt lat="46.72613" lon="-2.39453">
        <ele>3.8</ele>
        <time>2018-09-21T14:38:54.000Z</time>
      </trkpt>
      <trkpt lat="46.72613" lon="-2.39452">
        <ele>3.8</ele>
        <time>2018-09-21T14:38:55.000Z</time>
      </trkpt>
      <trkpt lat="46.72613" lon="-2.39451">
        <ele>3.8</ele>
        <time>2018-09-21T14:38:56.000Z</time>
      </trkpt>
      <trkpt lat="46.72614" lon="-2.39449">
        <ele>3.8</ele>
        <time>2018-09-21T14:38:57.000Z</time>
      </trkpt>
      <trkpt lat="46.72614" lon="-2.39448">
        <ele>3.8</ele>
        <time>2018-09-21T14:38:58.000Z</time>
      </trkpt>
      <trkpt lat="46.72614" lon="-2.39447">
        <ele>3.8</ele>
        <time>2018-09-21T14:38:59.000Z</time>
      </trkpt>
      <trkpt lat="46.72614" lon="-2.39446">
        <ele>3.8</ele>
        <time>2018-09-21T14:39:00.000Z</time>
      </trkpt>
      <trkpt lat="46.72614" lon="-2.39445">
        <ele>3.8</ele>
        <time>2018-09-21T14:39:01.000Z</time>
      </trkpt>
      <trkpt lat="46.72614" lon="-2.39443">
        <ele>3.8</ele>
        <time>2018-09-21T14:39:02.000Z</time>
      </trkpt>
      <trkpt lat="46.72615" lon="-2.39442">
        <ele>3.8</ele>
        <time>2018-09-21T14:39:03.000Z</time>
      </trkpt>
      <trkpt lat="46.72615" lon="-2.39441">
        <ele>3.8</ele>
        <time>2018-09-21T14:39:04.000Z</time>
      </trkpt>
      <trkpt lat="46.72615" lon="-2.3944">
        <ele>3.8</ele>
        <time>2018-09-21T14:39:05.000Z</time>
      </trkpt>
      <trkpt lat="46.72615" lon="-2.39438">
        <ele>3.9</ele>
        <time>2018-09-21T14:39:06.000Z</time>
      </trkpt>
      <trkpt lat="46.72615" lon="-2.39437">
        <ele>3.9</ele>
        <time>2018-09-21T14:39:07.000Z</time>
      </trkpt>
      <trkpt lat="46.72615" lon="-2.39436">
        <ele>3.9</ele>
        <time>2018-09-21T14:39:08.000Z</time>
      </trkpt>
      <trkpt lat="46.72615" lon="-2.39434">
        <ele>3.9</ele>
        <time>2018-09-21T14:39:09.000Z</time>
      </trkpt>
      <trkpt lat="46.72615" lon="-2.39433">
        <ele>3.9</ele>
        <time>2018-09-21T14:39:10.000Z</time>
      </trkpt>
      <trkpt lat="46.72615" lon="-2.39432">
        <ele>3.9</ele>
        <time>2018-09-21T14:39:11.000Z</time>
      </trkpt>
      <trkpt lat="46.72615" lon="-2.39431">
        <ele>3.9</ele>
        <time>2018-09-21T14:39:12.000Z</time>
      </trkpt>
      <trkpt lat="46.72616" lon="-2.39429">
        <ele>3.9</ele>
        <time>2018-09-21T14:39:13.000Z</time>
      </trkpt>
      <trkpt lat="46.72616" lon="-2.39428">
        <ele>3.9</ele>
        <time>2018-09-21T14:39:14.000Z</time>
      </trkpt>
      <trkpt lat="46.72616" lon="-2.39426">
        <ele>3.9</ele>
        <time>2018-09-21T14:39:15.000Z</time>
      </trkpt>
      <trkpt lat="46.72616" lon="-2.39425">
        <ele>3.9</ele>
        <time>2018-09-21T14:39:16.000Z</time>
      </trkpt>
      <trkpt lat="46.72616" lon="-2.39424">
        <ele>4</ele>
        <time>2018-09-21T14:39:17.000Z</time>
      </trkpt>
      <trkpt lat="46.72616" lon="-2.39422">
        <ele>4</ele>
        <time>2018-09-21T14:39:18.000Z</time>
      </trkpt>
      <trkpt lat="46.72616" lon="-2.39421">
        <ele>4</ele>
        <time>2018-09-21T14:39:19.000Z</time>
      </trkpt>
      <trkpt lat="46.72617" lon="-2.39419">
        <ele>4</ele>
        <time>2018-09-21T14:39:20.000Z</time>
      </trkpt>
      <trkpt lat="46.72617" lon="-2.39418">
        <ele>4</ele>
        <time>2018-09-21T14:39:21.000Z</time>
      </trkpt>
      <trkpt lat="46.72617" lon="-2.39417">
        <ele>4</ele>
        <time>2018-09-21T14:39:22.000Z</time>
      </trkpt>
      <trkpt lat="46.72617" lon="-2.39415">
        <ele>4</ele>
        <time>2018-09-21T14:39:23.000Z</time>
      </trkpt>
      <trkpt lat="46.72617" lon="-2.39414">
        <ele>4</ele>
        <time>2018-09-21T14:39:24.000Z</time>
      </trkpt>
      <trkpt lat="46.72617" lon="-2.39412">
        <ele>4</ele>
        <time>2018-09-21T14:39:25.000Z</time>
      </trkpt>
      <trkpt lat="46.72617" lon="-2.39411">
        <ele>4</ele>
        <time>2018-09-21T14:39:26.000Z</time>
      </trkpt>
      <trkpt lat="46.72618" lon="-2.3941">
        <ele>4</ele>
        <time>2018-09-21T14:39:27.000Z</time>
      </trkpt>
      <trkpt lat="46.72618" lon="-2.39408">
        <ele>4</ele>
        <time>2018-09-21T14:39:28.000Z</time>
      </trkpt>
      <trkpt lat="46.72618" lon="-2.39407">
        <ele>4</ele>
        <time>2018-09-21T14:39:29.000Z</time>
      </trkpt>
      <trkpt lat="46.72618" lon="-2.39406">
        <ele>4</ele>
        <time>2018-09-21T14:39:30.000Z</time>
      </trkpt>
      <trkpt lat="46.72618" lon="-2.39405">
        <ele>4</ele>
        <time>2018-09-21T14:39:31.000Z</time>
      </trkpt>
      <trkpt lat="46.72618" lon="-2.39403">
        <ele>4.1</ele>
        <time>2018-09-21T14:39:32.000Z</time>
      </trkpt>
      <trkpt lat="46.72619" lon="-2.39402">
        <ele>4.1</ele>
        <time>2018-09-21T14:39:33.000Z</time>
      </trkpt>
      <trkpt lat="46.72619" lon="-2.39401">
        <ele>4.1</ele>
        <time>2018-09-21T14:39:34.000Z</time>
      </trkpt>
      <trkpt lat="46.72619" lon="-2.394">
        <ele>4.1</ele>
        <time>2018-09-21T14:39:35.000Z</time>
      </trkpt>
      <trkpt lat="46.72619" lon="-2.394">
        <ele>4.1</ele>
        <time>2018-09-21T14:39:36.000Z</time>
      </trkpt>
      <trkpt lat="46.72619" lon="-2.39399">
        <ele>4.1</ele>
        <time>2018-09-21T14:39:37.000Z</time>
      </trkpt>
      <trkpt lat="46.72619" lon="-2.39398">
        <ele>4.1</ele>
        <time>2018-09-21T14:39:38.000Z</time>
      </trkpt>
      <trkpt lat="46.72619" lon="-2.39397">
        <ele>4.1</ele>
        <time>2018-09-21T14:39:39.000Z</time>
      </trkpt>
      <trkpt lat="46.72619" lon="-2.39397">
        <ele>4.1</ele>
        <time>2018-09-21T14:39:40.000Z</time>
      </trkpt>
      <trkpt lat="46.72619" lon="-2.39396">
        <ele>4.1</ele>
        <time>2018-09-21T14:39:41.000Z</time>
      </trkpt>
      <trkpt lat="46.7262" lon="-2.39396">
        <ele>4.1</ele>
        <time>2018-09-21T14:39:42.000Z</time>
      </trkpt>
      <trkpt lat="46.7262" lon="-2.39396">
        <ele>4.1</ele>
        <time>2018-09-21T14:39:43.000Z</time>
      </trkpt>
      <trkpt lat="46.7262" lon="-2.39395">
        <ele>4.1</ele>
        <time>2018-09-21T14:39:44.000Z</time>
      </trkpt>
      <trkpt lat="46.7262" lon="-2.39395">
        <ele>4.1</ele>
        <time>2018-09-21T14:39:45.000Z</time>
      </trkpt>
      <trkpt lat="46.7262" lon="-2.39395">
        <ele>4.1</ele>
        <time>2018-09-21T14:39:46.000Z</time>
      </trkpt>
      <trkpt lat="46.7262" lon="-2.39395">
        <ele>4.1</ele>
        <time>2018-09-21T14:39:47.000Z</time>
      </trkpt>
      <trkpt lat="46.7262" lon="-2.39395">
        <ele>4.1</ele>
        <time>2018-09-21T14:39:48.000Z</time>
      </trkpt>
      <trkpt lat="46.7262" lon="-2.39395">
        <ele>4.1</ele>
        <time>2018-09-21T14:39:49.000Z</time>
      </trkpt>
      <trkpt lat="46.7262" lon="-2.39395">
        <ele>4.1</ele>
        <time>2018-09-21T14:39:50.000Z</time>
      </trkpt>
      <trkpt lat="46.7262" lon="-2.39395">
        <ele>4.1</ele>
        <time>2018-09-21T14:39:51.000Z</time>
      </trkpt>
      <trkpt lat="46.7262" lon="-2.39395">
        <ele>4.1</ele>
        <time>2018-09-21T14:39:52.000Z</time>
      </trkpt>
      <trkpt lat="46.7262" lon="-2.39395">
        <ele>4.1</ele>
        <time>2018-09-21T14:39:53.000Z</time>
      </trkpt>
      <trkpt lat="46.7262" lon="-2.39395">
        <ele>4.1</ele>
        <time>2018-09-21T14:39:54.000Z</time>
      </trkpt>
      <trkpt lat="46.7262" lon="-2.39395">
        <ele>4.1</ele>
        <time>2018-09-21T14:39:55.000Z</time>
      </trkpt>
      <trkpt lat="46.7262" lon="-2.39395">
        <ele>4.1</ele>
        <time>2018-09-21T14:39:56.000Z</time>
      </trkpt>
      <trkpt lat="46.7262" lon="-2.39395">
        <ele>4.1</ele>
        <time>2018-09-21T14:39:57.000Z</time>
      </trkpt>
      <trkpt lat="46.7262" lon="-2.39395">
        <ele>4.1</ele>
        <time>2018-09-21T14:39:58.000Z</time>
      </trkpt>
      <trkpt lat="46.7262" lon="-2.39394">
        <ele>4.1</ele>
        <time>2018-09-21T14:39:59.000Z</time>
      </trkpt>
      <trkpt lat="46.7262" lon="-2.39394">
        <ele>4.1</ele>
        <time>2018-09-21T14:40:00.000Z</time>
      </trkpt>
      <trkpt lat="46.7262" lon="-2.39393">
        <ele>4.1</ele>
        <time>2018-09-21T14:40:01.000Z</time>
      </trkpt>
      <trkpt lat="46.7262" lon="-2.39393">
        <ele>4.1</ele>
        <time>2018-09-21T14:40:02.000Z</time>
      </trkpt>
      <trkpt lat="46.72621" lon="-2.39392">
        <ele>4.1</ele>
        <time>2018-09-21T14:40:03.000Z</time>
      </trkpt>
      <trkpt lat="46.72621" lon="-2.39391">
        <ele>4.1</ele>
        <time>2018-09-21T14:40:04.000Z</time>
      </trkpt>
      <trkpt lat="46.72621" lon="-2.3939">
        <ele>4.1</ele>
        <time>2018-09-21T14:40:05.000Z</time>
      </trkpt>
      <trkpt lat="46.72622" lon="-2.39389">
        <ele>4</ele>
        <time>2018-09-21T14:40:06.000Z</time>
      </trkpt>
      <trkpt lat="46.72622" lon="-2.39388">
        <ele>4</ele>
        <time>2018-09-21T14:40:07.000Z</time>
      </trkpt>
      <trkpt lat="46.72623" lon="-2.39387">
        <ele>4</ele>
        <time>2018-09-21T14:40:08.000Z</time>
      </trkpt>
      <trkpt lat="46.72623" lon="-2.39385">
        <ele>4</ele>
        <time>2018-09-21T14:40:09.000Z</time>
      </trkpt>
      <trkpt lat="46.72624" lon="-2.39384">
        <ele>4</ele>
        <time>2018-09-21T14:40:10.000Z</time>
      </trkpt>
      <trkpt lat="46.72624" lon="-2.39382">
        <ele>4</ele>
        <time>2018-09-21T14:40:11.000Z</time>
      </trkpt>
      <trkpt lat="46.72625" lon="-2.39381">
        <ele>4</ele>
        <time>2018-09-21T14:40:12.000Z</time>
      </trkpt>
      <trkpt lat="46.72625" lon="-2.39379">
        <ele>3.9</ele>
        <time>2018-09-21T14:40:13.000Z</time>
      </trkpt>
      <trkpt lat="46.72626" lon="-2.39378">
        <ele>3.9</ele>
        <time>2018-09-21T14:40:14.000Z</time>
      </trkpt>
      <trkpt lat="46.72626" lon="-2.39376">
        <ele>3.9</ele>
        <time>2018-09-21T14:40:15.000Z</time>
      </trkpt>
      <trkpt lat="46.72627" lon="-2.39375">
        <ele>3.9</ele>
        <time>2018-09-21T14:40:16.000Z</time>
      </trkpt>
      <trkpt lat="46.72627" lon="-2.39373">
        <ele>3.9</ele>
        <time>2018-09-21T14:40:17.000Z</time>
      </trkpt>
      <trkpt lat="46.72627" lon="-2.39372">
        <ele>3.9</ele>
        <time>2018-09-21T14:40:18.000Z</time>
      </trkpt>
      <trkpt lat="46.72628" lon="-2.39371">
        <ele>3.9</ele>
        <time>2018-09-21T14:40:19.000Z</time>
      </trkpt>
      <trkpt lat="46.72628" lon="-2.39369">
        <ele>3.9</ele>
        <time>2018-09-21T14:40:20.000Z</time>
      </trkpt>
      <trkpt lat="46.72628" lon="-2.39368">
        <ele>3.9</ele>
        <time>2018-09-21T14:40:21.000Z</time>
      </trkpt>
      <trkpt lat="46.72629" lon="-2.39366">
        <ele>3.9</ele>
        <time>2018-09-21T14:40:22.000Z</time>
      </trkpt>
      <trkpt lat="46.72629" lon="-2.39365">
        <ele>3.9</ele>
        <time>2018-09-21T14:40:23.000Z</time>
      </trkpt>
      <trkpt lat="46.72629" lon="-2.39364">
        <ele>3.9</ele>
        <time>2018-09-21T14:40:24.000Z</time>
      </trkpt>
      <trkpt lat="46.7263" lon="-2.39362">
        <ele>3.9</ele>
        <time>2018-09-21T14:40:25.000Z</time>
      </trkpt>
      <trkpt lat="46.7263" lon="-2.39361">
        <ele>3.9</ele>
        <time>2018-09-21T14:40:26.000Z</time>
      </trkpt>
      <trkpt lat="46.7263" lon="-2.3936">
        <ele>3.9</ele>
        <time>2018-09-21T14:40:27.000Z</time>
      </trkpt>
      <trkpt lat="46.7263" lon="-2.39358">
        <ele>3.9</ele>
        <time>2018-09-21T14:40:28.000Z</time>
      </trkpt>
      <trkpt lat="46.72631" lon="-2.39357">
        <ele>3.9</ele>
        <time>2018-09-21T14:40:29.000Z</time>
      </trkpt>
      <trkpt lat="46.72631" lon="-2.39355">
        <ele>3.9</ele>
        <time>2018-09-21T14:40:30.000Z</time>
      </trkpt>
      <trkpt lat="46.72631" lon="-2.39354">
        <ele>3.9</ele>
        <time>2018-09-21T14:40:31.000Z</time>
      </trkpt>
      <trkpt lat="46.72632" lon="-2.39352">
        <ele>3.9</ele>
        <time>2018-09-21T14:40:32.000Z</time>
      </trkpt>
      <trkpt lat="46.72632" lon="-2.39351">
        <ele>3.9</ele>
        <time>2018-09-21T14:40:33.000Z</time>
      </trkpt>
      <trkpt lat="46.72633" lon="-2.39349">
        <ele>3.9</ele>
        <time>2018-09-21T14:40:34.000Z</time>
      </trkpt>
      <trkpt lat="46.72633" lon="-2.39348">
        <ele>3.8</ele>
        <time>2018-09-21T14:40:35.000Z</time>
      </trkpt>
      <trkpt lat="46.72634" lon="-2.39346">
        <ele>3.8</ele>
        <time>2018-09-21T14:40:36.000Z</time>
      </trkpt>
      <trkpt lat="46.72634" lon="-2.39345">
        <ele>3.8</ele>
        <time>2018-09-21T14:40:37.000Z</time>
      </trkpt>
      <trkpt lat="46.72635" lon="-2.39343">
        <ele>3.8</ele>
        <time>2018-09-21T14:40:38.000Z</time>
      </trkpt>
      <trkpt lat="46.72635" lon="-2.39341">
        <ele>3.8</ele>
        <time>2018-09-21T14:40:39.000Z</time>
      </trkpt>
      <trkpt lat="46.72636" lon="-2.3934">
        <ele>3.8</ele>
        <time>2018-09-21T14:40:40.000Z</time>
      </trkpt>
      <trkpt lat="46.72636" lon="-2.39338">
        <ele>3.8</ele>
        <time>2018-09-21T14:40:41.000Z</time>
      </trkpt>
      <trkpt lat="46.72637" lon="-2.39337">
        <ele>3.8</ele>
        <time>2018-09-21T14:40:42.000Z</time>
      </trkpt>
      <trkpt lat="46.72637" lon="-2.39335">
        <ele>3.7</ele>
        <time>2018-09-21T14:40:43.000Z</time>
      </trkpt>
      <trkpt lat="46.72638" lon="-2.39333">
        <ele>3.7</ele>
        <time>2018-09-21T14:40:44.000Z</time>
      </trkpt>
      <trkpt lat="46.72638" lon="-2.39332">
        <ele>3.7</ele>
        <time>2018-09-21T14:40:45.000Z</time>
      </trkpt>
      <trkpt lat="46.72639" lon="-2.3933">
        <ele>3.7</ele>
        <time>2018-09-21T14:40:46.000Z</time>
      </trkpt>
      <trkpt lat="46.7264" lon="-2.39329">
        <ele>3.7</ele>
        <time>2018-09-21T14:40:47.000Z</time>
      </trkpt>
      <trkpt lat="46.7264" lon="-2.39327">
        <ele>3.7</ele>
        <time>2018-09-21T14:40:48.000Z</time>
      </trkpt>
      <trkpt lat="46.72641" lon="-2.39326">
        <ele>3.7</ele>
        <time>2018-09-21T14:40:49.000Z</time>
      </trkpt>
      <trkpt lat="46.72642" lon="-2.39324">
        <ele>3.7</ele>
        <time>2018-09-21T14:40:50.000Z</time>
      </trkpt>
      <trkpt lat="46.72642" lon="-2.39323">
        <ele>3.7</ele>
        <time>2018-09-21T14:40:51.000Z</time>
      </trkpt>
      <trkpt lat="46.72643" lon="-2.39322">
        <ele>3.7</ele>
        <time>2018-09-21T14:40:52.000Z</time>
      </trkpt>
      <trkpt lat="46.72643" lon="-2.3932">
        <ele>3.7</ele>
        <time>2018-09-21T14:40:53.000Z</time>
      </trkpt>
      <trkpt lat="46.72644" lon="-2.39319">
        <ele>3.7</ele>
        <time>2018-09-21T14:40:54.000Z</time>
      </trkpt>
      <trkpt lat="46.72645" lon="-2.39318">
        <ele>3.7</ele>
        <time>2018-09-21T14:40:55.000Z</time>
      </trkpt>
      <trkpt lat="46.72645" lon="-2.39316">
        <ele>3.7</ele>
        <time>2018-09-21T14:40:56.000Z</time>
      </trkpt>
      <trkpt lat="46.72646" lon="-2.39315">
        <ele>3.7</ele>
        <time>2018-09-21T14:40:57.000Z</time>
      </trkpt>
      <trkpt lat="46.72647" lon="-2.39314">
        <ele>3.7</ele>
        <time>2018-09-21T14:40:58.000Z</time>
      </trkpt>
      <trkpt lat="46.72647" lon="-2.39313">
        <ele>3.7</ele>
        <time>2018-09-21T14:40:59.000Z</time>
      </trkpt>
      <trkpt lat="46.72648" lon="-2.39312">
        <ele>3.7</ele>
        <time>2018-09-21T14:41:00.000Z</time>
      </trkpt>
      <trkpt lat="46.72648" lon="-2.3931">
        <ele>3.7</ele>
        <time>2018-09-21T14:41:01.000Z</time>
      </trkpt>
      <trkpt lat="46.72649" lon="-2.39309">
        <ele>3.7</ele>
        <time>2018-09-21T14:41:02.000Z</time>
      </trkpt>
      <trkpt lat="46.72649" lon="-2.39308">
        <ele>3.7</ele>
        <time>2018-09-21T14:41:03.000Z</time>
      </trkpt>
      <trkpt lat="46.7265" lon="-2.39306">
        <ele>3.7</ele>
        <time>2018-09-21T14:41:04.000Z</time>
      </trkpt>
      <trkpt lat="46.7265" lon="-2.39305">
        <ele>3.7</ele>
        <time>2018-09-21T14:41:05.000Z</time>
      </trkpt>
      <trkpt lat="46.72651" lon="-2.39304">
        <ele>3.7</ele>
        <time>2018-09-21T14:41:06.000Z</time>
      </trkpt>
      <trkpt lat="46.72651" lon="-2.39303">
        <ele>3.7</ele>
        <time>2018-09-21T14:41:07.000Z</time>
      </trkpt>
      <trkpt lat="46.72652" lon="-2.39301">
        <ele>3.7</ele>
        <time>2018-09-21T14:41:08.000Z</time>
      </trkpt>
      <trkpt lat="46.72652" lon="-2.393">
        <ele>3.7</ele>
        <time>2018-09-21T14:41:09.000Z</time>
      </trkpt>
      <trkpt lat="46.72653" lon="-2.39298">
        <ele>3.7</ele>
        <time>2018-09-21T14:41:10.000Z</time>
      </trkpt>
      <trkpt lat="46.72653" lon="-2.39297">
        <ele>3.7</ele>
        <time>2018-09-21T14:41:11.000Z</time>
      </trkpt>
      <trkpt lat="46.72654" lon="-2.39295">
        <ele>3.7</ele>
        <time>2018-09-21T14:41:12.000Z</time>
      </trkpt>
      <trkpt lat="46.72654" lon="-2.39294">
        <ele>3.7</ele>
        <time>2018-09-21T14:41:13.000Z</time>
      </trkpt>
      <trkpt lat="46.72655" lon="-2.39292">
        <ele>3.7</ele>
        <time>2018-09-21T14:41:14.000Z</time>
      </trkpt>
      <trkpt lat="46.72655" lon="-2.39291">
        <ele>3.7</ele>
        <time>2018-09-21T14:41:15.000Z</time>
      </trkpt>
      <trkpt lat="46.72655" lon="-2.39289">
        <ele>3.7</ele>
        <time>2018-09-21T14:41:16.000Z</time>
      </trkpt>
      <trkpt lat="46.72656" lon="-2.39287">
        <ele>3.8</ele>
        <time>2018-09-21T14:41:17.000Z</time>
      </trkpt>
      <trkpt lat="46.72656" lon="-2.39286">
        <ele>3.8</ele>
        <time>2018-09-21T14:41:18.000Z</time>
      </trkpt>
      <trkpt lat="46.72657" lon="-2.39284">
        <ele>3.8</ele>
        <time>2018-09-21T14:41:19.000Z</time>
      </trkpt>
      <trkpt lat="46.72657" lon="-2.39283">
        <ele>3.8</ele>
        <time>2018-09-21T14:41:20.000Z</time>
      </trkpt>
      <trkpt lat="46.72658" lon="-2.39281">
        <ele>3.8</ele>
        <time>2018-09-21T14:41:21.000Z</time>
      </trkpt>
      <trkpt lat="46.72658" lon="-2.39279">
        <ele>3.8</ele>
        <time>2018-09-21T14:41:22.000Z</time>
      </trkpt>
      <trkpt lat="46.72658" lon="-2.39278">
        <ele>3.8</ele>
        <time>2018-09-21T14:41:23.000Z</time>
      </trkpt>
      <trkpt lat="46.72659" lon="-2.39276">
        <ele>3.9</ele>
        <time>2018-09-21T14:41:24.000Z</time>
      </trkpt>
      <trkpt lat="46.72659" lon="-2.39275">
        <ele>3.9</ele>
        <time>2018-09-21T14:41:25.000Z</time>
      </trkpt>
      <trkpt lat="46.7266" lon="-2.39273">
        <ele>3.9</ele>
        <time>2018-09-21T14:41:26.000Z</time>
      </trkpt>
      <trkpt lat="46.7266" lon="-2.39271">
        <ele>3.9</ele>
        <time>2018-09-21T14:41:27.000Z</time>
      </trkpt>
      <trkpt lat="46.7266" lon="-2.3927">
        <ele>3.9</ele>
        <time>2018-09-21T14:41:28.000Z</time>
      </trkpt>
      <trkpt lat="46.72661" lon="-2.39268">
        <ele>3.9</ele>
        <time>2018-09-21T14:41:29.000Z</time>
      </trkpt>
      <trkpt lat="46.72661" lon="-2.39267">
        <ele>3.9</ele>
        <time>2018-09-21T14:41:30.000Z</time>
      </trkpt>
      <trkpt lat="46.72662" lon="-2.39266">
        <ele>3.9</ele>
        <time>2018-09-21T14:41:31.000Z</time>
      </trkpt>
      <trkpt lat="46.72662" lon="-2.39264">
        <ele>3.9</ele>
        <time>2018-09-21T14:41:32.000Z</time>
      </trkpt>
      <trkpt lat="46.72662" lon="-2.39263">
        <ele>4</ele>
        <time>2018-09-21T14:41:33.000Z</time>
      </trkpt>
      <trkpt lat="46.72663" lon="-2.39261">
        <ele>4</ele>
        <time>2018-09-21T14:41:34.000Z</time>
      </trkpt>
      <trkpt lat="46.72663" lon="-2.3926">
        <ele>4</ele>
        <time>2018-09-21T14:41:35.000Z</time>
      </trkpt>
      <trkpt lat="46.72664" lon="-2.39259">
        <ele>4</ele>
        <time>2018-09-21T14:41:36.000Z</time>
      </trkpt>
      <trkpt lat="46.72664" lon="-2.39257">
        <ele>4</ele>
        <time>2018-09-21T14:41:37.000Z</time>
      </trkpt>
      <trkpt lat="46.72665" lon="-2.39256">
        <ele>4</ele>
        <time>2018-09-21T14:41:38.000Z</time>
      </trkpt>
      <trkpt lat="46.72665" lon="-2.39254">
        <ele>4</ele>
        <time>2018-09-21T14:41:39.000Z</time>
      </trkpt>
      <trkpt lat="46.72666" lon="-2.39253">
        <ele>4</ele>
        <time>2018-09-21T14:41:40.000Z</time>
      </trkpt>
      <trkpt lat="46.72666" lon="-2.39252">
        <ele>4</ele>
        <time>2018-09-21T14:41:41.000Z</time>
      </trkpt>
      <trkpt lat="46.72667" lon="-2.3925">
        <ele>4</ele>
        <time>2018-09-21T14:41:42.000Z</time>
      </trkpt>
      <trkpt lat="46.72667" lon="-2.39249">
        <ele>4</ele>
        <time>2018-09-21T14:41:43.000Z</time>
      </trkpt>
      <trkpt lat="46.72668" lon="-2.39247">
        <ele>4</ele>
        <time>2018-09-21T14:41:44.000Z</time>
      </trkpt>
      <trkpt lat="46.72668" lon="-2.39246">
        <ele>4</ele>
        <time>2018-09-21T14:41:45.000Z</time>
      </trkpt>
      <trkpt lat="46.72668" lon="-2.39244">
        <ele>4</ele>
        <time>2018-09-21T14:41:46.000Z</time>
      </trkpt>
      <trkpt lat="46.72669" lon="-2.39243">
        <ele>4.1</ele>
        <time>2018-09-21T14:41:47.000Z</time>
      </trkpt>
      <trkpt lat="46.7267" lon="-2.39241">
        <ele>4.1</ele>
        <time>2018-09-21T14:41:48.000Z</time>
      </trkpt>
      <trkpt lat="46.7267" lon="-2.3924">
        <ele>4.1</ele>
        <time>2018-09-21T14:41:49.000Z</time>
      </trkpt>
      <trkpt lat="46.72671" lon="-2.39238">
        <ele>4.1</ele>
        <time>2018-09-21T14:41:50.000Z</time>
      </trkpt>
      <trkpt lat="46.72671" lon="-2.39236">
        <ele>4.1</ele>
        <time>2018-09-21T14:41:51.000Z</time>
      </trkpt>
      <trkpt lat="46.72672" lon="-2.39235">
        <ele>4.1</ele>
        <time>2018-09-21T14:41:52.000Z</time>
      </trkpt>
      <trkpt lat="46.72672" lon="-2.39233">
        <ele>4.1</ele>
        <time>2018-09-21T14:41:53.000Z</time>
      </trkpt>
      <trkpt lat="46.72673" lon="-2.39231">
        <ele>4.1</ele>
        <time>2018-09-21T14:41:54.000Z</time>
      </trkpt>
      <trkpt lat="46.72673" lon="-2.39229">
        <ele>4.1</ele>
        <time>2018-09-21T14:41:55.000Z</time>
      </trkpt>
      <trkpt lat="46.72674" lon="-2.39228">
        <ele>4.1</ele>
        <time>2018-09-21T14:41:56.000Z</time>
      </trkpt>
      <trkpt lat="46.72675" lon="-2.39226">
        <ele>4.1</ele>
        <time>2018-09-21T14:41:57.000Z</time>
      </trkpt>
      <trkpt lat="46.72675" lon="-2.39224">
        <ele>4.2</ele>
        <time>2018-09-21T14:41:58.000Z</time>
      </trkpt>
      <trkpt lat="46.72676" lon="-2.39223">
        <ele>4.2</ele>
        <time>2018-09-21T14:41:59.000Z</time>
      </trkpt>
      <trkpt lat="46.72676" lon="-2.39221">
        <ele>4.1</ele>
        <time>2018-09-21T14:42:00.000Z</time>
      </trkpt>
      <trkpt lat="46.72677" lon="-2.39219">
        <ele>4.1</ele>
        <time>2018-09-21T14:42:01.000Z</time>
      </trkpt>
      <trkpt lat="46.72678" lon="-2.39218">
        <ele>4.1</ele>
        <time>2018-09-21T14:42:02.000Z</time>
      </trkpt>
      <trkpt lat="46.72678" lon="-2.39216">
        <ele>4.1</ele>
        <time>2018-09-21T14:42:03.000Z</time>
      </trkpt>
      <trkpt lat="46.72679" lon="-2.39215">
        <ele>4.1</ele>
        <time>2018-09-21T14:42:04.000Z</time>
      </trkpt>
      <trkpt lat="46.7268" lon="-2.39213">
        <ele>4.1</ele>
        <time>2018-09-21T14:42:05.000Z</time>
      </trkpt>
      <trkpt lat="46.7268" lon="-2.39212">
        <ele>4.1</ele>
        <time>2018-09-21T14:42:06.000Z</time>
      </trkpt>
      <trkpt lat="46.72681" lon="-2.39211">
        <ele>4.1</ele>
        <time>2018-09-21T14:42:07.000Z</time>
      </trkpt>
      <trkpt lat="46.72681" lon="-2.3921">
        <ele>4.1</ele>
        <time>2018-09-21T14:42:08.000Z</time>
      </trkpt>
      <trkpt lat="46.72682" lon="-2.39208">
        <ele>4.1</ele>
        <time>2018-09-21T14:42:09.000Z</time>
      </trkpt>
      <trkpt lat="46.72682" lon="-2.39207">
        <ele>4.1</ele>
        <time>2018-09-21T14:42:10.000Z</time>
      </trkpt>
      <trkpt lat="46.72683" lon="-2.39206">
        <ele>4.1</ele>
        <time>2018-09-21T14:42:11.000Z</time>
      </trkpt>
      <trkpt lat="46.72683" lon="-2.39205">
        <ele>4.1</ele>
        <time>2018-09-21T14:42:12.000Z</time>
      </trkpt>
      <trkpt lat="46.72683" lon="-2.39203">
        <ele>4.1</ele>
        <time>2018-09-21T14:42:13.000Z</time>
      </trkpt>
      <trkpt lat="46.72684" lon="-2.39202">
        <ele>4.1</ele>
        <time>2018-09-21T14:42:14.000Z</time>
      </trkpt>
      <trkpt lat="46.72684" lon="-2.39201">
        <ele>4.1</ele>
        <time>2018-09-21T14:42:15.000Z</time>
      </trkpt>
      <trkpt lat="46.72684" lon="-2.39199">
        <ele>4.1</ele>
        <time>2018-09-21T14:42:16.000Z</time>
      </trkpt>
      <trkpt lat="46.72685" lon="-2.39198">
        <ele>4.1</ele>
        <time>2018-09-21T14:42:17.000Z</time>
      </trkpt>
      <trkpt lat="46.72685" lon="-2.39196">
        <ele>4.1</ele>
        <time>2018-09-21T14:42:18.000Z</time>
      </trkpt>
      <trkpt lat="46.72685" lon="-2.39195">
        <ele>4.1</ele>
        <time>2018-09-21T14:42:19.000Z</time>
      </trkpt>
      <trkpt lat="46.72686" lon="-2.39193">
        <ele>4.2</ele>
        <time>2018-09-21T14:42:20.000Z</time>
      </trkpt>
      <trkpt lat="46.72686" lon="-2.39191">
        <ele>4.2</ele>
        <time>2018-09-21T14:42:21.000Z</time>
      </trkpt>
      <trkpt lat="46.72686" lon="-2.39189">
        <ele>4.2</ele>
        <time>2018-09-21T14:42:22.000Z</time>
      </trkpt>
      <trkpt lat="46.72686" lon="-2.39187">
        <ele>4.2</ele>
        <time>2018-09-21T14:42:23.000Z</time>
      </trkpt>
      <trkpt lat="46.72686" lon="-2.39186">
        <ele>4.3</ele>
        <time>2018-09-21T14:42:24.000Z</time>
      </trkpt>
      <trkpt lat="46.72686" lon="-2.39184">
        <ele>4.3</ele>
        <time>2018-09-21T14:42:25.000Z</time>
      </trkpt>
      <trkpt lat="46.72686" lon="-2.39182">
        <ele>4.3</ele>
        <time>2018-09-21T14:42:26.000Z</time>
      </trkpt>
      <trkpt lat="46.72686" lon="-2.3918">
        <ele>4.4</ele>
        <time>2018-09-21T14:42:27.000Z</time>
      </trkpt>
      <trkpt lat="46.72686" lon="-2.39179">
        <ele>4.4</ele>
        <time>2018-09-21T14:42:28.000Z</time>
      </trkpt>
      <trkpt lat="46.72686" lon="-2.39177">
        <ele>4.4</ele>
        <time>2018-09-21T14:42:29.000Z</time>
      </trkpt>
      <trkpt lat="46.72685" lon="-2.39175">
        <ele>4.5</ele>
        <time>2018-09-21T14:42:30.000Z</time>
      </trkpt>
      <trkpt lat="46.72685" lon="-2.39174">
        <ele>4.6</ele>
        <time>2018-09-21T14:42:31.000Z</time>
      </trkpt>
      <trkpt lat="46.72685" lon="-2.39172">
        <ele>4.6</ele>
        <time>2018-09-21T14:42:32.000Z</time>
      </trkpt>
      <trkpt lat="46.72685" lon="-2.3917">
        <ele>4.6</ele>
        <time>2018-09-21T14:42:33.000Z</time>
      </trkpt>
      <trkpt lat="46.72684" lon="-2.39169">
        <ele>4.7</ele>
        <time>2018-09-21T14:42:34.000Z</time>
      </trkpt>
      <trkpt lat="46.72684" lon="-2.39167">
        <ele>4.7</ele>
        <time>2018-09-21T14:42:35.000Z</time>
      </trkpt>
      <trkpt lat="46.72684" lon="-2.39166">
        <ele>4.8</ele>
        <time>2018-09-21T14:42:36.000Z</time>
      </trkpt>
      <trkpt lat="46.72684" lon="-2.39164">
        <ele>4.8</ele>
        <time>2018-09-21T14:42:37.000Z</time>
      </trkpt>
      <trkpt lat="46.72684" lon="-2.39162">
        <ele>4.8</ele>
        <time>2018-09-21T14:42:38.000Z</time>
      </trkpt>
      <trkpt lat="46.72683" lon="-2.39161">
        <ele>4.9</ele>
        <time>2018-09-21T14:42:39.000Z</time>
      </trkpt>
      <trkpt lat="46.72683" lon="-2.39159">
        <ele>4.9</ele>
        <time>2018-09-21T14:42:40.000Z</time>
      </trkpt>
      <trkpt lat="46.72684" lon="-2.39157">
        <ele>4.9</ele>
        <time>2018-09-21T14:42:41.000Z</time>
      </trkpt>
      <trkpt lat="46.72684" lon="-2.39156">
        <ele>4.9</ele>
        <time>2018-09-21T14:42:42.000Z</time>
      </trkpt>
      <trkpt lat="46.72684" lon="-2.39154">
        <ele>4.9</ele>
        <time>2018-09-21T14:42:43.000Z</time>
      </trkpt>
      <trkpt lat="46.72684" lon="-2.39152">
        <ele>4.9</ele>
        <time>2018-09-21T14:42:44.000Z</time>
      </trkpt>
      <trkpt lat="46.72684" lon="-2.39151">
        <ele>4.9</ele>
        <time>2018-09-21T14:42:45.000Z</time>
      </trkpt>
      <trkpt lat="46.72684" lon="-2.39149">
        <ele>4.9</ele>
        <time>2018-09-21T14:42:46.000Z</time>
      </trkpt>
      <trkpt lat="46.72685" lon="-2.39147">
        <ele>4.9</ele>
        <time>2018-09-21T14:42:47.000Z</time>
      </trkpt>
      <trkpt lat="46.72685" lon="-2.39146">
        <ele>4.9</ele>
        <time>2018-09-21T14:42:48.000Z</time>
      </trkpt>
      <trkpt lat="46.72685" lon="-2.39144">
        <ele>4.9</ele>
        <time>2018-09-21T14:42:49.000Z</time>
      </trkpt>
      <trkpt lat="46.72685" lon="-2.39142">
        <ele>4.9</ele>
        <time>2018-09-21T14:42:50.000Z</time>
      </trkpt>
      <trkpt lat="46.72686" lon="-2.39141">
        <ele>4.9</ele>
        <time>2018-09-21T14:42:51.000Z</time>
      </trkpt>
      <trkpt lat="46.72686" lon="-2.39139">
        <ele>4.9</ele>
        <time>2018-09-21T14:42:52.000Z</time>
      </trkpt>
      <trkpt lat="46.72686" lon="-2.39137">
        <ele>4.9</ele>
        <time>2018-09-21T14:42:53.000Z</time>
      </trkpt>
      <trkpt lat="46.72686" lon="-2.39135">
        <ele>4.9</ele>
        <time>2018-09-21T14:42:54.000Z</time>
      </trkpt>
      <trkpt lat="46.72686" lon="-2.39134">
        <ele>4.9</ele>
        <time>2018-09-21T14:42:55.000Z</time>
      </trkpt>
      <trkpt lat="46.72686" lon="-2.39132">
        <ele>4.9</ele>
        <time>2018-09-21T14:42:56.000Z</time>
      </trkpt>
      <trkpt lat="46.72686" lon="-2.3913">
        <ele>4.9</ele>
        <time>2018-09-21T14:42:57.000Z</time>
      </trkpt>
      <trkpt lat="46.72686" lon="-2.39129">
        <ele>4.9</ele>
        <time>2018-09-21T14:42:58.000Z</time>
      </trkpt>
      <trkpt lat="46.72686" lon="-2.39127">
        <ele>4.9</ele>
        <time>2018-09-21T14:42:59.000Z</time>
      </trkpt>
      <trkpt lat="46.72686" lon="-2.39126">
        <ele>5</ele>
        <time>2018-09-21T14:43:00.000Z</time>
      </trkpt>
      <trkpt lat="46.72686" lon="-2.39124">
        <ele>5</ele>
        <time>2018-09-21T14:43:01.000Z</time>
      </trkpt>
      <trkpt lat="46.72686" lon="-2.39123">
        <ele>5</ele>
        <time>2018-09-21T14:43:02.000Z</time>
      </trkpt>
      <trkpt lat="46.72686" lon="-2.39121">
        <ele>5</ele>
        <time>2018-09-21T14:43:03.000Z</time>
      </trkpt>
      <trkpt lat="46.72687" lon="-2.3912">
        <ele>5</ele>
        <time>2018-09-21T14:43:04.000Z</time>
      </trkpt>
      <trkpt lat="46.72687" lon="-2.39119">
        <ele>5</ele>
        <time>2018-09-21T14:43:05.000Z</time>
      </trkpt>
      <trkpt lat="46.72687" lon="-2.39118">
        <ele>5</ele>
        <time>2018-09-21T14:43:06.000Z</time>
      </trkpt>
      <trkpt lat="46.72687" lon="-2.39117">
        <ele>5</ele>
        <time>2018-09-21T14:43:07.000Z</time>
      </trkpt>
      <trkpt lat="46.72688" lon="-2.39115">
        <ele>4.9</ele>
        <time>2018-09-21T14:43:08.000Z</time>
      </trkpt>
      <trkpt lat="46.72688" lon="-2.39114">
        <ele>4.9</ele>
        <time>2018-09-21T14:43:09.000Z</time>
      </trkpt>
      <trkpt lat="46.72689" lon="-2.39113">
        <ele>4.9</ele>
        <time>2018-09-21T14:43:10.000Z</time>
      </trkpt>
      <trkpt lat="46.72689" lon="-2.39112">
        <ele>4.8</ele>
        <time>2018-09-21T14:43:11.000Z</time>
      </trkpt>
      <trkpt lat="46.7269" lon="-2.39111">
        <ele>4.8</ele>
        <time>2018-09-21T14:43:12.000Z</time>
      </trkpt>
      <trkpt lat="46.72691" lon="-2.3911">
        <ele>4.8</ele>
        <time>2018-09-21T14:43:13.000Z</time>
      </trkpt>
      <trkpt lat="46.72691" lon="-2.39109">
        <ele>4.7</ele>
        <time>2018-09-21T14:43:14.000Z</time>
      </trkpt>
      <trkpt lat="46.72692" lon="-2.39108">
        <ele>4.7</ele>
        <time>2018-09-21T14:43:15.000Z</time>
      </trkpt>
      <trkpt lat="46.72693" lon="-2.39106">
        <ele>4.6</ele>
        <time>2018-09-21T14:43:16.000Z</time>
      </trkpt>
      <trkpt lat="46.72694" lon="-2.39105">
        <ele>4.6</ele>
        <time>2018-09-21T14:43:17.000Z</time>
      </trkpt>
      <trkpt lat="46.72694" lon="-2.39103">
        <ele>4.5</ele>
        <time>2018-09-21T14:43:18.000Z</time>
      </trkpt>
      <trkpt lat="46.72695" lon="-2.39102">
        <ele>4.5</ele>
        <time>2018-09-21T14:43:19.000Z</time>
      </trkpt>
      <trkpt lat="46.72696" lon="-2.39101">
        <ele>4.4</ele>
        <time>2018-09-21T14:43:20.000Z</time>
      </trkpt>
      <trkpt lat="46.72697" lon="-2.39099">
        <ele>4.4</ele>
        <time>2018-09-21T14:43:21.000Z</time>
      </trkpt>
      <trkpt lat="46.72697" lon="-2.39098">
        <ele>4.3</ele>
        <time>2018-09-21T14:43:22.000Z</time>
      </trkpt>
      <trkpt lat="46.72698" lon="-2.39096">
        <ele>4.3</ele>
        <time>2018-09-21T14:43:23.000Z</time>
      </trkpt>
      <trkpt lat="46.72698" lon="-2.39095">
        <ele>4.3</ele>
        <time>2018-09-21T14:43:24.000Z</time>
      </trkpt>
      <trkpt lat="46.72699" lon="-2.39093">
        <ele>4.2</ele>
        <time>2018-09-21T14:43:25.000Z</time>
      </trkpt>
      <trkpt lat="46.72699" lon="-2.39092">
        <ele>4.2</ele>
        <time>2018-09-21T14:43:26.000Z</time>
      </trkpt>
      <trkpt lat="46.72699" lon="-2.39091">
        <ele>4.2</ele>
        <time>2018-09-21T14:43:27.000Z</time>
      </trkpt>
      <trkpt lat="46.727" lon="-2.39089">
        <ele>4.2</ele>
        <time>2018-09-21T14:43:28.000Z</time>
      </trkpt>
      <trkpt lat="46.727" lon="-2.39088">
        <ele>4.2</ele>
        <time>2018-09-21T14:43:29.000Z</time>
      </trkpt>
      <trkpt lat="46.727" lon="-2.39086">
        <ele>4.2</ele>
        <time>2018-09-21T14:43:30.000Z</time>
      </trkpt>
      <trkpt lat="46.727" lon="-2.39085">
        <ele>4.2</ele>
        <time>2018-09-21T14:43:31.000Z</time>
      </trkpt>
      <trkpt lat="46.727" lon="-2.39084">
        <ele>4.2</ele>
        <time>2018-09-21T14:43:32.000Z</time>
      </trkpt>
      <trkpt lat="46.727" lon="-2.39083">
        <ele>4.2</ele>
        <time>2018-09-21T14:43:33.000Z</time>
      </trkpt>
      <trkpt lat="46.727" lon="-2.39081">
        <ele>4.2</ele>
        <time>2018-09-21T14:43:34.000Z</time>
      </trkpt>
      <trkpt lat="46.727" lon="-2.3908">
        <ele>4.2</ele>
        <time>2018-09-21T14:43:35.000Z</time>
      </trkpt>
      <trkpt lat="46.727" lon="-2.39079">
        <ele>4.2</ele>
        <time>2018-09-21T14:43:36.000Z</time>
      </trkpt>
      <trkpt lat="46.727" lon="-2.39078">
        <ele>4.2</ele>
        <time>2018-09-21T14:43:37.000Z</time>
      </trkpt>
      <trkpt lat="46.727" lon="-2.39076">
        <ele>4.2</ele>
        <time>2018-09-21T14:43:38.000Z</time>
      </trkpt>
      <trkpt lat="46.727" lon="-2.39075">
        <ele>4.2</ele>
        <time>2018-09-21T14:43:39.000Z</time>
      </trkpt>
      <trkpt lat="46.727" lon="-2.39074">
        <ele>4.2</ele>
        <time>2018-09-21T14:43:40.000Z</time>
      </trkpt>
      <trkpt lat="46.727" lon="-2.39073">
        <ele>4.2</ele>
        <time>2018-09-21T14:43:41.000Z</time>
      </trkpt>
      <trkpt lat="46.727" lon="-2.39071">
        <ele>4.2</ele>
        <time>2018-09-21T14:43:42.000Z</time>
      </trkpt>
      <trkpt lat="46.727" lon="-2.3907">
        <ele>4.2</ele>
        <time>2018-09-21T14:43:43.000Z</time>
      </trkpt>
      <trkpt lat="46.727" lon="-2.39069">
        <ele>4.1</ele>
        <time>2018-09-21T14:43:44.000Z</time>
      </trkpt>
      <trkpt lat="46.727" lon="-2.39068">
        <ele>4.1</ele>
        <time>2018-09-21T14:43:45.000Z</time>
      </trkpt>
      <trkpt lat="46.72701" lon="-2.39066">
        <ele>4.1</ele>
        <time>2018-09-21T14:43:46.000Z</time>
      </trkpt>
      <trkpt lat="46.72701" lon="-2.39065">
        <ele>4.1</ele>
        <time>2018-09-21T14:43:47.000Z</time>
      </trkpt>
      <trkpt lat="46.72701" lon="-2.39064">
        <ele>4.1</ele>
        <time>2018-09-21T14:43:48.000Z</time>
      </trkpt>
      <trkpt lat="46.72701" lon="-2.39062">
        <ele>4</ele>
        <time>2018-09-21T14:43:49.000Z</time>
      </trkpt>
      <trkpt lat="46.72702" lon="-2.39061">
        <ele>4</ele>
        <time>2018-09-21T14:43:50.000Z</time>
      </trkpt>
      <trkpt lat="46.72702" lon="-2.3906">
        <ele>4</ele>
        <time>2018-09-21T14:43:51.000Z</time>
      </trkpt>
      <trkpt lat="46.72702" lon="-2.39058">
        <ele>4</ele>
        <time>2018-09-21T14:43:52.000Z</time>
      </trkpt>
      <trkpt lat="46.72703" lon="-2.39057">
        <ele>3.9</ele>
        <time>2018-09-21T14:43:53.000Z</time>
      </trkpt>
      <trkpt lat="46.72703" lon="-2.39056">
        <ele>3.9</ele>
        <time>2018-09-21T14:43:54.000Z</time>
      </trkpt>
      <trkpt lat="46.72703" lon="-2.39054">
        <ele>3.9</ele>
        <time>2018-09-21T14:43:55.000Z</time>
      </trkpt>
      <trkpt lat="46.72704" lon="-2.39053">
        <ele>3.8</ele>
        <time>2018-09-21T14:43:56.000Z</time>
      </trkpt>
      <trkpt lat="46.72704" lon="-2.39051">
        <ele>3.8</ele>
        <time>2018-09-21T14:43:57.000Z</time>
      </trkpt>
      <trkpt lat="46.72704" lon="-2.3905">
        <ele>3.8</ele>
        <time>2018-09-21T14:43:58.000Z</time>
      </trkpt>
      <trkpt lat="46.72705" lon="-2.39049">
        <ele>3.8</ele>
        <time>2018-09-21T14:43:59.000Z</time>
      </trkpt>
      <trkpt lat="46.72705" lon="-2.39047">
        <ele>3.7</ele>
        <time>2018-09-21T14:44:00.000Z</time>
      </trkpt>
      <trkpt lat="46.72705" lon="-2.39046">
        <ele>3.7</ele>
        <time>2018-09-21T14:44:01.000Z</time>
      </trkpt>
      <trkpt lat="46.72706" lon="-2.39044">
        <ele>3.7</ele>
        <time>2018-09-21T14:44:02.000Z</time>
      </trkpt>
      <trkpt lat="46.72706" lon="-2.39043">
        <ele>3.7</ele>
        <time>2018-09-21T14:44:03.000Z</time>
      </trkpt>
      <trkpt lat="46.72706" lon="-2.39041">
        <ele>3.7</ele>
        <time>2018-09-21T14:44:04.000Z</time>
      </trkpt>
      <trkpt lat="46.72706" lon="-2.3904">
        <ele>3.6</ele>
        <time>2018-09-21T14:44:05.000Z</time>
      </trkpt>
      <trkpt lat="46.72707" lon="-2.39038">
        <ele>3.6</ele>
        <time>2018-09-21T14:44:06.000Z</time>
      </trkpt>
      <trkpt lat="46.72707" lon="-2.39037">
        <ele>3.6</ele>
        <time>2018-09-21T14:44:07.000Z</time>
      </trkpt>
      <trkpt lat="46.72707" lon="-2.39035">
        <ele>3.6</ele>
        <time>2018-09-21T14:44:08.000Z</time>
      </trkpt>
      <trkpt lat="46.72707" lon="-2.39034">
        <ele>3.6</ele>
        <time>2018-09-21T14:44:09.000Z</time>
      </trkpt>
      <trkpt lat="46.72708" lon="-2.39032">
        <ele>3.6</ele>
        <time>2018-09-21T14:44:10.000Z</time>
      </trkpt>
      <trkpt lat="46.72708" lon="-2.39031">
        <ele>3.5</ele>
        <time>2018-09-21T14:44:11.000Z</time>
      </trkpt>
      <trkpt lat="46.72708" lon="-2.39029">
        <ele>3.5</ele>
        <time>2018-09-21T14:44:12.000Z</time>
      </trkpt>
      <trkpt lat="46.72708" lon="-2.39028">
        <ele>3.5</ele>
        <time>2018-09-21T14:44:13.000Z</time>
      </trkpt>
      <trkpt lat="46.72709" lon="-2.39026">
        <ele>3.5</ele>
        <time>2018-09-21T14:44:14.000Z</time>
      </trkpt>
      <trkpt lat="46.72709" lon="-2.39025">
        <ele>3.5</ele>
        <time>2018-09-21T14:44:15.000Z</time>
      </trkpt>
      <trkpt lat="46.72709" lon="-2.39023">
        <ele>3.5</ele>
        <time>2018-09-21T14:44:16.000Z</time>
      </trkpt>
      <trkpt lat="46.72709" lon="-2.39022">
        <ele>3.4</ele>
        <time>2018-09-21T14:44:17.000Z</time>
      </trkpt>
      <trkpt lat="46.7271" lon="-2.3902">
        <ele>3.4</ele>
        <time>2018-09-21T14:44:18.000Z</time>
      </trkpt>
      <trkpt lat="46.7271" lon="-2.39018">
        <ele>3.4</ele>
        <time>2018-09-21T14:44:19.000Z</time>
      </trkpt>
      <trkpt lat="46.7271" lon="-2.39017">
        <ele>3.4</ele>
        <time>2018-09-21T14:44:20.000Z</time>
      </trkpt>
      <trkpt lat="46.72711" lon="-2.39015">
        <ele>3.4</ele>
        <time>2018-09-21T14:44:21.000Z</time>
      </trkpt>
      <trkpt lat="46.72711" lon="-2.39014">
        <ele>3.3</ele>
        <time>2018-09-21T14:44:22.000Z</time>
      </trkpt>
      <trkpt lat="46.72711" lon="-2.39012">
        <ele>3.3</ele>
        <time>2018-09-21T14:44:23.000Z</time>
      </trkpt>
      <trkpt lat="46.72712" lon="-2.39011">
        <ele>3.3</ele>
        <time>2018-09-21T14:44:24.000Z</time>
      </trkpt>
      <trkpt lat="46.72712" lon="-2.39009">
        <ele>3.3</ele>
        <time>2018-09-21T14:44:25.000Z</time>
      </trkpt>
      <trkpt lat="46.72712" lon="-2.39008">
        <ele>3.2</ele>
        <time>2018-09-21T14:44:26.000Z</time>
      </trkpt>
      <trkpt lat="46.72713" lon="-2.39006">
        <ele>3.2</ele>
        <time>2018-09-21T14:44:27.000Z</time>
      </trkpt>
      <trkpt lat="46.72713" lon="-2.39004">
        <ele>3.2</ele>
        <time>2018-09-21T14:44:28.000Z</time>
      </trkpt>
      <trkpt lat="46.72714" lon="-2.39003">
        <ele>3.2</ele>
        <time>2018-09-21T14:44:29.000Z</time>
      </trkpt>
      <trkpt lat="46.72714" lon="-2.39001">
        <ele>3.2</ele>
        <time>2018-09-21T14:44:30.000Z</time>
      </trkpt>
      <trkpt lat="46.72714" lon="-2.39">
        <ele>3.1</ele>
        <time>2018-09-21T14:44:31.000Z</time>
      </trkpt>
      <trkpt lat="46.72715" lon="-2.38998">
        <ele>3.1</ele>
        <time>2018-09-21T14:44:32.000Z</time>
      </trkpt>
      <trkpt lat="46.72715" lon="-2.38997">
        <ele>3.1</ele>
        <time>2018-09-21T14:44:33.000Z</time>
      </trkpt>
      <trkpt lat="46.72716" lon="-2.38995">
        <ele>3.1</ele>
        <time>2018-09-21T14:44:34.000Z</time>
      </trkpt>
      <trkpt lat="46.72716" lon="-2.38994">
        <ele>3.1</ele>
        <time>2018-09-21T14:44:35.000Z</time>
      </trkpt>
      <trkpt lat="46.72716" lon="-2.38992">
        <ele>3.1</ele>
        <time>2018-09-21T14:44:36.000Z</time>
      </trkpt>
      <trkpt lat="46.72717" lon="-2.38991">
        <ele>3.1</ele>
        <time>2018-09-21T14:44:37.000Z</time>
      </trkpt>
      <trkpt lat="46.72717" lon="-2.38989">
        <ele>3.1</ele>
        <time>2018-09-21T14:44:38.000Z</time>
      </trkpt>
      <trkpt lat="46.72717" lon="-2.38988">
        <ele>3.1</ele>
        <time>2018-09-21T14:44:39.000Z</time>
      </trkpt>
      <trkpt lat="46.72718" lon="-2.38986">
        <ele>3.1</ele>
        <time>2018-09-21T14:44:40.000Z</time>
      </trkpt>
      <trkpt lat="46.72718" lon="-2.38985">
        <ele>3.1</ele>
        <time>2018-09-21T14:44:41.000Z</time>
      </trkpt>
      <trkpt lat="46.72718" lon="-2.38983">
        <ele>3.1</ele>
        <time>2018-09-21T14:44:42.000Z</time>
      </trkpt>
      <trkpt lat="46.72718" lon="-2.38982">
        <ele>3.1</ele>
        <time>2018-09-21T14:44:43.000Z</time>
      </trkpt>
      <trkpt lat="46.72719" lon="-2.38981">
        <ele>3.1</ele>
        <time>2018-09-21T14:44:44.000Z</time>
      </trkpt>
      <trkpt lat="46.72719" lon="-2.38979">
        <ele>3.1</ele>
        <time>2018-09-21T14:44:45.000Z</time>
      </trkpt>
      <trkpt lat="46.72719" lon="-2.38978">
        <ele>3.1</ele>
        <time>2018-09-21T14:44:46.000Z</time>
      </trkpt>
      <trkpt lat="46.7272" lon="-2.38976">
        <ele>3.1</ele>
        <time>2018-09-21T14:44:47.000Z</time>
      </trkpt>
      <trkpt lat="46.7272" lon="-2.38975">
        <ele>3.1</ele>
        <time>2018-09-21T14:44:48.000Z</time>
      </trkpt>
      <trkpt lat="46.72721" lon="-2.38973">
        <ele>3.1</ele>
        <time>2018-09-21T14:44:49.000Z</time>
      </trkpt>
      <trkpt lat="46.72721" lon="-2.38972">
        <ele>3.1</ele>
        <time>2018-09-21T14:44:50.000Z</time>
      </trkpt>
      <trkpt lat="46.72722" lon="-2.3897">
        <ele>3</ele>
        <time>2018-09-21T14:44:51.000Z</time>
      </trkpt>
      <trkpt lat="46.72723" lon="-2.38969">
        <ele>3</ele>
        <time>2018-09-21T14:44:52.000Z</time>
      </trkpt>
      <trkpt lat="46.72723" lon="-2.38968">
        <ele>3</ele>
        <time>2018-09-21T14:44:53.000Z</time>
      </trkpt>
      <trkpt lat="46.72724" lon="-2.38966">
        <ele>3</ele>
        <time>2018-09-21T14:44:54.000Z</time>
      </trkpt>
      <trkpt lat="46.72724" lon="-2.38965">
        <ele>3</ele>
        <time>2018-09-21T14:44:55.000Z</time>
      </trkpt>
      <trkpt lat="46.72725" lon="-2.38964">
        <ele>2.9</ele>
        <time>2018-09-21T14:44:56.000Z</time>
      </trkpt>
      <trkpt lat="46.72725" lon="-2.38963">
        <ele>2.9</ele>
        <time>2018-09-21T14:44:57.000Z</time>
      </trkpt>
      <trkpt lat="46.72725" lon="-2.38961">
        <ele>3</ele>
        <time>2018-09-21T14:44:58.000Z</time>
      </trkpt>
      <trkpt lat="46.72725" lon="-2.3896">
        <ele>3</ele>
        <time>2018-09-21T14:44:59.000Z</time>
      </trkpt>
      <trkpt lat="46.72725" lon="-2.38959">
        <ele>3</ele>
        <time>2018-09-21T14:45:00.000Z</time>
      </trkpt>
      <trkpt lat="46.72725" lon="-2.38957">
        <ele>3</ele>
        <time>2018-09-21T14:45:01.000Z</time>
      </trkpt>
      <trkpt lat="46.72725" lon="-2.38956">
        <ele>3</ele>
        <time>2018-09-21T14:45:02.000Z</time>
      </trkpt>
      <trkpt lat="46.72725" lon="-2.38954">
        <ele>3.1</ele>
        <time>2018-09-21T14:45:03.000Z</time>
      </trkpt>
      <trkpt lat="46.72725" lon="-2.38953">
        <ele>3.1</ele>
        <time>2018-09-21T14:45:04.000Z</time>
      </trkpt>
      <trkpt lat="46.72724" lon="-2.38951">
        <ele>3.1</ele>
        <time>2018-09-21T14:45:05.000Z</time>
      </trkpt>
      <trkpt lat="46.72724" lon="-2.38949">
        <ele>3.2</ele>
        <time>2018-09-21T14:45:06.000Z</time>
      </trkpt>
      <trkpt lat="46.72724" lon="-2.38948">
        <ele>3.2</ele>
        <time>2018-09-21T14:45:07.000Z</time>
      </trkpt>
      <trkpt lat="46.72723" lon="-2.38946">
        <ele>3.2</ele>
        <time>2018-09-21T14:45:08.000Z</time>
      </trkpt>
      <trkpt lat="46.72723" lon="-2.38945">
        <ele>3.3</ele>
        <time>2018-09-21T14:45:09.000Z</time>
      </trkpt>
      <trkpt lat="46.72723" lon="-2.38943">
        <ele>3.3</ele>
        <time>2018-09-21T14:45:10.000Z</time>
      </trkpt>
      <trkpt lat="46.72723" lon="-2.38942">
        <ele>3.3</ele>
        <time>2018-09-21T14:45:11.000Z</time>
      </trkpt>
      <trkpt lat="46.72722" lon="-2.3894">
        <ele>3.4</ele>
        <time>2018-09-21T14:45:12.000Z</time>
      </trkpt>
      <trkpt lat="46.72722" lon="-2.38939">
        <ele>3.4</ele>
        <time>2018-09-21T14:45:13.000Z</time>
      </trkpt>
      <trkpt lat="46.72722" lon="-2.38937">
        <ele>3.4</ele>
        <time>2018-09-21T14:45:14.000Z</time>
      </trkpt>
      <trkpt lat="46.72722" lon="-2.38936">
        <ele>3.5</ele>
        <time>2018-09-21T14:45:15.000Z</time>
      </trkpt>
      <trkpt lat="46.72721" lon="-2.38935">
        <ele>3.5</ele>
        <time>2018-09-21T14:45:16.000Z</time>
      </trkpt>
      <trkpt lat="46.72721" lon="-2.38933">
        <ele>3.6</ele>
        <time>2018-09-21T14:45:17.000Z</time>
      </trkpt>
      <trkpt lat="46.7272" lon="-2.38932">
        <ele>3.6</ele>
        <time>2018-09-21T14:45:18.000Z</time>
      </trkpt>
      <trkpt lat="46.7272" lon="-2.3893">
        <ele>3.6</ele>
        <time>2018-09-21T14:45:19.000Z</time>
      </trkpt>
      <trkpt lat="46.7272" lon="-2.38929">
        <ele>3.7</ele>
        <time>2018-09-21T14:45:20.000Z</time>
      </trkpt>
      <trkpt lat="46.72719" lon="-2.38928">
        <ele>3.7</ele>
        <time>2018-09-21T14:45:21.000Z</time>
      </trkpt>
      <trkpt lat="46.72719" lon="-2.38926">
        <ele>3.8</ele>
        <time>2018-09-21T14:45:22.000Z</time>
      </trkpt>
      <trkpt lat="46.72718" lon="-2.38925">
        <ele>3.8</ele>
        <time>2018-09-21T14:45:23.000Z</time>
      </trkpt>
      <trkpt lat="46.72718" lon="-2.38924">
        <ele>3.9</ele>
        <time>2018-09-21T14:45:24.000Z</time>
      </trkpt>
      <trkpt lat="46.72717" lon="-2.38923">
        <ele>3.9</ele>
        <time>2018-09-21T14:45:25.000Z</time>
      </trkpt>
      <trkpt lat="46.72717" lon="-2.38921">
        <ele>4</ele>
        <time>2018-09-21T14:45:26.000Z</time>
      </trkpt>
      <trkpt lat="46.72716" lon="-2.3892">
        <ele>4</ele>
        <time>2018-09-21T14:45:27.000Z</time>
      </trkpt>
      <trkpt lat="46.72716" lon="-2.38919">
        <ele>4</ele>
        <time>2018-09-21T14:45:28.000Z</time>
      </trkpt>
      <trkpt lat="46.72715" lon="-2.38917">
        <ele>4.1</ele>
        <time>2018-09-21T14:45:29.000Z</time>
      </trkpt>
      <trkpt lat="46.72715" lon="-2.38916">
        <ele>4.1</ele>
        <time>2018-09-21T14:45:30.000Z</time>
      </trkpt>
      <trkpt lat="46.72715" lon="-2.38915">
        <ele>4.1</ele>
        <time>2018-09-21T14:45:31.000Z</time>
      </trkpt>
      <trkpt lat="46.72714" lon="-2.38914">
        <ele>4.1</ele>
        <time>2018-09-21T14:45:32.000Z</time>
      </trkpt>
      <trkpt lat="46.72714" lon="-2.38912">
        <ele>4.1</ele>
        <time>2018-09-21T14:45:33.000Z</time>
      </trkpt>
      <trkpt lat="46.72714" lon="-2.38911">
        <ele>4.1</ele>
        <time>2018-09-21T14:45:34.000Z</time>
      </trkpt>
      <trkpt lat="46.72714" lon="-2.3891">
        <ele>4</ele>
        <time>2018-09-21T14:45:35.000Z</time>
      </trkpt>
      <trkpt lat="46.72714" lon="-2.38909">
        <ele>4</ele>
        <time>2018-09-21T14:45:36.000Z</time>
      </trkpt>
      <trkpt lat="46.72714" lon="-2.38908">
        <ele>4</ele>
        <time>2018-09-21T14:45:37.000Z</time>
      </trkpt>
      <trkpt lat="46.72714" lon="-2.38907">
        <ele>4</ele>
        <time>2018-09-21T14:45:38.000Z</time>
      </trkpt>
      <trkpt lat="46.72714" lon="-2.38905">
        <ele>3.9</ele>
        <time>2018-09-21T14:45:39.000Z</time>
      </trkpt>
      <trkpt lat="46.72715" lon="-2.38904">
        <ele>3.9</ele>
        <time>2018-09-21T14:45:40.000Z</time>
      </trkpt>
      <trkpt lat="46.72715" lon="-2.38903">
        <ele>3.8</ele>
        <time>2018-09-21T14:45:41.000Z</time>
      </trkpt>
      <trkpt lat="46.72716" lon="-2.38902">
        <ele>3.8</ele>
        <time>2018-09-21T14:45:42.000Z</time>
      </trkpt>
      <trkpt lat="46.72716" lon="-2.38901">
        <ele>3.7</ele>
        <time>2018-09-21T14:45:43.000Z</time>
      </trkpt>
      <trkpt lat="46.72717" lon="-2.389">
        <ele>3.7</ele>
        <time>2018-09-21T14:45:44.000Z</time>
      </trkpt>
      <trkpt lat="46.72717" lon="-2.38899">
        <ele>3.6</ele>
        <time>2018-09-21T14:45:45.000Z</time>
      </trkpt>
      <trkpt lat="46.72718" lon="-2.38898">
        <ele>3.6</ele>
        <time>2018-09-21T14:45:46.000Z</time>
      </trkpt>
      <trkpt lat="46.72719" lon="-2.38897">
        <ele>3.5</ele>
        <time>2018-09-21T14:45:47.000Z</time>
      </trkpt>
      <trkpt lat="46.7272" lon="-2.38896">
        <ele>3.4</ele>
        <time>2018-09-21T14:45:48.000Z</time>
      </trkpt>
      <trkpt lat="46.7272" lon="-2.38895">
        <ele>3.4</ele>
        <time>2018-09-21T14:45:49.000Z</time>
      </trkpt>
      <trkpt lat="46.72721" lon="-2.38894">
        <ele>3.3</ele>
        <time>2018-09-21T14:45:50.000Z</time>
      </trkpt>
      <trkpt lat="46.72721" lon="-2.38893">
        <ele>3.3</ele>
        <time>2018-09-21T14:45:51.000Z</time>
      </trkpt>
      <trkpt lat="46.72721" lon="-2.38892">
        <ele>3.3</ele>
        <time>2018-09-21T14:45:52.000Z</time>
      </trkpt>
      <trkpt lat="46.72721" lon="-2.38891">
        <ele>3.2</ele>
        <time>2018-09-21T14:45:53.000Z</time>
      </trkpt>
      <trkpt lat="46.72721" lon="-2.38889">
        <ele>3.2</ele>
        <time>2018-09-21T14:45:54.000Z</time>
      </trkpt>
      <trkpt lat="46.7272" lon="-2.38888">
        <ele>3.2</ele>
        <time>2018-09-21T14:45:55.000Z</time>
      </trkpt>
      <trkpt lat="46.7272" lon="-2.38887">
        <ele>3.2</ele>
        <time>2018-09-21T14:45:56.000Z</time>
      </trkpt>
      <trkpt lat="46.7272" lon="-2.38885">
        <ele>3.2</ele>
        <time>2018-09-21T14:45:57.000Z</time>
      </trkpt>
      <trkpt lat="46.72719" lon="-2.38884">
        <ele>3.2</ele>
        <time>2018-09-21T14:45:58.000Z</time>
      </trkpt>
      <trkpt lat="46.72719" lon="-2.38882">
        <ele>3.2</ele>
        <time>2018-09-21T14:45:59.000Z</time>
      </trkpt>
      <trkpt lat="46.72718" lon="-2.38881">
        <ele>3.2</ele>
        <time>2018-09-21T14:46:00.000Z</time>
      </trkpt>
      <trkpt lat="46.72718" lon="-2.38879">
        <ele>3.2</ele>
        <time>2018-09-21T14:46:01.000Z</time>
      </trkpt>
      <trkpt lat="46.72717" lon="-2.38878">
        <ele>3.2</ele>
        <time>2018-09-21T14:46:02.000Z</time>
      </trkpt>
      <trkpt lat="46.72716" lon="-2.38877">
        <ele>3.3</ele>
        <time>2018-09-21T14:46:03.000Z</time>
      </trkpt>
      <trkpt lat="46.72716" lon="-2.38876">
        <ele>3.3</ele>
        <time>2018-09-21T14:46:04.000Z</time>
      </trkpt>
      <trkpt lat="46.72716" lon="-2.38876">
        <ele>3.3</ele>
        <time>2018-09-21T14:46:05.000Z</time>
      </trkpt>
      <trkpt lat="46.72715" lon="-2.38875">
        <ele>3.3</ele>
        <time>2018-09-21T14:46:06.000Z</time>
      </trkpt>
      <trkpt lat="46.72715" lon="-2.38875">
        <ele>3.3</ele>
        <time>2018-09-21T14:46:07.000Z</time>
      </trkpt>
      <trkpt lat="46.72714" lon="-2.38874">
        <ele>3.3</ele>
        <time>2018-09-21T14:46:08.000Z</time>
      </trkpt>
      <trkpt lat="46.72714" lon="-2.38873">
        <ele>3.4</ele>
        <time>2018-09-21T14:46:09.000Z</time>
      </trkpt>
      <trkpt lat="46.72713" lon="-2.38872">
        <ele>3.4</ele>
        <time>2018-09-21T14:46:10.000Z</time>
      </trkpt>
      <trkpt lat="46.72712" lon="-2.38871">
        <ele>3.4</ele>
        <time>2018-09-21T14:46:11.000Z</time>
      </trkpt>
      <trkpt lat="46.72712" lon="-2.38869">
        <ele>3.4</ele>
        <time>2018-09-21T14:46:12.000Z</time>
      </trkpt>
      <trkpt lat="46.72711" lon="-2.38868">
        <ele>3.5</ele>
        <time>2018-09-21T14:46:13.000Z</time>
      </trkpt>
      <trkpt lat="46.7271" lon="-2.38867">
        <ele>3.5</ele>
        <time>2018-09-21T14:46:14.000Z</time>
      </trkpt>
      <trkpt lat="46.72709" lon="-2.38865">
        <ele>3.5</ele>
        <time>2018-09-21T14:46:15.000Z</time>
      </trkpt>
      <trkpt lat="46.72708" lon="-2.38864">
        <ele>3.6</ele>
        <time>2018-09-21T14:46:16.000Z</time>
      </trkpt>
      <trkpt lat="46.72707" lon="-2.38863">
        <ele>3.6</ele>
        <time>2018-09-21T14:46:17.000Z</time>
      </trkpt>
      <trkpt lat="46.72707" lon="-2.38861">
        <ele>3.6</ele>
        <time>2018-09-21T14:46:18.000Z</time>
      </trkpt>
      <trkpt lat="46.72706" lon="-2.3886">
        <ele>3.7</ele>
        <time>2018-09-21T14:46:19.000Z</time>
      </trkpt>
      <trkpt lat="46.72705" lon="-2.38859">
        <ele>3.7</ele>
        <time>2018-09-21T14:46:20.000Z</time>
      </trkpt>
      <trkpt lat="46.72704" lon="-2.38858">
        <ele>3.7</ele>
        <time>2018-09-21T14:46:21.000Z</time>
      </trkpt>
      <trkpt lat="46.72703" lon="-2.38856">
        <ele>3.8</ele>
        <time>2018-09-21T14:46:22.000Z</time>
      </trkpt>
      <trkpt lat="46.72703" lon="-2.38855">
        <ele>3.8</ele>
        <time>2018-09-21T14:46:23.000Z</time>
      </trkpt>
      <trkpt lat="46.72702" lon="-2.38854">
        <ele>3.8</ele>
        <time>2018-09-21T14:46:24.000Z</time>
      </trkpt>
      <trkpt lat="46.72701" lon="-2.38853">
        <ele>3.9</ele>
        <time>2018-09-21T14:46:25.000Z</time>
      </trkpt>
      <trkpt lat="46.727" lon="-2.38852">
        <ele>3.9</ele>
        <time>2018-09-21T14:46:26.000Z</time>
      </trkpt>
      <trkpt lat="46.727" lon="-2.38851">
        <ele>3.9</ele>
        <time>2018-09-21T14:46:27.000Z</time>
      </trkpt>
      <trkpt lat="46.72699" lon="-2.38849">
        <ele>4</ele>
        <time>2018-09-21T14:46:28.000Z</time>
      </trkpt>
      <trkpt lat="46.72698" lon="-2.38848">
        <ele>4</ele>
        <time>2018-09-21T14:46:29.000Z</time>
      </trkpt>
      <trkpt lat="46.72698" lon="-2.38847">
        <ele>4</ele>
        <time>2018-09-21T14:46:30.000Z</time>
      </trkpt>
      <trkpt lat="46.72697" lon="-2.38846">
        <ele>4</ele>
        <time>2018-09-21T14:46:31.000Z</time>
      </trkpt>
      <trkpt lat="46.72696" lon="-2.38845">
        <ele>4.1</ele>
        <time>2018-09-21T14:46:32.000Z</time>
      </trkpt>
      <trkpt lat="46.72696" lon="-2.38843">
        <ele>4.1</ele>
        <time>2018-09-21T14:46:33.000Z</time>
      </trkpt>
      <trkpt lat="46.72695" lon="-2.38842">
        <ele>4.1</ele>
        <time>2018-09-21T14:46:34.000Z</time>
      </trkpt>
      <trkpt lat="46.72695" lon="-2.38841">
        <ele>4.1</ele>
        <time>2018-09-21T14:46:35.000Z</time>
      </trkpt>
      <trkpt lat="46.72694" lon="-2.38839">
        <ele>4.1</ele>
        <time>2018-09-21T14:46:36.000Z</time>
      </trkpt>
      <trkpt lat="46.72694" lon="-2.38838">
        <ele>4.1</ele>
        <time>2018-09-21T14:46:37.000Z</time>
      </trkpt>
      <trkpt lat="46.72694" lon="-2.38837">
        <ele>4.1</ele>
        <time>2018-09-21T14:46:38.000Z</time>
      </trkpt>
      <trkpt lat="46.72693" lon="-2.38835">
        <ele>4.1</ele>
        <time>2018-09-21T14:46:39.000Z</time>
      </trkpt>
      <trkpt lat="46.72693" lon="-2.38834">
        <ele>4.1</ele>
        <time>2018-09-21T14:46:40.000Z</time>
      </trkpt>
      <trkpt lat="46.72693" lon="-2.38833">
        <ele>4.1</ele>
        <time>2018-09-21T14:46:41.000Z</time>
      </trkpt>
      <trkpt lat="46.72693" lon="-2.38831">
        <ele>4.1</ele>
        <time>2018-09-21T14:46:42.000Z</time>
      </trkpt>
      <trkpt lat="46.72693" lon="-2.3883">
        <ele>4.1</ele>
        <time>2018-09-21T14:46:43.000Z</time>
      </trkpt>
      <trkpt lat="46.72692" lon="-2.38829">
        <ele>4.1</ele>
        <time>2018-09-21T14:46:44.000Z</time>
      </trkpt>
      <trkpt lat="46.72692" lon="-2.38827">
        <ele>4.1</ele>
        <time>2018-09-21T14:46:45.000Z</time>
      </trkpt>
      <trkpt lat="46.72692" lon="-2.38826">
        <ele>4.1</ele>
        <time>2018-09-21T14:46:46.000Z</time>
      </trkpt>
      <trkpt lat="46.72692" lon="-2.38824">
        <ele>4.1</ele>
        <time>2018-09-21T14:46:47.000Z</time>
      </trkpt>
      <trkpt lat="46.72692" lon="-2.38823">
        <ele>4.1</ele>
        <time>2018-09-21T14:46:48.000Z</time>
      </trkpt>
      <trkpt lat="46.72693" lon="-2.38821">
        <ele>4.1</ele>
        <time>2018-09-21T14:46:49.000Z</time>
      </trkpt>
      <trkpt lat="46.72693" lon="-2.3882">
        <ele>4.1</ele>
        <time>2018-09-21T14:46:50.000Z</time>
      </trkpt>
      <trkpt lat="46.72693" lon="-2.38819">
        <ele>4.1</ele>
        <time>2018-09-21T14:46:51.000Z</time>
      </trkpt>
      <trkpt lat="46.72693" lon="-2.38817">
        <ele>4</ele>
        <time>2018-09-21T14:46:52.000Z</time>
      </trkpt>
      <trkpt lat="46.72693" lon="-2.38816">
        <ele>4</ele>
        <time>2018-09-21T14:46:53.000Z</time>
      </trkpt>
      <trkpt lat="46.72694" lon="-2.38814">
        <ele>4</ele>
        <time>2018-09-21T14:46:54.000Z</time>
      </trkpt>
      <trkpt lat="46.72694" lon="-2.38813">
        <ele>4</ele>
        <time>2018-09-21T14:46:55.000Z</time>
      </trkpt>
      <trkpt lat="46.72694" lon="-2.38812">
        <ele>3.9</ele>
        <time>2018-09-21T14:46:56.000Z</time>
      </trkpt>
      <trkpt lat="46.72695" lon="-2.3881">
        <ele>3.9</ele>
        <time>2018-09-21T14:46:57.000Z</time>
      </trkpt>
      <trkpt lat="46.72695" lon="-2.38809">
        <ele>3.9</ele>
        <time>2018-09-21T14:46:58.000Z</time>
      </trkpt>
      <trkpt lat="46.72695" lon="-2.38808">
        <ele>3.8</ele>
        <time>2018-09-21T14:46:59.000Z</time>
      </trkpt>
      <trkpt lat="46.72696" lon="-2.38807">
        <ele>3.8</ele>
        <time>2018-09-21T14:47:00.000Z</time>
      </trkpt>
      <trkpt lat="46.72696" lon="-2.38805">
        <ele>3.8</ele>
        <time>2018-09-21T14:47:01.000Z</time>
      </trkpt>
      <trkpt lat="46.72696" lon="-2.38804">
        <ele>3.8</ele>
        <time>2018-09-21T14:47:02.000Z</time>
      </trkpt>
      <trkpt lat="46.72697" lon="-2.38803">
        <ele>3.7</ele>
        <time>2018-09-21T14:47:03.000Z</time>
      </trkpt>
      <trkpt lat="46.72697" lon="-2.38802">
        <ele>3.7</ele>
        <time>2018-09-21T14:47:04.000Z</time>
      </trkpt>
      <trkpt lat="46.72697" lon="-2.38801">
        <ele>3.7</ele>
        <time>2018-09-21T14:47:05.000Z</time>
      </trkpt>
      <trkpt lat="46.72698" lon="-2.388">
        <ele>3.7</ele>
        <time>2018-09-21T14:47:06.000Z</time>
      </trkpt>
      <trkpt lat="46.72698" lon="-2.38799">
        <ele>3.6</ele>
        <time>2018-09-21T14:47:07.000Z</time>
      </trkpt>
      <trkpt lat="46.72698" lon="-2.38798">
        <ele>3.6</ele>
        <time>2018-09-21T14:47:08.000Z</time>
      </trkpt>
      <trkpt lat="46.72699" lon="-2.38797">
        <ele>3.6</ele>
        <time>2018-09-21T14:47:09.000Z</time>
      </trkpt>
      <trkpt lat="46.72699" lon="-2.38796">
        <ele>3.6</ele>
        <time>2018-09-21T14:47:10.000Z</time>
      </trkpt>
      <trkpt lat="46.72699" lon="-2.38795">
        <ele>3.6</ele>
        <time>2018-09-21T14:47:11.000Z</time>
      </trkpt>
      <trkpt lat="46.72699" lon="-2.38795">
        <ele>3.6</ele>
        <time>2018-09-21T14:47:12.000Z</time>
      </trkpt>
      <trkpt lat="46.72699" lon="-2.38794">
        <ele>3.6</ele>
        <time>2018-09-21T14:47:13.000Z</time>
      </trkpt>
      <trkpt lat="46.72699" lon="-2.38793">
        <ele>3.6</ele>
        <time>2018-09-21T14:47:14.000Z</time>
      </trkpt>
      <trkpt lat="46.72699" lon="-2.38793">
        <ele>3.6</ele>
        <time>2018-09-21T14:47:15.000Z</time>
      </trkpt>
      <trkpt lat="46.72699" lon="-2.38792">
        <ele>3.5</ele>
        <time>2018-09-21T14:47:16.000Z</time>
      </trkpt>
      <trkpt lat="46.72699" lon="-2.38792">
        <ele>3.5</ele>
        <time>2018-09-21T14:47:17.000Z</time>
      </trkpt>
      <trkpt lat="46.72699" lon="-2.38792">
        <ele>3.5</ele>
        <time>2018-09-21T14:47:18.000Z</time>
      </trkpt>
      <trkpt lat="46.72699" lon="-2.38791">
        <ele>3.5</ele>
        <time>2018-09-21T14:47:19.000Z</time>
      </trkpt>
      <trkpt lat="46.72699" lon="-2.38791">
        <ele>3.5</ele>
        <time>2018-09-21T14:47:20.000Z</time>
      </trkpt>
      <trkpt lat="46.72699" lon="-2.38791">
        <ele>3.5</ele>
        <time>2018-09-21T14:47:21.000Z</time>
      </trkpt>
      <trkpt lat="46.72699" lon="-2.38791">
        <ele>3.5</ele>
        <time>2018-09-21T14:47:22.000Z</time>
      </trkpt>
      <trkpt lat="46.72699" lon="-2.38791">
        <ele>3.5</ele>
        <time>2018-09-21T14:47:23.000Z</time>
      </trkpt>
      <trkpt lat="46.72699" lon="-2.38791">
        <ele>3.5</ele>
        <time>2018-09-21T14:47:24.000Z</time>
      </trkpt>
      <trkpt lat="46.72699" lon="-2.38791">
        <ele>3.5</ele>
        <time>2018-09-21T14:47:25.000Z</time>
      </trkpt>
      <trkpt lat="46.72699" lon="-2.38791">
        <ele>3.6</ele>
        <time>2018-09-21T14:47:26.000Z</time>
      </trkpt>
      <trkpt lat="46.72699" lon="-2.38791">
        <ele>3.5</ele>
        <time>2018-09-21T14:47:27.000Z</time>
      </trkpt>
      <trkpt lat="46.72699" lon="-2.3879">
        <ele>3.5</ele>
        <time>2018-09-21T14:47:28.000Z</time>
      </trkpt>
      <trkpt lat="46.727" lon="-2.3879">
        <ele>3.5</ele>
        <time>2018-09-21T14:47:29.000Z</time>
      </trkpt>
      <trkpt lat="46.727" lon="-2.38789">
        <ele>3.5</ele>
        <time>2018-09-21T14:47:30.000Z</time>
      </trkpt>
      <trkpt lat="46.727" lon="-2.38789">
        <ele>3.5</ele>
        <time>2018-09-21T14:47:31.000Z</time>
      </trkpt>
      <trkpt lat="46.727" lon="-2.38788">
        <ele>3.5</ele>
        <time>2018-09-21T14:47:32.000Z</time>
      </trkpt>
      <trkpt lat="46.727" lon="-2.38788">
        <ele>3.5</ele>
        <time>2018-09-21T14:47:33.000Z</time>
      </trkpt>
      <trkpt lat="46.727" lon="-2.38787">
        <ele>3.5</ele>
        <time>2018-09-21T14:47:34.000Z</time>
      </trkpt>
      <trkpt lat="46.727" lon="-2.38786">
        <ele>3.5</ele>
        <time>2018-09-21T14:47:35.000Z</time>
      </trkpt>
      <trkpt lat="46.727" lon="-2.38785">
        <ele>3.5</ele>
        <time>2018-09-21T14:47:36.000Z</time>
      </trkpt>
      <trkpt lat="46.72701" lon="-2.38784">
        <ele>3.5</ele>
        <time>2018-09-21T14:47:37.000Z</time>
      </trkpt>
      <trkpt lat="46.72701" lon="-2.38784">
        <ele>3.4</ele>
        <time>2018-09-21T14:47:38.000Z</time>
      </trkpt>
      <trkpt lat="46.72701" lon="-2.38783">
        <ele>3.4</ele>
        <time>2018-09-21T14:47:39.000Z</time>
      </trkpt>
      <trkpt lat="46.72701" lon="-2.38781">
        <ele>3.4</ele>
        <time>2018-09-21T14:47:40.000Z</time>
      </trkpt>
      <trkpt lat="46.72701" lon="-2.3878">
        <ele>3.4</ele>
        <time>2018-09-21T14:47:41.000Z</time>
      </trkpt>
      <trkpt lat="46.72702" lon="-2.38779">
        <ele>3.4</ele>
        <time>2018-09-21T14:47:42.000Z</time>
      </trkpt>
      <trkpt lat="46.72702" lon="-2.38778">
        <ele>3.4</ele>
        <time>2018-09-21T14:47:43.000Z</time>
      </trkpt>
      <trkpt lat="46.72702" lon="-2.38777">
        <ele>3.3</ele>
        <time>2018-09-21T14:47:44.000Z</time>
      </trkpt>
      <trkpt lat="46.72702" lon="-2.38776">
        <ele>3.3</ele>
        <time>2018-09-21T14:47:45.000Z</time>
      </trkpt>
      <trkpt lat="46.72703" lon="-2.38774">
        <ele>3.3</ele>
        <time>2018-09-21T14:47:46.000Z</time>
      </trkpt>
      <trkpt lat="46.72703" lon="-2.38773">
        <ele>3.3</ele>
        <time>2018-09-21T14:47:47.000Z</time>
      </trkpt>
      <trkpt lat="46.72703" lon="-2.38772">
        <ele>3.3</ele>
        <time>2018-09-21T14:47:48.000Z</time>
      </trkpt>
      <trkpt lat="46.72703" lon="-2.38771">
        <ele>3.3</ele>
        <time>2018-09-21T14:47:49.000Z</time>
      </trkpt>
      <trkpt lat="46.72703" lon="-2.3877">
        <ele>3.3</ele>
        <time>2018-09-21T14:47:50.000Z</time>
      </trkpt>
      <trkpt lat="46.72702" lon="-2.38769">
        <ele>3.3</ele>
        <time>2018-09-21T14:47:51.000Z</time>
      </trkpt>
      <trkpt lat="46.72702" lon="-2.38768">
        <ele>3.3</ele>
        <time>2018-09-21T14:47:52.000Z</time>
      </trkpt>
      <trkpt lat="46.72702" lon="-2.38767">
        <ele>3.3</ele>
        <time>2018-09-21T14:47:53.000Z</time>
      </trkpt>
      <trkpt lat="46.72702" lon="-2.38766">
        <ele>3.3</ele>
        <time>2018-09-21T14:47:54.000Z</time>
      </trkpt>
      <trkpt lat="46.72702" lon="-2.38765">
        <ele>3.3</ele>
        <time>2018-09-21T14:47:55.000Z</time>
      </trkpt>
      <trkpt lat="46.72702" lon="-2.38764">
        <ele>3.3</ele>
        <time>2018-09-21T14:47:56.000Z</time>
      </trkpt>
      <trkpt lat="46.72702" lon="-2.38763">
        <ele>3.3</ele>
        <time>2018-09-21T14:47:57.000Z</time>
      </trkpt>
      <trkpt lat="46.72702" lon="-2.38762">
        <ele>3.3</ele>
        <time>2018-09-21T14:47:58.000Z</time>
      </trkpt>
      <trkpt lat="46.72702" lon="-2.38762">
        <ele>3.3</ele>
        <time>2018-09-21T14:47:59.000Z</time>
      </trkpt>
      <trkpt lat="46.72703" lon="-2.38761">
        <ele>3.3</ele>
        <time>2018-09-21T14:48:00.000Z</time>
      </trkpt>
      <trkpt lat="46.72703" lon="-2.3876">
        <ele>3.3</ele>
        <time>2018-09-21T14:48:01.000Z</time>
      </trkpt>
      <trkpt lat="46.72703" lon="-2.3876">
        <ele>3.3</ele>
        <time>2018-09-21T14:48:02.000Z</time>
      </trkpt>
      <trkpt lat="46.72702" lon="-2.38759">
        <ele>3.3</ele>
        <time>2018-09-21T14:48:03.000Z</time>
      </trkpt>
      <trkpt lat="46.72702" lon="-2.38759">
        <ele>3.3</ele>
        <time>2018-09-21T14:48:04.000Z</time>
      </trkpt>
      <trkpt lat="46.72702" lon="-2.38758">
        <ele>3.3</ele>
        <time>2018-09-21T14:48:05.000Z</time>
      </trkpt>
      <trkpt lat="46.72702" lon="-2.38757">
        <ele>3.3</ele>
        <time>2018-09-21T14:48:06.000Z</time>
      </trkpt>
      <trkpt lat="46.72702" lon="-2.38757">
        <ele>3.3</ele>
        <time>2018-09-21T14:48:07.000Z</time>
      </trkpt>
      <trkpt lat="46.72702" lon="-2.38756">
        <ele>3.3</ele>
        <time>2018-09-21T14:48:08.000Z</time>
      </trkpt>
      <trkpt lat="46.72702" lon="-2.38756">
        <ele>3.3</ele>
        <time>2018-09-21T14:48:09.000Z</time>
      </trkpt>
      <trkpt lat="46.72702" lon="-2.38755">
        <ele>3.3</ele>
        <time>2018-09-21T14:48:10.000Z</time>
      </trkpt>
      <trkpt lat="46.72702" lon="-2.38754">
        <ele>3.3</ele>
        <time>2018-09-21T14:48:11.000Z</time>
      </trkpt>
      <trkpt lat="46.72702" lon="-2.38753">
        <ele>3.3</ele>
        <time>2018-09-21T14:48:12.000Z</time>
      </trkpt>
      <trkpt lat="46.72702" lon="-2.38752">
        <ele>3.3</ele>
        <time>2018-09-21T14:48:13.000Z</time>
      </trkpt>
      <trkpt lat="46.72702" lon="-2.38752">
        <ele>3.3</ele>
        <time>2018-09-21T14:48:14.000Z</time>
      </trkpt>
      <trkpt lat="46.72702" lon="-2.38751">
        <ele>3.3</ele>
        <time>2018-09-21T14:48:15.000Z</time>
      </trkpt>
      <trkpt lat="46.72702" lon="-2.3875">
        <ele>3.3</ele>
        <time>2018-09-21T14:48:16.000Z</time>
      </trkpt>
      <trkpt lat="46.72703" lon="-2.38749">
        <ele>3.3</ele>
        <time>2018-09-21T14:48:17.000Z</time>
      </trkpt>
      <trkpt lat="46.72703" lon="-2.38748">
        <ele>3.3</ele>
        <time>2018-09-21T14:48:18.000Z</time>
      </trkpt>
      <trkpt lat="46.72703" lon="-2.38746">
        <ele>3.3</ele>
        <time>2018-09-21T14:48:19.000Z</time>
      </trkpt>
      <trkpt lat="46.72703" lon="-2.38745">
        <ele>3.3</ele>
        <time>2018-09-21T14:48:20.000Z</time>
      </trkpt>
      <trkpt lat="46.72704" lon="-2.38744">
        <ele>3.3</ele>
        <time>2018-09-21T14:48:21.000Z</time>
      </trkpt>
      <trkpt lat="46.72704" lon="-2.38743">
        <ele>3.2</ele>
        <time>2018-09-21T14:48:22.000Z</time>
      </trkpt>
      <trkpt lat="46.72704" lon="-2.38741">
        <ele>3.2</ele>
        <time>2018-09-21T14:48:23.000Z</time>
      </trkpt>
      <trkpt lat="46.72705" lon="-2.3874">
        <ele>3.2</ele>
        <time>2018-09-21T14:48:24.000Z</time>
      </trkpt>
      <trkpt lat="46.72705" lon="-2.38739">
        <ele>3.2</ele>
        <time>2018-09-21T14:48:25.000Z</time>
      </trkpt>
      <trkpt lat="46.72706" lon="-2.38737">
        <ele>3.2</ele>
        <time>2018-09-21T14:48:26.000Z</time>
      </trkpt>
      <trkpt lat="46.72706" lon="-2.38736">
        <ele>3.2</ele>
        <time>2018-09-21T14:48:27.000Z</time>
      </trkpt>
      <trkpt lat="46.72706" lon="-2.38735">
        <ele>3.2</ele>
        <time>2018-09-21T14:48:28.000Z</time>
      </trkpt>
      <trkpt lat="46.72707" lon="-2.38733">
        <ele>3.2</ele>
        <time>2018-09-21T14:48:29.000Z</time>
      </trkpt>
      <trkpt lat="46.72707" lon="-2.38732">
        <ele>3.2</ele>
        <time>2018-09-21T14:48:30.000Z</time>
      </trkpt>
      <trkpt lat="46.72708" lon="-2.38731">
        <ele>3.1</ele>
        <time>2018-09-21T14:48:31.000Z</time>
      </trkpt>
      <trkpt lat="46.72708" lon="-2.3873">
        <ele>3.1</ele>
        <time>2018-09-21T14:48:32.000Z</time>
      </trkpt>
      <trkpt lat="46.72708" lon="-2.38728">
        <ele>3.1</ele>
        <time>2018-09-21T14:48:33.000Z</time>
      </trkpt>
      <trkpt lat="46.72709" lon="-2.38727">
        <ele>3.1</ele>
        <time>2018-09-21T14:48:34.000Z</time>
      </trkpt>
      <trkpt lat="46.72709" lon="-2.38726">
        <ele>3.1</ele>
        <time>2018-09-21T14:48:35.000Z</time>
      </trkpt>
      <trkpt lat="46.7271" lon="-2.38725">
        <ele>3.1</ele>
        <time>2018-09-21T14:48:36.000Z</time>
      </trkpt>
      <trkpt lat="46.7271" lon="-2.38723">
        <ele>3.1</ele>
        <time>2018-09-21T14:48:37.000Z</time>
      </trkpt>
      <trkpt lat="46.7271" lon="-2.38722">
        <ele>3.1</ele>
        <time>2018-09-21T14:48:38.000Z</time>
      </trkpt>
      <trkpt lat="46.72711" lon="-2.38721">
        <ele>3.1</ele>
        <time>2018-09-21T14:48:39.000Z</time>
      </trkpt>
      <trkpt lat="46.72711" lon="-2.3872">
        <ele>3.1</ele>
        <time>2018-09-21T14:48:40.000Z</time>
      </trkpt>
      <trkpt lat="46.72712" lon="-2.38718">
        <ele>3.1</ele>
        <time>2018-09-21T14:48:41.000Z</time>
      </trkpt>
      <trkpt lat="46.72712" lon="-2.38717">
        <ele>3.1</ele>
        <time>2018-09-21T14:48:42.000Z</time>
      </trkpt>
      <trkpt lat="46.72712" lon="-2.38716">
        <ele>3.1</ele>
        <time>2018-09-21T14:48:43.000Z</time>
      </trkpt>
      <trkpt lat="46.72713" lon="-2.38715">
        <ele>3.1</ele>
        <time>2018-09-21T14:48:44.000Z</time>
      </trkpt>
      <trkpt lat="46.72713" lon="-2.38714">
        <ele>3.1</ele>
        <time>2018-09-21T14:48:45.000Z</time>
      </trkpt>
      <trkpt lat="46.72714" lon="-2.38712">
        <ele>3.1</ele>
        <time>2018-09-21T14:48:46.000Z</time>
      </trkpt>
      <trkpt lat="46.72714" lon="-2.38711">
        <ele>3.1</ele>
        <time>2018-09-21T14:48:47.000Z</time>
      </trkpt>
      <trkpt lat="46.72714" lon="-2.3871">
        <ele>3.1</ele>
        <time>2018-09-21T14:48:48.000Z</time>
      </trkpt>
      <trkpt lat="46.72715" lon="-2.38709">
        <ele>3.1</ele>
        <time>2018-09-21T14:48:49.000Z</time>
      </trkpt>
      <trkpt lat="46.72715" lon="-2.38708">
        <ele>3.1</ele>
        <time>2018-09-21T14:48:50.000Z</time>
      </trkpt>
      <trkpt lat="46.72716" lon="-2.38706">
        <ele>3</ele>
        <time>2018-09-21T14:48:51.000Z</time>
      </trkpt>
      <trkpt lat="46.72716" lon="-2.38705">
        <ele>3</ele>
        <time>2018-09-21T14:48:52.000Z</time>
      </trkpt>
      <trkpt lat="46.72716" lon="-2.38704">
        <ele>3</ele>
        <time>2018-09-21T14:48:53.000Z</time>
      </trkpt>
      <trkpt lat="46.72717" lon="-2.38703">
        <ele>3</ele>
        <time>2018-09-21T14:48:54.000Z</time>
      </trkpt>
      <trkpt lat="46.72717" lon="-2.38702">
        <ele>3.1</ele>
        <time>2018-09-21T14:48:55.000Z</time>
      </trkpt>
      <trkpt lat="46.72718" lon="-2.387">
        <ele>3.1</ele>
        <time>2018-09-21T14:48:56.000Z</time>
      </trkpt>
      <trkpt lat="46.72718" lon="-2.38699">
        <ele>3.1</ele>
        <time>2018-09-21T14:48:57.000Z</time>
      </trkpt>
      <trkpt lat="46.72719" lon="-2.38698">
        <ele>3.1</ele>
        <time>2018-09-21T14:48:58.000Z</time>
      </trkpt>
      <trkpt lat="46.72719" lon="-2.38697">
        <ele>3.1</ele>
        <time>2018-09-21T14:48:59.000Z</time>
      </trkpt>
      <trkpt lat="46.72719" lon="-2.38695">
        <ele>3.1</ele>
        <time>2018-09-21T14:49:00.000Z</time>
      </trkpt>
      <trkpt lat="46.7272" lon="-2.38694">
        <ele>3.1</ele>
        <time>2018-09-21T14:49:01.000Z</time>
      </trkpt>
      <trkpt lat="46.7272" lon="-2.38693">
        <ele>3.1</ele>
        <time>2018-09-21T14:49:02.000Z</time>
      </trkpt>
      <trkpt lat="46.72721" lon="-2.38692">
        <ele>3.1</ele>
        <time>2018-09-21T14:49:03.000Z</time>
      </trkpt>
      <trkpt lat="46.72721" lon="-2.3869">
        <ele>3.1</ele>
        <time>2018-09-21T14:49:04.000Z</time>
      </trkpt>
      <trkpt lat="46.72722" lon="-2.38689">
        <ele>3.1</ele>
        <time>2018-09-21T14:49:05.000Z</time>
      </trkpt>
      <trkpt lat="46.72722" lon="-2.38688">
        <ele>3.1</ele>
        <time>2018-09-21T14:49:06.000Z</time>
      </trkpt>
      <trkpt lat="46.72722" lon="-2.38686">
        <ele>3.1</ele>
        <time>2018-09-21T14:49:07.000Z</time>
      </trkpt>
      <trkpt lat="46.72723" lon="-2.38685">
        <ele>3.1</ele>
        <time>2018-09-21T14:49:08.000Z</time>
      </trkpt>
      <trkpt lat="46.72723" lon="-2.38684">
        <ele>3.1</ele>
        <time>2018-09-21T14:49:09.000Z</time>
      </trkpt>
      <trkpt lat="46.72724" lon="-2.38682">
        <ele>3.1</ele>
        <time>2018-09-21T14:49:10.000Z</time>
      </trkpt>
      <trkpt lat="46.72724" lon="-2.38681">
        <ele>3.1</ele>
        <time>2018-09-21T14:49:11.000Z</time>
      </trkpt>
      <trkpt lat="46.72725" lon="-2.38679">
        <ele>3.1</ele>
        <time>2018-09-21T14:49:12.000Z</time>
      </trkpt>
      <trkpt lat="46.72725" lon="-2.38678">
        <ele>3.1</ele>
        <time>2018-09-21T14:49:13.000Z</time>
      </trkpt>
      <trkpt lat="46.72726" lon="-2.38677">
        <ele>3.2</ele>
        <time>2018-09-21T14:49:14.000Z</time>
      </trkpt>
      <trkpt lat="46.72726" lon="-2.38676">
        <ele>3.2</ele>
        <time>2018-09-21T14:49:15.000Z</time>
      </trkpt>
      <trkpt lat="46.72727" lon="-2.38674">
        <ele>3.2</ele>
        <time>2018-09-21T14:49:16.000Z</time>
      </trkpt>
      <trkpt lat="46.72727" lon="-2.38673">
        <ele>3.2</ele>
        <time>2018-09-21T14:49:17.000Z</time>
      </trkpt>
      <trkpt lat="46.72728" lon="-2.38672">
        <ele>3.2</ele>
        <time>2018-09-21T14:49:18.000Z</time>
      </trkpt>
      <trkpt lat="46.72729" lon="-2.38671">
        <ele>3.2</ele>
        <time>2018-09-21T14:49:19.000Z</time>
      </trkpt>
      <trkpt lat="46.72729" lon="-2.38669">
        <ele>3.2</ele>
        <time>2018-09-21T14:49:20.000Z</time>
      </trkpt>
      <trkpt lat="46.7273" lon="-2.38668">
        <ele>3.2</ele>
        <time>2018-09-21T14:49:21.000Z</time>
      </trkpt>
      <trkpt lat="46.7273" lon="-2.38667">
        <ele>3.2</ele>
        <time>2018-09-21T14:49:22.000Z</time>
      </trkpt>
      <trkpt lat="46.72731" lon="-2.38666">
        <ele>3.2</ele>
        <time>2018-09-21T14:49:23.000Z</time>
      </trkpt>
      <trkpt lat="46.72731" lon="-2.38665">
        <ele>3.2</ele>
        <time>2018-09-21T14:49:24.000Z</time>
      </trkpt>
      <trkpt lat="46.72732" lon="-2.38664">
        <ele>3.2</ele>
        <time>2018-09-21T14:49:25.000Z</time>
      </trkpt>
      <trkpt lat="46.72732" lon="-2.38663">
        <ele>3.3</ele>
        <time>2018-09-21T14:49:26.000Z</time>
      </trkpt>
      <trkpt lat="46.72733" lon="-2.38662">
        <ele>3.3</ele>
        <time>2018-09-21T14:49:27.000Z</time>
      </trkpt>
      <trkpt lat="46.72733" lon="-2.38661">
        <ele>3.3</ele>
        <time>2018-09-21T14:49:28.000Z</time>
      </trkpt>
      <trkpt lat="46.72734" lon="-2.3866">
        <ele>3.3</ele>
        <time>2018-09-21T14:49:29.000Z</time>
      </trkpt>
      <trkpt lat="46.72734" lon="-2.38659">
        <ele>3.3</ele>
        <time>2018-09-21T14:49:30.000Z</time>
      </trkpt>
      <trkpt lat="46.72735" lon="-2.38658">
        <ele>3.3</ele>
        <time>2018-09-21T14:49:31.000Z</time>
      </trkpt>
      <trkpt lat="46.72735" lon="-2.38658">
        <ele>3.3</ele>
        <time>2018-09-21T14:49:32.000Z</time>
      </trkpt>
      <trkpt lat="46.72735" lon="-2.38657">
        <ele>3.3</ele>
        <time>2018-09-21T14:49:33.000Z</time>
      </trkpt>
      <trkpt lat="46.72736" lon="-2.38657">
        <ele>3.3</ele>
        <time>2018-09-21T14:49:34.000Z</time>
      </trkpt>
      <trkpt lat="46.72736" lon="-2.38656">
        <ele>3.3</ele>
        <time>2018-09-21T14:49:35.000Z</time>
      </trkpt>
      <trkpt lat="46.72736" lon="-2.38656">
        <ele>3.3</ele>
        <time>2018-09-21T14:49:36.000Z</time>
      </trkpt>
      <trkpt lat="46.72737" lon="-2.38657">
        <ele>3.3</ele>
        <time>2018-09-21T14:49:37.000Z</time>
      </trkpt>
      <trkpt lat="46.72737" lon="-2.38657">
        <ele>3.3</ele>
        <time>2018-09-21T14:49:38.000Z</time>
      </trkpt>
      <trkpt lat="46.72737" lon="-2.38657">
        <ele>3.3</ele>
        <time>2018-09-21T14:49:39.000Z</time>
      </trkpt>
      <trkpt lat="46.72737" lon="-2.38657">
        <ele>3.3</ele>
        <time>2018-09-21T14:49:40.000Z</time>
      </trkpt>
      <trkpt lat="46.72738" lon="-2.38657">
        <ele>3.3</ele>
        <time>2018-09-21T14:49:41.000Z</time>
      </trkpt>
      <trkpt lat="46.72738" lon="-2.38657">
        <ele>3.3</ele>
        <time>2018-09-21T14:49:42.000Z</time>
      </trkpt>
      <trkpt lat="46.72738" lon="-2.38657">
        <ele>3.3</ele>
        <time>2018-09-21T14:49:43.000Z</time>
      </trkpt>
      <trkpt lat="46.72738" lon="-2.38657">
        <ele>3.3</ele>
        <time>2018-09-21T14:49:44.000Z</time>
      </trkpt>
      <trkpt lat="46.72738" lon="-2.38657">
        <ele>3.3</ele>
        <time>2018-09-21T14:49:45.000Z</time>
      </trkpt>
      <trkpt lat="46.72739" lon="-2.38656">
        <ele>3.3</ele>
        <time>2018-09-21T14:49:46.000Z</time>
      </trkpt>
      <trkpt lat="46.72739" lon="-2.38655">
        <ele>3.3</ele>
        <time>2018-09-21T14:49:47.000Z</time>
      </trkpt>
      <trkpt lat="46.72739" lon="-2.38655">
        <ele>3.3</ele>
        <time>2018-09-21T14:49:48.000Z</time>
      </trkpt>
      <trkpt lat="46.72739" lon="-2.38654">
        <ele>3.3</ele>
        <time>2018-09-21T14:49:49.000Z</time>
      </trkpt>
      <trkpt lat="46.72739" lon="-2.38653">
        <ele>3.3</ele>
        <time>2018-09-21T14:49:50.000Z</time>
      </trkpt>
      <trkpt lat="46.7274" lon="-2.38652">
        <ele>3.3</ele>
        <time>2018-09-21T14:49:51.000Z</time>
      </trkpt>
      <trkpt lat="46.7274" lon="-2.38651">
        <ele>3.3</ele>
        <time>2018-09-21T14:49:52.000Z</time>
      </trkpt>
      <trkpt lat="46.7274" lon="-2.3865">
        <ele>3.3</ele>
        <time>2018-09-21T14:49:53.000Z</time>
      </trkpt>
      <trkpt lat="46.72741" lon="-2.38649">
        <ele>3.3</ele>
        <time>2018-09-21T14:49:54.000Z</time>
      </trkpt>
      <trkpt lat="46.72741" lon="-2.38648">
        <ele>3.3</ele>
        <time>2018-09-21T14:49:55.000Z</time>
      </trkpt>
      <trkpt lat="46.72742" lon="-2.38647">
        <ele>3.3</ele>
        <time>2018-09-21T14:49:56.000Z</time>
      </trkpt>
      <trkpt lat="46.72742" lon="-2.38646">
        <ele>3.3</ele>
        <time>2018-09-21T14:49:57.000Z</time>
      </trkpt>
      <trkpt lat="46.72743" lon="-2.38644">
        <ele>3.4</ele>
        <time>2018-09-21T14:49:58.000Z</time>
      </trkpt>
      <trkpt lat="46.72743" lon="-2.38643">
        <ele>3.4</ele>
        <time>2018-09-21T14:49:59.000Z</time>
      </trkpt>
      <trkpt lat="46.72744" lon="-2.38642">
        <ele>3.4</ele>
        <time>2018-09-21T14:50:00.000Z</time>
      </trkpt>
      <trkpt lat="46.72744" lon="-2.38641">
        <ele>3.4</ele>
        <time>2018-09-21T14:50:01.000Z</time>
      </trkpt>
      <trkpt lat="46.72745" lon="-2.3864">
        <ele>3.4</ele>
        <time>2018-09-21T14:50:02.000Z</time>
      </trkpt>
      <trkpt lat="46.72745" lon="-2.38639">
        <ele>3.4</ele>
        <time>2018-09-21T14:50:03.000Z</time>
      </trkpt>
      <trkpt lat="46.72746" lon="-2.38639">
        <ele>3.4</ele>
        <time>2018-09-21T14:50:04.000Z</time>
      </trkpt>
      <trkpt lat="46.72746" lon="-2.38638">
        <ele>3.4</ele>
        <time>2018-09-21T14:50:05.000Z</time>
      </trkpt>
      <trkpt lat="46.72747" lon="-2.38637">
        <ele>3.4</ele>
        <time>2018-09-21T14:50:06.000Z</time>
      </trkpt>
      <trkpt lat="46.72747" lon="-2.38637">
        <ele>3.4</ele>
        <time>2018-09-21T14:50:07.000Z</time>
      </trkpt>
      <trkpt lat="46.72748" lon="-2.38636">
        <ele>3.4</ele>
        <time>2018-09-21T14:50:08.000Z</time>
      </trkpt>
      <trkpt lat="46.72748" lon="-2.38636">
        <ele>3.4</ele>
        <time>2018-09-21T14:50:09.000Z</time>
      </trkpt>
      <trkpt lat="46.72749" lon="-2.38636">
        <ele>3.4</ele>
        <time>2018-09-21T14:50:10.000Z</time>
      </trkpt>
      <trkpt lat="46.7275" lon="-2.38636">
        <ele>3.4</ele>
        <time>2018-09-21T14:50:11.000Z</time>
      </trkpt>
      <trkpt lat="46.7275" lon="-2.38635">
        <ele>3.4</ele>
        <time>2018-09-21T14:50:12.000Z</time>
      </trkpt>
      <trkpt lat="46.72751" lon="-2.38635">
        <ele>3.4</ele>
        <time>2018-09-21T14:50:13.000Z</time>
      </trkpt>
      <trkpt lat="46.72752" lon="-2.38635">
        <ele>3.4</ele>
        <time>2018-09-21T14:50:14.000Z</time>
      </trkpt>
      <trkpt lat="46.72753" lon="-2.38636">
        <ele>3.4</ele>
        <time>2018-09-21T14:50:15.000Z</time>
      </trkpt>
      <trkpt lat="46.72753" lon="-2.38636">
        <ele>3.4</ele>
        <time>2018-09-21T14:50:16.000Z</time>
      </trkpt>
      <trkpt lat="46.72754" lon="-2.38636">
        <ele>3.4</ele>
        <time>2018-09-21T14:50:17.000Z</time>
      </trkpt>
      <trkpt lat="46.72755" lon="-2.38636">
        <ele>3.4</ele>
        <time>2018-09-21T14:50:18.000Z</time>
      </trkpt>
      <trkpt lat="46.72756" lon="-2.38636">
        <ele>3.4</ele>
        <time>2018-09-21T14:50:19.000Z</time>
      </trkpt>
      <trkpt lat="46.72757" lon="-2.38636">
        <ele>3.4</ele>
        <time>2018-09-21T14:50:20.000Z</time>
      </trkpt>
      <trkpt lat="46.72758" lon="-2.38637">
        <ele>3.4</ele>
        <time>2018-09-21T14:50:21.000Z</time>
      </trkpt>
      <trkpt lat="46.72759" lon="-2.38637">
        <ele>3.4</ele>
        <time>2018-09-21T14:50:22.000Z</time>
      </trkpt>
      <trkpt lat="46.72761" lon="-2.38637">
        <ele>3.4</ele>
        <time>2018-09-21T14:50:23.000Z</time>
      </trkpt>
      <trkpt lat="46.72762" lon="-2.38637">
        <ele>3.4</ele>
        <time>2018-09-21T14:50:24.000Z</time>
      </trkpt>
      <trkpt lat="46.72763" lon="-2.38637">
        <ele>3.4</ele>
        <time>2018-09-21T14:50:25.000Z</time>
      </trkpt>
      <trkpt lat="46.72764" lon="-2.38637">
        <ele>3.4</ele>
        <time>2018-09-21T14:50:26.000Z</time>
      </trkpt>
      <trkpt lat="46.72765" lon="-2.38637">
        <ele>3.4</ele>
        <time>2018-09-21T14:50:27.000Z</time>
      </trkpt>
      <trkpt lat="46.72766" lon="-2.38637">
        <ele>3.4</ele>
        <time>2018-09-21T14:50:28.000Z</time>
      </trkpt>
      <trkpt lat="46.72767" lon="-2.38637">
        <ele>3.4</ele>
        <time>2018-09-21T14:50:29.000Z</time>
      </trkpt>
      <trkpt lat="46.72768" lon="-2.38637">
        <ele>3.4</ele>
        <time>2018-09-21T14:50:30.000Z</time>
      </trkpt>
      <trkpt lat="46.72768" lon="-2.38637">
        <ele>3.4</ele>
        <time>2018-09-21T14:50:31.000Z</time>
      </trkpt>
      <trkpt lat="46.72769" lon="-2.38637">
        <ele>3.4</ele>
        <time>2018-09-21T14:50:32.000Z</time>
      </trkpt>
      <trkpt lat="46.7277" lon="-2.38636">
        <ele>3.4</ele>
        <time>2018-09-21T14:50:33.000Z</time>
      </trkpt>
      <trkpt lat="46.72771" lon="-2.38636">
        <ele>3.5</ele>
        <time>2018-09-21T14:50:34.000Z</time>
      </trkpt>
      <trkpt lat="46.72771" lon="-2.38636">
        <ele>3.5</ele>
        <time>2018-09-21T14:50:35.000Z</time>
      </trkpt>
      <trkpt lat="46.72772" lon="-2.38636">
        <ele>3.5</ele>
        <time>2018-09-21T14:50:36.000Z</time>
      </trkpt>
      <trkpt lat="46.72773" lon="-2.38635">
        <ele>3.5</ele>
        <time>2018-09-21T14:50:37.000Z</time>
      </trkpt>
      <trkpt lat="46.72773" lon="-2.38635">
        <ele>3.5</ele>
        <time>2018-09-21T14:50:38.000Z</time>
      </trkpt>
      <trkpt lat="46.72774" lon="-2.38635">
        <ele>3.5</ele>
        <time>2018-09-21T14:50:39.000Z</time>
      </trkpt>
      <trkpt lat="46.72775" lon="-2.38635">
        <ele>3.5</ele>
        <time>2018-09-21T14:50:40.000Z</time>
      </trkpt>
      <trkpt lat="46.72776" lon="-2.38635">
        <ele>3.5</ele>
        <time>2018-09-21T14:50:41.000Z</time>
      </trkpt>
      <trkpt lat="46.72777" lon="-2.38635">
        <ele>3.5</ele>
        <time>2018-09-21T14:50:42.000Z</time>
      </trkpt>
      <trkpt lat="46.72777" lon="-2.38635">
        <ele>3.5</ele>
        <time>2018-09-21T14:50:43.000Z</time>
      </trkpt>
      <trkpt lat="46.72778" lon="-2.38635">
        <ele>3.5</ele>
        <time>2018-09-21T14:50:44.000Z</time>
      </trkpt>
      <trkpt lat="46.72779" lon="-2.38635">
        <ele>3.5</ele>
        <time>2018-09-21T14:50:45.000Z</time>
      </trkpt>
      <trkpt lat="46.7278" lon="-2.38635">
        <ele>3.5</ele>
        <time>2018-09-21T14:50:46.000Z</time>
      </trkpt>
      <trkpt lat="46.72781" lon="-2.38635">
        <ele>3.5</ele>
        <time>2018-09-21T14:50:47.000Z</time>
      </trkpt>
      <trkpt lat="46.72782" lon="-2.38635">
        <ele>3.5</ele>
        <time>2018-09-21T14:50:48.000Z</time>
      </trkpt>
      <trkpt lat="46.72783" lon="-2.38635">
        <ele>3.5</ele>
        <time>2018-09-21T14:50:49.000Z</time>
      </trkpt>
      <trkpt lat="46.72784" lon="-2.38635">
        <ele>3.5</ele>
        <time>2018-09-21T14:50:50.000Z</time>
      </trkpt>
      <trkpt lat="46.72785" lon="-2.38635">
        <ele>3.5</ele>
        <time>2018-09-21T14:50:51.000Z</time>
      </trkpt>
      <trkpt lat="46.72786" lon="-2.38635">
        <ele>3.5</ele>
        <time>2018-09-21T14:50:52.000Z</time>
      </trkpt>
      <trkpt lat="46.72786" lon="-2.38636">
        <ele>3.5</ele>
        <time>2018-09-21T14:50:53.000Z</time>
      </trkpt>
      <trkpt lat="46.72787" lon="-2.38636">
        <ele>3.5</ele>
        <time>2018-09-21T14:50:54.000Z</time>
      </trkpt>
      <trkpt lat="46.72788" lon="-2.38636">
        <ele>3.5</ele>
        <time>2018-09-21T14:50:55.000Z</time>
      </trkpt>
      <trkpt lat="46.72789" lon="-2.38637">
        <ele>3.5</ele>
        <time>2018-09-21T14:50:56.000Z</time>
      </trkpt>
      <trkpt lat="46.7279" lon="-2.38637">
        <ele>3.5</ele>
        <time>2018-09-21T14:50:57.000Z</time>
      </trkpt>
      <trkpt lat="46.72791" lon="-2.38638">
        <ele>3.5</ele>
        <time>2018-09-21T14:50:58.000Z</time>
      </trkpt>
      <trkpt lat="46.72792" lon="-2.38638">
        <ele>3.5</ele>
        <time>2018-09-21T14:50:59.000Z</time>
      </trkpt>
      <trkpt lat="46.72793" lon="-2.38639">
        <ele>3.5</ele>
        <time>2018-09-21T14:51:00.000Z</time>
      </trkpt>
      <trkpt lat="46.72794" lon="-2.38639">
        <ele>3.5</ele>
        <time>2018-09-21T14:51:01.000Z</time>
      </trkpt>
      <trkpt lat="46.72795" lon="-2.3864">
        <ele>3.5</ele>
        <time>2018-09-21T14:51:02.000Z</time>
      </trkpt>
      <trkpt lat="46.72796" lon="-2.38641">
        <ele>3.5</ele>
        <time>2018-09-21T14:51:03.000Z</time>
      </trkpt>
      <trkpt lat="46.72797" lon="-2.38642">
        <ele>3.5</ele>
        <time>2018-09-21T14:51:04.000Z</time>
      </trkpt>
      <trkpt lat="46.72798" lon="-2.38642">
        <ele>3.5</ele>
        <time>2018-09-21T14:51:05.000Z</time>
      </trkpt>
      <trkpt lat="46.72799" lon="-2.38643">
        <ele>3.4</ele>
        <time>2018-09-21T14:51:06.000Z</time>
      </trkpt>
      <trkpt lat="46.728" lon="-2.38644">
        <ele>3.4</ele>
        <time>2018-09-21T14:51:07.000Z</time>
      </trkpt>
      <trkpt lat="46.72801" lon="-2.38645">
        <ele>3.4</ele>
        <time>2018-09-21T14:51:08.000Z</time>
      </trkpt>
      <trkpt lat="46.72802" lon="-2.38646">
        <ele>3.4</ele>
        <time>2018-09-21T14:51:09.000Z</time>
      </trkpt>
      <trkpt lat="46.72803" lon="-2.38646">
        <ele>3.4</ele>
        <time>2018-09-21T14:51:10.000Z</time>
      </trkpt>
      <trkpt lat="46.72804" lon="-2.38647">
        <ele>3.4</ele>
        <time>2018-09-21T14:51:11.000Z</time>
      </trkpt>
      <trkpt lat="46.72805" lon="-2.38648">
        <ele>3.4</ele>
        <time>2018-09-21T14:51:12.000Z</time>
      </trkpt>
      <trkpt lat="46.72806" lon="-2.38649">
        <ele>3.4</ele>
        <time>2018-09-21T14:51:13.000Z</time>
      </trkpt>
      <trkpt lat="46.72807" lon="-2.3865">
        <ele>3.3</ele>
        <time>2018-09-21T14:51:14.000Z</time>
      </trkpt>
      <trkpt lat="46.72808" lon="-2.3865">
        <ele>3.3</ele>
        <time>2018-09-21T14:51:15.000Z</time>
      </trkpt>
      <trkpt lat="46.7281" lon="-2.38651">
        <ele>3.3</ele>
        <time>2018-09-21T14:51:16.000Z</time>
      </trkpt>
      <trkpt lat="46.72811" lon="-2.38652">
        <ele>3.3</ele>
        <time>2018-09-21T14:51:17.000Z</time>
      </trkpt>
      <trkpt lat="46.72812" lon="-2.38653">
        <ele>3.3</ele>
        <time>2018-09-21T14:51:18.000Z</time>
      </trkpt>
      <trkpt lat="46.72813" lon="-2.38653">
        <ele>3.3</ele>
        <time>2018-09-21T14:51:19.000Z</time>
      </trkpt>
      <trkpt lat="46.72814" lon="-2.38654">
        <ele>3.3</ele>
        <time>2018-09-21T14:51:20.000Z</time>
      </trkpt>
      <trkpt lat="46.72815" lon="-2.38654">
        <ele>3.3</ele>
        <time>2018-09-21T14:51:21.000Z</time>
      </trkpt>
      <trkpt lat="46.72816" lon="-2.38655">
        <ele>3.3</ele>
        <time>2018-09-21T14:51:22.000Z</time>
      </trkpt>
      <trkpt lat="46.72817" lon="-2.38655">
        <ele>3.2</ele>
        <time>2018-09-21T14:51:23.000Z</time>
      </trkpt>
      <trkpt lat="46.72818" lon="-2.38656">
        <ele>3.2</ele>
        <time>2018-09-21T14:51:24.000Z</time>
      </trkpt>
      <trkpt lat="46.7282" lon="-2.38656">
        <ele>3.2</ele>
        <time>2018-09-21T14:51:25.000Z</time>
      </trkpt>
      <trkpt lat="46.72821" lon="-2.38657">
        <ele>3.2</ele>
        <time>2018-09-21T14:51:26.000Z</time>
      </trkpt>
      <trkpt lat="46.72822" lon="-2.38658">
        <ele>3.2</ele>
        <time>2018-09-21T14:51:27.000Z</time>
      </trkpt>
      <trkpt lat="46.72823" lon="-2.38658">
        <ele>3.2</ele>
        <time>2018-09-21T14:51:28.000Z</time>
      </trkpt>
      <trkpt lat="46.72824" lon="-2.38659">
        <ele>3.2</ele>
        <time>2018-09-21T14:51:29.000Z</time>
      </trkpt>
      <trkpt lat="46.72825" lon="-2.38659">
        <ele>3.2</ele>
        <time>2018-09-21T14:51:30.000Z</time>
      </trkpt>
      <trkpt lat="46.72826" lon="-2.3866">
        <ele>3.2</ele>
        <time>2018-09-21T14:51:31.000Z</time>
      </trkpt>
      <trkpt lat="46.72827" lon="-2.3866">
        <ele>3.2</ele>
        <time>2018-09-21T14:51:32.000Z</time>
      </trkpt>
      <trkpt lat="46.72828" lon="-2.3866">
        <ele>3.1</ele>
        <time>2018-09-21T14:51:33.000Z</time>
      </trkpt>
      <trkpt lat="46.72829" lon="-2.38661">
        <ele>3.1</ele>
        <time>2018-09-21T14:51:34.000Z</time>
      </trkpt>
      <trkpt lat="46.7283" lon="-2.38661">
        <ele>3.1</ele>
        <time>2018-09-21T14:51:35.000Z</time>
      </trkpt>
      <trkpt lat="46.72831" lon="-2.38661">
        <ele>3.1</ele>
        <time>2018-09-21T14:51:36.000Z</time>
      </trkpt>
      <trkpt lat="46.72831" lon="-2.38661">
        <ele>3.1</ele>
        <time>2018-09-21T14:51:37.000Z</time>
      </trkpt>
      <trkpt lat="46.72832" lon="-2.38661">
        <ele>3.1</ele>
        <time>2018-09-21T14:51:38.000Z</time>
      </trkpt>
      <trkpt lat="46.72833" lon="-2.38661">
        <ele>3.1</ele>
        <time>2018-09-21T14:51:39.000Z</time>
      </trkpt>
      <trkpt lat="46.72834" lon="-2.38661">
        <ele>3.2</ele>
        <time>2018-09-21T14:51:40.000Z</time>
      </trkpt>
      <trkpt lat="46.72835" lon="-2.38661">
        <ele>3.2</ele>
        <time>2018-09-21T14:51:41.000Z</time>
      </trkpt>
      <trkpt lat="46.72836" lon="-2.38661">
        <ele>3.2</ele>
        <time>2018-09-21T14:51:42.000Z</time>
      </trkpt>
      <trkpt lat="46.72837" lon="-2.38661">
        <ele>3.2</ele>
        <time>2018-09-21T14:51:43.000Z</time>
      </trkpt>
      <trkpt lat="46.72838" lon="-2.38661">
        <ele>3.3</ele>
        <time>2018-09-21T14:51:44.000Z</time>
      </trkpt>
      <trkpt lat="46.72838" lon="-2.3866">
        <ele>3.3</ele>
        <time>2018-09-21T14:51:45.000Z</time>
      </trkpt>
      <trkpt lat="46.72839" lon="-2.3866">
        <ele>3.3</ele>
        <time>2018-09-21T14:51:46.000Z</time>
      </trkpt>
      <trkpt lat="46.7284" lon="-2.38659">
        <ele>3.3</ele>
        <time>2018-09-21T14:51:47.000Z</time>
      </trkpt>
      <trkpt lat="46.7284" lon="-2.38659">
        <ele>3.3</ele>
        <time>2018-09-21T14:51:48.000Z</time>
      </trkpt>
      <trkpt lat="46.72841" lon="-2.38659">
        <ele>3.4</ele>
        <time>2018-09-21T14:51:49.000Z</time>
      </trkpt>
      <trkpt lat="46.72841" lon="-2.38659">
        <ele>3.4</ele>
        <time>2018-09-21T14:51:50.000Z</time>
      </trkpt>
      <trkpt lat="46.72841" lon="-2.38659">
        <ele>3.4</ele>
        <time>2018-09-21T14:51:51.000Z</time>
      </trkpt>
      <trkpt lat="46.72841" lon="-2.38659">
        <ele>3.4</ele>
        <time>2018-09-21T14:51:52.000Z</time>
      </trkpt>
      <trkpt lat="46.72842" lon="-2.38659">
        <ele>3.4</ele>
        <time>2018-09-21T14:51:53.000Z</time>
      </trkpt>
      <trkpt lat="46.72842" lon="-2.38659">
        <ele>3.4</ele>
        <time>2018-09-21T14:51:54.000Z</time>
      </trkpt>
      <trkpt lat="46.72842" lon="-2.3866">
        <ele>3.4</ele>
        <time>2018-09-21T14:51:55.000Z</time>
      </trkpt>
      <trkpt lat="46.72843" lon="-2.38661">
        <ele>3.4</ele>
        <time>2018-09-21T14:51:56.000Z</time>
      </trkpt>
      <trkpt lat="46.72843" lon="-2.38661">
        <ele>3.4</ele>
        <time>2018-09-21T14:51:57.000Z</time>
      </trkpt>
      <trkpt lat="46.72844" lon="-2.38662">
        <ele>3.4</ele>
        <time>2018-09-21T14:51:58.000Z</time>
      </trkpt>
      <trkpt lat="46.72844" lon="-2.38663">
        <ele>3.3</ele>
        <time>2018-09-21T14:51:59.000Z</time>
      </trkpt>
      <trkpt lat="46.72845" lon="-2.38664">
        <ele>3.3</ele>
        <time>2018-09-21T14:52:00.000Z</time>
      </trkpt>
      <trkpt lat="46.72846" lon="-2.38665">
        <ele>3.3</ele>
        <time>2018-09-21T14:52:01.000Z</time>
      </trkpt>
      <trkpt lat="46.72847" lon="-2.38666">
        <ele>3.3</ele>
        <time>2018-09-21T14:52:02.000Z</time>
      </trkpt>
      <trkpt lat="46.72848" lon="-2.38667">
        <ele>3.3</ele>
        <time>2018-09-21T14:52:03.000Z</time>
      </trkpt>
      <trkpt lat="46.72849" lon="-2.38668">
        <ele>3.3</ele>
        <time>2018-09-21T14:52:04.000Z</time>
      </trkpt>
      <trkpt lat="46.7285" lon="-2.38669">
        <ele>3.3</ele>
        <time>2018-09-21T14:52:05.000Z</time>
      </trkpt>
      <trkpt lat="46.72851" lon="-2.3867">
        <ele>3.3</ele>
        <time>2018-09-21T14:52:06.000Z</time>
      </trkpt>
      <trkpt lat="46.72852" lon="-2.38671">
        <ele>3.3</ele>
        <time>2018-09-21T14:52:07.000Z</time>
      </trkpt>
      <trkpt lat="46.72853" lon="-2.38672">
        <ele>3.3</ele>
        <time>2018-09-21T14:52:08.000Z</time>
      </trkpt>
      <trkpt lat="46.72855" lon="-2.38673">
        <ele>3.2</ele>
        <time>2018-09-21T14:52:09.000Z</time>
      </trkpt>
      <trkpt lat="46.72856" lon="-2.38674">
        <ele>3.2</ele>
        <time>2018-09-21T14:52:10.000Z</time>
      </trkpt>
      <trkpt lat="46.72857" lon="-2.38675">
        <ele>3.2</ele>
        <time>2018-09-21T14:52:11.000Z</time>
      </trkpt>
      <trkpt lat="46.72858" lon="-2.38676">
        <ele>3.2</ele>
        <time>2018-09-21T14:52:12.000Z</time>
      </trkpt>
      <trkpt lat="46.72859" lon="-2.38677">
        <ele>3.2</ele>
        <time>2018-09-21T14:52:13.000Z</time>
      </trkpt>
      <trkpt lat="46.7286" lon="-2.38678">
        <ele>3.2</ele>
        <time>2018-09-21T14:52:14.000Z</time>
      </trkpt>
      <trkpt lat="46.72861" lon="-2.38678">
        <ele>3.1</ele>
        <time>2018-09-21T14:52:15.000Z</time>
      </trkpt>
      <trkpt lat="46.72861" lon="-2.38679">
        <ele>3.1</ele>
        <time>2018-09-21T14:52:16.000Z</time>
      </trkpt>
      <trkpt lat="46.72862" lon="-2.3868">
        <ele>3.1</ele>
        <time>2018-09-21T14:52:17.000Z</time>
      </trkpt>
      <trkpt lat="46.72863" lon="-2.38681">
        <ele>3.1</ele>
        <time>2018-09-21T14:52:18.000Z</time>
      </trkpt>
      <trkpt lat="46.72864" lon="-2.38682">
        <ele>3</ele>
        <time>2018-09-21T14:52:19.000Z</time>
      </trkpt>
      <trkpt lat="46.72864" lon="-2.38683">
        <ele>3</ele>
        <time>2018-09-21T14:52:20.000Z</time>
      </trkpt>
      <trkpt lat="46.72865" lon="-2.38684">
        <ele>3</ele>
        <time>2018-09-21T14:52:21.000Z</time>
      </trkpt>
      <trkpt lat="46.72866" lon="-2.38685">
        <ele>3</ele>
        <time>2018-09-21T14:52:22.000Z</time>
      </trkpt>
      <trkpt lat="46.72867" lon="-2.38685">
        <ele>2.9</ele>
        <time>2018-09-21T14:52:23.000Z</time>
      </trkpt>
      <trkpt lat="46.72868" lon="-2.38686">
        <ele>2.9</ele>
        <time>2018-09-21T14:52:24.000Z</time>
      </trkpt>
      <trkpt lat="46.72868" lon="-2.38687">
        <ele>2.9</ele>
        <time>2018-09-21T14:52:25.000Z</time>
      </trkpt>
      <trkpt lat="46.72869" lon="-2.38688">
        <ele>2.9</ele>
        <time>2018-09-21T14:52:26.000Z</time>
      </trkpt>
      <trkpt lat="46.7287" lon="-2.38688">
        <ele>2.9</ele>
        <time>2018-09-21T14:52:27.000Z</time>
      </trkpt>
      <trkpt lat="46.72871" lon="-2.38689">
        <ele>2.9</ele>
        <time>2018-09-21T14:52:28.000Z</time>
      </trkpt>
      <trkpt lat="46.72872" lon="-2.3869">
        <ele>2.8</ele>
        <time>2018-09-21T14:52:29.000Z</time>
      </trkpt>
      <trkpt lat="46.72873" lon="-2.3869">
        <ele>2.8</ele>
        <time>2018-09-21T14:52:30.000Z</time>
      </trkpt>
      <trkpt lat="46.72874" lon="-2.38691">
        <ele>2.8</ele>
        <time>2018-09-21T14:52:31.000Z</time>
      </trkpt>
      <trkpt lat="46.72875" lon="-2.38692">
        <ele>2.8</ele>
        <time>2018-09-21T14:52:32.000Z</time>
      </trkpt>
      <trkpt lat="46.72876" lon="-2.38692">
        <ele>2.8</ele>
        <time>2018-09-21T14:52:33.000Z</time>
      </trkpt>
      <trkpt lat="46.72877" lon="-2.38693">
        <ele>2.8</ele>
        <time>2018-09-21T14:52:34.000Z</time>
      </trkpt>
      <trkpt lat="46.72878" lon="-2.38693">
        <ele>2.8</ele>
        <time>2018-09-21T14:52:35.000Z</time>
      </trkpt>
      <trkpt lat="46.72879" lon="-2.38694">
        <ele>2.8</ele>
        <time>2018-09-21T14:52:36.000Z</time>
      </trkpt>
      <trkpt lat="46.7288" lon="-2.38694">
        <ele>2.8</ele>
        <time>2018-09-21T14:52:37.000Z</time>
      </trkpt>
      <trkpt lat="46.72881" lon="-2.38695">
        <ele>2.7</ele>
        <time>2018-09-21T14:52:38.000Z</time>
      </trkpt>
      <trkpt lat="46.72882" lon="-2.38695">
        <ele>2.7</ele>
        <time>2018-09-21T14:52:39.000Z</time>
      </trkpt>
      <trkpt lat="46.72883" lon="-2.38696">
        <ele>2.7</ele>
        <time>2018-09-21T14:52:40.000Z</time>
      </trkpt>
      <trkpt lat="46.72883" lon="-2.38696">
        <ele>2.7</ele>
        <time>2018-09-21T14:52:41.000Z</time>
      </trkpt>
      <trkpt lat="46.72884" lon="-2.38697">
        <ele>2.7</ele>
        <time>2018-09-21T14:52:42.000Z</time>
      </trkpt>
      <trkpt lat="46.72885" lon="-2.38697">
        <ele>2.7</ele>
        <time>2018-09-21T14:52:43.000Z</time>
      </trkpt>
      <trkpt lat="46.72886" lon="-2.38698">
        <ele>2.7</ele>
        <time>2018-09-21T14:52:44.000Z</time>
      </trkpt>
      <trkpt lat="46.72887" lon="-2.38698">
        <ele>2.7</ele>
        <time>2018-09-21T14:52:45.000Z</time>
      </trkpt>
      <trkpt lat="46.72888" lon="-2.38698">
        <ele>2.7</ele>
        <time>2018-09-21T14:52:46.000Z</time>
      </trkpt>
      <trkpt lat="46.72889" lon="-2.38699">
        <ele>2.7</ele>
        <time>2018-09-21T14:52:47.000Z</time>
      </trkpt>
      <trkpt lat="46.7289" lon="-2.38699">
        <ele>2.7</ele>
        <time>2018-09-21T14:52:48.000Z</time>
      </trkpt>
      <trkpt lat="46.7289" lon="-2.38699">
        <ele>2.7</ele>
        <time>2018-09-21T14:52:49.000Z</time>
      </trkpt>
      <trkpt lat="46.72891" lon="-2.387">
        <ele>2.7</ele>
        <time>2018-09-21T14:52:50.000Z</time>
      </trkpt>
      <trkpt lat="46.72892" lon="-2.387">
        <ele>2.7</ele>
        <time>2018-09-21T14:52:51.000Z</time>
      </trkpt>
      <trkpt lat="46.72893" lon="-2.387">
        <ele>2.7</ele>
        <time>2018-09-21T14:52:52.000Z</time>
      </trkpt>
      <trkpt lat="46.72894" lon="-2.387">
        <ele>2.7</ele>
        <time>2018-09-21T14:52:53.000Z</time>
      </trkpt>
      <trkpt lat="46.72894" lon="-2.387">
        <ele>2.7</ele>
        <time>2018-09-21T14:52:54.000Z</time>
      </trkpt>
      <trkpt lat="46.72895" lon="-2.38701">
        <ele>2.7</ele>
        <time>2018-09-21T14:52:55.000Z</time>
      </trkpt>
      <trkpt lat="46.72896" lon="-2.38701">
        <ele>2.7</ele>
        <time>2018-09-21T14:52:56.000Z</time>
      </trkpt>
      <trkpt lat="46.72897" lon="-2.38701">
        <ele>2.7</ele>
        <time>2018-09-21T14:52:57.000Z</time>
      </trkpt>
      <trkpt lat="46.72897" lon="-2.38701">
        <ele>2.7</ele>
        <time>2018-09-21T14:52:58.000Z</time>
      </trkpt>
      <trkpt lat="46.72898" lon="-2.38701">
        <ele>2.7</ele>
        <time>2018-09-21T14:52:59.000Z</time>
      </trkpt>
      <trkpt lat="46.72899" lon="-2.38701">
        <ele>2.7</ele>
        <time>2018-09-21T14:53:00.000Z</time>
      </trkpt>
      <trkpt lat="46.729" lon="-2.38701">
        <ele>2.7</ele>
        <time>2018-09-21T14:53:01.000Z</time>
      </trkpt>
      <trkpt lat="46.72901" lon="-2.38701">
        <ele>2.7</ele>
        <time>2018-09-21T14:53:02.000Z</time>
      </trkpt>
      <trkpt lat="46.72901" lon="-2.38701">
        <ele>2.7</ele>
        <time>2018-09-21T14:53:03.000Z</time>
      </trkpt>
      <trkpt lat="46.72902" lon="-2.38701">
        <ele>2.7</ele>
        <time>2018-09-21T14:53:04.000Z</time>
      </trkpt>
      <trkpt lat="46.72903" lon="-2.38701">
        <ele>2.8</ele>
        <time>2018-09-21T14:53:05.000Z</time>
      </trkpt>
      <trkpt lat="46.72904" lon="-2.38701">
        <ele>2.8</ele>
        <time>2018-09-21T14:53:06.000Z</time>
      </trkpt>
      <trkpt lat="46.72905" lon="-2.38701">
        <ele>2.8</ele>
        <time>2018-09-21T14:53:07.000Z</time>
      </trkpt>
      <trkpt lat="46.72906" lon="-2.38701">
        <ele>2.8</ele>
        <time>2018-09-21T14:53:08.000Z</time>
      </trkpt>
      <trkpt lat="46.72907" lon="-2.38701">
        <ele>2.8</ele>
        <time>2018-09-21T14:53:09.000Z</time>
      </trkpt>
      <trkpt lat="46.72908" lon="-2.387">
        <ele>2.8</ele>
        <time>2018-09-21T14:53:10.000Z</time>
      </trkpt>
      <trkpt lat="46.72909" lon="-2.387">
        <ele>2.9</ele>
        <time>2018-09-21T14:53:11.000Z</time>
      </trkpt>
      <trkpt lat="46.7291" lon="-2.387">
        <ele>2.9</ele>
        <time>2018-09-21T14:53:12.000Z</time>
      </trkpt>
      <trkpt lat="46.72911" lon="-2.387">
        <ele>2.9</ele>
        <time>2018-09-21T14:53:13.000Z</time>
      </trkpt>
      <trkpt lat="46.72912" lon="-2.387">
        <ele>3</ele>
        <time>2018-09-21T14:53:14.000Z</time>
      </trkpt>
      <trkpt lat="46.72913" lon="-2.38699">
        <ele>3</ele>
        <time>2018-09-21T14:53:15.000Z</time>
      </trkpt>
      <trkpt lat="46.72914" lon="-2.38699">
        <ele>3</ele>
        <time>2018-09-21T14:53:16.000Z</time>
      </trkpt>
      <trkpt lat="46.72915" lon="-2.38699">
        <ele>3</ele>
        <time>2018-09-21T14:53:17.000Z</time>
      </trkpt>
      <trkpt lat="46.72916" lon="-2.38699">
        <ele>3.1</ele>
        <time>2018-09-21T14:53:18.000Z</time>
      </trkpt>
      <trkpt lat="46.72917" lon="-2.38699">
        <ele>3.1</ele>
        <time>2018-09-21T14:53:19.000Z</time>
      </trkpt>
      <trkpt lat="46.72918" lon="-2.38698">
        <ele>3.1</ele>
        <time>2018-09-21T14:53:20.000Z</time>
      </trkpt>
      <trkpt lat="46.72919" lon="-2.38698">
        <ele>3</ele>
        <time>2018-09-21T14:53:21.000Z</time>
      </trkpt>
      <trkpt lat="46.7292" lon="-2.38698">
        <ele>3</ele>
        <time>2018-09-21T14:53:22.000Z</time>
      </trkpt>
      <trkpt lat="46.72921" lon="-2.38698">
        <ele>3</ele>
        <time>2018-09-21T14:53:23.000Z</time>
      </trkpt>
      <trkpt lat="46.72921" lon="-2.38698">
        <ele>3</ele>
        <time>2018-09-21T14:53:24.000Z</time>
      </trkpt>
      <trkpt lat="46.72922" lon="-2.38698">
        <ele>3</ele>
        <time>2018-09-21T14:53:25.000Z</time>
      </trkpt>
      <trkpt lat="46.72923" lon="-2.38698">
        <ele>3</ele>
        <time>2018-09-21T14:53:26.000Z</time>
      </trkpt>
      <trkpt lat="46.72924" lon="-2.38697">
        <ele>3</ele>
        <time>2018-09-21T14:53:27.000Z</time>
      </trkpt>
      <trkpt lat="46.72925" lon="-2.38697">
        <ele>3</ele>
        <time>2018-09-21T14:53:28.000Z</time>
      </trkpt>
      <trkpt lat="46.72926" lon="-2.38697">
        <ele>2.9</ele>
        <time>2018-09-21T14:53:29.000Z</time>
      </trkpt>
      <trkpt lat="46.72927" lon="-2.38697">
        <ele>2.9</ele>
        <time>2018-09-21T14:53:30.000Z</time>
      </trkpt>
      <trkpt lat="46.72928" lon="-2.38696">
        <ele>2.9</ele>
        <time>2018-09-21T14:53:31.000Z</time>
      </trkpt>
      <trkpt lat="46.72929" lon="-2.38696">
        <ele>2.9</ele>
        <time>2018-09-21T14:53:32.000Z</time>
      </trkpt>
      <trkpt lat="46.7293" lon="-2.38695">
        <ele>2.9</ele>
        <time>2018-09-21T14:53:33.000Z</time>
      </trkpt>
      <trkpt lat="46.72931" lon="-2.38695">
        <ele>2.9</ele>
        <time>2018-09-21T14:53:34.000Z</time>
      </trkpt>
      <trkpt lat="46.72932" lon="-2.38694">
        <ele>2.9</ele>
        <time>2018-09-21T14:53:35.000Z</time>
      </trkpt>
      <trkpt lat="46.72933" lon="-2.38694">
        <ele>2.9</ele>
        <time>2018-09-21T14:53:36.000Z</time>
      </trkpt>
      <trkpt lat="46.72934" lon="-2.38693">
        <ele>2.9</ele>
        <time>2018-09-21T14:53:37.000Z</time>
      </trkpt>
      <trkpt lat="46.72935" lon="-2.38692">
        <ele>2.9</ele>
        <time>2018-09-21T14:53:38.000Z</time>
      </trkpt>
      <trkpt lat="46.72936" lon="-2.38692">
        <ele>2.9</ele>
        <time>2018-09-21T14:53:39.000Z</time>
      </trkpt>
      <trkpt lat="46.72937" lon="-2.38691">
        <ele>2.9</ele>
        <time>2018-09-21T14:53:40.000Z</time>
      </trkpt>
      <trkpt lat="46.72938" lon="-2.3869">
        <ele>3</ele>
        <time>2018-09-21T14:53:41.000Z</time>
      </trkpt>
      <trkpt lat="46.72939" lon="-2.3869">
        <ele>3</ele>
        <time>2018-09-21T14:53:42.000Z</time>
      </trkpt>
      <trkpt lat="46.7294" lon="-2.38689">
        <ele>3</ele>
        <time>2018-09-21T14:53:43.000Z</time>
      </trkpt>
      <trkpt lat="46.72941" lon="-2.38688">
        <ele>3</ele>
        <time>2018-09-21T14:53:44.000Z</time>
      </trkpt>
      <trkpt lat="46.72942" lon="-2.38687">
        <ele>3</ele>
        <time>2018-09-21T14:53:45.000Z</time>
      </trkpt>
      <trkpt lat="46.72943" lon="-2.38687">
        <ele>3</ele>
        <time>2018-09-21T14:53:46.000Z</time>
      </trkpt>
      <trkpt lat="46.72944" lon="-2.38686">
        <ele>3</ele>
        <time>2018-09-21T14:53:47.000Z</time>
      </trkpt>
      <trkpt lat="46.72945" lon="-2.38685">
        <ele>3</ele>
        <time>2018-09-21T14:53:48.000Z</time>
      </trkpt>
      <trkpt lat="46.72946" lon="-2.38684">
        <ele>3</ele>
        <time>2018-09-21T14:53:49.000Z</time>
      </trkpt>
      <trkpt lat="46.72947" lon="-2.38684">
        <ele>3</ele>
        <time>2018-09-21T14:53:50.000Z</time>
      </trkpt>
      <trkpt lat="46.72948" lon="-2.38683">
        <ele>3.1</ele>
        <time>2018-09-21T14:53:51.000Z</time>
      </trkpt>
      <trkpt lat="46.72949" lon="-2.38682">
        <ele>3.1</ele>
        <time>2018-09-21T14:53:52.000Z</time>
      </trkpt>
      <trkpt lat="46.7295" lon="-2.38682">
        <ele>3.1</ele>
        <time>2018-09-21T14:53:53.000Z</time>
      </trkpt>
      <trkpt lat="46.7295" lon="-2.38681">
        <ele>3.1</ele>
        <time>2018-09-21T14:53:54.000Z</time>
      </trkpt>
      <trkpt lat="46.72951" lon="-2.3868">
        <ele>3.1</ele>
        <time>2018-09-21T14:53:55.000Z</time>
      </trkpt>
      <trkpt lat="46.72952" lon="-2.38679">
        <ele>3.1</ele>
        <time>2018-09-21T14:53:56.000Z</time>
      </trkpt>
      <trkpt lat="46.72953" lon="-2.38679">
        <ele>3.1</ele>
        <time>2018-09-21T14:53:57.000Z</time>
      </trkpt>
      <trkpt lat="46.72954" lon="-2.38678">
        <ele>3.1</ele>
        <time>2018-09-21T14:53:58.000Z</time>
      </trkpt>
      <trkpt lat="46.72955" lon="-2.38677">
        <ele>3.1</ele>
        <time>2018-09-21T14:53:59.000Z</time>
      </trkpt>
      <trkpt lat="46.72956" lon="-2.38676">
        <ele>3.1</ele>
        <time>2018-09-21T14:54:00.000Z</time>
      </trkpt>
      <trkpt lat="46.72956" lon="-2.38676">
        <ele>3.1</ele>
        <time>2018-09-21T14:54:01.000Z</time>
      </trkpt>
      <trkpt lat="46.72957" lon="-2.38675">
        <ele>3.2</ele>
        <time>2018-09-21T14:54:02.000Z</time>
      </trkpt>
      <trkpt lat="46.72958" lon="-2.38674">
        <ele>3.2</ele>
        <time>2018-09-21T14:54:03.000Z</time>
      </trkpt>
      <trkpt lat="46.72959" lon="-2.38673">
        <ele>3.2</ele>
        <time>2018-09-21T14:54:04.000Z</time>
      </trkpt>
      <trkpt lat="46.7296" lon="-2.38672">
        <ele>3.2</ele>
        <time>2018-09-21T14:54:05.000Z</time>
      </trkpt>
      <trkpt lat="46.72961" lon="-2.38671">
        <ele>3.2</ele>
        <time>2018-09-21T14:54:06.000Z</time>
      </trkpt>
      <trkpt lat="46.72961" lon="-2.3867">
        <ele>3.2</ele>
        <time>2018-09-21T14:54:07.000Z</time>
      </trkpt>
      <trkpt lat="46.72962" lon="-2.38669">
        <ele>3.3</ele>
        <time>2018-09-21T14:54:08.000Z</time>
      </trkpt>
      <trkpt lat="46.72963" lon="-2.38668">
        <ele>3.3</ele>
        <time>2018-09-21T14:54:09.000Z</time>
      </trkpt>
      <trkpt lat="46.72964" lon="-2.38667">
        <ele>3.3</ele>
        <time>2018-09-21T14:54:10.000Z</time>
      </trkpt>
      <trkpt lat="46.72965" lon="-2.38666">
        <ele>3.3</ele>
        <time>2018-09-21T14:54:11.000Z</time>
      </trkpt>
      <trkpt lat="46.72966" lon="-2.38664">
        <ele>3.3</ele>
        <time>2018-09-21T14:54:12.000Z</time>
      </trkpt>
      <trkpt lat="46.72967" lon="-2.38663">
        <ele>3.3</ele>
        <time>2018-09-21T14:54:13.000Z</time>
      </trkpt>
      <trkpt lat="46.72967" lon="-2.38662">
        <ele>3.3</ele>
        <time>2018-09-21T14:54:14.000Z</time>
      </trkpt>
      <trkpt lat="46.72968" lon="-2.38661">
        <ele>3.3</ele>
        <time>2018-09-21T14:54:15.000Z</time>
      </trkpt>
      <trkpt lat="46.72969" lon="-2.3866">
        <ele>3.3</ele>
        <time>2018-09-21T14:54:16.000Z</time>
      </trkpt>
      <trkpt lat="46.7297" lon="-2.38658">
        <ele>3.4</ele>
        <time>2018-09-21T14:54:17.000Z</time>
      </trkpt>
      <trkpt lat="46.72971" lon="-2.38657">
        <ele>3.4</ele>
        <time>2018-09-21T14:54:18.000Z</time>
      </trkpt>
      <trkpt lat="46.72971" lon="-2.38656">
        <ele>3.4</ele>
        <time>2018-09-21T14:54:19.000Z</time>
      </trkpt>
      <trkpt lat="46.72972" lon="-2.38655">
        <ele>3.4</ele>
        <time>2018-09-21T14:54:20.000Z</time>
      </trkpt>
      <trkpt lat="46.72973" lon="-2.38654">
        <ele>3.4</ele>
        <time>2018-09-21T14:54:21.000Z</time>
      </trkpt>
      <trkpt lat="46.72973" lon="-2.38653">
        <ele>3.4</ele>
        <time>2018-09-21T14:54:22.000Z</time>
      </trkpt>
      <trkpt lat="46.72974" lon="-2.38651">
        <ele>3.4</ele>
        <time>2018-09-21T14:54:23.000Z</time>
      </trkpt>
      <trkpt lat="46.72974" lon="-2.3865">
        <ele>3.5</ele>
        <time>2018-09-21T14:54:24.000Z</time>
      </trkpt>
      <trkpt lat="46.72975" lon="-2.38649">
        <ele>3.5</ele>
        <time>2018-09-21T14:54:25.000Z</time>
      </trkpt>
      <trkpt lat="46.72975" lon="-2.38648">
        <ele>3.5</ele>
        <time>2018-09-21T14:54:26.000Z</time>
      </trkpt>
      <trkpt lat="46.72976" lon="-2.38646">
        <ele>3.5</ele>
        <time>2018-09-21T14:54:27.000Z</time>
      </trkpt>
      <trkpt lat="46.72976" lon="-2.38645">
        <ele>3.6</ele>
        <time>2018-09-21T14:54:28.000Z</time>
      </trkpt>
      <trkpt lat="46.72977" lon="-2.38644">
        <ele>3.6</ele>
        <time>2018-09-21T14:54:29.000Z</time>
      </trkpt>
      <trkpt lat="46.72977" lon="-2.38642">
        <ele>3.6</ele>
        <time>2018-09-21T14:54:30.000Z</time>
      </trkpt>
      <trkpt lat="46.72978" lon="-2.38641">
        <ele>3.6</ele>
        <time>2018-09-21T14:54:31.000Z</time>
      </trkpt>
      <trkpt lat="46.72978" lon="-2.3864">
        <ele>3.7</ele>
        <time>2018-09-21T14:54:32.000Z</time>
      </trkpt>
      <trkpt lat="46.72978" lon="-2.38638">
        <ele>3.7</ele>
        <time>2018-09-21T14:54:33.000Z</time>
      </trkpt>
      <trkpt lat="46.72979" lon="-2.38637">
        <ele>3.7</ele>
        <time>2018-09-21T14:54:34.000Z</time>
      </trkpt>
      <trkpt lat="46.72979" lon="-2.38636">
        <ele>3.8</ele>
        <time>2018-09-21T14:54:35.000Z</time>
      </trkpt>
      <trkpt lat="46.72979" lon="-2.38634">
        <ele>3.8</ele>
        <time>2018-09-21T14:54:36.000Z</time>
      </trkpt>
      <trkpt lat="46.7298" lon="-2.38633">
        <ele>3.9</ele>
        <time>2018-09-21T14:54:37.000Z</time>
      </trkpt>
      <trkpt lat="46.7298" lon="-2.38631">
        <ele>3.9</ele>
        <time>2018-09-21T14:54:38.000Z</time>
      </trkpt>
      <trkpt lat="46.7298" lon="-2.3863">
        <ele>3.9</ele>
        <time>2018-09-21T14:54:39.000Z</time>
      </trkpt>
      <trkpt lat="46.72981" lon="-2.38629">
        <ele>4</ele>
        <time>2018-09-21T14:54:40.000Z</time>
      </trkpt>
      <trkpt lat="46.72981" lon="-2.38627">
        <ele>4</ele>
        <time>2018-09-21T14:54:41.000Z</time>
      </trkpt>
      <trkpt lat="46.72981" lon="-2.38626">
        <ele>4</ele>
        <time>2018-09-21T14:54:42.000Z</time>
      </trkpt>
      <trkpt lat="46.72982" lon="-2.38624">
        <ele>4.1</ele>
        <time>2018-09-21T14:54:43.000Z</time>
      </trkpt>
      <trkpt lat="46.72982" lon="-2.38623">
        <ele>4.1</ele>
        <time>2018-09-21T14:54:44.000Z</time>
      </trkpt>
      <trkpt lat="46.72982" lon="-2.38621">
        <ele>4.2</ele>
        <time>2018-09-21T14:54:45.000Z</time>
      </trkpt>
      <trkpt lat="46.72983" lon="-2.3862">
        <ele>4.2</ele>
        <time>2018-09-21T14:54:46.000Z</time>
      </trkpt>
      <trkpt lat="46.72983" lon="-2.38619">
        <ele>4.2</ele>
        <time>2018-09-21T14:54:47.000Z</time>
      </trkpt>
      <trkpt lat="46.72983" lon="-2.38617">
        <ele>4.3</ele>
        <time>2018-09-21T14:54:48.000Z</time>
      </trkpt>
      <trkpt lat="46.72984" lon="-2.38616">
        <ele>4.3</ele>
        <time>2018-09-21T14:54:49.000Z</time>
      </trkpt>
      <trkpt lat="46.72984" lon="-2.38614">
        <ele>4.3</ele>
        <time>2018-09-21T14:54:50.000Z</time>
      </trkpt>
      <trkpt lat="46.72985" lon="-2.38613">
        <ele>4.4</ele>
        <time>2018-09-21T14:54:51.000Z</time>
      </trkpt>
      <trkpt lat="46.72985" lon="-2.38612">
        <ele>4.4</ele>
        <time>2018-09-21T14:54:52.000Z</time>
      </trkpt>
      <trkpt lat="46.72985" lon="-2.3861">
        <ele>4.4</ele>
        <time>2018-09-21T14:54:53.000Z</time>
      </trkpt>
      <trkpt lat="46.72986" lon="-2.38609">
        <ele>4.5</ele>
        <time>2018-09-21T14:54:54.000Z</time>
      </trkpt>
      <trkpt lat="46.72986" lon="-2.38608">
        <ele>4.5</ele>
        <time>2018-09-21T14:54:55.000Z</time>
      </trkpt>
      <trkpt lat="46.72987" lon="-2.38606">
        <ele>4.5</ele>
        <time>2018-09-21T14:54:56.000Z</time>
      </trkpt>
      <trkpt lat="46.72987" lon="-2.38605">
        <ele>4.6</ele>
        <time>2018-09-21T14:54:57.000Z</time>
      </trkpt>
      <trkpt lat="46.72988" lon="-2.38603">
        <ele>4.6</ele>
        <time>2018-09-21T14:54:58.000Z</time>
      </trkpt>
      <trkpt lat="46.72988" lon="-2.38602">
        <ele>4.6</ele>
        <time>2018-09-21T14:54:59.000Z</time>
      </trkpt>
      <trkpt lat="46.72989" lon="-2.38601">
        <ele>4.7</ele>
        <time>2018-09-21T14:55:00.000Z</time>
      </trkpt>
      <trkpt lat="46.72989" lon="-2.38599">
        <ele>4.7</ele>
        <time>2018-09-21T14:55:01.000Z</time>
      </trkpt>
      <trkpt lat="46.7299" lon="-2.38598">
        <ele>4.8</ele>
        <time>2018-09-21T14:55:02.000Z</time>
      </trkpt>
      <trkpt lat="46.7299" lon="-2.38596">
        <ele>4.8</ele>
        <time>2018-09-21T14:55:03.000Z</time>
      </trkpt>
      <trkpt lat="46.72991" lon="-2.38595">
        <ele>4.8</ele>
        <time>2018-09-21T14:55:04.000Z</time>
      </trkpt>
      <trkpt lat="46.72991" lon="-2.38594">
        <ele>4.9</ele>
        <time>2018-09-21T14:55:05.000Z</time>
      </trkpt>
      <trkpt lat="46.72992" lon="-2.38592">
        <ele>4.9</ele>
        <time>2018-09-21T14:55:06.000Z</time>
      </trkpt>
      <trkpt lat="46.72992" lon="-2.38591">
        <ele>4.9</ele>
        <time>2018-09-21T14:55:07.000Z</time>
      </trkpt>
      <trkpt lat="46.72993" lon="-2.38589">
        <ele>5</ele>
        <time>2018-09-21T14:55:08.000Z</time>
      </trkpt>
      <trkpt lat="46.72993" lon="-2.38588">
        <ele>5</ele>
        <time>2018-09-21T14:55:09.000Z</time>
      </trkpt>
      <trkpt lat="46.72993" lon="-2.38586">
        <ele>5.1</ele>
        <time>2018-09-21T14:55:10.000Z</time>
      </trkpt>
      <trkpt lat="46.72994" lon="-2.38585">
        <ele>5.1</ele>
        <time>2018-09-21T14:55:11.000Z</time>
      </trkpt>
      <trkpt lat="46.72994" lon="-2.38583">
        <ele>5.1</ele>
        <time>2018-09-21T14:55:12.000Z</time>
      </trkpt>
      <trkpt lat="46.72995" lon="-2.38582">
        <ele>5.1</ele>
        <time>2018-09-21T14:55:13.000Z</time>
      </trkpt>
      <trkpt lat="46.72995" lon="-2.3858">
        <ele>5.2</ele>
        <time>2018-09-21T14:55:14.000Z</time>
      </trkpt>
      <trkpt lat="46.72995" lon="-2.38579">
        <ele>5.2</ele>
        <time>2018-09-21T14:55:15.000Z</time>
      </trkpt>
      <trkpt lat="46.72996" lon="-2.38577">
        <ele>5.2</ele>
        <time>2018-09-21T14:55:16.000Z</time>
      </trkpt>
      <trkpt lat="46.72996" lon="-2.38576">
        <ele>5.2</ele>
        <time>2018-09-21T14:55:17.000Z</time>
      </trkpt>
      <trkpt lat="46.72996" lon="-2.38574">
        <ele>5.2</ele>
        <time>2018-09-21T14:55:18.000Z</time>
      </trkpt>
      <trkpt lat="46.72996" lon="-2.38573">
        <ele>5.2</ele>
        <time>2018-09-21T14:55:19.000Z</time>
      </trkpt>
      <trkpt lat="46.72997" lon="-2.38571">
        <ele>5.2</ele>
        <time>2018-09-21T14:55:20.000Z</time>
      </trkpt>
      <trkpt lat="46.72997" lon="-2.3857">
        <ele>5.2</ele>
        <time>2018-09-21T14:55:21.000Z</time>
      </trkpt>
      <trkpt lat="46.72997" lon="-2.38568">
        <ele>5.3</ele>
        <time>2018-09-21T14:55:22.000Z</time>
      </trkpt>
      <trkpt lat="46.72997" lon="-2.38567">
        <ele>5.3</ele>
        <time>2018-09-21T14:55:23.000Z</time>
      </trkpt>
      <trkpt lat="46.72997" lon="-2.38565">
        <ele>5.3</ele>
        <time>2018-09-21T14:55:24.000Z</time>
      </trkpt>
      <trkpt lat="46.72997" lon="-2.38564">
        <ele>5.3</ele>
        <time>2018-09-21T14:55:25.000Z</time>
      </trkpt>
      <trkpt lat="46.72996" lon="-2.38562">
        <ele>5.3</ele>
        <time>2018-09-21T14:55:26.000Z</time>
      </trkpt>
      <trkpt lat="46.72996" lon="-2.38561">
        <ele>5.3</ele>
        <time>2018-09-21T14:55:27.000Z</time>
      </trkpt>
      <trkpt lat="46.72996" lon="-2.38559">
        <ele>5.4</ele>
        <time>2018-09-21T14:55:28.000Z</time>
      </trkpt>
      <trkpt lat="46.72996" lon="-2.38558">
        <ele>5.4</ele>
        <time>2018-09-21T14:55:29.000Z</time>
      </trkpt>
      <trkpt lat="46.72996" lon="-2.38556">
        <ele>5.4</ele>
        <time>2018-09-21T14:55:30.000Z</time>
      </trkpt>
      <trkpt lat="46.72996" lon="-2.38554">
        <ele>5.4</ele>
        <time>2018-09-21T14:55:31.000Z</time>
      </trkpt>
      <trkpt lat="46.72996" lon="-2.38553">
        <ele>5.4</ele>
        <time>2018-09-21T14:55:32.000Z</time>
      </trkpt>
      <trkpt lat="46.72997" lon="-2.38551">
        <ele>5.5</ele>
        <time>2018-09-21T14:55:33.000Z</time>
      </trkpt>
      <trkpt lat="46.72997" lon="-2.38549">
        <ele>5.5</ele>
        <time>2018-09-21T14:55:34.000Z</time>
      </trkpt>
      <trkpt lat="46.72997" lon="-2.38548">
        <ele>5.5</ele>
        <time>2018-09-21T14:55:35.000Z</time>
      </trkpt>
      <trkpt lat="46.72997" lon="-2.38546">
        <ele>5.5</ele>
        <time>2018-09-21T14:55:36.000Z</time>
      </trkpt>
      <trkpt lat="46.72998" lon="-2.38544">
        <ele>5.5</ele>
        <time>2018-09-21T14:55:37.000Z</time>
      </trkpt>
      <trkpt lat="46.72997" lon="-2.38543">
        <ele>5.5</ele>
        <time>2018-09-21T14:55:38.000Z</time>
      </trkpt>
      <trkpt lat="46.72997" lon="-2.38541">
        <ele>5.6</ele>
        <time>2018-09-21T14:55:39.000Z</time>
      </trkpt>
      <trkpt lat="46.72997" lon="-2.38539">
        <ele>5.6</ele>
        <time>2018-09-21T14:55:40.000Z</time>
      </trkpt>
      <trkpt lat="46.72996" lon="-2.38537">
        <ele>5.6</ele>
        <time>2018-09-21T14:55:41.000Z</time>
      </trkpt>
      <trkpt lat="46.72996" lon="-2.38536">
        <ele>5.6</ele>
        <time>2018-09-21T14:55:42.000Z</time>
      </trkpt>
      <trkpt lat="46.72995" lon="-2.38534">
        <ele>5.7</ele>
        <time>2018-09-21T14:55:43.000Z</time>
      </trkpt>
      <trkpt lat="46.72994" lon="-2.38532">
        <ele>5.7</ele>
        <time>2018-09-21T14:55:44.000Z</time>
      </trkpt>
      <trkpt lat="46.72994" lon="-2.38531">
        <ele>5.7</ele>
        <time>2018-09-21T14:55:45.000Z</time>
      </trkpt>
      <trkpt lat="46.72993" lon="-2.38529">
        <ele>5.8</ele>
        <time>2018-09-21T14:55:46.000Z</time>
      </trkpt>
      <trkpt lat="46.72993" lon="-2.38528">
        <ele>5.8</ele>
        <time>2018-09-21T14:55:47.000Z</time>
      </trkpt>
      <trkpt lat="46.72992" lon="-2.38526">
        <ele>5.8</ele>
        <time>2018-09-21T14:55:48.000Z</time>
      </trkpt>
      <trkpt lat="46.72991" lon="-2.38525">
        <ele>5.8</ele>
        <time>2018-09-21T14:55:49.000Z</time>
      </trkpt>
      <trkpt lat="46.72991" lon="-2.38523">
        <ele>5.9</ele>
        <time>2018-09-21T14:55:50.000Z</time>
      </trkpt>
      <trkpt lat="46.72991" lon="-2.38522">
        <ele>5.9</ele>
        <time>2018-09-21T14:55:51.000Z</time>
      </trkpt>
      <trkpt lat="46.7299" lon="-2.3852">
        <ele>5.9</ele>
        <time>2018-09-21T14:55:52.000Z</time>
      </trkpt>
      <trkpt lat="46.7299" lon="-2.38519">
        <ele>5.9</ele>
        <time>2018-09-21T14:55:53.000Z</time>
      </trkpt>
      <trkpt lat="46.7299" lon="-2.38517">
        <ele>5.9</ele>
        <time>2018-09-21T14:55:54.000Z</time>
      </trkpt>
      <trkpt lat="46.72989" lon="-2.38516">
        <ele>6</ele>
        <time>2018-09-21T14:55:55.000Z</time>
      </trkpt>
      <trkpt lat="46.72989" lon="-2.38514">
        <ele>6</ele>
        <time>2018-09-21T14:55:56.000Z</time>
      </trkpt>
      <trkpt lat="46.72989" lon="-2.38513">
        <ele>6</ele>
        <time>2018-09-21T14:55:57.000Z</time>
      </trkpt>
      <trkpt lat="46.72989" lon="-2.38511">
        <ele>6</ele>
        <time>2018-09-21T14:55:58.000Z</time>
      </trkpt>
      <trkpt lat="46.72989" lon="-2.3851">
        <ele>6</ele>
        <time>2018-09-21T14:55:59.000Z</time>
      </trkpt>
      <trkpt lat="46.72989" lon="-2.38508">
        <ele>6</ele>
        <time>2018-09-21T14:56:00.000Z</time>
      </trkpt>
      <trkpt lat="46.72989" lon="-2.38507">
        <ele>6.1</ele>
        <time>2018-09-21T14:56:01.000Z</time>
      </trkpt>
      <trkpt lat="46.72989" lon="-2.38506">
        <ele>6.1</ele>
        <time>2018-09-21T14:56:02.000Z</time>
      </trkpt>
      <trkpt lat="46.72989" lon="-2.38504">
        <ele>6.1</ele>
        <time>2018-09-21T14:56:03.000Z</time>
      </trkpt>
      <trkpt lat="46.72989" lon="-2.38503">
        <ele>6.1</ele>
        <time>2018-09-21T14:56:04.000Z</time>
      </trkpt>
      <trkpt lat="46.72989" lon="-2.38502">
        <ele>6.1</ele>
        <time>2018-09-21T14:56:05.000Z</time>
      </trkpt>
      <trkpt lat="46.72988" lon="-2.385">
        <ele>6.1</ele>
        <time>2018-09-21T14:56:06.000Z</time>
      </trkpt>
      <trkpt lat="46.72988" lon="-2.38499">
        <ele>6.1</ele>
        <time>2018-09-21T14:56:07.000Z</time>
      </trkpt>
      <trkpt lat="46.72988" lon="-2.38498">
        <ele>6.1</ele>
        <time>2018-09-21T14:56:08.000Z</time>
      </trkpt>
      <trkpt lat="46.72988" lon="-2.38496">
        <ele>6.1</ele>
        <time>2018-09-21T14:56:09.000Z</time>
      </trkpt>
      <trkpt lat="46.72988" lon="-2.38495">
        <ele>6.1</ele>
        <time>2018-09-21T14:56:10.000Z</time>
      </trkpt>
      <trkpt lat="46.72988" lon="-2.38494">
        <ele>6.2</ele>
        <time>2018-09-21T14:56:11.000Z</time>
      </trkpt>
      <trkpt lat="46.72988" lon="-2.38492">
        <ele>6.2</ele>
        <time>2018-09-21T14:56:12.000Z</time>
      </trkpt>
      <trkpt lat="46.72988" lon="-2.38491">
        <ele>6.2</ele>
        <time>2018-09-21T14:56:13.000Z</time>
      </trkpt>
      <trkpt lat="46.72988" lon="-2.3849">
        <ele>6.2</ele>
        <time>2018-09-21T14:56:14.000Z</time>
      </trkpt>
      <trkpt lat="46.72988" lon="-2.38488">
        <ele>6.2</ele>
        <time>2018-09-21T14:56:15.000Z</time>
      </trkpt>
      <trkpt lat="46.72988" lon="-2.38487">
        <ele>6.2</ele>
        <time>2018-09-21T14:56:16.000Z</time>
      </trkpt>
      <trkpt lat="46.72988" lon="-2.38486">
        <ele>6.2</ele>
        <time>2018-09-21T14:56:17.000Z</time>
      </trkpt>
      <trkpt lat="46.72988" lon="-2.38484">
        <ele>6.2</ele>
        <time>2018-09-21T14:56:18.000Z</time>
      </trkpt>
      <trkpt lat="46.72989" lon="-2.38483">
        <ele>6.2</ele>
        <time>2018-09-21T14:56:19.000Z</time>
      </trkpt>
      <trkpt lat="46.72989" lon="-2.38482">
        <ele>6.2</ele>
        <time>2018-09-21T14:56:20.000Z</time>
      </trkpt>
      <trkpt lat="46.72989" lon="-2.3848">
        <ele>6.2</ele>
        <time>2018-09-21T14:56:21.000Z</time>
      </trkpt>
      <trkpt lat="46.72989" lon="-2.38479">
        <ele>6.2</ele>
        <time>2018-09-21T14:56:22.000Z</time>
      </trkpt>
      <trkpt lat="46.72989" lon="-2.38478">
        <ele>6.2</ele>
        <time>2018-09-21T14:56:23.000Z</time>
      </trkpt>
      <trkpt lat="46.72989" lon="-2.38476">
        <ele>6.2</ele>
        <time>2018-09-21T14:56:24.000Z</time>
      </trkpt>
      <trkpt lat="46.7299" lon="-2.38475">
        <ele>6.2</ele>
        <time>2018-09-21T14:56:25.000Z</time>
      </trkpt>
      <trkpt lat="46.7299" lon="-2.38474">
        <ele>6.2</ele>
        <time>2018-09-21T14:56:26.000Z</time>
      </trkpt>
      <trkpt lat="46.7299" lon="-2.38473">
        <ele>6.2</ele>
        <time>2018-09-21T14:56:27.000Z</time>
      </trkpt>
      <trkpt lat="46.72991" lon="-2.38472">
        <ele>6.1</ele>
        <time>2018-09-21T14:56:28.000Z</time>
      </trkpt>
      <trkpt lat="46.72992" lon="-2.38471">
        <ele>6.1</ele>
        <time>2018-09-21T14:56:29.000Z</time>
      </trkpt>
      <trkpt lat="46.72992" lon="-2.3847">
        <ele>6.1</ele>
        <time>2018-09-21T14:56:30.000Z</time>
      </trkpt>
      <trkpt lat="46.72993" lon="-2.38469">
        <ele>6.1</ele>
        <time>2018-09-21T14:56:31.000Z</time>
      </trkpt>
      <trkpt lat="46.72994" lon="-2.38468">
        <ele>6.1</ele>
        <time>2018-09-21T14:56:32.000Z</time>
      </trkpt>
      <trkpt lat="46.72994" lon="-2.38467">
        <ele>6.1</ele>
        <time>2018-09-21T14:56:33.000Z</time>
      </trkpt>
      <trkpt lat="46.72994" lon="-2.38467">
        <ele>6.1</ele>
        <time>2018-09-21T14:56:34.000Z</time>
      </trkpt>
      <trkpt lat="46.72995" lon="-2.38467">
        <ele>6.1</ele>
        <time>2018-09-21T14:56:35.000Z</time>
      </trkpt>
      <trkpt lat="46.72994" lon="-2.38467">
        <ele>6.1</ele>
        <time>2018-09-21T14:56:36.000Z</time>
      </trkpt>
      <trkpt lat="46.72994" lon="-2.38467">
        <ele>6.1</ele>
        <time>2018-09-21T14:56:37.000Z</time>
      </trkpt>
      <trkpt lat="46.72994" lon="-2.38468">
        <ele>6.1</ele>
        <time>2018-09-21T14:56:38.000Z</time>
      </trkpt>
      <trkpt lat="46.72994" lon="-2.38468">
        <ele>6.1</ele>
        <time>2018-09-21T14:56:39.000Z</time>
      </trkpt>
      <trkpt lat="46.72994" lon="-2.38468">
        <ele>6.1</ele>
        <time>2018-09-21T14:56:40.000Z</time>
      </trkpt>
      <trkpt lat="46.72994" lon="-2.38468">
        <ele>6.1</ele>
        <time>2018-09-21T14:56:41.000Z</time>
      </trkpt>
      <trkpt lat="46.72994" lon="-2.38467">
        <ele>6.1</ele>
        <time>2018-09-21T14:56:42.000Z</time>
      </trkpt>
      <trkpt lat="46.72994" lon="-2.38467">
        <ele>6.1</ele>
        <time>2018-09-21T14:56:43.000Z</time>
      </trkpt>
      <trkpt lat="46.72995" lon="-2.38466">
        <ele>6.1</ele>
        <time>2018-09-21T14:56:44.000Z</time>
      </trkpt>
      <trkpt lat="46.72995" lon="-2.38466">
        <ele>6.1</ele>
        <time>2018-09-21T14:56:45.000Z</time>
      </trkpt>
      <trkpt lat="46.72995" lon="-2.38465">
        <ele>6.1</ele>
        <time>2018-09-21T14:56:46.000Z</time>
      </trkpt>
      <trkpt lat="46.72996" lon="-2.38465">
        <ele>6.1</ele>
        <time>2018-09-21T14:56:47.000Z</time>
      </trkpt>
      <trkpt lat="46.72996" lon="-2.38464">
        <ele>6.1</ele>
        <time>2018-09-21T14:56:48.000Z</time>
      </trkpt>
      <trkpt lat="46.72997" lon="-2.38463">
        <ele>6.1</ele>
        <time>2018-09-21T14:56:49.000Z</time>
      </trkpt>
      <trkpt lat="46.72997" lon="-2.38463">
        <ele>6</ele>
        <time>2018-09-21T14:56:50.000Z</time>
      </trkpt>
      <trkpt lat="46.72998" lon="-2.38462">
        <ele>6</ele>
        <time>2018-09-21T14:56:51.000Z</time>
      </trkpt>
      <trkpt lat="46.72998" lon="-2.38461">
        <ele>6</ele>
        <time>2018-09-21T14:56:52.000Z</time>
      </trkpt>
      <trkpt lat="46.72999" lon="-2.3846">
        <ele>6</ele>
        <time>2018-09-21T14:56:53.000Z</time>
      </trkpt>
      <trkpt lat="46.73" lon="-2.38459">
        <ele>6</ele>
        <time>2018-09-21T14:56:54.000Z</time>
      </trkpt>
      <trkpt lat="46.73001" lon="-2.38458">
        <ele>6</ele>
        <time>2018-09-21T14:56:55.000Z</time>
      </trkpt>
      <trkpt lat="46.73001" lon="-2.38457">
        <ele>5.9</ele>
        <time>2018-09-21T14:56:56.000Z</time>
      </trkpt>
      <trkpt lat="46.73002" lon="-2.38456">
        <ele>5.9</ele>
        <time>2018-09-21T14:56:57.000Z</time>
      </trkpt>
      <trkpt lat="46.73003" lon="-2.38455">
        <ele>5.8</ele>
        <time>2018-09-21T14:56:58.000Z</time>
      </trkpt>
      <trkpt lat="46.73003" lon="-2.38454">
        <ele>5.8</ele>
        <time>2018-09-21T14:56:59.000Z</time>
      </trkpt>
      <trkpt lat="46.73004" lon="-2.38453">
        <ele>5.7</ele>
        <time>2018-09-21T14:57:00.000Z</time>
      </trkpt>
      <trkpt lat="46.73005" lon="-2.38452">
        <ele>5.7</ele>
        <time>2018-09-21T14:57:01.000Z</time>
      </trkpt>
      <trkpt lat="46.73005" lon="-2.38451">
        <ele>5.7</ele>
        <time>2018-09-21T14:57:02.000Z</time>
      </trkpt>
      <trkpt lat="46.73006" lon="-2.3845">
        <ele>5.6</ele>
        <time>2018-09-21T14:57:03.000Z</time>
      </trkpt>
      <trkpt lat="46.73007" lon="-2.38449">
        <ele>5.6</ele>
        <time>2018-09-21T14:57:04.000Z</time>
      </trkpt>
      <trkpt lat="46.73007" lon="-2.38447">
        <ele>5.5</ele>
        <time>2018-09-21T14:57:05.000Z</time>
      </trkpt>
      <trkpt lat="46.73008" lon="-2.38446">
        <ele>5.5</ele>
        <time>2018-09-21T14:57:06.000Z</time>
      </trkpt>
      <trkpt lat="46.73009" lon="-2.38445">
        <ele>5.4</ele>
        <time>2018-09-21T14:57:07.000Z</time>
      </trkpt>
      <trkpt lat="46.73009" lon="-2.38444">
        <ele>5.4</ele>
        <time>2018-09-21T14:57:08.000Z</time>
      </trkpt>
      <trkpt lat="46.7301" lon="-2.38442">
        <ele>5.4</ele>
        <time>2018-09-21T14:57:09.000Z</time>
      </trkpt>
      <trkpt lat="46.73011" lon="-2.38441">
        <ele>5.3</ele>
        <time>2018-09-21T14:57:10.000Z</time>
      </trkpt>
      <trkpt lat="46.73011" lon="-2.3844">
        <ele>5.3</ele>
        <time>2018-09-21T14:57:11.000Z</time>
      </trkpt>
      <trkpt lat="46.73012" lon="-2.38438">
        <ele>5.3</ele>
        <time>2018-09-21T14:57:12.000Z</time>
      </trkpt>
      <trkpt lat="46.73012" lon="-2.38437">
        <ele>5.2</ele>
        <time>2018-09-21T14:57:13.000Z</time>
      </trkpt>
      <trkpt lat="46.73013" lon="-2.38436">
        <ele>5.2</ele>
        <time>2018-09-21T14:57:14.000Z</time>
      </trkpt>
      <trkpt lat="46.73014" lon="-2.38434">
        <ele>5.1</ele>
        <time>2018-09-21T14:57:15.000Z</time>
      </trkpt>
      <trkpt lat="46.73014" lon="-2.38433">
        <ele>5.1</ele>
        <time>2018-09-21T14:57:16.000Z</time>
      </trkpt>
      <trkpt lat="46.73015" lon="-2.38432">
        <ele>5.1</ele>
        <time>2018-09-21T14:57:17.000Z</time>
      </trkpt>
      <trkpt lat="46.73015" lon="-2.3843">
        <ele>5</ele>
        <time>2018-09-21T14:57:18.000Z</time>
      </trkpt>
      <trkpt lat="46.73016" lon="-2.38429">
        <ele>5</ele>
        <time>2018-09-21T14:57:19.000Z</time>
      </trkpt>
      <trkpt lat="46.73017" lon="-2.38427">
        <ele>5</ele>
        <time>2018-09-21T14:57:20.000Z</time>
      </trkpt>
      <trkpt lat="46.73017" lon="-2.38426">
        <ele>4.9</ele>
        <time>2018-09-21T14:57:21.000Z</time>
      </trkpt>
      <trkpt lat="46.73018" lon="-2.38425">
        <ele>4.9</ele>
        <time>2018-09-21T14:57:22.000Z</time>
      </trkpt>
      <trkpt lat="46.73018" lon="-2.38423">
        <ele>4.9</ele>
        <time>2018-09-21T14:57:23.000Z</time>
      </trkpt>
      <trkpt lat="46.73019" lon="-2.38422">
        <ele>4.9</ele>
        <time>2018-09-21T14:57:24.000Z</time>
      </trkpt>
      <trkpt lat="46.73019" lon="-2.3842">
        <ele>4.8</ele>
        <time>2018-09-21T14:57:25.000Z</time>
      </trkpt>
      <trkpt lat="46.7302" lon="-2.38419">
        <ele>4.8</ele>
        <time>2018-09-21T14:57:26.000Z</time>
      </trkpt>
      <trkpt lat="46.7302" lon="-2.38417">
        <ele>4.8</ele>
        <time>2018-09-21T14:57:27.000Z</time>
      </trkpt>
      <trkpt lat="46.73021" lon="-2.38415">
        <ele>4.8</ele>
        <time>2018-09-21T14:57:28.000Z</time>
      </trkpt>
      <trkpt lat="46.73021" lon="-2.38414">
        <ele>4.8</ele>
        <time>2018-09-21T14:57:29.000Z</time>
      </trkpt>
      <trkpt lat="46.73021" lon="-2.38412">
        <ele>4.9</ele>
        <time>2018-09-21T14:57:30.000Z</time>
      </trkpt>
      <trkpt lat="46.73022" lon="-2.3841">
        <ele>4.9</ele>
        <time>2018-09-21T14:57:31.000Z</time>
      </trkpt>
      <trkpt lat="46.73022" lon="-2.38409">
        <ele>4.9</ele>
        <time>2018-09-21T14:57:32.000Z</time>
      </trkpt>
      <trkpt lat="46.73022" lon="-2.38407">
        <ele>5</ele>
        <time>2018-09-21T14:57:33.000Z</time>
      </trkpt>
      <trkpt lat="46.73023" lon="-2.38406">
        <ele>5</ele>
        <time>2018-09-21T14:57:34.000Z</time>
      </trkpt>
      <trkpt lat="46.73023" lon="-2.38404">
        <ele>5</ele>
        <time>2018-09-21T14:57:35.000Z</time>
      </trkpt>
      <trkpt lat="46.73023" lon="-2.38402">
        <ele>5</ele>
        <time>2018-09-21T14:57:36.000Z</time>
      </trkpt>
      <trkpt lat="46.73024" lon="-2.38401">
        <ele>5.1</ele>
        <time>2018-09-21T14:57:37.000Z</time>
      </trkpt>
      <trkpt lat="46.73024" lon="-2.384">
        <ele>5.1</ele>
        <time>2018-09-21T14:57:38.000Z</time>
      </trkpt>
      <trkpt lat="46.73025" lon="-2.38398">
        <ele>5.1</ele>
        <time>2018-09-21T14:57:39.000Z</time>
      </trkpt>
      <trkpt lat="46.73025" lon="-2.38397">
        <ele>5.1</ele>
        <time>2018-09-21T14:57:40.000Z</time>
      </trkpt>
      <trkpt lat="46.73026" lon="-2.38396">
        <ele>5.1</ele>
        <time>2018-09-21T14:57:41.000Z</time>
      </trkpt>
      <trkpt lat="46.73026" lon="-2.38394">
        <ele>5.1</ele>
        <time>2018-09-21T14:57:42.000Z</time>
      </trkpt>
      <trkpt lat="46.73027" lon="-2.38393">
        <ele>5.2</ele>
        <time>2018-09-21T14:57:43.000Z</time>
      </trkpt>
      <trkpt lat="46.73027" lon="-2.38392">
        <ele>5.2</ele>
        <time>2018-09-21T14:57:44.000Z</time>
      </trkpt>
      <trkpt lat="46.73028" lon="-2.38391">
        <ele>5.2</ele>
        <time>2018-09-21T14:57:45.000Z</time>
      </trkpt>
      <trkpt lat="46.73028" lon="-2.3839">
        <ele>5.2</ele>
        <time>2018-09-21T14:57:46.000Z</time>
      </trkpt>
      <trkpt lat="46.73029" lon="-2.38388">
        <ele>5.2</ele>
        <time>2018-09-21T14:57:47.000Z</time>
      </trkpt>
      <trkpt lat="46.73029" lon="-2.38387">
        <ele>5.2</ele>
        <time>2018-09-21T14:57:48.000Z</time>
      </trkpt>
      <trkpt lat="46.7303" lon="-2.38386">
        <ele>5.2</ele>
        <time>2018-09-21T14:57:49.000Z</time>
      </trkpt>
      <trkpt lat="46.7303" lon="-2.38385">
        <ele>5.2</ele>
        <time>2018-09-21T14:57:50.000Z</time>
      </trkpt>
      <trkpt lat="46.73031" lon="-2.38384">
        <ele>5.2</ele>
        <time>2018-09-21T14:57:51.000Z</time>
      </trkpt>
      <trkpt lat="46.73032" lon="-2.38383">
        <ele>5.2</ele>
        <time>2018-09-21T14:57:52.000Z</time>
      </trkpt>
      <trkpt lat="46.73032" lon="-2.38381">
        <ele>5.3</ele>
        <time>2018-09-21T14:57:53.000Z</time>
      </trkpt>
      <trkpt lat="46.73033" lon="-2.3838">
        <ele>5.3</ele>
        <time>2018-09-21T14:57:54.000Z</time>
      </trkpt>
      <trkpt lat="46.73033" lon="-2.38379">
        <ele>5.3</ele>
        <time>2018-09-21T14:57:55.000Z</time>
      </trkpt>
      <trkpt lat="46.73034" lon="-2.38378">
        <ele>5.3</ele>
        <time>2018-09-21T14:57:56.000Z</time>
      </trkpt>
      <trkpt lat="46.73035" lon="-2.38376">
        <ele>5.3</ele>
        <time>2018-09-21T14:57:57.000Z</time>
      </trkpt>
      <trkpt lat="46.73035" lon="-2.38375">
        <ele>5.3</ele>
        <time>2018-09-21T14:57:58.000Z</time>
      </trkpt>
      <trkpt lat="46.73036" lon="-2.38374">
        <ele>5.3</ele>
        <time>2018-09-21T14:57:59.000Z</time>
      </trkpt>
      <trkpt lat="46.73037" lon="-2.38372">
        <ele>5.3</ele>
        <time>2018-09-21T14:58:00.000Z</time>
      </trkpt>
      <trkpt lat="46.73037" lon="-2.38371">
        <ele>5.4</ele>
        <time>2018-09-21T14:58:01.000Z</time>
      </trkpt>
      <trkpt lat="46.73038" lon="-2.3837">
        <ele>5.4</ele>
        <time>2018-09-21T14:58:02.000Z</time>
      </trkpt>
      <trkpt lat="46.73039" lon="-2.38368">
        <ele>5.4</ele>
        <time>2018-09-21T14:58:03.000Z</time>
      </trkpt>
      <trkpt lat="46.73039" lon="-2.38367">
        <ele>5.4</ele>
        <time>2018-09-21T14:58:04.000Z</time>
      </trkpt>
      <trkpt lat="46.7304" lon="-2.38366">
        <ele>5.4</ele>
        <time>2018-09-21T14:58:05.000Z</time>
      </trkpt>
      <trkpt lat="46.73041" lon="-2.38365">
        <ele>5.4</ele>
        <time>2018-09-21T14:58:06.000Z</time>
      </trkpt>
      <trkpt lat="46.73041" lon="-2.38363">
        <ele>5.4</ele>
        <time>2018-09-21T14:58:07.000Z</time>
      </trkpt>
      <trkpt lat="46.73042" lon="-2.38362">
        <ele>5.4</ele>
        <time>2018-09-21T14:58:08.000Z</time>
      </trkpt>
      <trkpt lat="46.73043" lon="-2.38361">
        <ele>5.4</ele>
        <time>2018-09-21T14:58:09.000Z</time>
      </trkpt>
      <trkpt lat="46.73044" lon="-2.3836">
        <ele>5.5</ele>
        <time>2018-09-21T14:58:10.000Z</time>
      </trkpt>
      <trkpt lat="46.73044" lon="-2.38359">
        <ele>5.5</ele>
        <time>2018-09-21T14:58:11.000Z</time>
      </trkpt>
      <trkpt lat="46.73045" lon="-2.38358">
        <ele>5.5</ele>
        <time>2018-09-21T14:58:12.000Z</time>
      </trkpt>
      <trkpt lat="46.73046" lon="-2.38357">
        <ele>5.5</ele>
        <time>2018-09-21T14:58:13.000Z</time>
      </trkpt>
      <trkpt lat="46.73047" lon="-2.38356">
        <ele>5.5</ele>
        <time>2018-09-21T14:58:14.000Z</time>
      </trkpt>
      <trkpt lat="46.73048" lon="-2.38355">
        <ele>5.5</ele>
        <time>2018-09-21T14:58:15.000Z</time>
      </trkpt>
      <trkpt lat="46.73048" lon="-2.38355">
        <ele>5.4</ele>
        <time>2018-09-21T14:58:16.000Z</time>
      </trkpt>
      <trkpt lat="46.73049" lon="-2.38354">
        <ele>5.4</ele>
        <time>2018-09-21T14:58:17.000Z</time>
      </trkpt>
      <trkpt lat="46.7305" lon="-2.38353">
        <ele>5.4</ele>
        <time>2018-09-21T14:58:18.000Z</time>
      </trkpt>
      <trkpt lat="46.73051" lon="-2.38353">
        <ele>5.4</ele>
        <time>2018-09-21T14:58:19.000Z</time>
      </trkpt>
      <trkpt lat="46.73052" lon="-2.38352">
        <ele>5.4</ele>
        <time>2018-09-21T14:58:20.000Z</time>
      </trkpt>
      <trkpt lat="46.73053" lon="-2.38352">
        <ele>5.4</ele>
        <time>2018-09-21T14:58:21.000Z</time>
      </trkpt>
      <trkpt lat="46.73053" lon="-2.38351">
        <ele>5.4</ele>
        <time>2018-09-21T14:58:22.000Z</time>
      </trkpt>
      <trkpt lat="46.73054" lon="-2.38351">
        <ele>5.3</ele>
        <time>2018-09-21T14:58:23.000Z</time>
      </trkpt>
      <trkpt lat="46.73055" lon="-2.38351">
        <ele>5.3</ele>
        <time>2018-09-21T14:58:24.000Z</time>
      </trkpt>
      <trkpt lat="46.73056" lon="-2.3835">
        <ele>5.3</ele>
        <time>2018-09-21T14:58:25.000Z</time>
      </trkpt>
      <trkpt lat="46.73057" lon="-2.3835">
        <ele>5.3</ele>
        <time>2018-09-21T14:58:26.000Z</time>
      </trkpt>
      <trkpt lat="46.73058" lon="-2.3835">
        <ele>5.2</ele>
        <time>2018-09-21T14:58:27.000Z</time>
      </trkpt>
      <trkpt lat="46.73059" lon="-2.3835">
        <ele>5.2</ele>
        <time>2018-09-21T14:58:28.000Z</time>
      </trkpt>
      <trkpt lat="46.7306" lon="-2.3835">
        <ele>5.2</ele>
        <time>2018-09-21T14:58:29.000Z</time>
      </trkpt>
      <trkpt lat="46.73061" lon="-2.3835">
        <ele>5.1</ele>
        <time>2018-09-21T14:58:30.000Z</time>
      </trkpt>
      <trkpt lat="46.73062" lon="-2.3835">
        <ele>5.1</ele>
        <time>2018-09-21T14:58:31.000Z</time>
      </trkpt>
      <trkpt lat="46.73063" lon="-2.38349">
        <ele>5.1</ele>
        <time>2018-09-21T14:58:32.000Z</time>
      </trkpt>
      <trkpt lat="46.73064" lon="-2.38349">
        <ele>5</ele>
        <time>2018-09-21T14:58:33.000Z</time>
      </trkpt>
      <trkpt lat="46.73065" lon="-2.38349">
        <ele>5</ele>
        <time>2018-09-21T14:58:34.000Z</time>
      </trkpt>
      <trkpt lat="46.73066" lon="-2.38349">
        <ele>4.9</ele>
        <time>2018-09-21T14:58:35.000Z</time>
      </trkpt>
      <trkpt lat="46.73067" lon="-2.38349">
        <ele>4.9</ele>
        <time>2018-09-21T14:58:36.000Z</time>
      </trkpt>
      <trkpt lat="46.73068" lon="-2.3835">
        <ele>4.9</ele>
        <time>2018-09-21T14:58:37.000Z</time>
      </trkpt>
      <trkpt lat="46.73069" lon="-2.3835">
        <ele>4.8</ele>
        <time>2018-09-21T14:58:38.000Z</time>
      </trkpt>
      <trkpt lat="46.7307" lon="-2.3835">
        <ele>4.8</ele>
        <time>2018-09-21T14:58:39.000Z</time>
      </trkpt>
      <trkpt lat="46.73071" lon="-2.3835">
        <ele>4.7</ele>
        <time>2018-09-21T14:58:40.000Z</time>
      </trkpt>
      <trkpt lat="46.73072" lon="-2.3835">
        <ele>4.7</ele>
        <time>2018-09-21T14:58:41.000Z</time>
      </trkpt>
      <trkpt lat="46.73073" lon="-2.3835">
        <ele>4.6</ele>
        <time>2018-09-21T14:58:42.000Z</time>
      </trkpt>
      <trkpt lat="46.73074" lon="-2.3835">
        <ele>4.6</ele>
        <time>2018-09-21T14:58:43.000Z</time>
      </trkpt>
      <trkpt lat="46.73075" lon="-2.3835">
        <ele>4.5</ele>
        <time>2018-09-21T14:58:44.000Z</time>
      </trkpt>
      <trkpt lat="46.73076" lon="-2.38351">
        <ele>4.5</ele>
        <time>2018-09-21T14:58:45.000Z</time>
      </trkpt>
      <trkpt lat="46.73077" lon="-2.38351">
        <ele>4.4</ele>
        <time>2018-09-21T14:58:46.000Z</time>
      </trkpt>
      <trkpt lat="46.73078" lon="-2.38351">
        <ele>4.4</ele>
        <time>2018-09-21T14:58:47.000Z</time>
      </trkpt>
      <trkpt lat="46.73079" lon="-2.38351">
        <ele>4.3</ele>
        <time>2018-09-21T14:58:48.000Z</time>
      </trkpt>
      <trkpt lat="46.7308" lon="-2.38351">
        <ele>4.3</ele>
        <time>2018-09-21T14:58:49.000Z</time>
      </trkpt>
      <trkpt lat="46.73081" lon="-2.38352">
        <ele>4.2</ele>
        <time>2018-09-21T14:58:50.000Z</time>
      </trkpt>
      <trkpt lat="46.73082" lon="-2.38352">
        <ele>4.2</ele>
        <time>2018-09-21T14:58:51.000Z</time>
      </trkpt>
      <trkpt lat="46.73083" lon="-2.38352">
        <ele>4.1</ele>
        <time>2018-09-21T14:58:52.000Z</time>
      </trkpt>
      <trkpt lat="46.73084" lon="-2.38352">
        <ele>4.1</ele>
        <time>2018-09-21T14:58:53.000Z</time>
      </trkpt>
      <trkpt lat="46.73085" lon="-2.38353">
        <ele>4.1</ele>
        <time>2018-09-21T14:58:54.000Z</time>
      </trkpt>
      <trkpt lat="46.73086" lon="-2.38353">
        <ele>4</ele>
        <time>2018-09-21T14:58:55.000Z</time>
      </trkpt>
      <trkpt lat="46.73086" lon="-2.38353">
        <ele>4</ele>
        <time>2018-09-21T14:58:56.000Z</time>
      </trkpt>
      <trkpt lat="46.73087" lon="-2.38354">
        <ele>4</ele>
        <time>2018-09-21T14:58:57.000Z</time>
      </trkpt>
      <trkpt lat="46.73088" lon="-2.38354">
        <ele>4</ele>
        <time>2018-09-21T14:58:58.000Z</time>
      </trkpt>
      <trkpt lat="46.73089" lon="-2.38354">
        <ele>3.9</ele>
        <time>2018-09-21T14:58:59.000Z</time>
      </trkpt>
      <trkpt lat="46.7309" lon="-2.38354">
        <ele>3.9</ele>
        <time>2018-09-21T14:59:00.000Z</time>
      </trkpt>
      <trkpt lat="46.73091" lon="-2.38355">
        <ele>3.9</ele>
        <time>2018-09-21T14:59:01.000Z</time>
      </trkpt>
      <trkpt lat="46.73092" lon="-2.38355">
        <ele>3.9</ele>
        <time>2018-09-21T14:59:02.000Z</time>
      </trkpt>
      <trkpt lat="46.73093" lon="-2.38355">
        <ele>3.8</ele>
        <time>2018-09-21T14:59:03.000Z</time>
      </trkpt>
      <trkpt lat="46.73094" lon="-2.38356">
        <ele>3.8</ele>
        <time>2018-09-21T14:59:04.000Z</time>
      </trkpt>
      <trkpt lat="46.73095" lon="-2.38356">
        <ele>3.8</ele>
        <time>2018-09-21T14:59:05.000Z</time>
      </trkpt>
      <trkpt lat="46.73096" lon="-2.38356">
        <ele>3.8</ele>
        <time>2018-09-21T14:59:06.000Z</time>
      </trkpt>
      <trkpt lat="46.73097" lon="-2.38356">
        <ele>3.7</ele>
        <time>2018-09-21T14:59:07.000Z</time>
      </trkpt>
      <trkpt lat="46.73098" lon="-2.38357">
        <ele>3.7</ele>
        <time>2018-09-21T14:59:08.000Z</time>
      </trkpt>
      <trkpt lat="46.73099" lon="-2.38357">
        <ele>3.7</ele>
        <time>2018-09-21T14:59:09.000Z</time>
      </trkpt>
      <trkpt lat="46.731" lon="-2.38357">
        <ele>3.7</ele>
        <time>2018-09-21T14:59:10.000Z</time>
      </trkpt>
      <trkpt lat="46.73101" lon="-2.38357">
        <ele>3.6</ele>
        <time>2018-09-21T14:59:11.000Z</time>
      </trkpt>
      <trkpt lat="46.73102" lon="-2.38358">
        <ele>3.6</ele>
        <time>2018-09-21T14:59:12.000Z</time>
      </trkpt>
      <trkpt lat="46.73103" lon="-2.38358">
        <ele>3.6</ele>
        <time>2018-09-21T14:59:13.000Z</time>
      </trkpt>
      <trkpt lat="46.73104" lon="-2.38358">
        <ele>3.6</ele>
        <time>2018-09-21T14:59:14.000Z</time>
      </trkpt>
      <trkpt lat="46.73105" lon="-2.38358">
        <ele>3.5</ele>
        <time>2018-09-21T14:59:15.000Z</time>
      </trkpt>
      <trkpt lat="46.73106" lon="-2.38359">
        <ele>3.5</ele>
        <time>2018-09-21T14:59:16.000Z</time>
      </trkpt>
      <trkpt lat="46.73107" lon="-2.38359">
        <ele>3.5</ele>
        <time>2018-09-21T14:59:17.000Z</time>
      </trkpt>
      <trkpt lat="46.73108" lon="-2.38359">
        <ele>3.5</ele>
        <time>2018-09-21T14:59:18.000Z</time>
      </trkpt>
      <trkpt lat="46.73109" lon="-2.38359">
        <ele>3.5</ele>
        <time>2018-09-21T14:59:19.000Z</time>
      </trkpt>
      <trkpt lat="46.7311" lon="-2.38359">
        <ele>3.4</ele>
        <time>2018-09-21T14:59:20.000Z</time>
      </trkpt>
      <trkpt lat="46.73111" lon="-2.38359">
        <ele>3.4</ele>
        <time>2018-09-21T14:59:21.000Z</time>
      </trkpt>
      <trkpt lat="46.73112" lon="-2.3836">
        <ele>3.4</ele>
        <time>2018-09-21T14:59:22.000Z</time>
      </trkpt>
      <trkpt lat="46.73113" lon="-2.3836">
        <ele>3.4</ele>
        <time>2018-09-21T14:59:23.000Z</time>
      </trkpt>
      <trkpt lat="46.73114" lon="-2.3836">
        <ele>3.4</ele>
        <time>2018-09-21T14:59:24.000Z</time>
      </trkpt>
      <trkpt lat="46.73115" lon="-2.3836">
        <ele>3.3</ele>
        <time>2018-09-21T14:59:25.000Z</time>
      </trkpt>
      <trkpt lat="46.73116" lon="-2.3836">
        <ele>3.3</ele>
        <time>2018-09-21T14:59:26.000Z</time>
      </trkpt>
      <trkpt lat="46.73117" lon="-2.3836">
        <ele>3.3</ele>
        <time>2018-09-21T14:59:27.000Z</time>
      </trkpt>
      <trkpt lat="46.73118" lon="-2.3836">
        <ele>3.3</ele>
        <time>2018-09-21T14:59:28.000Z</time>
      </trkpt>
      <trkpt lat="46.73119" lon="-2.3836">
        <ele>3.3</ele>
        <time>2018-09-21T14:59:29.000Z</time>
      </trkpt>
      <trkpt lat="46.7312" lon="-2.3836">
        <ele>3.3</ele>
        <time>2018-09-21T14:59:30.000Z</time>
      </trkpt>
      <trkpt lat="46.73121" lon="-2.3836">
        <ele>3.3</ele>
        <time>2018-09-21T14:59:31.000Z</time>
      </trkpt>
      <trkpt lat="46.73123" lon="-2.3836">
        <ele>3.3</ele>
        <time>2018-09-21T14:59:32.000Z</time>
      </trkpt>
      <trkpt lat="46.73124" lon="-2.3836">
        <ele>3.2</ele>
        <time>2018-09-21T14:59:33.000Z</time>
      </trkpt>
      <trkpt lat="46.73125" lon="-2.3836">
        <ele>3.2</ele>
        <time>2018-09-21T14:59:34.000Z</time>
      </trkpt>
      <trkpt lat="46.73126" lon="-2.3836">
        <ele>3.2</ele>
        <time>2018-09-21T14:59:35.000Z</time>
      </trkpt>
      <trkpt lat="46.73127" lon="-2.38359">
        <ele>3.2</ele>
        <time>2018-09-21T14:59:36.000Z</time>
      </trkpt>
      <trkpt lat="46.73128" lon="-2.38359">
        <ele>3.2</ele>
        <time>2018-09-21T14:59:37.000Z</time>
      </trkpt>
      <trkpt lat="46.73129" lon="-2.38359">
        <ele>3.2</ele>
        <time>2018-09-21T14:59:38.000Z</time>
      </trkpt>
      <trkpt lat="46.7313" lon="-2.38358">
        <ele>3.2</ele>
        <time>2018-09-21T14:59:39.000Z</time>
      </trkpt>
      <trkpt lat="46.73131" lon="-2.38358">
        <ele>3.2</ele>
        <time>2018-09-21T14:59:40.000Z</time>
      </trkpt>
      <trkpt lat="46.73132" lon="-2.38357">
        <ele>3.3</ele>
        <time>2018-09-21T14:59:41.000Z</time>
      </trkpt>
      <trkpt lat="46.73133" lon="-2.38357">
        <ele>3.3</ele>
        <time>2018-09-21T14:59:42.000Z</time>
      </trkpt>
      <trkpt lat="46.73134" lon="-2.38356">
        <ele>3.3</ele>
        <time>2018-09-21T14:59:43.000Z</time>
      </trkpt>
      <trkpt lat="46.73135" lon="-2.38356">
        <ele>3.3</ele>
        <time>2018-09-21T14:59:44.000Z</time>
      </trkpt>
      <trkpt lat="46.73136" lon="-2.38355">
        <ele>3.3</ele>
        <time>2018-09-21T14:59:45.000Z</time>
      </trkpt>
      <trkpt lat="46.73136" lon="-2.38354">
        <ele>3.4</ele>
        <time>2018-09-21T14:59:46.000Z</time>
      </trkpt>
      <trkpt lat="46.73137" lon="-2.38354">
        <ele>3.4</ele>
        <time>2018-09-21T14:59:47.000Z</time>
      </trkpt>
      <trkpt lat="46.73138" lon="-2.38353">
        <ele>3.4</ele>
        <time>2018-09-21T14:59:48.000Z</time>
      </trkpt>
      <trkpt lat="46.73139" lon="-2.38353">
        <ele>3.4</ele>
        <time>2018-09-21T14:59:49.000Z</time>
      </trkpt>
      <trkpt lat="46.73139" lon="-2.38352">
        <ele>3.4</ele>
        <time>2018-09-21T14:59:50.000Z</time>
      </trkpt>
      <trkpt lat="46.7314" lon="-2.38352">
        <ele>3.5</ele>
        <time>2018-09-21T14:59:51.000Z</time>
      </trkpt>
      <trkpt lat="46.73141" lon="-2.38351">
        <ele>3.5</ele>
        <time>2018-09-21T14:59:52.000Z</time>
      </trkpt>
      <trkpt lat="46.73141" lon="-2.38351">
        <ele>3.5</ele>
        <time>2018-09-21T14:59:53.000Z</time>
      </trkpt>
      <trkpt lat="46.73142" lon="-2.3835">
        <ele>3.5</ele>
        <time>2018-09-21T14:59:54.000Z</time>
      </trkpt>
      <trkpt lat="46.73143" lon="-2.38349">
        <ele>3.5</ele>
        <time>2018-09-21T14:59:55.000Z</time>
      </trkpt>
      <trkpt lat="46.73143" lon="-2.38349">
        <ele>3.5</ele>
        <time>2018-09-21T14:59:56.000Z</time>
      </trkpt>
      <trkpt lat="46.73144" lon="-2.38348">
        <ele>3.6</ele>
        <time>2018-09-21T14:59:57.000Z</time>
      </trkpt>
      <trkpt lat="46.73145" lon="-2.38347">
        <ele>3.6</ele>
        <time>2018-09-21T14:59:58.000Z</time>
      </trkpt>
      <trkpt lat="46.73146" lon="-2.38346">
        <ele>3.6</ele>
        <time>2018-09-21T14:59:59.000Z</time>
      </trkpt>
      <trkpt lat="46.73147" lon="-2.38345">
        <ele>3.7</ele>
        <time>2018-09-21T15:00:00.000Z</time>
      </trkpt>
      <trkpt lat="46.73148" lon="-2.38344">
        <ele>3.7</ele>
        <time>2018-09-21T15:00:01.000Z</time>
      </trkpt>
      <trkpt lat="46.73149" lon="-2.38343">
        <ele>3.8</ele>
        <time>2018-09-21T15:00:02.000Z</time>
      </trkpt>
      <trkpt lat="46.7315" lon="-2.38342">
        <ele>3.8</ele>
        <time>2018-09-21T15:00:03.000Z</time>
      </trkpt>
      <trkpt lat="46.73151" lon="-2.3834">
        <ele>3.9</ele>
        <time>2018-09-21T15:00:04.000Z</time>
      </trkpt>
      <trkpt lat="46.73152" lon="-2.38339">
        <ele>3.9</ele>
        <time>2018-09-21T15:00:05.000Z</time>
      </trkpt>
      <trkpt lat="46.73153" lon="-2.38338">
        <ele>4</ele>
        <time>2018-09-21T15:00:06.000Z</time>
      </trkpt>
      <trkpt lat="46.73154" lon="-2.38337">
        <ele>4</ele>
        <time>2018-09-21T15:00:07.000Z</time>
      </trkpt>
      <trkpt lat="46.73155" lon="-2.38335">
        <ele>4</ele>
        <time>2018-09-21T15:00:08.000Z</time>
      </trkpt>
      <trkpt lat="46.73156" lon="-2.38334">
        <ele>4.1</ele>
        <time>2018-09-21T15:00:09.000Z</time>
      </trkpt>
      <trkpt lat="46.73157" lon="-2.38333">
        <ele>4.1</ele>
        <time>2018-09-21T15:00:10.000Z</time>
      </trkpt>
      <trkpt lat="46.73158" lon="-2.38332">
        <ele>4.1</ele>
        <time>2018-09-21T15:00:11.000Z</time>
      </trkpt>
      <trkpt lat="46.73159" lon="-2.38331">
        <ele>4.2</ele>
        <time>2018-09-21T15:00:12.000Z</time>
      </trkpt>
      <trkpt lat="46.7316" lon="-2.3833">
        <ele>4.2</ele>
        <time>2018-09-21T15:00:13.000Z</time>
      </trkpt>
      <trkpt lat="46.73161" lon="-2.38329">
        <ele>4.2</ele>
        <time>2018-09-21T15:00:14.000Z</time>
      </trkpt>
      <trkpt lat="46.73162" lon="-2.38328">
        <ele>4.2</ele>
        <time>2018-09-21T15:00:15.000Z</time>
      </trkpt>
      <trkpt lat="46.73162" lon="-2.38327">
        <ele>4.2</ele>
        <time>2018-09-21T15:00:16.000Z</time>
      </trkpt>
      <trkpt lat="46.73163" lon="-2.38326">
        <ele>4.2</ele>
        <time>2018-09-21T15:00:17.000Z</time>
      </trkpt>
      <trkpt lat="46.73164" lon="-2.38325">
        <ele>4.2</ele>
        <time>2018-09-21T15:00:18.000Z</time>
      </trkpt>
      <trkpt lat="46.73165" lon="-2.38324">
        <ele>4.3</ele>
        <time>2018-09-21T15:00:19.000Z</time>
      </trkpt>
      <trkpt lat="46.73165" lon="-2.38323">
        <ele>4.3</ele>
        <time>2018-09-21T15:00:20.000Z</time>
      </trkpt>
      <trkpt lat="46.73166" lon="-2.38322">
        <ele>4.3</ele>
        <time>2018-09-21T15:00:21.000Z</time>
      </trkpt>
      <trkpt lat="46.73167" lon="-2.38321">
        <ele>4.3</ele>
        <time>2018-09-21T15:00:22.000Z</time>
      </trkpt>
      <trkpt lat="46.73168" lon="-2.3832">
        <ele>4.3</ele>
        <time>2018-09-21T15:00:23.000Z</time>
      </trkpt>
      <trkpt lat="46.73169" lon="-2.38319">
        <ele>4.3</ele>
        <time>2018-09-21T15:00:24.000Z</time>
      </trkpt>
      <trkpt lat="46.73169" lon="-2.38319">
        <ele>4.2</ele>
        <time>2018-09-21T15:00:25.000Z</time>
      </trkpt>
      <trkpt lat="46.7317" lon="-2.38318">
        <ele>4.2</ele>
        <time>2018-09-21T15:00:26.000Z</time>
      </trkpt>
      <trkpt lat="46.73171" lon="-2.38317">
        <ele>4.2</ele>
        <time>2018-09-21T15:00:27.000Z</time>
      </trkpt>
      <trkpt lat="46.73172" lon="-2.38316">
        <ele>4.2</ele>
        <time>2018-09-21T15:00:28.000Z</time>
      </trkpt>
      <trkpt lat="46.73173" lon="-2.38315">
        <ele>4.2</ele>
        <time>2018-09-21T15:00:29.000Z</time>
      </trkpt>
      <trkpt lat="46.73174" lon="-2.38315">
        <ele>4.1</ele>
        <time>2018-09-21T15:00:30.000Z</time>
      </trkpt>
      <trkpt lat="46.73175" lon="-2.38314">
        <ele>4.1</ele>
        <time>2018-09-21T15:00:31.000Z</time>
      </trkpt>
      <trkpt lat="46.73176" lon="-2.38313">
        <ele>4.1</ele>
        <time>2018-09-21T15:00:32.000Z</time>
      </trkpt>
      <trkpt lat="46.73177" lon="-2.38312">
        <ele>4.1</ele>
        <time>2018-09-21T15:00:33.000Z</time>
      </trkpt>
      <trkpt lat="46.73178" lon="-2.38311">
        <ele>4.1</ele>
        <time>2018-09-21T15:00:34.000Z</time>
      </trkpt>
      <trkpt lat="46.73179" lon="-2.38311">
        <ele>4</ele>
        <time>2018-09-21T15:00:35.000Z</time>
      </trkpt>
      <trkpt lat="46.7318" lon="-2.3831">
        <ele>4</ele>
        <time>2018-09-21T15:00:36.000Z</time>
      </trkpt>
      <trkpt lat="46.73181" lon="-2.38309">
        <ele>4</ele>
        <time>2018-09-21T15:00:37.000Z</time>
      </trkpt>
      <trkpt lat="46.73181" lon="-2.38308">
        <ele>4</ele>
        <time>2018-09-21T15:00:38.000Z</time>
      </trkpt>
      <trkpt lat="46.73182" lon="-2.38307">
        <ele>4</ele>
        <time>2018-09-21T15:00:39.000Z</time>
      </trkpt>
      <trkpt lat="46.73183" lon="-2.38306">
        <ele>4</ele>
        <time>2018-09-21T15:00:40.000Z</time>
      </trkpt>
      <trkpt lat="46.73184" lon="-2.38305">
        <ele>4</ele>
        <time>2018-09-21T15:00:41.000Z</time>
      </trkpt>
      <trkpt lat="46.73185" lon="-2.38304">
        <ele>4</ele>
        <time>2018-09-21T15:00:42.000Z</time>
      </trkpt>
      <trkpt lat="46.73186" lon="-2.38304">
        <ele>4</ele>
        <time>2018-09-21T15:00:43.000Z</time>
      </trkpt>
      <trkpt lat="46.73187" lon="-2.38303">
        <ele>3.9</ele>
        <time>2018-09-21T15:00:44.000Z</time>
      </trkpt>
      <trkpt lat="46.73188" lon="-2.38302">
        <ele>3.9</ele>
        <time>2018-09-21T15:00:45.000Z</time>
      </trkpt>
      <trkpt lat="46.73189" lon="-2.38302">
        <ele>3.9</ele>
        <time>2018-09-21T15:00:46.000Z</time>
      </trkpt>
      <trkpt lat="46.7319" lon="-2.38301">
        <ele>3.9</ele>
        <time>2018-09-21T15:00:47.000Z</time>
      </trkpt>
      <trkpt lat="46.7319" lon="-2.38301">
        <ele>3.9</ele>
        <time>2018-09-21T15:00:48.000Z</time>
      </trkpt>
      <trkpt lat="46.73191" lon="-2.383">
        <ele>3.9</ele>
        <time>2018-09-21T15:00:49.000Z</time>
      </trkpt>
      <trkpt lat="46.73192" lon="-2.383">
        <ele>3.8</ele>
        <time>2018-09-21T15:00:50.000Z</time>
      </trkpt>
      <trkpt lat="46.73193" lon="-2.38299">
        <ele>3.8</ele>
        <time>2018-09-21T15:00:51.000Z</time>
      </trkpt>
      <trkpt lat="46.73194" lon="-2.38298">
        <ele>3.8</ele>
        <time>2018-09-21T15:00:52.000Z</time>
      </trkpt>
      <trkpt lat="46.73195" lon="-2.38298">
        <ele>3.8</ele>
        <time>2018-09-21T15:00:53.000Z</time>
      </trkpt>
      <trkpt lat="46.73196" lon="-2.38297">
        <ele>3.8</ele>
        <time>2018-09-21T15:00:54.000Z</time>
      </trkpt>
      <trkpt lat="46.73197" lon="-2.38296">
        <ele>3.8</ele>
        <time>2018-09-21T15:00:55.000Z</time>
      </trkpt>
      <trkpt lat="46.73198" lon="-2.38295">
        <ele>3.8</ele>
        <time>2018-09-21T15:00:56.000Z</time>
      </trkpt>
      <trkpt lat="46.73198" lon="-2.38294">
        <ele>3.8</ele>
        <time>2018-09-21T15:00:57.000Z</time>
      </trkpt>
      <trkpt lat="46.73199" lon="-2.38294">
        <ele>3.8</ele>
        <time>2018-09-21T15:00:58.000Z</time>
      </trkpt>
      <trkpt lat="46.732" lon="-2.38293">
        <ele>3.8</ele>
        <time>2018-09-21T15:00:59.000Z</time>
      </trkpt>
      <trkpt lat="46.73201" lon="-2.38292">
        <ele>3.8</ele>
        <time>2018-09-21T15:01:00.000Z</time>
      </trkpt>
      <trkpt lat="46.73202" lon="-2.38291">
        <ele>3.8</ele>
        <time>2018-09-21T15:01:01.000Z</time>
      </trkpt>
      <trkpt lat="46.73203" lon="-2.3829">
        <ele>3.8</ele>
        <time>2018-09-21T15:01:02.000Z</time>
      </trkpt>
      <trkpt lat="46.73203" lon="-2.38289">
        <ele>3.8</ele>
        <time>2018-09-21T15:01:03.000Z</time>
      </trkpt>
      <trkpt lat="46.73204" lon="-2.38288">
        <ele>3.8</ele>
        <time>2018-09-21T15:01:04.000Z</time>
      </trkpt>
      <trkpt lat="46.73205" lon="-2.38287">
        <ele>3.8</ele>
        <time>2018-09-21T15:01:05.000Z</time>
      </trkpt>
      <trkpt lat="46.73206" lon="-2.38287">
        <ele>3.8</ele>
        <time>2018-09-21T15:01:06.000Z</time>
      </trkpt>
      <trkpt lat="46.73207" lon="-2.38286">
        <ele>3.7</ele>
        <time>2018-09-21T15:01:07.000Z</time>
      </trkpt>
      <trkpt lat="46.73208" lon="-2.38286">
        <ele>3.7</ele>
        <time>2018-09-21T15:01:08.000Z</time>
      </trkpt>
      <trkpt lat="46.73209" lon="-2.38285">
        <ele>3.7</ele>
        <time>2018-09-21T15:01:09.000Z</time>
      </trkpt>
      <trkpt lat="46.7321" lon="-2.38285">
        <ele>3.7</ele>
        <time>2018-09-21T15:01:10.000Z</time>
      </trkpt>
      <trkpt lat="46.73211" lon="-2.38285">
        <ele>3.7</ele>
        <time>2018-09-21T15:01:11.000Z</time>
      </trkpt>
      <trkpt lat="46.73212" lon="-2.38284">
        <ele>3.7</ele>
        <time>2018-09-21T15:01:12.000Z</time>
      </trkpt>
      <trkpt lat="46.73212" lon="-2.38284">
        <ele>3.6</ele>
        <time>2018-09-21T15:01:13.000Z</time>
      </trkpt>
      <trkpt lat="46.73213" lon="-2.38283">
        <ele>3.6</ele>
        <time>2018-09-21T15:01:14.000Z</time>
      </trkpt>
      <trkpt lat="46.73214" lon="-2.38283">
        <ele>3.6</ele>
        <time>2018-09-21T15:01:15.000Z</time>
      </trkpt>
      <trkpt lat="46.73215" lon="-2.38282">
        <ele>3.6</ele>
        <time>2018-09-21T15:01:16.000Z</time>
      </trkpt>
      <trkpt lat="46.73216" lon="-2.38282">
        <ele>3.6</ele>
        <time>2018-09-21T15:01:17.000Z</time>
      </trkpt>
      <trkpt lat="46.73217" lon="-2.38282">
        <ele>3.6</ele>
        <time>2018-09-21T15:01:18.000Z</time>
      </trkpt>
      <trkpt lat="46.73218" lon="-2.38281">
        <ele>3.6</ele>
        <time>2018-09-21T15:01:19.000Z</time>
      </trkpt>
      <trkpt lat="46.73219" lon="-2.38281">
        <ele>3.5</ele>
        <time>2018-09-21T15:01:20.000Z</time>
      </trkpt>
      <trkpt lat="46.7322" lon="-2.3828">
        <ele>3.5</ele>
        <time>2018-09-21T15:01:21.000Z</time>
      </trkpt>
      <trkpt lat="46.73221" lon="-2.3828">
        <ele>3.5</ele>
        <time>2018-09-21T15:01:22.000Z</time>
      </trkpt>
      <trkpt lat="46.73222" lon="-2.3828">
        <ele>3.5</ele>
        <time>2018-09-21T15:01:23.000Z</time>
      </trkpt>
      <trkpt lat="46.73223" lon="-2.3828">
        <ele>3.5</ele>
        <time>2018-09-21T15:01:24.000Z</time>
      </trkpt>
      <trkpt lat="46.73224" lon="-2.38279">
        <ele>3.5</ele>
        <time>2018-09-21T15:01:25.000Z</time>
      </trkpt>
      <trkpt lat="46.73224" lon="-2.38279">
        <ele>3.4</ele>
        <time>2018-09-21T15:01:26.000Z</time>
      </trkpt>
      <trkpt lat="46.73225" lon="-2.38279">
        <ele>3.4</ele>
        <time>2018-09-21T15:01:27.000Z</time>
      </trkpt>
      <trkpt lat="46.73226" lon="-2.38279">
        <ele>3.4</ele>
        <time>2018-09-21T15:01:28.000Z</time>
      </trkpt>
      <trkpt lat="46.73227" lon="-2.38278">
        <ele>3.4</ele>
        <time>2018-09-21T15:01:29.000Z</time>
      </trkpt>
      <trkpt lat="46.73228" lon="-2.38278">
        <ele>3.4</ele>
        <time>2018-09-21T15:01:30.000Z</time>
      </trkpt>
      <trkpt lat="46.73229" lon="-2.38278">
        <ele>3.3</ele>
        <time>2018-09-21T15:01:31.000Z</time>
      </trkpt>
      <trkpt lat="46.7323" lon="-2.38277">
        <ele>3.3</ele>
        <time>2018-09-21T15:01:32.000Z</time>
      </trkpt>
      <trkpt lat="46.73231" lon="-2.38277">
        <ele>3.3</ele>
        <time>2018-09-21T15:01:33.000Z</time>
      </trkpt>
      <trkpt lat="46.73232" lon="-2.38276">
        <ele>3.3</ele>
        <time>2018-09-21T15:01:34.000Z</time>
      </trkpt>
      <trkpt lat="46.73233" lon="-2.38276">
        <ele>3.3</ele>
        <time>2018-09-21T15:01:35.000Z</time>
      </trkpt>
      <trkpt lat="46.73233" lon="-2.38275">
        <ele>3.3</ele>
        <time>2018-09-21T15:01:36.000Z</time>
      </trkpt>
      <trkpt lat="46.73234" lon="-2.38274">
        <ele>3.3</ele>
        <time>2018-09-21T15:01:37.000Z</time>
      </trkpt>
      <trkpt lat="46.73235" lon="-2.38274">
        <ele>3.3</ele>
        <time>2018-09-21T15:01:38.000Z</time>
      </trkpt>
      <trkpt lat="46.73236" lon="-2.38273">
        <ele>3.3</ele>
        <time>2018-09-21T15:01:39.000Z</time>
      </trkpt>
      <trkpt lat="46.73237" lon="-2.38272">
        <ele>3.3</ele>
        <time>2018-09-21T15:01:40.000Z</time>
      </trkpt>
      <trkpt lat="46.73238" lon="-2.38272">
        <ele>3.3</ele>
        <time>2018-09-21T15:01:41.000Z</time>
      </trkpt>
      <trkpt lat="46.73239" lon="-2.38271">
        <ele>3.3</ele>
        <time>2018-09-21T15:01:42.000Z</time>
      </trkpt>
      <trkpt lat="46.7324" lon="-2.38271">
        <ele>3.3</ele>
        <time>2018-09-21T15:01:43.000Z</time>
      </trkpt>
      <trkpt lat="46.73241" lon="-2.3827">
        <ele>3.3</ele>
        <time>2018-09-21T15:01:44.000Z</time>
      </trkpt>
      <trkpt lat="46.73242" lon="-2.3827">
        <ele>3.3</ele>
        <time>2018-09-21T15:01:45.000Z</time>
      </trkpt>
      <trkpt lat="46.73243" lon="-2.38269">
        <ele>3.3</ele>
        <time>2018-09-21T15:01:46.000Z</time>
      </trkpt>
      <trkpt lat="46.73244" lon="-2.38269">
        <ele>3.3</ele>
        <time>2018-09-21T15:01:47.000Z</time>
      </trkpt>
      <trkpt lat="46.73245" lon="-2.38268">
        <ele>3.3</ele>
        <time>2018-09-21T15:01:48.000Z</time>
      </trkpt>
      <trkpt lat="46.73245" lon="-2.38268">
        <ele>3.3</ele>
        <time>2018-09-21T15:01:49.000Z</time>
      </trkpt>
      <trkpt lat="46.73246" lon="-2.38267">
        <ele>3.3</ele>
        <time>2018-09-21T15:01:50.000Z</time>
      </trkpt>
      <trkpt lat="46.73247" lon="-2.38267">
        <ele>3.3</ele>
        <time>2018-09-21T15:01:51.000Z</time>
      </trkpt>
      <trkpt lat="46.73248" lon="-2.38267">
        <ele>3.3</ele>
        <time>2018-09-21T15:01:52.000Z</time>
      </trkpt>
      <trkpt lat="46.73249" lon="-2.38266">
        <ele>3.3</ele>
        <time>2018-09-21T15:01:53.000Z</time>
      </trkpt>
      <trkpt lat="46.73249" lon="-2.38266">
        <ele>3.3</ele>
        <time>2018-09-21T15:01:54.000Z</time>
      </trkpt>
      <trkpt lat="46.7325" lon="-2.38266">
        <ele>3.3</ele>
        <time>2018-09-21T15:01:55.000Z</time>
      </trkpt>
      <trkpt lat="46.73251" lon="-2.38265">
        <ele>3.3</ele>
        <time>2018-09-21T15:01:56.000Z</time>
      </trkpt>
      <trkpt lat="46.73251" lon="-2.38265">
        <ele>3.3</ele>
        <time>2018-09-21T15:01:57.000Z</time>
      </trkpt>
      <trkpt lat="46.73252" lon="-2.38265">
        <ele>3.3</ele>
        <time>2018-09-21T15:01:58.000Z</time>
      </trkpt>
      <trkpt lat="46.73252" lon="-2.38265">
        <ele>3.3</ele>
        <time>2018-09-21T15:01:59.000Z</time>
      </trkpt>
      <trkpt lat="46.73252" lon="-2.38264">
        <ele>3.3</ele>
        <time>2018-09-21T15:02:00.000Z</time>
      </trkpt>
      <trkpt lat="46.73252" lon="-2.38264">
        <ele>3.3</ele>
        <time>2018-09-21T15:02:01.000Z</time>
      </trkpt>
      <trkpt lat="46.73252" lon="-2.38264">
        <ele>3.3</ele>
        <time>2018-09-21T15:02:02.000Z</time>
      </trkpt>
      <trkpt lat="46.73252" lon="-2.38264">
        <ele>3.3</ele>
        <time>2018-09-21T15:02:03.000Z</time>
      </trkpt>
      <trkpt lat="46.73252" lon="-2.38264">
        <ele>3.3</ele>
        <time>2018-09-21T15:02:04.000Z</time>
      </trkpt>
      <trkpt lat="46.73252" lon="-2.38264">
        <ele>3.3</ele>
        <time>2018-09-21T15:02:05.000Z</time>
      </trkpt>
      <trkpt lat="46.73252" lon="-2.38264">
        <ele>3.3</ele>
        <time>2018-09-21T15:02:06.000Z</time>
      </trkpt>
      <trkpt lat="46.73252" lon="-2.38264">
        <ele>3.3</ele>
        <time>2018-09-21T15:02:07.000Z</time>
      </trkpt>
      <trkpt lat="46.73252" lon="-2.38264">
        <ele>3.3</ele>
        <time>2018-09-21T15:02:08.000Z</time>
      </trkpt>
      <trkpt lat="46.73252" lon="-2.38264">
        <ele>3.3</ele>
        <time>2018-09-21T15:02:09.000Z</time>
      </trkpt>
      <trkpt lat="46.73253" lon="-2.38264">
        <ele>3.3</ele>
        <time>2018-09-21T15:02:10.000Z</time>
      </trkpt>
      <trkpt lat="46.73253" lon="-2.38264">
        <ele>3.3</ele>
        <time>2018-09-21T15:02:11.000Z</time>
      </trkpt>
      <trkpt lat="46.73253" lon="-2.38264">
        <ele>3.3</ele>
        <time>2018-09-21T15:02:12.000Z</time>
      </trkpt>
      <trkpt lat="46.73254" lon="-2.38264">
        <ele>3.3</ele>
        <time>2018-09-21T15:02:13.000Z</time>
      </trkpt>
      <trkpt lat="46.73254" lon="-2.38264">
        <ele>3.2</ele>
        <time>2018-09-21T15:02:14.000Z</time>
      </trkpt>
      <trkpt lat="46.73255" lon="-2.38264">
        <ele>3.2</ele>
        <time>2018-09-21T15:02:15.000Z</time>
      </trkpt>
      <trkpt lat="46.73255" lon="-2.38263">
        <ele>3.2</ele>
        <time>2018-09-21T15:02:16.000Z</time>
      </trkpt>
      <trkpt lat="46.73256" lon="-2.38263">
        <ele>3.2</ele>
        <time>2018-09-21T15:02:17.000Z</time>
      </trkpt>
      <trkpt lat="46.73257" lon="-2.38263">
        <ele>3.2</ele>
        <time>2018-09-21T15:02:18.000Z</time>
      </trkpt>
      <trkpt lat="46.73258" lon="-2.38262">
        <ele>3.2</ele>
        <time>2018-09-21T15:02:19.000Z</time>
      </trkpt>
      <trkpt lat="46.73259" lon="-2.38262">
        <ele>3.2</ele>
        <time>2018-09-21T15:02:20.000Z</time>
      </trkpt>
      <trkpt lat="46.7326" lon="-2.38261">
        <ele>3.2</ele>
        <time>2018-09-21T15:02:21.000Z</time>
      </trkpt>
      <trkpt lat="46.73261" lon="-2.38261">
        <ele>3.2</ele>
        <time>2018-09-21T15:02:22.000Z</time>
      </trkpt>
      <trkpt lat="46.73262" lon="-2.3826">
        <ele>3.2</ele>
        <time>2018-09-21T15:02:23.000Z</time>
      </trkpt>
      <trkpt lat="46.73263" lon="-2.3826">
        <ele>3.2</ele>
        <time>2018-09-21T15:02:24.000Z</time>
      </trkpt>
      <trkpt lat="46.73264" lon="-2.38259">
        <ele>3.3</ele>
        <time>2018-09-21T15:02:25.000Z</time>
      </trkpt>
      <trkpt lat="46.73265" lon="-2.38258">
        <ele>3.3</ele>
        <time>2018-09-21T15:02:26.000Z</time>
      </trkpt>
      <trkpt lat="46.73266" lon="-2.38257">
        <ele>3.3</ele>
        <time>2018-09-21T15:02:27.000Z</time>
      </trkpt>
      <trkpt lat="46.73267" lon="-2.38257">
        <ele>3.3</ele>
        <time>2018-09-21T15:02:28.000Z</time>
      </trkpt>
      <trkpt lat="46.73269" lon="-2.38256">
        <ele>3.3</ele>
        <time>2018-09-21T15:02:29.000Z</time>
      </trkpt>
      <trkpt lat="46.7327" lon="-2.38255">
        <ele>3.3</ele>
        <time>2018-09-21T15:02:30.000Z</time>
      </trkpt>
      <trkpt lat="46.73271" lon="-2.38254">
        <ele>3.3</ele>
        <time>2018-09-21T15:02:31.000Z</time>
      </trkpt>
      <trkpt lat="46.73271" lon="-2.38253">
        <ele>3.3</ele>
        <time>2018-09-21T15:02:32.000Z</time>
      </trkpt>
      <trkpt lat="46.73272" lon="-2.38253">
        <ele>3.3</ele>
        <time>2018-09-21T15:02:33.000Z</time>
      </trkpt>
      <trkpt lat="46.73273" lon="-2.38252">
        <ele>3.4</ele>
        <time>2018-09-21T15:02:34.000Z</time>
      </trkpt>
      <trkpt lat="46.73274" lon="-2.38251">
        <ele>3.4</ele>
        <time>2018-09-21T15:02:35.000Z</time>
      </trkpt>
      <trkpt lat="46.73275" lon="-2.3825">
        <ele>3.4</ele>
        <time>2018-09-21T15:02:36.000Z</time>
      </trkpt>
      <trkpt lat="46.73276" lon="-2.38249">
        <ele>3.4</ele>
        <time>2018-09-21T15:02:37.000Z</time>
      </trkpt>
      <trkpt lat="46.73276" lon="-2.38248">
        <ele>3.4</ele>
        <time>2018-09-21T15:02:38.000Z</time>
      </trkpt>
      <trkpt lat="46.73277" lon="-2.38247">
        <ele>3.4</ele>
        <time>2018-09-21T15:02:39.000Z</time>
      </trkpt>
      <trkpt lat="46.73278" lon="-2.38246">
        <ele>3.4</ele>
        <time>2018-09-21T15:02:40.000Z</time>
      </trkpt>
      <trkpt lat="46.73279" lon="-2.38245">
        <ele>3.4</ele>
        <time>2018-09-21T15:02:41.000Z</time>
      </trkpt>
      <trkpt lat="46.73279" lon="-2.38244">
        <ele>3.4</ele>
        <time>2018-09-21T15:02:42.000Z</time>
      </trkpt>
      <trkpt lat="46.7328" lon="-2.38243">
        <ele>3.4</ele>
        <time>2018-09-21T15:02:43.000Z</time>
      </trkpt>
      <trkpt lat="46.73281" lon="-2.38242">
        <ele>3.4</ele>
        <time>2018-09-21T15:02:44.000Z</time>
      </trkpt>
      <trkpt lat="46.73282" lon="-2.38241">
        <ele>3.4</ele>
        <time>2018-09-21T15:02:45.000Z</time>
      </trkpt>
      <trkpt lat="46.73282" lon="-2.3824">
        <ele>3.3</ele>
        <time>2018-09-21T15:02:46.000Z</time>
      </trkpt>
      <trkpt lat="46.73283" lon="-2.38238">
        <ele>3.3</ele>
        <time>2018-09-21T15:02:47.000Z</time>
      </trkpt>
      <trkpt lat="46.73284" lon="-2.38237">
        <ele>3.3</ele>
        <time>2018-09-21T15:02:48.000Z</time>
      </trkpt>
      <trkpt lat="46.73285" lon="-2.38236">
        <ele>3.3</ele>
        <time>2018-09-21T15:02:49.000Z</time>
      </trkpt>
      <trkpt lat="46.73286" lon="-2.38235">
        <ele>3.3</ele>
        <time>2018-09-21T15:02:50.000Z</time>
      </trkpt>
      <trkpt lat="46.73286" lon="-2.38234">
        <ele>3.3</ele>
        <time>2018-09-21T15:02:51.000Z</time>
      </trkpt>
      <trkpt lat="46.73287" lon="-2.38233">
        <ele>3.3</ele>
        <time>2018-09-21T15:02:52.000Z</time>
      </trkpt>
      <trkpt lat="46.73288" lon="-2.38232">
        <ele>3.3</ele>
        <time>2018-09-21T15:02:53.000Z</time>
      </trkpt>
      <trkpt lat="46.73289" lon="-2.38231">
        <ele>3.3</ele>
        <time>2018-09-21T15:02:54.000Z</time>
      </trkpt>
      <trkpt lat="46.73289" lon="-2.3823">
        <ele>3.3</ele>
        <time>2018-09-21T15:02:55.000Z</time>
      </trkpt>
      <trkpt lat="46.7329" lon="-2.38229">
        <ele>3.3</ele>
        <time>2018-09-21T15:02:56.000Z</time>
      </trkpt>
      <trkpt lat="46.7329" lon="-2.38228">
        <ele>3.3</ele>
        <time>2018-09-21T15:02:57.000Z</time>
      </trkpt>
      <trkpt lat="46.73291" lon="-2.38228">
        <ele>3.3</ele>
        <time>2018-09-21T15:02:58.000Z</time>
      </trkpt>
      <trkpt lat="46.73291" lon="-2.38227">
        <ele>3.3</ele>
        <time>2018-09-21T15:02:59.000Z</time>
      </trkpt>
      <trkpt lat="46.73292" lon="-2.38226">
        <ele>3.3</ele>
        <time>2018-09-21T15:03:00.000Z</time>
      </trkpt>
      <trkpt lat="46.73292" lon="-2.38226">
        <ele>3.3</ele>
        <time>2018-09-21T15:03:01.000Z</time>
      </trkpt>
      <trkpt lat="46.73293" lon="-2.38225">
        <ele>3.3</ele>
        <time>2018-09-21T15:03:02.000Z</time>
      </trkpt>
      <trkpt lat="46.73294" lon="-2.38224">
        <ele>3.3</ele>
        <time>2018-09-21T15:03:03.000Z</time>
      </trkpt>
      <trkpt lat="46.73295" lon="-2.38224">
        <ele>3.2</ele>
        <time>2018-09-21T15:03:04.000Z</time>
      </trkpt>
      <trkpt lat="46.73296" lon="-2.38223">
        <ele>3.2</ele>
        <time>2018-09-21T15:03:05.000Z</time>
      </trkpt>
      <trkpt lat="46.73298" lon="-2.38222">
        <ele>3.2</ele>
        <time>2018-09-21T15:03:06.000Z</time>
      </trkpt>
      <trkpt lat="46.73299" lon="-2.38221">
        <ele>3.2</ele>
        <time>2018-09-21T15:03:07.000Z</time>
      </trkpt>
      <trkpt lat="46.733" lon="-2.3822">
        <ele>3.2</ele>
        <time>2018-09-21T15:03:08.000Z</time>
      </trkpt>
      <trkpt lat="46.73301" lon="-2.38219">
        <ele>3.1</ele>
        <time>2018-09-21T15:03:09.000Z</time>
      </trkpt>
      <trkpt lat="46.73302" lon="-2.38218">
        <ele>3.1</ele>
        <time>2018-09-21T15:03:10.000Z</time>
      </trkpt>
      <trkpt lat="46.73303" lon="-2.38217">
        <ele>3.1</ele>
        <time>2018-09-21T15:03:11.000Z</time>
      </trkpt>
      <trkpt lat="46.73304" lon="-2.38216">
        <ele>3.1</ele>
        <time>2018-09-21T15:03:12.000Z</time>
      </trkpt>
      <trkpt lat="46.73305" lon="-2.38215">
        <ele>3.1</ele>
        <time>2018-09-21T15:03:13.000Z</time>
      </trkpt>
      <trkpt lat="46.73306" lon="-2.38213">
        <ele>3.1</ele>
        <time>2018-09-21T15:03:14.000Z</time>
      </trkpt>
      <trkpt lat="46.73307" lon="-2.38212">
        <ele>3.1</ele>
        <time>2018-09-21T15:03:15.000Z</time>
      </trkpt>
      <trkpt lat="46.73307" lon="-2.38211">
        <ele>3.1</ele>
        <time>2018-09-21T15:03:16.000Z</time>
      </trkpt>
      <trkpt lat="46.73308" lon="-2.3821">
        <ele>3.1</ele>
        <time>2018-09-21T15:03:17.000Z</time>
      </trkpt>
      <trkpt lat="46.73309" lon="-2.38208">
        <ele>3.1</ele>
        <time>2018-09-21T15:03:18.000Z</time>
      </trkpt>
      <trkpt lat="46.7331" lon="-2.38207">
        <ele>3.1</ele>
        <time>2018-09-21T15:03:19.000Z</time>
      </trkpt>
      <trkpt lat="46.7331" lon="-2.38206">
        <ele>3.1</ele>
        <time>2018-09-21T15:03:20.000Z</time>
      </trkpt>
      <trkpt lat="46.73311" lon="-2.38205">
        <ele>3.1</ele>
        <time>2018-09-21T15:03:21.000Z</time>
      </trkpt>
      <trkpt lat="46.73312" lon="-2.38203">
        <ele>3.1</ele>
        <time>2018-09-21T15:03:22.000Z</time>
      </trkpt>
      <trkpt lat="46.73312" lon="-2.38202">
        <ele>3.1</ele>
        <time>2018-09-21T15:03:23.000Z</time>
      </trkpt>
      <trkpt lat="46.73313" lon="-2.38201">
        <ele>3.1</ele>
        <time>2018-09-21T15:03:24.000Z</time>
      </trkpt>
      <trkpt lat="46.73314" lon="-2.382">
        <ele>3.1</ele>
        <time>2018-09-21T15:03:25.000Z</time>
      </trkpt>
      <trkpt lat="46.73314" lon="-2.38198">
        <ele>3.1</ele>
        <time>2018-09-21T15:03:26.000Z</time>
      </trkpt>
      <trkpt lat="46.73315" lon="-2.38197">
        <ele>3.1</ele>
        <time>2018-09-21T15:03:27.000Z</time>
      </trkpt>
      <trkpt lat="46.73315" lon="-2.38196">
        <ele>3.1</ele>
        <time>2018-09-21T15:03:28.000Z</time>
      </trkpt>
      <trkpt lat="46.73316" lon="-2.38194">
        <ele>3.1</ele>
        <time>2018-09-21T15:03:29.000Z</time>
      </trkpt>
      <trkpt lat="46.73317" lon="-2.38193">
        <ele>3.1</ele>
        <time>2018-09-21T15:03:30.000Z</time>
      </trkpt>
      <trkpt lat="46.73317" lon="-2.38192">
        <ele>3.1</ele>
        <time>2018-09-21T15:03:31.000Z</time>
      </trkpt>
      <trkpt lat="46.73318" lon="-2.3819">
        <ele>3.1</ele>
        <time>2018-09-21T15:03:32.000Z</time>
      </trkpt>
      <trkpt lat="46.73318" lon="-2.38189">
        <ele>3.1</ele>
        <time>2018-09-21T15:03:33.000Z</time>
      </trkpt>
      <trkpt lat="46.73319" lon="-2.38187">
        <ele>3.1</ele>
        <time>2018-09-21T15:03:34.000Z</time>
      </trkpt>
      <trkpt lat="46.73319" lon="-2.38186">
        <ele>3.1</ele>
        <time>2018-09-21T15:03:35.000Z</time>
      </trkpt>
      <trkpt lat="46.7332" lon="-2.38184">
        <ele>3.1</ele>
        <time>2018-09-21T15:03:36.000Z</time>
      </trkpt>
      <trkpt lat="46.7332" lon="-2.38183">
        <ele>3.1</ele>
        <time>2018-09-21T15:03:37.000Z</time>
      </trkpt>
      <trkpt lat="46.73321" lon="-2.38181">
        <ele>3.1</ele>
        <time>2018-09-21T15:03:38.000Z</time>
      </trkpt>
      <trkpt lat="46.73321" lon="-2.3818">
        <ele>3.1</ele>
        <time>2018-09-21T15:03:39.000Z</time>
      </trkpt>
      <trkpt lat="46.73322" lon="-2.38178">
        <ele>3.1</ele>
        <time>2018-09-21T15:03:40.000Z</time>
      </trkpt>
      <trkpt lat="46.73322" lon="-2.38176">
        <ele>3.2</ele>
        <time>2018-09-21T15:03:41.000Z</time>
      </trkpt>
      <trkpt lat="46.73322" lon="-2.38175">
        <ele>3.2</ele>
        <time>2018-09-21T15:03:42.000Z</time>
      </trkpt>
      <trkpt lat="46.73323" lon="-2.38173">
        <ele>3.2</ele>
        <time>2018-09-21T15:03:43.000Z</time>
      </trkpt>
      <trkpt lat="46.73323" lon="-2.38171">
        <ele>3.2</ele>
        <time>2018-09-21T15:03:44.000Z</time>
      </trkpt>
      <trkpt lat="46.73323" lon="-2.3817">
        <ele>3.2</ele>
        <time>2018-09-21T15:03:45.000Z</time>
      </trkpt>
      <trkpt lat="46.73324" lon="-2.38168">
        <ele>3.2</ele>
        <time>2018-09-21T15:03:46.000Z</time>
      </trkpt>
      <trkpt lat="46.73324" lon="-2.38167">
        <ele>3.2</ele>
        <time>2018-09-21T15:03:47.000Z</time>
      </trkpt>
      <trkpt lat="46.73324" lon="-2.38165">
        <ele>3.2</ele>
        <time>2018-09-21T15:03:48.000Z</time>
      </trkpt>
      <trkpt lat="46.73324" lon="-2.38163">
        <ele>3.2</ele>
        <time>2018-09-21T15:03:49.000Z</time>
      </trkpt>
      <trkpt lat="46.73324" lon="-2.38162">
        <ele>3.2</ele>
        <time>2018-09-21T15:03:50.000Z</time>
      </trkpt>
      <trkpt lat="46.73324" lon="-2.3816">
        <ele>3.1</ele>
        <time>2018-09-21T15:03:51.000Z</time>
      </trkpt>
      <trkpt lat="46.73324" lon="-2.38158">
        <ele>3.1</ele>
        <time>2018-09-21T15:03:52.000Z</time>
      </trkpt>
      <trkpt lat="46.73324" lon="-2.38157">
        <ele>3.1</ele>
        <time>2018-09-21T15:03:53.000Z</time>
      </trkpt>
      <trkpt lat="46.73324" lon="-2.38155">
        <ele>3.1</ele>
        <time>2018-09-21T15:03:54.000Z</time>
      </trkpt>
      <trkpt lat="46.73323" lon="-2.38154">
        <ele>3.1</ele>
        <time>2018-09-21T15:03:55.000Z</time>
      </trkpt>
      <trkpt lat="46.73323" lon="-2.38152">
        <ele>3.1</ele>
        <time>2018-09-21T15:03:56.000Z</time>
      </trkpt>
      <trkpt lat="46.73323" lon="-2.38151">
        <ele>3.1</ele>
        <time>2018-09-21T15:03:57.000Z</time>
      </trkpt>
      <trkpt lat="46.73322" lon="-2.38149">
        <ele>3.1</ele>
        <time>2018-09-21T15:03:58.000Z</time>
      </trkpt>
      <trkpt lat="46.73322" lon="-2.38148">
        <ele>3.1</ele>
        <time>2018-09-21T15:03:59.000Z</time>
      </trkpt>
      <trkpt lat="46.73321" lon="-2.38146">
        <ele>3</ele>
        <time>2018-09-21T15:04:00.000Z</time>
      </trkpt>
      <trkpt lat="46.73321" lon="-2.38145">
        <ele>3</ele>
        <time>2018-09-21T15:04:01.000Z</time>
      </trkpt>
      <trkpt lat="46.7332" lon="-2.38143">
        <ele>3</ele>
        <time>2018-09-21T15:04:02.000Z</time>
      </trkpt>
      <trkpt lat="46.7332" lon="-2.38141">
        <ele>3</ele>
        <time>2018-09-21T15:04:03.000Z</time>
      </trkpt>
      <trkpt lat="46.73319" lon="-2.3814">
        <ele>3</ele>
        <time>2018-09-21T15:04:04.000Z</time>
      </trkpt>
      <trkpt lat="46.73319" lon="-2.38138">
        <ele>3</ele>
        <time>2018-09-21T15:04:05.000Z</time>
      </trkpt>
      <trkpt lat="46.73318" lon="-2.38137">
        <ele>3</ele>
        <time>2018-09-21T15:04:06.000Z</time>
      </trkpt>
      <trkpt lat="46.73318" lon="-2.38135">
        <ele>3</ele>
        <time>2018-09-21T15:04:07.000Z</time>
      </trkpt>
      <trkpt lat="46.73317" lon="-2.38133">
        <ele>3</ele>
        <time>2018-09-21T15:04:08.000Z</time>
      </trkpt>
      <trkpt lat="46.73317" lon="-2.38132">
        <ele>3</ele>
        <time>2018-09-21T15:04:09.000Z</time>
      </trkpt>
      <trkpt lat="46.73316" lon="-2.3813">
        <ele>3</ele>
        <time>2018-09-21T15:04:10.000Z</time>
      </trkpt>
      <trkpt lat="46.73316" lon="-2.38129">
        <ele>3</ele>
        <time>2018-09-21T15:04:11.000Z</time>
      </trkpt>
      <trkpt lat="46.73315" lon="-2.38127">
        <ele>3</ele>
        <time>2018-09-21T15:04:12.000Z</time>
      </trkpt>
      <trkpt lat="46.73315" lon="-2.38126">
        <ele>3</ele>
        <time>2018-09-21T15:04:13.000Z</time>
      </trkpt>
      <trkpt lat="46.73314" lon="-2.38124">
        <ele>3</ele>
        <time>2018-09-21T15:04:14.000Z</time>
      </trkpt>
      <trkpt lat="46.73314" lon="-2.38123">
        <ele>3</ele>
        <time>2018-09-21T15:04:15.000Z</time>
      </trkpt>
      <trkpt lat="46.73313" lon="-2.38122">
        <ele>3</ele>
        <time>2018-09-21T15:04:16.000Z</time>
      </trkpt>
      <trkpt lat="46.73312" lon="-2.38121">
        <ele>3</ele>
        <time>2018-09-21T15:04:17.000Z</time>
      </trkpt>
      <trkpt lat="46.73312" lon="-2.3812">
        <ele>3</ele>
        <time>2018-09-21T15:04:18.000Z</time>
      </trkpt>
      <trkpt lat="46.73311" lon="-2.38119">
        <ele>3</ele>
        <time>2018-09-21T15:04:19.000Z</time>
      </trkpt>
      <trkpt lat="46.7331" lon="-2.38117">
        <ele>3</ele>
        <time>2018-09-21T15:04:20.000Z</time>
      </trkpt>
      <trkpt lat="46.7331" lon="-2.38116">
        <ele>3</ele>
        <time>2018-09-21T15:04:21.000Z</time>
      </trkpt>
      <trkpt lat="46.73309" lon="-2.38115">
        <ele>3</ele>
        <time>2018-09-21T15:04:22.000Z</time>
      </trkpt>
      <trkpt lat="46.73308" lon="-2.38114">
        <ele>3</ele>
        <time>2018-09-21T15:04:23.000Z</time>
      </trkpt>
      <trkpt lat="46.73307" lon="-2.38113">
        <ele>3</ele>
        <time>2018-09-21T15:04:24.000Z</time>
      </trkpt>
      <trkpt lat="46.73307" lon="-2.38112">
        <ele>3</ele>
        <time>2018-09-21T15:04:25.000Z</time>
      </trkpt>
      <trkpt lat="46.73306" lon="-2.3811">
        <ele>3</ele>
        <time>2018-09-21T15:04:26.000Z</time>
      </trkpt>
      <trkpt lat="46.73306" lon="-2.38109">
        <ele>3</ele>
        <time>2018-09-21T15:04:27.000Z</time>
      </trkpt>
      <trkpt lat="46.73305" lon="-2.38108">
        <ele>3</ele>
        <time>2018-09-21T15:04:28.000Z</time>
      </trkpt>
      <trkpt lat="46.73304" lon="-2.38107">
        <ele>3</ele>
        <time>2018-09-21T15:04:29.000Z</time>
      </trkpt>
      <trkpt lat="46.73303" lon="-2.38105">
        <ele>3</ele>
        <time>2018-09-21T15:04:30.000Z</time>
      </trkpt>
      <trkpt lat="46.73303" lon="-2.38104">
        <ele>3</ele>
        <time>2018-09-21T15:04:31.000Z</time>
      </trkpt>
      <trkpt lat="46.73302" lon="-2.38103">
        <ele>3</ele>
        <time>2018-09-21T15:04:32.000Z</time>
      </trkpt>
      <trkpt lat="46.73301" lon="-2.38102">
        <ele>3</ele>
        <time>2018-09-21T15:04:33.000Z</time>
      </trkpt>
      <trkpt lat="46.733" lon="-2.38101">
        <ele>3</ele>
        <time>2018-09-21T15:04:34.000Z</time>
      </trkpt>
      <trkpt lat="46.733" lon="-2.381">
        <ele>3</ele>
        <time>2018-09-21T15:04:35.000Z</time>
      </trkpt>
      <trkpt lat="46.73299" lon="-2.38098">
        <ele>3</ele>
        <time>2018-09-21T15:04:36.000Z</time>
      </trkpt>
      <trkpt lat="46.73298" lon="-2.38097">
        <ele>3</ele>
        <time>2018-09-21T15:04:37.000Z</time>
      </trkpt>
      <trkpt lat="46.73297" lon="-2.38096">
        <ele>3</ele>
        <time>2018-09-21T15:04:38.000Z</time>
      </trkpt>
      <trkpt lat="46.73296" lon="-2.38095">
        <ele>3</ele>
        <time>2018-09-21T15:04:39.000Z</time>
      </trkpt>
      <trkpt lat="46.73296" lon="-2.38094">
        <ele>3</ele>
        <time>2018-09-21T15:04:40.000Z</time>
      </trkpt>
      <trkpt lat="46.73295" lon="-2.38093">
        <ele>3</ele>
        <time>2018-09-21T15:04:41.000Z</time>
      </trkpt>
      <trkpt lat="46.73294" lon="-2.38092">
        <ele>3</ele>
        <time>2018-09-21T15:04:42.000Z</time>
      </trkpt>
      <trkpt lat="46.73294" lon="-2.38091">
        <ele>3</ele>
        <time>2018-09-21T15:04:43.000Z</time>
      </trkpt>
      <trkpt lat="46.73293" lon="-2.3809">
        <ele>3</ele>
        <time>2018-09-21T15:04:44.000Z</time>
      </trkpt>
      <trkpt lat="46.73293" lon="-2.38088">
        <ele>3</ele>
        <time>2018-09-21T15:04:45.000Z</time>
      </trkpt>
      <trkpt lat="46.73292" lon="-2.38087">
        <ele>3</ele>
        <time>2018-09-21T15:04:46.000Z</time>
      </trkpt>
      <trkpt lat="46.73292" lon="-2.38086">
        <ele>3</ele>
        <time>2018-09-21T15:04:47.000Z</time>
      </trkpt>
      <trkpt lat="46.73291" lon="-2.38085">
        <ele>3</ele>
        <time>2018-09-21T15:04:48.000Z</time>
      </trkpt>
      <trkpt lat="46.73291" lon="-2.38084">
        <ele>3</ele>
        <time>2018-09-21T15:04:49.000Z</time>
      </trkpt>
      <trkpt lat="46.73291" lon="-2.38083">
        <ele>3</ele>
        <time>2018-09-21T15:04:50.000Z</time>
      </trkpt>
      <trkpt lat="46.7329" lon="-2.38082">
        <ele>3</ele>
        <time>2018-09-21T15:04:51.000Z</time>
      </trkpt>
      <trkpt lat="46.7329" lon="-2.38081">
        <ele>3</ele>
        <time>2018-09-21T15:04:52.000Z</time>
      </trkpt>
      <trkpt lat="46.7329" lon="-2.3808">
        <ele>3</ele>
        <time>2018-09-21T15:04:53.000Z</time>
      </trkpt>
      <trkpt lat="46.73289" lon="-2.38079">
        <ele>3</ele>
        <time>2018-09-21T15:04:54.000Z</time>
      </trkpt>
      <trkpt lat="46.73289" lon="-2.38078">
        <ele>3</ele>
        <time>2018-09-21T15:04:55.000Z</time>
      </trkpt>
      <trkpt lat="46.73289" lon="-2.38077">
        <ele>3</ele>
        <time>2018-09-21T15:04:56.000Z</time>
      </trkpt>
      <trkpt lat="46.73288" lon="-2.38076">
        <ele>3</ele>
        <time>2018-09-21T15:04:57.000Z</time>
      </trkpt>
      <trkpt lat="46.73288" lon="-2.38075">
        <ele>3</ele>
        <time>2018-09-21T15:04:58.000Z</time>
      </trkpt>
      <trkpt lat="46.73287" lon="-2.38074">
        <ele>3</ele>
        <time>2018-09-21T15:04:59.000Z</time>
      </trkpt>
      <trkpt lat="46.73287" lon="-2.38073">
        <ele>3</ele>
        <time>2018-09-21T15:05:00.000Z</time>
      </trkpt>
      <trkpt lat="46.73286" lon="-2.38072">
        <ele>3</ele>
        <time>2018-09-21T15:05:01.000Z</time>
      </trkpt>
      <trkpt lat="46.73286" lon="-2.38071">
        <ele>3</ele>
        <time>2018-09-21T15:05:02.000Z</time>
      </trkpt>
      <trkpt lat="46.73285" lon="-2.3807">
        <ele>3</ele>
        <time>2018-09-21T15:05:03.000Z</time>
      </trkpt>
      <trkpt lat="46.73285" lon="-2.38069">
        <ele>3</ele>
        <time>2018-09-21T15:05:04.000Z</time>
      </trkpt>
      <trkpt lat="46.73284" lon="-2.38068">
        <ele>3</ele>
        <time>2018-09-21T15:05:05.000Z</time>
      </trkpt>
      <trkpt lat="46.73284" lon="-2.38066">
        <ele>3</ele>
        <time>2018-09-21T15:05:06.000Z</time>
      </trkpt>
      <trkpt lat="46.73283" lon="-2.38065">
        <ele>3</ele>
        <time>2018-09-21T15:05:07.000Z</time>
      </trkpt>
      <trkpt lat="46.73282" lon="-2.38064">
        <ele>3</ele>
        <time>2018-09-21T15:05:08.000Z</time>
      </trkpt>
      <trkpt lat="46.73282" lon="-2.38063">
        <ele>3</ele>
        <time>2018-09-21T15:05:09.000Z</time>
      </trkpt>
      <trkpt lat="46.73281" lon="-2.38062">
        <ele>3.1</ele>
        <time>2018-09-21T15:05:10.000Z</time>
      </trkpt>
      <trkpt lat="46.73281" lon="-2.38061">
        <ele>3.1</ele>
        <time>2018-09-21T15:05:11.000Z</time>
      </trkpt>
      <trkpt lat="46.7328" lon="-2.3806">
        <ele>3.1</ele>
        <time>2018-09-21T15:05:12.000Z</time>
      </trkpt>
      <trkpt lat="46.7328" lon="-2.38058">
        <ele>3.1</ele>
        <time>2018-09-21T15:05:13.000Z</time>
      </trkpt>
      <trkpt lat="46.73279" lon="-2.38057">
        <ele>3.1</ele>
        <time>2018-09-21T15:05:14.000Z</time>
      </trkpt>
      <trkpt lat="46.73278" lon="-2.38056">
        <ele>3.1</ele>
        <time>2018-09-21T15:05:15.000Z</time>
      </trkpt>
      <trkpt lat="46.73278" lon="-2.38055">
        <ele>3.1</ele>
        <time>2018-09-21T15:05:16.000Z</time>
      </trkpt>
      <trkpt lat="46.73277" lon="-2.38054">
        <ele>3.1</ele>
        <time>2018-09-21T15:05:17.000Z</time>
      </trkpt>
      <trkpt lat="46.73277" lon="-2.38053">
        <ele>3.1</ele>
        <time>2018-09-21T15:05:18.000Z</time>
      </trkpt>
      <trkpt lat="46.73276" lon="-2.38052">
        <ele>3.1</ele>
        <time>2018-09-21T15:05:19.000Z</time>
      </trkpt>
      <trkpt lat="46.73276" lon="-2.38051">
        <ele>3.1</ele>
        <time>2018-09-21T15:05:20.000Z</time>
      </trkpt>
      <trkpt lat="46.73275" lon="-2.3805">
        <ele>3.2</ele>
        <time>2018-09-21T15:05:21.000Z</time>
      </trkpt>
      <trkpt lat="46.73275" lon="-2.38049">
        <ele>3.2</ele>
        <time>2018-09-21T15:05:22.000Z</time>
      </trkpt>
      <trkpt lat="46.73274" lon="-2.38048">
        <ele>3.2</ele>
        <time>2018-09-21T15:05:23.000Z</time>
      </trkpt>
      <trkpt lat="46.73274" lon="-2.38047">
        <ele>3.2</ele>
        <time>2018-09-21T15:05:24.000Z</time>
      </trkpt>
      <trkpt lat="46.73273" lon="-2.38046">
        <ele>3.2</ele>
        <time>2018-09-21T15:05:25.000Z</time>
      </trkpt>
      <trkpt lat="46.73273" lon="-2.38045">
        <ele>3.2</ele>
        <time>2018-09-21T15:05:26.000Z</time>
      </trkpt>
      <trkpt lat="46.73272" lon="-2.38044">
        <ele>3.2</ele>
        <time>2018-09-21T15:05:27.000Z</time>
      </trkpt>
      <trkpt lat="46.73272" lon="-2.38043">
        <ele>3.2</ele>
        <time>2018-09-21T15:05:28.000Z</time>
      </trkpt>
      <trkpt lat="46.73271" lon="-2.38042">
        <ele>3.2</ele>
        <time>2018-09-21T15:05:29.000Z</time>
      </trkpt>
      <trkpt lat="46.7327" lon="-2.38041">
        <ele>3.3</ele>
        <time>2018-09-21T15:05:30.000Z</time>
      </trkpt>
      <trkpt lat="46.7327" lon="-2.3804">
        <ele>3.3</ele>
        <time>2018-09-21T15:05:31.000Z</time>
      </trkpt>
      <trkpt lat="46.73269" lon="-2.38039">
        <ele>3.3</ele>
        <time>2018-09-21T15:05:32.000Z</time>
      </trkpt>
      <trkpt lat="46.73269" lon="-2.38038">
        <ele>3.3</ele>
        <time>2018-09-21T15:05:33.000Z</time>
      </trkpt>
      <trkpt lat="46.73268" lon="-2.38037">
        <ele>3.3</ele>
        <time>2018-09-21T15:05:34.000Z</time>
      </trkpt>
      <trkpt lat="46.73268" lon="-2.38035">
        <ele>3.3</ele>
        <time>2018-09-21T15:05:35.000Z</time>
      </trkpt>
      <trkpt lat="46.73267" lon="-2.38034">
        <ele>3.3</ele>
        <time>2018-09-21T15:05:36.000Z</time>
      </trkpt>
      <trkpt lat="46.73267" lon="-2.38033">
        <ele>3.4</ele>
        <time>2018-09-21T15:05:37.000Z</time>
      </trkpt>
      <trkpt lat="46.73266" lon="-2.38032">
        <ele>3.4</ele>
        <time>2018-09-21T15:05:38.000Z</time>
      </trkpt>
      <trkpt lat="46.73266" lon="-2.3803">
        <ele>3.4</ele>
        <time>2018-09-21T15:05:39.000Z</time>
      </trkpt>
      <trkpt lat="46.73265" lon="-2.38029">
        <ele>3.4</ele>
        <time>2018-09-21T15:05:40.000Z</time>
      </trkpt>
      <trkpt lat="46.73265" lon="-2.38028">
        <ele>3.4</ele>
        <time>2018-09-21T15:05:41.000Z</time>
      </trkpt>
      <trkpt lat="46.73264" lon="-2.38026">
        <ele>3.4</ele>
        <time>2018-09-21T15:05:42.000Z</time>
      </trkpt>
      <trkpt lat="46.73264" lon="-2.38025">
        <ele>3.4</ele>
        <time>2018-09-21T15:05:43.000Z</time>
      </trkpt>
      <trkpt lat="46.73263" lon="-2.38024">
        <ele>3.5</ele>
        <time>2018-09-21T15:05:44.000Z</time>
      </trkpt>
      <trkpt lat="46.73263" lon="-2.38023">
        <ele>3.5</ele>
        <time>2018-09-21T15:05:45.000Z</time>
      </trkpt>
      <trkpt lat="46.73262" lon="-2.38021">
        <ele>3.5</ele>
        <time>2018-09-21T15:05:46.000Z</time>
      </trkpt>
      <trkpt lat="46.73262" lon="-2.3802">
        <ele>3.5</ele>
        <time>2018-09-21T15:05:47.000Z</time>
      </trkpt>
      <trkpt lat="46.73261" lon="-2.38019">
        <ele>3.5</ele>
        <time>2018-09-21T15:05:48.000Z</time>
      </trkpt>
      <trkpt lat="46.73261" lon="-2.38017">
        <ele>3.5</ele>
        <time>2018-09-21T15:05:49.000Z</time>
      </trkpt>
      <trkpt lat="46.7326" lon="-2.38016">
        <ele>3.6</ele>
        <time>2018-09-21T15:05:50.000Z</time>
      </trkpt>
      <trkpt lat="46.7326" lon="-2.38015">
        <ele>3.6</ele>
        <time>2018-09-21T15:05:51.000Z</time>
      </trkpt>
      <trkpt lat="46.73259" lon="-2.38013">
        <ele>3.6</ele>
        <time>2018-09-21T15:05:52.000Z</time>
      </trkpt>
      <trkpt lat="46.73259" lon="-2.38012">
        <ele>3.6</ele>
        <time>2018-09-21T15:05:53.000Z</time>
      </trkpt>
      <trkpt lat="46.73258" lon="-2.38011">
        <ele>3.6</ele>
        <time>2018-09-21T15:05:54.000Z</time>
      </trkpt>
      <trkpt lat="46.73258" lon="-2.3801">
        <ele>3.6</ele>
        <time>2018-09-21T15:05:55.000Z</time>
      </trkpt>
      <trkpt lat="46.73257" lon="-2.38008">
        <ele>3.7</ele>
        <time>2018-09-21T15:05:56.000Z</time>
      </trkpt>
      <trkpt lat="46.73257" lon="-2.38007">
        <ele>3.7</ele>
        <time>2018-09-21T15:05:57.000Z</time>
      </trkpt>
      <trkpt lat="46.73256" lon="-2.38006">
        <ele>3.7</ele>
        <time>2018-09-21T15:05:58.000Z</time>
      </trkpt>
      <trkpt lat="46.73256" lon="-2.38005">
        <ele>3.7</ele>
        <time>2018-09-21T15:05:59.000Z</time>
      </trkpt>
      <trkpt lat="46.73255" lon="-2.38004">
        <ele>3.8</ele>
        <time>2018-09-21T15:06:00.000Z</time>
      </trkpt>
      <trkpt lat="46.73255" lon="-2.38003">
        <ele>3.8</ele>
        <time>2018-09-21T15:06:01.000Z</time>
      </trkpt>
      <trkpt lat="46.73254" lon="-2.38002">
        <ele>3.8</ele>
        <time>2018-09-21T15:06:02.000Z</time>
      </trkpt>
      <trkpt lat="46.73254" lon="-2.38001">
        <ele>3.8</ele>
        <time>2018-09-21T15:06:03.000Z</time>
      </trkpt>
      <trkpt lat="46.73253" lon="-2.38">
        <ele>4</ele>
        <time>2018-09-21T15:06:04.000Z</time>
      </trkpt>
      <trkpt lat="46.73253" lon="-2.37999">
        <ele>4</ele>
        <time>2018-09-21T15:06:05.000Z</time>
      </trkpt>
      <trkpt lat="46.73253" lon="-2.37998">
        <ele>4</ele>
        <time>2018-09-21T15:06:06.000Z</time>
      </trkpt>
      <trkpt lat="46.73253" lon="-2.37997">
        <ele>4</ele>
        <time>2018-09-21T15:06:07.000Z</time>
      </trkpt>
      <trkpt lat="46.73252" lon="-2.37996">
        <ele>4</ele>
        <time>2018-09-21T15:06:08.000Z</time>
      </trkpt>
      <trkpt lat="46.73252" lon="-2.37995">
        <ele>4</ele>
        <time>2018-09-21T15:06:09.000Z</time>
      </trkpt>
      <trkpt lat="46.73252" lon="-2.37993">
        <ele>4</ele>
        <time>2018-09-21T15:06:10.000Z</time>
      </trkpt>
      <trkpt lat="46.73252" lon="-2.37992">
        <ele>4</ele>
        <time>2018-09-21T15:06:11.000Z</time>
      </trkpt>
      <trkpt lat="46.73252" lon="-2.37991">
        <ele>4</ele>
        <time>2018-09-21T15:06:12.000Z</time>
      </trkpt>
      <trkpt lat="46.73252" lon="-2.3799">
        <ele>4</ele>
        <time>2018-09-21T15:06:13.000Z</time>
      </trkpt>
      <trkpt lat="46.73252" lon="-2.37988">
        <ele>4</ele>
        <time>2018-09-21T15:06:14.000Z</time>
      </trkpt>
      <trkpt lat="46.73252" lon="-2.37987">
        <ele>4</ele>
        <time>2018-09-21T15:06:15.000Z</time>
      </trkpt>
      <trkpt lat="46.73252" lon="-2.37985">
        <ele>4</ele>
        <time>2018-09-21T15:06:16.000Z</time>
      </trkpt>
      <trkpt lat="46.73252" lon="-2.37984">
        <ele>4</ele>
        <time>2018-09-21T15:06:17.000Z</time>
      </trkpt>
      <trkpt lat="46.73252" lon="-2.37983">
        <ele>4</ele>
        <time>2018-09-21T15:06:18.000Z</time>
      </trkpt>
      <trkpt lat="46.73252" lon="-2.37981">
        <ele>4</ele>
        <time>2018-09-21T15:06:19.000Z</time>
      </trkpt>
      <trkpt lat="46.73251" lon="-2.3798">
        <ele>4</ele>
        <time>2018-09-21T15:06:20.000Z</time>
      </trkpt>
      <trkpt lat="46.73251" lon="-2.37978">
        <ele>4</ele>
        <time>2018-09-21T15:06:21.000Z</time>
      </trkpt>
      <trkpt lat="46.73251" lon="-2.37977">
        <ele>4</ele>
        <time>2018-09-21T15:06:22.000Z</time>
      </trkpt>
      <trkpt lat="46.73251" lon="-2.37975">
        <ele>4</ele>
        <time>2018-09-21T15:06:23.000Z</time>
      </trkpt>
      <trkpt lat="46.73251" lon="-2.37974">
        <ele>4</ele>
        <time>2018-09-21T15:06:24.000Z</time>
      </trkpt>
      <trkpt lat="46.73251" lon="-2.37972">
        <ele>4</ele>
        <time>2018-09-21T15:06:25.000Z</time>
      </trkpt>
      <trkpt lat="46.7325" lon="-2.37971">
        <ele>4</ele>
        <time>2018-09-21T15:06:26.000Z</time>
      </trkpt>
      <trkpt lat="46.7325" lon="-2.3797">
        <ele>4</ele>
        <time>2018-09-21T15:06:27.000Z</time>
      </trkpt>
      <trkpt lat="46.7325" lon="-2.37968">
        <ele>3.6</ele>
        <time>2018-09-21T15:06:28.000Z</time>
      </trkpt>
      <trkpt lat="46.7325" lon="-2.37967">
        <ele>3.6</ele>
        <time>2018-09-21T15:06:29.000Z</time>
      </trkpt>
      <trkpt lat="46.7325" lon="-2.37965">
        <ele>3.6</ele>
        <time>2018-09-21T15:06:30.000Z</time>
      </trkpt>
      <trkpt lat="46.73249" lon="-2.37964">
        <ele>3.6</ele>
        <time>2018-09-21T15:06:31.000Z</time>
      </trkpt>
      <trkpt lat="46.73249" lon="-2.37963">
        <ele>3.6</ele>
        <time>2018-09-21T15:06:32.000Z</time>
      </trkpt>
      <trkpt lat="46.73249" lon="-2.37961">
        <ele>3.6</ele>
        <time>2018-09-21T15:06:33.000Z</time>
      </trkpt>
      <trkpt lat="46.73249" lon="-2.3796">
        <ele>3.6</ele>
        <time>2018-09-21T15:06:34.000Z</time>
      </trkpt>
      <trkpt lat="46.73249" lon="-2.37959">
        <ele>3.5</ele>
        <time>2018-09-21T15:06:35.000Z</time>
      </trkpt>
      <trkpt lat="46.73249" lon="-2.37957">
        <ele>3.5</ele>
        <time>2018-09-21T15:06:36.000Z</time>
      </trkpt>
      <trkpt lat="46.73249" lon="-2.37956">
        <ele>3.5</ele>
        <time>2018-09-21T15:06:37.000Z</time>
      </trkpt>
      <trkpt lat="46.73249" lon="-2.37955">
        <ele>3.5</ele>
        <time>2018-09-21T15:06:38.000Z</time>
      </trkpt>
      <trkpt lat="46.73248" lon="-2.37953">
        <ele>3.5</ele>
        <time>2018-09-21T15:06:39.000Z</time>
      </trkpt>
      <trkpt lat="46.73248" lon="-2.37952">
        <ele>3.5</ele>
        <time>2018-09-21T15:06:40.000Z</time>
      </trkpt>
      <trkpt lat="46.73248" lon="-2.37951">
        <ele>3.5</ele>
        <time>2018-09-21T15:06:41.000Z</time>
      </trkpt>
      <trkpt lat="46.73248" lon="-2.37949">
        <ele>3.5</ele>
        <time>2018-09-21T15:06:42.000Z</time>
      </trkpt>
      <trkpt lat="46.73248" lon="-2.37948">
        <ele>3.4</ele>
        <time>2018-09-21T15:06:43.000Z</time>
      </trkpt>
      <trkpt lat="46.73248" lon="-2.37947">
        <ele>3.4</ele>
        <time>2018-09-21T15:06:44.000Z</time>
      </trkpt>
      <trkpt lat="46.73248" lon="-2.37945">
        <ele>3.4</ele>
        <time>2018-09-21T15:06:45.000Z</time>
      </trkpt>
      <trkpt lat="46.73248" lon="-2.37944">
        <ele>3.4</ele>
        <time>2018-09-21T15:06:46.000Z</time>
      </trkpt>
      <trkpt lat="46.73248" lon="-2.37943">
        <ele>3.4</ele>
        <time>2018-09-21T15:06:47.000Z</time>
      </trkpt>
      <trkpt lat="46.73248" lon="-2.37941">
        <ele>3.4</ele>
        <time>2018-09-21T15:06:48.000Z</time>
      </trkpt>
      <trkpt lat="46.73248" lon="-2.3794">
        <ele>3.3</ele>
        <time>2018-09-21T15:06:49.000Z</time>
      </trkpt>
      <trkpt lat="46.73248" lon="-2.37939">
        <ele>3.3</ele>
        <time>2018-09-21T15:06:50.000Z</time>
      </trkpt>
      <trkpt lat="46.73248" lon="-2.37938">
        <ele>3.3</ele>
        <time>2018-09-21T15:06:51.000Z</time>
      </trkpt>
      <trkpt lat="46.73248" lon="-2.37936">
        <ele>3.3</ele>
        <time>2018-09-21T15:06:52.000Z</time>
      </trkpt>
      <trkpt lat="46.73247" lon="-2.37935">
        <ele>3.3</ele>
        <time>2018-09-21T15:06:53.000Z</time>
      </trkpt>
      <trkpt lat="46.73247" lon="-2.37934">
        <ele>3.3</ele>
        <time>2018-09-21T15:06:54.000Z</time>
      </trkpt>
      <trkpt lat="46.73246" lon="-2.37933">
        <ele>3.3</ele>
        <time>2018-09-21T15:06:55.000Z</time>
      </trkpt>
      <trkpt lat="46.73246" lon="-2.37932">
        <ele>3.3</ele>
        <time>2018-09-21T15:06:56.000Z</time>
      </trkpt>
      <trkpt lat="46.73245" lon="-2.37931">
        <ele>3.3</ele>
        <time>2018-09-21T15:06:57.000Z</time>
      </trkpt>
      <trkpt lat="46.73245" lon="-2.37929">
        <ele>3.3</ele>
        <time>2018-09-21T15:06:58.000Z</time>
      </trkpt>
      <trkpt lat="46.73244" lon="-2.37928">
        <ele>3.4</ele>
        <time>2018-09-21T15:06:59.000Z</time>
      </trkpt>
      <trkpt lat="46.73243" lon="-2.37927">
        <ele>3.4</ele>
        <time>2018-09-21T15:07:00.000Z</time>
      </trkpt>
      <trkpt lat="46.73243" lon="-2.37926">
        <ele>3.4</ele>
        <time>2018-09-21T15:07:01.000Z</time>
      </trkpt>
      <trkpt lat="46.73242" lon="-2.37925">
        <ele>3.4</ele>
        <time>2018-09-21T15:07:02.000Z</time>
      </trkpt>
      <trkpt lat="46.73242" lon="-2.37924">
        <ele>3.4</ele>
        <time>2018-09-21T15:07:03.000Z</time>
      </trkpt>
      <trkpt lat="46.73242" lon="-2.37922">
        <ele>3.4</ele>
        <time>2018-09-21T15:07:04.000Z</time>
      </trkpt>
      <trkpt lat="46.73242" lon="-2.37921">
        <ele>3.4</ele>
        <time>2018-09-21T15:07:05.000Z</time>
      </trkpt>
      <trkpt lat="46.73242" lon="-2.3792">
        <ele>3.3</ele>
        <time>2018-09-21T15:07:06.000Z</time>
      </trkpt>
      <trkpt lat="46.73242" lon="-2.37918">
        <ele>3.3</ele>
        <time>2018-09-21T15:07:07.000Z</time>
      </trkpt>
      <trkpt lat="46.73242" lon="-2.37917">
        <ele>3.3</ele>
        <time>2018-09-21T15:07:08.000Z</time>
      </trkpt>
      <trkpt lat="46.73242" lon="-2.37915">
        <ele>3.3</ele>
        <time>2018-09-21T15:07:09.000Z</time>
      </trkpt>
      <trkpt lat="46.73242" lon="-2.37914">
        <ele>3.3</ele>
        <time>2018-09-21T15:07:10.000Z</time>
      </trkpt>
      <trkpt lat="46.73242" lon="-2.37912">
        <ele>3.3</ele>
        <time>2018-09-21T15:07:11.000Z</time>
      </trkpt>
      <trkpt lat="46.73242" lon="-2.37911">
        <ele>3.3</ele>
        <time>2018-09-21T15:07:12.000Z</time>
      </trkpt>
      <trkpt lat="46.73243" lon="-2.37909">
        <ele>3.3</ele>
        <time>2018-09-21T15:07:13.000Z</time>
      </trkpt>
      <trkpt lat="46.73243" lon="-2.37908">
        <ele>3.3</ele>
        <time>2018-09-21T15:07:14.000Z</time>
      </trkpt>
      <trkpt lat="46.73243" lon="-2.37907">
        <ele>3.3</ele>
        <time>2018-09-21T15:07:15.000Z</time>
      </trkpt>
      <trkpt lat="46.73243" lon="-2.37905">
        <ele>3.3</ele>
        <time>2018-09-21T15:07:16.000Z</time>
      </trkpt>
      <trkpt lat="46.73243" lon="-2.37904">
        <ele>3.3</ele>
        <time>2018-09-21T15:07:17.000Z</time>
      </trkpt>
      <trkpt lat="46.73243" lon="-2.37902">
        <ele>3.3</ele>
        <time>2018-09-21T15:07:18.000Z</time>
      </trkpt>
      <trkpt lat="46.73243" lon="-2.37901">
        <ele>3.3</ele>
        <time>2018-09-21T15:07:19.000Z</time>
      </trkpt>
      <trkpt lat="46.73243" lon="-2.37899">
        <ele>3.3</ele>
        <time>2018-09-21T15:07:20.000Z</time>
      </trkpt>
      <trkpt lat="46.73243" lon="-2.37898">
        <ele>3.2</ele>
        <time>2018-09-21T15:07:21.000Z</time>
      </trkpt>
      <trkpt lat="46.73243" lon="-2.37896">
        <ele>3.2</ele>
        <time>2018-09-21T15:07:22.000Z</time>
      </trkpt>
      <trkpt lat="46.73243" lon="-2.37895">
        <ele>3.2</ele>
        <time>2018-09-21T15:07:23.000Z</time>
      </trkpt>
      <trkpt lat="46.73244" lon="-2.37893">
        <ele>3.2</ele>
        <time>2018-09-21T15:07:24.000Z</time>
      </trkpt>
      <trkpt lat="46.73244" lon="-2.37892">
        <ele>3.2</ele>
        <time>2018-09-21T15:07:25.000Z</time>
      </trkpt>
      <trkpt lat="46.73244" lon="-2.3789">
        <ele>3.2</ele>
        <time>2018-09-21T15:07:26.000Z</time>
      </trkpt>
      <trkpt lat="46.73244" lon="-2.37889">
        <ele>3.2</ele>
        <time>2018-09-21T15:07:27.000Z</time>
      </trkpt>
      <trkpt lat="46.73244" lon="-2.37888">
        <ele>3.2</ele>
        <time>2018-09-21T15:07:28.000Z</time>
      </trkpt>
      <trkpt lat="46.73244" lon="-2.37886">
        <ele>3.2</ele>
        <time>2018-09-21T15:07:29.000Z</time>
      </trkpt>
      <trkpt lat="46.73244" lon="-2.37885">
        <ele>3.2</ele>
        <time>2018-09-21T15:07:30.000Z</time>
      </trkpt>
      <trkpt lat="46.73244" lon="-2.37884">
        <ele>3.2</ele>
        <time>2018-09-21T15:07:31.000Z</time>
      </trkpt>
      <trkpt lat="46.73244" lon="-2.37883">
        <ele>3.2</ele>
        <time>2018-09-21T15:07:32.000Z</time>
      </trkpt>
      <trkpt lat="46.73244" lon="-2.37881">
        <ele>3.2</ele>
        <time>2018-09-21T15:07:33.000Z</time>
      </trkpt>
      <trkpt lat="46.73244" lon="-2.3788">
        <ele>3.2</ele>
        <time>2018-09-21T15:07:34.000Z</time>
      </trkpt>
      <trkpt lat="46.73244" lon="-2.37879">
        <ele>3.2</ele>
        <time>2018-09-21T15:07:35.000Z</time>
      </trkpt>
      <trkpt lat="46.73243" lon="-2.37878">
        <ele>3.2</ele>
        <time>2018-09-21T15:07:36.000Z</time>
      </trkpt>
      <trkpt lat="46.73243" lon="-2.37876">
        <ele>3.2</ele>
        <time>2018-09-21T15:07:37.000Z</time>
      </trkpt>
      <trkpt lat="46.73243" lon="-2.37875">
        <ele>3.2</ele>
        <time>2018-09-21T15:07:38.000Z</time>
      </trkpt>
      <trkpt lat="46.73243" lon="-2.37874">
        <ele>3.3</ele>
        <time>2018-09-21T15:07:39.000Z</time>
      </trkpt>
      <trkpt lat="46.73243" lon="-2.37873">
        <ele>3.3</ele>
        <time>2018-09-21T15:07:40.000Z</time>
      </trkpt>
      <trkpt lat="46.73243" lon="-2.37871">
        <ele>3.3</ele>
        <time>2018-09-21T15:07:41.000Z</time>
      </trkpt>
      <trkpt lat="46.73243" lon="-2.3787">
        <ele>3.3</ele>
        <time>2018-09-21T15:07:42.000Z</time>
      </trkpt>
      <trkpt lat="46.73242" lon="-2.37869">
        <ele>3.3</ele>
        <time>2018-09-21T15:07:43.000Z</time>
      </trkpt>
      <trkpt lat="46.73242" lon="-2.37867">
        <ele>3.3</ele>
        <time>2018-09-21T15:07:44.000Z</time>
      </trkpt>
      <trkpt lat="46.73242" lon="-2.37866">
        <ele>3.3</ele>
        <time>2018-09-21T15:07:45.000Z</time>
      </trkpt>
      <trkpt lat="46.73242" lon="-2.37865">
        <ele>3.3</ele>
        <time>2018-09-21T15:07:46.000Z</time>
      </trkpt>
      <trkpt lat="46.73241" lon="-2.37863">
        <ele>3.3</ele>
        <time>2018-09-21T15:07:47.000Z</time>
      </trkpt>
      <trkpt lat="46.73241" lon="-2.37862">
        <ele>3.3</ele>
        <time>2018-09-21T15:07:48.000Z</time>
      </trkpt>
      <trkpt lat="46.73241" lon="-2.37861">
        <ele>3.3</ele>
        <time>2018-09-21T15:07:49.000Z</time>
      </trkpt>
      <trkpt lat="46.7324" lon="-2.37859">
        <ele>3.3</ele>
        <time>2018-09-21T15:07:50.000Z</time>
      </trkpt>
      <trkpt lat="46.7324" lon="-2.37858">
        <ele>3.4</ele>
        <time>2018-09-21T15:07:51.000Z</time>
      </trkpt>
      <trkpt lat="46.7324" lon="-2.37857">
        <ele>3.4</ele>
        <time>2018-09-21T15:07:52.000Z</time>
      </trkpt>
      <trkpt lat="46.7324" lon="-2.37855">
        <ele>3.4</ele>
        <time>2018-09-21T15:07:53.000Z</time>
      </trkpt>
      <trkpt lat="46.73239" lon="-2.37854">
        <ele>3.4</ele>
        <time>2018-09-21T15:07:54.000Z</time>
      </trkpt>
      <trkpt lat="46.73239" lon="-2.37852">
        <ele>3.4</ele>
        <time>2018-09-21T15:07:55.000Z</time>
      </trkpt>
      <trkpt lat="46.73239" lon="-2.37851">
        <ele>3.4</ele>
        <time>2018-09-21T15:07:56.000Z</time>
      </trkpt>
      <trkpt lat="46.73238" lon="-2.37849">
        <ele>3.4</ele>
        <time>2018-09-21T15:07:57.000Z</time>
      </trkpt>
      <trkpt lat="46.73238" lon="-2.37848">
        <ele>3.4</ele>
        <time>2018-09-21T15:07:58.000Z</time>
      </trkpt>
      <trkpt lat="46.73238" lon="-2.37846">
        <ele>3.4</ele>
        <time>2018-09-21T15:07:59.000Z</time>
      </trkpt>
      <trkpt lat="46.73237" lon="-2.37845">
        <ele>3.5</ele>
        <time>2018-09-21T15:08:00.000Z</time>
      </trkpt>
      <trkpt lat="46.73237" lon="-2.37843">
        <ele>3.5</ele>
        <time>2018-09-21T15:08:01.000Z</time>
      </trkpt>
      <trkpt lat="46.73237" lon="-2.37842">
        <ele>3.5</ele>
        <time>2018-09-21T15:08:02.000Z</time>
      </trkpt>
      <trkpt lat="46.73236" lon="-2.3784">
        <ele>3.5</ele>
        <time>2018-09-21T15:08:03.000Z</time>
      </trkpt>
      <trkpt lat="46.73236" lon="-2.37839">
        <ele>3.5</ele>
        <time>2018-09-21T15:08:04.000Z</time>
      </trkpt>
      <trkpt lat="46.73236" lon="-2.37837">
        <ele>3.5</ele>
        <time>2018-09-21T15:08:05.000Z</time>
      </trkpt>
      <trkpt lat="46.73235" lon="-2.37836">
        <ele>3.5</ele>
        <time>2018-09-21T15:08:06.000Z</time>
      </trkpt>
      <trkpt lat="46.73235" lon="-2.37834">
        <ele>3.5</ele>
        <time>2018-09-21T15:08:07.000Z</time>
      </trkpt>
      <trkpt lat="46.73235" lon="-2.37833">
        <ele>3.5</ele>
        <time>2018-09-21T15:08:08.000Z</time>
      </trkpt>
      <trkpt lat="46.73235" lon="-2.37831">
        <ele>3.5</ele>
        <time>2018-09-21T15:08:09.000Z</time>
      </trkpt>
      <trkpt lat="46.73234" lon="-2.37829">
        <ele>3.5</ele>
        <time>2018-09-21T15:08:10.000Z</time>
      </trkpt>
      <trkpt lat="46.73234" lon="-2.37828">
        <ele>3.5</ele>
        <time>2018-09-21T15:08:11.000Z</time>
      </trkpt>
      <trkpt lat="46.73234" lon="-2.37826">
        <ele>3.5</ele>
        <time>2018-09-21T15:08:12.000Z</time>
      </trkpt>
      <trkpt lat="46.73233" lon="-2.37825">
        <ele>3.4</ele>
        <time>2018-09-21T15:08:13.000Z</time>
      </trkpt>
      <trkpt lat="46.73233" lon="-2.37823">
        <ele>3.4</ele>
        <time>2018-09-21T15:08:14.000Z</time>
      </trkpt>
      <trkpt lat="46.73233" lon="-2.37822">
        <ele>3.4</ele>
        <time>2018-09-21T15:08:15.000Z</time>
      </trkpt>
      <trkpt lat="46.73233" lon="-2.37821">
        <ele>3.4</ele>
        <time>2018-09-21T15:08:16.000Z</time>
      </trkpt>
      <trkpt lat="46.73232" lon="-2.37819">
        <ele>3.4</ele>
        <time>2018-09-21T15:08:17.000Z</time>
      </trkpt>
      <trkpt lat="46.73232" lon="-2.37818">
        <ele>3.4</ele>
        <time>2018-09-21T15:08:18.000Z</time>
      </trkpt>
      <trkpt lat="46.73232" lon="-2.37816">
        <ele>3.3</ele>
        <time>2018-09-21T15:08:19.000Z</time>
      </trkpt>
      <trkpt lat="46.73232" lon="-2.37815">
        <ele>3.3</ele>
        <time>2018-09-21T15:08:20.000Z</time>
      </trkpt>
      <trkpt lat="46.73231" lon="-2.37814">
        <ele>3.3</ele>
        <time>2018-09-21T15:08:21.000Z</time>
      </trkpt>
      <trkpt lat="46.73231" lon="-2.37813">
        <ele>3.3</ele>
        <time>2018-09-21T15:08:22.000Z</time>
      </trkpt>
      <trkpt lat="46.73231" lon="-2.37811">
        <ele>3.3</ele>
        <time>2018-09-21T15:08:23.000Z</time>
      </trkpt>
      <trkpt lat="46.73231" lon="-2.3781">
        <ele>3.3</ele>
        <time>2018-09-21T15:08:24.000Z</time>
      </trkpt>
      <trkpt lat="46.7323" lon="-2.37809">
        <ele>3.3</ele>
        <time>2018-09-21T15:08:25.000Z</time>
      </trkpt>
      <trkpt lat="46.7323" lon="-2.37808">
        <ele>3.3</ele>
        <time>2018-09-21T15:08:26.000Z</time>
      </trkpt>
      <trkpt lat="46.7323" lon="-2.37807">
        <ele>3.2</ele>
        <time>2018-09-21T15:08:27.000Z</time>
      </trkpt>
      <trkpt lat="46.7323" lon="-2.37806">
        <ele>3.2</ele>
        <time>2018-09-21T15:08:28.000Z</time>
      </trkpt>
      <trkpt lat="46.7323" lon="-2.37804">
        <ele>3.2</ele>
        <time>2018-09-21T15:08:29.000Z</time>
      </trkpt>
      <trkpt lat="46.73229" lon="-2.37803">
        <ele>3.2</ele>
        <time>2018-09-21T15:08:30.000Z</time>
      </trkpt>
      <trkpt lat="46.73229" lon="-2.37802">
        <ele>3.2</ele>
        <time>2018-09-21T15:08:31.000Z</time>
      </trkpt>
      <trkpt lat="46.73229" lon="-2.37801">
        <ele>3.2</ele>
        <time>2018-09-21T15:08:32.000Z</time>
      </trkpt>
      <trkpt lat="46.73229" lon="-2.378">
        <ele>3.2</ele>
        <time>2018-09-21T15:08:33.000Z</time>
      </trkpt>
      <trkpt lat="46.73229" lon="-2.37798">
        <ele>3.1</ele>
        <time>2018-09-21T15:08:34.000Z</time>
      </trkpt>
      <trkpt lat="46.73229" lon="-2.37797">
        <ele>3.1</ele>
        <time>2018-09-21T15:08:35.000Z</time>
      </trkpt>
      <trkpt lat="46.73229" lon="-2.37796">
        <ele>3.1</ele>
        <time>2018-09-21T15:08:36.000Z</time>
      </trkpt>
      <trkpt lat="46.73229" lon="-2.37794">
        <ele>3.1</ele>
        <time>2018-09-21T15:08:37.000Z</time>
      </trkpt>
      <trkpt lat="46.73229" lon="-2.37793">
        <ele>3.1</ele>
        <time>2018-09-21T15:08:38.000Z</time>
      </trkpt>
      <trkpt lat="46.73228" lon="-2.37791">
        <ele>3</ele>
        <time>2018-09-21T15:08:39.000Z</time>
      </trkpt>
      <trkpt lat="46.73228" lon="-2.3779">
        <ele>3</ele>
        <time>2018-09-21T15:08:40.000Z</time>
      </trkpt>
      <trkpt lat="46.73228" lon="-2.37788">
        <ele>3</ele>
        <time>2018-09-21T15:08:41.000Z</time>
      </trkpt>
      <trkpt lat="46.73228" lon="-2.37787">
        <ele>2.9</ele>
        <time>2018-09-21T15:08:42.000Z</time>
      </trkpt>
      <trkpt lat="46.73228" lon="-2.37785">
        <ele>2.9</ele>
        <time>2018-09-21T15:08:43.000Z</time>
      </trkpt>
      <trkpt lat="46.73228" lon="-2.37783">
        <ele>2.9</ele>
        <time>2018-09-21T15:08:44.000Z</time>
      </trkpt>
      <trkpt lat="46.73229" lon="-2.37782">
        <ele>2.9</ele>
        <time>2018-09-21T15:08:45.000Z</time>
      </trkpt>
      <trkpt lat="46.73229" lon="-2.3778">
        <ele>2.8</ele>
        <time>2018-09-21T15:08:46.000Z</time>
      </trkpt>
      <trkpt lat="46.73229" lon="-2.37779">
        <ele>2.8</ele>
        <time>2018-09-21T15:08:47.000Z</time>
      </trkpt>
      <trkpt lat="46.73229" lon="-2.37777">
        <ele>2.8</ele>
        <time>2018-09-21T15:08:48.000Z</time>
      </trkpt>
      <trkpt lat="46.73229" lon="-2.37776">
        <ele>2.7</ele>
        <time>2018-09-21T15:08:49.000Z</time>
      </trkpt>
      <trkpt lat="46.73229" lon="-2.37775">
        <ele>2.7</ele>
        <time>2018-09-21T15:08:50.000Z</time>
      </trkpt>
      <trkpt lat="46.73229" lon="-2.37773">
        <ele>2.7</ele>
        <time>2018-09-21T15:08:51.000Z</time>
      </trkpt>
      <trkpt lat="46.73229" lon="-2.37772">
        <ele>2.7</ele>
        <time>2018-09-21T15:08:52.000Z</time>
      </trkpt>
      <trkpt lat="46.73229" lon="-2.37771">
        <ele>2.6</ele>
        <time>2018-09-21T15:08:53.000Z</time>
      </trkpt>
      <trkpt lat="46.73229" lon="-2.37769">
        <ele>2.6</ele>
        <time>2018-09-21T15:08:54.000Z</time>
      </trkpt>
      <trkpt lat="46.73229" lon="-2.37768">
        <ele>2.6</ele>
        <time>2018-09-21T15:08:55.000Z</time>
      </trkpt>
      <trkpt lat="46.73229" lon="-2.37767">
        <ele>2.5</ele>
        <time>2018-09-21T15:08:56.000Z</time>
      </trkpt>
      <trkpt lat="46.7323" lon="-2.37766">
        <ele>2.5</ele>
        <time>2018-09-21T15:08:57.000Z</time>
      </trkpt>
      <trkpt lat="46.7323" lon="-2.37765">
        <ele>2.5</ele>
        <time>2018-09-21T15:08:58.000Z</time>
      </trkpt>
      <trkpt lat="46.7323" lon="-2.37764">
        <ele>2.5</ele>
        <time>2018-09-21T15:08:59.000Z</time>
      </trkpt>
      <trkpt lat="46.7323" lon="-2.37763">
        <ele>2.4</ele>
        <time>2018-09-21T15:09:00.000Z</time>
      </trkpt>
      <trkpt lat="46.7323" lon="-2.37761">
        <ele>2.4</ele>
        <time>2018-09-21T15:09:01.000Z</time>
      </trkpt>
      <trkpt lat="46.7323" lon="-2.3776">
        <ele>2.4</ele>
        <time>2018-09-21T15:09:02.000Z</time>
      </trkpt>
      <trkpt lat="46.7323" lon="-2.37759">
        <ele>2.4</ele>
        <time>2018-09-21T15:09:03.000Z</time>
      </trkpt>
      <trkpt lat="46.7323" lon="-2.37758">
        <ele>2.4</ele>
        <time>2018-09-21T15:09:04.000Z</time>
      </trkpt>
      <trkpt lat="46.7323" lon="-2.37757">
        <ele>2.3</ele>
        <time>2018-09-21T15:09:05.000Z</time>
      </trkpt>
      <trkpt lat="46.7323" lon="-2.37756">
        <ele>2.3</ele>
        <time>2018-09-21T15:09:06.000Z</time>
      </trkpt>
      <trkpt lat="46.7323" lon="-2.37754">
        <ele>2.3</ele>
        <time>2018-09-21T15:09:07.000Z</time>
      </trkpt>
      <trkpt lat="46.7323" lon="-2.37753">
        <ele>2.3</ele>
        <time>2018-09-21T15:09:08.000Z</time>
      </trkpt>
      <trkpt lat="46.7323" lon="-2.37752">
        <ele>2.3</ele>
        <time>2018-09-21T15:09:09.000Z</time>
      </trkpt>
      <trkpt lat="46.73229" lon="-2.37751">
        <ele>2.3</ele>
        <time>2018-09-21T15:09:10.000Z</time>
      </trkpt>
      <trkpt lat="46.73229" lon="-2.37749">
        <ele>2.3</ele>
        <time>2018-09-21T15:09:11.000Z</time>
      </trkpt>
      <trkpt lat="46.73229" lon="-2.37748">
        <ele>2.3</ele>
        <time>2018-09-21T15:09:12.000Z</time>
      </trkpt>
      <trkpt lat="46.73228" lon="-2.37748">
        <ele>2.3</ele>
        <time>2018-09-21T15:09:13.000Z</time>
      </trkpt>
      <trkpt lat="46.73228" lon="-2.37747">
        <ele>2.3</ele>
        <time>2018-09-21T15:09:14.000Z</time>
      </trkpt>
      <trkpt lat="46.73228" lon="-2.37746">
        <ele>2.4</ele>
        <time>2018-09-21T15:09:15.000Z</time>
      </trkpt>
      <trkpt lat="46.73227" lon="-2.37745">
        <ele>2.4</ele>
        <time>2018-09-21T15:09:16.000Z</time>
      </trkpt>
      <trkpt lat="46.73227" lon="-2.37745">
        <ele>2.4</ele>
        <time>2018-09-21T15:09:17.000Z</time>
      </trkpt>
      <trkpt lat="46.73228" lon="-2.37744">
        <ele>2.4</ele>
        <time>2018-09-21T15:09:18.000Z</time>
      </trkpt>
      <trkpt lat="46.73228" lon="-2.37743">
        <ele>2.4</ele>
        <time>2018-09-21T15:09:19.000Z</time>
      </trkpt>
      <trkpt lat="46.73228" lon="-2.37742">
        <ele>2.4</ele>
        <time>2018-09-21T15:09:20.000Z</time>
      </trkpt>
      <trkpt lat="46.73229" lon="-2.37741">
        <ele>2.3</ele>
        <time>2018-09-21T15:09:21.000Z</time>
      </trkpt>
      <trkpt lat="46.73229" lon="-2.3774">
        <ele>2.3</ele>
        <time>2018-09-21T15:09:22.000Z</time>
      </trkpt>
      <trkpt lat="46.73229" lon="-2.37739">
        <ele>2.3</ele>
        <time>2018-09-21T15:09:23.000Z</time>
      </trkpt>
      <trkpt lat="46.7323" lon="-2.37738">
        <ele>2.3</ele>
        <time>2018-09-21T15:09:24.000Z</time>
      </trkpt>
      <trkpt lat="46.7323" lon="-2.37737">
        <ele>2.3</ele>
        <time>2018-09-21T15:09:25.000Z</time>
      </trkpt>
      <trkpt lat="46.7323" lon="-2.37736">
        <ele>2.3</ele>
        <time>2018-09-21T15:09:26.000Z</time>
      </trkpt>
      <trkpt lat="46.7323" lon="-2.37736">
        <ele>2.3</ele>
        <time>2018-09-21T15:09:27.000Z</time>
      </trkpt>
      <trkpt lat="46.7323" lon="-2.37736">
        <ele>2.3</ele>
        <time>2018-09-21T15:09:28.000Z</time>
      </trkpt>
      <trkpt lat="46.7323" lon="-2.37736">
        <ele>2.3</ele>
        <time>2018-09-21T15:09:29.000Z</time>
      </trkpt>
      <trkpt lat="46.7323" lon="-2.37736">
        <ele>2.3</ele>
        <time>2018-09-21T15:09:30.000Z</time>
      </trkpt>
      <trkpt lat="46.7323" lon="-2.37736">
        <ele>2.3</ele>
        <time>2018-09-21T15:09:31.000Z</time>
      </trkpt>
      <trkpt lat="46.7323" lon="-2.37736">
        <ele>2.3</ele>
        <time>2018-09-21T15:09:32.000Z</time>
      </trkpt>
      <trkpt lat="46.7323" lon="-2.37736">
        <ele>2.3</ele>
        <time>2018-09-21T15:09:33.000Z</time>
      </trkpt>
      <trkpt lat="46.7323" lon="-2.37735">
        <ele>2.3</ele>
        <time>2018-09-21T15:09:34.000Z</time>
      </trkpt>
      <trkpt lat="46.73231" lon="-2.37735">
        <ele>2.3</ele>
        <time>2018-09-21T15:09:35.000Z</time>
      </trkpt>
      <trkpt lat="46.73231" lon="-2.37734">
        <ele>2.2</ele>
        <time>2018-09-21T15:09:36.000Z</time>
      </trkpt>
      <trkpt lat="46.73232" lon="-2.37733">
        <ele>2.2</ele>
        <time>2018-09-21T15:09:37.000Z</time>
      </trkpt>
      <trkpt lat="46.73232" lon="-2.37732">
        <ele>2.2</ele>
        <time>2018-09-21T15:09:38.000Z</time>
      </trkpt>
      <trkpt lat="46.73233" lon="-2.37731">
        <ele>2.2</ele>
        <time>2018-09-21T15:09:39.000Z</time>
      </trkpt>
      <trkpt lat="46.73233" lon="-2.37731">
        <ele>2.1</ele>
        <time>2018-09-21T15:09:40.000Z</time>
      </trkpt>
      <trkpt lat="46.73234" lon="-2.3773">
        <ele>2.1</ele>
        <time>2018-09-21T15:09:41.000Z</time>
      </trkpt>
      <trkpt lat="46.73235" lon="-2.37729">
        <ele>2.1</ele>
        <time>2018-09-21T15:09:42.000Z</time>
      </trkpt>
      <trkpt lat="46.73235" lon="-2.37729">
        <ele>2.1</ele>
        <time>2018-09-21T15:09:43.000Z</time>
      </trkpt>
      <trkpt lat="46.73235" lon="-2.37728">
        <ele>2.1</ele>
        <time>2018-09-21T15:09:44.000Z</time>
      </trkpt>
      <trkpt lat="46.73236" lon="-2.37727">
        <ele>2</ele>
        <time>2018-09-21T15:09:45.000Z</time>
      </trkpt>
      <trkpt lat="46.73235" lon="-2.37726">
        <ele>2.1</ele>
        <time>2018-09-21T15:09:46.000Z</time>
      </trkpt>
      <trkpt lat="46.73235" lon="-2.37725">
        <ele>2.1</ele>
        <time>2018-09-21T15:09:47.000Z</time>
      </trkpt>
      <trkpt lat="46.73235" lon="-2.37724">
        <ele>2.1</ele>
        <time>2018-09-21T15:09:48.000Z</time>
      </trkpt>
      <trkpt lat="46.73235" lon="-2.37723">
        <ele>2.1</ele>
        <time>2018-09-21T15:09:49.000Z</time>
      </trkpt>
      <trkpt lat="46.73234" lon="-2.37723">
        <ele>2.1</ele>
        <time>2018-09-21T15:09:50.000Z</time>
      </trkpt>
      <trkpt lat="46.73234" lon="-2.37722">
        <ele>2.2</ele>
        <time>2018-09-21T15:09:51.000Z</time>
      </trkpt>
      <trkpt lat="46.73234" lon="-2.37722">
        <ele>2.2</ele>
        <time>2018-09-21T15:09:52.000Z</time>
      </trkpt>
      <trkpt lat="46.73234" lon="-2.37722">
        <ele>2.2</ele>
        <time>2018-09-21T15:09:53.000Z</time>
      </trkpt>
      <trkpt lat="46.73233" lon="-2.37721">
        <ele>2.2</ele>
        <time>2018-09-21T15:09:54.000Z</time>
      </trkpt>
      <trkpt lat="46.73233" lon="-2.37721">
        <ele>2.2</ele>
        <time>2018-09-21T15:09:55.000Z</time>
      </trkpt>
      <trkpt lat="46.73233" lon="-2.37721">
        <ele>2.2</ele>
        <time>2018-09-21T15:09:56.000Z</time>
      </trkpt>
      <trkpt lat="46.73232" lon="-2.3772">
        <ele>2.3</ele>
        <time>2018-09-21T15:09:57.000Z</time>
      </trkpt>
      <trkpt lat="46.73232" lon="-2.37719">
        <ele>2.3</ele>
        <time>2018-09-21T15:09:58.000Z</time>
      </trkpt>
      <trkpt lat="46.73232" lon="-2.37719">
        <ele>2.3</ele>
        <time>2018-09-21T15:09:59.000Z</time>
      </trkpt>
      <trkpt lat="46.73232" lon="-2.37718">
        <ele>2.3</ele>
        <time>2018-09-21T15:10:00.000Z</time>
      </trkpt>
      <trkpt lat="46.73231" lon="-2.37717">
        <ele>2.3</ele>
        <time>2018-09-21T15:10:01.000Z</time>
      </trkpt>
      <trkpt lat="46.73231" lon="-2.37716">
        <ele>2.4</ele>
        <time>2018-09-21T15:10:02.000Z</time>
      </trkpt>
      <trkpt lat="46.73231" lon="-2.37715">
        <ele>2.4</ele>
        <time>2018-09-21T15:10:03.000Z</time>
      </trkpt>
      <trkpt lat="46.73231" lon="-2.37714">
        <ele>2.4</ele>
        <time>2018-09-21T15:10:04.000Z</time>
      </trkpt>
      <trkpt lat="46.73231" lon="-2.37713">
        <ele>2.4</ele>
        <time>2018-09-21T15:10:05.000Z</time>
      </trkpt>
      <trkpt lat="46.73231" lon="-2.37712">
        <ele>2.4</ele>
        <time>2018-09-21T15:10:06.000Z</time>
      </trkpt>
      <trkpt lat="46.73232" lon="-2.37711">
        <ele>2.4</ele>
        <time>2018-09-21T15:10:07.000Z</time>
      </trkpt>
      <trkpt lat="46.73232" lon="-2.3771">
        <ele>2.4</ele>
        <time>2018-09-21T15:10:08.000Z</time>
      </trkpt>
      <trkpt lat="46.73232" lon="-2.37709">
        <ele>2.3</ele>
        <time>2018-09-21T15:10:09.000Z</time>
      </trkpt>
      <trkpt lat="46.73233" lon="-2.37708">
        <ele>2.3</ele>
        <time>2018-09-21T15:10:10.000Z</time>
      </trkpt>
      <trkpt lat="46.73233" lon="-2.37707">
        <ele>2.3</ele>
        <time>2018-09-21T15:10:11.000Z</time>
      </trkpt>
      <trkpt lat="46.73234" lon="-2.37706">
        <ele>2.3</ele>
        <time>2018-09-21T15:10:12.000Z</time>
      </trkpt>
      <trkpt lat="46.73234" lon="-2.37705">
        <ele>2.3</ele>
        <time>2018-09-21T15:10:13.000Z</time>
      </trkpt>
      <trkpt lat="46.73234" lon="-2.37704">
        <ele>2.3</ele>
        <time>2018-09-21T15:10:14.000Z</time>
      </trkpt>
      <trkpt lat="46.73234" lon="-2.37703">
        <ele>2.3</ele>
        <time>2018-09-21T15:10:15.000Z</time>
      </trkpt>
      <trkpt lat="46.73235" lon="-2.37702">
        <ele>2.3</ele>
        <time>2018-09-21T15:10:16.000Z</time>
      </trkpt>
      <trkpt lat="46.73235" lon="-2.37701">
        <ele>2.3</ele>
        <time>2018-09-21T15:10:17.000Z</time>
      </trkpt>
      <trkpt lat="46.73235" lon="-2.377">
        <ele>2.3</ele>
        <time>2018-09-21T15:10:18.000Z</time>
      </trkpt>
      <trkpt lat="46.73235" lon="-2.37699">
        <ele>2.3</ele>
        <time>2018-09-21T15:10:19.000Z</time>
      </trkpt>
      <trkpt lat="46.73235" lon="-2.37698">
        <ele>2.3</ele>
        <time>2018-09-21T15:10:20.000Z</time>
      </trkpt>
      <trkpt lat="46.73235" lon="-2.37697">
        <ele>2.3</ele>
        <time>2018-09-21T15:10:21.000Z</time>
      </trkpt>
      <trkpt lat="46.73235" lon="-2.37695">
        <ele>2.3</ele>
        <time>2018-09-21T15:10:22.000Z</time>
      </trkpt>
      <trkpt lat="46.73235" lon="-2.37694">
        <ele>2.3</ele>
        <time>2018-09-21T15:10:23.000Z</time>
      </trkpt>
      <trkpt lat="46.73235" lon="-2.37693">
        <ele>2.3</ele>
        <time>2018-09-21T15:10:24.000Z</time>
      </trkpt>
      <trkpt lat="46.73235" lon="-2.37692">
        <ele>2.3</ele>
        <time>2018-09-21T15:10:25.000Z</time>
      </trkpt>
      <trkpt lat="46.73235" lon="-2.37691">
        <ele>2.3</ele>
        <time>2018-09-21T15:10:26.000Z</time>
      </trkpt>
      <trkpt lat="46.73235" lon="-2.3769">
        <ele>2.4</ele>
        <time>2018-09-21T15:10:27.000Z</time>
      </trkpt>
      <trkpt lat="46.73235" lon="-2.37689">
        <ele>2.4</ele>
        <time>2018-09-21T15:10:28.000Z</time>
      </trkpt>
      <trkpt lat="46.73235" lon="-2.37688">
        <ele>2.4</ele>
        <time>2018-09-21T15:10:29.000Z</time>
      </trkpt>
      <trkpt lat="46.73235" lon="-2.37686">
        <ele>2.4</ele>
        <time>2018-09-21T15:10:30.000Z</time>
      </trkpt>
      <trkpt lat="46.73235" lon="-2.37685">
        <ele>2.4</ele>
        <time>2018-09-21T15:10:31.000Z</time>
      </trkpt>
      <trkpt lat="46.73235" lon="-2.37684">
        <ele>2.4</ele>
        <time>2018-09-21T15:10:32.000Z</time>
      </trkpt>
      <trkpt lat="46.73235" lon="-2.37683">
        <ele>2.4</ele>
        <time>2018-09-21T15:10:33.000Z</time>
      </trkpt>
      <trkpt lat="46.73235" lon="-2.37682">
        <ele>2.4</ele>
        <time>2018-09-21T15:10:34.000Z</time>
      </trkpt>
      <trkpt lat="46.73236" lon="-2.3768">
        <ele>2.4</ele>
        <time>2018-09-21T15:10:35.000Z</time>
      </trkpt>
      <trkpt lat="46.73236" lon="-2.37679">
        <ele>2.4</ele>
        <time>2018-09-21T15:10:36.000Z</time>
      </trkpt>
      <trkpt lat="46.73236" lon="-2.37678">
        <ele>2.4</ele>
        <time>2018-09-21T15:10:37.000Z</time>
      </trkpt>
      <trkpt lat="46.73236" lon="-2.37677">
        <ele>2.4</ele>
        <time>2018-09-21T15:10:38.000Z</time>
      </trkpt>
      <trkpt lat="46.73236" lon="-2.37675">
        <ele>2.4</ele>
        <time>2018-09-21T15:10:39.000Z</time>
      </trkpt>
      <trkpt lat="46.73236" lon="-2.37674">
        <ele>2.4</ele>
        <time>2018-09-21T15:10:40.000Z</time>
      </trkpt>
      <trkpt lat="46.73237" lon="-2.37673">
        <ele>2.4</ele>
        <time>2018-09-21T15:10:41.000Z</time>
      </trkpt>
      <trkpt lat="46.73237" lon="-2.37671">
        <ele>2.4</ele>
        <time>2018-09-21T15:10:42.000Z</time>
      </trkpt>
      <trkpt lat="46.73237" lon="-2.3767">
        <ele>2.4</ele>
        <time>2018-09-21T15:10:43.000Z</time>
      </trkpt>
      <trkpt lat="46.73237" lon="-2.37669">
        <ele>2.4</ele>
        <time>2018-09-21T15:10:44.000Z</time>
      </trkpt>
      <trkpt lat="46.73237" lon="-2.37667">
        <ele>2.4</ele>
        <time>2018-09-21T15:10:45.000Z</time>
      </trkpt>
      <trkpt lat="46.73238" lon="-2.37666">
        <ele>2.5</ele>
        <time>2018-09-21T15:10:46.000Z</time>
      </trkpt>
      <trkpt lat="46.73238" lon="-2.37665">
        <ele>2.5</ele>
        <time>2018-09-21T15:10:47.000Z</time>
      </trkpt>
      <trkpt lat="46.73238" lon="-2.37663">
        <ele>2.5</ele>
        <time>2018-09-21T15:10:48.000Z</time>
      </trkpt>
      <trkpt lat="46.73238" lon="-2.37662">
        <ele>2.5</ele>
        <time>2018-09-21T15:10:49.000Z</time>
      </trkpt>
      <trkpt lat="46.73239" lon="-2.3766">
        <ele>2.5</ele>
        <time>2018-09-21T15:10:50.000Z</time>
      </trkpt>
      <trkpt lat="46.73239" lon="-2.37659">
        <ele>2.5</ele>
        <time>2018-09-21T15:10:51.000Z</time>
      </trkpt>
      <trkpt lat="46.73239" lon="-2.37658">
        <ele>2.5</ele>
        <time>2018-09-21T15:10:52.000Z</time>
      </trkpt>
      <trkpt lat="46.7324" lon="-2.37656">
        <ele>2.5</ele>
        <time>2018-09-21T15:10:53.000Z</time>
      </trkpt>
      <trkpt lat="46.7324" lon="-2.37655">
        <ele>2.5</ele>
        <time>2018-09-21T15:10:54.000Z</time>
      </trkpt>
      <trkpt lat="46.7324" lon="-2.37653">
        <ele>2.5</ele>
        <time>2018-09-21T15:10:55.000Z</time>
      </trkpt>
      <trkpt lat="46.7324" lon="-2.37652">
        <ele>2.5</ele>
        <time>2018-09-21T15:10:56.000Z</time>
      </trkpt>
      <trkpt lat="46.73241" lon="-2.3765">
        <ele>2.5</ele>
        <time>2018-09-21T15:10:57.000Z</time>
      </trkpt>
      <trkpt lat="46.73241" lon="-2.37649">
        <ele>2.5</ele>
        <time>2018-09-21T15:10:58.000Z</time>
      </trkpt>
      <trkpt lat="46.73241" lon="-2.37647">
        <ele>2.5</ele>
        <time>2018-09-21T15:10:59.000Z</time>
      </trkpt>
      <trkpt lat="46.73242" lon="-2.37646">
        <ele>2.5</ele>
        <time>2018-09-21T15:11:00.000Z</time>
      </trkpt>
      <trkpt lat="46.73242" lon="-2.37645">
        <ele>2.5</ele>
        <time>2018-09-21T15:11:01.000Z</time>
      </trkpt>
      <trkpt lat="46.73242" lon="-2.37643">
        <ele>2.5</ele>
        <time>2018-09-21T15:11:02.000Z</time>
      </trkpt>
      <trkpt lat="46.73242" lon="-2.37642">
        <ele>2.5</ele>
        <time>2018-09-21T15:11:03.000Z</time>
      </trkpt>
      <trkpt lat="46.73243" lon="-2.3764">
        <ele>2.5</ele>
        <time>2018-09-21T15:11:04.000Z</time>
      </trkpt>
      <trkpt lat="46.73243" lon="-2.37639">
        <ele>2.5</ele>
        <time>2018-09-21T15:11:05.000Z</time>
      </trkpt>
      <trkpt lat="46.73243" lon="-2.37637">
        <ele>2.5</ele>
        <time>2018-09-21T15:11:06.000Z</time>
      </trkpt>
      <trkpt lat="46.73244" lon="-2.37636">
        <ele>2.5</ele>
        <time>2018-09-21T15:11:07.000Z</time>
      </trkpt>
      <trkpt lat="46.73244" lon="-2.37635">
        <ele>2.5</ele>
        <time>2018-09-21T15:11:08.000Z</time>
      </trkpt>
      <trkpt lat="46.73244" lon="-2.37633">
        <ele>2.6</ele>
        <time>2018-09-21T15:11:09.000Z</time>
      </trkpt>
      <trkpt lat="46.73244" lon="-2.37632">
        <ele>2.6</ele>
        <time>2018-09-21T15:11:10.000Z</time>
      </trkpt>
      <trkpt lat="46.73245" lon="-2.3763">
        <ele>2.6</ele>
        <time>2018-09-21T15:11:11.000Z</time>
      </trkpt>
      <trkpt lat="46.73245" lon="-2.37629">
        <ele>2.6</ele>
        <time>2018-09-21T15:11:12.000Z</time>
      </trkpt>
      <trkpt lat="46.73245" lon="-2.37628">
        <ele>2.6</ele>
        <time>2018-09-21T15:11:13.000Z</time>
      </trkpt>
      <trkpt lat="46.73246" lon="-2.37626">
        <ele>2.6</ele>
        <time>2018-09-21T15:11:14.000Z</time>
      </trkpt>
      <trkpt lat="46.73246" lon="-2.37625">
        <ele>2.6</ele>
        <time>2018-09-21T15:11:15.000Z</time>
      </trkpt>
      <trkpt lat="46.73246" lon="-2.37624">
        <ele>2.6</ele>
        <time>2018-09-21T15:11:16.000Z</time>
      </trkpt>
      <trkpt lat="46.73247" lon="-2.37622">
        <ele>2.6</ele>
        <time>2018-09-21T15:11:17.000Z</time>
      </trkpt>
      <trkpt lat="46.73247" lon="-2.37621">
        <ele>2.6</ele>
        <time>2018-09-21T15:11:18.000Z</time>
      </trkpt>
      <trkpt lat="46.73247" lon="-2.3762">
        <ele>2.6</ele>
        <time>2018-09-21T15:11:19.000Z</time>
      </trkpt>
      <trkpt lat="46.73248" lon="-2.37619">
        <ele>2.6</ele>
        <time>2018-09-21T15:11:20.000Z</time>
      </trkpt>
      <trkpt lat="46.73248" lon="-2.37617">
        <ele>2.6</ele>
        <time>2018-09-21T15:11:21.000Z</time>
      </trkpt>
      <trkpt lat="46.73249" lon="-2.37616">
        <ele>2.6</ele>
        <time>2018-09-21T15:11:22.000Z</time>
      </trkpt>
      <trkpt lat="46.73249" lon="-2.37615">
        <ele>2.6</ele>
        <time>2018-09-21T15:11:23.000Z</time>
      </trkpt>
      <trkpt lat="46.7325" lon="-2.37614">
        <ele>2.6</ele>
        <time>2018-09-21T15:11:24.000Z</time>
      </trkpt>
      <trkpt lat="46.7325" lon="-2.37613">
        <ele>2.6</ele>
        <time>2018-09-21T15:11:25.000Z</time>
      </trkpt>
      <trkpt lat="46.73251" lon="-2.37611">
        <ele>2.6</ele>
        <time>2018-09-21T15:11:26.000Z</time>
      </trkpt>
      <trkpt lat="46.73251" lon="-2.3761">
        <ele>2.6</ele>
        <time>2018-09-21T15:11:27.000Z</time>
      </trkpt>
      <trkpt lat="46.73252" lon="-2.37609">
        <ele>2.6</ele>
        <time>2018-09-21T15:11:28.000Z</time>
      </trkpt>
      <trkpt lat="46.73253" lon="-2.37608">
        <ele>2.6</ele>
        <time>2018-09-21T15:11:29.000Z</time>
      </trkpt>
      <trkpt lat="46.73254" lon="-2.37607">
        <ele>2.5</ele>
        <time>2018-09-21T15:11:30.000Z</time>
      </trkpt>
      <trkpt lat="46.73254" lon="-2.37606">
        <ele>2.5</ele>
        <time>2018-09-21T15:11:31.000Z</time>
      </trkpt>
      <trkpt lat="46.73255" lon="-2.37605">
        <ele>2.5</ele>
        <time>2018-09-21T15:11:32.000Z</time>
      </trkpt>
      <trkpt lat="46.73256" lon="-2.37604">
        <ele>2.5</ele>
        <time>2018-09-21T15:11:33.000Z</time>
      </trkpt>
      <trkpt lat="46.73257" lon="-2.37602">
        <ele>2.5</ele>
        <time>2018-09-21T15:11:34.000Z</time>
      </trkpt>
      <trkpt lat="46.73257" lon="-2.37601">
        <ele>2.4</ele>
        <time>2018-09-21T15:11:35.000Z</time>
      </trkpt>
      <trkpt lat="46.73258" lon="-2.376">
        <ele>2.4</ele>
        <time>2018-09-21T15:11:36.000Z</time>
      </trkpt>
      <trkpt lat="46.73259" lon="-2.37599">
        <ele>2.4</ele>
        <time>2018-09-21T15:11:37.000Z</time>
      </trkpt>
      <trkpt lat="46.73259" lon="-2.37598">
        <ele>2.4</ele>
        <time>2018-09-21T15:11:38.000Z</time>
      </trkpt>
      <trkpt lat="46.7326" lon="-2.37596">
        <ele>2.4</ele>
        <time>2018-09-21T15:11:39.000Z</time>
      </trkpt>
      <trkpt lat="46.73261" lon="-2.37595">
        <ele>2.4</ele>
        <time>2018-09-21T15:11:40.000Z</time>
      </trkpt>
      <trkpt lat="46.73261" lon="-2.37594">
        <ele>2.3</ele>
        <time>2018-09-21T15:11:41.000Z</time>
      </trkpt>
      <trkpt lat="46.73262" lon="-2.37592">
        <ele>2.3</ele>
        <time>2018-09-21T15:11:42.000Z</time>
      </trkpt>
      <trkpt lat="46.73262" lon="-2.37591">
        <ele>2.3</ele>
        <time>2018-09-21T15:11:43.000Z</time>
      </trkpt>
      <trkpt lat="46.73262" lon="-2.37589">
        <ele>2.3</ele>
        <time>2018-09-21T15:11:44.000Z</time>
      </trkpt>
      <trkpt lat="46.73263" lon="-2.37588">
        <ele>2.3</ele>
        <time>2018-09-21T15:11:45.000Z</time>
      </trkpt>
      <trkpt lat="46.73263" lon="-2.37586">
        <ele>2.3</ele>
        <time>2018-09-21T15:11:46.000Z</time>
      </trkpt>
      <trkpt lat="46.73264" lon="-2.37585">
        <ele>2.3</ele>
        <time>2018-09-21T15:11:47.000Z</time>
      </trkpt>
      <trkpt lat="46.73264" lon="-2.37584">
        <ele>2.3</ele>
        <time>2018-09-21T15:11:48.000Z</time>
      </trkpt>
      <trkpt lat="46.73265" lon="-2.37582">
        <ele>2.3</ele>
        <time>2018-09-21T15:11:49.000Z</time>
      </trkpt>
      <trkpt lat="46.73266" lon="-2.37581">
        <ele>2.3</ele>
        <time>2018-09-21T15:11:50.000Z</time>
      </trkpt>
      <trkpt lat="46.73266" lon="-2.37579">
        <ele>2.3</ele>
        <time>2018-09-21T15:11:51.000Z</time>
      </trkpt>
      <trkpt lat="46.73267" lon="-2.37578">
        <ele>2.3</ele>
        <time>2018-09-21T15:11:52.000Z</time>
      </trkpt>
      <trkpt lat="46.73267" lon="-2.37577">
        <ele>2.3</ele>
        <time>2018-09-21T15:11:53.000Z</time>
      </trkpt>
      <trkpt lat="46.73268" lon="-2.37576">
        <ele>2.3</ele>
        <time>2018-09-21T15:11:54.000Z</time>
      </trkpt>
      <trkpt lat="46.73268" lon="-2.37574">
        <ele>2.3</ele>
        <time>2018-09-21T15:11:55.000Z</time>
      </trkpt>
      <trkpt lat="46.73268" lon="-2.37573">
        <ele>2.4</ele>
        <time>2018-09-21T15:11:56.000Z</time>
      </trkpt>
      <trkpt lat="46.73268" lon="-2.37572">
        <ele>2.4</ele>
        <time>2018-09-21T15:11:57.000Z</time>
      </trkpt>
      <trkpt lat="46.73268" lon="-2.3757">
        <ele>2.4</ele>
        <time>2018-09-21T15:11:58.000Z</time>
      </trkpt>
      <trkpt lat="46.73268" lon="-2.37569">
        <ele>2.4</ele>
        <time>2018-09-21T15:11:59.000Z</time>
      </trkpt>
      <trkpt lat="46.73268" lon="-2.37568">
        <ele>2.5</ele>
        <time>2018-09-21T15:12:00.000Z</time>
      </trkpt>
      <trkpt lat="46.73267" lon="-2.37567">
        <ele>2.5</ele>
        <time>2018-09-21T15:12:01.000Z</time>
      </trkpt>
      <trkpt lat="46.73267" lon="-2.37566">
        <ele>2.6</ele>
        <time>2018-09-21T15:12:02.000Z</time>
      </trkpt>
      <trkpt lat="46.73266" lon="-2.37565">
        <ele>2.6</ele>
        <time>2018-09-21T15:12:03.000Z</time>
      </trkpt>
      <trkpt lat="46.73266" lon="-2.37564">
        <ele>2.7</ele>
        <time>2018-09-21T15:12:04.000Z</time>
      </trkpt>
      <trkpt lat="46.73265" lon="-2.37563">
        <ele>2.7</ele>
        <time>2018-09-21T15:12:05.000Z</time>
      </trkpt>
      <trkpt lat="46.73265" lon="-2.37563">
        <ele>2.7</ele>
        <time>2018-09-21T15:12:06.000Z</time>
      </trkpt>
      <trkpt lat="46.73265" lon="-2.37562">
        <ele>2.8</ele>
        <time>2018-09-21T15:12:07.000Z</time>
      </trkpt>
      <trkpt lat="46.73264" lon="-2.37562">
        <ele>2.8</ele>
        <time>2018-09-21T15:12:08.000Z</time>
      </trkpt>
      <trkpt lat="46.73264" lon="-2.37562">
        <ele>2.8</ele>
        <time>2018-09-21T15:12:09.000Z</time>
      </trkpt>
      <trkpt lat="46.73264" lon="-2.37561">
        <ele>2.8</ele>
        <time>2018-09-21T15:12:10.000Z</time>
      </trkpt>
      <trkpt lat="46.73263" lon="-2.37561">
        <ele>2.8</ele>
        <time>2018-09-21T15:12:11.000Z</time>
      </trkpt>
      <trkpt lat="46.73263" lon="-2.37561">
        <ele>2.9</ele>
        <time>2018-09-21T15:12:12.000Z</time>
      </trkpt>
      <trkpt lat="46.73263" lon="-2.37561">
        <ele>2.9</ele>
        <time>2018-09-21T15:12:13.000Z</time>
      </trkpt>
      <trkpt lat="46.73263" lon="-2.37561">
        <ele>2.9</ele>
        <time>2018-09-21T15:12:14.000Z</time>
      </trkpt>
      <trkpt lat="46.73263" lon="-2.37561">
        <ele>2.9</ele>
        <time>2018-09-21T15:12:15.000Z</time>
      </trkpt>
      <trkpt lat="46.73263" lon="-2.37561">
        <ele>2.9</ele>
        <time>2018-09-21T15:12:16.000Z</time>
      </trkpt>
      <trkpt lat="46.73263" lon="-2.37561">
        <ele>2.9</ele>
        <time>2018-09-21T15:12:17.000Z</time>
      </trkpt>
      <trkpt lat="46.73263" lon="-2.37561">
        <ele>2.9</ele>
        <time>2018-09-21T15:12:18.000Z</time>
      </trkpt>
      <trkpt lat="46.73263" lon="-2.37561">
        <ele>2.9</ele>
        <time>2018-09-21T15:12:19.000Z</time>
      </trkpt>
      <trkpt lat="46.73263" lon="-2.37561">
        <ele>2.9</ele>
        <time>2018-09-21T15:12:20.000Z</time>
      </trkpt>
      <trkpt lat="46.73263" lon="-2.37561">
        <ele>2.9</ele>
        <time>2018-09-21T15:12:21.000Z</time>
      </trkpt>
      <trkpt lat="46.73263" lon="-2.37561">
        <ele>2.9</ele>
        <time>2018-09-21T15:12:22.000Z</time>
      </trkpt>
      <trkpt lat="46.73263" lon="-2.37561">
        <ele>2.9</ele>
        <time>2018-09-21T15:12:23.000Z</time>
      </trkpt>
      <trkpt lat="46.73263" lon="-2.37561">
        <ele>2.9</ele>
        <time>2018-09-21T15:12:24.000Z</time>
      </trkpt>
      <trkpt lat="46.73262" lon="-2.37561">
        <ele>2.9</ele>
        <time>2018-09-21T15:12:25.000Z</time>
      </trkpt>
      <trkpt lat="46.73262" lon="-2.37561">
        <ele>2.9</ele>
        <time>2018-09-21T15:12:26.000Z</time>
      </trkpt>
      <trkpt lat="46.73262" lon="-2.37561">
        <ele>3</ele>
        <time>2018-09-21T15:12:27.000Z</time>
      </trkpt>
      <trkpt lat="46.73261" lon="-2.37561">
        <ele>3</ele>
        <time>2018-09-21T15:12:28.000Z</time>
      </trkpt>
      <trkpt lat="46.7326" lon="-2.3756">
        <ele>3</ele>
        <time>2018-09-21T15:12:29.000Z</time>
      </trkpt>
      <trkpt lat="46.7326" lon="-2.3756">
        <ele>3.1</ele>
        <time>2018-09-21T15:12:30.000Z</time>
      </trkpt>
      <trkpt lat="46.73259" lon="-2.3756">
        <ele>3.1</ele>
        <time>2018-09-21T15:12:31.000Z</time>
      </trkpt>
      <trkpt lat="46.73258" lon="-2.3756">
        <ele>3.1</ele>
        <time>2018-09-21T15:12:32.000Z</time>
      </trkpt>
      <trkpt lat="46.73258" lon="-2.3756">
        <ele>3.2</ele>
        <time>2018-09-21T15:12:33.000Z</time>
      </trkpt>
      <trkpt lat="46.73257" lon="-2.37559">
        <ele>3.2</ele>
        <time>2018-09-21T15:12:34.000Z</time>
      </trkpt>
      <trkpt lat="46.73256" lon="-2.37559">
        <ele>3.3</ele>
        <time>2018-09-21T15:12:35.000Z</time>
      </trkpt>
      <trkpt lat="46.73255" lon="-2.37559">
        <ele>3.3</ele>
        <time>2018-09-21T15:12:36.000Z</time>
      </trkpt>
      <trkpt lat="46.73254" lon="-2.37559">
        <ele>3.4</ele>
        <time>2018-09-21T15:12:37.000Z</time>
      </trkpt>
      <trkpt lat="46.73254" lon="-2.37558">
        <ele>3.4</ele>
        <time>2018-09-21T15:12:38.000Z</time>
      </trkpt>
      <trkpt lat="46.73253" lon="-2.37558">
        <ele>3.5</ele>
        <time>2018-09-21T15:12:39.000Z</time>
      </trkpt>
      <trkpt lat="46.73252" lon="-2.37558">
        <ele>3.5</ele>
        <time>2018-09-21T15:12:40.000Z</time>
      </trkpt>
      <trkpt lat="46.73251" lon="-2.37558">
        <ele>3.6</ele>
        <time>2018-09-21T15:12:41.000Z</time>
      </trkpt>
      <trkpt lat="46.7325" lon="-2.37558">
        <ele>3.6</ele>
        <time>2018-09-21T15:12:42.000Z</time>
      </trkpt>
      <trkpt lat="46.73249" lon="-2.37557">
        <ele>3.6</ele>
        <time>2018-09-21T15:12:43.000Z</time>
      </trkpt>
      <trkpt lat="46.73248" lon="-2.37557">
        <ele>3.6</ele>
        <time>2018-09-21T15:12:44.000Z</time>
      </trkpt>
      <trkpt lat="46.73247" lon="-2.37558">
        <ele>3.6</ele>
        <time>2018-09-21T15:12:45.000Z</time>
      </trkpt>
      <trkpt lat="46.73246" lon="-2.37558">
        <ele>3.7</ele>
        <time>2018-09-21T15:12:46.000Z</time>
      </trkpt>
      <trkpt lat="46.73245" lon="-2.37558">
        <ele>3.7</ele>
        <time>2018-09-21T15:12:47.000Z</time>
      </trkpt>
      <trkpt lat="46.73244" lon="-2.37558">
        <ele>3.7</ele>
        <time>2018-09-21T15:12:48.000Z</time>
      </trkpt>
      <trkpt lat="46.73242" lon="-2.37558">
        <ele>3.7</ele>
        <time>2018-09-21T15:12:49.000Z</time>
      </trkpt>
      <trkpt lat="46.73241" lon="-2.37558">
        <ele>3.7</ele>
        <time>2018-09-21T15:12:50.000Z</time>
      </trkpt>
      <trkpt lat="46.7324" lon="-2.37558">
        <ele>3.7</ele>
        <time>2018-09-21T15:12:51.000Z</time>
      </trkpt>
      <trkpt lat="46.73239" lon="-2.37557">
        <ele>3.7</ele>
        <time>2018-09-21T15:12:52.000Z</time>
      </trkpt>
      <trkpt lat="46.73238" lon="-2.37557">
        <ele>3.7</ele>
        <time>2018-09-21T15:12:53.000Z</time>
      </trkpt>
      <trkpt lat="46.73237" lon="-2.37557">
        <ele>3.8</ele>
        <time>2018-09-21T15:12:54.000Z</time>
      </trkpt>
      <trkpt lat="46.73236" lon="-2.37556">
        <ele>3.8</ele>
        <time>2018-09-21T15:12:55.000Z</time>
      </trkpt>
      <trkpt lat="46.73235" lon="-2.37556">
        <ele>3.8</ele>
        <time>2018-09-21T15:12:56.000Z</time>
      </trkpt>
      <trkpt lat="46.73234" lon="-2.37556">
        <ele>3.8</ele>
        <time>2018-09-21T15:12:57.000Z</time>
      </trkpt>
      <trkpt lat="46.73233" lon="-2.37555">
        <ele>3.8</ele>
        <time>2018-09-21T15:12:58.000Z</time>
      </trkpt>
      <trkpt lat="46.73232" lon="-2.37555">
        <ele>3.8</ele>
        <time>2018-09-21T15:12:59.000Z</time>
      </trkpt>
      <trkpt lat="46.73231" lon="-2.37554">
        <ele>3.8</ele>
        <time>2018-09-21T15:13:00.000Z</time>
      </trkpt>
      <trkpt lat="46.7323" lon="-2.37554">
        <ele>3.9</ele>
        <time>2018-09-21T15:13:01.000Z</time>
      </trkpt>
      <trkpt lat="46.73229" lon="-2.37554">
        <ele>3.9</ele>
        <time>2018-09-21T15:13:02.000Z</time>
      </trkpt>
      <trkpt lat="46.73228" lon="-2.37553">
        <ele>3.9</ele>
        <time>2018-09-21T15:13:03.000Z</time>
      </trkpt>
      <trkpt lat="46.73227" lon="-2.37553">
        <ele>3.9</ele>
        <time>2018-09-21T15:13:04.000Z</time>
      </trkpt>
      <trkpt lat="46.73226" lon="-2.37553">
        <ele>3.9</ele>
        <time>2018-09-21T15:13:05.000Z</time>
      </trkpt>
      <trkpt lat="46.73225" lon="-2.37552">
        <ele>3.9</ele>
        <time>2018-09-21T15:13:06.000Z</time>
      </trkpt>
      <trkpt lat="46.73224" lon="-2.37551">
        <ele>4</ele>
        <time>2018-09-21T15:13:07.000Z</time>
      </trkpt>
      <trkpt lat="46.73224" lon="-2.37551">
        <ele>4</ele>
        <time>2018-09-21T15:13:08.000Z</time>
      </trkpt>
      <trkpt lat="46.73224" lon="-2.3755">
        <ele>4</ele>
        <time>2018-09-21T15:13:09.000Z</time>
      </trkpt>
      <trkpt lat="46.73224" lon="-2.37549">
        <ele>4</ele>
        <time>2018-09-21T15:13:10.000Z</time>
      </trkpt>
      <trkpt lat="46.73224" lon="-2.37547">
        <ele>4</ele>
        <time>2018-09-21T15:13:11.000Z</time>
      </trkpt>
      <trkpt lat="46.73225" lon="-2.37546">
        <ele>4.1</ele>
        <time>2018-09-21T15:13:12.000Z</time>
      </trkpt>
      <trkpt lat="46.73226" lon="-2.37544">
        <ele>4.1</ele>
        <time>2018-09-21T15:13:13.000Z</time>
      </trkpt>
      <trkpt lat="46.73226" lon="-2.37543">
        <ele>4.1</ele>
        <time>2018-09-21T15:13:14.000Z</time>
      </trkpt>
      <trkpt lat="46.73227" lon="-2.37542">
        <ele>4.1</ele>
        <time>2018-09-21T15:13:15.000Z</time>
      </trkpt>
      <trkpt lat="46.73227" lon="-2.3754">
        <ele>4.2</ele>
        <time>2018-09-21T15:13:16.000Z</time>
      </trkpt>
      <trkpt lat="46.73227" lon="-2.37539">
        <ele>4.2</ele>
        <time>2018-09-21T15:13:17.000Z</time>
      </trkpt>
      <trkpt lat="46.73228" lon="-2.37537">
        <ele>4.2</ele>
        <time>2018-09-21T15:13:18.000Z</time>
      </trkpt>
      <trkpt lat="46.73228" lon="-2.37536">
        <ele>4.3</ele>
        <time>2018-09-21T15:13:19.000Z</time>
      </trkpt>
      <trkpt lat="46.73228" lon="-2.37534">
        <ele>4.3</ele>
        <time>2018-09-21T15:13:20.000Z</time>
      </trkpt>
      <trkpt lat="46.73229" lon="-2.37533">
        <ele>4.3</ele>
        <time>2018-09-21T15:13:21.000Z</time>
      </trkpt>
      <trkpt lat="46.73229" lon="-2.37531">
        <ele>4.3</ele>
        <time>2018-09-21T15:13:22.000Z</time>
      </trkpt>
      <trkpt lat="46.73229" lon="-2.3753">
        <ele>4.4</ele>
        <time>2018-09-21T15:13:23.000Z</time>
      </trkpt>
      <trkpt lat="46.73229" lon="-2.37528">
        <ele>4.4</ele>
        <time>2018-09-21T15:13:24.000Z</time>
      </trkpt>
      <trkpt lat="46.7323" lon="-2.37527">
        <ele>4.4</ele>
        <time>2018-09-21T15:13:25.000Z</time>
      </trkpt>
      <trkpt lat="46.7323" lon="-2.37525">
        <ele>4.5</ele>
        <time>2018-09-21T15:13:26.000Z</time>
      </trkpt>
      <trkpt lat="46.7323" lon="-2.37524">
        <ele>4.5</ele>
        <time>2018-09-21T15:13:27.000Z</time>
      </trkpt>
      <trkpt lat="46.73231" lon="-2.37522">
        <ele>4.5</ele>
        <time>2018-09-21T15:13:28.000Z</time>
      </trkpt>
      <trkpt lat="46.73231" lon="-2.37521">
        <ele>4.6</ele>
        <time>2018-09-21T15:13:29.000Z</time>
      </trkpt>
      <trkpt lat="46.73231" lon="-2.37519">
        <ele>4.6</ele>
        <time>2018-09-21T15:13:30.000Z</time>
      </trkpt>
      <trkpt lat="46.73232" lon="-2.37518">
        <ele>4.6</ele>
        <time>2018-09-21T15:13:31.000Z</time>
      </trkpt>
      <trkpt lat="46.73232" lon="-2.37516">
        <ele>4.7</ele>
        <time>2018-09-21T15:13:32.000Z</time>
      </trkpt>
      <trkpt lat="46.73233" lon="-2.37515">
        <ele>4.7</ele>
        <time>2018-09-21T15:13:33.000Z</time>
      </trkpt>
      <trkpt lat="46.73233" lon="-2.37513">
        <ele>4.7</ele>
        <time>2018-09-21T15:13:34.000Z</time>
      </trkpt>
      <trkpt lat="46.73233" lon="-2.37512">
        <ele>4.7</ele>
        <time>2018-09-21T15:13:35.000Z</time>
      </trkpt>
      <trkpt lat="46.73234" lon="-2.3751">
        <ele>4.8</ele>
        <time>2018-09-21T15:13:36.000Z</time>
      </trkpt>
      <trkpt lat="46.73234" lon="-2.37509">
        <ele>4.8</ele>
        <time>2018-09-21T15:13:37.000Z</time>
      </trkpt>
      <trkpt lat="46.73235" lon="-2.37507">
        <ele>4.8</ele>
        <time>2018-09-21T15:13:38.000Z</time>
      </trkpt>
      <trkpt lat="46.73235" lon="-2.37506">
        <ele>4.9</ele>
        <time>2018-09-21T15:13:39.000Z</time>
      </trkpt>
      <trkpt lat="46.73235" lon="-2.37504">
        <ele>4.9</ele>
        <time>2018-09-21T15:13:40.000Z</time>
      </trkpt>
      <trkpt lat="46.73236" lon="-2.37503">
        <ele>4.9</ele>
        <time>2018-09-21T15:13:41.000Z</time>
      </trkpt>
      <trkpt lat="46.73236" lon="-2.37501">
        <ele>5</ele>
        <time>2018-09-21T15:13:42.000Z</time>
      </trkpt>
      <trkpt lat="46.73237" lon="-2.375">
        <ele>5</ele>
        <time>2018-09-21T15:13:43.000Z</time>
      </trkpt>
      <trkpt lat="46.73237" lon="-2.37498">
        <ele>5</ele>
        <time>2018-09-21T15:13:44.000Z</time>
      </trkpt>
      <trkpt lat="46.73237" lon="-2.37497">
        <ele>5</ele>
        <time>2018-09-21T15:13:45.000Z</time>
      </trkpt>
      <trkpt lat="46.73238" lon="-2.37495">
        <ele>5.1</ele>
        <time>2018-09-21T15:13:46.000Z</time>
      </trkpt>
      <trkpt lat="46.73238" lon="-2.37494">
        <ele>5.1</ele>
        <time>2018-09-21T15:13:47.000Z</time>
      </trkpt>
      <trkpt lat="46.73238" lon="-2.37492">
        <ele>5.1</ele>
        <time>2018-09-21T15:13:48.000Z</time>
      </trkpt>
      <trkpt lat="46.73239" lon="-2.37491">
        <ele>5.1</ele>
        <time>2018-09-21T15:13:49.000Z</time>
      </trkpt>
      <trkpt lat="46.73239" lon="-2.37489">
        <ele>5.1</ele>
        <time>2018-09-21T15:13:50.000Z</time>
      </trkpt>
      <trkpt lat="46.73239" lon="-2.37488">
        <ele>5.2</ele>
        <time>2018-09-21T15:13:51.000Z</time>
      </trkpt>
      <trkpt lat="46.7324" lon="-2.37486">
        <ele>5.2</ele>
        <time>2018-09-21T15:13:52.000Z</time>
      </trkpt>
      <trkpt lat="46.7324" lon="-2.37485">
        <ele>5.2</ele>
        <time>2018-09-21T15:13:53.000Z</time>
      </trkpt>
      <trkpt lat="46.7324" lon="-2.37483">
        <ele>5.2</ele>
        <time>2018-09-21T15:13:54.000Z</time>
      </trkpt>
      <trkpt lat="46.73241" lon="-2.37482">
        <ele>5.2</ele>
        <time>2018-09-21T15:13:55.000Z</time>
      </trkpt>
      <trkpt lat="46.73241" lon="-2.3748">
        <ele>5.3</ele>
        <time>2018-09-21T15:13:56.000Z</time>
      </trkpt>
      <trkpt lat="46.73241" lon="-2.37479">
        <ele>5.3</ele>
        <time>2018-09-21T15:13:57.000Z</time>
      </trkpt>
      <trkpt lat="46.73242" lon="-2.37477">
        <ele>5.3</ele>
        <time>2018-09-21T15:13:58.000Z</time>
      </trkpt>
      <trkpt lat="46.73242" lon="-2.37476">
        <ele>5.3</ele>
        <time>2018-09-21T15:13:59.000Z</time>
      </trkpt>
      <trkpt lat="46.73242" lon="-2.37474">
        <ele>5.3</ele>
        <time>2018-09-21T15:14:00.000Z</time>
      </trkpt>
      <trkpt lat="46.73243" lon="-2.37473">
        <ele>5.4</ele>
        <time>2018-09-21T15:14:01.000Z</time>
      </trkpt>
      <trkpt lat="46.73243" lon="-2.37471">
        <ele>5.4</ele>
        <time>2018-09-21T15:14:02.000Z</time>
      </trkpt>
      <trkpt lat="46.73243" lon="-2.3747">
        <ele>5.4</ele>
        <time>2018-09-21T15:14:03.000Z</time>
      </trkpt>
      <trkpt lat="46.73244" lon="-2.37469">
        <ele>5.4</ele>
        <time>2018-09-21T15:14:04.000Z</time>
      </trkpt>
      <trkpt lat="46.73244" lon="-2.37467">
        <ele>5.4</ele>
        <time>2018-09-21T15:14:05.000Z</time>
      </trkpt>
      <trkpt lat="46.73244" lon="-2.37466">
        <ele>5.4</ele>
        <time>2018-09-21T15:14:06.000Z</time>
      </trkpt>
      <trkpt lat="46.73245" lon="-2.37465">
        <ele>5.4</ele>
        <time>2018-09-21T15:14:07.000Z</time>
      </trkpt>
      <trkpt lat="46.73245" lon="-2.37464">
        <ele>5.5</ele>
        <time>2018-09-21T15:14:08.000Z</time>
      </trkpt>
      <trkpt lat="46.73245" lon="-2.37464">
        <ele>5.5</ele>
        <time>2018-09-21T15:14:09.000Z</time>
      </trkpt>
      <trkpt lat="46.73245" lon="-2.37463">
        <ele>5.5</ele>
        <time>2018-09-21T15:14:10.000Z</time>
      </trkpt>
      <trkpt lat="46.73246" lon="-2.37463">
        <ele>5.5</ele>
        <time>2018-09-21T15:14:11.000Z</time>
      </trkpt>
      <trkpt lat="46.73246" lon="-2.37462">
        <ele>5.5</ele>
        <time>2018-09-21T15:14:12.000Z</time>
      </trkpt>
      <trkpt lat="46.73246" lon="-2.37462">
        <ele>5.5</ele>
        <time>2018-09-21T15:14:13.000Z</time>
      </trkpt>
      <trkpt lat="46.73246" lon="-2.37462">
        <ele>5.5</ele>
        <time>2018-09-21T15:14:14.000Z</time>
      </trkpt>
      <trkpt lat="46.73247" lon="-2.37461">
        <ele>5.5</ele>
        <time>2018-09-21T15:14:15.000Z</time>
      </trkpt>
      <trkpt lat="46.73247" lon="-2.3746">
        <ele>5.5</ele>
        <time>2018-09-21T15:14:16.000Z</time>
      </trkpt>
      <trkpt lat="46.73247" lon="-2.37459">
        <ele>5.5</ele>
        <time>2018-09-21T15:14:17.000Z</time>
      </trkpt>
      <trkpt lat="46.73247" lon="-2.37458">
        <ele>5.5</ele>
        <time>2018-09-21T15:14:18.000Z</time>
      </trkpt>
      <trkpt lat="46.73248" lon="-2.37456">
        <ele>5.5</ele>
        <time>2018-09-21T15:14:19.000Z</time>
      </trkpt>
      <trkpt lat="46.73248" lon="-2.37455">
        <ele>5.6</ele>
        <time>2018-09-21T15:14:20.000Z</time>
      </trkpt>
      <trkpt lat="46.73248" lon="-2.37453">
        <ele>5.6</ele>
        <time>2018-09-21T15:14:21.000Z</time>
      </trkpt>
      <trkpt lat="46.73249" lon="-2.37452">
        <ele>5.6</ele>
        <time>2018-09-21T15:14:22.000Z</time>
      </trkpt>
      <trkpt lat="46.73249" lon="-2.3745">
        <ele>5.6</ele>
        <time>2018-09-21T15:14:23.000Z</time>
      </trkpt>
      <trkpt lat="46.73249" lon="-2.37449">
        <ele>5.6</ele>
        <time>2018-09-21T15:14:24.000Z</time>
      </trkpt>
      <trkpt lat="46.73249" lon="-2.37447">
        <ele>5.6</ele>
        <time>2018-09-21T15:14:25.000Z</time>
      </trkpt>
      <trkpt lat="46.7325" lon="-2.37446">
        <ele>5.7</ele>
        <time>2018-09-21T15:14:26.000Z</time>
      </trkpt>
      <trkpt lat="46.7325" lon="-2.37444">
        <ele>5.7</ele>
        <time>2018-09-21T15:14:27.000Z</time>
      </trkpt>
      <trkpt lat="46.7325" lon="-2.37443">
        <ele>5.7</ele>
        <time>2018-09-21T15:14:28.000Z</time>
      </trkpt>
      <trkpt lat="46.7325" lon="-2.37441">
        <ele>5.7</ele>
        <time>2018-09-21T15:14:29.000Z</time>
      </trkpt>
      <trkpt lat="46.7325" lon="-2.3744">
        <ele>5.7</ele>
        <time>2018-09-21T15:14:30.000Z</time>
      </trkpt>
      <trkpt lat="46.7325" lon="-2.37438">
        <ele>5.7</ele>
        <time>2018-09-21T15:14:31.000Z</time>
      </trkpt>
      <trkpt lat="46.73251" lon="-2.37437">
        <ele>5.7</ele>
        <time>2018-09-21T15:14:32.000Z</time>
      </trkpt>
      <trkpt lat="46.73251" lon="-2.37435">
        <ele>5.7</ele>
        <time>2018-09-21T15:14:33.000Z</time>
      </trkpt>
      <trkpt lat="46.73251" lon="-2.37434">
        <ele>5.8</ele>
        <time>2018-09-21T15:14:34.000Z</time>
      </trkpt>
      <trkpt lat="46.73251" lon="-2.37432">
        <ele>5.8</ele>
        <time>2018-09-21T15:14:35.000Z</time>
      </trkpt>
      <trkpt lat="46.73251" lon="-2.3743">
        <ele>5.8</ele>
        <time>2018-09-21T15:14:36.000Z</time>
      </trkpt>
      <trkpt lat="46.73252" lon="-2.37429">
        <ele>5.8</ele>
        <time>2018-09-21T15:14:37.000Z</time>
      </trkpt>
      <trkpt lat="46.73252" lon="-2.37427">
        <ele>5.8</ele>
        <time>2018-09-21T15:14:38.000Z</time>
      </trkpt>
      <trkpt lat="46.73252" lon="-2.37426">
        <ele>5.8</ele>
        <time>2018-09-21T15:14:39.000Z</time>
      </trkpt>
      <trkpt lat="46.73252" lon="-2.37424">
        <ele>5.8</ele>
        <time>2018-09-21T15:14:40.000Z</time>
      </trkpt>
      <trkpt lat="46.73253" lon="-2.37423">
        <ele>5.8</ele>
        <time>2018-09-21T15:14:41.000Z</time>
      </trkpt>
      <trkpt lat="46.73253" lon="-2.37421">
        <ele>5.8</ele>
        <time>2018-09-21T15:14:42.000Z</time>
      </trkpt>
      <trkpt lat="46.73253" lon="-2.3742">
        <ele>5.8</ele>
        <time>2018-09-21T15:14:43.000Z</time>
      </trkpt>
      <trkpt lat="46.73254" lon="-2.37418">
        <ele>5.8</ele>
        <time>2018-09-21T15:14:44.000Z</time>
      </trkpt>
      <trkpt lat="46.73254" lon="-2.37417">
        <ele>5.8</ele>
        <time>2018-09-21T15:14:45.000Z</time>
      </trkpt>
      <trkpt lat="46.73255" lon="-2.37415">
        <ele>5.8</ele>
        <time>2018-09-21T15:14:46.000Z</time>
      </trkpt>
      <trkpt lat="46.73255" lon="-2.37414">
        <ele>5.8</ele>
        <time>2018-09-21T15:14:47.000Z</time>
      </trkpt>
      <trkpt lat="46.73255" lon="-2.37412">
        <ele>5.7</ele>
        <time>2018-09-21T15:14:48.000Z</time>
      </trkpt>
      <trkpt lat="46.73256" lon="-2.37411">
        <ele>5.7</ele>
        <time>2018-09-21T15:14:49.000Z</time>
      </trkpt>
      <trkpt lat="46.73256" lon="-2.37409">
        <ele>5.7</ele>
        <time>2018-09-21T15:14:50.000Z</time>
      </trkpt>
      <trkpt lat="46.73257" lon="-2.37408">
        <ele>5.7</ele>
        <time>2018-09-21T15:14:51.000Z</time>
      </trkpt>
      <trkpt lat="46.73257" lon="-2.37406">
        <ele>5.7</ele>
        <time>2018-09-21T15:14:52.000Z</time>
      </trkpt>
      <trkpt lat="46.73258" lon="-2.37405">
        <ele>5.6</ele>
        <time>2018-09-21T15:14:53.000Z</time>
      </trkpt>
      <trkpt lat="46.73258" lon="-2.37403">
        <ele>5.6</ele>
        <time>2018-09-21T15:14:54.000Z</time>
      </trkpt>
      <trkpt lat="46.73259" lon="-2.37402">
        <ele>5.6</ele>
        <time>2018-09-21T15:14:55.000Z</time>
      </trkpt>
      <trkpt lat="46.73259" lon="-2.374">
        <ele>5.6</ele>
        <time>2018-09-21T15:14:56.000Z</time>
      </trkpt>
      <trkpt lat="46.73259" lon="-2.37399">
        <ele>5.5</ele>
        <time>2018-09-21T15:14:57.000Z</time>
      </trkpt>
      <trkpt lat="46.7326" lon="-2.37397">
        <ele>5.5</ele>
        <time>2018-09-21T15:14:58.000Z</time>
      </trkpt>
      <trkpt lat="46.7326" lon="-2.37395">
        <ele>5.5</ele>
        <time>2018-09-21T15:14:59.000Z</time>
      </trkpt>
      <trkpt lat="46.73261" lon="-2.37394">
        <ele>5.5</ele>
        <time>2018-09-21T15:15:00.000Z</time>
      </trkpt>
      <trkpt lat="46.73261" lon="-2.37392">
        <ele>5.5</ele>
        <time>2018-09-21T15:15:01.000Z</time>
      </trkpt>
      <trkpt lat="46.73261" lon="-2.37391">
        <ele>5.5</ele>
        <time>2018-09-21T15:15:02.000Z</time>
      </trkpt>
      <trkpt lat="46.73262" lon="-2.37389">
        <ele>5.4</ele>
        <time>2018-09-21T15:15:03.000Z</time>
      </trkpt>
      <trkpt lat="46.73262" lon="-2.37388">
        <ele>5.4</ele>
        <time>2018-09-21T15:15:04.000Z</time>
      </trkpt>
      <trkpt lat="46.73263" lon="-2.37386">
        <ele>5.4</ele>
        <time>2018-09-21T15:15:05.000Z</time>
      </trkpt>
      <trkpt lat="46.73263" lon="-2.37385">
        <ele>5.4</ele>
        <time>2018-09-21T15:15:06.000Z</time>
      </trkpt>
      <trkpt lat="46.73263" lon="-2.37383">
        <ele>5.4</ele>
        <time>2018-09-21T15:15:07.000Z</time>
      </trkpt>
      <trkpt lat="46.73264" lon="-2.37381">
        <ele>5.3</ele>
        <time>2018-09-21T15:15:08.000Z</time>
      </trkpt>
      <trkpt lat="46.73264" lon="-2.3738">
        <ele>5.3</ele>
        <time>2018-09-21T15:15:09.000Z</time>
      </trkpt>
      <trkpt lat="46.73264" lon="-2.37378">
        <ele>5.3</ele>
        <time>2018-09-21T15:15:10.000Z</time>
      </trkpt>
      <trkpt lat="46.73265" lon="-2.37377">
        <ele>5.3</ele>
        <time>2018-09-21T15:15:11.000Z</time>
      </trkpt>
      <trkpt lat="46.73265" lon="-2.37375">
        <ele>5.3</ele>
        <time>2018-09-21T15:15:12.000Z</time>
      </trkpt>
      <trkpt lat="46.73265" lon="-2.37374">
        <ele>5.3</ele>
        <time>2018-09-21T15:15:13.000Z</time>
      </trkpt>
      <trkpt lat="46.73266" lon="-2.37372">
        <ele>5.2</ele>
        <time>2018-09-21T15:15:14.000Z</time>
      </trkpt>
      <trkpt lat="46.73266" lon="-2.37371">
        <ele>5.2</ele>
        <time>2018-09-21T15:15:15.000Z</time>
      </trkpt>
      <trkpt lat="46.73266" lon="-2.37369">
        <ele>5.2</ele>
        <time>2018-09-21T15:15:16.000Z</time>
      </trkpt>
      <trkpt lat="46.73267" lon="-2.37368">
        <ele>5.2</ele>
        <time>2018-09-21T15:15:17.000Z</time>
      </trkpt>
      <trkpt lat="46.73267" lon="-2.37366">
        <ele>5.2</ele>
        <time>2018-09-21T15:15:18.000Z</time>
      </trkpt>
      <trkpt lat="46.73268" lon="-2.37365">
        <ele>5.2</ele>
        <time>2018-09-21T15:15:19.000Z</time>
      </trkpt>
      <trkpt lat="46.73268" lon="-2.37363">
        <ele>5.1</ele>
        <time>2018-09-21T15:15:20.000Z</time>
      </trkpt>
      <trkpt lat="46.73268" lon="-2.37362">
        <ele>5.1</ele>
        <time>2018-09-21T15:15:21.000Z</time>
      </trkpt>
      <trkpt lat="46.73269" lon="-2.3736">
        <ele>5.1</ele>
        <time>2018-09-21T15:15:22.000Z</time>
      </trkpt>
      <trkpt lat="46.73269" lon="-2.37359">
        <ele>5.1</ele>
        <time>2018-09-21T15:15:23.000Z</time>
      </trkpt>
      <trkpt lat="46.73269" lon="-2.37357">
        <ele>5.1</ele>
        <time>2018-09-21T15:15:24.000Z</time>
      </trkpt>
      <trkpt lat="46.7327" lon="-2.37356">
        <ele>5</ele>
        <time>2018-09-21T15:15:25.000Z</time>
      </trkpt>
      <trkpt lat="46.7327" lon="-2.37354">
        <ele>5</ele>
        <time>2018-09-21T15:15:26.000Z</time>
      </trkpt>
      <trkpt lat="46.73271" lon="-2.37353">
        <ele>5</ele>
        <time>2018-09-21T15:15:27.000Z</time>
      </trkpt>
      <trkpt lat="46.73271" lon="-2.37352">
        <ele>5</ele>
        <time>2018-09-21T15:15:28.000Z</time>
      </trkpt>
      <trkpt lat="46.73272" lon="-2.3735">
        <ele>5</ele>
        <time>2018-09-21T15:15:29.000Z</time>
      </trkpt>
      <trkpt lat="46.73272" lon="-2.37349">
        <ele>4.9</ele>
        <time>2018-09-21T15:15:30.000Z</time>
      </trkpt>
      <trkpt lat="46.73273" lon="-2.37347">
        <ele>4.9</ele>
        <time>2018-09-21T15:15:31.000Z</time>
      </trkpt>
      <trkpt lat="46.73273" lon="-2.37346">
        <ele>4.9</ele>
        <time>2018-09-21T15:15:32.000Z</time>
      </trkpt>
      <trkpt lat="46.73274" lon="-2.37345">
        <ele>4.9</ele>
        <time>2018-09-21T15:15:33.000Z</time>
      </trkpt>
      <trkpt lat="46.73274" lon="-2.37343">
        <ele>4.8</ele>
        <time>2018-09-21T15:15:34.000Z</time>
      </trkpt>
      <trkpt lat="46.73275" lon="-2.37342">
        <ele>4.8</ele>
        <time>2018-09-21T15:15:35.000Z</time>
      </trkpt>
      <trkpt lat="46.73275" lon="-2.3734">
        <ele>4.8</ele>
        <time>2018-09-21T15:15:36.000Z</time>
      </trkpt>
      <trkpt lat="46.73276" lon="-2.37339">
        <ele>4.8</ele>
        <time>2018-09-21T15:15:37.000Z</time>
      </trkpt>
      <trkpt lat="46.73276" lon="-2.37338">
        <ele>4.7</ele>
        <time>2018-09-21T15:15:38.000Z</time>
      </trkpt>
      <trkpt lat="46.73277" lon="-2.37337">
        <ele>4.7</ele>
        <time>2018-09-21T15:15:39.000Z</time>
      </trkpt>
      <trkpt lat="46.73277" lon="-2.37336">
        <ele>4.7</ele>
        <time>2018-09-21T15:15:40.000Z</time>
      </trkpt>
      <trkpt lat="46.73277" lon="-2.37335">
        <ele>4.7</ele>
        <time>2018-09-21T15:15:41.000Z</time>
      </trkpt>
      <trkpt lat="46.73277" lon="-2.37334">
        <ele>4.7</ele>
        <time>2018-09-21T15:15:42.000Z</time>
      </trkpt>
      <trkpt lat="46.73277" lon="-2.37333">
        <ele>4.7</ele>
        <time>2018-09-21T15:15:43.000Z</time>
      </trkpt>
      <trkpt lat="46.73277" lon="-2.37332">
        <ele>4.7</ele>
        <time>2018-09-21T15:15:44.000Z</time>
      </trkpt>
      <trkpt lat="46.73278" lon="-2.37331">
        <ele>4.6</ele>
        <time>2018-09-21T15:15:45.000Z</time>
      </trkpt>
      <trkpt lat="46.73278" lon="-2.3733">
        <ele>4.6</ele>
        <time>2018-09-21T15:15:46.000Z</time>
      </trkpt>
      <trkpt lat="46.73278" lon="-2.37329">
        <ele>4.6</ele>
        <time>2018-09-21T15:15:47.000Z</time>
      </trkpt>
      <trkpt lat="46.73279" lon="-2.37327">
        <ele>4.5</ele>
        <time>2018-09-21T15:15:48.000Z</time>
      </trkpt>
      <trkpt lat="46.73279" lon="-2.37326">
        <ele>4.4</ele>
        <time>2018-09-21T15:15:49.000Z</time>
      </trkpt>
      <trkpt lat="46.7328" lon="-2.37324">
        <ele>4.4</ele>
        <time>2018-09-21T15:15:50.000Z</time>
      </trkpt>
      <trkpt lat="46.7328" lon="-2.37323">
        <ele>4.3</ele>
        <time>2018-09-21T15:15:51.000Z</time>
      </trkpt>
      <trkpt lat="46.73281" lon="-2.37321">
        <ele>4.3</ele>
        <time>2018-09-21T15:15:52.000Z</time>
      </trkpt>
      <trkpt lat="46.73282" lon="-2.3732">
        <ele>4.2</ele>
        <time>2018-09-21T15:15:53.000Z</time>
      </trkpt>
      <trkpt lat="46.73282" lon="-2.37318">
        <ele>4.2</ele>
        <time>2018-09-21T15:15:54.000Z</time>
      </trkpt>
      <trkpt lat="46.73283" lon="-2.37317">
        <ele>4.1</ele>
        <time>2018-09-21T15:15:55.000Z</time>
      </trkpt>
      <trkpt lat="46.73283" lon="-2.37315">
        <ele>4.1</ele>
        <time>2018-09-21T15:15:56.000Z</time>
      </trkpt>
      <trkpt lat="46.73284" lon="-2.37313">
        <ele>4</ele>
        <time>2018-09-21T15:15:57.000Z</time>
      </trkpt>
      <trkpt lat="46.73284" lon="-2.37312">
        <ele>3.9</ele>
        <time>2018-09-21T15:15:58.000Z</time>
      </trkpt>
      <trkpt lat="46.73285" lon="-2.3731">
        <ele>3.9</ele>
        <time>2018-09-21T15:15:59.000Z</time>
      </trkpt>
      <trkpt lat="46.73285" lon="-2.37309">
        <ele>3.8</ele>
        <time>2018-09-21T15:16:00.000Z</time>
      </trkpt>
      <trkpt lat="46.73286" lon="-2.37307">
        <ele>3.8</ele>
        <time>2018-09-21T15:16:01.000Z</time>
      </trkpt>
      <trkpt lat="46.73286" lon="-2.37306">
        <ele>3.8</ele>
        <time>2018-09-21T15:16:02.000Z</time>
      </trkpt>
      <trkpt lat="46.73287" lon="-2.37304">
        <ele>3.7</ele>
        <time>2018-09-21T15:16:03.000Z</time>
      </trkpt>
      <trkpt lat="46.73287" lon="-2.37303">
        <ele>3.7</ele>
        <time>2018-09-21T15:16:04.000Z</time>
      </trkpt>
      <trkpt lat="46.73288" lon="-2.37302">
        <ele>3.6</ele>
        <time>2018-09-21T15:16:05.000Z</time>
      </trkpt>
      <trkpt lat="46.73288" lon="-2.373">
        <ele>3.6</ele>
        <time>2018-09-21T15:16:06.000Z</time>
      </trkpt>
      <trkpt lat="46.73288" lon="-2.37299">
        <ele>3.5</ele>
        <time>2018-09-21T15:16:07.000Z</time>
      </trkpt>
      <trkpt lat="46.73289" lon="-2.37297">
        <ele>3.5</ele>
        <time>2018-09-21T15:16:08.000Z</time>
      </trkpt>
      <trkpt lat="46.73289" lon="-2.37296">
        <ele>3.4</ele>
        <time>2018-09-21T15:16:09.000Z</time>
      </trkpt>
      <trkpt lat="46.7329" lon="-2.37294">
        <ele>3.4</ele>
        <time>2018-09-21T15:16:10.000Z</time>
      </trkpt>
      <trkpt lat="46.7329" lon="-2.37293">
        <ele>3.3</ele>
        <time>2018-09-21T15:16:11.000Z</time>
      </trkpt>
      <trkpt lat="46.73291" lon="-2.37292">
        <ele>3.3</ele>
        <time>2018-09-21T15:16:12.000Z</time>
      </trkpt>
      <trkpt lat="46.73291" lon="-2.3729">
        <ele>3.3</ele>
        <time>2018-09-21T15:16:13.000Z</time>
      </trkpt>
      <trkpt lat="46.73291" lon="-2.37289">
        <ele>3.2</ele>
        <time>2018-09-21T15:16:14.000Z</time>
      </trkpt>
      <trkpt lat="46.73292" lon="-2.37287">
        <ele>3.2</ele>
        <time>2018-09-21T15:16:15.000Z</time>
      </trkpt>
      <trkpt lat="46.73292" lon="-2.37286">
        <ele>3.1</ele>
        <time>2018-09-21T15:16:16.000Z</time>
      </trkpt>
      <trkpt lat="46.73293" lon="-2.37285">
        <ele>3.1</ele>
        <time>2018-09-21T15:16:17.000Z</time>
      </trkpt>
      <trkpt lat="46.73293" lon="-2.37283">
        <ele>3</ele>
        <time>2018-09-21T15:16:18.000Z</time>
      </trkpt>
      <trkpt lat="46.73293" lon="-2.37282">
        <ele>3</ele>
        <time>2018-09-21T15:16:19.000Z</time>
      </trkpt>
      <trkpt lat="46.73294" lon="-2.37281">
        <ele>3</ele>
        <time>2018-09-21T15:16:20.000Z</time>
      </trkpt>
      <trkpt lat="46.73294" lon="-2.37279">
        <ele>2.9</ele>
        <time>2018-09-21T15:16:21.000Z</time>
      </trkpt>
      <trkpt lat="46.73295" lon="-2.37278">
        <ele>2.9</ele>
        <time>2018-09-21T15:16:22.000Z</time>
      </trkpt>
      <trkpt lat="46.73295" lon="-2.37276">
        <ele>2.8</ele>
        <time>2018-09-21T15:16:23.000Z</time>
      </trkpt>
      <trkpt lat="46.73296" lon="-2.37275">
        <ele>2.8</ele>
        <time>2018-09-21T15:16:24.000Z</time>
      </trkpt>
      <trkpt lat="46.73296" lon="-2.37274">
        <ele>2.8</ele>
        <time>2018-09-21T15:16:25.000Z</time>
      </trkpt>
      <trkpt lat="46.73296" lon="-2.37272">
        <ele>2.7</ele>
        <time>2018-09-21T15:16:26.000Z</time>
      </trkpt>
      <trkpt lat="46.73297" lon="-2.37271">
        <ele>2.7</ele>
        <time>2018-09-21T15:16:27.000Z</time>
      </trkpt>
      <trkpt lat="46.73297" lon="-2.3727">
        <ele>2.6</ele>
        <time>2018-09-21T15:16:28.000Z</time>
      </trkpt>
      <trkpt lat="46.73298" lon="-2.37268">
        <ele>2.6</ele>
        <time>2018-09-21T15:16:29.000Z</time>
      </trkpt>
      <trkpt lat="46.73298" lon="-2.37267">
        <ele>2.6</ele>
        <time>2018-09-21T15:16:30.000Z</time>
      </trkpt>
      <trkpt lat="46.73299" lon="-2.37266">
        <ele>2.5</ele>
        <time>2018-09-21T15:16:31.000Z</time>
      </trkpt>
      <trkpt lat="46.73299" lon="-2.37265">
        <ele>2.5</ele>
        <time>2018-09-21T15:16:32.000Z</time>
      </trkpt>
      <trkpt lat="46.733" lon="-2.37263">
        <ele>2.4</ele>
        <time>2018-09-21T15:16:33.000Z</time>
      </trkpt>
      <trkpt lat="46.733" lon="-2.37262">
        <ele>2.4</ele>
        <time>2018-09-21T15:16:34.000Z</time>
      </trkpt>
      <trkpt lat="46.73301" lon="-2.37261">
        <ele>2.4</ele>
        <time>2018-09-21T15:16:35.000Z</time>
      </trkpt>
      <trkpt lat="46.73301" lon="-2.37259">
        <ele>2.3</ele>
        <time>2018-09-21T15:16:36.000Z</time>
      </trkpt>
      <trkpt lat="46.73302" lon="-2.37258">
        <ele>2.3</ele>
        <time>2018-09-21T15:16:37.000Z</time>
      </trkpt>
      <trkpt lat="46.73302" lon="-2.37257">
        <ele>2.2</ele>
        <time>2018-09-21T15:16:38.000Z</time>
      </trkpt>
      <trkpt lat="46.73303" lon="-2.37255">
        <ele>2.2</ele>
        <time>2018-09-21T15:16:39.000Z</time>
      </trkpt>
      <trkpt lat="46.73303" lon="-2.37254">
        <ele>2.1</ele>
        <time>2018-09-21T15:16:40.000Z</time>
      </trkpt>
      <trkpt lat="46.73304" lon="-2.37253">
        <ele>2.1</ele>
        <time>2018-09-21T15:16:41.000Z</time>
      </trkpt>
      <trkpt lat="46.73304" lon="-2.37251">
        <ele>2.1</ele>
        <time>2018-09-21T15:16:42.000Z</time>
      </trkpt>
      <trkpt lat="46.73305" lon="-2.3725">
        <ele>2</ele>
        <time>2018-09-21T15:16:43.000Z</time>
      </trkpt>
      <trkpt lat="46.73305" lon="-2.37248">
        <ele>2</ele>
        <time>2018-09-21T15:16:44.000Z</time>
      </trkpt>
      <trkpt lat="46.73306" lon="-2.37247">
        <ele>1.9</ele>
        <time>2018-09-21T15:16:45.000Z</time>
      </trkpt>
      <trkpt lat="46.73306" lon="-2.37245">
        <ele>1.8</ele>
        <time>2018-09-21T15:16:46.000Z</time>
      </trkpt>
      <trkpt lat="46.73307" lon="-2.37244">
        <ele>1.8</ele>
        <time>2018-09-21T15:16:47.000Z</time>
      </trkpt>
      <trkpt lat="46.73307" lon="-2.37242">
        <ele>1.7</ele>
        <time>2018-09-21T15:16:48.000Z</time>
      </trkpt>
      <trkpt lat="46.73308" lon="-2.37241">
        <ele>1.7</ele>
        <time>2018-09-21T15:16:49.000Z</time>
      </trkpt>
      <trkpt lat="46.73308" lon="-2.37239">
        <ele>1.6</ele>
        <time>2018-09-21T15:16:50.000Z</time>
      </trkpt>
      <trkpt lat="46.73309" lon="-2.37238">
        <ele>1.5</ele>
        <time>2018-09-21T15:16:51.000Z</time>
      </trkpt>
      <trkpt lat="46.73309" lon="-2.37236">
        <ele>1.5</ele>
        <time>2018-09-21T15:16:52.000Z</time>
      </trkpt>
      <trkpt lat="46.7331" lon="-2.37235">
        <ele>1.4</ele>
        <time>2018-09-21T15:16:53.000Z</time>
      </trkpt>
      <trkpt lat="46.7331" lon="-2.37233">
        <ele>1.3</ele>
        <time>2018-09-21T15:16:54.000Z</time>
      </trkpt>
      <trkpt lat="46.73311" lon="-2.37232">
        <ele>1.3</ele>
        <time>2018-09-21T15:16:55.000Z</time>
      </trkpt>
      <trkpt lat="46.73311" lon="-2.3723">
        <ele>1.2</ele>
        <time>2018-09-21T15:16:56.000Z</time>
      </trkpt>
      <trkpt lat="46.73311" lon="-2.37229">
        <ele>1.2</ele>
        <time>2018-09-21T15:16:57.000Z</time>
      </trkpt>
      <trkpt lat="46.73312" lon="-2.37228">
        <ele>1.1</ele>
        <time>2018-09-21T15:16:58.000Z</time>
      </trkpt>
      <trkpt lat="46.73312" lon="-2.37227">
        <ele>1.1</ele>
        <time>2018-09-21T15:16:59.000Z</time>
      </trkpt>
      <trkpt lat="46.73312" lon="-2.37226">
        <ele>1.1</ele>
        <time>2018-09-21T15:17:00.000Z</time>
      </trkpt>
      <trkpt lat="46.73312" lon="-2.37226">
        <ele>1</ele>
        <time>2018-09-21T15:17:01.000Z</time>
      </trkpt>
      <trkpt lat="46.73312" lon="-2.37225">
        <ele>1</ele>
        <time>2018-09-21T15:17:02.000Z</time>
      </trkpt>
      <trkpt lat="46.73312" lon="-2.37225">
        <ele>1</ele>
        <time>2018-09-21T15:17:03.000Z</time>
      </trkpt>
      <trkpt lat="46.73312" lon="-2.37224">
        <ele>1</ele>
        <time>2018-09-21T15:17:04.000Z</time>
      </trkpt>
      <trkpt lat="46.73312" lon="-2.37223">
        <ele>1</ele>
        <time>2018-09-21T15:17:05.000Z</time>
      </trkpt>
      <trkpt lat="46.73311" lon="-2.37222">
        <ele>1</ele>
        <time>2018-09-21T15:17:06.000Z</time>
      </trkpt>
      <trkpt lat="46.73311" lon="-2.37221">
        <ele>0.9</ele>
        <time>2018-09-21T15:17:07.000Z</time>
      </trkpt>
      <trkpt lat="46.73311" lon="-2.3722">
        <ele>0.9</ele>
        <time>2018-09-21T15:17:08.000Z</time>
      </trkpt>
      <trkpt lat="46.73311" lon="-2.37218">
        <ele>0.9</ele>
        <time>2018-09-21T15:17:09.000Z</time>
      </trkpt>
      <trkpt lat="46.73311" lon="-2.37217">
        <ele>0.8</ele>
        <time>2018-09-21T15:17:10.000Z</time>
      </trkpt>
      <trkpt lat="46.73312" lon="-2.37215">
        <ele>0.7</ele>
        <time>2018-09-21T15:17:11.000Z</time>
      </trkpt>
      <trkpt lat="46.73312" lon="-2.37214">
        <ele>0.7</ele>
        <time>2018-09-21T15:17:12.000Z</time>
      </trkpt>
      <trkpt lat="46.73312" lon="-2.37212">
        <ele>0.6</ele>
        <time>2018-09-21T15:17:13.000Z</time>
      </trkpt>
      <trkpt lat="46.73313" lon="-2.37211">
        <ele>0.6</ele>
        <time>2018-09-21T15:17:14.000Z</time>
      </trkpt>
      <trkpt lat="46.73313" lon="-2.37209">
        <ele>0.5</ele>
        <time>2018-09-21T15:17:15.000Z</time>
      </trkpt>
      <trkpt lat="46.73313" lon="-2.37207">
        <ele>0.5</ele>
        <time>2018-09-21T15:17:16.000Z</time>
      </trkpt>
      <trkpt lat="46.73312" lon="-2.37206">
        <ele>0.4</ele>
        <time>2018-09-21T15:17:17.000Z</time>
      </trkpt>
      <trkpt lat="46.73312" lon="-2.37204">
        <ele>0.4</ele>
        <time>2018-09-21T15:17:18.000Z</time>
      </trkpt>
      <trkpt lat="46.73312" lon="-2.37202">
        <ele>0.4</ele>
        <time>2018-09-21T15:17:19.000Z</time>
      </trkpt>
      <trkpt lat="46.73311" lon="-2.37201">
        <ele>0.3</ele>
        <time>2018-09-21T15:17:20.000Z</time>
      </trkpt>
      <trkpt lat="46.73311" lon="-2.372">
        <ele>0.3</ele>
        <time>2018-09-21T15:17:21.000Z</time>
      </trkpt>
      <trkpt lat="46.7331" lon="-2.37198">
        <ele>0.3</ele>
        <time>2018-09-21T15:17:22.000Z</time>
      </trkpt>
      <trkpt lat="46.7331" lon="-2.37197">
        <ele>0.3</ele>
        <time>2018-09-21T15:17:23.000Z</time>
      </trkpt>
      <trkpt lat="46.73309" lon="-2.37195">
        <ele>0.3</ele>
        <time>2018-09-21T15:17:24.000Z</time>
      </trkpt>
      <trkpt lat="46.73309" lon="-2.37194">
        <ele>0.3</ele>
        <time>2018-09-21T15:17:25.000Z</time>
      </trkpt>
      <trkpt lat="46.73308" lon="-2.37193">
        <ele>0.3</ele>
        <time>2018-09-21T15:17:26.000Z</time>
      </trkpt>
      <trkpt lat="46.73308" lon="-2.37192">
        <ele>0.3</ele>
        <time>2018-09-21T15:17:27.000Z</time>
      </trkpt>
      <trkpt lat="46.73307" lon="-2.3719">
        <ele>0.3</ele>
        <time>2018-09-21T15:17:28.000Z</time>
      </trkpt>
      <trkpt lat="46.73306" lon="-2.37189">
        <ele>0.2</ele>
        <time>2018-09-21T15:17:29.000Z</time>
      </trkpt>
      <trkpt lat="46.73306" lon="-2.37188">
        <ele>0.2</ele>
        <time>2018-09-21T15:17:30.000Z</time>
      </trkpt>
      <trkpt lat="46.73305" lon="-2.37186">
        <ele>0.2</ele>
        <time>2018-09-21T15:17:31.000Z</time>
      </trkpt>
      <trkpt lat="46.73305" lon="-2.37185">
        <ele>0.2</ele>
        <time>2018-09-21T15:17:32.000Z</time>
      </trkpt>
      <trkpt lat="46.73304" lon="-2.37184">
        <ele>0.2</ele>
        <time>2018-09-21T15:17:33.000Z</time>
      </trkpt>
      <trkpt lat="46.73304" lon="-2.37182">
        <ele>0.2</ele>
        <time>2018-09-21T15:17:34.000Z</time>
      </trkpt>
      <trkpt lat="46.73303" lon="-2.37181">
        <ele>0.2</ele>
        <time>2018-09-21T15:17:35.000Z</time>
      </trkpt>
      <trkpt lat="46.73303" lon="-2.3718">
        <ele>0.2</ele>
        <time>2018-09-21T15:17:36.000Z</time>
      </trkpt>
      <trkpt lat="46.73302" lon="-2.37178">
        <ele>0.2</ele>
        <time>2018-09-21T15:17:37.000Z</time>
      </trkpt>
      <trkpt lat="46.73301" lon="-2.37177">
        <ele>0.2</ele>
        <time>2018-09-21T15:17:38.000Z</time>
      </trkpt>
      <trkpt lat="46.733" lon="-2.37176">
        <ele>0.2</ele>
        <time>2018-09-21T15:17:39.000Z</time>
      </trkpt>
      <trkpt lat="46.733" lon="-2.37175">
        <ele>0.2</ele>
        <time>2018-09-21T15:17:40.000Z</time>
      </trkpt>
      <trkpt lat="46.73299" lon="-2.37174">
        <ele>0.3</ele>
        <time>2018-09-21T15:17:41.000Z</time>
      </trkpt>
      <trkpt lat="46.73298" lon="-2.37173">
        <ele>0.3</ele>
        <time>2018-09-21T15:17:42.000Z</time>
      </trkpt>
      <trkpt lat="46.73297" lon="-2.37172">
        <ele>0.3</ele>
        <time>2018-09-21T15:17:43.000Z</time>
      </trkpt>
      <trkpt lat="46.73296" lon="-2.37171">
        <ele>0.3</ele>
        <time>2018-09-21T15:17:44.000Z</time>
      </trkpt>
      <trkpt lat="46.73295" lon="-2.3717">
        <ele>0.4</ele>
        <time>2018-09-21T15:17:45.000Z</time>
      </trkpt>
      <trkpt lat="46.73294" lon="-2.37169">
        <ele>0.4</ele>
        <time>2018-09-21T15:17:46.000Z</time>
      </trkpt>
      <trkpt lat="46.73293" lon="-2.37168">
        <ele>0.4</ele>
        <time>2018-09-21T15:17:47.000Z</time>
      </trkpt>
      <trkpt lat="46.73292" lon="-2.37167">
        <ele>0.5</ele>
        <time>2018-09-21T15:17:48.000Z</time>
      </trkpt>
      <trkpt lat="46.73291" lon="-2.37166">
        <ele>0.5</ele>
        <time>2018-09-21T15:17:49.000Z</time>
      </trkpt>
      <trkpt lat="46.7329" lon="-2.37165">
        <ele>0.6</ele>
        <time>2018-09-21T15:17:50.000Z</time>
      </trkpt>
      <trkpt lat="46.73289" lon="-2.37165">
        <ele>0.6</ele>
        <time>2018-09-21T15:17:51.000Z</time>
      </trkpt>
      <trkpt lat="46.73288" lon="-2.37164">
        <ele>0.6</ele>
        <time>2018-09-21T15:17:52.000Z</time>
      </trkpt>
      <trkpt lat="46.73287" lon="-2.37163">
        <ele>0.7</ele>
        <time>2018-09-21T15:17:53.000Z</time>
      </trkpt>
      <trkpt lat="46.73286" lon="-2.37163">
        <ele>0.7</ele>
        <time>2018-09-21T15:17:54.000Z</time>
      </trkpt>
      <trkpt lat="46.73286" lon="-2.37162">
        <ele>0.8</ele>
        <time>2018-09-21T15:17:55.000Z</time>
      </trkpt>
      <trkpt lat="46.73285" lon="-2.37162">
        <ele>0.8</ele>
        <time>2018-09-21T15:17:56.000Z</time>
      </trkpt>
      <trkpt lat="46.73284" lon="-2.37161">
        <ele>0.8</ele>
        <time>2018-09-21T15:17:57.000Z</time>
      </trkpt>
      <trkpt lat="46.73283" lon="-2.37161">
        <ele>0.9</ele>
        <time>2018-09-21T15:17:58.000Z</time>
      </trkpt>
      <trkpt lat="46.73282" lon="-2.3716">
        <ele>0.9</ele>
        <time>2018-09-21T15:17:59.000Z</time>
      </trkpt>
      <trkpt lat="46.73281" lon="-2.3716">
        <ele>1</ele>
        <time>2018-09-21T15:18:00.000Z</time>
      </trkpt>
      <trkpt lat="46.7328" lon="-2.37159">
        <ele>1</ele>
        <time>2018-09-21T15:18:01.000Z</time>
      </trkpt>
      <trkpt lat="46.73279" lon="-2.37159">
        <ele>1</ele>
        <time>2018-09-21T15:18:02.000Z</time>
      </trkpt>
      <trkpt lat="46.73278" lon="-2.37158">
        <ele>1.1</ele>
        <time>2018-09-21T15:18:03.000Z</time>
      </trkpt>
      <trkpt lat="46.73277" lon="-2.37158">
        <ele>1.1</ele>
        <time>2018-09-21T15:18:04.000Z</time>
      </trkpt>
      <trkpt lat="46.73276" lon="-2.37157">
        <ele>1.2</ele>
        <time>2018-09-21T15:18:05.000Z</time>
      </trkpt>
      <trkpt lat="46.73275" lon="-2.37157">
        <ele>1.2</ele>
        <time>2018-09-21T15:18:06.000Z</time>
      </trkpt>
      <trkpt lat="46.73274" lon="-2.37156">
        <ele>1.3</ele>
        <time>2018-09-21T15:18:07.000Z</time>
      </trkpt>
      <trkpt lat="46.73273" lon="-2.37156">
        <ele>1.3</ele>
        <time>2018-09-21T15:18:08.000Z</time>
      </trkpt>
      <trkpt lat="46.73272" lon="-2.37155">
        <ele>1.3</ele>
        <time>2018-09-21T15:18:09.000Z</time>
      </trkpt>
      <trkpt lat="46.73271" lon="-2.37155">
        <ele>1.4</ele>
        <time>2018-09-21T15:18:10.000Z</time>
      </trkpt>
      <trkpt lat="46.7327" lon="-2.37154">
        <ele>1.4</ele>
        <time>2018-09-21T15:18:11.000Z</time>
      </trkpt>
      <trkpt lat="46.73269" lon="-2.37154">
        <ele>1.5</ele>
        <time>2018-09-21T15:18:12.000Z</time>
      </trkpt>
      <trkpt lat="46.73268" lon="-2.37153">
        <ele>1.5</ele>
        <time>2018-09-21T15:18:13.000Z</time>
      </trkpt>
      <trkpt lat="46.73267" lon="-2.37153">
        <ele>1.5</ele>
        <time>2018-09-21T15:18:14.000Z</time>
      </trkpt>
      <trkpt lat="46.73266" lon="-2.37153">
        <ele>1.6</ele>
        <time>2018-09-21T15:18:15.000Z</time>
      </trkpt>
      <trkpt lat="46.73265" lon="-2.37152">
        <ele>1.6</ele>
        <time>2018-09-21T15:18:16.000Z</time>
      </trkpt>
      <trkpt lat="46.73264" lon="-2.37152">
        <ele>1.7</ele>
        <time>2018-09-21T15:18:17.000Z</time>
      </trkpt>
      <trkpt lat="46.73263" lon="-2.37152">
        <ele>1.7</ele>
        <time>2018-09-21T15:18:18.000Z</time>
      </trkpt>
      <trkpt lat="46.73262" lon="-2.37152">
        <ele>1.8</ele>
        <time>2018-09-21T15:18:19.000Z</time>
      </trkpt>
      <trkpt lat="46.73261" lon="-2.37151">
        <ele>1.8</ele>
        <time>2018-09-21T15:18:20.000Z</time>
      </trkpt>
      <trkpt lat="46.7326" lon="-2.37151">
        <ele>1.9</ele>
        <time>2018-09-21T15:18:21.000Z</time>
      </trkpt>
      <trkpt lat="46.73259" lon="-2.37151">
        <ele>1.9</ele>
        <time>2018-09-21T15:18:22.000Z</time>
      </trkpt>
      <trkpt lat="46.73258" lon="-2.37151">
        <ele>2</ele>
        <time>2018-09-21T15:18:23.000Z</time>
      </trkpt>
      <trkpt lat="46.73257" lon="-2.3715">
        <ele>2</ele>
        <time>2018-09-21T15:18:24.000Z</time>
      </trkpt>
      <trkpt lat="46.73256" lon="-2.3715">
        <ele>2.1</ele>
        <time>2018-09-21T15:18:25.000Z</time>
      </trkpt>
      <trkpt lat="46.73255" lon="-2.3715">
        <ele>2.1</ele>
        <time>2018-09-21T15:18:26.000Z</time>
      </trkpt>
      <trkpt lat="46.73254" lon="-2.37149">
        <ele>2.2</ele>
        <time>2018-09-21T15:18:27.000Z</time>
      </trkpt>
      <trkpt lat="46.73253" lon="-2.37149">
        <ele>2.2</ele>
        <time>2018-09-21T15:18:28.000Z</time>
      </trkpt>
      <trkpt lat="46.73252" lon="-2.37149">
        <ele>2.3</ele>
        <time>2018-09-21T15:18:29.000Z</time>
      </trkpt>
      <trkpt lat="46.73251" lon="-2.37148">
        <ele>2.3</ele>
        <time>2018-09-21T15:18:30.000Z</time>
      </trkpt>
      <trkpt lat="46.7325" lon="-2.37148">
        <ele>2.3</ele>
        <time>2018-09-21T15:18:31.000Z</time>
      </trkpt>
      <trkpt lat="46.73249" lon="-2.37147">
        <ele>2.3</ele>
        <time>2018-09-21T15:18:32.000Z</time>
      </trkpt>
      <trkpt lat="46.73248" lon="-2.37146">
        <ele>2.3</ele>
        <time>2018-09-21T15:18:33.000Z</time>
      </trkpt>
      <trkpt lat="46.73247" lon="-2.37146">
        <ele>2.3</ele>
        <time>2018-09-21T15:18:34.000Z</time>
      </trkpt>
      <trkpt lat="46.73246" lon="-2.37145">
        <ele>2.3</ele>
        <time>2018-09-21T15:18:35.000Z</time>
      </trkpt>
      <trkpt lat="46.73245" lon="-2.37144">
        <ele>2.3</ele>
        <time>2018-09-21T15:18:36.000Z</time>
      </trkpt>
      <trkpt lat="46.73244" lon="-2.37144">
        <ele>2.3</ele>
        <time>2018-09-21T15:18:37.000Z</time>
      </trkpt>
      <trkpt lat="46.73243" lon="-2.37143">
        <ele>2.3</ele>
        <time>2018-09-21T15:18:38.000Z</time>
      </trkpt>
      <trkpt lat="46.73242" lon="-2.37142">
        <ele>2.3</ele>
        <time>2018-09-21T15:18:39.000Z</time>
      </trkpt>
      <trkpt lat="46.73241" lon="-2.37141">
        <ele>2.3</ele>
        <time>2018-09-21T15:18:40.000Z</time>
      </trkpt>
      <trkpt lat="46.7324" lon="-2.3714">
        <ele>2.3</ele>
        <time>2018-09-21T15:18:41.000Z</time>
      </trkpt>
      <trkpt lat="46.73239" lon="-2.37139">
        <ele>2.3</ele>
        <time>2018-09-21T15:18:42.000Z</time>
      </trkpt>
      <trkpt lat="46.73238" lon="-2.37138">
        <ele>2.3</ele>
        <time>2018-09-21T15:18:43.000Z</time>
      </trkpt>
      <trkpt lat="46.73237" lon="-2.37137">
        <ele>2.3</ele>
        <time>2018-09-21T15:18:44.000Z</time>
      </trkpt>
      <trkpt lat="46.73236" lon="-2.37136">
        <ele>2.3</ele>
        <time>2018-09-21T15:18:45.000Z</time>
      </trkpt>
      <trkpt lat="46.73235" lon="-2.37135">
        <ele>2.3</ele>
        <time>2018-09-21T15:18:46.000Z</time>
      </trkpt>
      <trkpt lat="46.73234" lon="-2.37134">
        <ele>2.3</ele>
        <time>2018-09-21T15:18:47.000Z</time>
      </trkpt>
      <trkpt lat="46.73233" lon="-2.37133">
        <ele>2.3</ele>
        <time>2018-09-21T15:18:48.000Z</time>
      </trkpt>
      <trkpt lat="46.73232" lon="-2.37132">
        <ele>2.3</ele>
        <time>2018-09-21T15:18:49.000Z</time>
      </trkpt>
      <trkpt lat="46.73231" lon="-2.3713">
        <ele>2.2</ele>
        <time>2018-09-21T15:18:50.000Z</time>
      </trkpt>
      <trkpt lat="46.7323" lon="-2.37129">
        <ele>2.2</ele>
        <time>2018-09-21T15:18:51.000Z</time>
      </trkpt>
      <trkpt lat="46.73229" lon="-2.37128">
        <ele>2.2</ele>
        <time>2018-09-21T15:18:52.000Z</time>
      </trkpt>
      <trkpt lat="46.73228" lon="-2.37127">
        <ele>2.2</ele>
        <time>2018-09-21T15:18:53.000Z</time>
      </trkpt>
      <trkpt lat="46.73228" lon="-2.37126">
        <ele>2.2</ele>
        <time>2018-09-21T15:18:54.000Z</time>
      </trkpt>
      <trkpt lat="46.73227" lon="-2.37125">
        <ele>2.2</ele>
        <time>2018-09-21T15:18:55.000Z</time>
      </trkpt>
      <trkpt lat="46.73226" lon="-2.37124">
        <ele>2.2</ele>
        <time>2018-09-21T15:18:56.000Z</time>
      </trkpt>
      <trkpt lat="46.73225" lon="-2.37123">
        <ele>2.2</ele>
        <time>2018-09-21T15:18:57.000Z</time>
      </trkpt>
      <trkpt lat="46.73224" lon="-2.37122">
        <ele>2.2</ele>
        <time>2018-09-21T15:18:58.000Z</time>
      </trkpt>
      <trkpt lat="46.73223" lon="-2.37121">
        <ele>2.2</ele>
        <time>2018-09-21T15:18:59.000Z</time>
      </trkpt>
      <trkpt lat="46.73223" lon="-2.37121">
        <ele>2.2</ele>
        <time>2018-09-21T15:19:00.000Z</time>
      </trkpt>
      <trkpt lat="46.73222" lon="-2.3712">
        <ele>2.2</ele>
        <time>2018-09-21T15:19:01.000Z</time>
      </trkpt>
      <trkpt lat="46.73221" lon="-2.37119">
        <ele>2.2</ele>
        <time>2018-09-21T15:19:02.000Z</time>
      </trkpt>
      <trkpt lat="46.7322" lon="-2.37118">
        <ele>2.2</ele>
        <time>2018-09-21T15:19:03.000Z</time>
      </trkpt>
      <trkpt lat="46.73219" lon="-2.37118">
        <ele>2.2</ele>
        <time>2018-09-21T15:19:04.000Z</time>
      </trkpt>
      <trkpt lat="46.73218" lon="-2.37117">
        <ele>2.2</ele>
        <time>2018-09-21T15:19:05.000Z</time>
      </trkpt>
      <trkpt lat="46.73217" lon="-2.37116">
        <ele>2.2</ele>
        <time>2018-09-21T15:19:06.000Z</time>
      </trkpt>
      <trkpt lat="46.73216" lon="-2.37116">
        <ele>2.2</ele>
        <time>2018-09-21T15:19:07.000Z</time>
      </trkpt>
      <trkpt lat="46.73215" lon="-2.37115">
        <ele>2.2</ele>
        <time>2018-09-21T15:19:08.000Z</time>
      </trkpt>
      <trkpt lat="46.73214" lon="-2.37114">
        <ele>2.3</ele>
        <time>2018-09-21T15:19:09.000Z</time>
      </trkpt>
      <trkpt lat="46.73213" lon="-2.37114">
        <ele>2.3</ele>
        <time>2018-09-21T15:19:10.000Z</time>
      </trkpt>
      <trkpt lat="46.73212" lon="-2.37113">
        <ele>2.3</ele>
        <time>2018-09-21T15:19:11.000Z</time>
      </trkpt>
      <trkpt lat="46.73211" lon="-2.37112">
        <ele>2.3</ele>
        <time>2018-09-21T15:19:12.000Z</time>
      </trkpt>
      <trkpt lat="46.7321" lon="-2.37111">
        <ele>2.3</ele>
        <time>2018-09-21T15:19:13.000Z</time>
      </trkpt>
      <trkpt lat="46.73209" lon="-2.3711">
        <ele>2.3</ele>
        <time>2018-09-21T15:19:14.000Z</time>
      </trkpt>
      <trkpt lat="46.73208" lon="-2.37109">
        <ele>2.3</ele>
        <time>2018-09-21T15:19:15.000Z</time>
      </trkpt>
      <trkpt lat="46.73207" lon="-2.37108">
        <ele>2.3</ele>
        <time>2018-09-21T15:19:16.000Z</time>
      </trkpt>
      <trkpt lat="46.73206" lon="-2.37107">
        <ele>2.3</ele>
        <time>2018-09-21T15:19:17.000Z</time>
      </trkpt>
      <trkpt lat="46.73205" lon="-2.37106">
        <ele>2.3</ele>
        <time>2018-09-21T15:19:18.000Z</time>
      </trkpt>
      <trkpt lat="46.73204" lon="-2.37105">
        <ele>2.3</ele>
        <time>2018-09-21T15:19:19.000Z</time>
      </trkpt>
      <trkpt lat="46.73203" lon="-2.37104">
        <ele>2.3</ele>
        <time>2018-09-21T15:19:20.000Z</time>
      </trkpt>
      <trkpt lat="46.73202" lon="-2.37103">
        <ele>2.3</ele>
        <time>2018-09-21T15:19:21.000Z</time>
      </trkpt>
      <trkpt lat="46.73201" lon="-2.37102">
        <ele>2.3</ele>
        <time>2018-09-21T15:19:22.000Z</time>
      </trkpt>
      <trkpt lat="46.732" lon="-2.37101">
        <ele>2.3</ele>
        <time>2018-09-21T15:19:23.000Z</time>
      </trkpt>
      <trkpt lat="46.73199" lon="-2.371">
        <ele>2.3</ele>
        <time>2018-09-21T15:19:24.000Z</time>
      </trkpt>
      <trkpt lat="46.73198" lon="-2.37099">
        <ele>2.3</ele>
        <time>2018-09-21T15:19:25.000Z</time>
      </trkpt>
      <trkpt lat="46.73197" lon="-2.37099">
        <ele>2.3</ele>
        <time>2018-09-21T15:19:26.000Z</time>
      </trkpt>
      <trkpt lat="46.73196" lon="-2.37098">
        <ele>2.4</ele>
        <time>2018-09-21T15:19:27.000Z</time>
      </trkpt>
      <trkpt lat="46.73195" lon="-2.37097">
        <ele>2.4</ele>
        <time>2018-09-21T15:19:28.000Z</time>
      </trkpt>
      <trkpt lat="46.73194" lon="-2.37097">
        <ele>2.4</ele>
        <time>2018-09-21T15:19:29.000Z</time>
      </trkpt>
      <trkpt lat="46.73194" lon="-2.37096">
        <ele>2.4</ele>
        <time>2018-09-21T15:19:30.000Z</time>
      </trkpt>
      <trkpt lat="46.73193" lon="-2.37095">
        <ele>2.4</ele>
        <time>2018-09-21T15:19:31.000Z</time>
      </trkpt>
      <trkpt lat="46.73192" lon="-2.37095">
        <ele>2.4</ele>
        <time>2018-09-21T15:19:32.000Z</time>
      </trkpt>
      <trkpt lat="46.73191" lon="-2.37094">
        <ele>2.4</ele>
        <time>2018-09-21T15:19:33.000Z</time>
      </trkpt>
      <trkpt lat="46.7319" lon="-2.37093">
        <ele>2.4</ele>
        <time>2018-09-21T15:19:34.000Z</time>
      </trkpt>
      <trkpt lat="46.73189" lon="-2.37093">
        <ele>2.4</ele>
        <time>2018-09-21T15:19:35.000Z</time>
      </trkpt>
      <trkpt lat="46.73189" lon="-2.37092">
        <ele>2.4</ele>
        <time>2018-09-21T15:19:36.000Z</time>
      </trkpt>
      <trkpt lat="46.73188" lon="-2.37091">
        <ele>2.4</ele>
        <time>2018-09-21T15:19:37.000Z</time>
      </trkpt>
      <trkpt lat="46.73187" lon="-2.3709">
        <ele>2.5</ele>
        <time>2018-09-21T15:19:38.000Z</time>
      </trkpt>
      <trkpt lat="46.73186" lon="-2.3709">
        <ele>2.5</ele>
        <time>2018-09-21T15:19:39.000Z</time>
      </trkpt>
      <trkpt lat="46.73186" lon="-2.37089">
        <ele>2.5</ele>
        <time>2018-09-21T15:19:40.000Z</time>
      </trkpt>
      <trkpt lat="46.73185" lon="-2.37088">
        <ele>2.5</ele>
        <time>2018-09-21T15:19:41.000Z</time>
      </trkpt>
      <trkpt lat="46.73184" lon="-2.37087">
        <ele>2.5</ele>
        <time>2018-09-21T15:19:42.000Z</time>
      </trkpt>
      <trkpt lat="46.73183" lon="-2.37086">
        <ele>2.5</ele>
        <time>2018-09-21T15:19:43.000Z</time>
      </trkpt>
      <trkpt lat="46.73182" lon="-2.37085">
        <ele>2.5</ele>
        <time>2018-09-21T15:19:44.000Z</time>
      </trkpt>
      <trkpt lat="46.73182" lon="-2.37084">
        <ele>2.5</ele>
        <time>2018-09-21T15:19:45.000Z</time>
      </trkpt>
      <trkpt lat="46.73181" lon="-2.37083">
        <ele>3</ele>
        <time>2018-09-21T15:19:46.000Z</time>
      </trkpt>
      <trkpt lat="46.7318" lon="-2.37082">
        <ele>3</ele>
        <time>2018-09-21T15:19:47.000Z</time>
      </trkpt>
      <trkpt lat="46.73179" lon="-2.37081">
        <ele>3</ele>
        <time>2018-09-21T15:19:48.000Z</time>
      </trkpt>
      <trkpt lat="46.73178" lon="-2.3708">
        <ele>3</ele>
        <time>2018-09-21T15:19:49.000Z</time>
      </trkpt>
      <trkpt lat="46.73177" lon="-2.37079">
        <ele>3</ele>
        <time>2018-09-21T15:19:50.000Z</time>
      </trkpt>
      <trkpt lat="46.73176" lon="-2.37077">
        <ele>3</ele>
        <time>2018-09-21T15:19:51.000Z</time>
      </trkpt>
      <trkpt lat="46.73175" lon="-2.37076">
        <ele>3</ele>
        <time>2018-09-21T15:19:52.000Z</time>
      </trkpt>
      <trkpt lat="46.73175" lon="-2.37075">
        <ele>3</ele>
        <time>2018-09-21T15:19:53.000Z</time>
      </trkpt>
      <trkpt lat="46.73174" lon="-2.37074">
        <ele>3</ele>
        <time>2018-09-21T15:19:54.000Z</time>
      </trkpt>
      <trkpt lat="46.73173" lon="-2.37073">
        <ele>3</ele>
        <time>2018-09-21T15:19:55.000Z</time>
      </trkpt>
      <trkpt lat="46.73172" lon="-2.37072">
        <ele>3</ele>
        <time>2018-09-21T15:19:56.000Z</time>
      </trkpt>
      <trkpt lat="46.73171" lon="-2.37071">
        <ele>3</ele>
        <time>2018-09-21T15:19:57.000Z</time>
      </trkpt>
      <trkpt lat="46.73171" lon="-2.3707">
        <ele>3</ele>
        <time>2018-09-21T15:19:58.000Z</time>
      </trkpt>
      <trkpt lat="46.7317" lon="-2.37069">
        <ele>3</ele>
        <time>2018-09-21T15:19:59.000Z</time>
      </trkpt>
      <trkpt lat="46.73169" lon="-2.37068">
        <ele>3</ele>
        <time>2018-09-21T15:20:00.000Z</time>
      </trkpt>
      <trkpt lat="46.73168" lon="-2.37067">
        <ele>3</ele>
        <time>2018-09-21T15:20:01.000Z</time>
      </trkpt>
      <trkpt lat="46.73168" lon="-2.37066">
        <ele>3</ele>
        <time>2018-09-21T15:20:02.000Z</time>
      </trkpt>
      <trkpt lat="46.73167" lon="-2.37065">
        <ele>3</ele>
        <time>2018-09-21T15:20:03.000Z</time>
      </trkpt>
      <trkpt lat="46.73166" lon="-2.37064">
        <ele>2.8</ele>
        <time>2018-09-21T15:20:04.000Z</time>
      </trkpt>
      <trkpt lat="46.73165" lon="-2.37062">
        <ele>2.8</ele>
        <time>2018-09-21T15:20:05.000Z</time>
      </trkpt>
      <trkpt lat="46.73165" lon="-2.37061">
        <ele>2.8</ele>
        <time>2018-09-21T15:20:06.000Z</time>
      </trkpt>
      <trkpt lat="46.73164" lon="-2.3706">
        <ele>2.8</ele>
        <time>2018-09-21T15:20:07.000Z</time>
      </trkpt>
      <trkpt lat="46.73163" lon="-2.37059">
        <ele>2.8</ele>
        <time>2018-09-21T15:20:08.000Z</time>
      </trkpt>
      <trkpt lat="46.73163" lon="-2.37058">
        <ele>2.9</ele>
        <time>2018-09-21T15:20:09.000Z</time>
      </trkpt>
      <trkpt lat="46.73162" lon="-2.37056">
        <ele>2.9</ele>
        <time>2018-09-21T15:20:10.000Z</time>
      </trkpt>
      <trkpt lat="46.73161" lon="-2.37055">
        <ele>2.9</ele>
        <time>2018-09-21T15:20:11.000Z</time>
      </trkpt>
      <trkpt lat="46.7316" lon="-2.37054">
        <ele>2.9</ele>
        <time>2018-09-21T15:20:12.000Z</time>
      </trkpt>
      <trkpt lat="46.73159" lon="-2.37052">
        <ele>2.9</ele>
        <time>2018-09-21T15:20:13.000Z</time>
      </trkpt>
      <trkpt lat="46.73159" lon="-2.37051">
        <ele>2.9</ele>
        <time>2018-09-21T15:20:14.000Z</time>
      </trkpt>
      <trkpt lat="46.73158" lon="-2.3705">
        <ele>3</ele>
        <time>2018-09-21T15:20:15.000Z</time>
      </trkpt>
      <trkpt lat="46.73157" lon="-2.37048">
        <ele>3</ele>
        <time>2018-09-21T15:20:16.000Z</time>
      </trkpt>
      <trkpt lat="46.73157" lon="-2.37047">
        <ele>3</ele>
        <time>2018-09-21T15:20:17.000Z</time>
      </trkpt>
      <trkpt lat="46.73156" lon="-2.37045">
        <ele>3</ele>
        <time>2018-09-21T15:20:18.000Z</time>
      </trkpt>
      <trkpt lat="46.73156" lon="-2.37044">
        <ele>3</ele>
        <time>2018-09-21T15:20:19.000Z</time>
      </trkpt>
      <trkpt lat="46.73155" lon="-2.37042">
        <ele>3</ele>
        <time>2018-09-21T15:20:20.000Z</time>
      </trkpt>
      <trkpt lat="46.73155" lon="-2.37041">
        <ele>3</ele>
        <time>2018-09-21T15:20:21.000Z</time>
      </trkpt>
      <trkpt lat="46.73155" lon="-2.37039">
        <ele>3</ele>
        <time>2018-09-21T15:20:22.000Z</time>
      </trkpt>
      <trkpt lat="46.73155" lon="-2.37037">
        <ele>3</ele>
        <time>2018-09-21T15:20:23.000Z</time>
      </trkpt>
      <trkpt lat="46.73155" lon="-2.37036">
        <ele>2.9</ele>
        <time>2018-09-21T15:20:24.000Z</time>
      </trkpt>
      <trkpt lat="46.73155" lon="-2.37034">
        <ele>2.9</ele>
        <time>2018-09-21T15:20:25.000Z</time>
      </trkpt>
      <trkpt lat="46.73155" lon="-2.37033">
        <ele>2.9</ele>
        <time>2018-09-21T15:20:26.000Z</time>
      </trkpt>
      <trkpt lat="46.73156" lon="-2.37031">
        <ele>2.9</ele>
        <time>2018-09-21T15:20:27.000Z</time>
      </trkpt>
      <trkpt lat="46.73156" lon="-2.3703">
        <ele>2.8</ele>
        <time>2018-09-21T15:20:28.000Z</time>
      </trkpt>
      <trkpt lat="46.73157" lon="-2.37029">
        <ele>2.8</ele>
        <time>2018-09-21T15:20:29.000Z</time>
      </trkpt>
      <trkpt lat="46.73157" lon="-2.37028">
        <ele>2.7</ele>
        <time>2018-09-21T15:20:30.000Z</time>
      </trkpt>
      <trkpt lat="46.73158" lon="-2.37027">
        <ele>2.7</ele>
        <time>2018-09-21T15:20:31.000Z</time>
      </trkpt>
      <trkpt lat="46.73159" lon="-2.37026">
        <ele>2.7</ele>
        <time>2018-09-21T15:20:32.000Z</time>
      </trkpt>
      <trkpt lat="46.7316" lon="-2.37025">
        <ele>2.6</ele>
        <time>2018-09-21T15:20:33.000Z</time>
      </trkpt>
      <trkpt lat="46.73161" lon="-2.37024">
        <ele>2.6</ele>
        <time>2018-09-21T15:20:34.000Z</time>
      </trkpt>
      <trkpt lat="46.73161" lon="-2.37024">
        <ele>2.5</ele>
        <time>2018-09-21T15:20:35.000Z</time>
      </trkpt>
      <trkpt lat="46.73162" lon="-2.37023">
        <ele>2.5</ele>
        <time>2018-09-21T15:20:36.000Z</time>
      </trkpt>
      <trkpt lat="46.73163" lon="-2.37022">
        <ele>2.4</ele>
        <time>2018-09-21T15:20:37.000Z</time>
      </trkpt>
      <trkpt lat="46.73164" lon="-2.37021">
        <ele>2.4</ele>
        <time>2018-09-21T15:20:38.000Z</time>
      </trkpt>
      <trkpt lat="46.73165" lon="-2.3702">
        <ele>2.3</ele>
        <time>2018-09-21T15:20:39.000Z</time>
      </trkpt>
      <trkpt lat="46.73165" lon="-2.37019">
        <ele>2.3</ele>
        <time>2018-09-21T15:20:40.000Z</time>
      </trkpt>
      <trkpt lat="46.73166" lon="-2.37017">
        <ele>2.2</ele>
        <time>2018-09-21T15:20:41.000Z</time>
      </trkpt>
      <trkpt lat="46.73166" lon="-2.37016">
        <ele>2.2</ele>
        <time>2018-09-21T15:20:42.000Z</time>
      </trkpt>
      <trkpt lat="46.73167" lon="-2.37015">
        <ele>2</ele>
        <time>2018-09-21T15:20:43.000Z</time>
      </trkpt>
      <trkpt lat="46.73167" lon="-2.37013">
        <ele>2</ele>
        <time>2018-09-21T15:20:44.000Z</time>
      </trkpt>
      <trkpt lat="46.73168" lon="-2.37012">
        <ele>2</ele>
        <time>2018-09-21T15:20:45.000Z</time>
      </trkpt>
      <trkpt lat="46.73168" lon="-2.3701">
        <ele>2</ele>
        <time>2018-09-21T15:20:46.000Z</time>
      </trkpt>
      <trkpt lat="46.73168" lon="-2.37009">
        <ele>2</ele>
        <time>2018-09-21T15:20:47.000Z</time>
      </trkpt>
      <trkpt lat="46.73168" lon="-2.37008">
        <ele>2</ele>
        <time>2018-09-21T15:20:48.000Z</time>
      </trkpt>
      <trkpt lat="46.73169" lon="-2.37007">
        <ele>2</ele>
        <time>2018-09-21T15:20:49.000Z</time>
      </trkpt>
      <trkpt lat="46.73169" lon="-2.37005">
        <ele>2</ele>
        <time>2018-09-21T15:20:50.000Z</time>
      </trkpt>
      <trkpt lat="46.73169" lon="-2.37004">
        <ele>2</ele>
        <time>2018-09-21T15:20:51.000Z</time>
      </trkpt>
      <trkpt lat="46.73169" lon="-2.37003">
        <ele>2</ele>
        <time>2018-09-21T15:20:52.000Z</time>
      </trkpt>
      <trkpt lat="46.73169" lon="-2.37002">
        <ele>2</ele>
        <time>2018-09-21T15:20:53.000Z</time>
      </trkpt>
      <trkpt lat="46.73168" lon="-2.37">
        <ele>2</ele>
        <time>2018-09-21T15:20:54.000Z</time>
      </trkpt>
      <trkpt lat="46.73168" lon="-2.36999">
        <ele>2</ele>
        <time>2018-09-21T15:20:55.000Z</time>
      </trkpt>
      <trkpt lat="46.73168" lon="-2.36998">
        <ele>2</ele>
        <time>2018-09-21T15:20:56.000Z</time>
      </trkpt>
      <trkpt lat="46.73168" lon="-2.36997">
        <ele>2</ele>
        <time>2018-09-21T15:20:57.000Z</time>
      </trkpt>
      <trkpt lat="46.73168" lon="-2.36996">
        <ele>2</ele>
        <time>2018-09-21T15:20:58.000Z</time>
      </trkpt>
      <trkpt lat="46.73168" lon="-2.36994">
        <ele>2</ele>
        <time>2018-09-21T15:20:59.000Z</time>
      </trkpt>
      <trkpt lat="46.73168" lon="-2.36993">
        <ele>2</ele>
        <time>2018-09-21T15:21:00.000Z</time>
      </trkpt>
      <trkpt lat="46.73168" lon="-2.36992">
        <ele>2</ele>
        <time>2018-09-21T15:21:01.000Z</time>
      </trkpt>
      <trkpt lat="46.73168" lon="-2.3699">
        <ele>2</ele>
        <time>2018-09-21T15:21:02.000Z</time>
      </trkpt>
      <trkpt lat="46.73168" lon="-2.36989">
        <ele>2</ele>
        <time>2018-09-21T15:21:03.000Z</time>
      </trkpt>
      <trkpt lat="46.73168" lon="-2.36988">
        <ele>2</ele>
        <time>2018-09-21T15:21:04.000Z</time>
      </trkpt>
      <trkpt lat="46.73168" lon="-2.36986">
        <ele>2</ele>
        <time>2018-09-21T15:21:05.000Z</time>
      </trkpt>
      <trkpt lat="46.73168" lon="-2.36985">
        <ele>2</ele>
        <time>2018-09-21T15:21:06.000Z</time>
      </trkpt>
      <trkpt lat="46.73168" lon="-2.36984">
        <ele>2</ele>
        <time>2018-09-21T15:21:07.000Z</time>
      </trkpt>
      <trkpt lat="46.73168" lon="-2.36982">
        <ele>2</ele>
        <time>2018-09-21T15:21:08.000Z</time>
      </trkpt>
      <trkpt lat="46.73168" lon="-2.36981">
        <ele>2</ele>
        <time>2018-09-21T15:21:09.000Z</time>
      </trkpt>
      <trkpt lat="46.73168" lon="-2.3698">
        <ele>2</ele>
        <time>2018-09-21T15:21:10.000Z</time>
      </trkpt>
      <trkpt lat="46.73168" lon="-2.36979">
        <ele>2</ele>
        <time>2018-09-21T15:21:11.000Z</time>
      </trkpt>
      <trkpt lat="46.73168" lon="-2.36977">
        <ele>2</ele>
        <time>2018-09-21T15:21:12.000Z</time>
      </trkpt>
      <trkpt lat="46.73168" lon="-2.36976">
        <ele>2</ele>
        <time>2018-09-21T15:21:13.000Z</time>
      </trkpt>
      <trkpt lat="46.73168" lon="-2.36975">
        <ele>2</ele>
        <time>2018-09-21T15:21:14.000Z</time>
      </trkpt>
      <trkpt lat="46.73168" lon="-2.36974">
        <ele>2</ele>
        <time>2018-09-21T15:21:15.000Z</time>
      </trkpt>
      <trkpt lat="46.73168" lon="-2.36973">
        <ele>2</ele>
        <time>2018-09-21T15:21:16.000Z</time>
      </trkpt>
      <trkpt lat="46.73167" lon="-2.36972">
        <ele>2</ele>
        <time>2018-09-21T15:21:17.000Z</time>
      </trkpt>
      <trkpt lat="46.73167" lon="-2.36971">
        <ele>2</ele>
        <time>2018-09-21T15:21:18.000Z</time>
      </trkpt>
      <trkpt lat="46.73167" lon="-2.3697">
        <ele>2</ele>
        <time>2018-09-21T15:21:19.000Z</time>
      </trkpt>
      <trkpt lat="46.73167" lon="-2.36969">
        <ele>2</ele>
        <time>2018-09-21T15:21:20.000Z</time>
      </trkpt>
      <trkpt lat="46.73167" lon="-2.36968">
        <ele>2.4</ele>
        <time>2018-09-21T15:21:21.000Z</time>
      </trkpt>
      <trkpt lat="46.73166" lon="-2.36967">
        <ele>2.4</ele>
        <time>2018-09-21T15:21:22.000Z</time>
      </trkpt>
      <trkpt lat="46.73166" lon="-2.36967">
        <ele>2.4</ele>
        <time>2018-09-21T15:21:23.000Z</time>
      </trkpt>
      <trkpt lat="46.73166" lon="-2.36966">
        <ele>2.4</ele>
        <time>2018-09-21T15:21:24.000Z</time>
      </trkpt>
      <trkpt lat="46.73166" lon="-2.36965">
        <ele>2.4</ele>
        <time>2018-09-21T15:21:25.000Z</time>
      </trkpt>
      <trkpt lat="46.73166" lon="-2.36965">
        <ele>2.5</ele>
        <time>2018-09-21T15:21:26.000Z</time>
      </trkpt>
      <trkpt lat="46.73166" lon="-2.36964">
        <ele>2.5</ele>
        <time>2018-09-21T15:21:27.000Z</time>
      </trkpt>
      <trkpt lat="46.73165" lon="-2.36964">
        <ele>2.5</ele>
        <time>2018-09-21T15:21:28.000Z</time>
      </trkpt>
      <trkpt lat="46.73165" lon="-2.36963">
        <ele>2.5</ele>
        <time>2018-09-21T15:21:29.000Z</time>
      </trkpt>
      <trkpt lat="46.73165" lon="-2.36962">
        <ele>2.5</ele>
        <time>2018-09-21T15:21:30.000Z</time>
      </trkpt>
      <trkpt lat="46.73165" lon="-2.36962">
        <ele>2.5</ele>
        <time>2018-09-21T15:21:31.000Z</time>
      </trkpt>
      <trkpt lat="46.73164" lon="-2.36961">
        <ele>2.6</ele>
        <time>2018-09-21T15:21:32.000Z</time>
      </trkpt>
      <trkpt lat="46.73164" lon="-2.3696">
        <ele>2.6</ele>
        <time>2018-09-21T15:21:33.000Z</time>
      </trkpt>
      <trkpt lat="46.73164" lon="-2.36959">
        <ele>2.6</ele>
        <time>2018-09-21T15:21:34.000Z</time>
      </trkpt>
      <trkpt lat="46.73164" lon="-2.36958">
        <ele>2.6</ele>
        <time>2018-09-21T15:21:35.000Z</time>
      </trkpt>
      <trkpt lat="46.73163" lon="-2.36957">
        <ele>2.7</ele>
        <time>2018-09-21T15:21:36.000Z</time>
      </trkpt>
      <trkpt lat="46.73163" lon="-2.36955">
        <ele>2.7</ele>
        <time>2018-09-21T15:21:37.000Z</time>
      </trkpt>
      <trkpt lat="46.73163" lon="-2.36954">
        <ele>2.7</ele>
        <time>2018-09-21T15:21:38.000Z</time>
      </trkpt>
      <trkpt lat="46.73163" lon="-2.36952">
        <ele>2.7</ele>
        <time>2018-09-21T15:21:39.000Z</time>
      </trkpt>
      <trkpt lat="46.73162" lon="-2.36951">
        <ele>2.8</ele>
        <time>2018-09-21T15:21:40.000Z</time>
      </trkpt>
      <trkpt lat="46.73162" lon="-2.36949">
        <ele>2.8</ele>
        <time>2018-09-21T15:21:41.000Z</time>
      </trkpt>
      <trkpt lat="46.73162" lon="-2.36948">
        <ele>2.8</ele>
        <time>2018-09-21T15:21:42.000Z</time>
      </trkpt>
      <trkpt lat="46.73162" lon="-2.36946">
        <ele>2.9</ele>
        <time>2018-09-21T15:21:43.000Z</time>
      </trkpt>
      <trkpt lat="46.73161" lon="-2.36945">
        <ele>2.9</ele>
        <time>2018-09-21T15:21:44.000Z</time>
      </trkpt>
      <trkpt lat="46.73161" lon="-2.36943">
        <ele>2.9</ele>
        <time>2018-09-21T15:21:45.000Z</time>
      </trkpt>
      <trkpt lat="46.73161" lon="-2.36942">
        <ele>2.9</ele>
        <time>2018-09-21T15:21:46.000Z</time>
      </trkpt>
      <trkpt lat="46.73161" lon="-2.36941">
        <ele>2.9</ele>
        <time>2018-09-21T15:21:47.000Z</time>
      </trkpt>
      <trkpt lat="46.73161" lon="-2.3694">
        <ele>3</ele>
        <time>2018-09-21T15:21:48.000Z</time>
      </trkpt>
      <trkpt lat="46.73161" lon="-2.36938">
        <ele>3</ele>
        <time>2018-09-21T15:21:49.000Z</time>
      </trkpt>
      <trkpt lat="46.73161" lon="-2.36937">
        <ele>3</ele>
        <time>2018-09-21T15:21:50.000Z</time>
      </trkpt>
      <trkpt lat="46.73161" lon="-2.36936">
        <ele>3</ele>
        <time>2018-09-21T15:21:51.000Z</time>
      </trkpt>
      <trkpt lat="46.73161" lon="-2.36935">
        <ele>3</ele>
        <time>2018-09-21T15:21:52.000Z</time>
      </trkpt>
      <trkpt lat="46.73161" lon="-2.36934">
        <ele>3</ele>
        <time>2018-09-21T15:21:53.000Z</time>
      </trkpt>
      <trkpt lat="46.73161" lon="-2.36933">
        <ele>3</ele>
        <time>2018-09-21T15:21:54.000Z</time>
      </trkpt>
      <trkpt lat="46.73161" lon="-2.36932">
        <ele>3</ele>
        <time>2018-09-21T15:21:55.000Z</time>
      </trkpt>
      <trkpt lat="46.73161" lon="-2.36931">
        <ele>3.1</ele>
        <time>2018-09-21T15:21:56.000Z</time>
      </trkpt>
      <trkpt lat="46.73161" lon="-2.3693">
        <ele>3.1</ele>
        <time>2018-09-21T15:21:57.000Z</time>
      </trkpt>
      <trkpt lat="46.73161" lon="-2.36929">
        <ele>3.1</ele>
        <time>2018-09-21T15:21:58.000Z</time>
      </trkpt>
      <trkpt lat="46.73161" lon="-2.36928">
        <ele>3.1</ele>
        <time>2018-09-21T15:21:59.000Z</time>
      </trkpt>
      <trkpt lat="46.73161" lon="-2.36926">
        <ele>3.1</ele>
        <time>2018-09-21T15:22:00.000Z</time>
      </trkpt>
      <trkpt lat="46.73161" lon="-2.36925">
        <ele>3.1</ele>
        <time>2018-09-21T15:22:01.000Z</time>
      </trkpt>
      <trkpt lat="46.73161" lon="-2.36924">
        <ele>3.1</ele>
        <time>2018-09-21T15:22:02.000Z</time>
      </trkpt>
      <trkpt lat="46.73161" lon="-2.36923">
        <ele>3.1</ele>
        <time>2018-09-21T15:22:03.000Z</time>
      </trkpt>
      <trkpt lat="46.73161" lon="-2.36922">
        <ele>3.1</ele>
        <time>2018-09-21T15:22:04.000Z</time>
      </trkpt>
      <trkpt lat="46.73162" lon="-2.36921">
        <ele>3.1</ele>
        <time>2018-09-21T15:22:05.000Z</time>
      </trkpt>
      <trkpt lat="46.73162" lon="-2.3692">
        <ele>3.1</ele>
        <time>2018-09-21T15:22:06.000Z</time>
      </trkpt>
      <trkpt lat="46.73162" lon="-2.36918">
        <ele>3.2</ele>
        <time>2018-09-21T15:22:07.000Z</time>
      </trkpt>
      <trkpt lat="46.73162" lon="-2.36917">
        <ele>3.2</ele>
        <time>2018-09-21T15:22:08.000Z</time>
      </trkpt>
      <trkpt lat="46.73162" lon="-2.36916">
        <ele>3.1</ele>
        <time>2018-09-21T15:22:09.000Z</time>
      </trkpt>
      <trkpt lat="46.73163" lon="-2.36915">
        <ele>3.1</ele>
        <time>2018-09-21T15:22:10.000Z</time>
      </trkpt>
      <trkpt lat="46.73163" lon="-2.36914">
        <ele>3.1</ele>
        <time>2018-09-21T15:22:11.000Z</time>
      </trkpt>
      <trkpt lat="46.73163" lon="-2.36912">
        <ele>3.1</ele>
        <time>2018-09-21T15:22:12.000Z</time>
      </trkpt>
      <trkpt lat="46.73163" lon="-2.36911">
        <ele>3.1</ele>
        <time>2018-09-21T15:22:13.000Z</time>
      </trkpt>
      <trkpt lat="46.73164" lon="-2.3691">
        <ele>3</ele>
        <time>2018-09-21T15:22:14.000Z</time>
      </trkpt>
      <trkpt lat="46.73164" lon="-2.36908">
        <ele>3</ele>
        <time>2018-09-21T15:22:15.000Z</time>
      </trkpt>
      <trkpt lat="46.73164" lon="-2.36907">
        <ele>3</ele>
        <time>2018-09-21T15:22:16.000Z</time>
      </trkpt>
      <trkpt lat="46.73165" lon="-2.36906">
        <ele>2.9</ele>
        <time>2018-09-21T15:22:17.000Z</time>
      </trkpt>
      <trkpt lat="46.73165" lon="-2.36905">
        <ele>2.9</ele>
        <time>2018-09-21T15:22:18.000Z</time>
      </trkpt>
      <trkpt lat="46.73165" lon="-2.36903">
        <ele>2.9</ele>
        <time>2018-09-21T15:22:19.000Z</time>
      </trkpt>
      <trkpt lat="46.73165" lon="-2.36902">
        <ele>2.9</ele>
        <time>2018-09-21T15:22:20.000Z</time>
      </trkpt>
      <trkpt lat="46.73166" lon="-2.36901">
        <ele>2.8</ele>
        <time>2018-09-21T15:22:21.000Z</time>
      </trkpt>
      <trkpt lat="46.73166" lon="-2.36899">
        <ele>2.8</ele>
        <time>2018-09-21T15:22:22.000Z</time>
      </trkpt>
      <trkpt lat="46.73166" lon="-2.36898">
        <ele>2.8</ele>
        <time>2018-09-21T15:22:23.000Z</time>
      </trkpt>
      <trkpt lat="46.73167" lon="-2.36897">
        <ele>2.8</ele>
        <time>2018-09-21T15:22:24.000Z</time>
      </trkpt>
      <trkpt lat="46.73167" lon="-2.36895">
        <ele>3</ele>
        <time>2018-09-21T15:22:25.000Z</time>
      </trkpt>
      <trkpt lat="46.73167" lon="-2.36894">
        <ele>3</ele>
        <time>2018-09-21T15:22:26.000Z</time>
      </trkpt>
      <trkpt lat="46.73167" lon="-2.36893">
        <ele>3</ele>
        <time>2018-09-21T15:22:27.000Z</time>
      </trkpt>
      <trkpt lat="46.73167" lon="-2.36892">
        <ele>3</ele>
        <time>2018-09-21T15:22:28.000Z</time>
      </trkpt>
      <trkpt lat="46.73167" lon="-2.3689">
        <ele>3</ele>
        <time>2018-09-21T15:22:29.000Z</time>
      </trkpt>
      <trkpt lat="46.73168" lon="-2.36889">
        <ele>3</ele>
        <time>2018-09-21T15:22:30.000Z</time>
      </trkpt>
      <trkpt lat="46.73168" lon="-2.36888">
        <ele>3</ele>
        <time>2018-09-21T15:22:31.000Z</time>
      </trkpt>
      <trkpt lat="46.73168" lon="-2.36887">
        <ele>3</ele>
        <time>2018-09-21T15:22:32.000Z</time>
      </trkpt>
      <trkpt lat="46.73168" lon="-2.36886">
        <ele>3</ele>
        <time>2018-09-21T15:22:33.000Z</time>
      </trkpt>
      <trkpt lat="46.73169" lon="-2.36885">
        <ele>3</ele>
        <time>2018-09-21T15:22:34.000Z</time>
      </trkpt>
      <trkpt lat="46.73169" lon="-2.36884">
        <ele>3</ele>
        <time>2018-09-21T15:22:35.000Z</time>
      </trkpt>
      <trkpt lat="46.73169" lon="-2.36883">
        <ele>3</ele>
        <time>2018-09-21T15:22:36.000Z</time>
      </trkpt>
      <trkpt lat="46.73169" lon="-2.36882">
        <ele>3</ele>
        <time>2018-09-21T15:22:37.000Z</time>
      </trkpt>
      <trkpt lat="46.73169" lon="-2.3688">
        <ele>3</ele>
        <time>2018-09-21T15:22:38.000Z</time>
      </trkpt>
      <trkpt lat="46.73169" lon="-2.36879">
        <ele>3</ele>
        <time>2018-09-21T15:22:39.000Z</time>
      </trkpt>
      <trkpt lat="46.73169" lon="-2.36878">
        <ele>3</ele>
        <time>2018-09-21T15:22:40.000Z</time>
      </trkpt>
      <trkpt lat="46.73169" lon="-2.36877">
        <ele>3</ele>
        <time>2018-09-21T15:22:41.000Z</time>
      </trkpt>
      <trkpt lat="46.73169" lon="-2.36876">
        <ele>3</ele>
        <time>2018-09-21T15:22:42.000Z</time>
      </trkpt>
      <trkpt lat="46.73169" lon="-2.36875">
        <ele>3</ele>
        <time>2018-09-21T15:22:43.000Z</time>
      </trkpt>
      <trkpt lat="46.73169" lon="-2.36875">
        <ele>2</ele>
        <time>2018-09-21T15:22:44.000Z</time>
      </trkpt>
      <trkpt lat="46.73169" lon="-2.36874">
        <ele>2</ele>
        <time>2018-09-21T15:22:45.000Z</time>
      </trkpt>
      <trkpt lat="46.73169" lon="-2.36874">
        <ele>2</ele>
        <time>2018-09-21T15:22:46.000Z</time>
      </trkpt>
      <trkpt lat="46.73169" lon="-2.36874">
        <ele>2</ele>
        <time>2018-09-21T15:22:47.000Z</time>
      </trkpt>
      <trkpt lat="46.73169" lon="-2.36874">
        <ele>2</ele>
        <time>2018-09-21T15:22:48.000Z</time>
      </trkpt>
      <trkpt lat="46.73169" lon="-2.36874">
        <ele>2</ele>
        <time>2018-09-21T15:22:49.000Z</time>
      </trkpt>
      <trkpt lat="46.73169" lon="-2.36874">
        <ele>2</ele>
        <time>2018-09-21T15:22:50.000Z</time>
      </trkpt>
      <trkpt lat="46.73169" lon="-2.36874">
        <ele>2</ele>
        <time>2018-09-21T15:22:51.000Z</time>
      </trkpt>
      <trkpt lat="46.73169" lon="-2.36873">
        <ele>2</ele>
        <time>2018-09-21T15:22:52.000Z</time>
      </trkpt>
      <trkpt lat="46.73169" lon="-2.36871">
        <ele>2</ele>
        <time>2018-09-21T15:22:53.000Z</time>
      </trkpt>
      <trkpt lat="46.73169" lon="-2.3687">
        <ele>2</ele>
        <time>2018-09-21T15:22:54.000Z</time>
      </trkpt>
      <trkpt lat="46.73169" lon="-2.36869">
        <ele>2</ele>
        <time>2018-09-21T15:22:55.000Z</time>
      </trkpt>
      <trkpt lat="46.73169" lon="-2.36868">
        <ele>2</ele>
        <time>2018-09-21T15:22:56.000Z</time>
      </trkpt>
      <trkpt lat="46.73169" lon="-2.36866">
        <ele>2</ele>
        <time>2018-09-21T15:22:57.000Z</time>
      </trkpt>
      <trkpt lat="46.7317" lon="-2.36865">
        <ele>2</ele>
        <time>2018-09-21T15:22:58.000Z</time>
      </trkpt>
      <trkpt lat="46.7317" lon="-2.36864">
        <ele>2</ele>
        <time>2018-09-21T15:22:59.000Z</time>
      </trkpt>
      <trkpt lat="46.73171" lon="-2.36863">
        <ele>2</ele>
        <time>2018-09-21T15:23:00.000Z</time>
      </trkpt>
      <trkpt lat="46.73172" lon="-2.36862">
        <ele>2</ele>
        <time>2018-09-21T15:23:01.000Z</time>
      </trkpt>
      <trkpt lat="46.73172" lon="-2.36861">
        <ele>2</ele>
        <time>2018-09-21T15:23:02.000Z</time>
      </trkpt>
      <trkpt lat="46.73173" lon="-2.36859">
        <ele>2</ele>
        <time>2018-09-21T15:23:03.000Z</time>
      </trkpt>
      <trkpt lat="46.73173" lon="-2.36858">
        <ele>2</ele>
        <time>2018-09-21T15:23:04.000Z</time>
      </trkpt>
      <trkpt lat="46.73174" lon="-2.36857">
        <ele>2</ele>
        <time>2018-09-21T15:23:05.000Z</time>
      </trkpt>
      <trkpt lat="46.73174" lon="-2.36855">
        <ele>2</ele>
        <time>2018-09-21T15:23:06.000Z</time>
      </trkpt>
      <trkpt lat="46.73175" lon="-2.36854">
        <ele>2</ele>
        <time>2018-09-21T15:23:07.000Z</time>
      </trkpt>
      <trkpt lat="46.73175" lon="-2.36852">
        <ele>2</ele>
        <time>2018-09-21T15:23:08.000Z</time>
      </trkpt>
      <trkpt lat="46.73176" lon="-2.36851">
        <ele>2</ele>
        <time>2018-09-21T15:23:09.000Z</time>
      </trkpt>
      <trkpt lat="46.73176" lon="-2.36849">
        <ele>2</ele>
        <time>2018-09-21T15:23:10.000Z</time>
      </trkpt>
      <trkpt lat="46.73177" lon="-2.36848">
        <ele>2</ele>
        <time>2018-09-21T15:23:11.000Z</time>
      </trkpt>
      <trkpt lat="46.73177" lon="-2.36846">
        <ele>2</ele>
        <time>2018-09-21T15:23:12.000Z</time>
      </trkpt>
      <trkpt lat="46.73177" lon="-2.36845">
        <ele>2</ele>
        <time>2018-09-21T15:23:13.000Z</time>
      </trkpt>
      <trkpt lat="46.73177" lon="-2.36843">
        <ele>2</ele>
        <time>2018-09-21T15:23:14.000Z</time>
      </trkpt>
      <trkpt lat="46.73178" lon="-2.36842">
        <ele>2</ele>
        <time>2018-09-21T15:23:15.000Z</time>
      </trkpt>
      <trkpt lat="46.73178" lon="-2.36841">
        <ele>2</ele>
        <time>2018-09-21T15:23:16.000Z</time>
      </trkpt>
      <trkpt lat="46.73178" lon="-2.36839">
        <ele>2</ele>
        <time>2018-09-21T15:23:17.000Z</time>
      </trkpt>
      <trkpt lat="46.73178" lon="-2.36838">
        <ele>2</ele>
        <time>2018-09-21T15:23:18.000Z</time>
      </trkpt>
      <trkpt lat="46.73178" lon="-2.36836">
        <ele>2</ele>
        <time>2018-09-21T15:23:19.000Z</time>
      </trkpt>
      <trkpt lat="46.73178" lon="-2.36834">
        <ele>2</ele>
        <time>2018-09-21T15:23:20.000Z</time>
      </trkpt>
      <trkpt lat="46.73178" lon="-2.36833">
        <ele>2</ele>
        <time>2018-09-21T15:23:21.000Z</time>
      </trkpt>
      <trkpt lat="46.73178" lon="-2.36831">
        <ele>2</ele>
        <time>2018-09-21T15:23:22.000Z</time>
      </trkpt>
      <trkpt lat="46.73178" lon="-2.3683">
        <ele>2</ele>
        <time>2018-09-21T15:23:23.000Z</time>
      </trkpt>
      <trkpt lat="46.73178" lon="-2.36828">
        <ele>2</ele>
        <time>2018-09-21T15:23:24.000Z</time>
      </trkpt>
      <trkpt lat="46.73178" lon="-2.36826">
        <ele>2</ele>
        <time>2018-09-21T15:23:25.000Z</time>
      </trkpt>
      <trkpt lat="46.73178" lon="-2.36825">
        <ele>2</ele>
        <time>2018-09-21T15:23:26.000Z</time>
      </trkpt>
      <trkpt lat="46.73177" lon="-2.36823">
        <ele>2</ele>
        <time>2018-09-21T15:23:27.000Z</time>
      </trkpt>
      <trkpt lat="46.73177" lon="-2.36822">
        <ele>2</ele>
        <time>2018-09-21T15:23:28.000Z</time>
      </trkpt>
      <trkpt lat="46.73177" lon="-2.3682">
        <ele>2</ele>
        <time>2018-09-21T15:23:29.000Z</time>
      </trkpt>
      <trkpt lat="46.73177" lon="-2.36819">
        <ele>2</ele>
        <time>2018-09-21T15:23:30.000Z</time>
      </trkpt>
      <trkpt lat="46.73176" lon="-2.36818">
        <ele>2</ele>
        <time>2018-09-21T15:23:31.000Z</time>
      </trkpt>
      <trkpt lat="46.73176" lon="-2.36816">
        <ele>2</ele>
        <time>2018-09-21T15:23:32.000Z</time>
      </trkpt>
      <trkpt lat="46.73176" lon="-2.36815">
        <ele>2</ele>
        <time>2018-09-21T15:23:33.000Z</time>
      </trkpt>
      <trkpt lat="46.73176" lon="-2.36814">
        <ele>2</ele>
        <time>2018-09-21T15:23:34.000Z</time>
      </trkpt>
      <trkpt lat="46.73175" lon="-2.36812">
        <ele>2</ele>
        <time>2018-09-21T15:23:35.000Z</time>
      </trkpt>
      <trkpt lat="46.73175" lon="-2.36811">
        <ele>2</ele>
        <time>2018-09-21T15:23:36.000Z</time>
      </trkpt>
      <trkpt lat="46.73175" lon="-2.3681">
        <ele>2</ele>
        <time>2018-09-21T15:23:37.000Z</time>
      </trkpt>
      <trkpt lat="46.73174" lon="-2.36808">
        <ele>2</ele>
        <time>2018-09-21T15:23:38.000Z</time>
      </trkpt>
      <trkpt lat="46.73174" lon="-2.36807">
        <ele>2</ele>
        <time>2018-09-21T15:23:39.000Z</time>
      </trkpt>
      <trkpt lat="46.73174" lon="-2.36805">
        <ele>2</ele>
        <time>2018-09-21T15:23:40.000Z</time>
      </trkpt>
      <trkpt lat="46.73174" lon="-2.36804">
        <ele>2</ele>
        <time>2018-09-21T15:23:41.000Z</time>
      </trkpt>
      <trkpt lat="46.73174" lon="-2.36802">
        <ele>2</ele>
        <time>2018-09-21T15:23:42.000Z</time>
      </trkpt>
      <trkpt lat="46.73174" lon="-2.368">
        <ele>2</ele>
        <time>2018-09-21T15:23:43.000Z</time>
      </trkpt>
      <trkpt lat="46.73173" lon="-2.36799">
        <ele>2</ele>
        <time>2018-09-21T15:23:44.000Z</time>
      </trkpt>
      <trkpt lat="46.73173" lon="-2.36797">
        <ele>2</ele>
        <time>2018-09-21T15:23:45.000Z</time>
      </trkpt>
      <trkpt lat="46.73173" lon="-2.36796">
        <ele>2</ele>
        <time>2018-09-21T15:23:46.000Z</time>
      </trkpt>
      <trkpt lat="46.73173" lon="-2.36794">
        <ele>2</ele>
        <time>2018-09-21T15:23:47.000Z</time>
      </trkpt>
      <trkpt lat="46.73173" lon="-2.36793">
        <ele>2</ele>
        <time>2018-09-21T15:23:48.000Z</time>
      </trkpt>
      <trkpt lat="46.73172" lon="-2.36791">
        <ele>2</ele>
        <time>2018-09-21T15:23:49.000Z</time>
      </trkpt>
      <trkpt lat="46.73172" lon="-2.3679">
        <ele>2</ele>
        <time>2018-09-21T15:23:50.000Z</time>
      </trkpt>
      <trkpt lat="46.73172" lon="-2.36789">
        <ele>2</ele>
        <time>2018-09-21T15:23:51.000Z</time>
      </trkpt>
      <trkpt lat="46.73172" lon="-2.36788">
        <ele>2</ele>
        <time>2018-09-21T15:23:52.000Z</time>
      </trkpt>
      <trkpt lat="46.73171" lon="-2.36786">
        <ele>2</ele>
        <time>2018-09-21T15:23:53.000Z</time>
      </trkpt>
      <trkpt lat="46.73171" lon="-2.36785">
        <ele>2</ele>
        <time>2018-09-21T15:23:54.000Z</time>
      </trkpt>
      <trkpt lat="46.73171" lon="-2.36783">
        <ele>2</ele>
        <time>2018-09-21T15:23:55.000Z</time>
      </trkpt>
      <trkpt lat="46.73171" lon="-2.36782">
        <ele>2</ele>
        <time>2018-09-21T15:23:56.000Z</time>
      </trkpt>
      <trkpt lat="46.73171" lon="-2.3678">
        <ele>2</ele>
        <time>2018-09-21T15:23:57.000Z</time>
      </trkpt>
      <trkpt lat="46.73171" lon="-2.36778">
        <ele>2</ele>
        <time>2018-09-21T15:23:58.000Z</time>
      </trkpt>
      <trkpt lat="46.73171" lon="-2.36776">
        <ele>2</ele>
        <time>2018-09-21T15:23:59.000Z</time>
      </trkpt>
      <trkpt lat="46.73171" lon="-2.36775">
        <ele>2</ele>
        <time>2018-09-21T15:24:00.000Z</time>
      </trkpt>
      <trkpt lat="46.73172" lon="-2.36773">
        <ele>2</ele>
        <time>2018-09-21T15:24:01.000Z</time>
      </trkpt>
      <trkpt lat="46.73172" lon="-2.36771">
        <ele>2</ele>
        <time>2018-09-21T15:24:02.000Z</time>
      </trkpt>
      <trkpt lat="46.73172" lon="-2.36769">
        <ele>2</ele>
        <time>2018-09-21T15:24:03.000Z</time>
      </trkpt>
      <trkpt lat="46.73172" lon="-2.36767">
        <ele>2</ele>
        <time>2018-09-21T15:24:04.000Z</time>
      </trkpt>
      <trkpt lat="46.73172" lon="-2.36765">
        <ele>2</ele>
        <time>2018-09-21T15:24:05.000Z</time>
      </trkpt>
      <trkpt lat="46.73172" lon="-2.36763">
        <ele>2</ele>
        <time>2018-09-21T15:24:06.000Z</time>
      </trkpt>
      <trkpt lat="46.73171" lon="-2.36762">
        <ele>2</ele>
        <time>2018-09-21T15:24:07.000Z</time>
      </trkpt>
      <trkpt lat="46.73171" lon="-2.36761">
        <ele>2</ele>
        <time>2018-09-21T15:24:08.000Z</time>
      </trkpt>
      <trkpt lat="46.7317" lon="-2.36759">
        <ele>2</ele>
        <time>2018-09-21T15:24:09.000Z</time>
      </trkpt>
      <trkpt lat="46.7317" lon="-2.36758">
        <ele>2</ele>
        <time>2018-09-21T15:24:10.000Z</time>
      </trkpt>
      <trkpt lat="46.73169" lon="-2.36757">
        <ele>2</ele>
        <time>2018-09-21T15:24:11.000Z</time>
      </trkpt>
      <trkpt lat="46.73168" lon="-2.36756">
        <ele>2</ele>
        <time>2018-09-21T15:24:12.000Z</time>
      </trkpt>
      <trkpt lat="46.73168" lon="-2.36755">
        <ele>2</ele>
        <time>2018-09-21T15:24:13.000Z</time>
      </trkpt>
      <trkpt lat="46.73167" lon="-2.36754">
        <ele>2</ele>
        <time>2018-09-21T15:24:14.000Z</time>
      </trkpt>
      <trkpt lat="46.73166" lon="-2.36753">
        <ele>2</ele>
        <time>2018-09-21T15:24:15.000Z</time>
      </trkpt>
      <trkpt lat="46.73166" lon="-2.36752">
        <ele>2</ele>
        <time>2018-09-21T15:24:16.000Z</time>
      </trkpt>
      <trkpt lat="46.73165" lon="-2.36751">
        <ele>2</ele>
        <time>2018-09-21T15:24:17.000Z</time>
      </trkpt>
      <trkpt lat="46.73165" lon="-2.36749">
        <ele>2</ele>
        <time>2018-09-21T15:24:18.000Z</time>
      </trkpt>
      <trkpt lat="46.73164" lon="-2.36748">
        <ele>2</ele>
        <time>2018-09-21T15:24:19.000Z</time>
      </trkpt>
      <trkpt lat="46.73164" lon="-2.36747">
        <ele>2</ele>
        <time>2018-09-21T15:24:20.000Z</time>
      </trkpt>
      <trkpt lat="46.73164" lon="-2.36745">
        <ele>2</ele>
        <time>2018-09-21T15:24:21.000Z</time>
      </trkpt>
      <trkpt lat="46.73163" lon="-2.36743">
        <ele>1.9</ele>
        <time>2018-09-21T15:24:22.000Z</time>
      </trkpt>
      <trkpt lat="46.73163" lon="-2.36742">
        <ele>1.9</ele>
        <time>2018-09-21T15:24:23.000Z</time>
      </trkpt>
      <trkpt lat="46.73163" lon="-2.3674">
        <ele>1.9</ele>
        <time>2018-09-21T15:24:24.000Z</time>
      </trkpt>
      <trkpt lat="46.73162" lon="-2.36739">
        <ele>1.9</ele>
        <time>2018-09-21T15:24:25.000Z</time>
      </trkpt>
      <trkpt lat="46.73162" lon="-2.36737">
        <ele>1.8</ele>
        <time>2018-09-21T15:24:26.000Z</time>
      </trkpt>
      <trkpt lat="46.73162" lon="-2.36736">
        <ele>1.8</ele>
        <time>2018-09-21T15:24:27.000Z</time>
      </trkpt>
      <trkpt lat="46.73161" lon="-2.36734">
        <ele>1.8</ele>
        <time>2018-09-21T15:24:28.000Z</time>
      </trkpt>
      <trkpt lat="46.73161" lon="-2.36733">
        <ele>1.8</ele>
        <time>2018-09-21T15:24:29.000Z</time>
      </trkpt>
      <trkpt lat="46.7316" lon="-2.36731">
        <ele>1.7</ele>
        <time>2018-09-21T15:24:30.000Z</time>
      </trkpt>
      <trkpt lat="46.7316" lon="-2.3673">
        <ele>1.7</ele>
        <time>2018-09-21T15:24:31.000Z</time>
      </trkpt>
      <trkpt lat="46.73159" lon="-2.36729">
        <ele>1.7</ele>
        <time>2018-09-21T15:24:32.000Z</time>
      </trkpt>
      <trkpt lat="46.73159" lon="-2.36727">
        <ele>1.7</ele>
        <time>2018-09-21T15:24:33.000Z</time>
      </trkpt>
      <trkpt lat="46.73158" lon="-2.36726">
        <ele>1.7</ele>
        <time>2018-09-21T15:24:34.000Z</time>
      </trkpt>
      <trkpt lat="46.73158" lon="-2.36724">
        <ele>1.7</ele>
        <time>2018-09-21T15:24:35.000Z</time>
      </trkpt>
      <trkpt lat="46.73157" lon="-2.36723">
        <ele>1.6</ele>
        <time>2018-09-21T15:24:36.000Z</time>
      </trkpt>
      <trkpt lat="46.73157" lon="-2.36722">
        <ele>1.6</ele>
        <time>2018-09-21T15:24:37.000Z</time>
      </trkpt>
      <trkpt lat="46.73156" lon="-2.3672">
        <ele>1.6</ele>
        <time>2018-09-21T15:24:38.000Z</time>
      </trkpt>
      <trkpt lat="46.73156" lon="-2.36719">
        <ele>1.6</ele>
        <time>2018-09-21T15:24:39.000Z</time>
      </trkpt>
      <trkpt lat="46.73155" lon="-2.36718">
        <ele>1.6</ele>
        <time>2018-09-21T15:24:40.000Z</time>
      </trkpt>
      <trkpt lat="46.73155" lon="-2.36717">
        <ele>1.6</ele>
        <time>2018-09-21T15:24:41.000Z</time>
      </trkpt>
      <trkpt lat="46.73154" lon="-2.36715">
        <ele>1.6</ele>
        <time>2018-09-21T15:24:42.000Z</time>
      </trkpt>
      <trkpt lat="46.73154" lon="-2.36714">
        <ele>1.6</ele>
        <time>2018-09-21T15:24:43.000Z</time>
      </trkpt>
      <trkpt lat="46.73153" lon="-2.36713">
        <ele>1.6</ele>
        <time>2018-09-21T15:24:44.000Z</time>
      </trkpt>
      <trkpt lat="46.73153" lon="-2.36711">
        <ele>1.6</ele>
        <time>2018-09-21T15:24:45.000Z</time>
      </trkpt>
      <trkpt lat="46.73152" lon="-2.3671">
        <ele>1.6</ele>
        <time>2018-09-21T15:24:46.000Z</time>
      </trkpt>
      <trkpt lat="46.73152" lon="-2.36709">
        <ele>1.5</ele>
        <time>2018-09-21T15:24:47.000Z</time>
      </trkpt>
      <trkpt lat="46.73151" lon="-2.36708">
        <ele>1.5</ele>
        <time>2018-09-21T15:24:48.000Z</time>
      </trkpt>
      <trkpt lat="46.73151" lon="-2.36707">
        <ele>1.5</ele>
        <time>2018-09-21T15:24:49.000Z</time>
      </trkpt>
      <trkpt lat="46.7315" lon="-2.36705">
        <ele>1.5</ele>
        <time>2018-09-21T15:24:50.000Z</time>
      </trkpt>
      <trkpt lat="46.7315" lon="-2.36704">
        <ele>1.5</ele>
        <time>2018-09-21T15:24:51.000Z</time>
      </trkpt>
      <trkpt lat="46.73149" lon="-2.36703">
        <ele>1.5</ele>
        <time>2018-09-21T15:24:52.000Z</time>
      </trkpt>
      <trkpt lat="46.73149" lon="-2.36702">
        <ele>1.5</ele>
        <time>2018-09-21T15:24:53.000Z</time>
      </trkpt>
      <trkpt lat="46.73149" lon="-2.36701">
        <ele>1.5</ele>
        <time>2018-09-21T15:24:54.000Z</time>
      </trkpt>
      <trkpt lat="46.73148" lon="-2.36699">
        <ele>1.5</ele>
        <time>2018-09-21T15:24:55.000Z</time>
      </trkpt>
      <trkpt lat="46.73148" lon="-2.36698">
        <ele>1.5</ele>
        <time>2018-09-21T15:24:56.000Z</time>
      </trkpt>
      <trkpt lat="46.73147" lon="-2.36697">
        <ele>1.5</ele>
        <time>2018-09-21T15:24:57.000Z</time>
      </trkpt>
      <trkpt lat="46.73147" lon="-2.36696">
        <ele>1.5</ele>
        <time>2018-09-21T15:24:58.000Z</time>
      </trkpt>
      <trkpt lat="46.73146" lon="-2.36695">
        <ele>1.5</ele>
        <time>2018-09-21T15:24:59.000Z</time>
      </trkpt>
      <trkpt lat="46.73146" lon="-2.36693">
        <ele>1.5</ele>
        <time>2018-09-21T15:25:00.000Z</time>
      </trkpt>
      <trkpt lat="46.73145" lon="-2.36692">
        <ele>1.5</ele>
        <time>2018-09-21T15:25:01.000Z</time>
      </trkpt>
      <trkpt lat="46.73145" lon="-2.36691">
        <ele>1.5</ele>
        <time>2018-09-21T15:25:02.000Z</time>
      </trkpt>
      <trkpt lat="46.73144" lon="-2.3669">
        <ele>1.5</ele>
        <time>2018-09-21T15:25:03.000Z</time>
      </trkpt>
      <trkpt lat="46.73144" lon="-2.36688">
        <ele>1.5</ele>
        <time>2018-09-21T15:25:04.000Z</time>
      </trkpt>
      <trkpt lat="46.73143" lon="-2.36687">
        <ele>1.5</ele>
        <time>2018-09-21T15:25:05.000Z</time>
      </trkpt>
      <trkpt lat="46.73143" lon="-2.36686">
        <ele>1.5</ele>
        <time>2018-09-21T15:25:06.000Z</time>
      </trkpt>
      <trkpt lat="46.73142" lon="-2.36685">
        <ele>1.5</ele>
        <time>2018-09-21T15:25:07.000Z</time>
      </trkpt>
      <trkpt lat="46.73142" lon="-2.36684">
        <ele>1.5</ele>
        <time>2018-09-21T15:25:08.000Z</time>
      </trkpt>
      <trkpt lat="46.73141" lon="-2.36682">
        <ele>1.5</ele>
        <time>2018-09-21T15:25:09.000Z</time>
      </trkpt>
      <trkpt lat="46.73141" lon="-2.36681">
        <ele>1.5</ele>
        <time>2018-09-21T15:25:10.000Z</time>
      </trkpt>
      <trkpt lat="46.7314" lon="-2.3668">
        <ele>1.5</ele>
        <time>2018-09-21T15:25:11.000Z</time>
      </trkpt>
      <trkpt lat="46.7314" lon="-2.36679">
        <ele>1.5</ele>
        <time>2018-09-21T15:25:12.000Z</time>
      </trkpt>
      <trkpt lat="46.7314" lon="-2.36678">
        <ele>1.5</ele>
        <time>2018-09-21T15:25:13.000Z</time>
      </trkpt>
      <trkpt lat="46.73139" lon="-2.36677">
        <ele>1.5</ele>
        <time>2018-09-21T15:25:14.000Z</time>
      </trkpt>
      <trkpt lat="46.73139" lon="-2.36676">
        <ele>1.5</ele>
        <time>2018-09-21T15:25:15.000Z</time>
      </trkpt>
      <trkpt lat="46.73139" lon="-2.36675">
        <ele>1.5</ele>
        <time>2018-09-21T15:25:16.000Z</time>
      </trkpt>
      <trkpt lat="46.73138" lon="-2.36675">
        <ele>1.5</ele>
        <time>2018-09-21T15:25:17.000Z</time>
      </trkpt>
      <trkpt lat="46.73138" lon="-2.36674">
        <ele>1.5</ele>
        <time>2018-09-21T15:25:18.000Z</time>
      </trkpt>
      <trkpt lat="46.73138" lon="-2.36673">
        <ele>1.5</ele>
        <time>2018-09-21T15:25:19.000Z</time>
      </trkpt>
      <trkpt lat="46.73138" lon="-2.36672">
        <ele>1.5</ele>
        <time>2018-09-21T15:25:20.000Z</time>
      </trkpt>
      <trkpt lat="46.73138" lon="-2.36672">
        <ele>1.5</ele>
        <time>2018-09-21T15:25:21.000Z</time>
      </trkpt>
      <trkpt lat="46.73137" lon="-2.36671">
        <ele>1.5</ele>
        <time>2018-09-21T15:25:22.000Z</time>
      </trkpt>
      <trkpt lat="46.73137" lon="-2.3667">
        <ele>1.5</ele>
        <time>2018-09-21T15:25:23.000Z</time>
      </trkpt>
      <trkpt lat="46.73137" lon="-2.36669">
        <ele>1.5</ele>
        <time>2018-09-21T15:25:24.000Z</time>
      </trkpt>
      <trkpt lat="46.73136" lon="-2.36669">
        <ele>1.5</ele>
        <time>2018-09-21T15:25:25.000Z</time>
      </trkpt>
      <trkpt lat="46.73136" lon="-2.36668">
        <ele>1.5</ele>
        <time>2018-09-21T15:25:26.000Z</time>
      </trkpt>
      <trkpt lat="46.73135" lon="-2.36667">
        <ele>1.5</ele>
        <time>2018-09-21T15:25:27.000Z</time>
      </trkpt>
      <trkpt lat="46.73135" lon="-2.36666">
        <ele>1.5</ele>
        <time>2018-09-21T15:25:28.000Z</time>
      </trkpt>
      <trkpt lat="46.73135" lon="-2.36665">
        <ele>1.5</ele>
        <time>2018-09-21T15:25:29.000Z</time>
      </trkpt>
      <trkpt lat="46.73134" lon="-2.36664">
        <ele>1.6</ele>
        <time>2018-09-21T15:25:30.000Z</time>
      </trkpt>
      <trkpt lat="46.73134" lon="-2.36663">
        <ele>1.6</ele>
        <time>2018-09-21T15:25:31.000Z</time>
      </trkpt>
      <trkpt lat="46.73133" lon="-2.36662">
        <ele>1.6</ele>
        <time>2018-09-21T15:25:32.000Z</time>
      </trkpt>
      <trkpt lat="46.73133" lon="-2.36661">
        <ele>1.6</ele>
        <time>2018-09-21T15:25:33.000Z</time>
      </trkpt>
      <trkpt lat="46.73133" lon="-2.3666">
        <ele>1.6</ele>
        <time>2018-09-21T15:25:34.000Z</time>
      </trkpt>
      <trkpt lat="46.73132" lon="-2.36659">
        <ele>1.7</ele>
        <time>2018-09-21T15:25:35.000Z</time>
      </trkpt>
      <trkpt lat="46.73132" lon="-2.36657">
        <ele>1.7</ele>
        <time>2018-09-21T15:25:36.000Z</time>
      </trkpt>
      <trkpt lat="46.73132" lon="-2.36656">
        <ele>1.7</ele>
        <time>2018-09-21T15:25:37.000Z</time>
      </trkpt>
      <trkpt lat="46.73131" lon="-2.36654">
        <ele>1.7</ele>
        <time>2018-09-21T15:25:38.000Z</time>
      </trkpt>
      <trkpt lat="46.73131" lon="-2.36653">
        <ele>1.7</ele>
        <time>2018-09-21T15:25:39.000Z</time>
      </trkpt>
      <trkpt lat="46.73131" lon="-2.36652">
        <ele>1.7</ele>
        <time>2018-09-21T15:25:40.000Z</time>
      </trkpt>
      <trkpt lat="46.73131" lon="-2.3665">
        <ele>1.8</ele>
        <time>2018-09-21T15:25:41.000Z</time>
      </trkpt>
      <trkpt lat="46.7313" lon="-2.36649">
        <ele>1.8</ele>
        <time>2018-09-21T15:25:42.000Z</time>
      </trkpt>
      <trkpt lat="46.7313" lon="-2.36648">
        <ele>1.8</ele>
        <time>2018-09-21T15:25:43.000Z</time>
      </trkpt>
      <trkpt lat="46.7313" lon="-2.36647">
        <ele>1.8</ele>
        <time>2018-09-21T15:25:44.000Z</time>
      </trkpt>
      <trkpt lat="46.7313" lon="-2.36646">
        <ele>1.8</ele>
        <time>2018-09-21T15:25:45.000Z</time>
      </trkpt>
      <trkpt lat="46.7313" lon="-2.36644">
        <ele>1.8</ele>
        <time>2018-09-21T15:25:46.000Z</time>
      </trkpt>
      <trkpt lat="46.7313" lon="-2.36643">
        <ele>1.8</ele>
        <time>2018-09-21T15:25:47.000Z</time>
      </trkpt>
      <trkpt lat="46.7313" lon="-2.36642">
        <ele>1.8</ele>
        <time>2018-09-21T15:25:48.000Z</time>
      </trkpt>
      <trkpt lat="46.7313" lon="-2.36641">
        <ele>1.8</ele>
        <time>2018-09-21T15:25:49.000Z</time>
      </trkpt>
      <trkpt lat="46.7313" lon="-2.36639">
        <ele>1.8</ele>
        <time>2018-09-21T15:25:50.000Z</time>
      </trkpt>
      <trkpt lat="46.7313" lon="-2.36638">
        <ele>1.8</ele>
        <time>2018-09-21T15:25:51.000Z</time>
      </trkpt>
      <trkpt lat="46.7313" lon="-2.36637">
        <ele>1.8</ele>
        <time>2018-09-21T15:25:52.000Z</time>
      </trkpt>
      <trkpt lat="46.7313" lon="-2.36635">
        <ele>1.8</ele>
        <time>2018-09-21T15:25:53.000Z</time>
      </trkpt>
      <trkpt lat="46.7313" lon="-2.36634">
        <ele>1.8</ele>
        <time>2018-09-21T15:25:54.000Z</time>
      </trkpt>
      <trkpt lat="46.73129" lon="-2.36633">
        <ele>1.8</ele>
        <time>2018-09-21T15:25:55.000Z</time>
      </trkpt>
      <trkpt lat="46.73129" lon="-2.36632">
        <ele>1.8</ele>
        <time>2018-09-21T15:25:56.000Z</time>
      </trkpt>
      <trkpt lat="46.73129" lon="-2.36631">
        <ele>1.8</ele>
        <time>2018-09-21T15:25:57.000Z</time>
      </trkpt>
      <trkpt lat="46.73129" lon="-2.3663">
        <ele>1.8</ele>
        <time>2018-09-21T15:25:58.000Z</time>
      </trkpt>
      <trkpt lat="46.73129" lon="-2.36629">
        <ele>1.8</ele>
        <time>2018-09-21T15:25:59.000Z</time>
      </trkpt>
      <trkpt lat="46.73129" lon="-2.36629">
        <ele>1.8</ele>
        <time>2018-09-21T15:26:00.000Z</time>
      </trkpt>
      <trkpt lat="46.73129" lon="-2.36628">
        <ele>1.8</ele>
        <time>2018-09-21T15:26:01.000Z</time>
      </trkpt>
      <trkpt lat="46.73129" lon="-2.36628">
        <ele>1.8</ele>
        <time>2018-09-21T15:26:02.000Z</time>
      </trkpt>
      <trkpt lat="46.73129" lon="-2.36628">
        <ele>1.8</ele>
        <time>2018-09-21T15:26:03.000Z</time>
      </trkpt>
      <trkpt lat="46.73129" lon="-2.36628">
        <ele>1.8</ele>
        <time>2018-09-21T15:26:04.000Z</time>
      </trkpt>
      <trkpt lat="46.73129" lon="-2.36628">
        <ele>1.8</ele>
        <time>2018-09-21T15:26:05.000Z</time>
      </trkpt>
      <trkpt lat="46.73129" lon="-2.36628">
        <ele>1.8</ele>
        <time>2018-09-21T15:26:06.000Z</time>
      </trkpt>
      <trkpt lat="46.73129" lon="-2.36628">
        <ele>1.8</ele>
        <time>2018-09-21T15:26:07.000Z</time>
      </trkpt>
      <trkpt lat="46.73129" lon="-2.36628">
        <ele>1.8</ele>
        <time>2018-09-21T15:26:08.000Z</time>
      </trkpt>
      <trkpt lat="46.73129" lon="-2.36628">
        <ele>1.8</ele>
        <time>2018-09-21T15:26:09.000Z</time>
      </trkpt>
      <trkpt lat="46.73129" lon="-2.36628">
        <ele>1.8</ele>
        <time>2018-09-21T15:26:10.000Z</time>
      </trkpt>
      <trkpt lat="46.73129" lon="-2.36627">
        <ele>1.8</ele>
        <time>2018-09-21T15:26:11.000Z</time>
      </trkpt>
      <trkpt lat="46.73129" lon="-2.36627">
        <ele>1.8</ele>
        <time>2018-09-21T15:26:12.000Z</time>
      </trkpt>
      <trkpt lat="46.73129" lon="-2.36626">
        <ele>1.8</ele>
        <time>2018-09-21T15:26:13.000Z</time>
      </trkpt>
      <trkpt lat="46.7313" lon="-2.36626">
        <ele>1.8</ele>
        <time>2018-09-21T15:26:14.000Z</time>
      </trkpt>
      <trkpt lat="46.7313" lon="-2.36625">
        <ele>1.8</ele>
        <time>2018-09-21T15:26:15.000Z</time>
      </trkpt>
      <trkpt lat="46.7313" lon="-2.36624">
        <ele>1.8</ele>
        <time>2018-09-21T15:26:16.000Z</time>
      </trkpt>
      <trkpt lat="46.7313" lon="-2.36623">
        <ele>1.8</ele>
        <time>2018-09-21T15:26:17.000Z</time>
      </trkpt>
      <trkpt lat="46.7313" lon="-2.36622">
        <ele>1.8</ele>
        <time>2018-09-21T15:26:18.000Z</time>
      </trkpt>
      <trkpt lat="46.7313" lon="-2.36621">
        <ele>1.8</ele>
        <time>2018-09-21T15:26:19.000Z</time>
      </trkpt>
      <trkpt lat="46.7313" lon="-2.3662">
        <ele>1.8</ele>
        <time>2018-09-21T15:26:20.000Z</time>
      </trkpt>
      <trkpt lat="46.73129" lon="-2.36619">
        <ele>1.9</ele>
        <time>2018-09-21T15:26:21.000Z</time>
      </trkpt>
      <trkpt lat="46.73129" lon="-2.36618">
        <ele>1.9</ele>
        <time>2018-09-21T15:26:22.000Z</time>
      </trkpt>
      <trkpt lat="46.73129" lon="-2.36617">
        <ele>1.9</ele>
        <time>2018-09-21T15:26:23.000Z</time>
      </trkpt>
      <trkpt lat="46.73129" lon="-2.36615">
        <ele>1.9</ele>
        <time>2018-09-21T15:26:24.000Z</time>
      </trkpt>
      <trkpt lat="46.73129" lon="-2.36614">
        <ele>1.9</ele>
        <time>2018-09-21T15:26:25.000Z</time>
      </trkpt>
      <trkpt lat="46.73129" lon="-2.36613">
        <ele>1.9</ele>
        <time>2018-09-21T15:26:26.000Z</time>
      </trkpt>
      <trkpt lat="46.73128" lon="-2.36611">
        <ele>1.9</ele>
        <time>2018-09-21T15:26:27.000Z</time>
      </trkpt>
      <trkpt lat="46.73128" lon="-2.3661">
        <ele>1.9</ele>
        <time>2018-09-21T15:26:28.000Z</time>
      </trkpt>
      <trkpt lat="46.73128" lon="-2.36609">
        <ele>1.9</ele>
        <time>2018-09-21T15:26:29.000Z</time>
      </trkpt>
      <trkpt lat="46.73128" lon="-2.36607">
        <ele>1.9</ele>
        <time>2018-09-21T15:26:30.000Z</time>
      </trkpt>
      <trkpt lat="46.73128" lon="-2.36606">
        <ele>1.9</ele>
        <time>2018-09-21T15:26:31.000Z</time>
      </trkpt>
      <trkpt lat="46.73127" lon="-2.36604">
        <ele>1.9</ele>
        <time>2018-09-21T15:26:32.000Z</time>
      </trkpt>
      <trkpt lat="46.73127" lon="-2.36603">
        <ele>1.9</ele>
        <time>2018-09-21T15:26:33.000Z</time>
      </trkpt>
      <trkpt lat="46.73127" lon="-2.36602">
        <ele>1.9</ele>
        <time>2018-09-21T15:26:34.000Z</time>
      </trkpt>
      <trkpt lat="46.73127" lon="-2.366">
        <ele>1.9</ele>
        <time>2018-09-21T15:26:35.000Z</time>
      </trkpt>
      <trkpt lat="46.73127" lon="-2.36599">
        <ele>1.9</ele>
        <time>2018-09-21T15:26:36.000Z</time>
      </trkpt>
      <trkpt lat="46.73127" lon="-2.36598">
        <ele>1.9</ele>
        <time>2018-09-21T15:26:37.000Z</time>
      </trkpt>
      <trkpt lat="46.73128" lon="-2.36597">
        <ele>1.9</ele>
        <time>2018-09-21T15:26:38.000Z</time>
      </trkpt>
      <trkpt lat="46.73128" lon="-2.36596">
        <ele>1.9</ele>
        <time>2018-09-21T15:26:39.000Z</time>
      </trkpt>
      <trkpt lat="46.73128" lon="-2.36595">
        <ele>1.9</ele>
        <time>2018-09-21T15:26:40.000Z</time>
      </trkpt>
      <trkpt lat="46.73129" lon="-2.36594">
        <ele>1.9</ele>
        <time>2018-09-21T15:26:41.000Z</time>
      </trkpt>
      <trkpt lat="46.73129" lon="-2.36593">
        <ele>1.9</ele>
        <time>2018-09-21T15:26:42.000Z</time>
      </trkpt>
      <trkpt lat="46.73129" lon="-2.36592">
        <ele>1.9</ele>
        <time>2018-09-21T15:26:43.000Z</time>
      </trkpt>
      <trkpt lat="46.7313" lon="-2.36591">
        <ele>1.9</ele>
        <time>2018-09-21T15:26:44.000Z</time>
      </trkpt>
      <trkpt lat="46.7313" lon="-2.3659">
        <ele>1.9</ele>
        <time>2018-09-21T15:26:45.000Z</time>
      </trkpt>
      <trkpt lat="46.73131" lon="-2.36589">
        <ele>1.9</ele>
        <time>2018-09-21T15:26:46.000Z</time>
      </trkpt>
      <trkpt lat="46.73131" lon="-2.36588">
        <ele>1.9</ele>
        <time>2018-09-21T15:26:47.000Z</time>
      </trkpt>
      <trkpt lat="46.73131" lon="-2.36587">
        <ele>1.8</ele>
        <time>2018-09-21T15:26:48.000Z</time>
      </trkpt>
      <trkpt lat="46.73132" lon="-2.36586">
        <ele>1.8</ele>
        <time>2018-09-21T15:26:49.000Z</time>
      </trkpt>
      <trkpt lat="46.73132" lon="-2.36585">
        <ele>1.8</ele>
        <time>2018-09-21T15:26:50.000Z</time>
      </trkpt>
      <trkpt lat="46.73132" lon="-2.36583">
        <ele>1.8</ele>
        <time>2018-09-21T15:26:51.000Z</time>
      </trkpt>
      <trkpt lat="46.73133" lon="-2.36582">
        <ele>1.8</ele>
        <time>2018-09-21T15:26:52.000Z</time>
      </trkpt>
      <trkpt lat="46.73133" lon="-2.36581">
        <ele>1.8</ele>
        <time>2018-09-21T15:26:53.000Z</time>
      </trkpt>
      <trkpt lat="46.73134" lon="-2.3658">
        <ele>1.8</ele>
        <time>2018-09-21T15:26:54.000Z</time>
      </trkpt>
      <trkpt lat="46.73135" lon="-2.36578">
        <ele>1.7</ele>
        <time>2018-09-21T15:26:55.000Z</time>
      </trkpt>
      <trkpt lat="46.73135" lon="-2.36577">
        <ele>1.7</ele>
        <time>2018-09-21T15:26:56.000Z</time>
      </trkpt>
      <trkpt lat="46.73136" lon="-2.36576">
        <ele>1.7</ele>
        <time>2018-09-21T15:26:57.000Z</time>
      </trkpt>
      <trkpt lat="46.73136" lon="-2.36575">
        <ele>1.7</ele>
        <time>2018-09-21T15:26:58.000Z</time>
      </trkpt>
      <trkpt lat="46.73137" lon="-2.36574">
        <ele>1.6</ele>
        <time>2018-09-21T15:26:59.000Z</time>
      </trkpt>
      <trkpt lat="46.73137" lon="-2.36572">
        <ele>1.6</ele>
        <time>2018-09-21T15:27:00.000Z</time>
      </trkpt>
      <trkpt lat="46.73138" lon="-2.36571">
        <ele>1.6</ele>
        <time>2018-09-21T15:27:01.000Z</time>
      </trkpt>
      <trkpt lat="46.73138" lon="-2.3657">
        <ele>1.6</ele>
        <time>2018-09-21T15:27:02.000Z</time>
      </trkpt>
      <trkpt lat="46.73138" lon="-2.36569">
        <ele>1.6</ele>
        <time>2018-09-21T15:27:03.000Z</time>
      </trkpt>
      <trkpt lat="46.73139" lon="-2.36567">
        <ele>1.5</ele>
        <time>2018-09-21T15:27:04.000Z</time>
      </trkpt>
      <trkpt lat="46.73139" lon="-2.36566">
        <ele>1.5</ele>
        <time>2018-09-21T15:27:05.000Z</time>
      </trkpt>
      <trkpt lat="46.73139" lon="-2.36565">
        <ele>1.5</ele>
        <time>2018-09-21T15:27:06.000Z</time>
      </trkpt>
      <trkpt lat="46.73139" lon="-2.36563">
        <ele>1.5</ele>
        <time>2018-09-21T15:27:07.000Z</time>
      </trkpt>
      <trkpt lat="46.73139" lon="-2.36562">
        <ele>1.5</ele>
        <time>2018-09-21T15:27:08.000Z</time>
      </trkpt>
      <trkpt lat="46.73139" lon="-2.3656">
        <ele>1.5</ele>
        <time>2018-09-21T15:27:09.000Z</time>
      </trkpt>
      <trkpt lat="46.73139" lon="-2.36559">
        <ele>1.5</ele>
        <time>2018-09-21T15:27:10.000Z</time>
      </trkpt>
      <trkpt lat="46.73139" lon="-2.36557">
        <ele>1.5</ele>
        <time>2018-09-21T15:27:11.000Z</time>
      </trkpt>
      <trkpt lat="46.73139" lon="-2.36555">
        <ele>1.4</ele>
        <time>2018-09-21T15:27:12.000Z</time>
      </trkpt>
      <trkpt lat="46.73139" lon="-2.36554">
        <ele>1.4</ele>
        <time>2018-09-21T15:27:13.000Z</time>
      </trkpt>
      <trkpt lat="46.73138" lon="-2.36552">
        <ele>1.4</ele>
        <time>2018-09-21T15:27:14.000Z</time>
      </trkpt>
      <trkpt lat="46.73138" lon="-2.3655">
        <ele>1.4</ele>
        <time>2018-09-21T15:27:15.000Z</time>
      </trkpt>
      <trkpt lat="46.73138" lon="-2.36548">
        <ele>1.4</ele>
        <time>2018-09-21T15:27:16.000Z</time>
      </trkpt>
      <trkpt lat="46.73137" lon="-2.36547">
        <ele>1.4</ele>
        <time>2018-09-21T15:27:17.000Z</time>
      </trkpt>
      <trkpt lat="46.73137" lon="-2.36545">
        <ele>1.4</ele>
        <time>2018-09-21T15:27:18.000Z</time>
      </trkpt>
      <trkpt lat="46.73136" lon="-2.36544">
        <ele>1.4</ele>
        <time>2018-09-21T15:27:19.000Z</time>
      </trkpt>
      <trkpt lat="46.73136" lon="-2.36542">
        <ele>1.4</ele>
        <time>2018-09-21T15:27:20.000Z</time>
      </trkpt>
      <trkpt lat="46.73135" lon="-2.3654">
        <ele>1.4</ele>
        <time>2018-09-21T15:27:21.000Z</time>
      </trkpt>
      <trkpt lat="46.73135" lon="-2.36539">
        <ele>1.4</ele>
        <time>2018-09-21T15:27:22.000Z</time>
      </trkpt>
      <trkpt lat="46.73134" lon="-2.36537">
        <ele>1.4</ele>
        <time>2018-09-21T15:27:23.000Z</time>
      </trkpt>
      <trkpt lat="46.73134" lon="-2.36536">
        <ele>1.4</ele>
        <time>2018-09-21T15:27:24.000Z</time>
      </trkpt>
      <trkpt lat="46.73133" lon="-2.36534">
        <ele>1.5</ele>
        <time>2018-09-21T15:27:25.000Z</time>
      </trkpt>
      <trkpt lat="46.73132" lon="-2.36533">
        <ele>1.5</ele>
        <time>2018-09-21T15:27:26.000Z</time>
      </trkpt>
      <trkpt lat="46.73132" lon="-2.36531">
        <ele>1.5</ele>
        <time>2018-09-21T15:27:27.000Z</time>
      </trkpt>
      <trkpt lat="46.73131" lon="-2.3653">
        <ele>1.5</ele>
        <time>2018-09-21T15:27:28.000Z</time>
      </trkpt>
      <trkpt lat="46.7313" lon="-2.36529">
        <ele>1.5</ele>
        <time>2018-09-21T15:27:29.000Z</time>
      </trkpt>
      <trkpt lat="46.7313" lon="-2.36527">
        <ele>1.5</ele>
        <time>2018-09-21T15:27:30.000Z</time>
      </trkpt>
      <trkpt lat="46.73129" lon="-2.36526">
        <ele>1.5</ele>
        <time>2018-09-21T15:27:31.000Z</time>
      </trkpt>
      <trkpt lat="46.73128" lon="-2.36525">
        <ele>1.5</ele>
        <time>2018-09-21T15:27:32.000Z</time>
      </trkpt>
      <trkpt lat="46.73127" lon="-2.36524">
        <ele>1.6</ele>
        <time>2018-09-21T15:27:33.000Z</time>
      </trkpt>
      <trkpt lat="46.73127" lon="-2.36523">
        <ele>1.6</ele>
        <time>2018-09-21T15:27:34.000Z</time>
      </trkpt>
      <trkpt lat="46.73126" lon="-2.36522">
        <ele>1.6</ele>
        <time>2018-09-21T15:27:35.000Z</time>
      </trkpt>
      <trkpt lat="46.73125" lon="-2.36521">
        <ele>1.6</ele>
        <time>2018-09-21T15:27:36.000Z</time>
      </trkpt>
      <trkpt lat="46.73124" lon="-2.3652">
        <ele>1.6</ele>
        <time>2018-09-21T15:27:37.000Z</time>
      </trkpt>
      <trkpt lat="46.73124" lon="-2.36519">
        <ele>1.7</ele>
        <time>2018-09-21T15:27:38.000Z</time>
      </trkpt>
      <trkpt lat="46.73123" lon="-2.36518">
        <ele>1.7</ele>
        <time>2018-09-21T15:27:39.000Z</time>
      </trkpt>
      <trkpt lat="46.73122" lon="-2.36516">
        <ele>1.7</ele>
        <time>2018-09-21T15:27:40.000Z</time>
      </trkpt>
      <trkpt lat="46.73122" lon="-2.36515">
        <ele>1.7</ele>
        <time>2018-09-21T15:27:41.000Z</time>
      </trkpt>
      <trkpt lat="46.73121" lon="-2.36514">
        <ele>1.7</ele>
        <time>2018-09-21T15:27:42.000Z</time>
      </trkpt>
      <trkpt lat="46.73121" lon="-2.36513">
        <ele>1.7</ele>
        <time>2018-09-21T15:27:43.000Z</time>
      </trkpt>
      <trkpt lat="46.7312" lon="-2.36512">
        <ele>1.7</ele>
        <time>2018-09-21T15:27:44.000Z</time>
      </trkpt>
      <trkpt lat="46.7312" lon="-2.3651">
        <ele>1.7</ele>
        <time>2018-09-21T15:27:45.000Z</time>
      </trkpt>
      <trkpt lat="46.7312" lon="-2.36509">
        <ele>1.7</ele>
        <time>2018-09-21T15:27:46.000Z</time>
      </trkpt>
      <trkpt lat="46.7312" lon="-2.36507">
        <ele>1.7</ele>
        <time>2018-09-21T15:27:47.000Z</time>
      </trkpt>
      <trkpt lat="46.7312" lon="-2.36506">
        <ele>1.7</ele>
        <time>2018-09-21T15:27:48.000Z</time>
      </trkpt>
      <trkpt lat="46.7312" lon="-2.36504">
        <ele>1.7</ele>
        <time>2018-09-21T15:27:49.000Z</time>
      </trkpt>
      <trkpt lat="46.7312" lon="-2.36503">
        <ele>1.7</ele>
        <time>2018-09-21T15:27:50.000Z</time>
      </trkpt>
      <trkpt lat="46.7312" lon="-2.36501">
        <ele>1.7</ele>
        <time>2018-09-21T15:27:51.000Z</time>
      </trkpt>
      <trkpt lat="46.7312" lon="-2.365">
        <ele>1.7</ele>
        <time>2018-09-21T15:27:52.000Z</time>
      </trkpt>
      <trkpt lat="46.7312" lon="-2.36499">
        <ele>1.7</ele>
        <time>2018-09-21T15:27:53.000Z</time>
      </trkpt>
      <trkpt lat="46.73119" lon="-2.36497">
        <ele>1.7</ele>
        <time>2018-09-21T15:27:54.000Z</time>
      </trkpt>
      <trkpt lat="46.73119" lon="-2.36496">
        <ele>1.7</ele>
        <time>2018-09-21T15:27:55.000Z</time>
      </trkpt>
      <trkpt lat="46.73119" lon="-2.36495">
        <ele>1.7</ele>
        <time>2018-09-21T15:27:56.000Z</time>
      </trkpt>
      <trkpt lat="46.73118" lon="-2.36494">
        <ele>1.7</ele>
        <time>2018-09-21T15:27:57.000Z</time>
      </trkpt>
      <trkpt lat="46.73117" lon="-2.36493">
        <ele>1.7</ele>
        <time>2018-09-21T15:27:58.000Z</time>
      </trkpt>
      <trkpt lat="46.73117" lon="-2.36492">
        <ele>1.7</ele>
        <time>2018-09-21T15:27:59.000Z</time>
      </trkpt>
      <trkpt lat="46.73116" lon="-2.36491">
        <ele>1.7</ele>
        <time>2018-09-21T15:28:00.000Z</time>
      </trkpt>
      <trkpt lat="46.73116" lon="-2.3649">
        <ele>1.7</ele>
        <time>2018-09-21T15:28:01.000Z</time>
      </trkpt>
      <trkpt lat="46.73115" lon="-2.36489">
        <ele>1.7</ele>
        <time>2018-09-21T15:28:02.000Z</time>
      </trkpt>
      <trkpt lat="46.73115" lon="-2.36488">
        <ele>1.7</ele>
        <time>2018-09-21T15:28:03.000Z</time>
      </trkpt>
      <trkpt lat="46.73114" lon="-2.36487">
        <ele>1.7</ele>
        <time>2018-09-21T15:28:04.000Z</time>
      </trkpt>
      <trkpt lat="46.73114" lon="-2.36486">
        <ele>1.7</ele>
        <time>2018-09-21T15:28:05.000Z</time>
      </trkpt>
      <trkpt lat="46.73113" lon="-2.36485">
        <ele>1.7</ele>
        <time>2018-09-21T15:28:06.000Z</time>
      </trkpt>
      <trkpt lat="46.73113" lon="-2.36484">
        <ele>1.7</ele>
        <time>2018-09-21T15:28:07.000Z</time>
      </trkpt>
      <trkpt lat="46.73113" lon="-2.36484">
        <ele>1.7</ele>
        <time>2018-09-21T15:28:08.000Z</time>
      </trkpt>
      <trkpt lat="46.73112" lon="-2.36483">
        <ele>1.7</ele>
        <time>2018-09-21T15:28:09.000Z</time>
      </trkpt>
      <trkpt lat="46.73112" lon="-2.36482">
        <ele>1.8</ele>
        <time>2018-09-21T15:28:10.000Z</time>
      </trkpt>
      <trkpt lat="46.73112" lon="-2.36481">
        <ele>1.8</ele>
        <time>2018-09-21T15:28:11.000Z</time>
      </trkpt>
      <trkpt lat="46.73111" lon="-2.36481">
        <ele>1.8</ele>
        <time>2018-09-21T15:28:12.000Z</time>
      </trkpt>
      <trkpt lat="46.7311" lon="-2.3648">
        <ele>1.8</ele>
        <time>2018-09-21T15:28:13.000Z</time>
      </trkpt>
      <trkpt lat="46.73109" lon="-2.36479">
        <ele>1.8</ele>
        <time>2018-09-21T15:28:14.000Z</time>
      </trkpt>
      <trkpt lat="46.73108" lon="-2.36479">
        <ele>1.8</ele>
        <time>2018-09-21T15:28:15.000Z</time>
      </trkpt>
      <trkpt lat="46.73107" lon="-2.36479">
        <ele>1.9</ele>
        <time>2018-09-21T15:28:16.000Z</time>
      </trkpt>
      <trkpt lat="46.73107" lon="-2.36478">
        <ele>1.9</ele>
        <time>2018-09-21T15:28:17.000Z</time>
      </trkpt>
      <trkpt lat="46.73106" lon="-2.36478">
        <ele>1.9</ele>
        <time>2018-09-21T15:28:18.000Z</time>
      </trkpt>
      <trkpt lat="46.73105" lon="-2.36478">
        <ele>2</ele>
        <time>2018-09-21T15:28:19.000Z</time>
      </trkpt>
      <trkpt lat="46.73104" lon="-2.36478">
        <ele>2</ele>
        <time>2018-09-21T15:28:20.000Z</time>
      </trkpt>
      <trkpt lat="46.73104" lon="-2.36478">
        <ele>2</ele>
        <time>2018-09-21T15:28:21.000Z</time>
      </trkpt>
      <trkpt lat="46.73103" lon="-2.36478">
        <ele>2</ele>
        <time>2018-09-21T15:28:22.000Z</time>
      </trkpt>
      <trkpt lat="46.73102" lon="-2.36478">
        <ele>2.1</ele>
        <time>2018-09-21T15:28:23.000Z</time>
      </trkpt>
      <trkpt lat="46.73102" lon="-2.36479">
        <ele>2.1</ele>
        <time>2018-09-21T15:28:24.000Z</time>
      </trkpt>
      <trkpt lat="46.73101" lon="-2.36479">
        <ele>2.1</ele>
        <time>2018-09-21T15:28:25.000Z</time>
      </trkpt>
      <trkpt lat="46.731" lon="-2.36479">
        <ele>2.1</ele>
        <time>2018-09-21T15:28:26.000Z</time>
      </trkpt>
      <trkpt lat="46.73099" lon="-2.36479">
        <ele>2.2</ele>
        <time>2018-09-21T15:28:27.000Z</time>
      </trkpt>
      <trkpt lat="46.73099" lon="-2.36479">
        <ele>2.2</ele>
        <time>2018-09-21T15:28:28.000Z</time>
      </trkpt>
      <trkpt lat="46.73098" lon="-2.36479">
        <ele>2.2</ele>
        <time>2018-09-21T15:28:29.000Z</time>
      </trkpt>
      <trkpt lat="46.73097" lon="-2.36479">
        <ele>2.3</ele>
        <time>2018-09-21T15:28:30.000Z</time>
      </trkpt>
      <trkpt lat="46.73096" lon="-2.36479">
        <ele>2.3</ele>
        <time>2018-09-21T15:28:31.000Z</time>
      </trkpt>
      <trkpt lat="46.73095" lon="-2.36479">
        <ele>2.3</ele>
        <time>2018-09-21T15:28:32.000Z</time>
      </trkpt>
      <trkpt lat="46.73095" lon="-2.36478">
        <ele>2.3</ele>
        <time>2018-09-21T15:28:33.000Z</time>
      </trkpt>
      <trkpt lat="46.73094" lon="-2.36478">
        <ele>2.4</ele>
        <time>2018-09-21T15:28:34.000Z</time>
      </trkpt>
      <trkpt lat="46.73093" lon="-2.36477">
        <ele>2.4</ele>
        <time>2018-09-21T15:28:35.000Z</time>
      </trkpt>
      <trkpt lat="46.73092" lon="-2.36477">
        <ele>2.4</ele>
        <time>2018-09-21T15:28:36.000Z</time>
      </trkpt>
      <trkpt lat="46.73092" lon="-2.36476">
        <ele>2.4</ele>
        <time>2018-09-21T15:28:37.000Z</time>
      </trkpt>
      <trkpt lat="46.73091" lon="-2.36475">
        <ele>2.4</ele>
        <time>2018-09-21T15:28:38.000Z</time>
      </trkpt>
      <trkpt lat="46.7309" lon="-2.36474">
        <ele>2.4</ele>
        <time>2018-09-21T15:28:39.000Z</time>
      </trkpt>
      <trkpt lat="46.7309" lon="-2.36473">
        <ele>2.5</ele>
        <time>2018-09-21T15:28:40.000Z</time>
      </trkpt>
      <trkpt lat="46.73089" lon="-2.36472">
        <ele>2.5</ele>
        <time>2018-09-21T15:28:41.000Z</time>
      </trkpt>
      <trkpt lat="46.73088" lon="-2.36471">
        <ele>2.5</ele>
        <time>2018-09-21T15:28:42.000Z</time>
      </trkpt>
      <trkpt lat="46.73088" lon="-2.3647">
        <ele>2.5</ele>
        <time>2018-09-21T15:28:43.000Z</time>
      </trkpt>
      <trkpt lat="46.73087" lon="-2.36468">
        <ele>2.5</ele>
        <time>2018-09-21T15:28:44.000Z</time>
      </trkpt>
      <trkpt lat="46.73087" lon="-2.36467">
        <ele>2.5</ele>
        <time>2018-09-21T15:28:45.000Z</time>
      </trkpt>
      <trkpt lat="46.73086" lon="-2.36466">
        <ele>2.5</ele>
        <time>2018-09-21T15:28:46.000Z</time>
      </trkpt>
      <trkpt lat="46.73086" lon="-2.36464">
        <ele>2.5</ele>
        <time>2018-09-21T15:28:47.000Z</time>
      </trkpt>
      <trkpt lat="46.73085" lon="-2.36463">
        <ele>2.5</ele>
        <time>2018-09-21T15:28:48.000Z</time>
      </trkpt>
      <trkpt lat="46.73085" lon="-2.36462">
        <ele>2.5</ele>
        <time>2018-09-21T15:28:49.000Z</time>
      </trkpt>
      <trkpt lat="46.73084" lon="-2.36461">
        <ele>2.5</ele>
        <time>2018-09-21T15:28:50.000Z</time>
      </trkpt>
      <trkpt lat="46.73083" lon="-2.36459">
        <ele>2.5</ele>
        <time>2018-09-21T15:28:51.000Z</time>
      </trkpt>
      <trkpt lat="46.73083" lon="-2.36458">
        <ele>2.5</ele>
        <time>2018-09-21T15:28:52.000Z</time>
      </trkpt>
      <trkpt lat="46.73082" lon="-2.36457">
        <ele>2.5</ele>
        <time>2018-09-21T15:28:53.000Z</time>
      </trkpt>
      <trkpt lat="46.73081" lon="-2.36456">
        <ele>2.5</ele>
        <time>2018-09-21T15:28:54.000Z</time>
      </trkpt>
      <trkpt lat="46.73081" lon="-2.36455">
        <ele>2.5</ele>
        <time>2018-09-21T15:28:55.000Z</time>
      </trkpt>
      <trkpt lat="46.7308" lon="-2.36454">
        <ele>2.5</ele>
        <time>2018-09-21T15:28:56.000Z</time>
      </trkpt>
      <trkpt lat="46.73079" lon="-2.36453">
        <ele>2.5</ele>
        <time>2018-09-21T15:28:57.000Z</time>
      </trkpt>
      <trkpt lat="46.73078" lon="-2.36452">
        <ele>2.5</ele>
        <time>2018-09-21T15:28:58.000Z</time>
      </trkpt>
      <trkpt lat="46.73078" lon="-2.36451">
        <ele>2.5</ele>
        <time>2018-09-21T15:28:59.000Z</time>
      </trkpt>
      <trkpt lat="46.73077" lon="-2.3645">
        <ele>2.5</ele>
        <time>2018-09-21T15:29:00.000Z</time>
      </trkpt>
      <trkpt lat="46.73076" lon="-2.36449">
        <ele>2.5</ele>
        <time>2018-09-21T15:29:01.000Z</time>
      </trkpt>
      <trkpt lat="46.73075" lon="-2.36448">
        <ele>2.5</ele>
        <time>2018-09-21T15:29:02.000Z</time>
      </trkpt>
      <trkpt lat="46.73074" lon="-2.36447">
        <ele>2.5</ele>
        <time>2018-09-21T15:29:03.000Z</time>
      </trkpt>
      <trkpt lat="46.73074" lon="-2.36446">
        <ele>2.5</ele>
        <time>2018-09-21T15:29:04.000Z</time>
      </trkpt>
      <trkpt lat="46.73073" lon="-2.36445">
        <ele>2.5</ele>
        <time>2018-09-21T15:29:05.000Z</time>
      </trkpt>
      <trkpt lat="46.73072" lon="-2.36444">
        <ele>2.5</ele>
        <time>2018-09-21T15:29:06.000Z</time>
      </trkpt>
      <trkpt lat="46.73071" lon="-2.36443">
        <ele>2.5</ele>
        <time>2018-09-21T15:29:07.000Z</time>
      </trkpt>
      <trkpt lat="46.7307" lon="-2.36441">
        <ele>2.5</ele>
        <time>2018-09-21T15:29:08.000Z</time>
      </trkpt>
      <trkpt lat="46.7307" lon="-2.3644">
        <ele>2.5</ele>
        <time>2018-09-21T15:29:09.000Z</time>
      </trkpt>
      <trkpt lat="46.73069" lon="-2.36439">
        <ele>2.5</ele>
        <time>2018-09-21T15:29:10.000Z</time>
      </trkpt>
      <trkpt lat="46.73068" lon="-2.36438">
        <ele>2.5</ele>
        <time>2018-09-21T15:29:11.000Z</time>
      </trkpt>
      <trkpt lat="46.73067" lon="-2.36437">
        <ele>2.5</ele>
        <time>2018-09-21T15:29:12.000Z</time>
      </trkpt>
      <trkpt lat="46.73066" lon="-2.36436">
        <ele>2.5</ele>
        <time>2018-09-21T15:29:13.000Z</time>
      </trkpt>
      <trkpt lat="46.73066" lon="-2.36435">
        <ele>2.5</ele>
        <time>2018-09-21T15:29:14.000Z</time>
      </trkpt>
      <trkpt lat="46.73065" lon="-2.36434">
        <ele>2.5</ele>
        <time>2018-09-21T15:29:15.000Z</time>
      </trkpt>
      <trkpt lat="46.73064" lon="-2.36433">
        <ele>2.5</ele>
        <time>2018-09-21T15:29:16.000Z</time>
      </trkpt>
      <trkpt lat="46.73063" lon="-2.36431">
        <ele>2.5</ele>
        <time>2018-09-21T15:29:17.000Z</time>
      </trkpt>
      <trkpt lat="46.73062" lon="-2.3643">
        <ele>2.5</ele>
        <time>2018-09-21T15:29:18.000Z</time>
      </trkpt>
      <trkpt lat="46.73062" lon="-2.36429">
        <ele>2.6</ele>
        <time>2018-09-21T15:29:19.000Z</time>
      </trkpt>
      <trkpt lat="46.73061" lon="-2.36428">
        <ele>2.6</ele>
        <time>2018-09-21T15:29:20.000Z</time>
      </trkpt>
      <trkpt lat="46.7306" lon="-2.36427">
        <ele>2.6</ele>
        <time>2018-09-21T15:29:21.000Z</time>
      </trkpt>
      <trkpt lat="46.73059" lon="-2.36426">
        <ele>2.6</ele>
        <time>2018-09-21T15:29:22.000Z</time>
      </trkpt>
      <trkpt lat="46.73059" lon="-2.36424">
        <ele>2.6</ele>
        <time>2018-09-21T15:29:23.000Z</time>
      </trkpt>
      <trkpt lat="46.73058" lon="-2.36423">
        <ele>2.6</ele>
        <time>2018-09-21T15:29:24.000Z</time>
      </trkpt>
      <trkpt lat="46.73057" lon="-2.36422">
        <ele>2.6</ele>
        <time>2018-09-21T15:29:25.000Z</time>
      </trkpt>
      <trkpt lat="46.73056" lon="-2.36421">
        <ele>2.7</ele>
        <time>2018-09-21T15:29:26.000Z</time>
      </trkpt>
      <trkpt lat="46.73056" lon="-2.3642">
        <ele>2.7</ele>
        <time>2018-09-21T15:29:27.000Z</time>
      </trkpt>
      <trkpt lat="46.73055" lon="-2.36418">
        <ele>2.7</ele>
        <time>2018-09-21T15:29:28.000Z</time>
      </trkpt>
      <trkpt lat="46.73054" lon="-2.36417">
        <ele>2.7</ele>
        <time>2018-09-21T15:29:29.000Z</time>
      </trkpt>
      <trkpt lat="46.73053" lon="-2.36416">
        <ele>2.7</ele>
        <time>2018-09-21T15:29:30.000Z</time>
      </trkpt>
      <trkpt lat="46.73053" lon="-2.36415">
        <ele>2.7</ele>
        <time>2018-09-21T15:29:31.000Z</time>
      </trkpt>
      <trkpt lat="46.73052" lon="-2.36413">
        <ele>2.8</ele>
        <time>2018-09-21T15:29:32.000Z</time>
      </trkpt>
      <trkpt lat="46.73051" lon="-2.36412">
        <ele>2.8</ele>
        <time>2018-09-21T15:29:33.000Z</time>
      </trkpt>
      <trkpt lat="46.73051" lon="-2.36411">
        <ele>2.8</ele>
        <time>2018-09-21T15:29:34.000Z</time>
      </trkpt>
      <trkpt lat="46.7305" lon="-2.3641">
        <ele>2.8</ele>
        <time>2018-09-21T15:29:35.000Z</time>
      </trkpt>
      <trkpt lat="46.7305" lon="-2.36408">
        <ele>2.8</ele>
        <time>2018-09-21T15:29:36.000Z</time>
      </trkpt>
      <trkpt lat="46.73049" lon="-2.36407">
        <ele>2.9</ele>
        <time>2018-09-21T15:29:37.000Z</time>
      </trkpt>
      <trkpt lat="46.73048" lon="-2.36406">
        <ele>2.9</ele>
        <time>2018-09-21T15:29:38.000Z</time>
      </trkpt>
      <trkpt lat="46.73048" lon="-2.36404">
        <ele>2.9</ele>
        <time>2018-09-21T15:29:39.000Z</time>
      </trkpt>
      <trkpt lat="46.73047" lon="-2.36403">
        <ele>2.9</ele>
        <time>2018-09-21T15:29:40.000Z</time>
      </trkpt>
      <trkpt lat="46.73047" lon="-2.36401">
        <ele>2.9</ele>
        <time>2018-09-21T15:29:41.000Z</time>
      </trkpt>
      <trkpt lat="46.73046" lon="-2.364">
        <ele>3</ele>
        <time>2018-09-21T15:29:42.000Z</time>
      </trkpt>
      <trkpt lat="46.73046" lon="-2.36399">
        <ele>3</ele>
        <time>2018-09-21T15:29:43.000Z</time>
      </trkpt>
      <trkpt lat="46.73046" lon="-2.36397">
        <ele>3</ele>
        <time>2018-09-21T15:29:44.000Z</time>
      </trkpt>
      <trkpt lat="46.73045" lon="-2.36396">
        <ele>3</ele>
        <time>2018-09-21T15:29:45.000Z</time>
      </trkpt>
      <trkpt lat="46.73045" lon="-2.36394">
        <ele>3</ele>
        <time>2018-09-21T15:29:46.000Z</time>
      </trkpt>
      <trkpt lat="46.73044" lon="-2.36393">
        <ele>3</ele>
        <time>2018-09-21T15:29:47.000Z</time>
      </trkpt>
      <trkpt lat="46.73044" lon="-2.36391">
        <ele>3.1</ele>
        <time>2018-09-21T15:29:48.000Z</time>
      </trkpt>
      <trkpt lat="46.73044" lon="-2.3639">
        <ele>3.1</ele>
        <time>2018-09-21T15:29:49.000Z</time>
      </trkpt>
      <trkpt lat="46.73044" lon="-2.36388">
        <ele>3.1</ele>
        <time>2018-09-21T15:29:50.000Z</time>
      </trkpt>
      <trkpt lat="46.73043" lon="-2.36387">
        <ele>3.1</ele>
        <time>2018-09-21T15:29:51.000Z</time>
      </trkpt>
      <trkpt lat="46.73043" lon="-2.36385">
        <ele>3.1</ele>
        <time>2018-09-21T15:29:52.000Z</time>
      </trkpt>
      <trkpt lat="46.73043" lon="-2.36383">
        <ele>3.2</ele>
        <time>2018-09-21T15:29:53.000Z</time>
      </trkpt>
      <trkpt lat="46.73042" lon="-2.36382">
        <ele>3.2</ele>
        <time>2018-09-21T15:29:54.000Z</time>
      </trkpt>
      <trkpt lat="46.73042" lon="-2.3638">
        <ele>3.2</ele>
        <time>2018-09-21T15:29:55.000Z</time>
      </trkpt>
      <trkpt lat="46.73041" lon="-2.36378">
        <ele>3.2</ele>
        <time>2018-09-21T15:29:56.000Z</time>
      </trkpt>
      <trkpt lat="46.73041" lon="-2.36376">
        <ele>3.3</ele>
        <time>2018-09-21T15:29:57.000Z</time>
      </trkpt>
      <trkpt lat="46.7304" lon="-2.36374">
        <ele>3.3</ele>
        <time>2018-09-21T15:29:58.000Z</time>
      </trkpt>
      <trkpt lat="46.7304" lon="-2.36372">
        <ele>3.4</ele>
        <time>2018-09-21T15:29:59.000Z</time>
      </trkpt>
      <trkpt lat="46.73039" lon="-2.36371">
        <ele>3.4</ele>
        <time>2018-09-21T15:30:00.000Z</time>
      </trkpt>
      <trkpt lat="46.73039" lon="-2.36369">
        <ele>3.4</ele>
        <time>2018-09-21T15:30:01.000Z</time>
      </trkpt>
      <trkpt lat="46.73038" lon="-2.36368">
        <ele>3.5</ele>
        <time>2018-09-21T15:30:02.000Z</time>
      </trkpt>
      <trkpt lat="46.73038" lon="-2.36366">
        <ele>3.5</ele>
        <time>2018-09-21T15:30:03.000Z</time>
      </trkpt>
      <trkpt lat="46.73038" lon="-2.36365">
        <ele>3.5</ele>
        <time>2018-09-21T15:30:04.000Z</time>
      </trkpt>
      <trkpt lat="46.73038" lon="-2.36365">
        <ele>3.5</ele>
        <time>2018-09-21T15:30:05.000Z</time>
      </trkpt>
      <trkpt lat="46.73038" lon="-2.36364">
        <ele>3.5</ele>
        <time>2018-09-21T15:30:06.000Z</time>
      </trkpt>
      <trkpt lat="46.73037" lon="-2.36363">
        <ele>3.5</ele>
        <time>2018-09-21T15:30:07.000Z</time>
      </trkpt>
      <trkpt lat="46.73037" lon="-2.36362">
        <ele>3.5</ele>
        <time>2018-09-21T15:30:08.000Z</time>
      </trkpt>
      <trkpt lat="46.73037" lon="-2.36361">
        <ele>3.6</ele>
        <time>2018-09-21T15:30:09.000Z</time>
      </trkpt>
      <trkpt lat="46.73037" lon="-2.36359">
        <ele>3.6</ele>
        <time>2018-09-21T15:30:10.000Z</time>
      </trkpt>
      <trkpt lat="46.73036" lon="-2.36358">
        <ele>3.6</ele>
        <time>2018-09-21T15:30:11.000Z</time>
      </trkpt>
      <trkpt lat="46.73036" lon="-2.36357">
        <ele>3.7</ele>
        <time>2018-09-21T15:30:12.000Z</time>
      </trkpt>
      <trkpt lat="46.73035" lon="-2.36356">
        <ele>3.7</ele>
        <time>2018-09-21T15:30:13.000Z</time>
      </trkpt>
      <trkpt lat="46.73035" lon="-2.36355">
        <ele>3.7</ele>
        <time>2018-09-21T15:30:14.000Z</time>
      </trkpt>
      <trkpt lat="46.73034" lon="-2.36353">
        <ele>3.8</ele>
        <time>2018-09-21T15:30:15.000Z</time>
      </trkpt>
      <trkpt lat="46.73034" lon="-2.36352">
        <ele>3.8</ele>
        <time>2018-09-21T15:30:16.000Z</time>
      </trkpt>
      <trkpt lat="46.73033" lon="-2.36351">
        <ele>3.8</ele>
        <time>2018-09-21T15:30:17.000Z</time>
      </trkpt>
      <trkpt lat="46.73033" lon="-2.36349">
        <ele>3.9</ele>
        <time>2018-09-21T15:30:18.000Z</time>
      </trkpt>
      <trkpt lat="46.73032" lon="-2.36348">
        <ele>3.9</ele>
        <time>2018-09-21T15:30:19.000Z</time>
      </trkpt>
      <trkpt lat="46.73032" lon="-2.36347">
        <ele>3.9</ele>
        <time>2018-09-21T15:30:20.000Z</time>
      </trkpt>
      <trkpt lat="46.73032" lon="-2.36346">
        <ele>4</ele>
        <time>2018-09-21T15:30:21.000Z</time>
      </trkpt>
      <trkpt lat="46.73031" lon="-2.36344">
        <ele>4</ele>
        <time>2018-09-21T15:30:22.000Z</time>
      </trkpt>
      <trkpt lat="46.73031" lon="-2.36343">
        <ele>4</ele>
        <time>2018-09-21T15:30:23.000Z</time>
      </trkpt>
      <trkpt lat="46.7303" lon="-2.36342">
        <ele>4.1</ele>
        <time>2018-09-21T15:30:24.000Z</time>
      </trkpt>
      <trkpt lat="46.7303" lon="-2.36341">
        <ele>4.1</ele>
        <time>2018-09-21T15:30:25.000Z</time>
      </trkpt>
      <trkpt lat="46.7303" lon="-2.36339">
        <ele>4.2</ele>
        <time>2018-09-21T15:30:26.000Z</time>
      </trkpt>
      <trkpt lat="46.73029" lon="-2.36338">
        <ele>4.2</ele>
        <time>2018-09-21T15:30:27.000Z</time>
      </trkpt>
      <trkpt lat="46.73029" lon="-2.36337">
        <ele>4.2</ele>
        <time>2018-09-21T15:30:28.000Z</time>
      </trkpt>
      <trkpt lat="46.73028" lon="-2.36336">
        <ele>4.3</ele>
        <time>2018-09-21T15:30:29.000Z</time>
      </trkpt>
      <trkpt lat="46.73028" lon="-2.36334">
        <ele>4.3</ele>
        <time>2018-09-21T15:30:30.000Z</time>
      </trkpt>
      <trkpt lat="46.73027" lon="-2.36333">
        <ele>4.4</ele>
        <time>2018-09-21T15:30:31.000Z</time>
      </trkpt>
      <trkpt lat="46.73027" lon="-2.36332">
        <ele>4.4</ele>
        <time>2018-09-21T15:30:32.000Z</time>
      </trkpt>
      <trkpt lat="46.73026" lon="-2.3633">
        <ele>4.4</ele>
        <time>2018-09-21T15:30:33.000Z</time>
      </trkpt>
      <trkpt lat="46.73026" lon="-2.36329">
        <ele>4.4</ele>
        <time>2018-09-21T15:30:34.000Z</time>
      </trkpt>
      <trkpt lat="46.73026" lon="-2.36328">
        <ele>4.4</ele>
        <time>2018-09-21T15:30:35.000Z</time>
      </trkpt>
      <trkpt lat="46.73025" lon="-2.36326">
        <ele>4.5</ele>
        <time>2018-09-21T15:30:36.000Z</time>
      </trkpt>
      <trkpt lat="46.73025" lon="-2.36325">
        <ele>4.5</ele>
        <time>2018-09-21T15:30:37.000Z</time>
      </trkpt>
      <trkpt lat="46.73024" lon="-2.36324">
        <ele>4.5</ele>
        <time>2018-09-21T15:30:38.000Z</time>
      </trkpt>
      <trkpt lat="46.73024" lon="-2.36322">
        <ele>4.5</ele>
        <time>2018-09-21T15:30:39.000Z</time>
      </trkpt>
      <trkpt lat="46.73023" lon="-2.36321">
        <ele>4.6</ele>
        <time>2018-09-21T15:30:40.000Z</time>
      </trkpt>
      <trkpt lat="46.73023" lon="-2.36319">
        <ele>4.6</ele>
        <time>2018-09-21T15:30:41.000Z</time>
      </trkpt>
      <trkpt lat="46.73022" lon="-2.36318">
        <ele>4.6</ele>
        <time>2018-09-21T15:30:42.000Z</time>
      </trkpt>
      <trkpt lat="46.73022" lon="-2.36317">
        <ele>4.6</ele>
        <time>2018-09-21T15:30:43.000Z</time>
      </trkpt>
      <trkpt lat="46.73021" lon="-2.36315">
        <ele>4.7</ele>
        <time>2018-09-21T15:30:44.000Z</time>
      </trkpt>
      <trkpt lat="46.73021" lon="-2.36313">
        <ele>4.7</ele>
        <time>2018-09-21T15:30:45.000Z</time>
      </trkpt>
      <trkpt lat="46.73021" lon="-2.36312">
        <ele>4.7</ele>
        <time>2018-09-21T15:30:46.000Z</time>
      </trkpt>
      <trkpt lat="46.7302" lon="-2.3631">
        <ele>4.7</ele>
        <time>2018-09-21T15:30:47.000Z</time>
      </trkpt>
      <trkpt lat="46.7302" lon="-2.36309">
        <ele>4.7</ele>
        <time>2018-09-21T15:30:48.000Z</time>
      </trkpt>
      <trkpt lat="46.73019" lon="-2.36307">
        <ele>4.8</ele>
        <time>2018-09-21T15:30:49.000Z</time>
      </trkpt>
      <trkpt lat="46.73019" lon="-2.36305">
        <ele>4.8</ele>
        <time>2018-09-21T15:30:50.000Z</time>
      </trkpt>
      <trkpt lat="46.73019" lon="-2.36304">
        <ele>4.8</ele>
        <time>2018-09-21T15:30:51.000Z</time>
      </trkpt>
      <trkpt lat="46.73018" lon="-2.36302">
        <ele>4.8</ele>
        <time>2018-09-21T15:30:52.000Z</time>
      </trkpt>
      <trkpt lat="46.73018" lon="-2.363">
        <ele>4.9</ele>
        <time>2018-09-21T15:30:53.000Z</time>
      </trkpt>
      <trkpt lat="46.73017" lon="-2.36299">
        <ele>4.9</ele>
        <time>2018-09-21T15:30:54.000Z</time>
      </trkpt>
      <trkpt lat="46.73017" lon="-2.36297">
        <ele>4.9</ele>
        <time>2018-09-21T15:30:55.000Z</time>
      </trkpt>
      <trkpt lat="46.73016" lon="-2.36295">
        <ele>4.9</ele>
        <time>2018-09-21T15:30:56.000Z</time>
      </trkpt>
      <trkpt lat="46.73016" lon="-2.36294">
        <ele>5</ele>
        <time>2018-09-21T15:30:57.000Z</time>
      </trkpt>
      <trkpt lat="46.73015" lon="-2.36292">
        <ele>5</ele>
        <time>2018-09-21T15:30:58.000Z</time>
      </trkpt>
      <trkpt lat="46.73015" lon="-2.3629">
        <ele>5</ele>
        <time>2018-09-21T15:30:59.000Z</time>
      </trkpt>
      <trkpt lat="46.73014" lon="-2.36289">
        <ele>5.1</ele>
        <time>2018-09-21T15:31:00.000Z</time>
      </trkpt>
      <trkpt lat="46.73013" lon="-2.36287">
        <ele>5.1</ele>
        <time>2018-09-21T15:31:01.000Z</time>
      </trkpt>
      <trkpt lat="46.73013" lon="-2.36286">
        <ele>5.2</ele>
        <time>2018-09-21T15:31:02.000Z</time>
      </trkpt>
      <trkpt lat="46.73012" lon="-2.36284">
        <ele>5.2</ele>
        <time>2018-09-21T15:31:03.000Z</time>
      </trkpt>
      <trkpt lat="46.73011" lon="-2.36283">
        <ele>5.2</ele>
        <time>2018-09-21T15:31:04.000Z</time>
      </trkpt>
      <trkpt lat="46.73011" lon="-2.36281">
        <ele>5.3</ele>
        <time>2018-09-21T15:31:05.000Z</time>
      </trkpt>
      <trkpt lat="46.7301" lon="-2.3628">
        <ele>5.3</ele>
        <time>2018-09-21T15:31:06.000Z</time>
      </trkpt>
      <trkpt lat="46.73009" lon="-2.36278">
        <ele>5.4</ele>
        <time>2018-09-21T15:31:07.000Z</time>
      </trkpt>
      <trkpt lat="46.73008" lon="-2.36277">
        <ele>5.4</ele>
        <time>2018-09-21T15:31:08.000Z</time>
      </trkpt>
      <trkpt lat="46.73008" lon="-2.36275">
        <ele>5.5</ele>
        <time>2018-09-21T15:31:09.000Z</time>
      </trkpt>
      <trkpt lat="46.73007" lon="-2.36274">
        <ele>5.5</ele>
        <time>2018-09-21T15:31:10.000Z</time>
      </trkpt>
      <trkpt lat="46.73006" lon="-2.36273">
        <ele>5.6</ele>
        <time>2018-09-21T15:31:11.000Z</time>
      </trkpt>
      <trkpt lat="46.73006" lon="-2.36271">
        <ele>5.6</ele>
        <time>2018-09-21T15:31:12.000Z</time>
      </trkpt>
      <trkpt lat="46.73006" lon="-2.3627">
        <ele>5.6</ele>
        <time>2018-09-21T15:31:13.000Z</time>
      </trkpt>
      <trkpt lat="46.73005" lon="-2.36268">
        <ele>5.7</ele>
        <time>2018-09-21T15:31:14.000Z</time>
      </trkpt>
      <trkpt lat="46.73005" lon="-2.36267">
        <ele>5.7</ele>
        <time>2018-09-21T15:31:15.000Z</time>
      </trkpt>
      <trkpt lat="46.73004" lon="-2.36265">
        <ele>5.7</ele>
        <time>2018-09-21T15:31:16.000Z</time>
      </trkpt>
      <trkpt lat="46.73004" lon="-2.36264">
        <ele>5.7</ele>
        <time>2018-09-21T15:31:17.000Z</time>
      </trkpt>
      <trkpt lat="46.73004" lon="-2.36262">
        <ele>5.8</ele>
        <time>2018-09-21T15:31:18.000Z</time>
      </trkpt>
      <trkpt lat="46.73003" lon="-2.36261">
        <ele>5.8</ele>
        <time>2018-09-21T15:31:19.000Z</time>
      </trkpt>
      <trkpt lat="46.73003" lon="-2.3626">
        <ele>5.8</ele>
        <time>2018-09-21T15:31:20.000Z</time>
      </trkpt>
      <trkpt lat="46.73002" lon="-2.36258">
        <ele>5.9</ele>
        <time>2018-09-21T15:31:21.000Z</time>
      </trkpt>
      <trkpt lat="46.73002" lon="-2.36257">
        <ele>5.9</ele>
        <time>2018-09-21T15:31:22.000Z</time>
      </trkpt>
      <trkpt lat="46.73001" lon="-2.36256">
        <ele>5.9</ele>
        <time>2018-09-21T15:31:23.000Z</time>
      </trkpt>
      <trkpt lat="46.73" lon="-2.36255">
        <ele>6</ele>
        <time>2018-09-21T15:31:24.000Z</time>
      </trkpt>
      <trkpt lat="46.72999" lon="-2.36253">
        <ele>6</ele>
        <time>2018-09-21T15:31:25.000Z</time>
      </trkpt>
      <trkpt lat="46.72998" lon="-2.36252">
        <ele>6</ele>
        <time>2018-09-21T15:31:26.000Z</time>
      </trkpt>
      <trkpt lat="46.72997" lon="-2.36251">
        <ele>6</ele>
        <time>2018-09-21T15:31:27.000Z</time>
      </trkpt>
      <trkpt lat="46.72996" lon="-2.3625">
        <ele>6</ele>
        <time>2018-09-21T15:31:28.000Z</time>
      </trkpt>
      <trkpt lat="46.72995" lon="-2.36249">
        <ele>6</ele>
        <time>2018-09-21T15:31:29.000Z</time>
      </trkpt>
      <trkpt lat="46.72995" lon="-2.36248">
        <ele>5.9</ele>
        <time>2018-09-21T15:31:30.000Z</time>
      </trkpt>
      <trkpt lat="46.72994" lon="-2.36246">
        <ele>5.9</ele>
        <time>2018-09-21T15:31:31.000Z</time>
      </trkpt>
      <trkpt lat="46.72993" lon="-2.36245">
        <ele>5.8</ele>
        <time>2018-09-21T15:31:32.000Z</time>
      </trkpt>
      <trkpt lat="46.72992" lon="-2.36244">
        <ele>5.8</ele>
        <time>2018-09-21T15:31:33.000Z</time>
      </trkpt>
      <trkpt lat="46.72991" lon="-2.36243">
        <ele>5.7</ele>
        <time>2018-09-21T15:31:34.000Z</time>
      </trkpt>
      <trkpt lat="46.7299" lon="-2.36241">
        <ele>5.7</ele>
        <time>2018-09-21T15:31:35.000Z</time>
      </trkpt>
      <trkpt lat="46.72989" lon="-2.3624">
        <ele>5.7</ele>
        <time>2018-09-21T15:31:36.000Z</time>
      </trkpt>
      <trkpt lat="46.72988" lon="-2.36239">
        <ele>5.6</ele>
        <time>2018-09-21T15:31:37.000Z</time>
      </trkpt>
      <trkpt lat="46.72987" lon="-2.36238">
        <ele>5.6</ele>
        <time>2018-09-21T15:31:38.000Z</time>
      </trkpt>
      <trkpt lat="46.72987" lon="-2.36237">
        <ele>5.5</ele>
        <time>2018-09-21T15:31:39.000Z</time>
      </trkpt>
      <trkpt lat="46.72986" lon="-2.36236">
        <ele>5.5</ele>
        <time>2018-09-21T15:31:40.000Z</time>
      </trkpt>
      <trkpt lat="46.72985" lon="-2.36234">
        <ele>5.5</ele>
        <time>2018-09-21T15:31:41.000Z</time>
      </trkpt>
      <trkpt lat="46.72984" lon="-2.36233">
        <ele>5.4</ele>
        <time>2018-09-21T15:31:42.000Z</time>
      </trkpt>
      <trkpt lat="46.72983" lon="-2.36232">
        <ele>5.4</ele>
        <time>2018-09-21T15:31:43.000Z</time>
      </trkpt>
      <trkpt lat="46.72983" lon="-2.36231">
        <ele>5.4</ele>
        <time>2018-09-21T15:31:44.000Z</time>
      </trkpt>
      <trkpt lat="46.72982" lon="-2.3623">
        <ele>5.3</ele>
        <time>2018-09-21T15:31:45.000Z</time>
      </trkpt>
      <trkpt lat="46.72981" lon="-2.36229">
        <ele>5.3</ele>
        <time>2018-09-21T15:31:46.000Z</time>
      </trkpt>
      <trkpt lat="46.72981" lon="-2.36227">
        <ele>5.2</ele>
        <time>2018-09-21T15:31:47.000Z</time>
      </trkpt>
      <trkpt lat="46.7298" lon="-2.36226">
        <ele>5.2</ele>
        <time>2018-09-21T15:31:48.000Z</time>
      </trkpt>
      <trkpt lat="46.7298" lon="-2.36224">
        <ele>5.2</ele>
        <time>2018-09-21T15:31:49.000Z</time>
      </trkpt>
      <trkpt lat="46.72979" lon="-2.36223">
        <ele>5.1</ele>
        <time>2018-09-21T15:31:50.000Z</time>
      </trkpt>
      <trkpt lat="46.72978" lon="-2.36221">
        <ele>5</ele>
        <time>2018-09-21T15:31:51.000Z</time>
      </trkpt>
      <trkpt lat="46.72978" lon="-2.36219">
        <ele>5</ele>
        <time>2018-09-21T15:31:52.000Z</time>
      </trkpt>
      <trkpt lat="46.72977" lon="-2.36218">
        <ele>4.9</ele>
        <time>2018-09-21T15:31:53.000Z</time>
      </trkpt>
      <trkpt lat="46.72977" lon="-2.36216">
        <ele>4.9</ele>
        <time>2018-09-21T15:31:54.000Z</time>
      </trkpt>
      <trkpt lat="46.72977" lon="-2.36215">
        <ele>4.9</ele>
        <time>2018-09-21T15:31:55.000Z</time>
      </trkpt>
      <trkpt lat="46.72977" lon="-2.36214">
        <ele>4.8</ele>
        <time>2018-09-21T15:31:56.000Z</time>
      </trkpt>
      <trkpt lat="46.72977" lon="-2.36214">
        <ele>4.8</ele>
        <time>2018-09-21T15:31:57.000Z</time>
      </trkpt>
      <trkpt lat="46.72976" lon="-2.36214">
        <ele>4.8</ele>
        <time>2018-09-21T15:31:58.000Z</time>
      </trkpt>
      <trkpt lat="46.72976" lon="-2.36213">
        <ele>4.8</ele>
        <time>2018-09-21T15:31:59.000Z</time>
      </trkpt>
      <trkpt lat="46.72976" lon="-2.36213">
        <ele>4.8</ele>
        <time>2018-09-21T15:32:00.000Z</time>
      </trkpt>
      <trkpt lat="46.72976" lon="-2.36212">
        <ele>4.8</ele>
        <time>2018-09-21T15:32:01.000Z</time>
      </trkpt>
      <trkpt lat="46.72976" lon="-2.36212">
        <ele>4.7</ele>
        <time>2018-09-21T15:32:02.000Z</time>
      </trkpt>
      <trkpt lat="46.72976" lon="-2.36211">
        <ele>4.7</ele>
        <time>2018-09-21T15:32:03.000Z</time>
      </trkpt>
      <trkpt lat="46.72976" lon="-2.3621">
        <ele>4.7</ele>
        <time>2018-09-21T15:32:04.000Z</time>
      </trkpt>
      <trkpt lat="46.72975" lon="-2.36208">
        <ele>4.6</ele>
        <time>2018-09-21T15:32:05.000Z</time>
      </trkpt>
      <trkpt lat="46.72975" lon="-2.36207">
        <ele>4.6</ele>
        <time>2018-09-21T15:32:06.000Z</time>
      </trkpt>
      <trkpt lat="46.72975" lon="-2.36206">
        <ele>4.6</ele>
        <time>2018-09-21T15:32:07.000Z</time>
      </trkpt>
      <trkpt lat="46.72974" lon="-2.36204">
        <ele>4.5</ele>
        <time>2018-09-21T15:32:08.000Z</time>
      </trkpt>
      <trkpt lat="46.72974" lon="-2.36203">
        <ele>4.5</ele>
        <time>2018-09-21T15:32:09.000Z</time>
      </trkpt>
      <trkpt lat="46.72974" lon="-2.36201">
        <ele>4.4</ele>
        <time>2018-09-21T15:32:10.000Z</time>
      </trkpt>
      <trkpt lat="46.72973" lon="-2.362">
        <ele>4.4</ele>
        <time>2018-09-21T15:32:11.000Z</time>
      </trkpt>
      <trkpt lat="46.72973" lon="-2.36198">
        <ele>4.3</ele>
        <time>2018-09-21T15:32:12.000Z</time>
      </trkpt>
      <trkpt lat="46.72972" lon="-2.36197">
        <ele>4.3</ele>
        <time>2018-09-21T15:32:13.000Z</time>
      </trkpt>
      <trkpt lat="46.72972" lon="-2.36195">
        <ele>4.2</ele>
        <time>2018-09-21T15:32:14.000Z</time>
      </trkpt>
      <trkpt lat="46.72971" lon="-2.36193">
        <ele>4.2</ele>
        <time>2018-09-21T15:32:15.000Z</time>
      </trkpt>
      <trkpt lat="46.72971" lon="-2.36192">
        <ele>4.1</ele>
        <time>2018-09-21T15:32:16.000Z</time>
      </trkpt>
      <trkpt lat="46.7297" lon="-2.3619">
        <ele>4.1</ele>
        <time>2018-09-21T15:32:17.000Z</time>
      </trkpt>
      <trkpt lat="46.7297" lon="-2.36189">
        <ele>4.1</ele>
        <time>2018-09-21T15:32:18.000Z</time>
      </trkpt>
      <trkpt lat="46.72969" lon="-2.36187">
        <ele>4</ele>
        <time>2018-09-21T15:32:19.000Z</time>
      </trkpt>
      <trkpt lat="46.72969" lon="-2.36186">
        <ele>4</ele>
        <time>2018-09-21T15:32:20.000Z</time>
      </trkpt>
      <trkpt lat="46.72968" lon="-2.36184">
        <ele>3.9</ele>
        <time>2018-09-21T15:32:21.000Z</time>
      </trkpt>
      <trkpt lat="46.72968" lon="-2.36183">
        <ele>3.9</ele>
        <time>2018-09-21T15:32:22.000Z</time>
      </trkpt>
      <trkpt lat="46.72967" lon="-2.36181">
        <ele>3.8</ele>
        <time>2018-09-21T15:32:23.000Z</time>
      </trkpt>
      <trkpt lat="46.72966" lon="-2.36179">
        <ele>3.8</ele>
        <time>2018-09-21T15:32:24.000Z</time>
      </trkpt>
      <trkpt lat="46.72966" lon="-2.36178">
        <ele>3.8</ele>
        <time>2018-09-21T15:32:25.000Z</time>
      </trkpt>
      <trkpt lat="46.72965" lon="-2.36176">
        <ele>3.7</ele>
        <time>2018-09-21T15:32:26.000Z</time>
      </trkpt>
      <trkpt lat="46.72965" lon="-2.36175">
        <ele>3.7</ele>
        <time>2018-09-21T15:32:27.000Z</time>
      </trkpt>
      <trkpt lat="46.72964" lon="-2.36173">
        <ele>3.6</ele>
        <time>2018-09-21T15:32:28.000Z</time>
      </trkpt>
      <trkpt lat="46.72963" lon="-2.36172">
        <ele>3.6</ele>
        <time>2018-09-21T15:32:29.000Z</time>
      </trkpt>
      <trkpt lat="46.72963" lon="-2.3617">
        <ele>3.6</ele>
        <time>2018-09-21T15:32:30.000Z</time>
      </trkpt>
      <trkpt lat="46.72962" lon="-2.36169">
        <ele>3.5</ele>
        <time>2018-09-21T15:32:31.000Z</time>
      </trkpt>
      <trkpt lat="46.72962" lon="-2.36167">
        <ele>3.5</ele>
        <time>2018-09-21T15:32:32.000Z</time>
      </trkpt>
      <trkpt lat="46.72961" lon="-2.36166">
        <ele>3.4</ele>
        <time>2018-09-21T15:32:33.000Z</time>
      </trkpt>
      <trkpt lat="46.7296" lon="-2.36164">
        <ele>3.4</ele>
        <time>2018-09-21T15:32:34.000Z</time>
      </trkpt>
      <trkpt lat="46.7296" lon="-2.36163">
        <ele>3.4</ele>
        <time>2018-09-21T15:32:35.000Z</time>
      </trkpt>
      <trkpt lat="46.72959" lon="-2.36161">
        <ele>3.3</ele>
        <time>2018-09-21T15:32:36.000Z</time>
      </trkpt>
      <trkpt lat="46.72958" lon="-2.3616">
        <ele>3.3</ele>
        <time>2018-09-21T15:32:37.000Z</time>
      </trkpt>
      <trkpt lat="46.72958" lon="-2.36158">
        <ele>3.3</ele>
        <time>2018-09-21T15:32:38.000Z</time>
      </trkpt>
      <trkpt lat="46.72957" lon="-2.36157">
        <ele>3.2</ele>
        <time>2018-09-21T15:32:39.000Z</time>
      </trkpt>
      <trkpt lat="46.72956" lon="-2.36155">
        <ele>3.2</ele>
        <time>2018-09-21T15:32:40.000Z</time>
      </trkpt>
      <trkpt lat="46.72956" lon="-2.36154">
        <ele>3.2</ele>
        <time>2018-09-21T15:32:41.000Z</time>
      </trkpt>
      <trkpt lat="46.72955" lon="-2.36153">
        <ele>3.1</ele>
        <time>2018-09-21T15:32:42.000Z</time>
      </trkpt>
      <trkpt lat="46.72954" lon="-2.36151">
        <ele>3.1</ele>
        <time>2018-09-21T15:32:43.000Z</time>
      </trkpt>
      <trkpt lat="46.72954" lon="-2.3615">
        <ele>3.1</ele>
        <time>2018-09-21T15:32:44.000Z</time>
      </trkpt>
      <trkpt lat="46.72953" lon="-2.36148">
        <ele>3</ele>
        <time>2018-09-21T15:32:45.000Z</time>
      </trkpt>
      <trkpt lat="46.72952" lon="-2.36147">
        <ele>3</ele>
        <time>2018-09-21T15:32:46.000Z</time>
      </trkpt>
      <trkpt lat="46.72952" lon="-2.36146">
        <ele>3</ele>
        <time>2018-09-21T15:32:47.000Z</time>
      </trkpt>
      <trkpt lat="46.72951" lon="-2.36144">
        <ele>2.9</ele>
        <time>2018-09-21T15:32:48.000Z</time>
      </trkpt>
      <trkpt lat="46.72951" lon="-2.36143">
        <ele>2.9</ele>
        <time>2018-09-21T15:32:49.000Z</time>
      </trkpt>
      <trkpt lat="46.7295" lon="-2.36141">
        <ele>2.9</ele>
        <time>2018-09-21T15:32:50.000Z</time>
      </trkpt>
      <trkpt lat="46.72949" lon="-2.3614">
        <ele>2.8</ele>
        <time>2018-09-21T15:32:51.000Z</time>
      </trkpt>
      <trkpt lat="46.72949" lon="-2.36139">
        <ele>2.8</ele>
        <time>2018-09-21T15:32:52.000Z</time>
      </trkpt>
      <trkpt lat="46.72948" lon="-2.36137">
        <ele>2.8</ele>
        <time>2018-09-21T15:32:53.000Z</time>
      </trkpt>
      <trkpt lat="46.72947" lon="-2.36136">
        <ele>2.8</ele>
        <time>2018-09-21T15:32:54.000Z</time>
      </trkpt>
      <trkpt lat="46.72947" lon="-2.36135">
        <ele>2.7</ele>
        <time>2018-09-21T15:32:55.000Z</time>
      </trkpt>
      <trkpt lat="46.72946" lon="-2.36133">
        <ele>2.7</ele>
        <time>2018-09-21T15:32:56.000Z</time>
      </trkpt>
      <trkpt lat="46.72945" lon="-2.36132">
        <ele>2.7</ele>
        <time>2018-09-21T15:32:57.000Z</time>
      </trkpt>
      <trkpt lat="46.72945" lon="-2.36131">
        <ele>2.6</ele>
        <time>2018-09-21T15:32:58.000Z</time>
      </trkpt>
      <trkpt lat="46.72944" lon="-2.36129">
        <ele>2.6</ele>
        <time>2018-09-21T15:32:59.000Z</time>
      </trkpt>
      <trkpt lat="46.72944" lon="-2.36128">
        <ele>2.6</ele>
        <time>2018-09-21T15:33:00.000Z</time>
      </trkpt>
      <trkpt lat="46.72943" lon="-2.36127">
        <ele>2.6</ele>
        <time>2018-09-21T15:33:01.000Z</time>
      </trkpt>
      <trkpt lat="46.72942" lon="-2.36125">
        <ele>2.5</ele>
        <time>2018-09-21T15:33:02.000Z</time>
      </trkpt>
      <trkpt lat="46.72942" lon="-2.36124">
        <ele>2.5</ele>
        <time>2018-09-21T15:33:03.000Z</time>
      </trkpt>
      <trkpt lat="46.72941" lon="-2.36122">
        <ele>2.5</ele>
        <time>2018-09-21T15:33:04.000Z</time>
      </trkpt>
      <trkpt lat="46.72941" lon="-2.36121">
        <ele>2.5</ele>
        <time>2018-09-21T15:33:05.000Z</time>
      </trkpt>
      <trkpt lat="46.7294" lon="-2.3612">
        <ele>2.4</ele>
        <time>2018-09-21T15:33:06.000Z</time>
      </trkpt>
      <trkpt lat="46.72939" lon="-2.36118">
        <ele>2.4</ele>
        <time>2018-09-21T15:33:07.000Z</time>
      </trkpt>
      <trkpt lat="46.72939" lon="-2.36117">
        <ele>2.4</ele>
        <time>2018-09-21T15:33:08.000Z</time>
      </trkpt>
      <trkpt lat="46.72938" lon="-2.36115">
        <ele>2.3</ele>
        <time>2018-09-21T15:33:09.000Z</time>
      </trkpt>
      <trkpt lat="46.72938" lon="-2.36114">
        <ele>2.3</ele>
        <time>2018-09-21T15:33:10.000Z</time>
      </trkpt>
      <trkpt lat="46.72937" lon="-2.36112">
        <ele>2.3</ele>
        <time>2018-09-21T15:33:11.000Z</time>
      </trkpt>
      <trkpt lat="46.72936" lon="-2.36111">
        <ele>2.3</ele>
        <time>2018-09-21T15:33:12.000Z</time>
      </trkpt>
      <trkpt lat="46.72936" lon="-2.36109">
        <ele>2.2</ele>
        <time>2018-09-21T15:33:13.000Z</time>
      </trkpt>
      <trkpt lat="46.72935" lon="-2.36108">
        <ele>2.2</ele>
        <time>2018-09-21T15:33:14.000Z</time>
      </trkpt>
      <trkpt lat="46.72935" lon="-2.36106">
        <ele>2.2</ele>
        <time>2018-09-21T15:33:15.000Z</time>
      </trkpt>
      <trkpt lat="46.72934" lon="-2.36105">
        <ele>2.2</ele>
        <time>2018-09-21T15:33:16.000Z</time>
      </trkpt>
      <trkpt lat="46.72933" lon="-2.36104">
        <ele>2.1</ele>
        <time>2018-09-21T15:33:17.000Z</time>
      </trkpt>
      <trkpt lat="46.72933" lon="-2.36103">
        <ele>2.1</ele>
        <time>2018-09-21T15:33:18.000Z</time>
      </trkpt>
      <trkpt lat="46.72932" lon="-2.36101">
        <ele>2.1</ele>
        <time>2018-09-21T15:33:19.000Z</time>
      </trkpt>
      <trkpt lat="46.72932" lon="-2.361">
        <ele>2.1</ele>
        <time>2018-09-21T15:33:20.000Z</time>
      </trkpt>
      <trkpt lat="46.72931" lon="-2.36099">
        <ele>2.1</ele>
        <time>2018-09-21T15:33:21.000Z</time>
      </trkpt>
      <trkpt lat="46.7293" lon="-2.36098">
        <ele>2</ele>
        <time>2018-09-21T15:33:22.000Z</time>
      </trkpt>
      <trkpt lat="46.7293" lon="-2.36096">
        <ele>2</ele>
        <time>2018-09-21T15:33:23.000Z</time>
      </trkpt>
      <trkpt lat="46.72929" lon="-2.36095">
        <ele>2</ele>
        <time>2018-09-21T15:33:24.000Z</time>
      </trkpt>
      <trkpt lat="46.72928" lon="-2.36094">
        <ele>2</ele>
        <time>2018-09-21T15:33:25.000Z</time>
      </trkpt>
      <trkpt lat="46.72928" lon="-2.36092">
        <ele>2</ele>
        <time>2018-09-21T15:33:26.000Z</time>
      </trkpt>
      <trkpt lat="46.72927" lon="-2.36091">
        <ele>1.9</ele>
        <time>2018-09-21T15:33:27.000Z</time>
      </trkpt>
      <trkpt lat="46.72926" lon="-2.36089">
        <ele>1.9</ele>
        <time>2018-09-21T15:33:28.000Z</time>
      </trkpt>
      <trkpt lat="46.72926" lon="-2.36087">
        <ele>1.9</ele>
        <time>2018-09-21T15:33:29.000Z</time>
      </trkpt>
      <trkpt lat="46.72925" lon="-2.36086">
        <ele>1.9</ele>
        <time>2018-09-21T15:33:30.000Z</time>
      </trkpt>
      <trkpt lat="46.72924" lon="-2.36084">
        <ele>1.8</ele>
        <time>2018-09-21T15:33:31.000Z</time>
      </trkpt>
      <trkpt lat="46.72923" lon="-2.36082">
        <ele>1.9</ele>
        <time>2018-09-21T15:33:32.000Z</time>
      </trkpt>
      <trkpt lat="46.72923" lon="-2.36081">
        <ele>1.9</ele>
        <time>2018-09-21T15:33:33.000Z</time>
      </trkpt>
      <trkpt lat="46.72922" lon="-2.36079">
        <ele>1.9</ele>
        <time>2018-09-21T15:33:34.000Z</time>
      </trkpt>
      <trkpt lat="46.72921" lon="-2.36078">
        <ele>2</ele>
        <time>2018-09-21T15:33:35.000Z</time>
      </trkpt>
      <trkpt lat="46.7292" lon="-2.36076">
        <ele>2</ele>
        <time>2018-09-21T15:33:36.000Z</time>
      </trkpt>
      <trkpt lat="46.7292" lon="-2.36075">
        <ele>2</ele>
        <time>2018-09-21T15:33:37.000Z</time>
      </trkpt>
      <trkpt lat="46.72919" lon="-2.36073">
        <ele>2.1</ele>
        <time>2018-09-21T15:33:38.000Z</time>
      </trkpt>
      <trkpt lat="46.72919" lon="-2.36072">
        <ele>2.1</ele>
        <time>2018-09-21T15:33:39.000Z</time>
      </trkpt>
      <trkpt lat="46.72918" lon="-2.36071">
        <ele>2.1</ele>
        <time>2018-09-21T15:33:40.000Z</time>
      </trkpt>
      <trkpt lat="46.72917" lon="-2.36069">
        <ele>2.1</ele>
        <time>2018-09-21T15:33:41.000Z</time>
      </trkpt>
      <trkpt lat="46.72917" lon="-2.36068">
        <ele>2.2</ele>
        <time>2018-09-21T15:33:42.000Z</time>
      </trkpt>
      <trkpt lat="46.72916" lon="-2.36067">
        <ele>2.2</ele>
        <time>2018-09-21T15:33:43.000Z</time>
      </trkpt>
      <trkpt lat="46.72916" lon="-2.36065">
        <ele>2.2</ele>
        <time>2018-09-21T15:33:44.000Z</time>
      </trkpt>
      <trkpt lat="46.72915" lon="-2.36064">
        <ele>2.3</ele>
        <time>2018-09-21T15:33:45.000Z</time>
      </trkpt>
      <trkpt lat="46.72915" lon="-2.36062">
        <ele>2.3</ele>
        <time>2018-09-21T15:33:46.000Z</time>
      </trkpt>
      <trkpt lat="46.72914" lon="-2.36061">
        <ele>2.3</ele>
        <time>2018-09-21T15:33:47.000Z</time>
      </trkpt>
      <trkpt lat="46.72914" lon="-2.36059">
        <ele>2.4</ele>
        <time>2018-09-21T15:33:48.000Z</time>
      </trkpt>
      <trkpt lat="46.72914" lon="-2.36058">
        <ele>2.4</ele>
        <time>2018-09-21T15:33:49.000Z</time>
      </trkpt>
      <trkpt lat="46.72913" lon="-2.36056">
        <ele>2.4</ele>
        <time>2018-09-21T15:33:50.000Z</time>
      </trkpt>
      <trkpt lat="46.72913" lon="-2.36055">
        <ele>2.5</ele>
        <time>2018-09-21T15:33:51.000Z</time>
      </trkpt>
      <trkpt lat="46.72912" lon="-2.36053">
        <ele>2.5</ele>
        <time>2018-09-21T15:33:52.000Z</time>
      </trkpt>
      <trkpt lat="46.72911" lon="-2.36051">
        <ele>2.5</ele>
        <time>2018-09-21T15:33:53.000Z</time>
      </trkpt>
      <trkpt lat="46.72911" lon="-2.3605">
        <ele>2.6</ele>
        <time>2018-09-21T15:33:54.000Z</time>
      </trkpt>
      <trkpt lat="46.7291" lon="-2.36048">
        <ele>2.6</ele>
        <time>2018-09-21T15:33:55.000Z</time>
      </trkpt>
      <trkpt lat="46.7291" lon="-2.36047">
        <ele>2.6</ele>
        <time>2018-09-21T15:33:56.000Z</time>
      </trkpt>
      <trkpt lat="46.72909" lon="-2.36045">
        <ele>2.7</ele>
        <time>2018-09-21T15:33:57.000Z</time>
      </trkpt>
      <trkpt lat="46.72908" lon="-2.36044">
        <ele>2.7</ele>
        <time>2018-09-21T15:33:58.000Z</time>
      </trkpt>
      <trkpt lat="46.72908" lon="-2.36043">
        <ele>2.8</ele>
        <time>2018-09-21T15:33:59.000Z</time>
      </trkpt>
      <trkpt lat="46.72907" lon="-2.36041">
        <ele>2.8</ele>
        <time>2018-09-21T15:34:00.000Z</time>
      </trkpt>
      <trkpt lat="46.72906" lon="-2.3604">
        <ele>2.8</ele>
        <time>2018-09-21T15:34:01.000Z</time>
      </trkpt>
      <trkpt lat="46.72906" lon="-2.36039">
        <ele>2.9</ele>
        <time>2018-09-21T15:34:02.000Z</time>
      </trkpt>
      <trkpt lat="46.72905" lon="-2.36038">
        <ele>2.9</ele>
        <time>2018-09-21T15:34:03.000Z</time>
      </trkpt>
      <trkpt lat="46.72905" lon="-2.36036">
        <ele>2.9</ele>
        <time>2018-09-21T15:34:04.000Z</time>
      </trkpt>
      <trkpt lat="46.72904" lon="-2.36035">
        <ele>3</ele>
        <time>2018-09-21T15:34:05.000Z</time>
      </trkpt>
      <trkpt lat="46.72904" lon="-2.36034">
        <ele>3</ele>
        <time>2018-09-21T15:34:06.000Z</time>
      </trkpt>
      <trkpt lat="46.72903" lon="-2.36033">
        <ele>3</ele>
        <time>2018-09-21T15:34:07.000Z</time>
      </trkpt>
      <trkpt lat="46.72902" lon="-2.36032">
        <ele>3.1</ele>
        <time>2018-09-21T15:34:08.000Z</time>
      </trkpt>
      <trkpt lat="46.72902" lon="-2.36031">
        <ele>3.1</ele>
        <time>2018-09-21T15:34:09.000Z</time>
      </trkpt>
      <trkpt lat="46.72901" lon="-2.3603">
        <ele>3.1</ele>
        <time>2018-09-21T15:34:10.000Z</time>
      </trkpt>
      <trkpt lat="46.729" lon="-2.36029">
        <ele>3.2</ele>
        <time>2018-09-21T15:34:11.000Z</time>
      </trkpt>
      <trkpt lat="46.729" lon="-2.36028">
        <ele>3.2</ele>
        <time>2018-09-21T15:34:12.000Z</time>
      </trkpt>
      <trkpt lat="46.72899" lon="-2.36027">
        <ele>3.2</ele>
        <time>2018-09-21T15:34:13.000Z</time>
      </trkpt>
      <trkpt lat="46.72899" lon="-2.36025">
        <ele>3.3</ele>
        <time>2018-09-21T15:34:14.000Z</time>
      </trkpt>
      <trkpt lat="46.72898" lon="-2.36024">
        <ele>3.3</ele>
        <time>2018-09-21T15:34:15.000Z</time>
      </trkpt>
      <trkpt lat="46.72898" lon="-2.36023">
        <ele>3.3</ele>
        <time>2018-09-21T15:34:16.000Z</time>
      </trkpt>
      <trkpt lat="46.72898" lon="-2.36021">
        <ele>3.3</ele>
        <time>2018-09-21T15:34:17.000Z</time>
      </trkpt>
      <trkpt lat="46.72898" lon="-2.3602">
        <ele>3.4</ele>
        <time>2018-09-21T15:34:18.000Z</time>
      </trkpt>
      <trkpt lat="46.72899" lon="-2.36019">
        <ele>3.4</ele>
        <time>2018-09-21T15:34:19.000Z</time>
      </trkpt>
      <trkpt lat="46.72899" lon="-2.36017">
        <ele>3.4</ele>
        <time>2018-09-21T15:34:20.000Z</time>
      </trkpt>
      <trkpt lat="46.72899" lon="-2.36016">
        <ele>3.4</ele>
        <time>2018-09-21T15:34:21.000Z</time>
      </trkpt>
      <trkpt lat="46.729" lon="-2.36015">
        <ele>3.4</ele>
        <time>2018-09-21T15:34:22.000Z</time>
      </trkpt>
      <trkpt lat="46.729" lon="-2.36013">
        <ele>3.4</ele>
        <time>2018-09-21T15:34:23.000Z</time>
      </trkpt>
      <trkpt lat="46.72901" lon="-2.36012">
        <ele>3.4</ele>
        <time>2018-09-21T15:34:24.000Z</time>
      </trkpt>
      <trkpt lat="46.72901" lon="-2.36011">
        <ele>3.4</ele>
        <time>2018-09-21T15:34:25.000Z</time>
      </trkpt>
      <trkpt lat="46.72902" lon="-2.36009">
        <ele>3.4</ele>
        <time>2018-09-21T15:34:26.000Z</time>
      </trkpt>
      <trkpt lat="46.72903" lon="-2.36008">
        <ele>3.4</ele>
        <time>2018-09-21T15:34:27.000Z</time>
      </trkpt>
      <trkpt lat="46.72904" lon="-2.36007">
        <ele>3.4</ele>
        <time>2018-09-21T15:34:28.000Z</time>
      </trkpt>
      <trkpt lat="46.72905" lon="-2.36006">
        <ele>3.4</ele>
        <time>2018-09-21T15:34:29.000Z</time>
      </trkpt>
      <trkpt lat="46.72905" lon="-2.36005">
        <ele>3.3</ele>
        <time>2018-09-21T15:34:30.000Z</time>
      </trkpt>
      <trkpt lat="46.72906" lon="-2.36003">
        <ele>3.3</ele>
        <time>2018-09-21T15:34:31.000Z</time>
      </trkpt>
      <trkpt lat="46.72907" lon="-2.36002">
        <ele>3.3</ele>
        <time>2018-09-21T15:34:32.000Z</time>
      </trkpt>
      <trkpt lat="46.72908" lon="-2.36001">
        <ele>3.3</ele>
        <time>2018-09-21T15:34:33.000Z</time>
      </trkpt>
      <trkpt lat="46.72909" lon="-2.36">
        <ele>3.3</ele>
        <time>2018-09-21T15:34:34.000Z</time>
      </trkpt>
      <trkpt lat="46.7291" lon="-2.35999">
        <ele>3.3</ele>
        <time>2018-09-21T15:34:35.000Z</time>
      </trkpt>
      <trkpt lat="46.72911" lon="-2.35998">
        <ele>3.2</ele>
        <time>2018-09-21T15:34:36.000Z</time>
      </trkpt>
      <trkpt lat="46.72912" lon="-2.35997">
        <ele>3.2</ele>
        <time>2018-09-21T15:34:37.000Z</time>
      </trkpt>
      <trkpt lat="46.72913" lon="-2.35997">
        <ele>3.2</ele>
        <time>2018-09-21T15:34:38.000Z</time>
      </trkpt>
      <trkpt lat="46.72914" lon="-2.35996">
        <ele>3.2</ele>
        <time>2018-09-21T15:34:39.000Z</time>
      </trkpt>
      <trkpt lat="46.72915" lon="-2.35995">
        <ele>3.2</ele>
        <time>2018-09-21T15:34:40.000Z</time>
      </trkpt>
      <trkpt lat="46.72915" lon="-2.35994">
        <ele>3.2</ele>
        <time>2018-09-21T15:34:41.000Z</time>
      </trkpt>
      <trkpt lat="46.72916" lon="-2.35993">
        <ele>3.2</ele>
        <time>2018-09-21T15:34:42.000Z</time>
      </trkpt>
      <trkpt lat="46.72917" lon="-2.35992">
        <ele>3.2</ele>
        <time>2018-09-21T15:34:43.000Z</time>
      </trkpt>
      <trkpt lat="46.72918" lon="-2.35992">
        <ele>3.2</ele>
        <time>2018-09-21T15:34:44.000Z</time>
      </trkpt>
      <trkpt lat="46.72919" lon="-2.35991">
        <ele>3.1</ele>
        <time>2018-09-21T15:34:45.000Z</time>
      </trkpt>
      <trkpt lat="46.7292" lon="-2.3599">
        <ele>3.1</ele>
        <time>2018-09-21T15:34:46.000Z</time>
      </trkpt>
      <trkpt lat="46.72921" lon="-2.35989">
        <ele>3.1</ele>
        <time>2018-09-21T15:34:47.000Z</time>
      </trkpt>
      <trkpt lat="46.72921" lon="-2.35988">
        <ele>3.1</ele>
        <time>2018-09-21T15:34:48.000Z</time>
      </trkpt>
      <trkpt lat="46.72922" lon="-2.35987">
        <ele>3.1</ele>
        <time>2018-09-21T15:34:49.000Z</time>
      </trkpt>
      <trkpt lat="46.72923" lon="-2.35987">
        <ele>3.1</ele>
        <time>2018-09-21T15:34:50.000Z</time>
      </trkpt>
      <trkpt lat="46.72924" lon="-2.35986">
        <ele>3.1</ele>
        <time>2018-09-21T15:34:51.000Z</time>
      </trkpt>
      <trkpt lat="46.72925" lon="-2.35985">
        <ele>3</ele>
        <time>2018-09-21T15:34:52.000Z</time>
      </trkpt>
      <trkpt lat="46.72926" lon="-2.35984">
        <ele>3</ele>
        <time>2018-09-21T15:34:53.000Z</time>
      </trkpt>
      <trkpt lat="46.72927" lon="-2.35983">
        <ele>3</ele>
        <time>2018-09-21T15:34:54.000Z</time>
      </trkpt>
      <trkpt lat="46.72927" lon="-2.35982">
        <ele>3</ele>
        <time>2018-09-21T15:34:55.000Z</time>
      </trkpt>
      <trkpt lat="46.72928" lon="-2.35981">
        <ele>3</ele>
        <time>2018-09-21T15:34:56.000Z</time>
      </trkpt>
      <trkpt lat="46.72929" lon="-2.3598">
        <ele>3</ele>
        <time>2018-09-21T15:34:57.000Z</time>
      </trkpt>
      <trkpt lat="46.7293" lon="-2.35979">
        <ele>3</ele>
        <time>2018-09-21T15:34:58.000Z</time>
      </trkpt>
      <trkpt lat="46.72931" lon="-2.35977">
        <ele>2.9</ele>
        <time>2018-09-21T15:34:59.000Z</time>
      </trkpt>
      <trkpt lat="46.72932" lon="-2.35976">
        <ele>2.9</ele>
        <time>2018-09-21T15:35:00.000Z</time>
      </trkpt>
      <trkpt lat="46.72933" lon="-2.35975">
        <ele>2.9</ele>
        <time>2018-09-21T15:35:01.000Z</time>
      </trkpt>
      <trkpt lat="46.72934" lon="-2.35974">
        <ele>2.9</ele>
        <time>2018-09-21T15:35:02.000Z</time>
      </trkpt>
      <trkpt lat="46.72934" lon="-2.35973">
        <ele>2.9</ele>
        <time>2018-09-21T15:35:03.000Z</time>
      </trkpt>
      <trkpt lat="46.72935" lon="-2.35972">
        <ele>2.9</ele>
        <time>2018-09-21T15:35:04.000Z</time>
      </trkpt>
      <trkpt lat="46.72936" lon="-2.3597">
        <ele>2.8</ele>
        <time>2018-09-21T15:35:05.000Z</time>
      </trkpt>
      <trkpt lat="46.72937" lon="-2.35969">
        <ele>2.8</ele>
        <time>2018-09-21T15:35:06.000Z</time>
      </trkpt>
      <trkpt lat="46.72938" lon="-2.35968">
        <ele>2.8</ele>
        <time>2018-09-21T15:35:07.000Z</time>
      </trkpt>
      <trkpt lat="46.72939" lon="-2.35967">
        <ele>2.8</ele>
        <time>2018-09-21T15:35:08.000Z</time>
      </trkpt>
      <trkpt lat="46.72939" lon="-2.35966">
        <ele>2.8</ele>
        <time>2018-09-21T15:35:09.000Z</time>
      </trkpt>
      <trkpt lat="46.7294" lon="-2.35964">
        <ele>2.8</ele>
        <time>2018-09-21T15:35:10.000Z</time>
      </trkpt>
      <trkpt lat="46.72941" lon="-2.35963">
        <ele>2.7</ele>
        <time>2018-09-21T15:35:11.000Z</time>
      </trkpt>
      <trkpt lat="46.72942" lon="-2.35962">
        <ele>2.7</ele>
        <time>2018-09-21T15:35:12.000Z</time>
      </trkpt>
      <trkpt lat="46.72943" lon="-2.35961">
        <ele>2.7</ele>
        <time>2018-09-21T15:35:13.000Z</time>
      </trkpt>
      <trkpt lat="46.72943" lon="-2.3596">
        <ele>2.7</ele>
        <time>2018-09-21T15:35:14.000Z</time>
      </trkpt>
      <trkpt lat="46.72944" lon="-2.35958">
        <ele>2.7</ele>
        <time>2018-09-21T15:35:15.000Z</time>
      </trkpt>
      <trkpt lat="46.72945" lon="-2.35957">
        <ele>2.7</ele>
        <time>2018-09-21T15:35:16.000Z</time>
      </trkpt>
      <trkpt lat="46.72946" lon="-2.35956">
        <ele>2.7</ele>
        <time>2018-09-21T15:35:17.000Z</time>
      </trkpt>
      <trkpt lat="46.72946" lon="-2.35955">
        <ele>2.6</ele>
        <time>2018-09-21T15:35:18.000Z</time>
      </trkpt>
      <trkpt lat="46.72947" lon="-2.35954">
        <ele>2.6</ele>
        <time>2018-09-21T15:35:19.000Z</time>
      </trkpt>
      <trkpt lat="46.72948" lon="-2.35952">
        <ele>2.6</ele>
        <time>2018-09-21T15:35:20.000Z</time>
      </trkpt>
      <trkpt lat="46.72949" lon="-2.35951">
        <ele>2.6</ele>
        <time>2018-09-21T15:35:21.000Z</time>
      </trkpt>
      <trkpt lat="46.72949" lon="-2.3595">
        <ele>2.6</ele>
        <time>2018-09-21T15:35:22.000Z</time>
      </trkpt>
      <trkpt lat="46.7295" lon="-2.35949">
        <ele>2.5</ele>
        <time>2018-09-21T15:35:23.000Z</time>
      </trkpt>
      <trkpt lat="46.72951" lon="-2.35948">
        <ele>2.5</ele>
        <time>2018-09-21T15:35:24.000Z</time>
      </trkpt>
      <trkpt lat="46.72952" lon="-2.35946">
        <ele>2.5</ele>
        <time>2018-09-21T15:35:25.000Z</time>
      </trkpt>
      <trkpt lat="46.72953" lon="-2.35945">
        <ele>2.4</ele>
        <time>2018-09-21T15:35:26.000Z</time>
      </trkpt>
      <trkpt lat="46.72954" lon="-2.35944">
        <ele>2.4</ele>
        <time>2018-09-21T15:35:27.000Z</time>
      </trkpt>
      <trkpt lat="46.72955" lon="-2.35943">
        <ele>2.4</ele>
        <time>2018-09-21T15:35:28.000Z</time>
      </trkpt>
      <trkpt lat="46.72956" lon="-2.35942">
        <ele>2.3</ele>
        <time>2018-09-21T15:35:29.000Z</time>
      </trkpt>
      <trkpt lat="46.72957" lon="-2.3594">
        <ele>2.3</ele>
        <time>2018-09-21T15:35:30.000Z</time>
      </trkpt>
      <trkpt lat="46.72958" lon="-2.35939">
        <ele>2.3</ele>
        <time>2018-09-21T15:35:31.000Z</time>
      </trkpt>
      <trkpt lat="46.72959" lon="-2.35938">
        <ele>2.2</ele>
        <time>2018-09-21T15:35:32.000Z</time>
      </trkpt>
      <trkpt lat="46.7296" lon="-2.35937">
        <ele>2.2</ele>
        <time>2018-09-21T15:35:33.000Z</time>
      </trkpt>
      <trkpt lat="46.72961" lon="-2.35935">
        <ele>2.2</ele>
        <time>2018-09-21T15:35:34.000Z</time>
      </trkpt>
      <trkpt lat="46.72961" lon="-2.35934">
        <ele>2.1</ele>
        <time>2018-09-21T15:35:35.000Z</time>
      </trkpt>
      <trkpt lat="46.72962" lon="-2.35933">
        <ele>2.1</ele>
        <time>2018-09-21T15:35:36.000Z</time>
      </trkpt>
      <trkpt lat="46.72963" lon="-2.35932">
        <ele>2.1</ele>
        <time>2018-09-21T15:35:37.000Z</time>
      </trkpt>
      <trkpt lat="46.72964" lon="-2.3593">
        <ele>2</ele>
        <time>2018-09-21T15:35:38.000Z</time>
      </trkpt>
      <trkpt lat="46.72964" lon="-2.35929">
        <ele>2</ele>
        <time>2018-09-21T15:35:39.000Z</time>
      </trkpt>
      <trkpt lat="46.72965" lon="-2.35927">
        <ele>2</ele>
        <time>2018-09-21T15:35:40.000Z</time>
      </trkpt>
      <trkpt lat="46.72966" lon="-2.35926">
        <ele>2</ele>
        <time>2018-09-21T15:35:41.000Z</time>
      </trkpt>
      <trkpt lat="46.72966" lon="-2.35924">
        <ele>2</ele>
        <time>2018-09-21T15:35:42.000Z</time>
      </trkpt>
      <trkpt lat="46.72966" lon="-2.35923">
        <ele>2</ele>
        <time>2018-09-21T15:35:43.000Z</time>
      </trkpt>
      <trkpt lat="46.72967" lon="-2.35921">
        <ele>2</ele>
        <time>2018-09-21T15:35:44.000Z</time>
      </trkpt>
      <trkpt lat="46.72967" lon="-2.35919">
        <ele>2</ele>
        <time>2018-09-21T15:35:45.000Z</time>
      </trkpt>
      <trkpt lat="46.72967" lon="-2.35917">
        <ele>2</ele>
        <time>2018-09-21T15:35:46.000Z</time>
      </trkpt>
      <trkpt lat="46.72967" lon="-2.35916">
        <ele>2</ele>
        <time>2018-09-21T15:35:47.000Z</time>
      </trkpt>
      <trkpt lat="46.72968" lon="-2.35914">
        <ele>2</ele>
        <time>2018-09-21T15:35:48.000Z</time>
      </trkpt>
      <trkpt lat="46.72968" lon="-2.35912">
        <ele>1.9</ele>
        <time>2018-09-21T15:35:49.000Z</time>
      </trkpt>
      <trkpt lat="46.72968" lon="-2.3591">
        <ele>1.9</ele>
        <time>2018-09-21T15:35:50.000Z</time>
      </trkpt>
      <trkpt lat="46.72968" lon="-2.35908">
        <ele>1.9</ele>
        <time>2018-09-21T15:35:51.000Z</time>
      </trkpt>
      <trkpt lat="46.72968" lon="-2.35906">
        <ele>1.9</ele>
        <time>2018-09-21T15:35:52.000Z</time>
      </trkpt>
      <trkpt lat="46.72969" lon="-2.35905">
        <ele>1.9</ele>
        <time>2018-09-21T15:35:53.000Z</time>
      </trkpt>
      <trkpt lat="46.72969" lon="-2.35903">
        <ele>1.9</ele>
        <time>2018-09-21T15:35:54.000Z</time>
      </trkpt>
      <trkpt lat="46.72969" lon="-2.35901">
        <ele>1.9</ele>
        <time>2018-09-21T15:35:55.000Z</time>
      </trkpt>
      <trkpt lat="46.72969" lon="-2.35899">
        <ele>1.9</ele>
        <time>2018-09-21T15:35:56.000Z</time>
      </trkpt>
      <trkpt lat="46.7297" lon="-2.35898">
        <ele>1.9</ele>
        <time>2018-09-21T15:35:57.000Z</time>
      </trkpt>
      <trkpt lat="46.7297" lon="-2.35896">
        <ele>1.9</ele>
        <time>2018-09-21T15:35:58.000Z</time>
      </trkpt>
      <trkpt lat="46.7297" lon="-2.35895">
        <ele>1.9</ele>
        <time>2018-09-21T15:35:59.000Z</time>
      </trkpt>
      <trkpt lat="46.72971" lon="-2.35893">
        <ele>1.8</ele>
        <time>2018-09-21T15:36:00.000Z</time>
      </trkpt>
      <trkpt lat="46.72971" lon="-2.35892">
        <ele>1.8</ele>
        <time>2018-09-21T15:36:01.000Z</time>
      </trkpt>
      <trkpt lat="46.72971" lon="-2.35891">
        <ele>1.8</ele>
        <time>2018-09-21T15:36:02.000Z</time>
      </trkpt>
      <trkpt lat="46.72972" lon="-2.35889">
        <ele>1.8</ele>
        <time>2018-09-21T15:36:03.000Z</time>
      </trkpt>
      <trkpt lat="46.72972" lon="-2.35888">
        <ele>1.8</ele>
        <time>2018-09-21T15:36:04.000Z</time>
      </trkpt>
      <trkpt lat="46.72972" lon="-2.35886">
        <ele>1.8</ele>
        <time>2018-09-21T15:36:05.000Z</time>
      </trkpt>
      <trkpt lat="46.72973" lon="-2.35885">
        <ele>1.8</ele>
        <time>2018-09-21T15:36:06.000Z</time>
      </trkpt>
      <trkpt lat="46.72973" lon="-2.35884">
        <ele>1.8</ele>
        <time>2018-09-21T15:36:07.000Z</time>
      </trkpt>
      <trkpt lat="46.72973" lon="-2.35882">
        <ele>1.8</ele>
        <time>2018-09-21T15:36:08.000Z</time>
      </trkpt>
      <trkpt lat="46.72973" lon="-2.35881">
        <ele>1.8</ele>
        <time>2018-09-21T15:36:09.000Z</time>
      </trkpt>
      <trkpt lat="46.72974" lon="-2.35879">
        <ele>1.8</ele>
        <time>2018-09-21T15:36:10.000Z</time>
      </trkpt>
      <trkpt lat="46.72974" lon="-2.35878">
        <ele>1.8</ele>
        <time>2018-09-21T15:36:11.000Z</time>
      </trkpt>
      <trkpt lat="46.72974" lon="-2.35877">
        <ele>1.8</ele>
        <time>2018-09-21T15:36:12.000Z</time>
      </trkpt>
      <trkpt lat="46.72974" lon="-2.35875">
        <ele>1.8</ele>
        <time>2018-09-21T15:36:13.000Z</time>
      </trkpt>
      <trkpt lat="46.72974" lon="-2.35874">
        <ele>1.8</ele>
        <time>2018-09-21T15:36:14.000Z</time>
      </trkpt>
      <trkpt lat="46.72974" lon="-2.35872">
        <ele>1.8</ele>
        <time>2018-09-21T15:36:15.000Z</time>
      </trkpt>
      <trkpt lat="46.72974" lon="-2.35871">
        <ele>1.8</ele>
        <time>2018-09-21T15:36:16.000Z</time>
      </trkpt>
      <trkpt lat="46.72974" lon="-2.35869">
        <ele>1.8</ele>
        <time>2018-09-21T15:36:17.000Z</time>
      </trkpt>
      <trkpt lat="46.72974" lon="-2.35868">
        <ele>1.8</ele>
        <time>2018-09-21T15:36:18.000Z</time>
      </trkpt>
      <trkpt lat="46.72974" lon="-2.35866">
        <ele>1.8</ele>
        <time>2018-09-21T15:36:19.000Z</time>
      </trkpt>
      <trkpt lat="46.72975" lon="-2.35865">
        <ele>1.8</ele>
        <time>2018-09-21T15:36:20.000Z</time>
      </trkpt>
      <trkpt lat="46.72975" lon="-2.35863">
        <ele>1.8</ele>
        <time>2018-09-21T15:36:21.000Z</time>
      </trkpt>
      <trkpt lat="46.72975" lon="-2.35862">
        <ele>1.8</ele>
        <time>2018-09-21T15:36:22.000Z</time>
      </trkpt>
      <trkpt lat="46.72975" lon="-2.3586">
        <ele>1.8</ele>
        <time>2018-09-21T15:36:23.000Z</time>
      </trkpt>
      <trkpt lat="46.72975" lon="-2.35859">
        <ele>1.8</ele>
        <time>2018-09-21T15:36:24.000Z</time>
      </trkpt>
      <trkpt lat="46.72975" lon="-2.35857">
        <ele>1.8</ele>
        <time>2018-09-21T15:36:25.000Z</time>
      </trkpt>
      <trkpt lat="46.72975" lon="-2.35856">
        <ele>1.8</ele>
        <time>2018-09-21T15:36:26.000Z</time>
      </trkpt>
      <trkpt lat="46.72975" lon="-2.35854">
        <ele>1.8</ele>
        <time>2018-09-21T15:36:27.000Z</time>
      </trkpt>
      <trkpt lat="46.72975" lon="-2.35853">
        <ele>1.8</ele>
        <time>2018-09-21T15:36:28.000Z</time>
      </trkpt>
      <trkpt lat="46.72975" lon="-2.35851">
        <ele>1.8</ele>
        <time>2018-09-21T15:36:29.000Z</time>
      </trkpt>
      <trkpt lat="46.72975" lon="-2.3585">
        <ele>1.8</ele>
        <time>2018-09-21T15:36:30.000Z</time>
      </trkpt>
      <trkpt lat="46.72975" lon="-2.35848">
        <ele>1.8</ele>
        <time>2018-09-21T15:36:31.000Z</time>
      </trkpt>
      <trkpt lat="46.72975" lon="-2.35846">
        <ele>1.8</ele>
        <time>2018-09-21T15:36:32.000Z</time>
      </trkpt>
      <trkpt lat="46.72975" lon="-2.35845">
        <ele>1.8</ele>
        <time>2018-09-21T15:36:33.000Z</time>
      </trkpt>
      <trkpt lat="46.72975" lon="-2.35843">
        <ele>1.8</ele>
        <time>2018-09-21T15:36:34.000Z</time>
      </trkpt>
      <trkpt lat="46.72975" lon="-2.35842">
        <ele>1.8</ele>
        <time>2018-09-21T15:36:35.000Z</time>
      </trkpt>
      <trkpt lat="46.72975" lon="-2.3584">
        <ele>1.9</ele>
        <time>2018-09-21T15:36:36.000Z</time>
      </trkpt>
      <trkpt lat="46.72975" lon="-2.35839">
        <ele>1.9</ele>
        <time>2018-09-21T15:36:37.000Z</time>
      </trkpt>
      <trkpt lat="46.72975" lon="-2.35837">
        <ele>1.9</ele>
        <time>2018-09-21T15:36:38.000Z</time>
      </trkpt>
      <trkpt lat="46.72975" lon="-2.35835">
        <ele>1.9</ele>
        <time>2018-09-21T15:36:39.000Z</time>
      </trkpt>
      <trkpt lat="46.72975" lon="-2.35834">
        <ele>1.9</ele>
        <time>2018-09-21T15:36:40.000Z</time>
      </trkpt>
      <trkpt lat="46.72975" lon="-2.35832">
        <ele>1.9</ele>
        <time>2018-09-21T15:36:41.000Z</time>
      </trkpt>
      <trkpt lat="46.72975" lon="-2.35831">
        <ele>1.9</ele>
        <time>2018-09-21T15:36:42.000Z</time>
      </trkpt>
      <trkpt lat="46.72975" lon="-2.35829">
        <ele>1.9</ele>
        <time>2018-09-21T15:36:43.000Z</time>
      </trkpt>
      <trkpt lat="46.72975" lon="-2.35827">
        <ele>1.9</ele>
        <time>2018-09-21T15:36:44.000Z</time>
      </trkpt>
      <trkpt lat="46.72975" lon="-2.35826">
        <ele>1.9</ele>
        <time>2018-09-21T15:36:45.000Z</time>
      </trkpt>
      <trkpt lat="46.72974" lon="-2.35824">
        <ele>1.9</ele>
        <time>2018-09-21T15:36:46.000Z</time>
      </trkpt>
      <trkpt lat="46.72974" lon="-2.35823">
        <ele>1.9</ele>
        <time>2018-09-21T15:36:47.000Z</time>
      </trkpt>
      <trkpt lat="46.72974" lon="-2.35822">
        <ele>2</ele>
        <time>2018-09-21T15:36:48.000Z</time>
      </trkpt>
      <trkpt lat="46.72973" lon="-2.3582">
        <ele>2</ele>
        <time>2018-09-21T15:36:49.000Z</time>
      </trkpt>
      <trkpt lat="46.72973" lon="-2.35819">
        <ele>2</ele>
        <time>2018-09-21T15:36:50.000Z</time>
      </trkpt>
      <trkpt lat="46.72972" lon="-2.35818">
        <ele>2</ele>
        <time>2018-09-21T15:36:51.000Z</time>
      </trkpt>
      <trkpt lat="46.72972" lon="-2.35818">
        <ele>2</ele>
        <time>2018-09-21T15:36:52.000Z</time>
      </trkpt>
      <trkpt lat="46.72972" lon="-2.35817">
        <ele>2</ele>
        <time>2018-09-21T15:36:53.000Z</time>
      </trkpt>
      <trkpt lat="46.72972" lon="-2.35817">
        <ele>2</ele>
        <time>2018-09-21T15:36:54.000Z</time>
      </trkpt>
      <trkpt lat="46.72972" lon="-2.35817">
        <ele>2</ele>
        <time>2018-09-21T15:36:55.000Z</time>
      </trkpt>
      <trkpt lat="46.72972" lon="-2.35816">
        <ele>2</ele>
        <time>2018-09-21T15:36:56.000Z</time>
      </trkpt>
      <trkpt lat="46.72971" lon="-2.35816">
        <ele>2</ele>
        <time>2018-09-21T15:36:57.000Z</time>
      </trkpt>
      <trkpt lat="46.72971" lon="-2.35815">
        <ele>2</ele>
        <time>2018-09-21T15:36:58.000Z</time>
      </trkpt>
      <trkpt lat="46.72971" lon="-2.35814">
        <ele>2.1</ele>
        <time>2018-09-21T15:36:59.000Z</time>
      </trkpt>
      <trkpt lat="46.7297" lon="-2.35812">
        <ele>2.1</ele>
        <time>2018-09-21T15:37:00.000Z</time>
      </trkpt>
      <trkpt lat="46.72969" lon="-2.3581">
        <ele>2.1</ele>
        <time>2018-09-21T15:37:01.000Z</time>
      </trkpt>
      <trkpt lat="46.72968" lon="-2.35808">
        <ele>2.1</ele>
        <time>2018-09-21T15:37:02.000Z</time>
      </trkpt>
      <trkpt lat="46.72967" lon="-2.35806">
        <ele>2.2</ele>
        <time>2018-09-21T15:37:03.000Z</time>
      </trkpt>
      <trkpt lat="46.72967" lon="-2.35804">
        <ele>2.2</ele>
        <time>2018-09-21T15:37:04.000Z</time>
      </trkpt>
      <trkpt lat="46.72966" lon="-2.35802">
        <ele>2.2</ele>
        <time>2018-09-21T15:37:05.000Z</time>
      </trkpt>
      <trkpt lat="46.72966" lon="-2.35801">
        <ele>2.2</ele>
        <time>2018-09-21T15:37:06.000Z</time>
      </trkpt>
      <trkpt lat="46.72965" lon="-2.35799">
        <ele>2.2</ele>
        <time>2018-09-21T15:37:07.000Z</time>
      </trkpt>
      <trkpt lat="46.72965" lon="-2.35798">
        <ele>2.3</ele>
        <time>2018-09-21T15:37:08.000Z</time>
      </trkpt>
      <trkpt lat="46.72965" lon="-2.35796">
        <ele>2.3</ele>
        <time>2018-09-21T15:37:09.000Z</time>
      </trkpt>
      <trkpt lat="46.72964" lon="-2.35795">
        <ele>2.3</ele>
        <time>2018-09-21T15:37:10.000Z</time>
      </trkpt>
      <trkpt lat="46.72964" lon="-2.35793">
        <ele>2.3</ele>
        <time>2018-09-21T15:37:11.000Z</time>
      </trkpt>
      <trkpt lat="46.72963" lon="-2.35792">
        <ele>2.3</ele>
        <time>2018-09-21T15:37:12.000Z</time>
      </trkpt>
      <trkpt lat="46.72962" lon="-2.3579">
        <ele>2.4</ele>
        <time>2018-09-21T15:37:13.000Z</time>
      </trkpt>
      <trkpt lat="46.72961" lon="-2.35788">
        <ele>2.4</ele>
        <time>2018-09-21T15:37:14.000Z</time>
      </trkpt>
      <trkpt lat="46.72961" lon="-2.35787">
        <ele>2.4</ele>
        <time>2018-09-21T15:37:15.000Z</time>
      </trkpt>
      <trkpt lat="46.7296" lon="-2.35785">
        <ele>2.4</ele>
        <time>2018-09-21T15:37:16.000Z</time>
      </trkpt>
      <trkpt lat="46.7296" lon="-2.35784">
        <ele>2.4</ele>
        <time>2018-09-21T15:37:17.000Z</time>
      </trkpt>
      <trkpt lat="46.72959" lon="-2.35783">
        <ele>2.5</ele>
        <time>2018-09-21T15:37:18.000Z</time>
      </trkpt>
      <trkpt lat="46.72959" lon="-2.35782">
        <ele>2.5</ele>
        <time>2018-09-21T15:37:19.000Z</time>
      </trkpt>
      <trkpt lat="46.72959" lon="-2.3578">
        <ele>2.5</ele>
        <time>2018-09-21T15:37:20.000Z</time>
      </trkpt>
      <trkpt lat="46.72958" lon="-2.35779">
        <ele>2.5</ele>
        <time>2018-09-21T15:37:21.000Z</time>
      </trkpt>
      <trkpt lat="46.72958" lon="-2.35777">
        <ele>2.5</ele>
        <time>2018-09-21T15:37:22.000Z</time>
      </trkpt>
      <trkpt lat="46.72957" lon="-2.35776">
        <ele>2.5</ele>
        <time>2018-09-21T15:37:23.000Z</time>
      </trkpt>
      <trkpt lat="46.72957" lon="-2.35774">
        <ele>2.6</ele>
        <time>2018-09-21T15:37:24.000Z</time>
      </trkpt>
      <trkpt lat="46.72956" lon="-2.35773">
        <ele>2.6</ele>
        <time>2018-09-21T15:37:25.000Z</time>
      </trkpt>
      <trkpt lat="46.72955" lon="-2.35771">
        <ele>2.6</ele>
        <time>2018-09-21T15:37:26.000Z</time>
      </trkpt>
      <trkpt lat="46.72955" lon="-2.3577">
        <ele>2.6</ele>
        <time>2018-09-21T15:37:27.000Z</time>
      </trkpt>
      <trkpt lat="46.72954" lon="-2.35768">
        <ele>2.6</ele>
        <time>2018-09-21T15:37:28.000Z</time>
      </trkpt>
      <trkpt lat="46.72954" lon="-2.35766">
        <ele>2.7</ele>
        <time>2018-09-21T15:37:29.000Z</time>
      </trkpt>
      <trkpt lat="46.72953" lon="-2.35765">
        <ele>2.7</ele>
        <time>2018-09-21T15:37:30.000Z</time>
      </trkpt>
      <trkpt lat="46.72953" lon="-2.35763">
        <ele>2.7</ele>
        <time>2018-09-21T15:37:31.000Z</time>
      </trkpt>
      <trkpt lat="46.72952" lon="-2.35761">
        <ele>2.7</ele>
        <time>2018-09-21T15:37:32.000Z</time>
      </trkpt>
      <trkpt lat="46.72952" lon="-2.3576">
        <ele>2.7</ele>
        <time>2018-09-21T15:37:33.000Z</time>
      </trkpt>
      <trkpt lat="46.72951" lon="-2.35758">
        <ele>2.8</ele>
        <time>2018-09-21T15:37:34.000Z</time>
      </trkpt>
      <trkpt lat="46.72951" lon="-2.35756">
        <ele>2.8</ele>
        <time>2018-09-21T15:37:35.000Z</time>
      </trkpt>
      <trkpt lat="46.7295" lon="-2.35755">
        <ele>2.8</ele>
        <time>2018-09-21T15:37:36.000Z</time>
      </trkpt>
      <trkpt lat="46.7295" lon="-2.35753">
        <ele>2.8</ele>
        <time>2018-09-21T15:37:37.000Z</time>
      </trkpt>
      <trkpt lat="46.72949" lon="-2.35751">
        <ele>2.8</ele>
        <time>2018-09-21T15:37:38.000Z</time>
      </trkpt>
      <trkpt lat="46.72949" lon="-2.3575">
        <ele>2.8</ele>
        <time>2018-09-21T15:37:39.000Z</time>
      </trkpt>
      <trkpt lat="46.72948" lon="-2.35748">
        <ele>2.8</ele>
        <time>2018-09-21T15:37:40.000Z</time>
      </trkpt>
      <trkpt lat="46.72948" lon="-2.35747">
        <ele>2.8</ele>
        <time>2018-09-21T15:37:41.000Z</time>
      </trkpt>
      <trkpt lat="46.72947" lon="-2.35745">
        <ele>2.8</ele>
        <time>2018-09-21T15:37:42.000Z</time>
      </trkpt>
      <trkpt lat="46.72947" lon="-2.35743">
        <ele>2.8</ele>
        <time>2018-09-21T15:37:43.000Z</time>
      </trkpt>
      <trkpt lat="46.72946" lon="-2.35742">
        <ele>2.8</ele>
        <time>2018-09-21T15:37:44.000Z</time>
      </trkpt>
      <trkpt lat="46.72946" lon="-2.3574">
        <ele>2.8</ele>
        <time>2018-09-21T15:37:45.000Z</time>
      </trkpt>
      <trkpt lat="46.72946" lon="-2.35739">
        <ele>2.8</ele>
        <time>2018-09-21T15:37:46.000Z</time>
      </trkpt>
      <trkpt lat="46.72945" lon="-2.35737">
        <ele>2.8</ele>
        <time>2018-09-21T15:37:47.000Z</time>
      </trkpt>
      <trkpt lat="46.72945" lon="-2.35736">
        <ele>2.8</ele>
        <time>2018-09-21T15:37:48.000Z</time>
      </trkpt>
      <trkpt lat="46.72945" lon="-2.35734">
        <ele>2.7</ele>
        <time>2018-09-21T15:37:49.000Z</time>
      </trkpt>
      <trkpt lat="46.72944" lon="-2.35733">
        <ele>2.7</ele>
        <time>2018-09-21T15:37:50.000Z</time>
      </trkpt>
      <trkpt lat="46.72944" lon="-2.35731">
        <ele>2.7</ele>
        <time>2018-09-21T15:37:51.000Z</time>
      </trkpt>
      <trkpt lat="46.72944" lon="-2.3573">
        <ele>2.7</ele>
        <time>2018-09-21T15:37:52.000Z</time>
      </trkpt>
      <trkpt lat="46.72943" lon="-2.35728">
        <ele>2.7</ele>
        <time>2018-09-21T15:37:53.000Z</time>
      </trkpt>
      <trkpt lat="46.72943" lon="-2.35727">
        <ele>2.7</ele>
        <time>2018-09-21T15:37:54.000Z</time>
      </trkpt>
      <trkpt lat="46.72943" lon="-2.35725">
        <ele>2.6</ele>
        <time>2018-09-21T15:37:55.000Z</time>
      </trkpt>
      <trkpt lat="46.72943" lon="-2.35724">
        <ele>2.6</ele>
        <time>2018-09-21T15:37:56.000Z</time>
      </trkpt>
      <trkpt lat="46.72942" lon="-2.35722">
        <ele>2.6</ele>
        <time>2018-09-21T15:37:57.000Z</time>
      </trkpt>
      <trkpt lat="46.72942" lon="-2.3572">
        <ele>2.6</ele>
        <time>2018-09-21T15:37:58.000Z</time>
      </trkpt>
      <trkpt lat="46.72942" lon="-2.35719">
        <ele>2.6</ele>
        <time>2018-09-21T15:37:59.000Z</time>
      </trkpt>
      <trkpt lat="46.72942" lon="-2.35717">
        <ele>2.6</ele>
        <time>2018-09-21T15:38:00.000Z</time>
      </trkpt>
      <trkpt lat="46.72941" lon="-2.35716">
        <ele>2.5</ele>
        <time>2018-09-21T15:38:01.000Z</time>
      </trkpt>
      <trkpt lat="46.72941" lon="-2.35714">
        <ele>2.5</ele>
        <time>2018-09-21T15:38:02.000Z</time>
      </trkpt>
      <trkpt lat="46.72941" lon="-2.35712">
        <ele>2.5</ele>
        <time>2018-09-21T15:38:03.000Z</time>
      </trkpt>
      <trkpt lat="46.72941" lon="-2.35711">
        <ele>2.5</ele>
        <time>2018-09-21T15:38:04.000Z</time>
      </trkpt>
      <trkpt lat="46.7294" lon="-2.35709">
        <ele>2.4</ele>
        <time>2018-09-21T15:38:05.000Z</time>
      </trkpt>
      <trkpt lat="46.7294" lon="-2.35707">
        <ele>2.4</ele>
        <time>2018-09-21T15:38:06.000Z</time>
      </trkpt>
      <trkpt lat="46.7294" lon="-2.35706">
        <ele>2.4</ele>
        <time>2018-09-21T15:38:07.000Z</time>
      </trkpt>
      <trkpt lat="46.72939" lon="-2.35704">
        <ele>2.4</ele>
        <time>2018-09-21T15:38:08.000Z</time>
      </trkpt>
      <trkpt lat="46.72939" lon="-2.35702">
        <ele>2.4</ele>
        <time>2018-09-21T15:38:09.000Z</time>
      </trkpt>
      <trkpt lat="46.72938" lon="-2.35701">
        <ele>2.3</ele>
        <time>2018-09-21T15:38:10.000Z</time>
      </trkpt>
      <trkpt lat="46.72938" lon="-2.35699">
        <ele>2.3</ele>
        <time>2018-09-21T15:38:11.000Z</time>
      </trkpt>
      <trkpt lat="46.72937" lon="-2.35699">
        <ele>2.3</ele>
        <time>2018-09-21T15:38:12.000Z</time>
      </trkpt>
      <trkpt lat="46.72937" lon="-2.35698">
        <ele>2.3</ele>
        <time>2018-09-21T15:38:13.000Z</time>
      </trkpt>
      <trkpt lat="46.72937" lon="-2.35698">
        <ele>2.3</ele>
        <time>2018-09-21T15:38:14.000Z</time>
      </trkpt>
      <trkpt lat="46.72937" lon="-2.35698">
        <ele>2.3</ele>
        <time>2018-09-21T15:38:15.000Z</time>
      </trkpt>
      <trkpt lat="46.72937" lon="-2.35698">
        <ele>2.3</ele>
        <time>2018-09-21T15:38:16.000Z</time>
      </trkpt>
      <trkpt lat="46.72937" lon="-2.35697">
        <ele>2.3</ele>
        <time>2018-09-21T15:38:17.000Z</time>
      </trkpt>
      <trkpt lat="46.72937" lon="-2.35696">
        <ele>2.3</ele>
        <time>2018-09-21T15:38:18.000Z</time>
      </trkpt>
      <trkpt lat="46.72937" lon="-2.35695">
        <ele>2.3</ele>
        <time>2018-09-21T15:38:19.000Z</time>
      </trkpt>
      <trkpt lat="46.72937" lon="-2.35694">
        <ele>2.3</ele>
        <time>2018-09-21T15:38:20.000Z</time>
      </trkpt>
      <trkpt lat="46.72937" lon="-2.35693">
        <ele>2.2</ele>
        <time>2018-09-21T15:38:21.000Z</time>
      </trkpt>
      <trkpt lat="46.72937" lon="-2.35693">
        <ele>2.2</ele>
        <time>2018-09-21T15:38:22.000Z</time>
      </trkpt>
      <trkpt lat="46.72937" lon="-2.35692">
        <ele>2.2</ele>
        <time>2018-09-21T15:38:23.000Z</time>
      </trkpt>
      <trkpt lat="46.72937" lon="-2.35692">
        <ele>2.2</ele>
        <time>2018-09-21T15:38:24.000Z</time>
      </trkpt>
      <trkpt lat="46.72938" lon="-2.35691">
        <ele>2.2</ele>
        <time>2018-09-21T15:38:25.000Z</time>
      </trkpt>
      <trkpt lat="46.72938" lon="-2.3569">
        <ele>2.2</ele>
        <time>2018-09-21T15:38:26.000Z</time>
      </trkpt>
      <trkpt lat="46.72938" lon="-2.3569">
        <ele>2.2</ele>
        <time>2018-09-21T15:38:27.000Z</time>
      </trkpt>
      <trkpt lat="46.72938" lon="-2.35689">
        <ele>2.2</ele>
        <time>2018-09-21T15:38:28.000Z</time>
      </trkpt>
      <trkpt lat="46.72938" lon="-2.35689">
        <ele>2.1</ele>
        <time>2018-09-21T15:38:29.000Z</time>
      </trkpt>
      <trkpt lat="46.72938" lon="-2.35688">
        <ele>2.1</ele>
        <time>2018-09-21T15:38:30.000Z</time>
      </trkpt>
      <trkpt lat="46.72938" lon="-2.35688">
        <ele>2.1</ele>
        <time>2018-09-21T15:38:31.000Z</time>
      </trkpt>
      <trkpt lat="46.72938" lon="-2.35687">
        <ele>2.1</ele>
        <time>2018-09-21T15:38:32.000Z</time>
      </trkpt>
      <trkpt lat="46.72938" lon="-2.35687">
        <ele>2.1</ele>
        <time>2018-09-21T15:38:33.000Z</time>
      </trkpt>
      <trkpt lat="46.72938" lon="-2.35686">
        <ele>2.1</ele>
        <time>2018-09-21T15:38:34.000Z</time>
      </trkpt>
      <trkpt lat="46.72938" lon="-2.35685">
        <ele>2.1</ele>
        <time>2018-09-21T15:38:35.000Z</time>
      </trkpt>
      <trkpt lat="46.72938" lon="-2.35684">
        <ele>2.1</ele>
        <time>2018-09-21T15:38:36.000Z</time>
      </trkpt>
      <trkpt lat="46.72938" lon="-2.35683">
        <ele>2</ele>
        <time>2018-09-21T15:38:37.000Z</time>
      </trkpt>
      <trkpt lat="46.72938" lon="-2.35682">
        <ele>2</ele>
        <time>2018-09-21T15:38:38.000Z</time>
      </trkpt>
      <trkpt lat="46.72937" lon="-2.3568">
        <ele>2</ele>
        <time>2018-09-21T15:38:39.000Z</time>
      </trkpt>
      <trkpt lat="46.72937" lon="-2.35679">
        <ele>2</ele>
        <time>2018-09-21T15:38:40.000Z</time>
      </trkpt>
      <trkpt lat="46.72937" lon="-2.35678">
        <ele>2</ele>
        <time>2018-09-21T15:38:41.000Z</time>
      </trkpt>
      <trkpt lat="46.72936" lon="-2.35677">
        <ele>1.9</ele>
        <time>2018-09-21T15:38:42.000Z</time>
      </trkpt>
      <trkpt lat="46.72936" lon="-2.35675">
        <ele>1.9</ele>
        <time>2018-09-21T15:38:43.000Z</time>
      </trkpt>
      <trkpt lat="46.72935" lon="-2.35674">
        <ele>1.9</ele>
        <time>2018-09-21T15:38:44.000Z</time>
      </trkpt>
      <trkpt lat="46.72935" lon="-2.35673">
        <ele>1.9</ele>
        <time>2018-09-21T15:38:45.000Z</time>
      </trkpt>
      <trkpt lat="46.72934" lon="-2.35671">
        <ele>1.9</ele>
        <time>2018-09-21T15:38:46.000Z</time>
      </trkpt>
      <trkpt lat="46.72934" lon="-2.3567">
        <ele>1.9</ele>
        <time>2018-09-21T15:38:47.000Z</time>
      </trkpt>
      <trkpt lat="46.72933" lon="-2.35669">
        <ele>1.8</ele>
        <time>2018-09-21T15:38:48.000Z</time>
      </trkpt>
      <trkpt lat="46.72933" lon="-2.35667">
        <ele>1.8</ele>
        <time>2018-09-21T15:38:49.000Z</time>
      </trkpt>
      <trkpt lat="46.72932" lon="-2.35666">
        <ele>1.8</ele>
        <time>2018-09-21T15:38:50.000Z</time>
      </trkpt>
      <trkpt lat="46.72932" lon="-2.35665">
        <ele>1.8</ele>
        <time>2018-09-21T15:38:51.000Z</time>
      </trkpt>
      <trkpt lat="46.72931" lon="-2.35663">
        <ele>1.7</ele>
        <time>2018-09-21T15:38:52.000Z</time>
      </trkpt>
      <trkpt lat="46.72931" lon="-2.35662">
        <ele>1.7</ele>
        <time>2018-09-21T15:38:53.000Z</time>
      </trkpt>
      <trkpt lat="46.7293" lon="-2.35661">
        <ele>1.7</ele>
        <time>2018-09-21T15:38:54.000Z</time>
      </trkpt>
      <trkpt lat="46.7293" lon="-2.3566">
        <ele>1.7</ele>
        <time>2018-09-21T15:38:55.000Z</time>
      </trkpt>
      <trkpt lat="46.72929" lon="-2.35659">
        <ele>1.6</ele>
        <time>2018-09-21T15:38:56.000Z</time>
      </trkpt>
      <trkpt lat="46.72929" lon="-2.35658">
        <ele>1.6</ele>
        <time>2018-09-21T15:38:57.000Z</time>
      </trkpt>
      <trkpt lat="46.72928" lon="-2.35657">
        <ele>1.6</ele>
        <time>2018-09-21T15:38:58.000Z</time>
      </trkpt>
      <trkpt lat="46.72928" lon="-2.35656">
        <ele>1.6</ele>
        <time>2018-09-21T15:38:59.000Z</time>
      </trkpt>
      <trkpt lat="46.72927" lon="-2.35655">
        <ele>1.6</ele>
        <time>2018-09-21T15:39:00.000Z</time>
      </trkpt>
      <trkpt lat="46.72927" lon="-2.35654">
        <ele>1.5</ele>
        <time>2018-09-21T15:39:01.000Z</time>
      </trkpt>
      <trkpt lat="46.72926" lon="-2.35653">
        <ele>1.5</ele>
        <time>2018-09-21T15:39:02.000Z</time>
      </trkpt>
      <trkpt lat="46.72926" lon="-2.35652">
        <ele>1.5</ele>
        <time>2018-09-21T15:39:03.000Z</time>
      </trkpt>
      <trkpt lat="46.72926" lon="-2.35651">
        <ele>1.5</ele>
        <time>2018-09-21T15:39:04.000Z</time>
      </trkpt>
      <trkpt lat="46.72925" lon="-2.3565">
        <ele>1.5</ele>
        <time>2018-09-21T15:39:05.000Z</time>
      </trkpt>
      <trkpt lat="46.72925" lon="-2.3565">
        <ele>1.5</ele>
        <time>2018-09-21T15:39:06.000Z</time>
      </trkpt>
      <trkpt lat="46.72924" lon="-2.35649">
        <ele>1.5</ele>
        <time>2018-09-21T15:39:07.000Z</time>
      </trkpt>
      <trkpt lat="46.72924" lon="-2.35648">
        <ele>1.5</ele>
        <time>2018-09-21T15:39:08.000Z</time>
      </trkpt>
      <trkpt lat="46.72924" lon="-2.35648">
        <ele>1.4</ele>
        <time>2018-09-21T15:39:09.000Z</time>
      </trkpt>
      <trkpt lat="46.72923" lon="-2.35647">
        <ele>1.4</ele>
        <time>2018-09-21T15:39:10.000Z</time>
      </trkpt>
      <trkpt lat="46.72923" lon="-2.35646">
        <ele>1.4</ele>
        <time>2018-09-21T15:39:11.000Z</time>
      </trkpt>
      <trkpt lat="46.72922" lon="-2.35646">
        <ele>1.4</ele>
        <time>2018-09-21T15:39:12.000Z</time>
      </trkpt>
      <trkpt lat="46.72922" lon="-2.35645">
        <ele>1.4</ele>
        <time>2018-09-21T15:39:13.000Z</time>
      </trkpt>
      <trkpt lat="46.72922" lon="-2.35644">
        <ele>1.4</ele>
        <time>2018-09-21T15:39:14.000Z</time>
      </trkpt>
      <trkpt lat="46.72921" lon="-2.35643">
        <ele>1.4</ele>
        <time>2018-09-21T15:39:15.000Z</time>
      </trkpt>
      <trkpt lat="46.72921" lon="-2.35643">
        <ele>1.4</ele>
        <time>2018-09-21T15:39:16.000Z</time>
      </trkpt>
      <trkpt lat="46.7292" lon="-2.35642">
        <ele>1.4</ele>
        <time>2018-09-21T15:39:17.000Z</time>
      </trkpt>
      <trkpt lat="46.7292" lon="-2.35641">
        <ele>1.3</ele>
        <time>2018-09-21T15:39:18.000Z</time>
      </trkpt>
      <trkpt lat="46.72919" lon="-2.3564">
        <ele>1.3</ele>
        <time>2018-09-21T15:39:19.000Z</time>
      </trkpt>
      <trkpt lat="46.72919" lon="-2.3564">
        <ele>1.3</ele>
        <time>2018-09-21T15:39:20.000Z</time>
      </trkpt>
      <trkpt lat="46.72918" lon="-2.35639">
        <ele>1.3</ele>
        <time>2018-09-21T15:39:21.000Z</time>
      </trkpt>
      <trkpt lat="46.72918" lon="-2.35638">
        <ele>1.3</ele>
        <time>2018-09-21T15:39:22.000Z</time>
      </trkpt>
      <trkpt lat="46.72917" lon="-2.35637">
        <ele>1.3</ele>
        <time>2018-09-21T15:39:23.000Z</time>
      </trkpt>
      <trkpt lat="46.72916" lon="-2.35636">
        <ele>1.3</ele>
        <time>2018-09-21T15:39:24.000Z</time>
      </trkpt>
      <trkpt lat="46.72916" lon="-2.35636">
        <ele>1.3</ele>
        <time>2018-09-21T15:39:25.000Z</time>
      </trkpt>
      <trkpt lat="46.72915" lon="-2.35635">
        <ele>1.3</ele>
        <time>2018-09-21T15:39:26.000Z</time>
      </trkpt>
      <trkpt lat="46.72915" lon="-2.35634">
        <ele>1.3</ele>
        <time>2018-09-21T15:39:27.000Z</time>
      </trkpt>
      <trkpt lat="46.72914" lon="-2.35633">
        <ele>1.2</ele>
        <time>2018-09-21T15:39:28.000Z</time>
      </trkpt>
      <trkpt lat="46.72914" lon="-2.35632">
        <ele>1.2</ele>
        <time>2018-09-21T15:39:29.000Z</time>
      </trkpt>
      <trkpt lat="46.72913" lon="-2.35631">
        <ele>1.2</ele>
        <time>2018-09-21T15:39:30.000Z</time>
      </trkpt>
      <trkpt lat="46.72912" lon="-2.3563">
        <ele>1.2</ele>
        <time>2018-09-21T15:39:31.000Z</time>
      </trkpt>
      <trkpt lat="46.72912" lon="-2.35629">
        <ele>1.2</ele>
        <time>2018-09-21T15:39:32.000Z</time>
      </trkpt>
      <trkpt lat="46.72911" lon="-2.35629">
        <ele>1.2</ele>
        <time>2018-09-21T15:39:33.000Z</time>
      </trkpt>
      <trkpt lat="46.72911" lon="-2.35628">
        <ele>1.2</ele>
        <time>2018-09-21T15:39:34.000Z</time>
      </trkpt>
      <trkpt lat="46.7291" lon="-2.35627">
        <ele>1.2</ele>
        <time>2018-09-21T15:39:35.000Z</time>
      </trkpt>
      <trkpt lat="46.72909" lon="-2.35626">
        <ele>1.2</ele>
        <time>2018-09-21T15:39:36.000Z</time>
      </trkpt>
      <trkpt lat="46.72909" lon="-2.35625">
        <ele>1.2</ele>
        <time>2018-09-21T15:39:37.000Z</time>
      </trkpt>
      <trkpt lat="46.72908" lon="-2.35624">
        <ele>1.2</ele>
        <time>2018-09-21T15:39:38.000Z</time>
      </trkpt>
      <trkpt lat="46.72908" lon="-2.35623">
        <ele>1.2</ele>
        <time>2018-09-21T15:39:39.000Z</time>
      </trkpt>
      <trkpt lat="46.72907" lon="-2.35622">
        <ele>1.2</ele>
        <time>2018-09-21T15:39:40.000Z</time>
      </trkpt>
      <trkpt lat="46.72907" lon="-2.35621">
        <ele>1.2</ele>
        <time>2018-09-21T15:39:41.000Z</time>
      </trkpt>
      <trkpt lat="46.72906" lon="-2.3562">
        <ele>1.2</ele>
        <time>2018-09-21T15:39:42.000Z</time>
      </trkpt>
      <trkpt lat="46.72905" lon="-2.35619">
        <ele>1.2</ele>
        <time>2018-09-21T15:39:43.000Z</time>
      </trkpt>
      <trkpt lat="46.72905" lon="-2.35618">
        <ele>1.1</ele>
        <time>2018-09-21T15:39:44.000Z</time>
      </trkpt>
      <trkpt lat="46.72904" lon="-2.35617">
        <ele>1.1</ele>
        <time>2018-09-21T15:39:45.000Z</time>
      </trkpt>
      <trkpt lat="46.72904" lon="-2.35617">
        <ele>1.1</ele>
        <time>2018-09-21T15:39:46.000Z</time>
      </trkpt>
      <trkpt lat="46.72903" lon="-2.35616">
        <ele>1.1</ele>
        <time>2018-09-21T15:39:47.000Z</time>
      </trkpt>
      <trkpt lat="46.72903" lon="-2.35615">
        <ele>1.1</ele>
        <time>2018-09-21T15:39:48.000Z</time>
      </trkpt>
      <trkpt lat="46.72902" lon="-2.35614">
        <ele>1.1</ele>
        <time>2018-09-21T15:39:49.000Z</time>
      </trkpt>
      <trkpt lat="46.72901" lon="-2.35613">
        <ele>1.1</ele>
        <time>2018-09-21T15:39:50.000Z</time>
      </trkpt>
      <trkpt lat="46.72901" lon="-2.35612">
        <ele>1.1</ele>
        <time>2018-09-21T15:39:51.000Z</time>
      </trkpt>
      <trkpt lat="46.729" lon="-2.35611">
        <ele>1.1</ele>
        <time>2018-09-21T15:39:52.000Z</time>
      </trkpt>
      <trkpt lat="46.729" lon="-2.35611">
        <ele>1.1</ele>
        <time>2018-09-21T15:39:53.000Z</time>
      </trkpt>
      <trkpt lat="46.72899" lon="-2.3561">
        <ele>1.1</ele>
        <time>2018-09-21T15:39:54.000Z</time>
      </trkpt>
      <trkpt lat="46.72898" lon="-2.35609">
        <ele>1.1</ele>
        <time>2018-09-21T15:39:55.000Z</time>
      </trkpt>
      <trkpt lat="46.72898" lon="-2.35609">
        <ele>1.1</ele>
        <time>2018-09-21T15:39:56.000Z</time>
      </trkpt>
      <trkpt lat="46.72897" lon="-2.35608">
        <ele>1.2</ele>
        <time>2018-09-21T15:39:57.000Z</time>
      </trkpt>
      <trkpt lat="46.72897" lon="-2.35607">
        <ele>1.2</ele>
        <time>2018-09-21T15:39:58.000Z</time>
      </trkpt>
      <trkpt lat="46.72896" lon="-2.35606">
        <ele>1.2</ele>
        <time>2018-09-21T15:39:59.000Z</time>
      </trkpt>
      <trkpt lat="46.72895" lon="-2.35606">
        <ele>1.2</ele>
        <time>2018-09-21T15:40:00.000Z</time>
      </trkpt>
      <trkpt lat="46.72895" lon="-2.35605">
        <ele>1.2</ele>
        <time>2018-09-21T15:40:01.000Z</time>
      </trkpt>
      <trkpt lat="46.72894" lon="-2.35604">
        <ele>1.2</ele>
        <time>2018-09-21T15:40:02.000Z</time>
      </trkpt>
      <trkpt lat="46.72894" lon="-2.35604">
        <ele>1.2</ele>
        <time>2018-09-21T15:40:03.000Z</time>
      </trkpt>
      <trkpt lat="46.72893" lon="-2.35603">
        <ele>1.2</ele>
        <time>2018-09-21T15:40:04.000Z</time>
      </trkpt>
      <trkpt lat="46.72892" lon="-2.35602">
        <ele>1.2</ele>
        <time>2018-09-21T15:40:05.000Z</time>
      </trkpt>
      <trkpt lat="46.72892" lon="-2.35602">
        <ele>1.2</ele>
        <time>2018-09-21T15:40:06.000Z</time>
      </trkpt>
      <trkpt lat="46.72891" lon="-2.35601">
        <ele>1.2</ele>
        <time>2018-09-21T15:40:07.000Z</time>
      </trkpt>
      <trkpt lat="46.7289" lon="-2.356">
        <ele>1.2</ele>
        <time>2018-09-21T15:40:08.000Z</time>
      </trkpt>
      <trkpt lat="46.7289" lon="-2.35599">
        <ele>1.2</ele>
        <time>2018-09-21T15:40:09.000Z</time>
      </trkpt>
      <trkpt lat="46.72889" lon="-2.35599">
        <ele>1.2</ele>
        <time>2018-09-21T15:40:10.000Z</time>
      </trkpt>
      <trkpt lat="46.72889" lon="-2.35598">
        <ele>1.2</ele>
        <time>2018-09-21T15:40:11.000Z</time>
      </trkpt>
      <trkpt lat="46.72888" lon="-2.35597">
        <ele>1.2</ele>
        <time>2018-09-21T15:40:12.000Z</time>
      </trkpt>
      <trkpt lat="46.72888" lon="-2.35596">
        <ele>1.2</ele>
        <time>2018-09-21T15:40:13.000Z</time>
      </trkpt>
      <trkpt lat="46.72887" lon="-2.35595">
        <ele>1.2</ele>
        <time>2018-09-21T15:40:14.000Z</time>
      </trkpt>
      <trkpt lat="46.72887" lon="-2.35594">
        <ele>1.2</ele>
        <time>2018-09-21T15:40:15.000Z</time>
      </trkpt>
      <trkpt lat="46.72886" lon="-2.35593">
        <ele>1.2</ele>
        <time>2018-09-21T15:40:16.000Z</time>
      </trkpt>
      <trkpt lat="46.72885" lon="-2.35592">
        <ele>1.3</ele>
        <time>2018-09-21T15:40:17.000Z</time>
      </trkpt>
      <trkpt lat="46.72885" lon="-2.35591">
        <ele>1.3</ele>
        <time>2018-09-21T15:40:18.000Z</time>
      </trkpt>
      <trkpt lat="46.72884" lon="-2.3559">
        <ele>1.3</ele>
        <time>2018-09-21T15:40:19.000Z</time>
      </trkpt>
      <trkpt lat="46.72884" lon="-2.35589">
        <ele>1.3</ele>
        <time>2018-09-21T15:40:20.000Z</time>
      </trkpt>
      <trkpt lat="46.72883" lon="-2.35588">
        <ele>1.3</ele>
        <time>2018-09-21T15:40:21.000Z</time>
      </trkpt>
      <trkpt lat="46.72882" lon="-2.35587">
        <ele>1.3</ele>
        <time>2018-09-21T15:40:22.000Z</time>
      </trkpt>
      <trkpt lat="46.72882" lon="-2.35586">
        <ele>1.3</ele>
        <time>2018-09-21T15:40:23.000Z</time>
      </trkpt>
      <trkpt lat="46.72881" lon="-2.35585">
        <ele>1.3</ele>
        <time>2018-09-21T15:40:24.000Z</time>
      </trkpt>
      <trkpt lat="46.7288" lon="-2.35584">
        <ele>1.3</ele>
        <time>2018-09-21T15:40:25.000Z</time>
      </trkpt>
      <trkpt lat="46.7288" lon="-2.35583">
        <ele>1.3</ele>
        <time>2018-09-21T15:40:26.000Z</time>
      </trkpt>
      <trkpt lat="46.72879" lon="-2.35582">
        <ele>1.4</ele>
        <time>2018-09-21T15:40:27.000Z</time>
      </trkpt>
      <trkpt lat="46.72878" lon="-2.35581">
        <ele>1.4</ele>
        <time>2018-09-21T15:40:28.000Z</time>
      </trkpt>
      <trkpt lat="46.72877" lon="-2.3558">
        <ele>1.4</ele>
        <time>2018-09-21T15:40:29.000Z</time>
      </trkpt>
      <trkpt lat="46.72877" lon="-2.35579">
        <ele>1.4</ele>
        <time>2018-09-21T15:40:30.000Z</time>
      </trkpt>
      <trkpt lat="46.72876" lon="-2.35577">
        <ele>1.4</ele>
        <time>2018-09-21T15:40:31.000Z</time>
      </trkpt>
      <trkpt lat="46.72875" lon="-2.35576">
        <ele>1.5</ele>
        <time>2018-09-21T15:40:32.000Z</time>
      </trkpt>
      <trkpt lat="46.72875" lon="-2.35575">
        <ele>1.5</ele>
        <time>2018-09-21T15:40:33.000Z</time>
      </trkpt>
      <trkpt lat="46.72874" lon="-2.35574">
        <ele>1.5</ele>
        <time>2018-09-21T15:40:34.000Z</time>
      </trkpt>
      <trkpt lat="46.72873" lon="-2.35573">
        <ele>1.5</ele>
        <time>2018-09-21T15:40:35.000Z</time>
      </trkpt>
      <trkpt lat="46.72873" lon="-2.35572">
        <ele>1.5</ele>
        <time>2018-09-21T15:40:36.000Z</time>
      </trkpt>
      <trkpt lat="46.72872" lon="-2.3557">
        <ele>1.5</ele>
        <time>2018-09-21T15:40:37.000Z</time>
      </trkpt>
      <trkpt lat="46.72871" lon="-2.35569">
        <ele>1.5</ele>
        <time>2018-09-21T15:40:38.000Z</time>
      </trkpt>
      <trkpt lat="46.7287" lon="-2.35568">
        <ele>1.6</ele>
        <time>2018-09-21T15:40:39.000Z</time>
      </trkpt>
      <trkpt lat="46.7287" lon="-2.35567">
        <ele>1.6</ele>
        <time>2018-09-21T15:40:40.000Z</time>
      </trkpt>
      <trkpt lat="46.72869" lon="-2.35566">
        <ele>1.6</ele>
        <time>2018-09-21T15:40:41.000Z</time>
      </trkpt>
      <trkpt lat="46.72868" lon="-2.35564">
        <ele>1.6</ele>
        <time>2018-09-21T15:40:42.000Z</time>
      </trkpt>
      <trkpt lat="46.72867" lon="-2.35563">
        <ele>1.6</ele>
        <time>2018-09-21T15:40:43.000Z</time>
      </trkpt>
      <trkpt lat="46.72866" lon="-2.35562">
        <ele>1.7</ele>
        <time>2018-09-21T15:40:44.000Z</time>
      </trkpt>
      <trkpt lat="46.72865" lon="-2.35561">
        <ele>1.7</ele>
        <time>2018-09-21T15:40:45.000Z</time>
      </trkpt>
      <trkpt lat="46.72864" lon="-2.3556">
        <ele>1.7</ele>
        <time>2018-09-21T15:40:46.000Z</time>
      </trkpt>
      <trkpt lat="46.72863" lon="-2.35559">
        <ele>1.7</ele>
        <time>2018-09-21T15:40:47.000Z</time>
      </trkpt>
      <trkpt lat="46.72862" lon="-2.35558">
        <ele>1.8</ele>
        <time>2018-09-21T15:40:48.000Z</time>
      </trkpt>
      <trkpt lat="46.72861" lon="-2.35557">
        <ele>1.8</ele>
        <time>2018-09-21T15:40:49.000Z</time>
      </trkpt>
      <trkpt lat="46.7286" lon="-2.35556">
        <ele>1.8</ele>
        <time>2018-09-21T15:40:50.000Z</time>
      </trkpt>
      <trkpt lat="46.72859" lon="-2.35554">
        <ele>1.8</ele>
        <time>2018-09-21T15:40:51.000Z</time>
      </trkpt>
      <trkpt lat="46.72859" lon="-2.35553">
        <ele>1.8</ele>
        <time>2018-09-21T15:40:52.000Z</time>
      </trkpt>
      <trkpt lat="46.72858" lon="-2.35553">
        <ele>1.9</ele>
        <time>2018-09-21T15:40:53.000Z</time>
      </trkpt>
      <trkpt lat="46.72857" lon="-2.35552">
        <ele>1.9</ele>
        <time>2018-09-21T15:40:54.000Z</time>
      </trkpt>
      <trkpt lat="46.72856" lon="-2.35551">
        <ele>1.9</ele>
        <time>2018-09-21T15:40:55.000Z</time>
      </trkpt>
      <trkpt lat="46.72856" lon="-2.3555">
        <ele>1.9</ele>
        <time>2018-09-21T15:40:56.000Z</time>
      </trkpt>
      <trkpt lat="46.72855" lon="-2.35549">
        <ele>1.9</ele>
        <time>2018-09-21T15:40:57.000Z</time>
      </trkpt>
      <trkpt lat="46.72854" lon="-2.35548">
        <ele>1.9</ele>
        <time>2018-09-21T15:40:58.000Z</time>
      </trkpt>
      <trkpt lat="46.72854" lon="-2.35547">
        <ele>1.9</ele>
        <time>2018-09-21T15:40:59.000Z</time>
      </trkpt>
      <trkpt lat="46.72853" lon="-2.35546">
        <ele>2</ele>
        <time>2018-09-21T15:41:00.000Z</time>
      </trkpt>
      <trkpt lat="46.72852" lon="-2.35545">
        <ele>2</ele>
        <time>2018-09-21T15:41:01.000Z</time>
      </trkpt>
      <trkpt lat="46.72851" lon="-2.35545">
        <ele>2</ele>
        <time>2018-09-21T15:41:02.000Z</time>
      </trkpt>
      <trkpt lat="46.7285" lon="-2.35544">
        <ele>2</ele>
        <time>2018-09-21T15:41:03.000Z</time>
      </trkpt>
      <trkpt lat="46.72849" lon="-2.35543">
        <ele>2</ele>
        <time>2018-09-21T15:41:04.000Z</time>
      </trkpt>
      <trkpt lat="46.72849" lon="-2.35542">
        <ele>2</ele>
        <time>2018-09-21T15:41:05.000Z</time>
      </trkpt>
      <trkpt lat="46.72848" lon="-2.35541">
        <ele>2.1</ele>
        <time>2018-09-21T15:41:06.000Z</time>
      </trkpt>
      <trkpt lat="46.72847" lon="-2.35541">
        <ele>2.1</ele>
        <time>2018-09-21T15:41:07.000Z</time>
      </trkpt>
      <trkpt lat="46.72846" lon="-2.3554">
        <ele>2.1</ele>
        <time>2018-09-21T15:41:08.000Z</time>
      </trkpt>
      <trkpt lat="46.72845" lon="-2.35539">
        <ele>2.1</ele>
        <time>2018-09-21T15:41:09.000Z</time>
      </trkpt>
      <trkpt lat="46.72844" lon="-2.35538">
        <ele>2.1</ele>
        <time>2018-09-21T15:41:10.000Z</time>
      </trkpt>
      <trkpt lat="46.72844" lon="-2.35537">
        <ele>2.1</ele>
        <time>2018-09-21T15:41:11.000Z</time>
      </trkpt>
      <trkpt lat="46.72843" lon="-2.35536">
        <ele>2.2</ele>
        <time>2018-09-21T15:41:12.000Z</time>
      </trkpt>
      <trkpt lat="46.72842" lon="-2.35535">
        <ele>2.2</ele>
        <time>2018-09-21T15:41:13.000Z</time>
      </trkpt>
      <trkpt lat="46.72841" lon="-2.35534">
        <ele>2.2</ele>
        <time>2018-09-21T15:41:14.000Z</time>
      </trkpt>
      <trkpt lat="46.7284" lon="-2.35533">
        <ele>2.2</ele>
        <time>2018-09-21T15:41:15.000Z</time>
      </trkpt>
      <trkpt lat="46.7284" lon="-2.35532">
        <ele>2.2</ele>
        <time>2018-09-21T15:41:16.000Z</time>
      </trkpt>
      <trkpt lat="46.72839" lon="-2.35531">
        <ele>2.2</ele>
        <time>2018-09-21T15:41:17.000Z</time>
      </trkpt>
      <trkpt lat="46.72838" lon="-2.35529">
        <ele>2.2</ele>
        <time>2018-09-21T15:41:18.000Z</time>
      </trkpt>
      <trkpt lat="46.72837" lon="-2.35528">
        <ele>2.2</ele>
        <time>2018-09-21T15:41:19.000Z</time>
      </trkpt>
      <trkpt lat="46.72837" lon="-2.35527">
        <ele>2.2</ele>
        <time>2018-09-21T15:41:20.000Z</time>
      </trkpt>
      <trkpt lat="46.72836" lon="-2.35526">
        <ele>2.2</ele>
        <time>2018-09-21T15:41:21.000Z</time>
      </trkpt>
      <trkpt lat="46.72835" lon="-2.35525">
        <ele>2.2</ele>
        <time>2018-09-21T15:41:22.000Z</time>
      </trkpt>
      <trkpt lat="46.72835" lon="-2.35524">
        <ele>2.3</ele>
        <time>2018-09-21T15:41:23.000Z</time>
      </trkpt>
      <trkpt lat="46.72834" lon="-2.35523">
        <ele>2.3</ele>
        <time>2018-09-21T15:41:24.000Z</time>
      </trkpt>
      <trkpt lat="46.72833" lon="-2.35522">
        <ele>2.3</ele>
        <time>2018-09-21T15:41:25.000Z</time>
      </trkpt>
      <trkpt lat="46.72832" lon="-2.3552">
        <ele>2.3</ele>
        <time>2018-09-21T15:41:26.000Z</time>
      </trkpt>
      <trkpt lat="46.72832" lon="-2.35519">
        <ele>2.3</ele>
        <time>2018-09-21T15:41:27.000Z</time>
      </trkpt>
      <trkpt lat="46.72831" lon="-2.35518">
        <ele>2.3</ele>
        <time>2018-09-21T15:41:28.000Z</time>
      </trkpt>
      <trkpt lat="46.7283" lon="-2.35517">
        <ele>2.3</ele>
        <time>2018-09-21T15:41:29.000Z</time>
      </trkpt>
      <trkpt lat="46.72829" lon="-2.35516">
        <ele>2.3</ele>
        <time>2018-09-21T15:41:30.000Z</time>
      </trkpt>
      <trkpt lat="46.72828" lon="-2.35515">
        <ele>2.4</ele>
        <time>2018-09-21T15:41:31.000Z</time>
      </trkpt>
      <trkpt lat="46.72827" lon="-2.35514">
        <ele>2.4</ele>
        <time>2018-09-21T15:41:32.000Z</time>
      </trkpt>
      <trkpt lat="46.72827" lon="-2.35513">
        <ele>2.4</ele>
        <time>2018-09-21T15:41:33.000Z</time>
      </trkpt>
      <trkpt lat="46.72826" lon="-2.35512">
        <ele>2.4</ele>
        <time>2018-09-21T15:41:34.000Z</time>
      </trkpt>
      <trkpt lat="46.72825" lon="-2.35511">
        <ele>2.4</ele>
        <time>2018-09-21T15:41:35.000Z</time>
      </trkpt>
      <trkpt lat="46.72824" lon="-2.3551">
        <ele>2.5</ele>
        <time>2018-09-21T15:41:36.000Z</time>
      </trkpt>
      <trkpt lat="46.72823" lon="-2.35509">
        <ele>2.5</ele>
        <time>2018-09-21T15:41:37.000Z</time>
      </trkpt>
      <trkpt lat="46.72822" lon="-2.35508">
        <ele>2.5</ele>
        <time>2018-09-21T15:41:38.000Z</time>
      </trkpt>
      <trkpt lat="46.72822" lon="-2.35507">
        <ele>2.5</ele>
        <time>2018-09-21T15:41:39.000Z</time>
      </trkpt>
      <trkpt lat="46.72821" lon="-2.35506">
        <ele>2.5</ele>
        <time>2018-09-21T15:41:40.000Z</time>
      </trkpt>
      <trkpt lat="46.7282" lon="-2.35505">
        <ele>2.5</ele>
        <time>2018-09-21T15:41:41.000Z</time>
      </trkpt>
      <trkpt lat="46.72819" lon="-2.35504">
        <ele>2.6</ele>
        <time>2018-09-21T15:41:42.000Z</time>
      </trkpt>
      <trkpt lat="46.72818" lon="-2.35503">
        <ele>2.6</ele>
        <time>2018-09-21T15:41:43.000Z</time>
      </trkpt>
      <trkpt lat="46.72817" lon="-2.35502">
        <ele>2.6</ele>
        <time>2018-09-21T15:41:44.000Z</time>
      </trkpt>
      <trkpt lat="46.72817" lon="-2.355">
        <ele>2.6</ele>
        <time>2018-09-21T15:41:45.000Z</time>
      </trkpt>
      <trkpt lat="46.72816" lon="-2.35499">
        <ele>2.6</ele>
        <time>2018-09-21T15:41:46.000Z</time>
      </trkpt>
      <trkpt lat="46.72815" lon="-2.35498">
        <ele>2.6</ele>
        <time>2018-09-21T15:41:47.000Z</time>
      </trkpt>
      <trkpt lat="46.72814" lon="-2.35497">
        <ele>2.6</ele>
        <time>2018-09-21T15:41:48.000Z</time>
      </trkpt>
      <trkpt lat="46.72814" lon="-2.35496">
        <ele>2.6</ele>
        <time>2018-09-21T15:41:49.000Z</time>
      </trkpt>
      <trkpt lat="46.72813" lon="-2.35494">
        <ele>2.6</ele>
        <time>2018-09-21T15:41:50.000Z</time>
      </trkpt>
      <trkpt lat="46.72812" lon="-2.35493">
        <ele>2.6</ele>
        <time>2018-09-21T15:41:51.000Z</time>
      </trkpt>
      <trkpt lat="46.72811" lon="-2.35492">
        <ele>2.7</ele>
        <time>2018-09-21T15:41:52.000Z</time>
      </trkpt>
      <trkpt lat="46.72811" lon="-2.3549">
        <ele>2.7</ele>
        <time>2018-09-21T15:41:53.000Z</time>
      </trkpt>
      <trkpt lat="46.7281" lon="-2.35489">
        <ele>2.7</ele>
        <time>2018-09-21T15:41:54.000Z</time>
      </trkpt>
      <trkpt lat="46.72809" lon="-2.35488">
        <ele>2.7</ele>
        <time>2018-09-21T15:41:55.000Z</time>
      </trkpt>
      <trkpt lat="46.72808" lon="-2.35487">
        <ele>2.7</ele>
        <time>2018-09-21T15:41:56.000Z</time>
      </trkpt>
      <trkpt lat="46.72807" lon="-2.35485">
        <ele>2.7</ele>
        <time>2018-09-21T15:41:57.000Z</time>
      </trkpt>
      <trkpt lat="46.72807" lon="-2.35484">
        <ele>2.7</ele>
        <time>2018-09-21T15:41:58.000Z</time>
      </trkpt>
      <trkpt lat="46.72806" lon="-2.35483">
        <ele>2.7</ele>
        <time>2018-09-21T15:41:59.000Z</time>
      </trkpt>
      <trkpt lat="46.72805" lon="-2.35482">
        <ele>2.7</ele>
        <time>2018-09-21T15:42:00.000Z</time>
      </trkpt>
      <trkpt lat="46.72804" lon="-2.35481">
        <ele>2.7</ele>
        <time>2018-09-21T15:42:01.000Z</time>
      </trkpt>
      <trkpt lat="46.72804" lon="-2.35479">
        <ele>2.8</ele>
        <time>2018-09-21T15:42:02.000Z</time>
      </trkpt>
      <trkpt lat="46.72803" lon="-2.35478">
        <ele>2.8</ele>
        <time>2018-09-21T15:42:03.000Z</time>
      </trkpt>
      <trkpt lat="46.72802" lon="-2.35477">
        <ele>2.8</ele>
        <time>2018-09-21T15:42:04.000Z</time>
      </trkpt>
      <trkpt lat="46.72801" lon="-2.35476">
        <ele>2.8</ele>
        <time>2018-09-21T15:42:05.000Z</time>
      </trkpt>
      <trkpt lat="46.728" lon="-2.35475">
        <ele>2.8</ele>
        <time>2018-09-21T15:42:06.000Z</time>
      </trkpt>
      <trkpt lat="46.72799" lon="-2.35474">
        <ele>2.8</ele>
        <time>2018-09-21T15:42:07.000Z</time>
      </trkpt>
      <trkpt lat="46.72799" lon="-2.35472">
        <ele>2.9</ele>
        <time>2018-09-21T15:42:08.000Z</time>
      </trkpt>
      <trkpt lat="46.72798" lon="-2.35471">
        <ele>2.9</ele>
        <time>2018-09-21T15:42:09.000Z</time>
      </trkpt>
      <trkpt lat="46.72797" lon="-2.3547">
        <ele>2.9</ele>
        <time>2018-09-21T15:42:10.000Z</time>
      </trkpt>
      <trkpt lat="46.72796" lon="-2.35469">
        <ele>2.9</ele>
        <time>2018-09-21T15:42:11.000Z</time>
      </trkpt>
      <trkpt lat="46.72795" lon="-2.35468">
        <ele>2.9</ele>
        <time>2018-09-21T15:42:12.000Z</time>
      </trkpt>
      <trkpt lat="46.72794" lon="-2.35467">
        <ele>3</ele>
        <time>2018-09-21T15:42:13.000Z</time>
      </trkpt>
      <trkpt lat="46.72794" lon="-2.35465">
        <ele>3</ele>
        <time>2018-09-21T15:42:14.000Z</time>
      </trkpt>
      <trkpt lat="46.72793" lon="-2.35464">
        <ele>3</ele>
        <time>2018-09-21T15:42:15.000Z</time>
      </trkpt>
      <trkpt lat="46.72792" lon="-2.35463">
        <ele>3</ele>
        <time>2018-09-21T15:42:16.000Z</time>
      </trkpt>
      <trkpt lat="46.72791" lon="-2.35462">
        <ele>3.1</ele>
        <time>2018-09-21T15:42:17.000Z</time>
      </trkpt>
      <trkpt lat="46.7279" lon="-2.35461">
        <ele>3.1</ele>
        <time>2018-09-21T15:42:18.000Z</time>
      </trkpt>
      <trkpt lat="46.72789" lon="-2.3546">
        <ele>3.1</ele>
        <time>2018-09-21T15:42:19.000Z</time>
      </trkpt>
      <trkpt lat="46.72788" lon="-2.35459">
        <ele>3.2</ele>
        <time>2018-09-21T15:42:20.000Z</time>
      </trkpt>
      <trkpt lat="46.72787" lon="-2.35457">
        <ele>3.2</ele>
        <time>2018-09-21T15:42:21.000Z</time>
      </trkpt>
      <trkpt lat="46.72787" lon="-2.35456">
        <ele>3.2</ele>
        <time>2018-09-21T15:42:22.000Z</time>
      </trkpt>
      <trkpt lat="46.72786" lon="-2.35455">
        <ele>3.3</ele>
        <time>2018-09-21T15:42:23.000Z</time>
      </trkpt>
      <trkpt lat="46.72785" lon="-2.35454">
        <ele>3.3</ele>
        <time>2018-09-21T15:42:24.000Z</time>
      </trkpt>
      <trkpt lat="46.72784" lon="-2.35453">
        <ele>3.3</ele>
        <time>2018-09-21T15:42:25.000Z</time>
      </trkpt>
      <trkpt lat="46.72783" lon="-2.35452">
        <ele>3.4</ele>
        <time>2018-09-21T15:42:26.000Z</time>
      </trkpt>
      <trkpt lat="46.72782" lon="-2.35451">
        <ele>3.4</ele>
        <time>2018-09-21T15:42:27.000Z</time>
      </trkpt>
      <trkpt lat="46.72781" lon="-2.3545">
        <ele>3.4</ele>
        <time>2018-09-21T15:42:28.000Z</time>
      </trkpt>
      <trkpt lat="46.7278" lon="-2.35449">
        <ele>3.5</ele>
        <time>2018-09-21T15:42:29.000Z</time>
      </trkpt>
      <trkpt lat="46.72779" lon="-2.35448">
        <ele>3.5</ele>
        <time>2018-09-21T15:42:30.000Z</time>
      </trkpt>
      <trkpt lat="46.72778" lon="-2.35447">
        <ele>3.6</ele>
        <time>2018-09-21T15:42:31.000Z</time>
      </trkpt>
      <trkpt lat="46.72777" lon="-2.35446">
        <ele>3.6</ele>
        <time>2018-09-21T15:42:32.000Z</time>
      </trkpt>
      <trkpt lat="46.72776" lon="-2.35445">
        <ele>3.6</ele>
        <time>2018-09-21T15:42:33.000Z</time>
      </trkpt>
      <trkpt lat="46.72775" lon="-2.35444">
        <ele>3.7</ele>
        <time>2018-09-21T15:42:34.000Z</time>
      </trkpt>
      <trkpt lat="46.72775" lon="-2.35443">
        <ele>3.7</ele>
        <time>2018-09-21T15:42:35.000Z</time>
      </trkpt>
      <trkpt lat="46.72774" lon="-2.35442">
        <ele>3.8</ele>
        <time>2018-09-21T15:42:36.000Z</time>
      </trkpt>
      <trkpt lat="46.72773" lon="-2.35442">
        <ele>3.8</ele>
        <time>2018-09-21T15:42:37.000Z</time>
      </trkpt>
      <trkpt lat="46.72772" lon="-2.35441">
        <ele>3.8</ele>
        <time>2018-09-21T15:42:38.000Z</time>
      </trkpt>
      <trkpt lat="46.72771" lon="-2.3544">
        <ele>3.9</ele>
        <time>2018-09-21T15:42:39.000Z</time>
      </trkpt>
      <trkpt lat="46.7277" lon="-2.35439">
        <ele>3.9</ele>
        <time>2018-09-21T15:42:40.000Z</time>
      </trkpt>
      <trkpt lat="46.72769" lon="-2.35439">
        <ele>4</ele>
        <time>2018-09-21T15:42:41.000Z</time>
      </trkpt>
      <trkpt lat="46.72768" lon="-2.35438">
        <ele>4</ele>
        <time>2018-09-21T15:42:42.000Z</time>
      </trkpt>
      <trkpt lat="46.72767" lon="-2.35437">
        <ele>4.1</ele>
        <time>2018-09-21T15:42:43.000Z</time>
      </trkpt>
      <trkpt lat="46.72766" lon="-2.35437">
        <ele>4.1</ele>
        <time>2018-09-21T15:42:44.000Z</time>
      </trkpt>
      <trkpt lat="46.72766" lon="-2.35436">
        <ele>4.2</ele>
        <time>2018-09-21T15:42:45.000Z</time>
      </trkpt>
      <trkpt lat="46.72765" lon="-2.35435">
        <ele>4.2</ele>
        <time>2018-09-21T15:42:46.000Z</time>
      </trkpt>
      <trkpt lat="46.72764" lon="-2.35434">
        <ele>4.2</ele>
        <time>2018-09-21T15:42:47.000Z</time>
      </trkpt>
      <trkpt lat="46.72763" lon="-2.35434">
        <ele>4.3</ele>
        <time>2018-09-21T15:42:48.000Z</time>
      </trkpt>
      <trkpt lat="46.72762" lon="-2.35433">
        <ele>4.3</ele>
        <time>2018-09-21T15:42:49.000Z</time>
      </trkpt>
      <trkpt lat="46.72762" lon="-2.35432">
        <ele>4.4</ele>
        <time>2018-09-21T15:42:50.000Z</time>
      </trkpt>
      <trkpt lat="46.72761" lon="-2.35431">
        <ele>4.4</ele>
        <time>2018-09-21T15:42:51.000Z</time>
      </trkpt>
      <trkpt lat="46.7276" lon="-2.3543">
        <ele>4.4</ele>
        <time>2018-09-21T15:42:52.000Z</time>
      </trkpt>
      <trkpt lat="46.72759" lon="-2.35429">
        <ele>4.5</ele>
        <time>2018-09-21T15:42:53.000Z</time>
      </trkpt>
      <trkpt lat="46.72759" lon="-2.35428">
        <ele>4.5</ele>
        <time>2018-09-21T15:42:54.000Z</time>
      </trkpt>
      <trkpt lat="46.72758" lon="-2.35426">
        <ele>4.5</ele>
        <time>2018-09-21T15:42:55.000Z</time>
      </trkpt>
      <trkpt lat="46.72757" lon="-2.35425">
        <ele>4.6</ele>
        <time>2018-09-21T15:42:56.000Z</time>
      </trkpt>
      <trkpt lat="46.72757" lon="-2.35424">
        <ele>4.6</ele>
        <time>2018-09-21T15:42:57.000Z</time>
      </trkpt>
      <trkpt lat="46.72756" lon="-2.35422">
        <ele>4.6</ele>
        <time>2018-09-21T15:42:58.000Z</time>
      </trkpt>
      <trkpt lat="46.72756" lon="-2.35421">
        <ele>4.7</ele>
        <time>2018-09-21T15:42:59.000Z</time>
      </trkpt>
      <trkpt lat="46.72755" lon="-2.35419">
        <ele>4.7</ele>
        <time>2018-09-21T15:43:00.000Z</time>
      </trkpt>
      <trkpt lat="46.72755" lon="-2.35418">
        <ele>4.7</ele>
        <time>2018-09-21T15:43:01.000Z</time>
      </trkpt>
      <trkpt lat="46.72754" lon="-2.35416">
        <ele>4.7</ele>
        <time>2018-09-21T15:43:02.000Z</time>
      </trkpt>
      <trkpt lat="46.72754" lon="-2.35415">
        <ele>4.8</ele>
        <time>2018-09-21T15:43:03.000Z</time>
      </trkpt>
      <trkpt lat="46.72754" lon="-2.35413">
        <ele>4.8</ele>
        <time>2018-09-21T15:43:04.000Z</time>
      </trkpt>
      <trkpt lat="46.72754" lon="-2.35412">
        <ele>4.8</ele>
        <time>2018-09-21T15:43:05.000Z</time>
      </trkpt>
      <trkpt lat="46.72753" lon="-2.35411">
        <ele>4.9</ele>
        <time>2018-09-21T15:43:06.000Z</time>
      </trkpt>
      <trkpt lat="46.72753" lon="-2.3541">
        <ele>4.9</ele>
        <time>2018-09-21T15:43:07.000Z</time>
      </trkpt>
      <trkpt lat="46.72753" lon="-2.35409">
        <ele>4.9</ele>
        <time>2018-09-21T15:43:08.000Z</time>
      </trkpt>
      <trkpt lat="46.72753" lon="-2.35408">
        <ele>4.9</ele>
        <time>2018-09-21T15:43:09.000Z</time>
      </trkpt>
      <trkpt lat="46.72753" lon="-2.35407">
        <ele>4.9</ele>
        <time>2018-09-21T15:43:10.000Z</time>
      </trkpt>
      <trkpt lat="46.72753" lon="-2.35406">
        <ele>5</ele>
        <time>2018-09-21T15:43:11.000Z</time>
      </trkpt>
      <trkpt lat="46.72753" lon="-2.35406">
        <ele>5</ele>
        <time>2018-09-21T15:43:12.000Z</time>
      </trkpt>
      <trkpt lat="46.72753" lon="-2.35405">
        <ele>5</ele>
        <time>2018-09-21T15:43:13.000Z</time>
      </trkpt>
      <trkpt lat="46.72753" lon="-2.35405">
        <ele>5</ele>
        <time>2018-09-21T15:43:14.000Z</time>
      </trkpt>
      <trkpt lat="46.72753" lon="-2.35405">
        <ele>5</ele>
        <time>2018-09-21T15:43:15.000Z</time>
      </trkpt>
      <trkpt lat="46.72753" lon="-2.35404">
        <ele>5</ele>
        <time>2018-09-21T15:43:16.000Z</time>
      </trkpt>
      <trkpt lat="46.72753" lon="-2.35403">
        <ele>5</ele>
        <time>2018-09-21T15:43:17.000Z</time>
      </trkpt>
      <trkpt lat="46.72753" lon="-2.35402">
        <ele>5</ele>
        <time>2018-09-21T15:43:18.000Z</time>
      </trkpt>
      <trkpt lat="46.72753" lon="-2.354">
        <ele>5</ele>
        <time>2018-09-21T15:43:19.000Z</time>
      </trkpt>
      <trkpt lat="46.72753" lon="-2.35398">
        <ele>5</ele>
        <time>2018-09-21T15:43:20.000Z</time>
      </trkpt>
      <trkpt lat="46.72754" lon="-2.35397">
        <ele>5</ele>
        <time>2018-09-21T15:43:21.000Z</time>
      </trkpt>
      <trkpt lat="46.72754" lon="-2.35395">
        <ele>5</ele>
        <time>2018-09-21T15:43:22.000Z</time>
      </trkpt>
      <trkpt lat="46.72754" lon="-2.35393">
        <ele>5</ele>
        <time>2018-09-21T15:43:23.000Z</time>
      </trkpt>
      <trkpt lat="46.72754" lon="-2.35391">
        <ele>5.1</ele>
        <time>2018-09-21T15:43:24.000Z</time>
      </trkpt>
      <trkpt lat="46.72754" lon="-2.3539">
        <ele>5.1</ele>
        <time>2018-09-21T15:43:25.000Z</time>
      </trkpt>
      <trkpt lat="46.72754" lon="-2.35388">
        <ele>5.1</ele>
        <time>2018-09-21T15:43:26.000Z</time>
      </trkpt>
      <trkpt lat="46.72754" lon="-2.35386">
        <ele>5.1</ele>
        <time>2018-09-21T15:43:27.000Z</time>
      </trkpt>
      <trkpt lat="46.72754" lon="-2.35385">
        <ele>5.1</ele>
        <time>2018-09-21T15:43:28.000Z</time>
      </trkpt>
      <trkpt lat="46.72755" lon="-2.35383">
        <ele>5.1</ele>
        <time>2018-09-21T15:43:29.000Z</time>
      </trkpt>
      <trkpt lat="46.72755" lon="-2.35382">
        <ele>5.1</ele>
        <time>2018-09-21T15:43:30.000Z</time>
      </trkpt>
      <trkpt lat="46.72755" lon="-2.3538">
        <ele>5.1</ele>
        <time>2018-09-21T15:43:31.000Z</time>
      </trkpt>
      <trkpt lat="46.72755" lon="-2.35379">
        <ele>5.1</ele>
        <time>2018-09-21T15:43:32.000Z</time>
      </trkpt>
      <trkpt lat="46.72755" lon="-2.35378">
        <ele>5.1</ele>
        <time>2018-09-21T15:43:33.000Z</time>
      </trkpt>
      <trkpt lat="46.72755" lon="-2.35376">
        <ele>5.2</ele>
        <time>2018-09-21T15:43:34.000Z</time>
      </trkpt>
      <trkpt lat="46.72755" lon="-2.35375">
        <ele>5.2</ele>
        <time>2018-09-21T15:43:35.000Z</time>
      </trkpt>
      <trkpt lat="46.72755" lon="-2.35373">
        <ele>5.2</ele>
        <time>2018-09-21T15:43:36.000Z</time>
      </trkpt>
      <trkpt lat="46.72756" lon="-2.35372">
        <ele>5.2</ele>
        <time>2018-09-21T15:43:37.000Z</time>
      </trkpt>
      <trkpt lat="46.72756" lon="-2.35371">
        <ele>5.2</ele>
        <time>2018-09-21T15:43:38.000Z</time>
      </trkpt>
      <trkpt lat="46.72756" lon="-2.35369">
        <ele>5.2</ele>
        <time>2018-09-21T15:43:39.000Z</time>
      </trkpt>
      <trkpt lat="46.72757" lon="-2.35368">
        <ele>5.2</ele>
        <time>2018-09-21T15:43:40.000Z</time>
      </trkpt>
      <trkpt lat="46.72757" lon="-2.35366">
        <ele>5.1</ele>
        <time>2018-09-21T15:43:41.000Z</time>
      </trkpt>
      <trkpt lat="46.72757" lon="-2.35365">
        <ele>5.1</ele>
        <time>2018-09-21T15:43:42.000Z</time>
      </trkpt>
      <trkpt lat="46.72758" lon="-2.35363">
        <ele>5.1</ele>
        <time>2018-09-21T15:43:43.000Z</time>
      </trkpt>
      <trkpt lat="46.72758" lon="-2.35361">
        <ele>5.1</ele>
        <time>2018-09-21T15:43:44.000Z</time>
      </trkpt>
      <trkpt lat="46.72759" lon="-2.3536">
        <ele>5.1</ele>
        <time>2018-09-21T15:43:45.000Z</time>
      </trkpt>
      <trkpt lat="46.72759" lon="-2.35358">
        <ele>5.1</ele>
        <time>2018-09-21T15:43:46.000Z</time>
      </trkpt>
      <trkpt lat="46.7276" lon="-2.35357">
        <ele>5</ele>
        <time>2018-09-21T15:43:47.000Z</time>
      </trkpt>
      <trkpt lat="46.7276" lon="-2.35355">
        <ele>5</ele>
        <time>2018-09-21T15:43:48.000Z</time>
      </trkpt>
      <trkpt lat="46.72761" lon="-2.35354">
        <ele>5</ele>
        <time>2018-09-21T15:43:49.000Z</time>
      </trkpt>
      <trkpt lat="46.72761" lon="-2.35352">
        <ele>5</ele>
        <time>2018-09-21T15:43:50.000Z</time>
      </trkpt>
      <trkpt lat="46.72762" lon="-2.35351">
        <ele>5</ele>
        <time>2018-09-21T15:43:51.000Z</time>
      </trkpt>
      <trkpt lat="46.72762" lon="-2.3535">
        <ele>5</ele>
        <time>2018-09-21T15:43:52.000Z</time>
      </trkpt>
      <trkpt lat="46.72763" lon="-2.35349">
        <ele>4.9</ele>
        <time>2018-09-21T15:43:53.000Z</time>
      </trkpt>
      <trkpt lat="46.72763" lon="-2.35347">
        <ele>4.9</ele>
        <time>2018-09-21T15:43:54.000Z</time>
      </trkpt>
      <trkpt lat="46.72763" lon="-2.35346">
        <ele>4.9</ele>
        <time>2018-09-21T15:43:55.000Z</time>
      </trkpt>
      <trkpt lat="46.72763" lon="-2.35345">
        <ele>4.9</ele>
        <time>2018-09-21T15:43:56.000Z</time>
      </trkpt>
      <trkpt lat="46.72764" lon="-2.35343">
        <ele>4.9</ele>
        <time>2018-09-21T15:43:57.000Z</time>
      </trkpt>
      <trkpt lat="46.72764" lon="-2.35342">
        <ele>4.9</ele>
        <time>2018-09-21T15:43:58.000Z</time>
      </trkpt>
      <trkpt lat="46.72764" lon="-2.3534">
        <ele>4.9</ele>
        <time>2018-09-21T15:43:59.000Z</time>
      </trkpt>
      <trkpt lat="46.72764" lon="-2.35339">
        <ele>5</ele>
        <time>2018-09-21T15:44:00.000Z</time>
      </trkpt>
      <trkpt lat="46.72764" lon="-2.35337">
        <ele>5</ele>
        <time>2018-09-21T15:44:01.000Z</time>
      </trkpt>
      <trkpt lat="46.72764" lon="-2.35336">
        <ele>5</ele>
        <time>2018-09-21T15:44:02.000Z</time>
      </trkpt>
      <trkpt lat="46.72764" lon="-2.35334">
        <ele>5</ele>
        <time>2018-09-21T15:44:03.000Z</time>
      </trkpt>
      <trkpt lat="46.72763" lon="-2.35332">
        <ele>5</ele>
        <time>2018-09-21T15:44:04.000Z</time>
      </trkpt>
      <trkpt lat="46.72763" lon="-2.3533">
        <ele>5</ele>
        <time>2018-09-21T15:44:05.000Z</time>
      </trkpt>
      <trkpt lat="46.72763" lon="-2.35328">
        <ele>5</ele>
        <time>2018-09-21T15:44:06.000Z</time>
      </trkpt>
      <trkpt lat="46.72763" lon="-2.35327">
        <ele>5.1</ele>
        <time>2018-09-21T15:44:07.000Z</time>
      </trkpt>
      <trkpt lat="46.72763" lon="-2.35325">
        <ele>5.1</ele>
        <time>2018-09-21T15:44:08.000Z</time>
      </trkpt>
      <trkpt lat="46.72763" lon="-2.35323">
        <ele>5.1</ele>
        <time>2018-09-21T15:44:09.000Z</time>
      </trkpt>
      <trkpt lat="46.72763" lon="-2.35321">
        <ele>5.1</ele>
        <time>2018-09-21T15:44:10.000Z</time>
      </trkpt>
      <trkpt lat="46.72763" lon="-2.3532">
        <ele>5.1</ele>
        <time>2018-09-21T15:44:11.000Z</time>
      </trkpt>
      <trkpt lat="46.72763" lon="-2.35318">
        <ele>5</ele>
        <time>2018-09-21T15:44:12.000Z</time>
      </trkpt>
      <trkpt lat="46.72763" lon="-2.35317">
        <ele>5</ele>
        <time>2018-09-21T15:44:13.000Z</time>
      </trkpt>
      <trkpt lat="46.72764" lon="-2.35315">
        <ele>5</ele>
        <time>2018-09-21T15:44:14.000Z</time>
      </trkpt>
      <trkpt lat="46.72764" lon="-2.35314">
        <ele>5</ele>
        <time>2018-09-21T15:44:15.000Z</time>
      </trkpt>
      <trkpt lat="46.72764" lon="-2.35313">
        <ele>5</ele>
        <time>2018-09-21T15:44:16.000Z</time>
      </trkpt>
      <trkpt lat="46.72764" lon="-2.35311">
        <ele>5</ele>
        <time>2018-09-21T15:44:17.000Z</time>
      </trkpt>
      <trkpt lat="46.72765" lon="-2.3531">
        <ele>5</ele>
        <time>2018-09-21T15:44:18.000Z</time>
      </trkpt>
      <trkpt lat="46.72765" lon="-2.35308">
        <ele>4.9</ele>
        <time>2018-09-21T15:44:19.000Z</time>
      </trkpt>
      <trkpt lat="46.72765" lon="-2.35307">
        <ele>4.9</ele>
        <time>2018-09-21T15:44:20.000Z</time>
      </trkpt>
      <trkpt lat="46.72765" lon="-2.35305">
        <ele>4.9</ele>
        <time>2018-09-21T15:44:21.000Z</time>
      </trkpt>
      <trkpt lat="46.72765" lon="-2.35304">
        <ele>4.9</ele>
        <time>2018-09-21T15:44:22.000Z</time>
      </trkpt>
      <trkpt lat="46.72766" lon="-2.35302">
        <ele>4.9</ele>
        <time>2018-09-21T15:44:23.000Z</time>
      </trkpt>
      <trkpt lat="46.72766" lon="-2.35301">
        <ele>4.9</ele>
        <time>2018-09-21T15:44:24.000Z</time>
      </trkpt>
      <trkpt lat="46.72766" lon="-2.35299">
        <ele>4.8</ele>
        <time>2018-09-21T15:44:25.000Z</time>
      </trkpt>
      <trkpt lat="46.72766" lon="-2.35297">
        <ele>4.8</ele>
        <time>2018-09-21T15:44:26.000Z</time>
      </trkpt>
      <trkpt lat="46.72767" lon="-2.35296">
        <ele>4.8</ele>
        <time>2018-09-21T15:44:27.000Z</time>
      </trkpt>
      <trkpt lat="46.72767" lon="-2.35294">
        <ele>4.8</ele>
        <time>2018-09-21T15:44:28.000Z</time>
      </trkpt>
      <trkpt lat="46.72767" lon="-2.35293">
        <ele>4.8</ele>
        <time>2018-09-21T15:44:29.000Z</time>
      </trkpt>
      <trkpt lat="46.72767" lon="-2.35291">
        <ele>4.8</ele>
        <time>2018-09-21T15:44:30.000Z</time>
      </trkpt>
      <trkpt lat="46.72768" lon="-2.35289">
        <ele>4.7</ele>
        <time>2018-09-21T15:44:31.000Z</time>
      </trkpt>
      <trkpt lat="46.72768" lon="-2.35288">
        <ele>4.7</ele>
        <time>2018-09-21T15:44:32.000Z</time>
      </trkpt>
      <trkpt lat="46.72768" lon="-2.35286">
        <ele>4.7</ele>
        <time>2018-09-21T15:44:33.000Z</time>
      </trkpt>
      <trkpt lat="46.72768" lon="-2.35284">
        <ele>4.7</ele>
        <time>2018-09-21T15:44:34.000Z</time>
      </trkpt>
      <trkpt lat="46.72769" lon="-2.35283">
        <ele>4.7</ele>
        <time>2018-09-21T15:44:35.000Z</time>
      </trkpt>
      <trkpt lat="46.72769" lon="-2.35281">
        <ele>4.6</ele>
        <time>2018-09-21T15:44:36.000Z</time>
      </trkpt>
      <trkpt lat="46.72769" lon="-2.35279">
        <ele>4.6</ele>
        <time>2018-09-21T15:44:37.000Z</time>
      </trkpt>
      <trkpt lat="46.7277" lon="-2.35278">
        <ele>4.6</ele>
        <time>2018-09-21T15:44:38.000Z</time>
      </trkpt>
      <trkpt lat="46.7277" lon="-2.35276">
        <ele>4.6</ele>
        <time>2018-09-21T15:44:39.000Z</time>
      </trkpt>
      <trkpt lat="46.7277" lon="-2.35274">
        <ele>4.5</ele>
        <time>2018-09-21T15:44:40.000Z</time>
      </trkpt>
      <trkpt lat="46.72771" lon="-2.35273">
        <ele>4.5</ele>
        <time>2018-09-21T15:44:41.000Z</time>
      </trkpt>
      <trkpt lat="46.72771" lon="-2.35271">
        <ele>4.5</ele>
        <time>2018-09-21T15:44:42.000Z</time>
      </trkpt>
      <trkpt lat="46.72771" lon="-2.35269">
        <ele>4.5</ele>
        <time>2018-09-21T15:44:43.000Z</time>
      </trkpt>
      <trkpt lat="46.72771" lon="-2.35268">
        <ele>4.5</ele>
        <time>2018-09-21T15:44:44.000Z</time>
      </trkpt>
      <trkpt lat="46.72771" lon="-2.35266">
        <ele>4.5</ele>
        <time>2018-09-21T15:44:45.000Z</time>
      </trkpt>
      <trkpt lat="46.72771" lon="-2.35264">
        <ele>4.5</ele>
        <time>2018-09-21T15:44:46.000Z</time>
      </trkpt>
      <trkpt lat="46.72772" lon="-2.35263">
        <ele>4.4</ele>
        <time>2018-09-21T15:44:47.000Z</time>
      </trkpt>
      <trkpt lat="46.72772" lon="-2.35262">
        <ele>4.4</ele>
        <time>2018-09-21T15:44:48.000Z</time>
      </trkpt>
      <trkpt lat="46.72772" lon="-2.35261">
        <ele>4.4</ele>
        <time>2018-09-21T15:44:49.000Z</time>
      </trkpt>
      <trkpt lat="46.72772" lon="-2.3526">
        <ele>4.4</ele>
        <time>2018-09-21T15:44:50.000Z</time>
      </trkpt>
      <trkpt lat="46.72773" lon="-2.35259">
        <ele>4.4</ele>
        <time>2018-09-21T15:44:51.000Z</time>
      </trkpt>
      <trkpt lat="46.72773" lon="-2.35259">
        <ele>4.4</ele>
        <time>2018-09-21T15:44:52.000Z</time>
      </trkpt>
      <trkpt lat="46.72773" lon="-2.35258">
        <ele>4.4</ele>
        <time>2018-09-21T15:44:53.000Z</time>
      </trkpt>
      <trkpt lat="46.72773" lon="-2.35258">
        <ele>4.4</ele>
        <time>2018-09-21T15:44:54.000Z</time>
      </trkpt>
      <trkpt lat="46.72773" lon="-2.35257">
        <ele>4.3</ele>
        <time>2018-09-21T15:44:55.000Z</time>
      </trkpt>
      <trkpt lat="46.72773" lon="-2.35256">
        <ele>4.3</ele>
        <time>2018-09-21T15:44:56.000Z</time>
      </trkpt>
      <trkpt lat="46.72774" lon="-2.35256">
        <ele>4.3</ele>
        <time>2018-09-21T15:44:57.000Z</time>
      </trkpt>
      <trkpt lat="46.72774" lon="-2.35254">
        <ele>4.3</ele>
        <time>2018-09-21T15:44:58.000Z</time>
      </trkpt>
      <trkpt lat="46.72775" lon="-2.35253">
        <ele>4.2</ele>
        <time>2018-09-21T15:44:59.000Z</time>
      </trkpt>
      <trkpt lat="46.72776" lon="-2.35252">
        <ele>4.1</ele>
        <time>2018-09-21T15:45:00.000Z</time>
      </trkpt>
      <trkpt lat="46.72777" lon="-2.3525">
        <ele>4.1</ele>
        <time>2018-09-21T15:45:01.000Z</time>
      </trkpt>
      <trkpt lat="46.72778" lon="-2.35249">
        <ele>4</ele>
        <time>2018-09-21T15:45:02.000Z</time>
      </trkpt>
      <trkpt lat="46.72779" lon="-2.35247">
        <ele>4</ele>
        <time>2018-09-21T15:45:03.000Z</time>
      </trkpt>
      <trkpt lat="46.7278" lon="-2.35245">
        <ele>3.9</ele>
        <time>2018-09-21T15:45:04.000Z</time>
      </trkpt>
      <trkpt lat="46.72781" lon="-2.35243">
        <ele>3.9</ele>
        <time>2018-09-21T15:45:05.000Z</time>
      </trkpt>
      <trkpt lat="46.72782" lon="-2.35242">
        <ele>3.9</ele>
        <time>2018-09-21T15:45:06.000Z</time>
      </trkpt>
      <trkpt lat="46.72783" lon="-2.3524">
        <ele>3.8</ele>
        <time>2018-09-21T15:45:07.000Z</time>
      </trkpt>
      <trkpt lat="46.72784" lon="-2.35239">
        <ele>3.8</ele>
        <time>2018-09-21T15:45:08.000Z</time>
      </trkpt>
      <trkpt lat="46.72784" lon="-2.35237">
        <ele>3.8</ele>
        <time>2018-09-21T15:45:09.000Z</time>
      </trkpt>
      <trkpt lat="46.72785" lon="-2.35236">
        <ele>3.8</ele>
        <time>2018-09-21T15:45:10.000Z</time>
      </trkpt>
      <trkpt lat="46.72786" lon="-2.35235">
        <ele>3.7</ele>
        <time>2018-09-21T15:45:11.000Z</time>
      </trkpt>
      <trkpt lat="46.72786" lon="-2.35233">
        <ele>3.7</ele>
        <time>2018-09-21T15:45:12.000Z</time>
      </trkpt>
      <trkpt lat="46.72787" lon="-2.35232">
        <ele>3.7</ele>
        <time>2018-09-21T15:45:13.000Z</time>
      </trkpt>
      <trkpt lat="46.72788" lon="-2.35231">
        <ele>3.7</ele>
        <time>2018-09-21T15:45:14.000Z</time>
      </trkpt>
      <trkpt lat="46.72788" lon="-2.35229">
        <ele>3.7</ele>
        <time>2018-09-21T15:45:15.000Z</time>
      </trkpt>
      <trkpt lat="46.72789" lon="-2.35228">
        <ele>3.7</ele>
        <time>2018-09-21T15:45:16.000Z</time>
      </trkpt>
      <trkpt lat="46.72789" lon="-2.35226">
        <ele>3.7</ele>
        <time>2018-09-21T15:45:17.000Z</time>
      </trkpt>
      <trkpt lat="46.7279" lon="-2.35225">
        <ele>3.7</ele>
        <time>2018-09-21T15:45:18.000Z</time>
      </trkpt>
      <trkpt lat="46.72791" lon="-2.35224">
        <ele>3.7</ele>
        <time>2018-09-21T15:45:19.000Z</time>
      </trkpt>
      <trkpt lat="46.72791" lon="-2.35222">
        <ele>3.7</ele>
        <time>2018-09-21T15:45:20.000Z</time>
      </trkpt>
      <trkpt lat="46.72792" lon="-2.35221">
        <ele>3.7</ele>
        <time>2018-09-21T15:45:21.000Z</time>
      </trkpt>
      <trkpt lat="46.72792" lon="-2.35219">
        <ele>3.7</ele>
        <time>2018-09-21T15:45:22.000Z</time>
      </trkpt>
      <trkpt lat="46.72793" lon="-2.35218">
        <ele>3.7</ele>
        <time>2018-09-21T15:45:23.000Z</time>
      </trkpt>
      <trkpt lat="46.72793" lon="-2.35216">
        <ele>3.7</ele>
        <time>2018-09-21T15:45:24.000Z</time>
      </trkpt>
      <trkpt lat="46.72794" lon="-2.35214">
        <ele>3.7</ele>
        <time>2018-09-21T15:45:25.000Z</time>
      </trkpt>
      <trkpt lat="46.72794" lon="-2.35213">
        <ele>3.8</ele>
        <time>2018-09-21T15:45:26.000Z</time>
      </trkpt>
      <trkpt lat="46.72795" lon="-2.35211">
        <ele>3.8</ele>
        <time>2018-09-21T15:45:27.000Z</time>
      </trkpt>
      <trkpt lat="46.72795" lon="-2.3521">
        <ele>3.8</ele>
        <time>2018-09-21T15:45:28.000Z</time>
      </trkpt>
      <trkpt lat="46.72795" lon="-2.35208">
        <ele>3.8</ele>
        <time>2018-09-21T15:45:29.000Z</time>
      </trkpt>
      <trkpt lat="46.72796" lon="-2.35206">
        <ele>3.9</ele>
        <time>2018-09-21T15:45:30.000Z</time>
      </trkpt>
      <trkpt lat="46.72796" lon="-2.35205">
        <ele>3.9</ele>
        <time>2018-09-21T15:45:31.000Z</time>
      </trkpt>
      <trkpt lat="46.72796" lon="-2.35203">
        <ele>3.9</ele>
        <time>2018-09-21T15:45:32.000Z</time>
      </trkpt>
      <trkpt lat="46.72796" lon="-2.35202">
        <ele>4</ele>
        <time>2018-09-21T15:45:33.000Z</time>
      </trkpt>
      <trkpt lat="46.72796" lon="-2.352">
        <ele>4</ele>
        <time>2018-09-21T15:45:34.000Z</time>
      </trkpt>
      <trkpt lat="46.72796" lon="-2.35198">
        <ele>4.1</ele>
        <time>2018-09-21T15:45:35.000Z</time>
      </trkpt>
      <trkpt lat="46.72796" lon="-2.35197">
        <ele>4.1</ele>
        <time>2018-09-21T15:45:36.000Z</time>
      </trkpt>
      <trkpt lat="46.72795" lon="-2.35195">
        <ele>4.2</ele>
        <time>2018-09-21T15:45:37.000Z</time>
      </trkpt>
      <trkpt lat="46.72795" lon="-2.35194">
        <ele>4.2</ele>
        <time>2018-09-21T15:45:38.000Z</time>
      </trkpt>
      <trkpt lat="46.72795" lon="-2.35192">
        <ele>4.3</ele>
        <time>2018-09-21T15:45:39.000Z</time>
      </trkpt>
      <trkpt lat="46.72794" lon="-2.3519">
        <ele>4.3</ele>
        <time>2018-09-21T15:45:40.000Z</time>
      </trkpt>
      <trkpt lat="46.72794" lon="-2.35189">
        <ele>4.4</ele>
        <time>2018-09-21T15:45:41.000Z</time>
      </trkpt>
      <trkpt lat="46.72794" lon="-2.35187">
        <ele>4.4</ele>
        <time>2018-09-21T15:45:42.000Z</time>
      </trkpt>
      <trkpt lat="46.72793" lon="-2.35186">
        <ele>4.5</ele>
        <time>2018-09-21T15:45:43.000Z</time>
      </trkpt>
      <trkpt lat="46.72793" lon="-2.35184">
        <ele>4.6</ele>
        <time>2018-09-21T15:45:44.000Z</time>
      </trkpt>
      <trkpt lat="46.72792" lon="-2.35183">
        <ele>4.6</ele>
        <time>2018-09-21T15:45:45.000Z</time>
      </trkpt>
      <trkpt lat="46.72792" lon="-2.35181">
        <ele>4.7</ele>
        <time>2018-09-21T15:45:46.000Z</time>
      </trkpt>
      <trkpt lat="46.72791" lon="-2.35179">
        <ele>4.7</ele>
        <time>2018-09-21T15:45:47.000Z</time>
      </trkpt>
      <trkpt lat="46.7279" lon="-2.35178">
        <ele>4.8</ele>
        <time>2018-09-21T15:45:48.000Z</time>
      </trkpt>
      <trkpt lat="46.7279" lon="-2.35176">
        <ele>4.8</ele>
        <time>2018-09-21T15:45:49.000Z</time>
      </trkpt>
      <trkpt lat="46.7279" lon="-2.35175">
        <ele>4.9</ele>
        <time>2018-09-21T15:45:50.000Z</time>
      </trkpt>
      <trkpt lat="46.72789" lon="-2.35173">
        <ele>4.9</ele>
        <time>2018-09-21T15:45:51.000Z</time>
      </trkpt>
      <trkpt lat="46.72789" lon="-2.35171">
        <ele>5</ele>
        <time>2018-09-21T15:45:52.000Z</time>
      </trkpt>
      <trkpt lat="46.72788" lon="-2.3517">
        <ele>5</ele>
        <time>2018-09-21T15:45:53.000Z</time>
      </trkpt>
      <trkpt lat="46.72788" lon="-2.35168">
        <ele>5.1</ele>
        <time>2018-09-21T15:45:54.000Z</time>
      </trkpt>
      <trkpt lat="46.72787" lon="-2.35167">
        <ele>5.1</ele>
        <time>2018-09-21T15:45:55.000Z</time>
      </trkpt>
      <trkpt lat="46.72787" lon="-2.35165">
        <ele>5.1</ele>
        <time>2018-09-21T15:45:56.000Z</time>
      </trkpt>
      <trkpt lat="46.72787" lon="-2.35164">
        <ele>5.1</ele>
        <time>2018-09-21T15:45:57.000Z</time>
      </trkpt>
      <trkpt lat="46.72787" lon="-2.35162">
        <ele>5.1</ele>
        <time>2018-09-21T15:45:58.000Z</time>
      </trkpt>
      <trkpt lat="46.72786" lon="-2.3516">
        <ele>5.1</ele>
        <time>2018-09-21T15:45:59.000Z</time>
      </trkpt>
      <trkpt lat="46.72786" lon="-2.35159">
        <ele>5</ele>
        <time>2018-09-21T15:46:00.000Z</time>
      </trkpt>
      <trkpt lat="46.72786" lon="-2.35157">
        <ele>5</ele>
        <time>2018-09-21T15:46:01.000Z</time>
      </trkpt>
      <trkpt lat="46.72786" lon="-2.35155">
        <ele>5</ele>
        <time>2018-09-21T15:46:02.000Z</time>
      </trkpt>
      <trkpt lat="46.72786" lon="-2.35154">
        <ele>5</ele>
        <time>2018-09-21T15:46:03.000Z</time>
      </trkpt>
      <trkpt lat="46.72786" lon="-2.35152">
        <ele>5</ele>
        <time>2018-09-21T15:46:04.000Z</time>
      </trkpt>
      <trkpt lat="46.72786" lon="-2.3515">
        <ele>5</ele>
        <time>2018-09-21T15:46:05.000Z</time>
      </trkpt>
      <trkpt lat="46.72785" lon="-2.35149">
        <ele>4.9</ele>
        <time>2018-09-21T15:46:06.000Z</time>
      </trkpt>
      <trkpt lat="46.72785" lon="-2.35147">
        <ele>4.9</ele>
        <time>2018-09-21T15:46:07.000Z</time>
      </trkpt>
      <trkpt lat="46.72785" lon="-2.35145">
        <ele>4.9</ele>
        <time>2018-09-21T15:46:08.000Z</time>
      </trkpt>
      <trkpt lat="46.72785" lon="-2.35144">
        <ele>4.9</ele>
        <time>2018-09-21T15:46:09.000Z</time>
      </trkpt>
      <trkpt lat="46.72785" lon="-2.35142">
        <ele>4.9</ele>
        <time>2018-09-21T15:46:10.000Z</time>
      </trkpt>
      <trkpt lat="46.72785" lon="-2.35141">
        <ele>4.8</ele>
        <time>2018-09-21T15:46:11.000Z</time>
      </trkpt>
      <trkpt lat="46.72785" lon="-2.35139">
        <ele>4.8</ele>
        <time>2018-09-21T15:46:12.000Z</time>
      </trkpt>
      <trkpt lat="46.72785" lon="-2.35138">
        <ele>4.8</ele>
        <time>2018-09-21T15:46:13.000Z</time>
      </trkpt>
      <trkpt lat="46.72785" lon="-2.35136">
        <ele>4.8</ele>
        <time>2018-09-21T15:46:14.000Z</time>
      </trkpt>
      <trkpt lat="46.72784" lon="-2.35135">
        <ele>4.8</ele>
        <time>2018-09-21T15:46:15.000Z</time>
      </trkpt>
      <trkpt lat="46.72784" lon="-2.35133">
        <ele>4.8</ele>
        <time>2018-09-21T15:46:16.000Z</time>
      </trkpt>
      <trkpt lat="46.72784" lon="-2.35132">
        <ele>4.8</ele>
        <time>2018-09-21T15:46:17.000Z</time>
      </trkpt>
      <trkpt lat="46.72784" lon="-2.35131">
        <ele>4.8</ele>
        <time>2018-09-21T15:46:18.000Z</time>
      </trkpt>
      <trkpt lat="46.72784" lon="-2.35129">
        <ele>4.7</ele>
        <time>2018-09-21T15:46:19.000Z</time>
      </trkpt>
      <trkpt lat="46.72783" lon="-2.35128">
        <ele>4.7</ele>
        <time>2018-09-21T15:46:20.000Z</time>
      </trkpt>
      <trkpt lat="46.72783" lon="-2.35127">
        <ele>4.7</ele>
        <time>2018-09-21T15:46:21.000Z</time>
      </trkpt>
      <trkpt lat="46.72783" lon="-2.35125">
        <ele>4.7</ele>
        <time>2018-09-21T15:46:22.000Z</time>
      </trkpt>
      <trkpt lat="46.72783" lon="-2.35124">
        <ele>4.7</ele>
        <time>2018-09-21T15:46:23.000Z</time>
      </trkpt>
      <trkpt lat="46.72782" lon="-2.35123">
        <ele>4.7</ele>
        <time>2018-09-21T15:46:24.000Z</time>
      </trkpt>
      <trkpt lat="46.72782" lon="-2.35121">
        <ele>4.7</ele>
        <time>2018-09-21T15:46:25.000Z</time>
      </trkpt>
      <trkpt lat="46.72782" lon="-2.3512">
        <ele>4.7</ele>
        <time>2018-09-21T15:46:26.000Z</time>
      </trkpt>
      <trkpt lat="46.72781" lon="-2.35118">
        <ele>4.7</ele>
        <time>2018-09-21T15:46:27.000Z</time>
      </trkpt>
      <trkpt lat="46.72781" lon="-2.35117">
        <ele>4.7</ele>
        <time>2018-09-21T15:46:28.000Z</time>
      </trkpt>
      <trkpt lat="46.7278" lon="-2.35116">
        <ele>4.7</ele>
        <time>2018-09-21T15:46:29.000Z</time>
      </trkpt>
      <trkpt lat="46.7278" lon="-2.35114">
        <ele>4.7</ele>
        <time>2018-09-21T15:46:30.000Z</time>
      </trkpt>
      <trkpt lat="46.72779" lon="-2.35113">
        <ele>4.6</ele>
        <time>2018-09-21T15:46:31.000Z</time>
      </trkpt>
      <trkpt lat="46.72779" lon="-2.35111">
        <ele>4.6</ele>
        <time>2018-09-21T15:46:32.000Z</time>
      </trkpt>
      <trkpt lat="46.72778" lon="-2.3511">
        <ele>4.6</ele>
        <time>2018-09-21T15:46:33.000Z</time>
      </trkpt>
      <trkpt lat="46.72778" lon="-2.35108">
        <ele>4.6</ele>
        <time>2018-09-21T15:46:34.000Z</time>
      </trkpt>
      <trkpt lat="46.72777" lon="-2.35107">
        <ele>4.6</ele>
        <time>2018-09-21T15:46:35.000Z</time>
      </trkpt>
      <trkpt lat="46.72777" lon="-2.35105">
        <ele>4.6</ele>
        <time>2018-09-21T15:46:36.000Z</time>
      </trkpt>
      <trkpt lat="46.72776" lon="-2.35104">
        <ele>4.6</ele>
        <time>2018-09-21T15:46:37.000Z</time>
      </trkpt>
      <trkpt lat="46.72776" lon="-2.35102">
        <ele>4.6</ele>
        <time>2018-09-21T15:46:38.000Z</time>
      </trkpt>
      <trkpt lat="46.72775" lon="-2.35101">
        <ele>4.6</ele>
        <time>2018-09-21T15:46:39.000Z</time>
      </trkpt>
      <trkpt lat="46.72775" lon="-2.35099">
        <ele>4.6</ele>
        <time>2018-09-21T15:46:40.000Z</time>
      </trkpt>
      <trkpt lat="46.72774" lon="-2.35098">
        <ele>4.6</ele>
        <time>2018-09-21T15:46:41.000Z</time>
      </trkpt>
      <trkpt lat="46.72774" lon="-2.35096">
        <ele>4.6</ele>
        <time>2018-09-21T15:46:42.000Z</time>
      </trkpt>
      <trkpt lat="46.72773" lon="-2.35095">
        <ele>4.6</ele>
        <time>2018-09-21T15:46:43.000Z</time>
      </trkpt>
      <trkpt lat="46.72773" lon="-2.35094">
        <ele>4.6</ele>
        <time>2018-09-21T15:46:44.000Z</time>
      </trkpt>
      <trkpt lat="46.72772" lon="-2.35092">
        <ele>4.6</ele>
        <time>2018-09-21T15:46:45.000Z</time>
      </trkpt>
      <trkpt lat="46.72772" lon="-2.35091">
        <ele>4.6</ele>
        <time>2018-09-21T15:46:46.000Z</time>
      </trkpt>
      <trkpt lat="46.72771" lon="-2.3509">
        <ele>4.6</ele>
        <time>2018-09-21T15:46:47.000Z</time>
      </trkpt>
      <trkpt lat="46.72771" lon="-2.35088">
        <ele>4.6</ele>
        <time>2018-09-21T15:46:48.000Z</time>
      </trkpt>
      <trkpt lat="46.72771" lon="-2.35087">
        <ele>4.5</ele>
        <time>2018-09-21T15:46:49.000Z</time>
      </trkpt>
      <trkpt lat="46.7277" lon="-2.35085">
        <ele>4.5</ele>
        <time>2018-09-21T15:46:50.000Z</time>
      </trkpt>
      <trkpt lat="46.7277" lon="-2.35084">
        <ele>4.5</ele>
        <time>2018-09-21T15:46:51.000Z</time>
      </trkpt>
      <trkpt lat="46.7277" lon="-2.35083">
        <ele>5</ele>
        <time>2018-09-21T15:46:52.000Z</time>
      </trkpt>
      <trkpt lat="46.7277" lon="-2.35081">
        <ele>5</ele>
        <time>2018-09-21T15:46:53.000Z</time>
      </trkpt>
      <trkpt lat="46.72769" lon="-2.3508">
        <ele>5</ele>
        <time>2018-09-21T15:46:54.000Z</time>
      </trkpt>
      <trkpt lat="46.72769" lon="-2.35078">
        <ele>5</ele>
        <time>2018-09-21T15:46:55.000Z</time>
      </trkpt>
      <trkpt lat="46.72769" lon="-2.35077">
        <ele>5</ele>
        <time>2018-09-21T15:46:56.000Z</time>
      </trkpt>
      <trkpt lat="46.72769" lon="-2.35075">
        <ele>5</ele>
        <time>2018-09-21T15:46:57.000Z</time>
      </trkpt>
      <trkpt lat="46.72769" lon="-2.35074">
        <ele>5</ele>
        <time>2018-09-21T15:46:58.000Z</time>
      </trkpt>
      <trkpt lat="46.72769" lon="-2.35072">
        <ele>5</ele>
        <time>2018-09-21T15:46:59.000Z</time>
      </trkpt>
      <trkpt lat="46.72769" lon="-2.35071">
        <ele>5</ele>
        <time>2018-09-21T15:47:00.000Z</time>
      </trkpt>
      <trkpt lat="46.72769" lon="-2.35069">
        <ele>5</ele>
        <time>2018-09-21T15:47:01.000Z</time>
      </trkpt>
      <trkpt lat="46.72768" lon="-2.35068">
        <ele>5</ele>
        <time>2018-09-21T15:47:02.000Z</time>
      </trkpt>
      <trkpt lat="46.72768" lon="-2.35066">
        <ele>5</ele>
        <time>2018-09-21T15:47:03.000Z</time>
      </trkpt>
      <trkpt lat="46.72768" lon="-2.35065">
        <ele>5</ele>
        <time>2018-09-21T15:47:04.000Z</time>
      </trkpt>
      <trkpt lat="46.72768" lon="-2.35063">
        <ele>5</ele>
        <time>2018-09-21T15:47:05.000Z</time>
      </trkpt>
      <trkpt lat="46.72768" lon="-2.35062">
        <ele>5</ele>
        <time>2018-09-21T15:47:06.000Z</time>
      </trkpt>
      <trkpt lat="46.72767" lon="-2.3506">
        <ele>5</ele>
        <time>2018-09-21T15:47:07.000Z</time>
      </trkpt>
      <trkpt lat="46.72767" lon="-2.35059">
        <ele>5</ele>
        <time>2018-09-21T15:47:08.000Z</time>
      </trkpt>
      <trkpt lat="46.72766" lon="-2.35057">
        <ele>5</ele>
        <time>2018-09-21T15:47:09.000Z</time>
      </trkpt>
      <trkpt lat="46.72765" lon="-2.35056">
        <ele>5</ele>
        <time>2018-09-21T15:47:10.000Z</time>
      </trkpt>
      <trkpt lat="46.72765" lon="-2.35054">
        <ele>5</ele>
        <time>2018-09-21T15:47:11.000Z</time>
      </trkpt>
      <trkpt lat="46.72764" lon="-2.35053">
        <ele>5</ele>
        <time>2018-09-21T15:47:12.000Z</time>
      </trkpt>
      <trkpt lat="46.72763" lon="-2.35052">
        <ele>5</ele>
        <time>2018-09-21T15:47:13.000Z</time>
      </trkpt>
      <trkpt lat="46.72762" lon="-2.3505">
        <ele>5</ele>
        <time>2018-09-21T15:47:14.000Z</time>
      </trkpt>
      <trkpt lat="46.72761" lon="-2.35049">
        <ele>5</ele>
        <time>2018-09-21T15:47:15.000Z</time>
      </trkpt>
      <trkpt lat="46.7276" lon="-2.35047">
        <ele>5</ele>
        <time>2018-09-21T15:47:16.000Z</time>
      </trkpt>
      <trkpt lat="46.72759" lon="-2.35046">
        <ele>5</ele>
        <time>2018-09-21T15:47:17.000Z</time>
      </trkpt>
      <trkpt lat="46.72759" lon="-2.35044">
        <ele>5</ele>
        <time>2018-09-21T15:47:18.000Z</time>
      </trkpt>
      <trkpt lat="46.72759" lon="-2.35043">
        <ele>5</ele>
        <time>2018-09-21T15:47:19.000Z</time>
      </trkpt>
      <trkpt lat="46.72758" lon="-2.35041">
        <ele>2</ele>
        <time>2018-09-21T15:47:20.000Z</time>
      </trkpt>
      <trkpt lat="46.72758" lon="-2.3504">
        <ele>2</ele>
        <time>2018-09-21T15:47:21.000Z</time>
      </trkpt>
      <trkpt lat="46.72758" lon="-2.35039">
        <ele>2</ele>
        <time>2018-09-21T15:47:22.000Z</time>
      </trkpt>
      <trkpt lat="46.72758" lon="-2.35037">
        <ele>2</ele>
        <time>2018-09-21T15:47:23.000Z</time>
      </trkpt>
      <trkpt lat="46.72758" lon="-2.35036">
        <ele>2</ele>
        <time>2018-09-21T15:47:24.000Z</time>
      </trkpt>
      <trkpt lat="46.72758" lon="-2.35035">
        <ele>2</ele>
        <time>2018-09-21T15:47:25.000Z</time>
      </trkpt>
      <trkpt lat="46.72758" lon="-2.35033">
        <ele>2</ele>
        <time>2018-09-21T15:47:26.000Z</time>
      </trkpt>
      <trkpt lat="46.72758" lon="-2.35032">
        <ele>2</ele>
        <time>2018-09-21T15:47:27.000Z</time>
      </trkpt>
      <trkpt lat="46.72757" lon="-2.3503">
        <ele>2</ele>
        <time>2018-09-21T15:47:28.000Z</time>
      </trkpt>
      <trkpt lat="46.72757" lon="-2.35029">
        <ele>2</ele>
        <time>2018-09-21T15:47:29.000Z</time>
      </trkpt>
      <trkpt lat="46.72757" lon="-2.35028">
        <ele>2</ele>
        <time>2018-09-21T15:47:30.000Z</time>
      </trkpt>
      <trkpt lat="46.72756" lon="-2.35026">
        <ele>2</ele>
        <time>2018-09-21T15:47:31.000Z</time>
      </trkpt>
      <trkpt lat="46.72756" lon="-2.35025">
        <ele>2</ele>
        <time>2018-09-21T15:47:32.000Z</time>
      </trkpt>
      <trkpt lat="46.72755" lon="-2.35023">
        <ele>2</ele>
        <time>2018-09-21T15:47:33.000Z</time>
      </trkpt>
      <trkpt lat="46.72754" lon="-2.35022">
        <ele>2</ele>
        <time>2018-09-21T15:47:34.000Z</time>
      </trkpt>
      <trkpt lat="46.72754" lon="-2.35021">
        <ele>2</ele>
        <time>2018-09-21T15:47:35.000Z</time>
      </trkpt>
      <trkpt lat="46.72753" lon="-2.3502">
        <ele>2</ele>
        <time>2018-09-21T15:47:36.000Z</time>
      </trkpt>
      <trkpt lat="46.72752" lon="-2.35019">
        <ele>2</ele>
        <time>2018-09-21T15:47:37.000Z</time>
      </trkpt>
      <trkpt lat="46.72752" lon="-2.35018">
        <ele>2</ele>
        <time>2018-09-21T15:47:38.000Z</time>
      </trkpt>
      <trkpt lat="46.72751" lon="-2.35017">
        <ele>2</ele>
        <time>2018-09-21T15:47:39.000Z</time>
      </trkpt>
      <trkpt lat="46.7275" lon="-2.35016">
        <ele>2</ele>
        <time>2018-09-21T15:47:40.000Z</time>
      </trkpt>
      <trkpt lat="46.72749" lon="-2.35016">
        <ele>2.6</ele>
        <time>2018-09-21T15:47:41.000Z</time>
      </trkpt>
      <trkpt lat="46.72749" lon="-2.35015">
        <ele>2.5</ele>
        <time>2018-09-21T15:47:42.000Z</time>
      </trkpt>
      <trkpt lat="46.72748" lon="-2.35013">
        <ele>2.5</ele>
        <time>2018-09-21T15:47:43.000Z</time>
      </trkpt>
      <trkpt lat="46.72747" lon="-2.35012">
        <ele>2.5</ele>
        <time>2018-09-21T15:47:44.000Z</time>
      </trkpt>
      <trkpt lat="46.72746" lon="-2.35011">
        <ele>2.4</ele>
        <time>2018-09-21T15:47:45.000Z</time>
      </trkpt>
      <trkpt lat="46.72745" lon="-2.3501">
        <ele>2.4</ele>
        <time>2018-09-21T15:47:46.000Z</time>
      </trkpt>
      <trkpt lat="46.72744" lon="-2.3501">
        <ele>2.4</ele>
        <time>2018-09-21T15:47:47.000Z</time>
      </trkpt>
      <trkpt lat="46.72743" lon="-2.3501">
        <ele>2.4</ele>
        <time>2018-09-21T15:47:48.000Z</time>
      </trkpt>
      <trkpt lat="46.72742" lon="-2.3501">
        <ele>2.4</ele>
        <time>2018-09-21T15:47:49.000Z</time>
      </trkpt>
      <trkpt lat="46.72742" lon="-2.3501">
        <ele>2.4</ele>
        <time>2018-09-21T15:47:50.000Z</time>
      </trkpt>
      <trkpt lat="46.72741" lon="-2.3501">
        <ele>2.4</ele>
        <time>2018-09-21T15:47:51.000Z</time>
      </trkpt>
      <trkpt lat="46.7274" lon="-2.3501">
        <ele>2.4</ele>
        <time>2018-09-21T15:47:52.000Z</time>
      </trkpt>
      <trkpt lat="46.72739" lon="-2.3501">
        <ele>2.4</ele>
        <time>2018-09-21T15:47:53.000Z</time>
      </trkpt>
      <trkpt lat="46.72738" lon="-2.35009">
        <ele>2.4</ele>
        <time>2018-09-21T15:47:54.000Z</time>
      </trkpt>
      <trkpt lat="46.72737" lon="-2.35009">
        <ele>2.4</ele>
        <time>2018-09-21T15:47:55.000Z</time>
      </trkpt>
      <trkpt lat="46.72737" lon="-2.35008">
        <ele>2.4</ele>
        <time>2018-09-21T15:47:56.000Z</time>
      </trkpt>
      <trkpt lat="46.72736" lon="-2.35007">
        <ele>2.4</ele>
        <time>2018-09-21T15:47:57.000Z</time>
      </trkpt>
      <trkpt lat="46.72735" lon="-2.35006">
        <ele>2.4</ele>
        <time>2018-09-21T15:47:58.000Z</time>
      </trkpt>
      <trkpt lat="46.72735" lon="-2.35005">
        <ele>2.3</ele>
        <time>2018-09-21T15:47:59.000Z</time>
      </trkpt>
      <trkpt lat="46.72734" lon="-2.35004">
        <ele>2.3</ele>
        <time>2018-09-21T15:48:00.000Z</time>
      </trkpt>
      <trkpt lat="46.72734" lon="-2.35003">
        <ele>2.3</ele>
        <time>2018-09-21T15:48:01.000Z</time>
      </trkpt>
      <trkpt lat="46.72734" lon="-2.35002">
        <ele>2.3</ele>
        <time>2018-09-21T15:48:02.000Z</time>
      </trkpt>
      <trkpt lat="46.72733" lon="-2.35001">
        <ele>2.2</ele>
        <time>2018-09-21T15:48:03.000Z</time>
      </trkpt>
      <trkpt lat="46.72732" lon="-2.34999">
        <ele>2.2</ele>
        <time>2018-09-21T15:48:04.000Z</time>
      </trkpt>
      <trkpt lat="46.72732" lon="-2.34998">
        <ele>2.2</ele>
        <time>2018-09-21T15:48:05.000Z</time>
      </trkpt>
      <trkpt lat="46.72731" lon="-2.34997">
        <ele>2.2</ele>
        <time>2018-09-21T15:48:06.000Z</time>
      </trkpt>
      <trkpt lat="46.7273" lon="-2.34996">
        <ele>2.2</ele>
        <time>2018-09-21T15:48:07.000Z</time>
      </trkpt>
      <trkpt lat="46.72729" lon="-2.34995">
        <ele>2.2</ele>
        <time>2018-09-21T15:48:08.000Z</time>
      </trkpt>
      <trkpt lat="46.72728" lon="-2.34994">
        <ele>2.2</ele>
        <time>2018-09-21T15:48:09.000Z</time>
      </trkpt>
      <trkpt lat="46.72727" lon="-2.34993">
        <ele>2.2</ele>
        <time>2018-09-21T15:48:10.000Z</time>
      </trkpt>
      <trkpt lat="46.72726" lon="-2.34992">
        <ele>2.2</ele>
        <time>2018-09-21T15:48:11.000Z</time>
      </trkpt>
      <trkpt lat="46.72726" lon="-2.34992">
        <ele>2.2</ele>
        <time>2018-09-21T15:48:12.000Z</time>
      </trkpt>
      <trkpt lat="46.72725" lon="-2.34992">
        <ele>2.2</ele>
        <time>2018-09-21T15:48:13.000Z</time>
      </trkpt>
      <trkpt lat="46.72724" lon="-2.34992">
        <ele>2.2</ele>
        <time>2018-09-21T15:48:14.000Z</time>
      </trkpt>
      <trkpt lat="46.72723" lon="-2.34993">
        <ele>2.2</ele>
        <time>2018-09-21T15:48:15.000Z</time>
      </trkpt>
      <trkpt lat="46.72723" lon="-2.34994">
        <ele>2.2</ele>
        <time>2018-09-21T15:48:16.000Z</time>
      </trkpt>
      <trkpt lat="46.72722" lon="-2.34995">
        <ele>2.3</ele>
        <time>2018-09-21T15:48:17.000Z</time>
      </trkpt>
      <trkpt lat="46.72722" lon="-2.34997">
        <ele>2.3</ele>
        <time>2018-09-21T15:48:18.000Z</time>
      </trkpt>
      <trkpt lat="46.72721" lon="-2.34999">
        <ele>2.3</ele>
        <time>2018-09-21T15:48:19.000Z</time>
      </trkpt>
      <trkpt lat="46.72721" lon="-2.35">
        <ele>2.4</ele>
        <time>2018-09-21T15:48:20.000Z</time>
      </trkpt>
      <trkpt lat="46.72721" lon="-2.35002">
        <ele>2.4</ele>
        <time>2018-09-21T15:48:21.000Z</time>
      </trkpt>
      <trkpt lat="46.7272" lon="-2.35004">
        <ele>2.5</ele>
        <time>2018-09-21T15:48:22.000Z</time>
      </trkpt>
      <trkpt lat="46.7272" lon="-2.35006">
        <ele>2.5</ele>
        <time>2018-09-21T15:48:23.000Z</time>
      </trkpt>
      <trkpt lat="46.72719" lon="-2.35008">
        <ele>2.6</ele>
        <time>2018-09-21T15:48:24.000Z</time>
      </trkpt>
      <trkpt lat="46.72719" lon="-2.35009">
        <ele>2.6</ele>
        <time>2018-09-21T15:48:25.000Z</time>
      </trkpt>
      <trkpt lat="46.72718" lon="-2.3501">
        <ele>2.7</ele>
        <time>2018-09-21T15:48:26.000Z</time>
      </trkpt>
      <trkpt lat="46.72718" lon="-2.35011">
        <ele>2.7</ele>
        <time>2018-09-21T15:48:27.000Z</time>
      </trkpt>
      <trkpt lat="46.72717" lon="-2.35012">
        <ele>2.7</ele>
        <time>2018-09-21T15:48:28.000Z</time>
      </trkpt>
      <trkpt lat="46.72716" lon="-2.35013">
        <ele>2.7</ele>
        <time>2018-09-21T15:48:29.000Z</time>
      </trkpt>
      <trkpt lat="46.72715" lon="-2.35014">
        <ele>2.8</ele>
        <time>2018-09-21T15:48:30.000Z</time>
      </trkpt>
      <trkpt lat="46.72715" lon="-2.35014">
        <ele>2.8</ele>
        <time>2018-09-21T15:48:31.000Z</time>
      </trkpt>
      <trkpt lat="46.72714" lon="-2.35015">
        <ele>2.8</ele>
        <time>2018-09-21T15:48:32.000Z</time>
      </trkpt>
      <trkpt lat="46.72713" lon="-2.35015">
        <ele>2.8</ele>
        <time>2018-09-21T15:48:33.000Z</time>
      </trkpt>
      <trkpt lat="46.72712" lon="-2.35015">
        <ele>2.8</ele>
        <time>2018-09-21T15:48:34.000Z</time>
      </trkpt>
      <trkpt lat="46.72711" lon="-2.35016">
        <ele>2.9</ele>
        <time>2018-09-21T15:48:35.000Z</time>
      </trkpt>
      <trkpt lat="46.7271" lon="-2.35016">
        <ele>2.9</ele>
        <time>2018-09-21T15:48:36.000Z</time>
      </trkpt>
      <trkpt lat="46.7271" lon="-2.35017">
        <ele>2.9</ele>
        <time>2018-09-21T15:48:37.000Z</time>
      </trkpt>
      <trkpt lat="46.72709" lon="-2.35017">
        <ele>2.9</ele>
        <time>2018-09-21T15:48:38.000Z</time>
      </trkpt>
      <trkpt lat="46.72708" lon="-2.35018">
        <ele>2.9</ele>
        <time>2018-09-21T15:48:39.000Z</time>
      </trkpt>
      <trkpt lat="46.72707" lon="-2.35018">
        <ele>2.9</ele>
        <time>2018-09-21T15:48:40.000Z</time>
      </trkpt>
      <trkpt lat="46.72706" lon="-2.35018">
        <ele>3</ele>
        <time>2018-09-21T15:48:41.000Z</time>
      </trkpt>
      <trkpt lat="46.72706" lon="-2.35019">
        <ele>3</ele>
        <time>2018-09-21T15:48:42.000Z</time>
      </trkpt>
      <trkpt lat="46.72705" lon="-2.35019">
        <ele>3</ele>
        <time>2018-09-21T15:48:43.000Z</time>
      </trkpt>
      <trkpt lat="46.72704" lon="-2.35019">
        <ele>3</ele>
        <time>2018-09-21T15:48:44.000Z</time>
      </trkpt>
      <trkpt lat="46.72703" lon="-2.3502">
        <ele>3</ele>
        <time>2018-09-21T15:48:45.000Z</time>
      </trkpt>
      <trkpt lat="46.72702" lon="-2.3502">
        <ele>3</ele>
        <time>2018-09-21T15:48:46.000Z</time>
      </trkpt>
      <trkpt lat="46.72702" lon="-2.3502">
        <ele>3</ele>
        <time>2018-09-21T15:48:47.000Z</time>
      </trkpt>
      <trkpt lat="46.72701" lon="-2.35021">
        <ele>3</ele>
        <time>2018-09-21T15:48:48.000Z</time>
      </trkpt>
      <trkpt lat="46.727" lon="-2.35021">
        <ele>3</ele>
        <time>2018-09-21T15:48:49.000Z</time>
      </trkpt>
      <trkpt lat="46.72699" lon="-2.35021">
        <ele>3.1</ele>
        <time>2018-09-21T15:48:50.000Z</time>
      </trkpt>
      <trkpt lat="46.72698" lon="-2.35021">
        <ele>3.1</ele>
        <time>2018-09-21T15:48:51.000Z</time>
      </trkpt>
      <trkpt lat="46.72697" lon="-2.35021">
        <ele>3.1</ele>
        <time>2018-09-21T15:48:52.000Z</time>
      </trkpt>
      <trkpt lat="46.72696" lon="-2.35021">
        <ele>3.1</ele>
        <time>2018-09-21T15:48:53.000Z</time>
      </trkpt>
      <trkpt lat="46.72695" lon="-2.35021">
        <ele>3.1</ele>
        <time>2018-09-21T15:48:54.000Z</time>
      </trkpt>
      <trkpt lat="46.72694" lon="-2.35021">
        <ele>3.1</ele>
        <time>2018-09-21T15:48:55.000Z</time>
      </trkpt>
      <trkpt lat="46.72693" lon="-2.3502">
        <ele>3.1</ele>
        <time>2018-09-21T15:48:56.000Z</time>
      </trkpt>
      <trkpt lat="46.72692" lon="-2.3502">
        <ele>3.1</ele>
        <time>2018-09-21T15:48:57.000Z</time>
      </trkpt>
      <trkpt lat="46.72691" lon="-2.3502">
        <ele>3.1</ele>
        <time>2018-09-21T15:48:58.000Z</time>
      </trkpt>
      <trkpt lat="46.7269" lon="-2.35019">
        <ele>3.1</ele>
        <time>2018-09-21T15:48:59.000Z</time>
      </trkpt>
      <trkpt lat="46.72688" lon="-2.35019">
        <ele>3.1</ele>
        <time>2018-09-21T15:49:00.000Z</time>
      </trkpt>
      <trkpt lat="46.72687" lon="-2.35019">
        <ele>3.1</ele>
        <time>2018-09-21T15:49:01.000Z</time>
      </trkpt>
      <trkpt lat="46.72686" lon="-2.35018">
        <ele>3.1</ele>
        <time>2018-09-21T15:49:02.000Z</time>
      </trkpt>
      <trkpt lat="46.72685" lon="-2.35017">
        <ele>3.1</ele>
        <time>2018-09-21T15:49:03.000Z</time>
      </trkpt>
      <trkpt lat="46.72684" lon="-2.35017">
        <ele>3.1</ele>
        <time>2018-09-21T15:49:04.000Z</time>
      </trkpt>
      <trkpt lat="46.72683" lon="-2.35016">
        <ele>3.1</ele>
        <time>2018-09-21T15:49:05.000Z</time>
      </trkpt>
      <trkpt lat="46.72682" lon="-2.35016">
        <ele>3.1</ele>
        <time>2018-09-21T15:49:06.000Z</time>
      </trkpt>
      <trkpt lat="46.72681" lon="-2.35015">
        <ele>3.1</ele>
        <time>2018-09-21T15:49:07.000Z</time>
      </trkpt>
      <trkpt lat="46.7268" lon="-2.35015">
        <ele>3.1</ele>
        <time>2018-09-21T15:49:08.000Z</time>
      </trkpt>
      <trkpt lat="46.7268" lon="-2.35014">
        <ele>3.1</ele>
        <time>2018-09-21T15:49:09.000Z</time>
      </trkpt>
      <trkpt lat="46.72678" lon="-2.35014">
        <ele>3.1</ele>
        <time>2018-09-21T15:49:10.000Z</time>
      </trkpt>
      <trkpt lat="46.72677" lon="-2.35014">
        <ele>3.1</ele>
        <time>2018-09-21T15:49:11.000Z</time>
      </trkpt>
      <trkpt lat="46.72676" lon="-2.35013">
        <ele>3.1</ele>
        <time>2018-09-21T15:49:12.000Z</time>
      </trkpt>
      <trkpt lat="46.72676" lon="-2.35012">
        <ele>3.1</ele>
        <time>2018-09-21T15:49:13.000Z</time>
      </trkpt>
      <trkpt lat="46.72675" lon="-2.35012">
        <ele>3.1</ele>
        <time>2018-09-21T15:49:14.000Z</time>
      </trkpt>
      <trkpt lat="46.72674" lon="-2.35011">
        <ele>3.1</ele>
        <time>2018-09-21T15:49:15.000Z</time>
      </trkpt>
      <trkpt lat="46.72673" lon="-2.3501">
        <ele>3.1</ele>
        <time>2018-09-21T15:49:16.000Z</time>
      </trkpt>
      <trkpt lat="46.72672" lon="-2.35009">
        <ele>3.1</ele>
        <time>2018-09-21T15:49:17.000Z</time>
      </trkpt>
      <trkpt lat="46.72671" lon="-2.35008">
        <ele>3.1</ele>
        <time>2018-09-21T15:49:18.000Z</time>
      </trkpt>
      <trkpt lat="46.7267" lon="-2.35007">
        <ele>3.1</ele>
        <time>2018-09-21T15:49:19.000Z</time>
      </trkpt>
      <trkpt lat="46.72669" lon="-2.35007">
        <ele>3.1</ele>
        <time>2018-09-21T15:49:20.000Z</time>
      </trkpt>
      <trkpt lat="46.72668" lon="-2.35006">
        <ele>3.1</ele>
        <time>2018-09-21T15:49:21.000Z</time>
      </trkpt>
      <trkpt lat="46.72668" lon="-2.35005">
        <ele>3.1</ele>
        <time>2018-09-21T15:49:22.000Z</time>
      </trkpt>
      <trkpt lat="46.72667" lon="-2.35005">
        <ele>3.1</ele>
        <time>2018-09-21T15:49:23.000Z</time>
      </trkpt>
      <trkpt lat="46.72666" lon="-2.35004">
        <ele>3.1</ele>
        <time>2018-09-21T15:49:24.000Z</time>
      </trkpt>
      <trkpt lat="46.72665" lon="-2.35004">
        <ele>3.1</ele>
        <time>2018-09-21T15:49:25.000Z</time>
      </trkpt>
      <trkpt lat="46.72665" lon="-2.35004">
        <ele>3.1</ele>
        <time>2018-09-21T15:49:26.000Z</time>
      </trkpt>
      <trkpt lat="46.72664" lon="-2.35004">
        <ele>3.1</ele>
        <time>2018-09-21T15:49:27.000Z</time>
      </trkpt>
      <trkpt lat="46.72664" lon="-2.35004">
        <ele>3.1</ele>
        <time>2018-09-21T15:49:28.000Z</time>
      </trkpt>
      <trkpt lat="46.72663" lon="-2.35004">
        <ele>3.1</ele>
        <time>2018-09-21T15:49:29.000Z</time>
      </trkpt>
      <trkpt lat="46.72662" lon="-2.35004">
        <ele>3.1</ele>
        <time>2018-09-21T15:49:30.000Z</time>
      </trkpt>
      <trkpt lat="46.72662" lon="-2.35004">
        <ele>3.1</ele>
        <time>2018-09-21T15:49:31.000Z</time>
      </trkpt>
      <trkpt lat="46.72662" lon="-2.35004">
        <ele>3.1</ele>
        <time>2018-09-21T15:49:32.000Z</time>
      </trkpt>
      <trkpt lat="46.72661" lon="-2.35005">
        <ele>3.1</ele>
        <time>2018-09-21T15:49:33.000Z</time>
      </trkpt>
      <trkpt lat="46.72661" lon="-2.35005">
        <ele>3.1</ele>
        <time>2018-09-21T15:49:34.000Z</time>
      </trkpt>
      <trkpt lat="46.7266" lon="-2.35006">
        <ele>3.1</ele>
        <time>2018-09-21T15:49:35.000Z</time>
      </trkpt>
      <trkpt lat="46.7266" lon="-2.35006">
        <ele>3.2</ele>
        <time>2018-09-21T15:49:36.000Z</time>
      </trkpt>
      <trkpt lat="46.72659" lon="-2.35007">
        <ele>3.2</ele>
        <time>2018-09-21T15:49:37.000Z</time>
      </trkpt>
      <trkpt lat="46.72659" lon="-2.35007">
        <ele>3.2</ele>
        <time>2018-09-21T15:49:38.000Z</time>
      </trkpt>
      <trkpt lat="46.72658" lon="-2.35008">
        <ele>3.2</ele>
        <time>2018-09-21T15:49:39.000Z</time>
      </trkpt>
      <trkpt lat="46.72658" lon="-2.35008">
        <ele>3.2</ele>
        <time>2018-09-21T15:49:40.000Z</time>
      </trkpt>
      <trkpt lat="46.72657" lon="-2.35009">
        <ele>3.2</ele>
        <time>2018-09-21T15:49:41.000Z</time>
      </trkpt>
      <trkpt lat="46.72656" lon="-2.35009">
        <ele>3.2</ele>
        <time>2018-09-21T15:49:42.000Z</time>
      </trkpt>
      <trkpt lat="46.72656" lon="-2.3501">
        <ele>3.2</ele>
        <time>2018-09-21T15:49:43.000Z</time>
      </trkpt>
      <trkpt lat="46.72655" lon="-2.3501">
        <ele>3.3</ele>
        <time>2018-09-21T15:49:44.000Z</time>
      </trkpt>
      <trkpt lat="46.72654" lon="-2.35011">
        <ele>3.3</ele>
        <time>2018-09-21T15:49:45.000Z</time>
      </trkpt>
      <trkpt lat="46.72653" lon="-2.35011">
        <ele>3.3</ele>
        <time>2018-09-21T15:49:46.000Z</time>
      </trkpt>
      <trkpt lat="46.72652" lon="-2.35011">
        <ele>3.3</ele>
        <time>2018-09-21T15:49:47.000Z</time>
      </trkpt>
      <trkpt lat="46.72651" lon="-2.35012">
        <ele>3.3</ele>
        <time>2018-09-21T15:49:48.000Z</time>
      </trkpt>
      <trkpt lat="46.7265" lon="-2.35012">
        <ele>3.3</ele>
        <time>2018-09-21T15:49:49.000Z</time>
      </trkpt>
      <trkpt lat="46.7265" lon="-2.35012">
        <ele>3.4</ele>
        <time>2018-09-21T15:49:50.000Z</time>
      </trkpt>
      <trkpt lat="46.72648" lon="-2.35013">
        <ele>3.4</ele>
        <time>2018-09-21T15:49:51.000Z</time>
      </trkpt>
      <trkpt lat="46.72647" lon="-2.35013">
        <ele>3.4</ele>
        <time>2018-09-21T15:49:52.000Z</time>
      </trkpt>
      <trkpt lat="46.72646" lon="-2.35014">
        <ele>3.4</ele>
        <time>2018-09-21T15:49:53.000Z</time>
      </trkpt>
      <trkpt lat="46.72645" lon="-2.35014">
        <ele>3.4</ele>
        <time>2018-09-21T15:49:54.000Z</time>
      </trkpt>
      <trkpt lat="46.72644" lon="-2.35014">
        <ele>3.4</ele>
        <time>2018-09-21T15:49:55.000Z</time>
      </trkpt>
      <trkpt lat="46.72644" lon="-2.35015">
        <ele>3.5</ele>
        <time>2018-09-21T15:49:56.000Z</time>
      </trkpt>
      <trkpt lat="46.72643" lon="-2.35015">
        <ele>3.5</ele>
        <time>2018-09-21T15:49:57.000Z</time>
      </trkpt>
      <trkpt lat="46.72642" lon="-2.35015">
        <ele>3.5</ele>
        <time>2018-09-21T15:49:58.000Z</time>
      </trkpt>
      <trkpt lat="46.72641" lon="-2.35015">
        <ele>3.5</ele>
        <time>2018-09-21T15:49:59.000Z</time>
      </trkpt>
      <trkpt lat="46.7264" lon="-2.35015">
        <ele>3.5</ele>
        <time>2018-09-21T15:50:00.000Z</time>
      </trkpt>
      <trkpt lat="46.7264" lon="-2.35015">
        <ele>3.5</ele>
        <time>2018-09-21T15:50:01.000Z</time>
      </trkpt>
      <trkpt lat="46.72639" lon="-2.35015">
        <ele>3.5</ele>
        <time>2018-09-21T15:50:02.000Z</time>
      </trkpt>
      <trkpt lat="46.72639" lon="-2.35015">
        <ele>3.5</ele>
        <time>2018-09-21T15:50:03.000Z</time>
      </trkpt>
      <trkpt lat="46.72638" lon="-2.35015">
        <ele>3.5</ele>
        <time>2018-09-21T15:50:04.000Z</time>
      </trkpt>
      <trkpt lat="46.72637" lon="-2.35015">
        <ele>3.5</ele>
        <time>2018-09-21T15:50:05.000Z</time>
      </trkpt>
      <trkpt lat="46.72637" lon="-2.35015">
        <ele>3.5</ele>
        <time>2018-09-21T15:50:06.000Z</time>
      </trkpt>
      <trkpt lat="46.72636" lon="-2.35015">
        <ele>3.6</ele>
        <time>2018-09-21T15:50:07.000Z</time>
      </trkpt>
      <trkpt lat="46.72635" lon="-2.35015">
        <ele>3.6</ele>
        <time>2018-09-21T15:50:08.000Z</time>
      </trkpt>
      <trkpt lat="46.72634" lon="-2.35015">
        <ele>3.6</ele>
        <time>2018-09-21T15:50:09.000Z</time>
      </trkpt>
      <trkpt lat="46.72633" lon="-2.35016">
        <ele>3.6</ele>
        <time>2018-09-21T15:50:10.000Z</time>
      </trkpt>
      <trkpt lat="46.72631" lon="-2.35016">
        <ele>3.6</ele>
        <time>2018-09-21T15:50:11.000Z</time>
      </trkpt>
      <trkpt lat="46.7263" lon="-2.35016">
        <ele>3.6</ele>
        <time>2018-09-21T15:50:12.000Z</time>
      </trkpt>
      <trkpt lat="46.72629" lon="-2.35017">
        <ele>3.7</ele>
        <time>2018-09-21T15:50:13.000Z</time>
      </trkpt>
      <trkpt lat="46.72628" lon="-2.35017">
        <ele>3.7</ele>
        <time>2018-09-21T15:50:14.000Z</time>
      </trkpt>
      <trkpt lat="46.72627" lon="-2.35018">
        <ele>3.7</ele>
        <time>2018-09-21T15:50:15.000Z</time>
      </trkpt>
      <trkpt lat="46.72627" lon="-2.35018">
        <ele>3.7</ele>
        <time>2018-09-21T15:50:16.000Z</time>
      </trkpt>
      <trkpt lat="46.72626" lon="-2.35018">
        <ele>3.7</ele>
        <time>2018-09-21T15:50:17.000Z</time>
      </trkpt>
      <trkpt lat="46.72626" lon="-2.35019">
        <ele>3.7</ele>
        <time>2018-09-21T15:50:18.000Z</time>
      </trkpt>
      <trkpt lat="46.72626" lon="-2.35019">
        <ele>3.7</ele>
        <time>2018-09-21T15:50:19.000Z</time>
      </trkpt>
      <trkpt lat="46.72626" lon="-2.35019">
        <ele>3.7</ele>
        <time>2018-09-21T15:50:20.000Z</time>
      </trkpt>
      <trkpt lat="46.72626" lon="-2.35019">
        <ele>3.7</ele>
        <time>2018-09-21T15:50:21.000Z</time>
      </trkpt>
      <trkpt lat="46.72626" lon="-2.35019">
        <ele>3.7</ele>
        <time>2018-09-21T15:50:22.000Z</time>
      </trkpt>
      <trkpt lat="46.72626" lon="-2.35019">
        <ele>3.7</ele>
        <time>2018-09-21T15:50:23.000Z</time>
      </trkpt>
      <trkpt lat="46.72625" lon="-2.35019">
        <ele>3.7</ele>
        <time>2018-09-21T15:50:24.000Z</time>
      </trkpt>
      <trkpt lat="46.72625" lon="-2.3502">
        <ele>3.7</ele>
        <time>2018-09-21T15:50:25.000Z</time>
      </trkpt>
      <trkpt lat="46.72624" lon="-2.3502">
        <ele>3.8</ele>
        <time>2018-09-21T15:50:26.000Z</time>
      </trkpt>
      <trkpt lat="46.72623" lon="-2.35021">
        <ele>3.8</ele>
        <time>2018-09-21T15:50:27.000Z</time>
      </trkpt>
      <trkpt lat="46.72623" lon="-2.35021">
        <ele>3.8</ele>
        <time>2018-09-21T15:50:28.000Z</time>
      </trkpt>
      <trkpt lat="46.72622" lon="-2.35022">
        <ele>3.8</ele>
        <time>2018-09-21T15:50:29.000Z</time>
      </trkpt>
      <trkpt lat="46.72621" lon="-2.35022">
        <ele>3.8</ele>
        <time>2018-09-21T15:50:30.000Z</time>
      </trkpt>
      <trkpt lat="46.7262" lon="-2.35023">
        <ele>3.8</ele>
        <time>2018-09-21T15:50:31.000Z</time>
      </trkpt>
      <trkpt lat="46.7262" lon="-2.35023">
        <ele>3.8</ele>
        <time>2018-09-21T15:50:32.000Z</time>
      </trkpt>
      <trkpt lat="46.72619" lon="-2.35024">
        <ele>3.9</ele>
        <time>2018-09-21T15:50:33.000Z</time>
      </trkpt>
      <trkpt lat="46.72619" lon="-2.35024">
        <ele>3.9</ele>
        <time>2018-09-21T15:50:34.000Z</time>
      </trkpt>
      <trkpt lat="46.72619" lon="-2.35024">
        <ele>3.9</ele>
        <time>2018-09-21T15:50:35.000Z</time>
      </trkpt>
      <trkpt lat="46.72619" lon="-2.35025">
        <ele>3.9</ele>
        <time>2018-09-21T15:50:36.000Z</time>
      </trkpt>
      <trkpt lat="46.72619" lon="-2.35025">
        <ele>3.9</ele>
        <time>2018-09-21T15:50:37.000Z</time>
      </trkpt>
      <trkpt lat="46.7262" lon="-2.35026">
        <ele>3.9</ele>
        <time>2018-09-21T15:50:38.000Z</time>
      </trkpt>
      <trkpt lat="46.72621" lon="-2.35027">
        <ele>3.9</ele>
        <time>2018-09-21T15:50:50.000Z</time>
      </trkpt>
      <trkpt lat="46.72622" lon="-2.35027">
        <ele>3.9</ele>
        <time>2018-09-21T15:50:51.000Z</time>
      </trkpt>
      <trkpt lat="46.72623" lon="-2.35027">
        <ele>3.8</ele>
        <time>2018-09-21T15:51:03.000Z</time>
      </trkpt>
      <trkpt lat="46.72624" lon="-2.35028">
        <ele>3.8</ele>
        <time>2018-09-21T15:51:04.000Z</time>
      </trkpt>
      <trkpt lat="46.72625" lon="-2.35028">
        <ele>3.8</ele>
        <time>2018-09-21T15:51:05.000Z</time>
      </trkpt>
      <trkpt lat="46.72625" lon="-2.35028">
        <ele>3.8</ele>
        <time>2018-09-21T15:51:06.000Z</time>
      </trkpt>
      <trkpt lat="46.72625" lon="-2.35028">
        <ele>3.8</ele>
        <time>2018-09-21T15:51:07.000Z</time>
      </trkpt>
      <trkpt lat="46.72626" lon="-2.35028">
        <ele>3.8</ele>
        <time>2018-09-21T15:51:08.000Z</time>
      </trkpt>
      <trkpt lat="46.72625" lon="-2.35028">
        <ele>3.8</ele>
        <time>2018-09-21T15:51:09.000Z</time>
      </trkpt>
      <trkpt lat="46.72625" lon="-2.35028">
        <ele>3.8</ele>
        <time>2018-09-21T15:51:10.000Z</time>
      </trkpt>
      <trkpt lat="46.72625" lon="-2.35028">
        <ele>3.8</ele>
        <time>2018-09-21T15:51:11.000Z</time>
      </trkpt>
      <trkpt lat="46.72625" lon="-2.35028">
        <ele>3.8</ele>
        <time>2018-09-21T15:51:12.000Z</time>
      </trkpt>
      <trkpt lat="46.72624" lon="-2.35028">
        <ele>3.8</ele>
        <time>2018-09-21T15:51:13.000Z</time>
      </trkpt>
      <trkpt lat="46.72624" lon="-2.35027">
        <ele>3.8</ele>
        <time>2018-09-21T15:51:14.000Z</time>
      </trkpt>
      <trkpt lat="46.72624" lon="-2.35027">
        <ele>3.8</ele>
        <time>2018-09-21T15:51:15.000Z</time>
      </trkpt>
      <trkpt lat="46.72623" lon="-2.35027">
        <ele>3.8</ele>
        <time>2018-09-21T15:51:16.000Z</time>
      </trkpt>
      <trkpt lat="46.72623" lon="-2.35027">
        <ele>3.8</ele>
        <time>2018-09-21T15:51:17.000Z</time>
      </trkpt>
      <trkpt lat="46.72623" lon="-2.35026">
        <ele>3.8</ele>
        <time>2018-09-21T15:51:18.000Z</time>
      </trkpt>
      <trkpt lat="46.72623" lon="-2.35026">
        <ele>3.8</ele>
        <time>2018-09-21T15:51:19.000Z</time>
      </trkpt>
      <trkpt lat="46.72623" lon="-2.35026">
        <ele>3.8</ele>
        <time>2018-09-21T15:51:20.000Z</time>
      </trkpt>
      <trkpt lat="46.72623" lon="-2.35026">
        <ele>3.8</ele>
        <time>2018-09-21T15:51:21.000Z</time>
      </trkpt>
      <trkpt lat="46.72624" lon="-2.35026">
        <ele>3.8</ele>
        <time>2018-09-21T15:51:22.000Z</time>
      </trkpt>
      <trkpt lat="46.72624" lon="-2.35026">
        <ele>3.8</ele>
        <time>2018-09-21T15:51:23.000Z</time>
      </trkpt>
      <trkpt lat="46.72624" lon="-2.35026">
        <ele>3.8</ele>
        <time>2018-09-21T15:51:24.000Z</time>
      </trkpt>
      <trkpt lat="46.72625" lon="-2.35027">
        <ele>3.8</ele>
        <time>2018-09-21T15:51:25.000Z</time>
      </trkpt>
      <trkpt lat="46.72625" lon="-2.35027">
        <ele>3.8</ele>
        <time>2018-09-21T15:51:26.000Z</time>
      </trkpt>
      <trkpt lat="46.72626" lon="-2.35027">
        <ele>3.8</ele>
        <time>2018-09-21T15:51:27.000Z</time>
      </trkpt>
      <trkpt lat="46.72626" lon="-2.35027">
        <ele>3.8</ele>
        <time>2018-09-21T15:51:28.000Z</time>
      </trkpt>
      <trkpt lat="46.72627" lon="-2.35027">
        <ele>3.8</ele>
        <time>2018-09-21T15:51:29.000Z</time>
      </trkpt>
      <trkpt lat="46.72627" lon="-2.35027">
        <ele>3.8</ele>
        <time>2018-09-21T15:51:30.000Z</time>
      </trkpt>
      <trkpt lat="46.72628" lon="-2.35027">
        <ele>3.8</ele>
        <time>2018-09-21T15:51:31.000Z</time>
      </trkpt>
      <trkpt lat="46.72628" lon="-2.35027">
        <ele>3.8</ele>
        <time>2018-09-21T15:51:32.000Z</time>
      </trkpt>
      <trkpt lat="46.72628" lon="-2.35028">
        <ele>3.8</ele>
        <time>2018-09-21T15:51:33.000Z</time>
      </trkpt>
      <trkpt lat="46.72628" lon="-2.35028">
        <ele>3.8</ele>
        <time>2018-09-21T15:51:34.000Z</time>
      </trkpt>
      <trkpt lat="46.72628" lon="-2.35027">
        <ele>3.8</ele>
        <time>2018-09-21T15:51:35.000Z</time>
      </trkpt>
      <trkpt lat="46.72628" lon="-2.35027">
        <ele>3.8</ele>
        <time>2018-09-21T15:51:36.000Z</time>
      </trkpt>
    </trkseg>
  </trk>
</gpx>